<?xml version="1.0" encoding="UTF-8" standalone="no" ?>
<gpx xmlns="http://www.topografix.com/GPX/1/1" xmlns:xsi="http://www.w3.org/2001/XMLSchema-instance" xsi:schemaLocation="http://www.topografix.com/GPX/1/1 http://www.topografix.com/GPX/1/1/gpx.xsd" version="1.1" creator="VisuGPX - https://www.visugpx.com">
  <metadata>
    <name>ROQUEBRUNE SUR ARGENS</name>
    <desc><![CDATA[Paysages magnifiques, belles descentes avec quelques passages techniques, de quoi passer une superbe journée entre potes.]]></desc>
  </metadata>
  <trk>
    <name><![CDATA[20190505112112-VlqjS]]></name>
    <trkseg>
      <trkpt lat="43.44054" lon="6.6344">
        <ele>56</ele>
        <time>2019-05-04T07:40:09.000Z</time>
      </trkpt>
      <trkpt lat="43.44055" lon="6.63438">
        <ele>55.599998474121</ele>
        <time>2019-05-04T07:40:13.000Z</time>
      </trkpt>
      <trkpt lat="43.44055" lon="6.63436">
        <ele>55.799999237061</ele>
        <time>2019-05-04T07:40:15.000Z</time>
      </trkpt>
      <trkpt lat="43.44054" lon="6.63436">
        <ele>55.599998474121</ele>
        <time>2019-05-04T07:40:22.000Z</time>
      </trkpt>
      <trkpt lat="43.44055" lon="6.63439">
        <ele>55.799999237061</ele>
        <time>2019-05-04T07:40:30.000Z</time>
      </trkpt>
      <trkpt lat="43.44055" lon="6.6344">
        <ele>55.599998474121</ele>
        <time>2019-05-04T07:40:37.000Z</time>
      </trkpt>
      <trkpt lat="43.44055" lon="6.6344">
        <ele>55.400001525879</ele>
        <time>2019-05-04T07:40:53.000Z</time>
      </trkpt>
      <trkpt lat="43.44055" lon="6.6344">
        <ele>55.799999237061</ele>
        <time>2019-05-04T07:41:00.000Z</time>
      </trkpt>
      <trkpt lat="43.44054" lon="6.63441">
        <ele>54.799999237061</ele>
        <time>2019-05-04T07:41:06.000Z</time>
      </trkpt>
      <trkpt lat="43.44053" lon="6.63441">
        <ele>55</ele>
        <time>2019-05-04T07:41:08.000Z</time>
      </trkpt>
      <trkpt lat="43.44049" lon="6.63442">
        <ele>55.799999237061</ele>
        <time>2019-05-04T07:41:12.000Z</time>
      </trkpt>
      <trkpt lat="43.44047" lon="6.63442">
        <ele>56</ele>
        <time>2019-05-04T07:41:13.000Z</time>
      </trkpt>
      <trkpt lat="43.44045" lon="6.63442">
        <ele>56</ele>
        <time>2019-05-04T07:41:15.000Z</time>
      </trkpt>
      <trkpt lat="43.44036" lon="6.63438">
        <ele>56.200000762939</ele>
        <time>2019-05-04T07:41:22.000Z</time>
      </trkpt>
      <trkpt lat="43.44033" lon="6.63436">
        <ele>56.400001525879</ele>
        <time>2019-05-04T07:41:28.000Z</time>
      </trkpt>
      <trkpt lat="43.44033" lon="6.63437">
        <ele>56.799999237061</ele>
        <time>2019-05-04T07:41:38.000Z</time>
      </trkpt>
      <trkpt lat="43.44033" lon="6.63437">
        <ele>56.599998474121</ele>
        <time>2019-05-04T07:42:02.000Z</time>
      </trkpt>
      <trkpt lat="43.44034" lon="6.63437">
        <ele>56.200000762939</ele>
        <time>2019-05-04T07:42:16.000Z</time>
      </trkpt>
      <trkpt lat="43.44032" lon="6.63436">
        <ele>56.200000762939</ele>
        <time>2019-05-04T07:42:25.000Z</time>
      </trkpt>
      <trkpt lat="43.4403" lon="6.63438">
        <ele>56.400001525879</ele>
        <time>2019-05-04T07:42:38.000Z</time>
      </trkpt>
      <trkpt lat="43.4403" lon="6.63441">
        <ele>56.400001525879</ele>
        <time>2019-05-04T07:42:40.000Z</time>
      </trkpt>
      <trkpt lat="43.44033" lon="6.63442">
        <ele>56.200000762939</ele>
        <time>2019-05-04T07:42:43.000Z</time>
      </trkpt>
      <trkpt lat="43.44041" lon="6.63444">
        <ele>56.200000762939</ele>
        <time>2019-05-04T07:42:50.000Z</time>
      </trkpt>
      <trkpt lat="43.44042" lon="6.63444">
        <ele>56</ele>
        <time>2019-05-04T07:42:51.000Z</time>
      </trkpt>
      <trkpt lat="43.44043" lon="6.63445">
        <ele>56</ele>
        <time>2019-05-04T07:42:57.000Z</time>
      </trkpt>
      <trkpt lat="43.44043" lon="6.63445">
        <ele>56</ele>
        <time>2019-05-04T07:43:08.000Z</time>
      </trkpt>
      <trkpt lat="43.44044" lon="6.63444">
        <ele>55.799999237061</ele>
        <time>2019-05-04T07:43:26.000Z</time>
      </trkpt>
      <trkpt lat="43.44044" lon="6.6344">
        <ele>55.799999237061</ele>
        <time>2019-05-04T07:43:36.000Z</time>
      </trkpt>
      <trkpt lat="43.44043" lon="6.63439">
        <ele>55.799999237061</ele>
        <time>2019-05-04T07:43:37.000Z</time>
      </trkpt>
      <trkpt lat="43.44033" lon="6.63438">
        <ele>55.799999237061</ele>
        <time>2019-05-04T07:43:43.000Z</time>
      </trkpt>
      <trkpt lat="43.44029" lon="6.63436">
        <ele>56</ele>
        <time>2019-05-04T07:43:46.000Z</time>
      </trkpt>
      <trkpt lat="43.44027" lon="6.63433">
        <ele>56</ele>
        <time>2019-05-04T07:43:48.000Z</time>
      </trkpt>
      <trkpt lat="43.44017" lon="6.63431">
        <ele>56.400001525879</ele>
        <time>2019-05-04T07:43:54.000Z</time>
      </trkpt>
      <trkpt lat="43.44009" lon="6.63424">
        <ele>56.400001525879</ele>
        <time>2019-05-04T07:43:59.000Z</time>
      </trkpt>
      <trkpt lat="43.44004" lon="6.63418">
        <ele>57</ele>
        <time>2019-05-04T07:44:03.000Z</time>
      </trkpt>
      <trkpt lat="43.44002" lon="6.63415">
        <ele>57.200000762939</ele>
        <time>2019-05-04T07:44:05.000Z</time>
      </trkpt>
      <trkpt lat="43.44" lon="6.63405">
        <ele>57.599998474121</ele>
        <time>2019-05-04T07:44:11.000Z</time>
      </trkpt>
      <trkpt lat="43.44001" lon="6.63403">
        <ele>57.599998474121</ele>
        <time>2019-05-04T07:44:12.000Z</time>
      </trkpt>
      <trkpt lat="43.44002" lon="6.634">
        <ele>58</ele>
        <time>2019-05-04T07:44:16.000Z</time>
      </trkpt>
      <trkpt lat="43.44002" lon="6.634">
        <ele>58.200000762939</ele>
        <time>2019-05-04T07:44:17.000Z</time>
      </trkpt>
      <trkpt lat="43.43999" lon="6.634">
        <ele>58.200000762939</ele>
        <time>2019-05-04T07:44:20.000Z</time>
      </trkpt>
      <trkpt lat="43.43998" lon="6.634">
        <ele>58.200000762939</ele>
        <time>2019-05-04T07:44:21.000Z</time>
      </trkpt>
      <trkpt lat="43.43994" lon="6.63403">
        <ele>58.200000762939</ele>
        <time>2019-05-04T07:44:24.000Z</time>
      </trkpt>
      <trkpt lat="43.43991" lon="6.63404">
        <ele>58.200000762939</ele>
        <time>2019-05-04T07:44:27.000Z</time>
      </trkpt>
      <trkpt lat="43.43985" lon="6.63402">
        <ele>58.400001525879</ele>
        <time>2019-05-04T07:44:33.000Z</time>
      </trkpt>
      <trkpt lat="43.43984" lon="6.63401">
        <ele>58.599998474121</ele>
        <time>2019-05-04T07:44:35.000Z</time>
      </trkpt>
      <trkpt lat="43.43981" lon="6.63399">
        <ele>59</ele>
        <time>2019-05-04T07:44:38.000Z</time>
      </trkpt>
      <trkpt lat="43.43979" lon="6.63398">
        <ele>59.200000762939</ele>
        <time>2019-05-04T07:44:40.000Z</time>
      </trkpt>
      <trkpt lat="43.43978" lon="6.63398">
        <ele>59.400001525879</ele>
        <time>2019-05-04T07:44:42.000Z</time>
      </trkpt>
      <trkpt lat="43.43975" lon="6.63394">
        <ele>59.599998474121</ele>
        <time>2019-05-04T07:44:46.000Z</time>
      </trkpt>
      <trkpt lat="43.4398" lon="6.63395">
        <ele>59.599998474121</ele>
        <time>2019-05-04T07:44:50.000Z</time>
      </trkpt>
      <trkpt lat="43.43984" lon="6.634">
        <ele>59.400001525879</ele>
        <time>2019-05-04T07:44:55.000Z</time>
      </trkpt>
      <trkpt lat="43.43985" lon="6.63404">
        <ele>59</ele>
        <time>2019-05-04T07:45:00.000Z</time>
      </trkpt>
      <trkpt lat="43.43985" lon="6.63404">
        <ele>59</ele>
        <time>2019-05-04T07:45:07.000Z</time>
      </trkpt>
      <trkpt lat="43.43985" lon="6.63404">
        <ele>58</ele>
        <time>2019-05-04T07:45:12.000Z</time>
      </trkpt>
      <trkpt lat="43.43985" lon="6.63404">
        <ele>58.200000762939</ele>
        <time>2019-05-04T07:45:14.000Z</time>
      </trkpt>
      <trkpt lat="43.43985" lon="6.63402">
        <ele>58.400001525879</ele>
        <time>2019-05-04T07:45:22.000Z</time>
      </trkpt>
      <trkpt lat="43.4398" lon="6.63395">
        <ele>58.799999237061</ele>
        <time>2019-05-04T07:45:28.000Z</time>
      </trkpt>
      <trkpt lat="43.43979" lon="6.63391">
        <ele>59</ele>
        <time>2019-05-04T07:45:30.000Z</time>
      </trkpt>
      <trkpt lat="43.43977" lon="6.63383">
        <ele>59.799999237061</ele>
        <time>2019-05-04T07:45:34.000Z</time>
      </trkpt>
      <trkpt lat="43.43976" lon="6.63382">
        <ele>60.200000762939</ele>
        <time>2019-05-04T07:45:35.000Z</time>
      </trkpt>
      <trkpt lat="43.43973" lon="6.63378">
        <ele>60.799999237061</ele>
        <time>2019-05-04T07:45:38.000Z</time>
      </trkpt>
      <trkpt lat="43.43971" lon="6.63374">
        <ele>61.200000762939</ele>
        <time>2019-05-04T07:45:41.000Z</time>
      </trkpt>
      <trkpt lat="43.43971" lon="6.63373">
        <ele>61.599998474121</ele>
        <time>2019-05-04T07:45:44.000Z</time>
      </trkpt>
      <trkpt lat="43.43971" lon="6.63372">
        <ele>62</ele>
        <time>2019-05-04T07:45:49.000Z</time>
      </trkpt>
      <trkpt lat="43.43971" lon="6.63372">
        <ele>62.200000762939</ele>
        <time>2019-05-04T07:45:51.000Z</time>
      </trkpt>
      <trkpt lat="43.43967" lon="6.63372">
        <ele>62.200000762939</ele>
        <time>2019-05-04T07:45:56.000Z</time>
      </trkpt>
      <trkpt lat="43.43966" lon="6.63372">
        <ele>62</ele>
        <time>2019-05-04T07:45:57.000Z</time>
      </trkpt>
      <trkpt lat="43.4396" lon="6.6337">
        <ele>62.200000762939</ele>
        <time>2019-05-04T07:46:02.000Z</time>
      </trkpt>
      <trkpt lat="43.43955" lon="6.63368">
        <ele>63.400001525879</ele>
        <time>2019-05-04T07:46:07.000Z</time>
      </trkpt>
      <trkpt lat="43.43951" lon="6.63365">
        <ele>64</ele>
        <time>2019-05-04T07:46:11.000Z</time>
      </trkpt>
      <trkpt lat="43.43949" lon="6.63364">
        <ele>64.599998474121</ele>
        <time>2019-05-04T07:46:15.000Z</time>
      </trkpt>
      <trkpt lat="43.43949" lon="6.63364">
        <ele>64.800003051758</ele>
        <time>2019-05-04T07:46:17.000Z</time>
      </trkpt>
      <trkpt lat="43.43946" lon="6.63359">
        <ele>65.199996948242</ele>
        <time>2019-05-04T07:46:23.000Z</time>
      </trkpt>
      <trkpt lat="43.43945" lon="6.63357">
        <ele>65.599998474121</ele>
        <time>2019-05-04T07:46:25.000Z</time>
      </trkpt>
      <trkpt lat="43.4394" lon="6.63353">
        <ele>66</ele>
        <time>2019-05-04T07:46:30.000Z</time>
      </trkpt>
      <trkpt lat="43.43936" lon="6.63347">
        <ele>66.599998474121</ele>
        <time>2019-05-04T07:46:35.000Z</time>
      </trkpt>
      <trkpt lat="43.43935" lon="6.63344">
        <ele>67</ele>
        <time>2019-05-04T07:46:37.000Z</time>
      </trkpt>
      <trkpt lat="43.43932" lon="6.63338">
        <ele>67.800003051758</ele>
        <time>2019-05-04T07:46:41.000Z</time>
      </trkpt>
      <trkpt lat="43.43927" lon="6.63333">
        <ele>68.599998474121</ele>
        <time>2019-05-04T07:46:45.000Z</time>
      </trkpt>
      <trkpt lat="43.43919" lon="6.63325">
        <ele>68.599998474121</ele>
        <time>2019-05-04T07:46:53.000Z</time>
      </trkpt>
      <trkpt lat="43.43918" lon="6.63325">
        <ele>68.800003051758</ele>
        <time>2019-05-04T07:46:55.000Z</time>
      </trkpt>
      <trkpt lat="43.43915" lon="6.63324">
        <ele>69.199996948242</ele>
        <time>2019-05-04T07:46:58.000Z</time>
      </trkpt>
      <trkpt lat="43.43911" lon="6.63325">
        <ele>69.800003051758</ele>
        <time>2019-05-04T07:47:03.000Z</time>
      </trkpt>
      <trkpt lat="43.43909" lon="6.63327">
        <ele>69.800003051758</ele>
        <time>2019-05-04T07:47:05.000Z</time>
      </trkpt>
      <trkpt lat="43.43908" lon="6.6333">
        <ele>69.800003051758</ele>
        <time>2019-05-04T07:47:07.000Z</time>
      </trkpt>
      <trkpt lat="43.43903" lon="6.63333">
        <ele>70</ele>
        <time>2019-05-04T07:47:12.000Z</time>
      </trkpt>
      <trkpt lat="43.439" lon="6.63335">
        <ele>71.199996948242</ele>
        <time>2019-05-04T07:47:17.000Z</time>
      </trkpt>
      <trkpt lat="43.43898" lon="6.63336">
        <ele>71.599998474121</ele>
        <time>2019-05-04T07:47:19.000Z</time>
      </trkpt>
      <trkpt lat="43.43897" lon="6.63336">
        <ele>71.599998474121</ele>
        <time>2019-05-04T07:47:20.000Z</time>
      </trkpt>
      <trkpt lat="43.43894" lon="6.63337">
        <ele>72</ele>
        <time>2019-05-04T07:47:24.000Z</time>
      </trkpt>
      <trkpt lat="43.43892" lon="6.63339">
        <ele>72.199996948242</ele>
        <time>2019-05-04T07:47:26.000Z</time>
      </trkpt>
      <trkpt lat="43.43892" lon="6.6334">
        <ele>72.400001525879</ele>
        <time>2019-05-04T07:47:27.000Z</time>
      </trkpt>
      <trkpt lat="43.4389" lon="6.63343">
        <ele>72.800003051758</ele>
        <time>2019-05-04T07:47:30.000Z</time>
      </trkpt>
      <trkpt lat="43.43888" lon="6.63344">
        <ele>73</ele>
        <time>2019-05-04T07:47:33.000Z</time>
      </trkpt>
      <trkpt lat="43.43886" lon="6.63344">
        <ele>73.599998474121</ele>
        <time>2019-05-04T07:47:35.000Z</time>
      </trkpt>
      <trkpt lat="43.43881" lon="6.63346">
        <ele>74.599998474121</ele>
        <time>2019-05-04T07:47:41.000Z</time>
      </trkpt>
      <trkpt lat="43.43881" lon="6.63346">
        <ele>74.599998474121</ele>
        <time>2019-05-04T07:47:42.000Z</time>
      </trkpt>
      <trkpt lat="43.43875" lon="6.63351">
        <ele>75.800003051758</ele>
        <time>2019-05-04T07:47:50.000Z</time>
      </trkpt>
      <trkpt lat="43.4387" lon="6.63352">
        <ele>77</ele>
        <time>2019-05-04T07:47:57.000Z</time>
      </trkpt>
      <trkpt lat="43.4387" lon="6.63352">
        <ele>77</ele>
        <time>2019-05-04T07:47:58.000Z</time>
      </trkpt>
      <trkpt lat="43.43865" lon="6.63352">
        <ele>77.400001525879</ele>
        <time>2019-05-04T07:48:04.000Z</time>
      </trkpt>
      <trkpt lat="43.43855" lon="6.63355">
        <ele>77.599998474121</ele>
        <time>2019-05-04T07:48:10.000Z</time>
      </trkpt>
      <trkpt lat="43.4385" lon="6.63359">
        <ele>78</ele>
        <time>2019-05-04T07:48:13.000Z</time>
      </trkpt>
      <trkpt lat="43.43846" lon="6.63363">
        <ele>78.400001525879</ele>
        <time>2019-05-04T07:48:16.000Z</time>
      </trkpt>
      <trkpt lat="43.43845" lon="6.63364">
        <ele>78.800003051758</ele>
        <time>2019-05-04T07:48:17.000Z</time>
      </trkpt>
      <trkpt lat="43.43843" lon="6.63365">
        <ele>79.400001525879</ele>
        <time>2019-05-04T07:48:19.000Z</time>
      </trkpt>
      <trkpt lat="43.43843" lon="6.63366">
        <ele>79.599998474121</ele>
        <time>2019-05-04T07:48:20.000Z</time>
      </trkpt>
      <trkpt lat="43.4384" lon="6.63368">
        <ele>80.400001525879</ele>
        <time>2019-05-04T07:48:25.000Z</time>
      </trkpt>
      <trkpt lat="43.43838" lon="6.63369">
        <ele>80.599998474121</ele>
        <time>2019-05-04T07:48:26.000Z</time>
      </trkpt>
      <trkpt lat="43.43833" lon="6.63372">
        <ele>81.199996948242</ele>
        <time>2019-05-04T07:48:31.000Z</time>
      </trkpt>
      <trkpt lat="43.43833" lon="6.63372">
        <ele>81.400001525879</ele>
        <time>2019-05-04T07:48:34.000Z</time>
      </trkpt>
      <trkpt lat="43.43832" lon="6.63372">
        <ele>81.599998474121</ele>
        <time>2019-05-04T07:48:42.000Z</time>
      </trkpt>
      <trkpt lat="43.43831" lon="6.63372">
        <ele>81.599998474121</ele>
        <time>2019-05-04T07:48:44.000Z</time>
      </trkpt>
      <trkpt lat="43.43827" lon="6.63373">
        <ele>81.599998474121</ele>
        <time>2019-05-04T07:48:47.000Z</time>
      </trkpt>
      <trkpt lat="43.43824" lon="6.63374">
        <ele>81.599998474121</ele>
        <time>2019-05-04T07:48:49.000Z</time>
      </trkpt>
      <trkpt lat="43.43822" lon="6.63374">
        <ele>81.800003051758</ele>
        <time>2019-05-04T07:48:51.000Z</time>
      </trkpt>
      <trkpt lat="43.4382" lon="6.63372">
        <ele>82.199996948242</ele>
        <time>2019-05-04T07:48:53.000Z</time>
      </trkpt>
      <trkpt lat="43.43819" lon="6.63369">
        <ele>82.599998474121</ele>
        <time>2019-05-04T07:48:56.000Z</time>
      </trkpt>
      <trkpt lat="43.43819" lon="6.63369">
        <ele>82.599998474121</ele>
        <time>2019-05-04T07:48:57.000Z</time>
      </trkpt>
      <trkpt lat="43.43813" lon="6.63372">
        <ele>83.599998474121</ele>
        <time>2019-05-04T07:49:03.000Z</time>
      </trkpt>
      <trkpt lat="43.43806" lon="6.63372">
        <ele>84.199996948242</ele>
        <time>2019-05-04T07:49:09.000Z</time>
      </trkpt>
      <trkpt lat="43.43804" lon="6.63377">
        <ele>84.199996948242</ele>
        <time>2019-05-04T07:49:11.000Z</time>
      </trkpt>
      <trkpt lat="43.43802" lon="6.63384">
        <ele>84</ele>
        <time>2019-05-04T07:49:14.000Z</time>
      </trkpt>
      <trkpt lat="43.43803" lon="6.6339">
        <ele>84.400001525879</ele>
        <time>2019-05-04T07:49:17.000Z</time>
      </trkpt>
      <trkpt lat="43.43804" lon="6.63394">
        <ele>84.800003051758</ele>
        <time>2019-05-04T07:49:19.000Z</time>
      </trkpt>
      <trkpt lat="43.43805" lon="6.63399">
        <ele>85.800003051758</ele>
        <time>2019-05-04T07:49:21.000Z</time>
      </trkpt>
      <trkpt lat="43.43805" lon="6.63405">
        <ele>86.400001525879</ele>
        <time>2019-05-04T07:49:24.000Z</time>
      </trkpt>
      <trkpt lat="43.43804" lon="6.63413">
        <ele>86.800003051758</ele>
        <time>2019-05-04T07:49:27.000Z</time>
      </trkpt>
      <trkpt lat="43.43803" lon="6.63425">
        <ele>87.400001525879</ele>
        <time>2019-05-04T07:49:30.000Z</time>
      </trkpt>
      <trkpt lat="43.43801" lon="6.63446">
        <ele>87.199996948242</ele>
        <time>2019-05-04T07:49:36.000Z</time>
      </trkpt>
      <trkpt lat="43.43801" lon="6.63457">
        <ele>88</ele>
        <time>2019-05-04T07:49:41.000Z</time>
      </trkpt>
      <trkpt lat="43.43798" lon="6.63471">
        <ele>88.800003051758</ele>
        <time>2019-05-04T07:49:46.000Z</time>
      </trkpt>
      <trkpt lat="43.43798" lon="6.63474">
        <ele>89.199996948242</ele>
        <time>2019-05-04T07:49:47.000Z</time>
      </trkpt>
      <trkpt lat="43.43794" lon="6.63487">
        <ele>90.199996948242</ele>
        <time>2019-05-04T07:49:52.000Z</time>
      </trkpt>
      <trkpt lat="43.43792" lon="6.63489">
        <ele>90.400001525879</ele>
        <time>2019-05-04T07:49:53.000Z</time>
      </trkpt>
      <trkpt lat="43.43784" lon="6.63504">
        <ele>91</ele>
        <time>2019-05-04T07:49:59.000Z</time>
      </trkpt>
      <trkpt lat="43.43782" lon="6.63507">
        <ele>91.199996948242</ele>
        <time>2019-05-04T07:50:00.000Z</time>
      </trkpt>
      <trkpt lat="43.43778" lon="6.63511">
        <ele>91.800003051758</ele>
        <time>2019-05-04T07:50:02.000Z</time>
      </trkpt>
      <trkpt lat="43.43775" lon="6.63515">
        <ele>92.199996948242</ele>
        <time>2019-05-04T07:50:04.000Z</time>
      </trkpt>
      <trkpt lat="43.43765" lon="6.63532">
        <ele>92.599998474121</ele>
        <time>2019-05-04T07:50:11.000Z</time>
      </trkpt>
      <trkpt lat="43.4376" lon="6.63534">
        <ele>93</ele>
        <time>2019-05-04T07:50:13.000Z</time>
      </trkpt>
      <trkpt lat="43.43749" lon="6.63534">
        <ele>94.199996948242</ele>
        <time>2019-05-04T07:50:17.000Z</time>
      </trkpt>
      <trkpt lat="43.4374" lon="6.63537">
        <ele>94.400001525879</ele>
        <time>2019-05-04T07:50:20.000Z</time>
      </trkpt>
      <trkpt lat="43.43738" lon="6.6354">
        <ele>94.199996948242</ele>
        <time>2019-05-04T07:50:21.000Z</time>
      </trkpt>
      <trkpt lat="43.43735" lon="6.63547">
        <ele>93.599998474121</ele>
        <time>2019-05-04T07:50:23.000Z</time>
      </trkpt>
      <trkpt lat="43.43735" lon="6.63556">
        <ele>93.199996948242</ele>
        <time>2019-05-04T07:50:26.000Z</time>
      </trkpt>
      <trkpt lat="43.43731" lon="6.63569">
        <ele>94.199996948242</ele>
        <time>2019-05-04T07:50:30.000Z</time>
      </trkpt>
      <trkpt lat="43.43726" lon="6.63581">
        <ele>95.199996948242</ele>
        <time>2019-05-04T07:50:34.000Z</time>
      </trkpt>
      <trkpt lat="43.43725" lon="6.63585">
        <ele>95.400001525879</ele>
        <time>2019-05-04T07:50:35.000Z</time>
      </trkpt>
      <trkpt lat="43.4372" lon="6.63596">
        <ele>95.400001525879</ele>
        <time>2019-05-04T07:50:39.000Z</time>
      </trkpt>
      <trkpt lat="43.43705" lon="6.63615">
        <ele>94.800003051758</ele>
        <time>2019-05-04T07:50:45.000Z</time>
      </trkpt>
      <trkpt lat="43.43696" lon="6.63626">
        <ele>94.599998474121</ele>
        <time>2019-05-04T07:50:49.000Z</time>
      </trkpt>
      <trkpt lat="43.43689" lon="6.63637">
        <ele>95</ele>
        <time>2019-05-04T07:50:53.000Z</time>
      </trkpt>
      <trkpt lat="43.43679" lon="6.63642">
        <ele>95.199996948242</ele>
        <time>2019-05-04T07:51:00.000Z</time>
      </trkpt>
      <trkpt lat="43.43675" lon="6.63643">
        <ele>96</ele>
        <time>2019-05-04T07:51:05.000Z</time>
      </trkpt>
      <trkpt lat="43.43673" lon="6.63643">
        <ele>96.400001525879</ele>
        <time>2019-05-04T07:51:07.000Z</time>
      </trkpt>
      <trkpt lat="43.43666" lon="6.63645">
        <ele>96.599998474121</ele>
        <time>2019-05-04T07:51:11.000Z</time>
      </trkpt>
      <trkpt lat="43.43651" lon="6.63641">
        <ele>96.199996948242</ele>
        <time>2019-05-04T07:51:17.000Z</time>
      </trkpt>
      <trkpt lat="43.43639" lon="6.63634">
        <ele>96.599998474121</ele>
        <time>2019-05-04T07:51:23.000Z</time>
      </trkpt>
      <trkpt lat="43.43622" lon="6.63621">
        <ele>97</ele>
        <time>2019-05-04T07:51:29.000Z</time>
      </trkpt>
      <trkpt lat="43.43619" lon="6.63621">
        <ele>97</ele>
        <time>2019-05-04T07:51:30.000Z</time>
      </trkpt>
      <trkpt lat="43.43613" lon="6.63624">
        <ele>97</ele>
        <time>2019-05-04T07:51:32.000Z</time>
      </trkpt>
      <trkpt lat="43.43608" lon="6.63628">
        <ele>96.800003051758</ele>
        <time>2019-05-04T07:51:34.000Z</time>
      </trkpt>
      <trkpt lat="43.43599" lon="6.63638">
        <ele>97.199996948242</ele>
        <time>2019-05-04T07:51:38.000Z</time>
      </trkpt>
      <trkpt lat="43.43594" lon="6.63642">
        <ele>97.800003051758</ele>
        <time>2019-05-04T07:51:40.000Z</time>
      </trkpt>
      <trkpt lat="43.43588" lon="6.63641">
        <ele>97.800003051758</ele>
        <time>2019-05-04T07:51:42.000Z</time>
      </trkpt>
      <trkpt lat="43.43582" lon="6.6363">
        <ele>98.199996948242</ele>
        <time>2019-05-04T07:51:45.000Z</time>
      </trkpt>
      <trkpt lat="43.43581" lon="6.63626">
        <ele>98.199996948242</ele>
        <time>2019-05-04T07:51:46.000Z</time>
      </trkpt>
      <trkpt lat="43.43578" lon="6.63623">
        <ele>98.400001525879</ele>
        <time>2019-05-04T07:51:47.000Z</time>
      </trkpt>
      <trkpt lat="43.43572" lon="6.6362">
        <ele>98.199996948242</ele>
        <time>2019-05-04T07:51:49.000Z</time>
      </trkpt>
      <trkpt lat="43.43569" lon="6.63621">
        <ele>98</ele>
        <time>2019-05-04T07:51:50.000Z</time>
      </trkpt>
      <trkpt lat="43.4356" lon="6.6362">
        <ele>98</ele>
        <time>2019-05-04T07:51:53.000Z</time>
      </trkpt>
      <trkpt lat="43.43555" lon="6.63615">
        <ele>98.400001525879</ele>
        <time>2019-05-04T07:51:55.000Z</time>
      </trkpt>
      <trkpt lat="43.43553" lon="6.63612">
        <ele>98.800003051758</ele>
        <time>2019-05-04T07:51:56.000Z</time>
      </trkpt>
      <trkpt lat="43.43549" lon="6.63604">
        <ele>99.199996948242</ele>
        <time>2019-05-04T07:51:58.000Z</time>
      </trkpt>
      <trkpt lat="43.43537" lon="6.63586">
        <ele>99.599998474121</ele>
        <time>2019-05-04T07:52:03.000Z</time>
      </trkpt>
      <trkpt lat="43.43525" lon="6.63563">
        <ele>100</ele>
        <time>2019-05-04T07:52:09.000Z</time>
      </trkpt>
      <trkpt lat="43.43524" lon="6.6354">
        <ele>100</ele>
        <time>2019-05-04T07:52:14.000Z</time>
      </trkpt>
      <trkpt lat="43.43522" lon="6.63536">
        <ele>100</ele>
        <time>2019-05-04T07:52:15.000Z</time>
      </trkpt>
      <trkpt lat="43.43517" lon="6.63531">
        <ele>99.599998474121</ele>
        <time>2019-05-04T07:52:17.000Z</time>
      </trkpt>
      <trkpt lat="43.43506" lon="6.63528">
        <ele>99.400001525879</ele>
        <time>2019-05-04T07:52:21.000Z</time>
      </trkpt>
      <trkpt lat="43.43498" lon="6.63522">
        <ele>99.800003051758</ele>
        <time>2019-05-04T07:52:24.000Z</time>
      </trkpt>
      <trkpt lat="43.43496" lon="6.63519">
        <ele>100</ele>
        <time>2019-05-04T07:52:25.000Z</time>
      </trkpt>
      <trkpt lat="43.43486" lon="6.635">
        <ele>100.59999847412</ele>
        <time>2019-05-04T07:52:30.000Z</time>
      </trkpt>
      <trkpt lat="43.43478" lon="6.63491">
        <ele>100.40000152588</ele>
        <time>2019-05-04T07:52:34.000Z</time>
      </trkpt>
      <trkpt lat="43.43474" lon="6.63489">
        <ele>100.80000305176</ele>
        <time>2019-05-04T07:52:38.000Z</time>
      </trkpt>
      <trkpt lat="43.43474" lon="6.63489">
        <ele>101</ele>
        <time>2019-05-04T07:52:39.000Z</time>
      </trkpt>
      <trkpt lat="43.43473" lon="6.63489">
        <ele>101.59999847412</ele>
        <time>2019-05-04T07:52:51.000Z</time>
      </trkpt>
      <trkpt lat="43.43473" lon="6.63489">
        <ele>101.80000305176</ele>
        <time>2019-05-04T07:53:05.000Z</time>
      </trkpt>
      <trkpt lat="43.43473" lon="6.63489">
        <ele>101.19999694824</ele>
        <time>2019-05-04T07:53:13.000Z</time>
      </trkpt>
      <trkpt lat="43.43472" lon="6.63489">
        <ele>101.40000152588</ele>
        <time>2019-05-04T07:53:22.000Z</time>
      </trkpt>
      <trkpt lat="43.43471" lon="6.63489">
        <ele>101.40000152588</ele>
        <time>2019-05-04T07:53:28.000Z</time>
      </trkpt>
      <trkpt lat="43.43468" lon="6.63487">
        <ele>101</ele>
        <time>2019-05-04T07:53:38.000Z</time>
      </trkpt>
      <trkpt lat="43.43468" lon="6.63483">
        <ele>100.80000305176</ele>
        <time>2019-05-04T07:53:44.000Z</time>
      </trkpt>
      <trkpt lat="43.43465" lon="6.63477">
        <ele>101</ele>
        <time>2019-05-04T07:53:49.000Z</time>
      </trkpt>
      <trkpt lat="43.43461" lon="6.63465">
        <ele>101</ele>
        <time>2019-05-04T07:53:55.000Z</time>
      </trkpt>
      <trkpt lat="43.43452" lon="6.63452">
        <ele>100.59999847412</ele>
        <time>2019-05-04T07:53:59.000Z</time>
      </trkpt>
      <trkpt lat="43.43442" lon="6.63432">
        <ele>100</ele>
        <time>2019-05-04T07:54:03.000Z</time>
      </trkpt>
      <trkpt lat="43.4344" lon="6.63427">
        <ele>99.400001525879</ele>
        <time>2019-05-04T07:54:04.000Z</time>
      </trkpt>
      <trkpt lat="43.43438" lon="6.63422">
        <ele>98.800003051758</ele>
        <time>2019-05-04T07:54:05.000Z</time>
      </trkpt>
      <trkpt lat="43.43433" lon="6.63414">
        <ele>98.400001525879</ele>
        <time>2019-05-04T07:54:08.000Z</time>
      </trkpt>
      <trkpt lat="43.43422" lon="6.63401">
        <ele>98.400001525879</ele>
        <time>2019-05-04T07:54:14.000Z</time>
      </trkpt>
      <trkpt lat="43.43417" lon="6.63395">
        <ele>98.800003051758</ele>
        <time>2019-05-04T07:54:17.000Z</time>
      </trkpt>
      <trkpt lat="43.43413" lon="6.63397">
        <ele>98.800003051758</ele>
        <time>2019-05-04T07:54:19.000Z</time>
      </trkpt>
      <trkpt lat="43.43405" lon="6.63399">
        <ele>99.800003051758</ele>
        <time>2019-05-04T07:54:23.000Z</time>
      </trkpt>
      <trkpt lat="43.43402" lon="6.63399">
        <ele>100.40000152588</ele>
        <time>2019-05-04T07:54:25.000Z</time>
      </trkpt>
      <trkpt lat="43.43401" lon="6.63399">
        <ele>100.80000305176</ele>
        <time>2019-05-04T07:54:26.000Z</time>
      </trkpt>
      <trkpt lat="43.43397" lon="6.63399">
        <ele>101.40000152588</ele>
        <time>2019-05-04T07:54:30.000Z</time>
      </trkpt>
      <trkpt lat="43.43395" lon="6.63399">
        <ele>101.59999847412</ele>
        <time>2019-05-04T07:54:32.000Z</time>
      </trkpt>
      <trkpt lat="43.43393" lon="6.63398">
        <ele>101.80000305176</ele>
        <time>2019-05-04T07:54:35.000Z</time>
      </trkpt>
      <trkpt lat="43.43391" lon="6.63398">
        <ele>102</ele>
        <time>2019-05-04T07:54:37.000Z</time>
      </trkpt>
      <trkpt lat="43.43388" lon="6.63398">
        <ele>102.19999694824</ele>
        <time>2019-05-04T07:54:40.000Z</time>
      </trkpt>
      <trkpt lat="43.43386" lon="6.63398">
        <ele>102.40000152588</ele>
        <time>2019-05-04T07:54:42.000Z</time>
      </trkpt>
      <trkpt lat="43.43383" lon="6.63398">
        <ele>103</ele>
        <time>2019-05-04T07:54:45.000Z</time>
      </trkpt>
      <trkpt lat="43.4338" lon="6.634">
        <ele>104</ele>
        <time>2019-05-04T07:54:49.000Z</time>
      </trkpt>
      <trkpt lat="43.43379" lon="6.63399">
        <ele>104.40000152588</ele>
        <time>2019-05-04T07:54:50.000Z</time>
      </trkpt>
      <trkpt lat="43.43378" lon="6.63402">
        <ele>104.80000305176</ele>
        <time>2019-05-04T07:54:56.000Z</time>
      </trkpt>
      <trkpt lat="43.43378" lon="6.63402">
        <ele>105</ele>
        <time>2019-05-04T07:54:58.000Z</time>
      </trkpt>
      <trkpt lat="43.43378" lon="6.63402">
        <ele>105.19999694824</ele>
        <time>2019-05-04T07:55:07.000Z</time>
      </trkpt>
      <trkpt lat="43.43378" lon="6.634">
        <ele>105</ele>
        <time>2019-05-04T07:55:13.000Z</time>
      </trkpt>
      <trkpt lat="43.43379" lon="6.63398">
        <ele>104.80000305176</ele>
        <time>2019-05-04T07:55:19.000Z</time>
      </trkpt>
      <trkpt lat="43.43382" lon="6.63393">
        <ele>105</ele>
        <time>2019-05-04T07:55:23.000Z</time>
      </trkpt>
      <trkpt lat="43.43383" lon="6.63386">
        <ele>105.19999694824</ele>
        <time>2019-05-04T07:55:25.000Z</time>
      </trkpt>
      <trkpt lat="43.4338" lon="6.63374">
        <ele>104.59999847412</ele>
        <time>2019-05-04T07:55:28.000Z</time>
      </trkpt>
      <trkpt lat="43.4338" lon="6.63368">
        <ele>103.59999847412</ele>
        <time>2019-05-04T07:55:30.000Z</time>
      </trkpt>
      <trkpt lat="43.4338" lon="6.63365">
        <ele>103.19999694824</ele>
        <time>2019-05-04T07:55:31.000Z</time>
      </trkpt>
      <trkpt lat="43.43379" lon="6.63358">
        <ele>102.40000152588</ele>
        <time>2019-05-04T07:55:33.000Z</time>
      </trkpt>
      <trkpt lat="43.4338" lon="6.63355">
        <ele>102.19999694824</ele>
        <time>2019-05-04T07:55:34.000Z</time>
      </trkpt>
      <trkpt lat="43.4338" lon="6.63349">
        <ele>102</ele>
        <time>2019-05-04T07:55:35.000Z</time>
      </trkpt>
      <trkpt lat="43.4338" lon="6.63336">
        <ele>101.40000152588</ele>
        <time>2019-05-04T07:55:37.000Z</time>
      </trkpt>
      <trkpt lat="43.4338" lon="6.63323">
        <ele>100.59999847412</ele>
        <time>2019-05-04T07:55:39.000Z</time>
      </trkpt>
      <trkpt lat="43.4338" lon="6.63314">
        <ele>100.19999694824</ele>
        <time>2019-05-04T07:55:40.000Z</time>
      </trkpt>
      <trkpt lat="43.43379" lon="6.63306">
        <ele>99.800003051758</ele>
        <time>2019-05-04T07:55:41.000Z</time>
      </trkpt>
      <trkpt lat="43.43376" lon="6.63293">
        <ele>98.800003051758</ele>
        <time>2019-05-04T07:55:43.000Z</time>
      </trkpt>
      <trkpt lat="43.43374" lon="6.63282">
        <ele>97</ele>
        <time>2019-05-04T07:55:45.000Z</time>
      </trkpt>
      <trkpt lat="43.43373" lon="6.63277">
        <ele>96.599998474121</ele>
        <time>2019-05-04T07:55:46.000Z</time>
      </trkpt>
      <trkpt lat="43.43373" lon="6.63271">
        <ele>96</ele>
        <time>2019-05-04T07:55:47.000Z</time>
      </trkpt>
      <trkpt lat="43.43374" lon="6.63256">
        <ele>95</ele>
        <time>2019-05-04T07:55:50.000Z</time>
      </trkpt>
      <trkpt lat="43.43374" lon="6.63245">
        <ele>95</ele>
        <time>2019-05-04T07:55:52.000Z</time>
      </trkpt>
      <trkpt lat="43.43376" lon="6.63227">
        <ele>95</ele>
        <time>2019-05-04T07:55:55.000Z</time>
      </trkpt>
      <trkpt lat="43.43378" lon="6.63213">
        <ele>94.599998474121</ele>
        <time>2019-05-04T07:55:57.000Z</time>
      </trkpt>
      <trkpt lat="43.4338" lon="6.63198">
        <ele>93.800003051758</ele>
        <time>2019-05-04T07:55:59.000Z</time>
      </trkpt>
      <trkpt lat="43.43382" lon="6.63169">
        <ele>92.800003051758</ele>
        <time>2019-05-04T07:56:03.000Z</time>
      </trkpt>
      <trkpt lat="43.43381" lon="6.63162">
        <ele>92.800003051758</ele>
        <time>2019-05-04T07:56:04.000Z</time>
      </trkpt>
      <trkpt lat="43.43381" lon="6.63143">
        <ele>91.400001525879</ele>
        <time>2019-05-04T07:56:08.000Z</time>
      </trkpt>
      <trkpt lat="43.43382" lon="6.63132">
        <ele>90.800003051758</ele>
        <time>2019-05-04T07:56:10.000Z</time>
      </trkpt>
      <trkpt lat="43.43383" lon="6.63126">
        <ele>90.400001525879</ele>
        <time>2019-05-04T07:56:11.000Z</time>
      </trkpt>
      <trkpt lat="43.43386" lon="6.63114">
        <ele>89.400001525879</ele>
        <time>2019-05-04T07:56:13.000Z</time>
      </trkpt>
      <trkpt lat="43.43388" lon="6.63109">
        <ele>88.800003051758</ele>
        <time>2019-05-04T07:56:14.000Z</time>
      </trkpt>
      <trkpt lat="43.43387" lon="6.63104">
        <ele>88</ele>
        <time>2019-05-04T07:56:15.000Z</time>
      </trkpt>
      <trkpt lat="43.43387" lon="6.63099">
        <ele>87.599998474121</ele>
        <time>2019-05-04T07:56:16.000Z</time>
      </trkpt>
      <trkpt lat="43.43387" lon="6.63095">
        <ele>87</ele>
        <time>2019-05-04T07:56:17.000Z</time>
      </trkpt>
      <trkpt lat="43.43388" lon="6.6309">
        <ele>86.400001525879</ele>
        <time>2019-05-04T07:56:18.000Z</time>
      </trkpt>
      <trkpt lat="43.4339" lon="6.63076">
        <ele>85.599998474121</ele>
        <time>2019-05-04T07:56:21.000Z</time>
      </trkpt>
      <trkpt lat="43.43389" lon="6.63071">
        <ele>85.599998474121</ele>
        <time>2019-05-04T07:56:22.000Z</time>
      </trkpt>
      <trkpt lat="43.43389" lon="6.63064">
        <ele>85</ele>
        <time>2019-05-04T07:56:23.000Z</time>
      </trkpt>
      <trkpt lat="43.43389" lon="6.63039">
        <ele>84.199996948242</ele>
        <time>2019-05-04T07:56:27.000Z</time>
      </trkpt>
      <trkpt lat="43.43389" lon="6.63033">
        <ele>83.800003051758</ele>
        <time>2019-05-04T07:56:28.000Z</time>
      </trkpt>
      <trkpt lat="43.43386" lon="6.6302">
        <ele>82.400001525879</ele>
        <time>2019-05-04T07:56:30.000Z</time>
      </trkpt>
      <trkpt lat="43.43385" lon="6.63015">
        <ele>81.400001525879</ele>
        <time>2019-05-04T07:56:31.000Z</time>
      </trkpt>
      <trkpt lat="43.43385" lon="6.63013">
        <ele>80.400001525879</ele>
        <time>2019-05-04T07:56:32.000Z</time>
      </trkpt>
      <trkpt lat="43.43384" lon="6.63011">
        <ele>79.800003051758</ele>
        <time>2019-05-04T07:56:33.000Z</time>
      </trkpt>
      <trkpt lat="43.43383" lon="6.63008">
        <ele>78.599998474121</ele>
        <time>2019-05-04T07:56:35.000Z</time>
      </trkpt>
      <trkpt lat="43.43382" lon="6.63005">
        <ele>77.800003051758</ele>
        <time>2019-05-04T07:56:37.000Z</time>
      </trkpt>
      <trkpt lat="43.43382" lon="6.63003">
        <ele>78</ele>
        <time>2019-05-04T07:56:38.000Z</time>
      </trkpt>
      <trkpt lat="43.43382" lon="6.63">
        <ele>77.199996948242</ele>
        <time>2019-05-04T07:56:40.000Z</time>
      </trkpt>
      <trkpt lat="43.4338" lon="6.62991">
        <ele>75.800003051758</ele>
        <time>2019-05-04T07:56:43.000Z</time>
      </trkpt>
      <trkpt lat="43.43379" lon="6.62989">
        <ele>75.400001525879</ele>
        <time>2019-05-04T07:56:44.000Z</time>
      </trkpt>
      <trkpt lat="43.43379" lon="6.62987">
        <ele>74.800003051758</ele>
        <time>2019-05-04T07:56:45.000Z</time>
      </trkpt>
      <trkpt lat="43.43378" lon="6.62982">
        <ele>73.400001525879</ele>
        <time>2019-05-04T07:56:47.000Z</time>
      </trkpt>
      <trkpt lat="43.43379" lon="6.62977">
        <ele>71.800003051758</ele>
        <time>2019-05-04T07:56:49.000Z</time>
      </trkpt>
      <trkpt lat="43.4338" lon="6.62973">
        <ele>71</ele>
        <time>2019-05-04T07:56:51.000Z</time>
      </trkpt>
      <trkpt lat="43.43381" lon="6.62971">
        <ele>70.599998474121</ele>
        <time>2019-05-04T07:56:52.000Z</time>
      </trkpt>
      <trkpt lat="43.43378" lon="6.62963">
        <ele>69</ele>
        <time>2019-05-04T07:56:55.000Z</time>
      </trkpt>
      <trkpt lat="43.43377" lon="6.62958">
        <ele>67.800003051758</ele>
        <time>2019-05-04T07:56:57.000Z</time>
      </trkpt>
      <trkpt lat="43.43377" lon="6.62957">
        <ele>67.199996948242</ele>
        <time>2019-05-04T07:56:58.000Z</time>
      </trkpt>
      <trkpt lat="43.43378" lon="6.62956">
        <ele>66.400001525879</ele>
        <time>2019-05-04T07:56:59.000Z</time>
      </trkpt>
      <trkpt lat="43.43378" lon="6.62955">
        <ele>65</ele>
        <time>2019-05-04T07:57:01.000Z</time>
      </trkpt>
      <trkpt lat="43.43378" lon="6.62955">
        <ele>64</ele>
        <time>2019-05-04T07:57:03.000Z</time>
      </trkpt>
      <trkpt lat="43.43378" lon="6.62955">
        <ele>63.799999237061</ele>
        <time>2019-05-04T07:57:04.000Z</time>
      </trkpt>
      <trkpt lat="43.43378" lon="6.62952">
        <ele>63.200000762939</ele>
        <time>2019-05-04T07:57:15.000Z</time>
      </trkpt>
      <trkpt lat="43.43378" lon="6.62951">
        <ele>63</ele>
        <time>2019-05-04T07:57:20.000Z</time>
      </trkpt>
      <trkpt lat="43.43378" lon="6.62947">
        <ele>62.200000762939</ele>
        <time>2019-05-04T07:57:26.000Z</time>
      </trkpt>
      <trkpt lat="43.43378" lon="6.62946">
        <ele>61.799999237061</ele>
        <time>2019-05-04T07:57:30.000Z</time>
      </trkpt>
      <trkpt lat="43.43378" lon="6.62944">
        <ele>61.400001525879</ele>
        <time>2019-05-04T07:57:33.000Z</time>
      </trkpt>
      <trkpt lat="43.43378" lon="6.62939">
        <ele>60.599998474121</ele>
        <time>2019-05-04T07:57:40.000Z</time>
      </trkpt>
      <trkpt lat="43.43378" lon="6.62938">
        <ele>60.200000762939</ele>
        <time>2019-05-04T07:57:41.000Z</time>
      </trkpt>
      <trkpt lat="43.43377" lon="6.62935">
        <ele>59.400001525879</ele>
        <time>2019-05-04T07:57:44.000Z</time>
      </trkpt>
      <trkpt lat="43.43376" lon="6.62932">
        <ele>58.400001525879</ele>
        <time>2019-05-04T07:57:48.000Z</time>
      </trkpt>
      <trkpt lat="43.43376" lon="6.62932">
        <ele>58</ele>
        <time>2019-05-04T07:57:49.000Z</time>
      </trkpt>
      <trkpt lat="43.43374" lon="6.62932">
        <ele>57.400001525879</ele>
        <time>2019-05-04T07:57:51.000Z</time>
      </trkpt>
      <trkpt lat="43.4337" lon="6.62931">
        <ele>56.799999237061</ele>
        <time>2019-05-04T07:57:55.000Z</time>
      </trkpt>
      <trkpt lat="43.43365" lon="6.6293">
        <ele>56.400001525879</ele>
        <time>2019-05-04T07:58:00.000Z</time>
      </trkpt>
      <trkpt lat="43.43364" lon="6.6293">
        <ele>56.200000762939</ele>
        <time>2019-05-04T07:58:01.000Z</time>
      </trkpt>
      <trkpt lat="43.43364" lon="6.62927">
        <ele>55.599998474121</ele>
        <time>2019-05-04T07:58:04.000Z</time>
      </trkpt>
      <trkpt lat="43.43364" lon="6.62927">
        <ele>55.200000762939</ele>
        <time>2019-05-04T07:58:05.000Z</time>
      </trkpt>
      <trkpt lat="43.43364" lon="6.62926">
        <ele>54</ele>
        <time>2019-05-04T07:58:08.000Z</time>
      </trkpt>
      <trkpt lat="43.43365" lon="6.62923">
        <ele>53.599998474121</ele>
        <time>2019-05-04T07:58:10.000Z</time>
      </trkpt>
      <trkpt lat="43.43367" lon="6.62903">
        <ele>53.400001525879</ele>
        <time>2019-05-04T07:58:15.000Z</time>
      </trkpt>
      <trkpt lat="43.43369" lon="6.62898">
        <ele>52.400001525879</ele>
        <time>2019-05-04T07:58:17.000Z</time>
      </trkpt>
      <trkpt lat="43.43371" lon="6.62894">
        <ele>51.599998474121</ele>
        <time>2019-05-04T07:58:19.000Z</time>
      </trkpt>
      <trkpt lat="43.43378" lon="6.6289">
        <ele>52.200000762939</ele>
        <time>2019-05-04T07:58:24.000Z</time>
      </trkpt>
      <trkpt lat="43.43384" lon="6.62877">
        <ele>52.799999237061</ele>
        <time>2019-05-04T07:58:29.000Z</time>
      </trkpt>
      <trkpt lat="43.43384" lon="6.62872">
        <ele>53</ele>
        <time>2019-05-04T07:58:30.000Z</time>
      </trkpt>
      <trkpt lat="43.43383" lon="6.62867">
        <ele>53.799999237061</ele>
        <time>2019-05-04T07:58:32.000Z</time>
      </trkpt>
      <trkpt lat="43.43382" lon="6.62862">
        <ele>55</ele>
        <time>2019-05-04T07:58:35.000Z</time>
      </trkpt>
      <trkpt lat="43.43382" lon="6.62859">
        <ele>55.799999237061</ele>
        <time>2019-05-04T07:58:37.000Z</time>
      </trkpt>
      <trkpt lat="43.43382" lon="6.62858">
        <ele>56</ele>
        <time>2019-05-04T07:58:38.000Z</time>
      </trkpt>
      <trkpt lat="43.43381" lon="6.62846">
        <ele>57</ele>
        <time>2019-05-04T07:58:44.000Z</time>
      </trkpt>
      <trkpt lat="43.43381" lon="6.62844">
        <ele>57.200000762939</ele>
        <time>2019-05-04T07:58:45.000Z</time>
      </trkpt>
      <trkpt lat="43.43381" lon="6.6284">
        <ele>58</ele>
        <time>2019-05-04T07:58:48.000Z</time>
      </trkpt>
      <trkpt lat="43.4338" lon="6.62837">
        <ele>58.799999237061</ele>
        <time>2019-05-04T07:58:50.000Z</time>
      </trkpt>
      <trkpt lat="43.43379" lon="6.62836">
        <ele>59.200000762939</ele>
        <time>2019-05-04T07:58:51.000Z</time>
      </trkpt>
      <trkpt lat="43.43377" lon="6.62829">
        <ele>60.400001525879</ele>
        <time>2019-05-04T07:58:55.000Z</time>
      </trkpt>
      <trkpt lat="43.43374" lon="6.62823">
        <ele>61.200000762939</ele>
        <time>2019-05-04T07:58:59.000Z</time>
      </trkpt>
      <trkpt lat="43.43374" lon="6.62821">
        <ele>61.599998474121</ele>
        <time>2019-05-04T07:59:00.000Z</time>
      </trkpt>
      <trkpt lat="43.43372" lon="6.62819">
        <ele>62.200000762939</ele>
        <time>2019-05-04T07:59:02.000Z</time>
      </trkpt>
      <trkpt lat="43.4337" lon="6.62816">
        <ele>62.400001525879</ele>
        <time>2019-05-04T07:59:04.000Z</time>
      </trkpt>
      <trkpt lat="43.43369" lon="6.62815">
        <ele>62.799999237061</ele>
        <time>2019-05-04T07:59:05.000Z</time>
      </trkpt>
      <trkpt lat="43.43367" lon="6.6281">
        <ele>63.799999237061</ele>
        <time>2019-05-04T07:59:09.000Z</time>
      </trkpt>
      <trkpt lat="43.43363" lon="6.62804">
        <ele>65.199996948242</ele>
        <time>2019-05-04T07:59:13.000Z</time>
      </trkpt>
      <trkpt lat="43.43361" lon="6.628">
        <ele>65.400001525879</ele>
        <time>2019-05-04T07:59:15.000Z</time>
      </trkpt>
      <trkpt lat="43.4336" lon="6.62796">
        <ele>66.199996948242</ele>
        <time>2019-05-04T07:59:18.000Z</time>
      </trkpt>
      <trkpt lat="43.43359" lon="6.62786">
        <ele>67.599998474121</ele>
        <time>2019-05-04T07:59:23.000Z</time>
      </trkpt>
      <trkpt lat="43.43359" lon="6.62784">
        <ele>68.199996948242</ele>
        <time>2019-05-04T07:59:25.000Z</time>
      </trkpt>
      <trkpt lat="43.43359" lon="6.62781">
        <ele>69</ele>
        <time>2019-05-04T07:59:27.000Z</time>
      </trkpt>
      <trkpt lat="43.43359" lon="6.62779">
        <ele>69.199996948242</ele>
        <time>2019-05-04T07:59:28.000Z</time>
      </trkpt>
      <trkpt lat="43.4336" lon="6.62779">
        <ele>69.800003051758</ele>
        <time>2019-05-04T07:59:29.000Z</time>
      </trkpt>
      <trkpt lat="43.43359" lon="6.62779">
        <ele>70.199996948242</ele>
        <time>2019-05-04T07:59:30.000Z</time>
      </trkpt>
      <trkpt lat="43.43359" lon="6.62779">
        <ele>70.800003051758</ele>
        <time>2019-05-04T07:59:32.000Z</time>
      </trkpt>
      <trkpt lat="43.43358" lon="6.62774">
        <ele>71.199996948242</ele>
        <time>2019-05-04T07:59:39.000Z</time>
      </trkpt>
      <trkpt lat="43.43358" lon="6.62772">
        <ele>71.400001525879</ele>
        <time>2019-05-04T07:59:41.000Z</time>
      </trkpt>
      <trkpt lat="43.43357" lon="6.62767">
        <ele>72.599998474121</ele>
        <time>2019-05-04T07:59:46.000Z</time>
      </trkpt>
      <trkpt lat="43.43357" lon="6.62763">
        <ele>73</ele>
        <time>2019-05-04T07:59:49.000Z</time>
      </trkpt>
      <trkpt lat="43.43356" lon="6.62759">
        <ele>73.599998474121</ele>
        <time>2019-05-04T07:59:53.000Z</time>
      </trkpt>
      <trkpt lat="43.43356" lon="6.62755">
        <ele>74</ele>
        <time>2019-05-04T07:59:57.000Z</time>
      </trkpt>
      <trkpt lat="43.43356" lon="6.62752">
        <ele>74.800003051758</ele>
        <time>2019-05-04T08:00:00.000Z</time>
      </trkpt>
      <trkpt lat="43.43356" lon="6.62745">
        <ele>75.599998474121</ele>
        <time>2019-05-04T08:00:06.000Z</time>
      </trkpt>
      <trkpt lat="43.43355" lon="6.62742">
        <ele>75.800003051758</ele>
        <time>2019-05-04T08:00:08.000Z</time>
      </trkpt>
      <trkpt lat="43.43351" lon="6.62736">
        <ele>76.400001525879</ele>
        <time>2019-05-04T08:00:15.000Z</time>
      </trkpt>
      <trkpt lat="43.43349" lon="6.62735">
        <ele>76.800003051758</ele>
        <time>2019-05-04T08:00:18.000Z</time>
      </trkpt>
      <trkpt lat="43.43344" lon="6.62729">
        <ele>78</ele>
        <time>2019-05-04T08:00:26.000Z</time>
      </trkpt>
      <trkpt lat="43.43343" lon="6.62727">
        <ele>78.199996948242</ele>
        <time>2019-05-04T08:00:28.000Z</time>
      </trkpt>
      <trkpt lat="43.43341" lon="6.62726">
        <ele>78.800003051758</ele>
        <time>2019-05-04T08:00:34.000Z</time>
      </trkpt>
      <trkpt lat="43.43341" lon="6.62723">
        <ele>78.800003051758</ele>
        <time>2019-05-04T08:00:35.000Z</time>
      </trkpt>
      <trkpt lat="43.43341" lon="6.62719">
        <ele>79</ele>
        <time>2019-05-04T08:00:38.000Z</time>
      </trkpt>
      <trkpt lat="43.4334" lon="6.62717">
        <ele>79</ele>
        <time>2019-05-04T08:00:39.000Z</time>
      </trkpt>
      <trkpt lat="43.4334" lon="6.62709">
        <ele>80.199996948242</ele>
        <time>2019-05-04T08:00:43.000Z</time>
      </trkpt>
      <trkpt lat="43.4334" lon="6.62703">
        <ele>81</ele>
        <time>2019-05-04T08:00:46.000Z</time>
      </trkpt>
      <trkpt lat="43.4334" lon="6.62701">
        <ele>81.400001525879</ele>
        <time>2019-05-04T08:00:47.000Z</time>
      </trkpt>
      <trkpt lat="43.43339" lon="6.62692">
        <ele>82.599998474121</ele>
        <time>2019-05-04T08:00:52.000Z</time>
      </trkpt>
      <trkpt lat="43.4334" lon="6.62689">
        <ele>82.800003051758</ele>
        <time>2019-05-04T08:00:53.000Z</time>
      </trkpt>
      <trkpt lat="43.4334" lon="6.62688">
        <ele>83.599998474121</ele>
        <time>2019-05-04T08:00:58.000Z</time>
      </trkpt>
      <trkpt lat="43.43341" lon="6.62686">
        <ele>83.800003051758</ele>
        <time>2019-05-04T08:01:19.000Z</time>
      </trkpt>
      <trkpt lat="43.43341" lon="6.62684">
        <ele>83.599998474121</ele>
        <time>2019-05-04T08:01:31.000Z</time>
      </trkpt>
      <trkpt lat="43.43342" lon="6.62677">
        <ele>83.599998474121</ele>
        <time>2019-05-04T08:01:43.000Z</time>
      </trkpt>
      <trkpt lat="43.43348" lon="6.62657">
        <ele>83.599998474121</ele>
        <time>2019-05-04T08:01:51.000Z</time>
      </trkpt>
      <trkpt lat="43.43356" lon="6.6263">
        <ele>83.199996948242</ele>
        <time>2019-05-04T08:01:57.000Z</time>
      </trkpt>
      <trkpt lat="43.43368" lon="6.62609">
        <ele>83.400001525879</ele>
        <time>2019-05-04T08:02:04.000Z</time>
      </trkpt>
      <trkpt lat="43.43382" lon="6.626">
        <ele>84</ele>
        <time>2019-05-04T08:02:09.000Z</time>
      </trkpt>
      <trkpt lat="43.43402" lon="6.626">
        <ele>84.400001525879</ele>
        <time>2019-05-04T08:02:15.000Z</time>
      </trkpt>
      <trkpt lat="43.43414" lon="6.62616">
        <ele>84.599998474121</ele>
        <time>2019-05-04T08:02:20.000Z</time>
      </trkpt>
      <trkpt lat="43.43419" lon="6.62622">
        <ele>84.599998474121</ele>
        <time>2019-05-04T08:02:22.000Z</time>
      </trkpt>
      <trkpt lat="43.43422" lon="6.62621">
        <ele>84.599998474121</ele>
        <time>2019-05-04T08:02:23.000Z</time>
      </trkpt>
      <trkpt lat="43.43426" lon="6.6262">
        <ele>84.599998474121</ele>
        <time>2019-05-04T08:02:24.000Z</time>
      </trkpt>
      <trkpt lat="43.43429" lon="6.62617">
        <ele>84.599998474121</ele>
        <time>2019-05-04T08:02:25.000Z</time>
      </trkpt>
      <trkpt lat="43.43435" lon="6.6261">
        <ele>84.800003051758</ele>
        <time>2019-05-04T08:02:27.000Z</time>
      </trkpt>
      <trkpt lat="43.43453" lon="6.62591">
        <ele>85.599998474121</ele>
        <time>2019-05-04T08:02:33.000Z</time>
      </trkpt>
      <trkpt lat="43.43456" lon="6.62587">
        <ele>85.599998474121</ele>
        <time>2019-05-04T08:02:34.000Z</time>
      </trkpt>
      <trkpt lat="43.4346" lon="6.6257">
        <ele>85.800003051758</ele>
        <time>2019-05-04T08:02:38.000Z</time>
      </trkpt>
      <trkpt lat="43.43464" lon="6.62554">
        <ele>85.599998474121</ele>
        <time>2019-05-04T08:02:41.000Z</time>
      </trkpt>
      <trkpt lat="43.43468" lon="6.62544">
        <ele>85.199996948242</ele>
        <time>2019-05-04T08:02:43.000Z</time>
      </trkpt>
      <trkpt lat="43.4348" lon="6.62508">
        <ele>85.199996948242</ele>
        <time>2019-05-04T08:02:50.000Z</time>
      </trkpt>
      <trkpt lat="43.43489" lon="6.62479">
        <ele>84.599998474121</ele>
        <time>2019-05-04T08:02:55.000Z</time>
      </trkpt>
      <trkpt lat="43.43495" lon="6.62457">
        <ele>84.199996948242</ele>
        <time>2019-05-04T08:02:59.000Z</time>
      </trkpt>
      <trkpt lat="43.43499" lon="6.62438">
        <ele>83.800003051758</ele>
        <time>2019-05-04T08:03:03.000Z</time>
      </trkpt>
      <trkpt lat="43.43504" lon="6.6243">
        <ele>83.599998474121</ele>
        <time>2019-05-04T08:03:05.000Z</time>
      </trkpt>
      <trkpt lat="43.43508" lon="6.62428">
        <ele>83.400001525879</ele>
        <time>2019-05-04T08:03:06.000Z</time>
      </trkpt>
      <trkpt lat="43.43512" lon="6.62426">
        <ele>83</ele>
        <time>2019-05-04T08:03:07.000Z</time>
      </trkpt>
      <trkpt lat="43.43524" lon="6.62416">
        <ele>82</ele>
        <time>2019-05-04T08:03:10.000Z</time>
      </trkpt>
      <trkpt lat="43.43529" lon="6.62409">
        <ele>81</ele>
        <time>2019-05-04T08:03:11.000Z</time>
      </trkpt>
      <trkpt lat="43.43541" lon="6.62397">
        <ele>79.400001525879</ele>
        <time>2019-05-04T08:03:13.000Z</time>
      </trkpt>
      <trkpt lat="43.43551" lon="6.62386">
        <ele>77.400001525879</ele>
        <time>2019-05-04T08:03:15.000Z</time>
      </trkpt>
      <trkpt lat="43.43557" lon="6.62379">
        <ele>75.800003051758</ele>
        <time>2019-05-04T08:03:17.000Z</time>
      </trkpt>
      <trkpt lat="43.4356" lon="6.62375">
        <ele>75.199996948242</ele>
        <time>2019-05-04T08:03:18.000Z</time>
      </trkpt>
      <trkpt lat="43.43563" lon="6.62371">
        <ele>74.800003051758</ele>
        <time>2019-05-04T08:03:19.000Z</time>
      </trkpt>
      <trkpt lat="43.43568" lon="6.62365">
        <ele>74.199996948242</ele>
        <time>2019-05-04T08:03:20.000Z</time>
      </trkpt>
      <trkpt lat="43.43573" lon="6.62361">
        <ele>73.400001525879</ele>
        <time>2019-05-04T08:03:21.000Z</time>
      </trkpt>
      <trkpt lat="43.43581" lon="6.62353">
        <ele>71.800003051758</ele>
        <time>2019-05-04T08:03:23.000Z</time>
      </trkpt>
      <trkpt lat="43.43584" lon="6.62351">
        <ele>71.199996948242</ele>
        <time>2019-05-04T08:03:24.000Z</time>
      </trkpt>
      <trkpt lat="43.43587" lon="6.6235">
        <ele>70</ele>
        <time>2019-05-04T08:03:25.000Z</time>
      </trkpt>
      <trkpt lat="43.43592" lon="6.62346">
        <ele>68.599998474121</ele>
        <time>2019-05-04T08:03:27.000Z</time>
      </trkpt>
      <trkpt lat="43.43595" lon="6.62344">
        <ele>68.400001525879</ele>
        <time>2019-05-04T08:03:28.000Z</time>
      </trkpt>
      <trkpt lat="43.43599" lon="6.62337">
        <ele>67.199996948242</ele>
        <time>2019-05-04T08:03:30.000Z</time>
      </trkpt>
      <trkpt lat="43.436" lon="6.62335">
        <ele>66.400001525879</ele>
        <time>2019-05-04T08:03:31.000Z</time>
      </trkpt>
      <trkpt lat="43.43601" lon="6.62334">
        <ele>65.800003051758</ele>
        <time>2019-05-04T08:03:32.000Z</time>
      </trkpt>
      <trkpt lat="43.43601" lon="6.62334">
        <ele>64.599998474121</ele>
        <time>2019-05-04T08:03:34.000Z</time>
      </trkpt>
      <trkpt lat="43.43601" lon="6.62333">
        <ele>63.400001525879</ele>
        <time>2019-05-04T08:03:35.000Z</time>
      </trkpt>
      <trkpt lat="43.43601" lon="6.62333">
        <ele>62.799999237061</ele>
        <time>2019-05-04T08:03:36.000Z</time>
      </trkpt>
      <trkpt lat="43.43602" lon="6.62333">
        <ele>62.200000762939</ele>
        <time>2019-05-04T08:03:38.000Z</time>
      </trkpt>
      <trkpt lat="43.43602" lon="6.62332">
        <ele>62</ele>
        <time>2019-05-04T08:03:42.000Z</time>
      </trkpt>
      <trkpt lat="43.43602" lon="6.62331">
        <ele>61.799999237061</ele>
        <time>2019-05-04T08:04:00.000Z</time>
      </trkpt>
      <trkpt lat="43.43602" lon="6.62328">
        <ele>61.799999237061</ele>
        <time>2019-05-04T08:04:17.000Z</time>
      </trkpt>
      <trkpt lat="43.43602" lon="6.62315">
        <ele>61.599998474121</ele>
        <time>2019-05-04T08:04:23.000Z</time>
      </trkpt>
      <trkpt lat="43.436" lon="6.62308">
        <ele>61</ele>
        <time>2019-05-04T08:04:26.000Z</time>
      </trkpt>
      <trkpt lat="43.436" lon="6.62303">
        <ele>60.799999237061</ele>
        <time>2019-05-04T08:04:27.000Z</time>
      </trkpt>
      <trkpt lat="43.43602" lon="6.62297">
        <ele>59</ele>
        <time>2019-05-04T08:04:29.000Z</time>
      </trkpt>
      <trkpt lat="43.43601" lon="6.62289">
        <ele>57.400001525879</ele>
        <time>2019-05-04T08:04:31.000Z</time>
      </trkpt>
      <trkpt lat="43.436" lon="6.62283">
        <ele>55.400001525879</ele>
        <time>2019-05-04T08:04:33.000Z</time>
      </trkpt>
      <trkpt lat="43.436" lon="6.62278">
        <ele>54.400001525879</ele>
        <time>2019-05-04T08:04:35.000Z</time>
      </trkpt>
      <trkpt lat="43.43598" lon="6.62273">
        <ele>52.799999237061</ele>
        <time>2019-05-04T08:04:37.000Z</time>
      </trkpt>
      <trkpt lat="43.43597" lon="6.62272">
        <ele>52.400001525879</ele>
        <time>2019-05-04T08:04:38.000Z</time>
      </trkpt>
      <trkpt lat="43.43597" lon="6.62268">
        <ele>51.400001525879</ele>
        <time>2019-05-04T08:04:39.000Z</time>
      </trkpt>
      <trkpt lat="43.43599" lon="6.62262">
        <ele>49.599998474121</ele>
        <time>2019-05-04T08:04:41.000Z</time>
      </trkpt>
      <trkpt lat="43.436" lon="6.6226">
        <ele>48.400001525879</ele>
        <time>2019-05-04T08:04:42.000Z</time>
      </trkpt>
      <trkpt lat="43.43603" lon="6.62254">
        <ele>47</ele>
        <time>2019-05-04T08:04:44.000Z</time>
      </trkpt>
      <trkpt lat="43.43607" lon="6.6225">
        <ele>45.799999237061</ele>
        <time>2019-05-04T08:04:46.000Z</time>
      </trkpt>
      <trkpt lat="43.43608" lon="6.62249">
        <ele>45.400001525879</ele>
        <time>2019-05-04T08:04:47.000Z</time>
      </trkpt>
      <trkpt lat="43.43608" lon="6.62248">
        <ele>44.799999237061</ele>
        <time>2019-05-04T08:04:48.000Z</time>
      </trkpt>
      <trkpt lat="43.43609" lon="6.62247">
        <ele>43.599998474121</ele>
        <time>2019-05-04T08:04:50.000Z</time>
      </trkpt>
      <trkpt lat="43.4361" lon="6.62241">
        <ele>42.400001525879</ele>
        <time>2019-05-04T08:04:53.000Z</time>
      </trkpt>
      <trkpt lat="43.43613" lon="6.62235">
        <ele>41</ele>
        <time>2019-05-04T08:04:56.000Z</time>
      </trkpt>
      <trkpt lat="43.43613" lon="6.62235">
        <ele>40</ele>
        <time>2019-05-04T08:04:58.000Z</time>
      </trkpt>
      <trkpt lat="43.43613" lon="6.62235">
        <ele>39.200000762939</ele>
        <time>2019-05-04T08:05:01.000Z</time>
      </trkpt>
      <trkpt lat="43.43613" lon="6.62234">
        <ele>39.400001525879</ele>
        <time>2019-05-04T08:05:22.000Z</time>
      </trkpt>
      <trkpt lat="43.43613" lon="6.62235">
        <ele>39.599998474121</ele>
        <time>2019-05-04T08:05:30.000Z</time>
      </trkpt>
      <trkpt lat="43.43612" lon="6.62234">
        <ele>39.400001525879</ele>
        <time>2019-05-04T08:05:39.000Z</time>
      </trkpt>
      <trkpt lat="43.43613" lon="6.62234">
        <ele>39.200000762939</ele>
        <time>2019-05-04T08:05:59.000Z</time>
      </trkpt>
      <trkpt lat="43.43613" lon="6.62234">
        <ele>39.599998474121</ele>
        <time>2019-05-04T08:06:08.000Z</time>
      </trkpt>
      <trkpt lat="43.43613" lon="6.62235">
        <ele>39.200000762939</ele>
        <time>2019-05-04T08:06:15.000Z</time>
      </trkpt>
      <trkpt lat="43.43613" lon="6.62234">
        <ele>39.400001525879</ele>
        <time>2019-05-04T08:06:23.000Z</time>
      </trkpt>
      <trkpt lat="43.43613" lon="6.62235">
        <ele>39</ele>
        <time>2019-05-04T08:06:28.000Z</time>
      </trkpt>
      <trkpt lat="43.43613" lon="6.62235">
        <ele>38.799999237061</ele>
        <time>2019-05-04T08:06:29.000Z</time>
      </trkpt>
      <trkpt lat="43.43616" lon="6.62237">
        <ele>39</ele>
        <time>2019-05-04T08:06:34.000Z</time>
      </trkpt>
      <trkpt lat="43.43622" lon="6.62237">
        <ele>39</ele>
        <time>2019-05-04T08:06:40.000Z</time>
      </trkpt>
      <trkpt lat="43.43638" lon="6.62232">
        <ele>38.400001525879</ele>
        <time>2019-05-04T08:06:45.000Z</time>
      </trkpt>
      <trkpt lat="43.43648" lon="6.6223">
        <ele>37.599998474121</ele>
        <time>2019-05-04T08:06:47.000Z</time>
      </trkpt>
      <trkpt lat="43.43657" lon="6.62232">
        <ele>37</ele>
        <time>2019-05-04T08:06:49.000Z</time>
      </trkpt>
      <trkpt lat="43.43666" lon="6.62237">
        <ele>36.400001525879</ele>
        <time>2019-05-04T08:06:51.000Z</time>
      </trkpt>
      <trkpt lat="43.43681" lon="6.62246">
        <ele>35.400001525879</ele>
        <time>2019-05-04T08:06:54.000Z</time>
      </trkpt>
      <trkpt lat="43.43704" lon="6.62257">
        <ele>34.200000762939</ele>
        <time>2019-05-04T08:06:58.000Z</time>
      </trkpt>
      <trkpt lat="43.43722" lon="6.62264">
        <ele>33</ele>
        <time>2019-05-04T08:07:01.000Z</time>
      </trkpt>
      <trkpt lat="43.43741" lon="6.62271">
        <ele>32</ele>
        <time>2019-05-04T08:07:04.000Z</time>
      </trkpt>
      <trkpt lat="43.43748" lon="6.62274">
        <ele>31.60000038147</ele>
        <time>2019-05-04T08:07:05.000Z</time>
      </trkpt>
      <trkpt lat="43.43763" lon="6.6228">
        <ele>30.39999961853</ele>
        <time>2019-05-04T08:07:07.000Z</time>
      </trkpt>
      <trkpt lat="43.43778" lon="6.62285">
        <ele>29</ele>
        <time>2019-05-04T08:07:09.000Z</time>
      </trkpt>
      <trkpt lat="43.43792" lon="6.62288">
        <ele>28</ele>
        <time>2019-05-04T08:07:11.000Z</time>
      </trkpt>
      <trkpt lat="43.43821" lon="6.62291">
        <ele>27.200000762939</ele>
        <time>2019-05-04T08:07:16.000Z</time>
      </trkpt>
      <trkpt lat="43.43825" lon="6.62292">
        <ele>26.799999237061</ele>
        <time>2019-05-04T08:07:17.000Z</time>
      </trkpt>
      <trkpt lat="43.43828" lon="6.62293">
        <ele>26.60000038147</ele>
        <time>2019-05-04T08:07:19.000Z</time>
      </trkpt>
      <trkpt lat="43.43828" lon="6.62293">
        <ele>28</ele>
        <time>2019-05-04T08:07:23.000Z</time>
      </trkpt>
      <trkpt lat="43.43828" lon="6.62293">
        <ele>28.799999237061</ele>
        <time>2019-05-04T08:07:27.000Z</time>
      </trkpt>
      <trkpt lat="43.43827" lon="6.62293">
        <ele>28.799999237061</ele>
        <time>2019-05-04T08:07:37.000Z</time>
      </trkpt>
      <trkpt lat="43.43826" lon="6.62293">
        <ele>28.200000762939</ele>
        <time>2019-05-04T08:07:47.000Z</time>
      </trkpt>
      <trkpt lat="43.43826" lon="6.62293">
        <ele>28.39999961853</ele>
        <time>2019-05-04T08:07:56.000Z</time>
      </trkpt>
      <trkpt lat="43.43827" lon="6.62292">
        <ele>28</ele>
        <time>2019-05-04T08:08:18.000Z</time>
      </trkpt>
      <trkpt lat="43.43827" lon="6.62291">
        <ele>28.60000038147</ele>
        <time>2019-05-04T08:08:25.000Z</time>
      </trkpt>
      <trkpt lat="43.43834" lon="6.62284">
        <ele>28.39999961853</ele>
        <time>2019-05-04T08:08:30.000Z</time>
      </trkpt>
      <trkpt lat="43.43847" lon="6.62283">
        <ele>27.60000038147</ele>
        <time>2019-05-04T08:08:34.000Z</time>
      </trkpt>
      <trkpt lat="43.43855" lon="6.62283">
        <ele>27.60000038147</ele>
        <time>2019-05-04T08:08:36.000Z</time>
      </trkpt>
      <trkpt lat="43.43863" lon="6.62286">
        <ele>27.60000038147</ele>
        <time>2019-05-04T08:08:38.000Z</time>
      </trkpt>
      <trkpt lat="43.43869" lon="6.62287">
        <ele>27.60000038147</ele>
        <time>2019-05-04T08:08:40.000Z</time>
      </trkpt>
      <trkpt lat="43.43879" lon="6.62291">
        <ele>27.60000038147</ele>
        <time>2019-05-04T08:08:43.000Z</time>
      </trkpt>
      <trkpt lat="43.43891" lon="6.62285">
        <ele>28</ele>
        <time>2019-05-04T08:08:47.000Z</time>
      </trkpt>
      <trkpt lat="43.4391" lon="6.62278">
        <ele>27.799999237061</ele>
        <time>2019-05-04T08:08:52.000Z</time>
      </trkpt>
      <trkpt lat="43.43914" lon="6.62277">
        <ele>28</ele>
        <time>2019-05-04T08:08:53.000Z</time>
      </trkpt>
      <trkpt lat="43.43937" lon="6.62272">
        <ele>27.60000038147</ele>
        <time>2019-05-04T08:08:59.000Z</time>
      </trkpt>
      <trkpt lat="43.43952" lon="6.62271">
        <ele>27.200000762939</ele>
        <time>2019-05-04T08:09:03.000Z</time>
      </trkpt>
      <trkpt lat="43.43963" lon="6.62269">
        <ele>27.200000762939</ele>
        <time>2019-05-04T08:09:06.000Z</time>
      </trkpt>
      <trkpt lat="43.43967" lon="6.62269">
        <ele>27.200000762939</ele>
        <time>2019-05-04T08:09:07.000Z</time>
      </trkpt>
      <trkpt lat="43.43982" lon="6.6227">
        <ele>27.200000762939</ele>
        <time>2019-05-04T08:09:11.000Z</time>
      </trkpt>
      <trkpt lat="43.43989" lon="6.62271">
        <ele>27</ele>
        <time>2019-05-04T08:09:13.000Z</time>
      </trkpt>
      <trkpt lat="43.43992" lon="6.62269">
        <ele>27</ele>
        <time>2019-05-04T08:09:14.000Z</time>
      </trkpt>
      <trkpt lat="43.43995" lon="6.62267">
        <ele>27</ele>
        <time>2019-05-04T08:09:15.000Z</time>
      </trkpt>
      <trkpt lat="43.44007" lon="6.62264">
        <ele>26.799999237061</ele>
        <time>2019-05-04T08:09:18.000Z</time>
      </trkpt>
      <trkpt lat="43.44015" lon="6.62262">
        <ele>26.799999237061</ele>
        <time>2019-05-04T08:09:20.000Z</time>
      </trkpt>
      <trkpt lat="43.4402" lon="6.62261">
        <ele>26.799999237061</ele>
        <time>2019-05-04T08:09:21.000Z</time>
      </trkpt>
      <trkpt lat="43.44028" lon="6.6226">
        <ele>26.799999237061</ele>
        <time>2019-05-04T08:09:23.000Z</time>
      </trkpt>
      <trkpt lat="43.44033" lon="6.6226">
        <ele>26.799999237061</ele>
        <time>2019-05-04T08:09:24.000Z</time>
      </trkpt>
      <trkpt lat="43.44042" lon="6.62259">
        <ele>26.60000038147</ele>
        <time>2019-05-04T08:09:26.000Z</time>
      </trkpt>
      <trkpt lat="43.44055" lon="6.6226">
        <ele>26.60000038147</ele>
        <time>2019-05-04T08:09:29.000Z</time>
      </trkpt>
      <trkpt lat="43.44072" lon="6.62252">
        <ele>26.39999961853</ele>
        <time>2019-05-04T08:09:33.000Z</time>
      </trkpt>
      <trkpt lat="43.44084" lon="6.62247">
        <ele>26.39999961853</ele>
        <time>2019-05-04T08:09:36.000Z</time>
      </trkpt>
      <trkpt lat="43.44093" lon="6.62242">
        <ele>26.39999961853</ele>
        <time>2019-05-04T08:09:38.000Z</time>
      </trkpt>
      <trkpt lat="43.44105" lon="6.62235">
        <ele>26.39999961853</ele>
        <time>2019-05-04T08:09:41.000Z</time>
      </trkpt>
      <trkpt lat="43.44115" lon="6.62226">
        <ele>26.200000762939</ele>
        <time>2019-05-04T08:09:44.000Z</time>
      </trkpt>
      <trkpt lat="43.44119" lon="6.62218">
        <ele>26</ele>
        <time>2019-05-04T08:09:46.000Z</time>
      </trkpt>
      <trkpt lat="43.44125" lon="6.62213">
        <ele>26</ele>
        <time>2019-05-04T08:09:48.000Z</time>
      </trkpt>
      <trkpt lat="43.44135" lon="6.62208">
        <ele>26.799999237061</ele>
        <time>2019-05-04T08:09:52.000Z</time>
      </trkpt>
      <trkpt lat="43.44135" lon="6.62191">
        <ele>27.39999961853</ele>
        <time>2019-05-04T08:09:55.000Z</time>
      </trkpt>
      <trkpt lat="43.44132" lon="6.62164">
        <ele>25.60000038147</ele>
        <time>2019-05-04T08:09:59.000Z</time>
      </trkpt>
      <trkpt lat="43.44138" lon="6.62145">
        <ele>25</ele>
        <time>2019-05-04T08:10:03.000Z</time>
      </trkpt>
      <trkpt lat="43.44152" lon="6.62119">
        <ele>25.39999961853</ele>
        <time>2019-05-04T08:10:09.000Z</time>
      </trkpt>
      <trkpt lat="43.44167" lon="6.62106">
        <ele>25.60000038147</ele>
        <time>2019-05-04T08:10:14.000Z</time>
      </trkpt>
      <trkpt lat="43.44188" lon="6.62096">
        <ele>25.799999237061</ele>
        <time>2019-05-04T08:10:20.000Z</time>
      </trkpt>
      <trkpt lat="43.44219" lon="6.62081">
        <ele>25.200000762939</ele>
        <time>2019-05-04T08:10:28.000Z</time>
      </trkpt>
      <trkpt lat="43.44248" lon="6.62068">
        <ele>24.60000038147</ele>
        <time>2019-05-04T08:10:35.000Z</time>
      </trkpt>
      <trkpt lat="43.44278" lon="6.62056">
        <ele>24.799999237061</ele>
        <time>2019-05-04T08:10:42.000Z</time>
      </trkpt>
      <trkpt lat="43.44294" lon="6.62051">
        <ele>24.60000038147</ele>
        <time>2019-05-04T08:10:46.000Z</time>
      </trkpt>
      <trkpt lat="43.4431" lon="6.62045">
        <ele>24.39999961853</ele>
        <time>2019-05-04T08:10:50.000Z</time>
      </trkpt>
      <trkpt lat="43.4433" lon="6.62044">
        <ele>24.39999961853</ele>
        <time>2019-05-04T08:10:55.000Z</time>
      </trkpt>
      <trkpt lat="43.44342" lon="6.62035">
        <ele>24.39999961853</ele>
        <time>2019-05-04T08:10:59.000Z</time>
      </trkpt>
      <trkpt lat="43.44356" lon="6.62028">
        <ele>24.60000038147</ele>
        <time>2019-05-04T08:11:04.000Z</time>
      </trkpt>
      <trkpt lat="43.44375" lon="6.62025">
        <ele>24.200000762939</ele>
        <time>2019-05-04T08:11:10.000Z</time>
      </trkpt>
      <trkpt lat="43.44393" lon="6.62025">
        <ele>24.200000762939</ele>
        <time>2019-05-04T08:11:16.000Z</time>
      </trkpt>
      <trkpt lat="43.44398" lon="6.6202">
        <ele>24.60000038147</ele>
        <time>2019-05-04T08:11:18.000Z</time>
      </trkpt>
      <trkpt lat="43.44398" lon="6.62016">
        <ele>24.39999961853</ele>
        <time>2019-05-04T08:11:19.000Z</time>
      </trkpt>
      <trkpt lat="43.44395" lon="6.62003">
        <ele>23.39999961853</ele>
        <time>2019-05-04T08:11:22.000Z</time>
      </trkpt>
      <trkpt lat="43.44394" lon="6.61998">
        <ele>23</ele>
        <time>2019-05-04T08:11:23.000Z</time>
      </trkpt>
      <trkpt lat="43.44393" lon="6.61994">
        <ele>22.60000038147</ele>
        <time>2019-05-04T08:11:24.000Z</time>
      </trkpt>
      <trkpt lat="43.44391" lon="6.61984">
        <ele>23.200000762939</ele>
        <time>2019-05-04T08:11:28.000Z</time>
      </trkpt>
      <trkpt lat="43.4438" lon="6.61958">
        <ele>24</ele>
        <time>2019-05-04T08:11:35.000Z</time>
      </trkpt>
      <trkpt lat="43.44368" lon="6.61931">
        <ele>24.200000762939</ele>
        <time>2019-05-04T08:11:43.000Z</time>
      </trkpt>
      <trkpt lat="43.44368" lon="6.61922">
        <ele>24.60000038147</ele>
        <time>2019-05-04T08:11:47.000Z</time>
      </trkpt>
      <trkpt lat="43.44368" lon="6.61916">
        <ele>24.60000038147</ele>
        <time>2019-05-04T08:11:51.000Z</time>
      </trkpt>
      <trkpt lat="43.4437" lon="6.61911">
        <ele>24.60000038147</ele>
        <time>2019-05-04T08:11:53.000Z</time>
      </trkpt>
      <trkpt lat="43.44369" lon="6.61907">
        <ele>24.60000038147</ele>
        <time>2019-05-04T08:11:57.000Z</time>
      </trkpt>
      <trkpt lat="43.44368" lon="6.61907">
        <ele>24.60000038147</ele>
        <time>2019-05-04T08:12:01.000Z</time>
      </trkpt>
      <trkpt lat="43.44368" lon="6.61906">
        <ele>24.200000762939</ele>
        <time>2019-05-04T08:12:08.000Z</time>
      </trkpt>
      <trkpt lat="43.44368" lon="6.61906">
        <ele>24</ele>
        <time>2019-05-04T08:12:15.000Z</time>
      </trkpt>
      <trkpt lat="43.44367" lon="6.61905">
        <ele>24.39999961853</ele>
        <time>2019-05-04T08:12:26.000Z</time>
      </trkpt>
      <trkpt lat="43.44367" lon="6.61904">
        <ele>24</ele>
        <time>2019-05-04T08:12:37.000Z</time>
      </trkpt>
      <trkpt lat="43.44367" lon="6.61902">
        <ele>24.39999961853</ele>
        <time>2019-05-04T08:12:40.000Z</time>
      </trkpt>
      <trkpt lat="43.44367" lon="6.61897">
        <ele>24.60000038147</ele>
        <time>2019-05-04T08:12:43.000Z</time>
      </trkpt>
      <trkpt lat="43.4437" lon="6.61879">
        <ele>24.60000038147</ele>
        <time>2019-05-04T08:12:47.000Z</time>
      </trkpt>
      <trkpt lat="43.4437" lon="6.61874">
        <ele>24.60000038147</ele>
        <time>2019-05-04T08:12:48.000Z</time>
      </trkpt>
      <trkpt lat="43.4437" lon="6.61859">
        <ele>24.60000038147</ele>
        <time>2019-05-04T08:12:51.000Z</time>
      </trkpt>
      <trkpt lat="43.4437" lon="6.6184">
        <ele>25.200000762939</ele>
        <time>2019-05-04T08:12:55.000Z</time>
      </trkpt>
      <trkpt lat="43.44369" lon="6.61828">
        <ele>25.799999237061</ele>
        <time>2019-05-04T08:12:57.000Z</time>
      </trkpt>
      <trkpt lat="43.44368" lon="6.61815">
        <ele>26.200000762939</ele>
        <time>2019-05-04T08:12:59.000Z</time>
      </trkpt>
      <trkpt lat="43.44367" lon="6.61786">
        <ele>25.39999961853</ele>
        <time>2019-05-04T08:13:03.000Z</time>
      </trkpt>
      <trkpt lat="43.44365" lon="6.61774">
        <ele>25.200000762939</ele>
        <time>2019-05-04T08:13:05.000Z</time>
      </trkpt>
      <trkpt lat="43.44361" lon="6.61747">
        <ele>25.39999961853</ele>
        <time>2019-05-04T08:13:11.000Z</time>
      </trkpt>
      <trkpt lat="43.44359" lon="6.61741">
        <ele>25.60000038147</ele>
        <time>2019-05-04T08:13:15.000Z</time>
      </trkpt>
      <trkpt lat="43.44359" lon="6.61741">
        <ele>25.60000038147</ele>
        <time>2019-05-04T08:13:20.000Z</time>
      </trkpt>
      <trkpt lat="43.44358" lon="6.6174">
        <ele>25.60000038147</ele>
        <time>2019-05-04T08:13:25.000Z</time>
      </trkpt>
      <trkpt lat="43.44356" lon="6.61737">
        <ele>25.60000038147</ele>
        <time>2019-05-04T08:13:32.000Z</time>
      </trkpt>
      <trkpt lat="43.44356" lon="6.61736">
        <ele>25.60000038147</ele>
        <time>2019-05-04T08:13:33.000Z</time>
      </trkpt>
      <trkpt lat="43.44356" lon="6.61731">
        <ele>25.60000038147</ele>
        <time>2019-05-04T08:13:37.000Z</time>
      </trkpt>
      <trkpt lat="43.44357" lon="6.61726">
        <ele>25</ele>
        <time>2019-05-04T08:13:44.000Z</time>
      </trkpt>
      <trkpt lat="43.44357" lon="6.61723">
        <ele>24.799999237061</ele>
        <time>2019-05-04T08:13:50.000Z</time>
      </trkpt>
      <trkpt lat="43.44357" lon="6.61723">
        <ele>24.799999237061</ele>
        <time>2019-05-04T08:13:51.000Z</time>
      </trkpt>
      <trkpt lat="43.44356" lon="6.6172">
        <ele>24.200000762939</ele>
        <time>2019-05-04T08:13:54.000Z</time>
      </trkpt>
      <trkpt lat="43.44356" lon="6.61719">
        <ele>24.60000038147</ele>
        <time>2019-05-04T08:13:57.000Z</time>
      </trkpt>
      <trkpt lat="43.44354" lon="6.61714">
        <ele>24.60000038147</ele>
        <time>2019-05-04T08:14:01.000Z</time>
      </trkpt>
      <trkpt lat="43.44353" lon="6.61713">
        <ele>24.60000038147</ele>
        <time>2019-05-04T08:14:02.000Z</time>
      </trkpt>
      <trkpt lat="43.44352" lon="6.61708">
        <ele>24.799999237061</ele>
        <time>2019-05-04T08:14:05.000Z</time>
      </trkpt>
      <trkpt lat="43.4435" lon="6.617">
        <ele>25.60000038147</ele>
        <time>2019-05-04T08:14:10.000Z</time>
      </trkpt>
      <trkpt lat="43.4435" lon="6.61697">
        <ele>25.799999237061</ele>
        <time>2019-05-04T08:14:12.000Z</time>
      </trkpt>
      <trkpt lat="43.44351" lon="6.61694">
        <ele>25.799999237061</ele>
        <time>2019-05-04T08:14:14.000Z</time>
      </trkpt>
      <trkpt lat="43.44351" lon="6.61691">
        <ele>25.200000762939</ele>
        <time>2019-05-04T08:14:16.000Z</time>
      </trkpt>
      <trkpt lat="43.44353" lon="6.61686">
        <ele>26.60000038147</ele>
        <time>2019-05-04T08:14:21.000Z</time>
      </trkpt>
      <trkpt lat="43.44353" lon="6.61685">
        <ele>26.799999237061</ele>
        <time>2019-05-04T08:14:22.000Z</time>
      </trkpt>
      <trkpt lat="43.44353" lon="6.61681">
        <ele>27.200000762939</ele>
        <time>2019-05-04T08:14:25.000Z</time>
      </trkpt>
      <trkpt lat="43.44354" lon="6.61679">
        <ele>27.39999961853</ele>
        <time>2019-05-04T08:14:27.000Z</time>
      </trkpt>
      <trkpt lat="43.44355" lon="6.61681">
        <ele>27.60000038147</ele>
        <time>2019-05-04T08:14:29.000Z</time>
      </trkpt>
      <trkpt lat="43.44355" lon="6.6168">
        <ele>27.799999237061</ele>
        <time>2019-05-04T08:14:31.000Z</time>
      </trkpt>
      <trkpt lat="43.44355" lon="6.6168">
        <ele>27.200000762939</ele>
        <time>2019-05-04T08:14:41.000Z</time>
      </trkpt>
      <trkpt lat="43.44355" lon="6.61679">
        <ele>27.200000762939</ele>
        <time>2019-05-04T08:15:05.000Z</time>
      </trkpt>
      <trkpt lat="43.44354" lon="6.61678">
        <ele>27.39999961853</ele>
        <time>2019-05-04T08:15:12.000Z</time>
      </trkpt>
      <trkpt lat="43.44353" lon="6.61679">
        <ele>27.200000762939</ele>
        <time>2019-05-04T08:15:19.000Z</time>
      </trkpt>
      <trkpt lat="43.44352" lon="6.61677">
        <ele>27.200000762939</ele>
        <time>2019-05-04T08:15:20.000Z</time>
      </trkpt>
      <trkpt lat="43.44352" lon="6.61672">
        <ele>28</ele>
        <time>2019-05-04T08:15:24.000Z</time>
      </trkpt>
      <trkpt lat="43.4435" lon="6.61667">
        <ele>29.200000762939</ele>
        <time>2019-05-04T08:15:28.000Z</time>
      </trkpt>
      <trkpt lat="43.44351" lon="6.61665">
        <ele>29.39999961853</ele>
        <time>2019-05-04T08:15:29.000Z</time>
      </trkpt>
      <trkpt lat="43.44351" lon="6.61664">
        <ele>29.60000038147</ele>
        <time>2019-05-04T08:15:30.000Z</time>
      </trkpt>
      <trkpt lat="43.44352" lon="6.61658">
        <ele>30.200000762939</ele>
        <time>2019-05-04T08:15:34.000Z</time>
      </trkpt>
      <trkpt lat="43.4435" lon="6.61655">
        <ele>30.39999961853</ele>
        <time>2019-05-04T08:15:36.000Z</time>
      </trkpt>
      <trkpt lat="43.44349" lon="6.6165">
        <ele>30.799999237061</ele>
        <time>2019-05-04T08:15:41.000Z</time>
      </trkpt>
      <trkpt lat="43.44349" lon="6.61649">
        <ele>31</ele>
        <time>2019-05-04T08:15:42.000Z</time>
      </trkpt>
      <trkpt lat="43.44348" lon="6.61647">
        <ele>31.200000762939</ele>
        <time>2019-05-04T08:15:44.000Z</time>
      </trkpt>
      <trkpt lat="43.44345" lon="6.61643">
        <ele>32</ele>
        <time>2019-05-04T08:15:48.000Z</time>
      </trkpt>
      <trkpt lat="43.44344" lon="6.61641">
        <ele>32.400001525879</ele>
        <time>2019-05-04T08:15:49.000Z</time>
      </trkpt>
      <trkpt lat="43.44343" lon="6.61635">
        <ele>33</ele>
        <time>2019-05-04T08:15:53.000Z</time>
      </trkpt>
      <trkpt lat="43.44346" lon="6.6163">
        <ele>33.400001525879</ele>
        <time>2019-05-04T08:15:57.000Z</time>
      </trkpt>
      <trkpt lat="43.44347" lon="6.61628">
        <ele>33.799999237061</ele>
        <time>2019-05-04T08:15:59.000Z</time>
      </trkpt>
      <trkpt lat="43.44352" lon="6.61624">
        <ele>34.400001525879</ele>
        <time>2019-05-04T08:16:04.000Z</time>
      </trkpt>
      <trkpt lat="43.44354" lon="6.61621">
        <ele>34.400001525879</ele>
        <time>2019-05-04T08:16:06.000Z</time>
      </trkpt>
      <trkpt lat="43.44354" lon="6.61621">
        <ele>34.599998474121</ele>
        <time>2019-05-04T08:16:07.000Z</time>
      </trkpt>
      <trkpt lat="43.44355" lon="6.61621">
        <ele>34.599998474121</ele>
        <time>2019-05-04T08:16:08.000Z</time>
      </trkpt>
      <trkpt lat="43.44357" lon="6.61618">
        <ele>35.200000762939</ele>
        <time>2019-05-04T08:16:11.000Z</time>
      </trkpt>
      <trkpt lat="43.44358" lon="6.61618">
        <ele>35.400001525879</ele>
        <time>2019-05-04T08:16:12.000Z</time>
      </trkpt>
      <trkpt lat="43.44359" lon="6.61616">
        <ele>35.599998474121</ele>
        <time>2019-05-04T08:16:13.000Z</time>
      </trkpt>
      <trkpt lat="43.44364" lon="6.61613">
        <ele>36.599998474121</ele>
        <time>2019-05-04T08:16:18.000Z</time>
      </trkpt>
      <trkpt lat="43.44365" lon="6.61612">
        <ele>36.799999237061</ele>
        <time>2019-05-04T08:16:19.000Z</time>
      </trkpt>
      <trkpt lat="43.44371" lon="6.61608">
        <ele>37.799999237061</ele>
        <time>2019-05-04T08:16:25.000Z</time>
      </trkpt>
      <trkpt lat="43.44372" lon="6.61606">
        <ele>38</ele>
        <time>2019-05-04T08:16:26.000Z</time>
      </trkpt>
      <trkpt lat="43.44373" lon="6.61603">
        <ele>38.400001525879</ele>
        <time>2019-05-04T08:16:31.000Z</time>
      </trkpt>
      <trkpt lat="43.44376" lon="6.61598">
        <ele>38.400001525879</ele>
        <time>2019-05-04T08:16:35.000Z</time>
      </trkpt>
      <trkpt lat="43.44376" lon="6.61598">
        <ele>38.799999237061</ele>
        <time>2019-05-04T08:16:39.000Z</time>
      </trkpt>
      <trkpt lat="43.44376" lon="6.61598">
        <ele>39</ele>
        <time>2019-05-04T08:16:40.000Z</time>
      </trkpt>
      <trkpt lat="43.44378" lon="6.61592">
        <ele>39</ele>
        <time>2019-05-04T08:16:47.000Z</time>
      </trkpt>
      <trkpt lat="43.44378" lon="6.61589">
        <ele>39</ele>
        <time>2019-05-04T08:16:49.000Z</time>
      </trkpt>
      <trkpt lat="43.44379" lon="6.61588">
        <ele>39.400001525879</ele>
        <time>2019-05-04T08:16:51.000Z</time>
      </trkpt>
      <trkpt lat="43.44378" lon="6.61587">
        <ele>39.599998474121</ele>
        <time>2019-05-04T08:16:52.000Z</time>
      </trkpt>
      <trkpt lat="43.44378" lon="6.61585">
        <ele>39.799999237061</ele>
        <time>2019-05-04T08:16:54.000Z</time>
      </trkpt>
      <trkpt lat="43.44378" lon="6.6158">
        <ele>40.200000762939</ele>
        <time>2019-05-04T08:16:57.000Z</time>
      </trkpt>
      <trkpt lat="43.44378" lon="6.61576">
        <ele>41</ele>
        <time>2019-05-04T08:17:00.000Z</time>
      </trkpt>
      <trkpt lat="43.44378" lon="6.61571">
        <ele>41.400001525879</ele>
        <time>2019-05-04T08:17:03.000Z</time>
      </trkpt>
      <trkpt lat="43.44379" lon="6.6156">
        <ele>41.799999237061</ele>
        <time>2019-05-04T08:17:10.000Z</time>
      </trkpt>
      <trkpt lat="43.44379" lon="6.61557">
        <ele>42</ele>
        <time>2019-05-04T08:17:12.000Z</time>
      </trkpt>
      <trkpt lat="43.44379" lon="6.61552">
        <ele>43</ele>
        <time>2019-05-04T08:17:15.000Z</time>
      </trkpt>
      <trkpt lat="43.4438" lon="6.61546">
        <ele>44</ele>
        <time>2019-05-04T08:17:19.000Z</time>
      </trkpt>
      <trkpt lat="43.4438" lon="6.61543">
        <ele>44.200000762939</ele>
        <time>2019-05-04T08:17:21.000Z</time>
      </trkpt>
      <trkpt lat="43.44381" lon="6.61538">
        <ele>44.400001525879</ele>
        <time>2019-05-04T08:17:24.000Z</time>
      </trkpt>
      <trkpt lat="43.44384" lon="6.61526">
        <ele>45</ele>
        <time>2019-05-04T08:17:31.000Z</time>
      </trkpt>
      <trkpt lat="43.44384" lon="6.61523">
        <ele>45.200000762939</ele>
        <time>2019-05-04T08:17:33.000Z</time>
      </trkpt>
      <trkpt lat="43.44387" lon="6.61516">
        <ele>46.200000762939</ele>
        <time>2019-05-04T08:17:38.000Z</time>
      </trkpt>
      <trkpt lat="43.44389" lon="6.61514">
        <ele>46.400001525879</ele>
        <time>2019-05-04T08:17:40.000Z</time>
      </trkpt>
      <trkpt lat="43.44394" lon="6.61507">
        <ele>47</ele>
        <time>2019-05-04T08:17:46.000Z</time>
      </trkpt>
      <trkpt lat="43.44396" lon="6.61505">
        <ele>47.400001525879</ele>
        <time>2019-05-04T08:17:49.000Z</time>
      </trkpt>
      <trkpt lat="43.444" lon="6.61501">
        <ele>48</ele>
        <time>2019-05-04T08:17:54.000Z</time>
      </trkpt>
      <trkpt lat="43.44402" lon="6.61498">
        <ele>48.599998474121</ele>
        <time>2019-05-04T08:17:57.000Z</time>
      </trkpt>
      <trkpt lat="43.44406" lon="6.61495">
        <ele>49.200000762939</ele>
        <time>2019-05-04T08:18:01.000Z</time>
      </trkpt>
      <trkpt lat="43.44409" lon="6.61494">
        <ele>49.599998474121</ele>
        <time>2019-05-04T08:18:04.000Z</time>
      </trkpt>
      <trkpt lat="43.44411" lon="6.61492">
        <ele>50.200000762939</ele>
        <time>2019-05-04T08:18:07.000Z</time>
      </trkpt>
      <trkpt lat="43.44411" lon="6.61492">
        <ele>50.599998474121</ele>
        <time>2019-05-04T08:18:09.000Z</time>
      </trkpt>
      <trkpt lat="43.44412" lon="6.61492">
        <ele>50.799999237061</ele>
        <time>2019-05-04T08:18:10.000Z</time>
      </trkpt>
      <trkpt lat="43.44413" lon="6.6149">
        <ele>51</ele>
        <time>2019-05-04T08:18:12.000Z</time>
      </trkpt>
      <trkpt lat="43.44421" lon="6.6148">
        <ele>51</ele>
        <time>2019-05-04T08:18:17.000Z</time>
      </trkpt>
      <trkpt lat="43.44428" lon="6.61467">
        <ele>51.799999237061</ele>
        <time>2019-05-04T08:18:23.000Z</time>
      </trkpt>
      <trkpt lat="43.44429" lon="6.61464">
        <ele>52.599998474121</ele>
        <time>2019-05-04T08:18:26.000Z</time>
      </trkpt>
      <trkpt lat="43.44431" lon="6.61463">
        <ele>52.799999237061</ele>
        <time>2019-05-04T08:18:27.000Z</time>
      </trkpt>
      <trkpt lat="43.44432" lon="6.61461">
        <ele>53</ele>
        <time>2019-05-04T08:18:28.000Z</time>
      </trkpt>
      <trkpt lat="43.44436" lon="6.61451">
        <ele>53.200000762939</ele>
        <time>2019-05-04T08:18:33.000Z</time>
      </trkpt>
      <trkpt lat="43.44439" lon="6.61445">
        <ele>53.599998474121</ele>
        <time>2019-05-04T08:18:36.000Z</time>
      </trkpt>
      <trkpt lat="43.44439" lon="6.61443">
        <ele>54</ele>
        <time>2019-05-04T08:18:38.000Z</time>
      </trkpt>
      <trkpt lat="43.44439" lon="6.61442">
        <ele>54.200000762939</ele>
        <time>2019-05-04T08:18:39.000Z</time>
      </trkpt>
      <trkpt lat="43.44438" lon="6.6144">
        <ele>54.799999237061</ele>
        <time>2019-05-04T08:18:44.000Z</time>
      </trkpt>
      <trkpt lat="43.44437" lon="6.61437">
        <ele>55.400001525879</ele>
        <time>2019-05-04T08:18:47.000Z</time>
      </trkpt>
      <trkpt lat="43.44434" lon="6.61429">
        <ele>56.599998474121</ele>
        <time>2019-05-04T08:18:54.000Z</time>
      </trkpt>
      <trkpt lat="43.44429" lon="6.61423">
        <ele>57.599998474121</ele>
        <time>2019-05-04T08:19:00.000Z</time>
      </trkpt>
      <trkpt lat="43.44425" lon="6.61421">
        <ele>58.599998474121</ele>
        <time>2019-05-04T08:19:05.000Z</time>
      </trkpt>
      <trkpt lat="43.44424" lon="6.6142">
        <ele>58.599998474121</ele>
        <time>2019-05-04T08:19:06.000Z</time>
      </trkpt>
      <trkpt lat="43.44415" lon="6.61413">
        <ele>58.599998474121</ele>
        <time>2019-05-04T08:19:12.000Z</time>
      </trkpt>
      <trkpt lat="43.44403" lon="6.61408">
        <ele>58.799999237061</ele>
        <time>2019-05-04T08:19:18.000Z</time>
      </trkpt>
      <trkpt lat="43.44385" lon="6.61403">
        <ele>59.599998474121</ele>
        <time>2019-05-04T08:19:26.000Z</time>
      </trkpt>
      <trkpt lat="43.44374" lon="6.61398">
        <ele>60.599998474121</ele>
        <time>2019-05-04T08:19:32.000Z</time>
      </trkpt>
      <trkpt lat="43.44369" lon="6.61396">
        <ele>60.799999237061</ele>
        <time>2019-05-04T08:19:35.000Z</time>
      </trkpt>
      <trkpt lat="43.44363" lon="6.6139">
        <ele>60.599998474121</ele>
        <time>2019-05-04T08:19:39.000Z</time>
      </trkpt>
      <trkpt lat="43.44359" lon="6.61382">
        <ele>62</ele>
        <time>2019-05-04T08:19:42.000Z</time>
      </trkpt>
      <trkpt lat="43.44354" lon="6.61376">
        <ele>62.200000762939</ele>
        <time>2019-05-04T08:19:45.000Z</time>
      </trkpt>
      <trkpt lat="43.44348" lon="6.61365">
        <ele>63.200000762939</ele>
        <time>2019-05-04T08:19:50.000Z</time>
      </trkpt>
      <trkpt lat="43.44347" lon="6.61362">
        <ele>63.200000762939</ele>
        <time>2019-05-04T08:19:51.000Z</time>
      </trkpt>
      <trkpt lat="43.44348" lon="6.6136">
        <ele>63.400001525879</ele>
        <time>2019-05-04T08:19:52.000Z</time>
      </trkpt>
      <trkpt lat="43.4435" lon="6.61351">
        <ele>64</ele>
        <time>2019-05-04T08:19:55.000Z</time>
      </trkpt>
      <trkpt lat="43.44352" lon="6.61347">
        <ele>64.400001525879</ele>
        <time>2019-05-04T08:19:57.000Z</time>
      </trkpt>
      <trkpt lat="43.44358" lon="6.61336">
        <ele>65.199996948242</ele>
        <time>2019-05-04T08:20:02.000Z</time>
      </trkpt>
      <trkpt lat="43.4436" lon="6.61335">
        <ele>65.400001525879</ele>
        <time>2019-05-04T08:20:03.000Z</time>
      </trkpt>
      <trkpt lat="43.44364" lon="6.61332">
        <ele>65.800003051758</ele>
        <time>2019-05-04T08:20:05.000Z</time>
      </trkpt>
      <trkpt lat="43.44367" lon="6.61334">
        <ele>66.199996948242</ele>
        <time>2019-05-04T08:20:07.000Z</time>
      </trkpt>
      <trkpt lat="43.4437" lon="6.61336">
        <ele>66.599998474121</ele>
        <time>2019-05-04T08:20:09.000Z</time>
      </trkpt>
      <trkpt lat="43.44371" lon="6.61337">
        <ele>67.199996948242</ele>
        <time>2019-05-04T08:20:10.000Z</time>
      </trkpt>
      <trkpt lat="43.44372" lon="6.61338">
        <ele>67.800003051758</ele>
        <time>2019-05-04T08:20:12.000Z</time>
      </trkpt>
      <trkpt lat="43.44372" lon="6.61338">
        <ele>68</ele>
        <time>2019-05-04T08:20:13.000Z</time>
      </trkpt>
      <trkpt lat="43.44374" lon="6.61339">
        <ele>68.400001525879</ele>
        <time>2019-05-04T08:20:15.000Z</time>
      </trkpt>
      <trkpt lat="43.44377" lon="6.61345">
        <ele>68.599998474121</ele>
        <time>2019-05-04T08:20:19.000Z</time>
      </trkpt>
      <trkpt lat="43.44379" lon="6.61348">
        <ele>69</ele>
        <time>2019-05-04T08:20:22.000Z</time>
      </trkpt>
      <trkpt lat="43.44382" lon="6.61351">
        <ele>69.800003051758</ele>
        <time>2019-05-04T08:20:26.000Z</time>
      </trkpt>
      <trkpt lat="43.44382" lon="6.61353">
        <ele>70</ele>
        <time>2019-05-04T08:20:27.000Z</time>
      </trkpt>
      <trkpt lat="43.44382" lon="6.61352">
        <ele>70</ele>
        <time>2019-05-04T08:20:28.000Z</time>
      </trkpt>
      <trkpt lat="43.44383" lon="6.61353">
        <ele>70.199996948242</ele>
        <time>2019-05-04T08:20:30.000Z</time>
      </trkpt>
      <trkpt lat="43.44384" lon="6.61354">
        <ele>70.199996948242</ele>
        <time>2019-05-04T08:20:31.000Z</time>
      </trkpt>
      <trkpt lat="43.4439" lon="6.61357">
        <ele>70.199996948242</ele>
        <time>2019-05-04T08:20:35.000Z</time>
      </trkpt>
      <trkpt lat="43.44392" lon="6.61356">
        <ele>70.199996948242</ele>
        <time>2019-05-04T08:20:36.000Z</time>
      </trkpt>
      <trkpt lat="43.44396" lon="6.6135">
        <ele>70.599998474121</ele>
        <time>2019-05-04T08:20:39.000Z</time>
      </trkpt>
      <trkpt lat="43.44399" lon="6.61344">
        <ele>70.599998474121</ele>
        <time>2019-05-04T08:20:41.000Z</time>
      </trkpt>
      <trkpt lat="43.44401" lon="6.61341">
        <ele>71</ele>
        <time>2019-05-04T08:20:45.000Z</time>
      </trkpt>
      <trkpt lat="43.44402" lon="6.61339">
        <ele>71.199996948242</ele>
        <time>2019-05-04T08:20:46.000Z</time>
      </trkpt>
      <trkpt lat="43.44403" lon="6.61333">
        <ele>71.800003051758</ele>
        <time>2019-05-04T08:20:51.000Z</time>
      </trkpt>
      <trkpt lat="43.44402" lon="6.61329">
        <ele>72.400001525879</ele>
        <time>2019-05-04T08:20:55.000Z</time>
      </trkpt>
      <trkpt lat="43.444" lon="6.61311">
        <ele>73.400001525879</ele>
        <time>2019-05-04T08:21:03.000Z</time>
      </trkpt>
      <trkpt lat="43.44401" lon="6.61307">
        <ele>73.800003051758</ele>
        <time>2019-05-04T08:21:05.000Z</time>
      </trkpt>
      <trkpt lat="43.44404" lon="6.61303">
        <ele>74</ele>
        <time>2019-05-04T08:21:07.000Z</time>
      </trkpt>
      <trkpt lat="43.44409" lon="6.61296">
        <ele>74.599998474121</ele>
        <time>2019-05-04T08:21:11.000Z</time>
      </trkpt>
      <trkpt lat="43.44412" lon="6.61292">
        <ele>75</ele>
        <time>2019-05-04T08:21:13.000Z</time>
      </trkpt>
      <trkpt lat="43.44415" lon="6.61288">
        <ele>75.800003051758</ele>
        <time>2019-05-04T08:21:16.000Z</time>
      </trkpt>
      <trkpt lat="43.44419" lon="6.61282">
        <ele>77</ele>
        <time>2019-05-04T08:21:20.000Z</time>
      </trkpt>
      <trkpt lat="43.4442" lon="6.61278">
        <ele>77.400001525879</ele>
        <time>2019-05-04T08:21:22.000Z</time>
      </trkpt>
      <trkpt lat="43.44417" lon="6.61272">
        <ele>78.199996948242</ele>
        <time>2019-05-04T08:21:25.000Z</time>
      </trkpt>
      <trkpt lat="43.44413" lon="6.61268">
        <ele>78.800003051758</ele>
        <time>2019-05-04T08:21:28.000Z</time>
      </trkpt>
      <trkpt lat="43.44408" lon="6.61267">
        <ele>79.199996948242</ele>
        <time>2019-05-04T08:21:30.000Z</time>
      </trkpt>
      <trkpt lat="43.44407" lon="6.61266">
        <ele>79.199996948242</ele>
        <time>2019-05-04T08:21:31.000Z</time>
      </trkpt>
      <trkpt lat="43.44405" lon="6.61265">
        <ele>79.400001525879</ele>
        <time>2019-05-04T08:21:32.000Z</time>
      </trkpt>
      <trkpt lat="43.44401" lon="6.61262">
        <ele>80.400001525879</ele>
        <time>2019-05-04T08:21:35.000Z</time>
      </trkpt>
      <trkpt lat="43.444" lon="6.6126">
        <ele>80.599998474121</ele>
        <time>2019-05-04T08:21:36.000Z</time>
      </trkpt>
      <trkpt lat="43.44394" lon="6.61254">
        <ele>81</ele>
        <time>2019-05-04T08:21:40.000Z</time>
      </trkpt>
      <trkpt lat="43.44392" lon="6.61251">
        <ele>81.599998474121</ele>
        <time>2019-05-04T08:21:42.000Z</time>
      </trkpt>
      <trkpt lat="43.4439" lon="6.61247">
        <ele>81.800003051758</ele>
        <time>2019-05-04T08:21:44.000Z</time>
      </trkpt>
      <trkpt lat="43.44382" lon="6.6124">
        <ele>82.400001525879</ele>
        <time>2019-05-04T08:21:49.000Z</time>
      </trkpt>
      <trkpt lat="43.44376" lon="6.61237">
        <ele>82.599998474121</ele>
        <time>2019-05-04T08:21:52.000Z</time>
      </trkpt>
      <trkpt lat="43.4437" lon="6.61235">
        <ele>83</ele>
        <time>2019-05-04T08:21:55.000Z</time>
      </trkpt>
      <trkpt lat="43.44355" lon="6.61235">
        <ele>83.400001525879</ele>
        <time>2019-05-04T08:22:01.000Z</time>
      </trkpt>
      <trkpt lat="43.44351" lon="6.61235">
        <ele>83.599998474121</ele>
        <time>2019-05-04T08:22:03.000Z</time>
      </trkpt>
      <trkpt lat="43.44344" lon="6.61235">
        <ele>84</ele>
        <time>2019-05-04T08:22:06.000Z</time>
      </trkpt>
      <trkpt lat="43.44337" lon="6.61232">
        <ele>85</ele>
        <time>2019-05-04T08:22:10.000Z</time>
      </trkpt>
      <trkpt lat="43.44329" lon="6.61226">
        <ele>86.199996948242</ele>
        <time>2019-05-04T08:22:14.000Z</time>
      </trkpt>
      <trkpt lat="43.44321" lon="6.61218">
        <ele>87.199996948242</ele>
        <time>2019-05-04T08:22:19.000Z</time>
      </trkpt>
      <trkpt lat="43.44318" lon="6.61214">
        <ele>87.800003051758</ele>
        <time>2019-05-04T08:22:21.000Z</time>
      </trkpt>
      <trkpt lat="43.44312" lon="6.61196">
        <ele>88</ele>
        <time>2019-05-04T08:22:27.000Z</time>
      </trkpt>
      <trkpt lat="43.44313" lon="6.61189">
        <ele>88</ele>
        <time>2019-05-04T08:22:29.000Z</time>
      </trkpt>
      <trkpt lat="43.44315" lon="6.61182">
        <ele>88.199996948242</ele>
        <time>2019-05-04T08:22:32.000Z</time>
      </trkpt>
      <trkpt lat="43.44315" lon="6.61178">
        <ele>88.400001525879</ele>
        <time>2019-05-04T08:22:33.000Z</time>
      </trkpt>
      <trkpt lat="43.44319" lon="6.61172">
        <ele>89</ele>
        <time>2019-05-04T08:22:36.000Z</time>
      </trkpt>
      <trkpt lat="43.4432" lon="6.61169">
        <ele>89.400001525879</ele>
        <time>2019-05-04T08:22:38.000Z</time>
      </trkpt>
      <trkpt lat="43.44322" lon="6.6116">
        <ele>90.199996948242</ele>
        <time>2019-05-04T08:22:41.000Z</time>
      </trkpt>
      <trkpt lat="43.44324" lon="6.61154">
        <ele>90.599998474121</ele>
        <time>2019-05-04T08:22:43.000Z</time>
      </trkpt>
      <trkpt lat="43.44328" lon="6.61139">
        <ele>90.400001525879</ele>
        <time>2019-05-04T08:22:48.000Z</time>
      </trkpt>
      <trkpt lat="43.44328" lon="6.61137">
        <ele>90.599998474121</ele>
        <time>2019-05-04T08:22:49.000Z</time>
      </trkpt>
      <trkpt lat="43.44327" lon="6.61126">
        <ele>91.599998474121</ele>
        <time>2019-05-04T08:22:53.000Z</time>
      </trkpt>
      <trkpt lat="43.44322" lon="6.61105">
        <ele>92.400001525879</ele>
        <time>2019-05-04T08:22:59.000Z</time>
      </trkpt>
      <trkpt lat="43.44309" lon="6.61086">
        <ele>92.599998474121</ele>
        <time>2019-05-04T08:23:06.000Z</time>
      </trkpt>
      <trkpt lat="43.44307" lon="6.61083">
        <ele>92.599998474121</ele>
        <time>2019-05-04T08:23:07.000Z</time>
      </trkpt>
      <trkpt lat="43.44299" lon="6.61071">
        <ele>93.800003051758</ele>
        <time>2019-05-04T08:23:12.000Z</time>
      </trkpt>
      <trkpt lat="43.44291" lon="6.61051">
        <ele>95</ele>
        <time>2019-05-04T08:23:18.000Z</time>
      </trkpt>
      <trkpt lat="43.44285" lon="6.61036">
        <ele>96</ele>
        <time>2019-05-04T08:23:23.000Z</time>
      </trkpt>
      <trkpt lat="43.44283" lon="6.61031">
        <ele>96.400001525879</ele>
        <time>2019-05-04T08:23:25.000Z</time>
      </trkpt>
      <trkpt lat="43.44281" lon="6.61026">
        <ele>97</ele>
        <time>2019-05-04T08:23:27.000Z</time>
      </trkpt>
      <trkpt lat="43.44277" lon="6.61017">
        <ele>97.800003051758</ele>
        <time>2019-05-04T08:23:31.000Z</time>
      </trkpt>
      <trkpt lat="43.44276" lon="6.61015">
        <ele>98.199996948242</ele>
        <time>2019-05-04T08:23:32.000Z</time>
      </trkpt>
      <trkpt lat="43.44271" lon="6.61004">
        <ele>98.800003051758</ele>
        <time>2019-05-04T08:23:37.000Z</time>
      </trkpt>
      <trkpt lat="43.44266" lon="6.60996">
        <ele>99.400001525879</ele>
        <time>2019-05-04T08:23:42.000Z</time>
      </trkpt>
      <trkpt lat="43.44265" lon="6.60995">
        <ele>99.400001525879</ele>
        <time>2019-05-04T08:23:43.000Z</time>
      </trkpt>
      <trkpt lat="43.44263" lon="6.60994">
        <ele>100.19999694824</ele>
        <time>2019-05-04T08:23:48.000Z</time>
      </trkpt>
      <trkpt lat="43.44263" lon="6.60993">
        <ele>100.19999694824</ele>
        <time>2019-05-04T08:24:02.000Z</time>
      </trkpt>
      <trkpt lat="43.44264" lon="6.60992">
        <ele>100.40000152588</ele>
        <time>2019-05-04T08:24:10.000Z</time>
      </trkpt>
      <trkpt lat="43.44264" lon="6.60992">
        <ele>100.40000152588</ele>
        <time>2019-05-04T08:24:18.000Z</time>
      </trkpt>
      <trkpt lat="43.44264" lon="6.60992">
        <ele>100.59999847412</ele>
        <time>2019-05-04T08:24:28.000Z</time>
      </trkpt>
      <trkpt lat="43.44263" lon="6.60992">
        <ele>100.19999694824</ele>
        <time>2019-05-04T08:24:36.000Z</time>
      </trkpt>
      <trkpt lat="43.44263" lon="6.60991">
        <ele>100.19999694824</ele>
        <time>2019-05-04T08:24:49.000Z</time>
      </trkpt>
      <trkpt lat="43.44262" lon="6.60991">
        <ele>100.40000152588</ele>
        <time>2019-05-04T08:25:05.000Z</time>
      </trkpt>
      <trkpt lat="43.44261" lon="6.60989">
        <ele>100.40000152588</ele>
        <time>2019-05-04T08:25:25.000Z</time>
      </trkpt>
      <trkpt lat="43.44261" lon="6.60989">
        <ele>100.59999847412</ele>
        <time>2019-05-04T08:25:46.000Z</time>
      </trkpt>
      <trkpt lat="43.4426" lon="6.60989">
        <ele>100.19999694824</ele>
        <time>2019-05-04T08:26:09.000Z</time>
      </trkpt>
      <trkpt lat="43.44259" lon="6.60988">
        <ele>100.40000152588</ele>
        <time>2019-05-04T08:26:34.000Z</time>
      </trkpt>
      <trkpt lat="43.44258" lon="6.60987">
        <ele>100.40000152588</ele>
        <time>2019-05-04T08:26:46.000Z</time>
      </trkpt>
      <trkpt lat="43.44258" lon="6.60986">
        <ele>100.40000152588</ele>
        <time>2019-05-04T08:27:09.000Z</time>
      </trkpt>
      <trkpt lat="43.44259" lon="6.60987">
        <ele>100.40000152588</ele>
        <time>2019-05-04T08:27:24.000Z</time>
      </trkpt>
      <trkpt lat="43.44259" lon="6.60982">
        <ele>100.40000152588</ele>
        <time>2019-05-04T08:27:28.000Z</time>
      </trkpt>
      <trkpt lat="43.44259" lon="6.6098">
        <ele>100.40000152588</ele>
        <time>2019-05-04T08:27:29.000Z</time>
      </trkpt>
      <trkpt lat="43.44258" lon="6.60964">
        <ele>101.19999694824</ele>
        <time>2019-05-04T08:27:36.000Z</time>
      </trkpt>
      <trkpt lat="43.44253" lon="6.60933">
        <ele>101.19999694824</ele>
        <time>2019-05-04T08:27:45.000Z</time>
      </trkpt>
      <trkpt lat="43.4425" lon="6.6092">
        <ele>101.40000152588</ele>
        <time>2019-05-04T08:27:48.000Z</time>
      </trkpt>
      <trkpt lat="43.44244" lon="6.60904">
        <ele>101.19999694824</ele>
        <time>2019-05-04T08:27:51.000Z</time>
      </trkpt>
      <trkpt lat="43.44239" lon="6.60893">
        <ele>100.80000305176</ele>
        <time>2019-05-04T08:27:53.000Z</time>
      </trkpt>
      <trkpt lat="43.44232" lon="6.60882">
        <ele>100.19999694824</ele>
        <time>2019-05-04T08:27:55.000Z</time>
      </trkpt>
      <trkpt lat="43.44229" lon="6.60875">
        <ele>99.800003051758</ele>
        <time>2019-05-04T08:27:56.000Z</time>
      </trkpt>
      <trkpt lat="43.44225" lon="6.60869">
        <ele>99.400001525879</ele>
        <time>2019-05-04T08:27:57.000Z</time>
      </trkpt>
      <trkpt lat="43.44221" lon="6.60865">
        <ele>99.199996948242</ele>
        <time>2019-05-04T08:27:58.000Z</time>
      </trkpt>
      <trkpt lat="43.44215" lon="6.60861">
        <ele>98.800003051758</ele>
        <time>2019-05-04T08:27:59.000Z</time>
      </trkpt>
      <trkpt lat="43.44206" lon="6.60856">
        <ele>98.199996948242</ele>
        <time>2019-05-04T08:28:01.000Z</time>
      </trkpt>
      <trkpt lat="43.44203" lon="6.60853">
        <ele>98.199996948242</ele>
        <time>2019-05-04T08:28:02.000Z</time>
      </trkpt>
      <trkpt lat="43.442" lon="6.60851">
        <ele>98.199996948242</ele>
        <time>2019-05-04T08:28:03.000Z</time>
      </trkpt>
      <trkpt lat="43.44187" lon="6.60839">
        <ele>99</ele>
        <time>2019-05-04T08:28:08.000Z</time>
      </trkpt>
      <trkpt lat="43.44183" lon="6.60835">
        <ele>99.400001525879</ele>
        <time>2019-05-04T08:28:09.000Z</time>
      </trkpt>
      <trkpt lat="43.44172" lon="6.60821">
        <ele>99.599998474121</ele>
        <time>2019-05-04T08:28:12.000Z</time>
      </trkpt>
      <trkpt lat="43.4417" lon="6.60816">
        <ele>99.400001525879</ele>
        <time>2019-05-04T08:28:13.000Z</time>
      </trkpt>
      <trkpt lat="43.44167" lon="6.60794">
        <ele>98.800003051758</ele>
        <time>2019-05-04T08:28:17.000Z</time>
      </trkpt>
      <trkpt lat="43.44168" lon="6.60776">
        <ele>98.599998474121</ele>
        <time>2019-05-04T08:28:22.000Z</time>
      </trkpt>
      <trkpt lat="43.4417" lon="6.60751">
        <ele>98.400001525879</ele>
        <time>2019-05-04T08:28:27.000Z</time>
      </trkpt>
      <trkpt lat="43.44171" lon="6.60746">
        <ele>98.400001525879</ele>
        <time>2019-05-04T08:28:28.000Z</time>
      </trkpt>
      <trkpt lat="43.44171" lon="6.60725">
        <ele>98.400001525879</ele>
        <time>2019-05-04T08:28:32.000Z</time>
      </trkpt>
      <trkpt lat="43.44173" lon="6.60697">
        <ele>98.400001525879</ele>
        <time>2019-05-04T08:28:38.000Z</time>
      </trkpt>
      <trkpt lat="43.44177" lon="6.60678">
        <ele>98.400001525879</ele>
        <time>2019-05-04T08:28:42.000Z</time>
      </trkpt>
      <trkpt lat="43.4418" lon="6.6066">
        <ele>98.599998474121</ele>
        <time>2019-05-04T08:28:46.000Z</time>
      </trkpt>
      <trkpt lat="43.44182" lon="6.60646">
        <ele>98.800003051758</ele>
        <time>2019-05-04T08:28:50.000Z</time>
      </trkpt>
      <trkpt lat="43.44183" lon="6.6064">
        <ele>99</ele>
        <time>2019-05-04T08:28:54.000Z</time>
      </trkpt>
      <trkpt lat="43.44183" lon="6.6064">
        <ele>99.599998474121</ele>
        <time>2019-05-04T08:28:56.000Z</time>
      </trkpt>
      <trkpt lat="43.44184" lon="6.60639">
        <ele>100</ele>
        <time>2019-05-04T08:28:59.000Z</time>
      </trkpt>
      <trkpt lat="43.44185" lon="6.60637">
        <ele>100.19999694824</ele>
        <time>2019-05-04T08:29:00.000Z</time>
      </trkpt>
      <trkpt lat="43.44184" lon="6.60636">
        <ele>99.599998474121</ele>
        <time>2019-05-04T08:29:03.000Z</time>
      </trkpt>
      <trkpt lat="43.44186" lon="6.60632">
        <ele>99.599998474121</ele>
        <time>2019-05-04T08:29:06.000Z</time>
      </trkpt>
      <trkpt lat="43.44187" lon="6.6063">
        <ele>99.599998474121</ele>
        <time>2019-05-04T08:29:08.000Z</time>
      </trkpt>
      <trkpt lat="43.4419" lon="6.60623">
        <ele>99.599998474121</ele>
        <time>2019-05-04T08:29:12.000Z</time>
      </trkpt>
      <trkpt lat="43.4419" lon="6.60621">
        <ele>99.800003051758</ele>
        <time>2019-05-04T08:29:13.000Z</time>
      </trkpt>
      <trkpt lat="43.44194" lon="6.60613">
        <ele>100.40000152588</ele>
        <time>2019-05-04T08:29:18.000Z</time>
      </trkpt>
      <trkpt lat="43.44194" lon="6.60611">
        <ele>100.40000152588</ele>
        <time>2019-05-04T08:29:19.000Z</time>
      </trkpt>
      <trkpt lat="43.44196" lon="6.60607">
        <ele>100.59999847412</ele>
        <time>2019-05-04T08:29:22.000Z</time>
      </trkpt>
      <trkpt lat="43.44196" lon="6.60605">
        <ele>100.59999847412</ele>
        <time>2019-05-04T08:29:23.000Z</time>
      </trkpt>
      <trkpt lat="43.44199" lon="6.60594">
        <ele>100.59999847412</ele>
        <time>2019-05-04T08:29:28.000Z</time>
      </trkpt>
      <trkpt lat="43.44201" lon="6.60584">
        <ele>101</ele>
        <time>2019-05-04T08:29:33.000Z</time>
      </trkpt>
      <trkpt lat="43.44203" lon="6.60575">
        <ele>101.19999694824</ele>
        <time>2019-05-04T08:29:39.000Z</time>
      </trkpt>
      <trkpt lat="43.44205" lon="6.60564">
        <ele>101.40000152588</ele>
        <time>2019-05-04T08:29:44.000Z</time>
      </trkpt>
      <trkpt lat="43.44205" lon="6.60563">
        <ele>101.59999847412</ele>
        <time>2019-05-04T08:29:46.000Z</time>
      </trkpt>
      <trkpt lat="43.44205" lon="6.60561">
        <ele>101.59999847412</ele>
        <time>2019-05-04T08:29:47.000Z</time>
      </trkpt>
      <trkpt lat="43.44205" lon="6.60558">
        <ele>102</ele>
        <time>2019-05-04T08:29:49.000Z</time>
      </trkpt>
      <trkpt lat="43.44206" lon="6.6055">
        <ele>102.59999847412</ele>
        <time>2019-05-04T08:29:53.000Z</time>
      </trkpt>
      <trkpt lat="43.44205" lon="6.60545">
        <ele>102.80000305176</ele>
        <time>2019-05-04T08:29:56.000Z</time>
      </trkpt>
      <trkpt lat="43.44205" lon="6.60541">
        <ele>104</ele>
        <time>2019-05-04T08:30:01.000Z</time>
      </trkpt>
      <trkpt lat="43.44206" lon="6.60538">
        <ele>103.40000152588</ele>
        <time>2019-05-04T08:30:07.000Z</time>
      </trkpt>
      <trkpt lat="43.44208" lon="6.60528">
        <ele>103.59999847412</ele>
        <time>2019-05-04T08:30:12.000Z</time>
      </trkpt>
      <trkpt lat="43.44209" lon="6.60524">
        <ele>103.59999847412</ele>
        <time>2019-05-04T08:30:14.000Z</time>
      </trkpt>
      <trkpt lat="43.44209" lon="6.60518">
        <ele>103.80000305176</ele>
        <time>2019-05-04T08:30:17.000Z</time>
      </trkpt>
      <trkpt lat="43.44209" lon="6.60506">
        <ele>104.40000152588</ele>
        <time>2019-05-04T08:30:22.000Z</time>
      </trkpt>
      <trkpt lat="43.4421" lon="6.605">
        <ele>104.80000305176</ele>
        <time>2019-05-04T08:30:24.000Z</time>
      </trkpt>
      <trkpt lat="43.4421" lon="6.60498">
        <ele>105</ele>
        <time>2019-05-04T08:30:25.000Z</time>
      </trkpt>
      <trkpt lat="43.44209" lon="6.60483">
        <ele>105.80000305176</ele>
        <time>2019-05-04T08:30:30.000Z</time>
      </trkpt>
      <trkpt lat="43.44209" lon="6.60481">
        <ele>106</ele>
        <time>2019-05-04T08:30:31.000Z</time>
      </trkpt>
      <trkpt lat="43.44209" lon="6.6047">
        <ele>107.59999847412</ele>
        <time>2019-05-04T08:30:35.000Z</time>
      </trkpt>
      <trkpt lat="43.44208" lon="6.60467">
        <ele>107.80000305176</ele>
        <time>2019-05-04T08:30:36.000Z</time>
      </trkpt>
      <trkpt lat="43.44206" lon="6.60447">
        <ele>108</ele>
        <time>2019-05-04T08:30:43.000Z</time>
      </trkpt>
      <trkpt lat="43.44205" lon="6.6044">
        <ele>108.40000152588</ele>
        <time>2019-05-04T08:30:46.000Z</time>
      </trkpt>
      <trkpt lat="43.44205" lon="6.60437">
        <ele>108.80000305176</ele>
        <time>2019-05-04T08:30:47.000Z</time>
      </trkpt>
      <trkpt lat="43.44205" lon="6.60434">
        <ele>109.40000152588</ele>
        <time>2019-05-04T08:30:49.000Z</time>
      </trkpt>
      <trkpt lat="43.44205" lon="6.60429">
        <ele>109.80000305176</ele>
        <time>2019-05-04T08:30:53.000Z</time>
      </trkpt>
      <trkpt lat="43.44204" lon="6.60426">
        <ele>110</ele>
        <time>2019-05-04T08:30:55.000Z</time>
      </trkpt>
      <trkpt lat="43.44204" lon="6.60422">
        <ele>110.19999694824</ele>
        <time>2019-05-04T08:30:58.000Z</time>
      </trkpt>
      <trkpt lat="43.44204" lon="6.60418">
        <ele>111</ele>
        <time>2019-05-04T08:31:01.000Z</time>
      </trkpt>
      <trkpt lat="43.44204" lon="6.60415">
        <ele>111.19999694824</ele>
        <time>2019-05-04T08:31:03.000Z</time>
      </trkpt>
      <trkpt lat="43.44209" lon="6.60402">
        <ele>112.19999694824</ele>
        <time>2019-05-04T08:31:10.000Z</time>
      </trkpt>
      <trkpt lat="43.44208" lon="6.60404">
        <ele>112.40000152588</ele>
        <time>2019-05-04T08:31:11.000Z</time>
      </trkpt>
      <trkpt lat="43.4421" lon="6.60399">
        <ele>113</ele>
        <time>2019-05-04T08:31:14.000Z</time>
      </trkpt>
      <trkpt lat="43.44213" lon="6.60396">
        <ele>113</ele>
        <time>2019-05-04T08:31:16.000Z</time>
      </trkpt>
      <trkpt lat="43.44221" lon="6.60387">
        <ele>113.19999694824</ele>
        <time>2019-05-04T08:31:21.000Z</time>
      </trkpt>
      <trkpt lat="43.44222" lon="6.60385">
        <ele>113.19999694824</ele>
        <time>2019-05-04T08:31:22.000Z</time>
      </trkpt>
      <trkpt lat="43.44227" lon="6.60374">
        <ele>113.40000152588</ele>
        <time>2019-05-04T08:31:26.000Z</time>
      </trkpt>
      <trkpt lat="43.44231" lon="6.60364">
        <ele>113.59999847412</ele>
        <time>2019-05-04T08:31:30.000Z</time>
      </trkpt>
      <trkpt lat="43.44234" lon="6.60352">
        <ele>114.19999694824</ele>
        <time>2019-05-04T08:31:34.000Z</time>
      </trkpt>
      <trkpt lat="43.44235" lon="6.60345">
        <ele>115</ele>
        <time>2019-05-04T08:31:37.000Z</time>
      </trkpt>
      <trkpt lat="43.44236" lon="6.60341">
        <ele>115.40000152588</ele>
        <time>2019-05-04T08:31:38.000Z</time>
      </trkpt>
      <trkpt lat="43.44236" lon="6.60338">
        <ele>115.40000152588</ele>
        <time>2019-05-04T08:31:39.000Z</time>
      </trkpt>
      <trkpt lat="43.44233" lon="6.60322">
        <ele>115.59999847412</ele>
        <time>2019-05-04T08:31:45.000Z</time>
      </trkpt>
      <trkpt lat="43.44234" lon="6.60319">
        <ele>115.80000305176</ele>
        <time>2019-05-04T08:31:46.000Z</time>
      </trkpt>
      <trkpt lat="43.44234" lon="6.60316">
        <ele>115.80000305176</ele>
        <time>2019-05-04T08:31:48.000Z</time>
      </trkpt>
      <trkpt lat="43.44236" lon="6.60309">
        <ele>116.59999847412</ele>
        <time>2019-05-04T08:31:53.000Z</time>
      </trkpt>
      <trkpt lat="43.44236" lon="6.60306">
        <ele>116.59999847412</ele>
        <time>2019-05-04T08:31:54.000Z</time>
      </trkpt>
      <trkpt lat="43.44236" lon="6.60294">
        <ele>117.19999694824</ele>
        <time>2019-05-04T08:31:58.000Z</time>
      </trkpt>
      <trkpt lat="43.44236" lon="6.6029">
        <ele>117.40000152588</ele>
        <time>2019-05-04T08:31:59.000Z</time>
      </trkpt>
      <trkpt lat="43.44241" lon="6.60284">
        <ele>117.59999847412</ele>
        <time>2019-05-04T08:32:02.000Z</time>
      </trkpt>
      <trkpt lat="43.44242" lon="6.60283">
        <ele>117.80000305176</ele>
        <time>2019-05-04T08:32:03.000Z</time>
      </trkpt>
      <trkpt lat="43.44245" lon="6.60272">
        <ele>118.80000305176</ele>
        <time>2019-05-04T08:32:08.000Z</time>
      </trkpt>
      <trkpt lat="43.44246" lon="6.6027">
        <ele>119.59999847412</ele>
        <time>2019-05-04T08:32:10.000Z</time>
      </trkpt>
      <trkpt lat="43.44247" lon="6.60266">
        <ele>119.80000305176</ele>
        <time>2019-05-04T08:32:11.000Z</time>
      </trkpt>
      <trkpt lat="43.44248" lon="6.60258">
        <ele>120.80000305176</ele>
        <time>2019-05-04T08:32:15.000Z</time>
      </trkpt>
      <trkpt lat="43.44252" lon="6.60251">
        <ele>121.19999694824</ele>
        <time>2019-05-04T08:32:17.000Z</time>
      </trkpt>
      <trkpt lat="43.44256" lon="6.6024">
        <ele>122</ele>
        <time>2019-05-04T08:32:22.000Z</time>
      </trkpt>
      <trkpt lat="43.44257" lon="6.60235">
        <ele>122.59999847412</ele>
        <time>2019-05-04T08:32:24.000Z</time>
      </trkpt>
      <trkpt lat="43.44259" lon="6.60227">
        <ele>123.19999694824</ele>
        <time>2019-05-04T08:32:27.000Z</time>
      </trkpt>
      <trkpt lat="43.44259" lon="6.60223">
        <ele>123.80000305176</ele>
        <time>2019-05-04T08:32:29.000Z</time>
      </trkpt>
      <trkpt lat="43.4426" lon="6.60219">
        <ele>124.40000152588</ele>
        <time>2019-05-04T08:32:31.000Z</time>
      </trkpt>
      <trkpt lat="43.4426" lon="6.60217">
        <ele>124.59999847412</ele>
        <time>2019-05-04T08:32:32.000Z</time>
      </trkpt>
      <trkpt lat="43.44262" lon="6.60205">
        <ele>125.19999694824</ele>
        <time>2019-05-04T08:32:37.000Z</time>
      </trkpt>
      <trkpt lat="43.44262" lon="6.60203">
        <ele>125.40000152588</ele>
        <time>2019-05-04T08:32:38.000Z</time>
      </trkpt>
      <trkpt lat="43.44266" lon="6.60191">
        <ele>126.19999694824</ele>
        <time>2019-05-04T08:32:45.000Z</time>
      </trkpt>
      <trkpt lat="43.44266" lon="6.60189">
        <ele>126.59999847412</ele>
        <time>2019-05-04T08:32:46.000Z</time>
      </trkpt>
      <trkpt lat="43.44268" lon="6.60183">
        <ele>127.40000152588</ele>
        <time>2019-05-04T08:32:49.000Z</time>
      </trkpt>
      <trkpt lat="43.44269" lon="6.60182">
        <ele>127.59999847412</ele>
        <time>2019-05-04T08:32:50.000Z</time>
      </trkpt>
      <trkpt lat="43.4428" lon="6.60169">
        <ele>128.60000610352</ele>
        <time>2019-05-04T08:32:58.000Z</time>
      </trkpt>
      <trkpt lat="43.44285" lon="6.60164">
        <ele>128.60000610352</ele>
        <time>2019-05-04T08:33:01.000Z</time>
      </trkpt>
      <trkpt lat="43.44291" lon="6.60158">
        <ele>129.19999694824</ele>
        <time>2019-05-04T08:33:06.000Z</time>
      </trkpt>
      <trkpt lat="43.44296" lon="6.60156">
        <ele>129.80000305176</ele>
        <time>2019-05-04T08:33:09.000Z</time>
      </trkpt>
      <trkpt lat="43.44297" lon="6.60155">
        <ele>130</ele>
        <time>2019-05-04T08:33:11.000Z</time>
      </trkpt>
      <trkpt lat="43.44297" lon="6.60155">
        <ele>130.80000305176</ele>
        <time>2019-05-04T08:33:14.000Z</time>
      </trkpt>
      <trkpt lat="43.44298" lon="6.60155">
        <ele>131</ele>
        <time>2019-05-04T08:33:16.000Z</time>
      </trkpt>
      <trkpt lat="43.44298" lon="6.60154">
        <ele>131</ele>
        <time>2019-05-04T08:33:20.000Z</time>
      </trkpt>
      <trkpt lat="43.44302" lon="6.60152">
        <ele>131.80000305176</ele>
        <time>2019-05-04T08:33:26.000Z</time>
      </trkpt>
      <trkpt lat="43.44307" lon="6.6015">
        <ele>132.80000305176</ele>
        <time>2019-05-04T08:33:33.000Z</time>
      </trkpt>
      <trkpt lat="43.44306" lon="6.6015">
        <ele>132.80000305176</ele>
        <time>2019-05-04T08:33:34.000Z</time>
      </trkpt>
      <trkpt lat="43.44309" lon="6.6015">
        <ele>133.19999694824</ele>
        <time>2019-05-04T08:33:40.000Z</time>
      </trkpt>
      <trkpt lat="43.44312" lon="6.60149">
        <ele>133.60000610352</ele>
        <time>2019-05-04T08:33:44.000Z</time>
      </trkpt>
      <trkpt lat="43.44313" lon="6.60148">
        <ele>134</ele>
        <time>2019-05-04T08:33:46.000Z</time>
      </trkpt>
      <trkpt lat="43.44314" lon="6.60148">
        <ele>134.60000610352</ele>
        <time>2019-05-04T08:33:48.000Z</time>
      </trkpt>
      <trkpt lat="43.44316" lon="6.60148">
        <ele>135.19999694824</ele>
        <time>2019-05-04T08:33:50.000Z</time>
      </trkpt>
      <trkpt lat="43.44317" lon="6.60148">
        <ele>135.39999389648</ele>
        <time>2019-05-04T08:33:51.000Z</time>
      </trkpt>
      <trkpt lat="43.44318" lon="6.60147">
        <ele>136.19999694824</ele>
        <time>2019-05-04T08:33:55.000Z</time>
      </trkpt>
      <trkpt lat="43.4432" lon="6.60147">
        <ele>136.80000305176</ele>
        <time>2019-05-04T08:33:58.000Z</time>
      </trkpt>
      <trkpt lat="43.4432" lon="6.60144">
        <ele>136.80000305176</ele>
        <time>2019-05-04T08:34:00.000Z</time>
      </trkpt>
      <trkpt lat="43.44325" lon="6.6014">
        <ele>136.80000305176</ele>
        <time>2019-05-04T08:34:03.000Z</time>
      </trkpt>
      <trkpt lat="43.44332" lon="6.60133">
        <ele>137</ele>
        <time>2019-05-04T08:34:08.000Z</time>
      </trkpt>
      <trkpt lat="43.44335" lon="6.60131">
        <ele>136.80000305176</ele>
        <time>2019-05-04T08:34:09.000Z</time>
      </trkpt>
      <trkpt lat="43.44345" lon="6.60123">
        <ele>135.80000305176</ele>
        <time>2019-05-04T08:34:12.000Z</time>
      </trkpt>
      <trkpt lat="43.44353" lon="6.60115">
        <ele>135</ele>
        <time>2019-05-04T08:34:15.000Z</time>
      </trkpt>
      <trkpt lat="43.44354" lon="6.60113">
        <ele>135</ele>
        <time>2019-05-04T08:34:16.000Z</time>
      </trkpt>
      <trkpt lat="43.44359" lon="6.60104">
        <ele>135.80000305176</ele>
        <time>2019-05-04T08:34:21.000Z</time>
      </trkpt>
      <trkpt lat="43.4436" lon="6.60101">
        <ele>136</ele>
        <time>2019-05-04T08:34:23.000Z</time>
      </trkpt>
      <trkpt lat="43.44362" lon="6.60097">
        <ele>136.60000610352</ele>
        <time>2019-05-04T08:34:26.000Z</time>
      </trkpt>
      <trkpt lat="43.44362" lon="6.60095">
        <ele>137</ele>
        <time>2019-05-04T08:34:29.000Z</time>
      </trkpt>
      <trkpt lat="43.44362" lon="6.60095">
        <ele>137.19999694824</ele>
        <time>2019-05-04T08:34:30.000Z</time>
      </trkpt>
      <trkpt lat="43.44364" lon="6.60093">
        <ele>136.80000305176</ele>
        <time>2019-05-04T08:34:35.000Z</time>
      </trkpt>
      <trkpt lat="43.44366" lon="6.60087">
        <ele>137.39999389648</ele>
        <time>2019-05-04T08:34:41.000Z</time>
      </trkpt>
      <trkpt lat="43.44366" lon="6.60084">
        <ele>138.19999694824</ele>
        <time>2019-05-04T08:34:46.000Z</time>
      </trkpt>
      <trkpt lat="43.44368" lon="6.60075">
        <ele>138.60000610352</ele>
        <time>2019-05-04T08:34:52.000Z</time>
      </trkpt>
      <trkpt lat="43.44367" lon="6.60064">
        <ele>138.80000305176</ele>
        <time>2019-05-04T08:34:57.000Z</time>
      </trkpt>
      <trkpt lat="43.4437" lon="6.6005">
        <ele>139</ele>
        <time>2019-05-04T08:35:02.000Z</time>
      </trkpt>
      <trkpt lat="43.44371" lon="6.60048">
        <ele>139.60000610352</ele>
        <time>2019-05-04T08:35:03.000Z</time>
      </trkpt>
      <trkpt lat="43.44369" lon="6.60041">
        <ele>140.39999389648</ele>
        <time>2019-05-04T08:35:06.000Z</time>
      </trkpt>
      <trkpt lat="43.44369" lon="6.60038">
        <ele>140.60000610352</ele>
        <time>2019-05-04T08:35:07.000Z</time>
      </trkpt>
      <trkpt lat="43.44369" lon="6.60032">
        <ele>140.39999389648</ele>
        <time>2019-05-04T08:35:09.000Z</time>
      </trkpt>
      <trkpt lat="43.44371" lon="6.60028">
        <ele>141</ele>
        <time>2019-05-04T08:35:11.000Z</time>
      </trkpt>
      <trkpt lat="43.44372" lon="6.60024">
        <ele>141.60000610352</ele>
        <time>2019-05-04T08:35:13.000Z</time>
      </trkpt>
      <trkpt lat="43.44372" lon="6.60023">
        <ele>142</ele>
        <time>2019-05-04T08:35:14.000Z</time>
      </trkpt>
      <trkpt lat="43.44373" lon="6.60017">
        <ele>142.60000610352</ele>
        <time>2019-05-04T08:35:16.000Z</time>
      </trkpt>
      <trkpt lat="43.44376" lon="6.60012">
        <ele>143.39999389648</ele>
        <time>2019-05-04T08:35:19.000Z</time>
      </trkpt>
      <trkpt lat="43.44376" lon="6.60011">
        <ele>143.60000610352</ele>
        <time>2019-05-04T08:35:20.000Z</time>
      </trkpt>
      <trkpt lat="43.44377" lon="6.60009">
        <ele>143.80000305176</ele>
        <time>2019-05-04T08:35:21.000Z</time>
      </trkpt>
      <trkpt lat="43.44379" lon="6.60005">
        <ele>144.80000305176</ele>
        <time>2019-05-04T08:35:25.000Z</time>
      </trkpt>
      <trkpt lat="43.44378" lon="6.60005">
        <ele>145</ele>
        <time>2019-05-04T08:35:26.000Z</time>
      </trkpt>
      <trkpt lat="43.44381" lon="6.60002">
        <ele>145.39999389648</ele>
        <time>2019-05-04T08:35:31.000Z</time>
      </trkpt>
      <trkpt lat="43.44382" lon="6.6">
        <ele>145.80000305176</ele>
        <time>2019-05-04T08:35:35.000Z</time>
      </trkpt>
      <trkpt lat="43.44384" lon="6.59997">
        <ele>146.80000305176</ele>
        <time>2019-05-04T08:35:40.000Z</time>
      </trkpt>
      <trkpt lat="43.44385" lon="6.59991">
        <ele>148</ele>
        <time>2019-05-04T08:35:45.000Z</time>
      </trkpt>
      <trkpt lat="43.44386" lon="6.59989">
        <ele>148.39999389648</ele>
        <time>2019-05-04T08:35:47.000Z</time>
      </trkpt>
      <trkpt lat="43.44386" lon="6.59987">
        <ele>149.39999389648</ele>
        <time>2019-05-04T08:35:52.000Z</time>
      </trkpt>
      <trkpt lat="43.44385" lon="6.59986">
        <ele>149.80000305176</ele>
        <time>2019-05-04T08:35:54.000Z</time>
      </trkpt>
      <trkpt lat="43.44385" lon="6.59983">
        <ele>149.80000305176</ele>
        <time>2019-05-04T08:35:55.000Z</time>
      </trkpt>
      <trkpt lat="43.44385" lon="6.59976">
        <ele>149.60000610352</ele>
        <time>2019-05-04T08:35:58.000Z</time>
      </trkpt>
      <trkpt lat="43.44391" lon="6.59969">
        <ele>149.80000305176</ele>
        <time>2019-05-04T08:36:03.000Z</time>
      </trkpt>
      <trkpt lat="43.44394" lon="6.59968">
        <ele>150.39999389648</ele>
        <time>2019-05-04T08:36:07.000Z</time>
      </trkpt>
      <trkpt lat="43.44398" lon="6.59969">
        <ele>151.60000610352</ele>
        <time>2019-05-04T08:36:13.000Z</time>
      </trkpt>
      <trkpt lat="43.444" lon="6.59968">
        <ele>152</ele>
        <time>2019-05-04T08:36:15.000Z</time>
      </trkpt>
      <trkpt lat="43.444" lon="6.59968">
        <ele>152.39999389648</ele>
        <time>2019-05-04T08:36:19.000Z</time>
      </trkpt>
      <trkpt lat="43.444" lon="6.59967">
        <ele>152.60000610352</ele>
        <time>2019-05-04T08:36:23.000Z</time>
      </trkpt>
      <trkpt lat="43.44401" lon="6.59965">
        <ele>152.60000610352</ele>
        <time>2019-05-04T08:36:28.000Z</time>
      </trkpt>
      <trkpt lat="43.44406" lon="6.59956">
        <ele>153</ele>
        <time>2019-05-04T08:36:33.000Z</time>
      </trkpt>
      <trkpt lat="43.44412" lon="6.59944">
        <ele>153.19999694824</ele>
        <time>2019-05-04T08:36:38.000Z</time>
      </trkpt>
      <trkpt lat="43.44424" lon="6.59929">
        <ele>153.60000610352</ele>
        <time>2019-05-04T08:36:45.000Z</time>
      </trkpt>
      <trkpt lat="43.44425" lon="6.59926">
        <ele>153.60000610352</ele>
        <time>2019-05-04T08:36:46.000Z</time>
      </trkpt>
      <trkpt lat="43.44425" lon="6.59923">
        <ele>153.80000305176</ele>
        <time>2019-05-04T08:36:47.000Z</time>
      </trkpt>
      <trkpt lat="43.44428" lon="6.59915">
        <ele>154.39999389648</ele>
        <time>2019-05-04T08:36:50.000Z</time>
      </trkpt>
      <trkpt lat="43.4443" lon="6.5991">
        <ele>154.80000305176</ele>
        <time>2019-05-04T08:36:52.000Z</time>
      </trkpt>
      <trkpt lat="43.44435" lon="6.59898">
        <ele>155</ele>
        <time>2019-05-04T08:36:56.000Z</time>
      </trkpt>
      <trkpt lat="43.44447" lon="6.59886">
        <ele>155</ele>
        <time>2019-05-04T08:37:02.000Z</time>
      </trkpt>
      <trkpt lat="43.44451" lon="6.5987">
        <ele>155.19999694824</ele>
        <time>2019-05-04T08:37:07.000Z</time>
      </trkpt>
      <trkpt lat="43.44453" lon="6.59863">
        <ele>155.80000305176</ele>
        <time>2019-05-04T08:37:10.000Z</time>
      </trkpt>
      <trkpt lat="43.44462" lon="6.59848">
        <ele>156.80000305176</ele>
        <time>2019-05-04T08:37:15.000Z</time>
      </trkpt>
      <trkpt lat="43.44464" lon="6.59847">
        <ele>157</ele>
        <time>2019-05-04T08:37:16.000Z</time>
      </trkpt>
      <trkpt lat="43.44465" lon="6.59847">
        <ele>157.19999694824</ele>
        <time>2019-05-04T08:37:19.000Z</time>
      </trkpt>
      <trkpt lat="43.44469" lon="6.59844">
        <ele>158.39999389648</ele>
        <time>2019-05-04T08:37:23.000Z</time>
      </trkpt>
      <trkpt lat="43.44471" lon="6.59843">
        <ele>159</ele>
        <time>2019-05-04T08:37:25.000Z</time>
      </trkpt>
      <trkpt lat="43.44472" lon="6.59843">
        <ele>159.39999389648</ele>
        <time>2019-05-04T08:37:27.000Z</time>
      </trkpt>
      <trkpt lat="43.44476" lon="6.59841">
        <ele>160.39999389648</ele>
        <time>2019-05-04T08:37:31.000Z</time>
      </trkpt>
      <trkpt lat="43.44477" lon="6.5984">
        <ele>160.60000610352</ele>
        <time>2019-05-04T08:37:32.000Z</time>
      </trkpt>
      <trkpt lat="43.44478" lon="6.5984">
        <ele>161</ele>
        <time>2019-05-04T08:37:37.000Z</time>
      </trkpt>
      <trkpt lat="43.4448" lon="6.5984">
        <ele>161</ele>
        <time>2019-05-04T08:37:39.000Z</time>
      </trkpt>
      <trkpt lat="43.44484" lon="6.59839">
        <ele>161.19999694824</ele>
        <time>2019-05-04T08:37:41.000Z</time>
      </trkpt>
      <trkpt lat="43.44488" lon="6.59838">
        <ele>161.60000610352</ele>
        <time>2019-05-04T08:37:44.000Z</time>
      </trkpt>
      <trkpt lat="43.44491" lon="6.59838">
        <ele>162</ele>
        <time>2019-05-04T08:37:46.000Z</time>
      </trkpt>
      <trkpt lat="43.44495" lon="6.59836">
        <ele>163</ele>
        <time>2019-05-04T08:37:49.000Z</time>
      </trkpt>
      <trkpt lat="43.445" lon="6.59836">
        <ele>163.39999389648</ele>
        <time>2019-05-04T08:37:52.000Z</time>
      </trkpt>
      <trkpt lat="43.44502" lon="6.59836">
        <ele>164</ele>
        <time>2019-05-04T08:37:56.000Z</time>
      </trkpt>
      <trkpt lat="43.44503" lon="6.59836">
        <ele>164.39999389648</ele>
        <time>2019-05-04T08:37:58.000Z</time>
      </trkpt>
      <trkpt lat="43.44508" lon="6.59834">
        <ele>165.19999694824</ele>
        <time>2019-05-04T08:38:04.000Z</time>
      </trkpt>
      <trkpt lat="43.44512" lon="6.59829">
        <ele>165.60000610352</ele>
        <time>2019-05-04T08:38:11.000Z</time>
      </trkpt>
      <trkpt lat="43.44523" lon="6.59822">
        <ele>166</ele>
        <time>2019-05-04T08:38:17.000Z</time>
      </trkpt>
      <trkpt lat="43.44527" lon="6.5982">
        <ele>166.19999694824</ele>
        <time>2019-05-04T08:38:19.000Z</time>
      </trkpt>
      <trkpt lat="43.44533" lon="6.59815">
        <ele>166.19999694824</ele>
        <time>2019-05-04T08:38:24.000Z</time>
      </trkpt>
      <trkpt lat="43.44538" lon="6.59812">
        <ele>167.19999694824</ele>
        <time>2019-05-04T08:38:29.000Z</time>
      </trkpt>
      <trkpt lat="43.44539" lon="6.59811">
        <ele>167.19999694824</ele>
        <time>2019-05-04T08:38:30.000Z</time>
      </trkpt>
      <trkpt lat="43.44548" lon="6.59812">
        <ele>167.80000305176</ele>
        <time>2019-05-04T08:38:35.000Z</time>
      </trkpt>
      <trkpt lat="43.44549" lon="6.59812">
        <ele>168.19999694824</ele>
        <time>2019-05-04T08:38:36.000Z</time>
      </trkpt>
      <trkpt lat="43.4455" lon="6.59813">
        <ele>168.39999389648</ele>
        <time>2019-05-04T08:38:37.000Z</time>
      </trkpt>
      <trkpt lat="43.44551" lon="6.59814">
        <ele>169.19999694824</ele>
        <time>2019-05-04T08:38:40.000Z</time>
      </trkpt>
      <trkpt lat="43.44551" lon="6.59814">
        <ele>169.39999389648</ele>
        <time>2019-05-04T08:38:41.000Z</time>
      </trkpt>
      <trkpt lat="43.44557" lon="6.59811">
        <ele>170</ele>
        <time>2019-05-04T08:38:46.000Z</time>
      </trkpt>
      <trkpt lat="43.44561" lon="6.59812">
        <ele>170.60000610352</ele>
        <time>2019-05-04T08:38:50.000Z</time>
      </trkpt>
      <trkpt lat="43.44564" lon="6.59813">
        <ele>171.39999389648</ele>
        <time>2019-05-04T08:38:53.000Z</time>
      </trkpt>
      <trkpt lat="43.44564" lon="6.59814">
        <ele>171.60000610352</ele>
        <time>2019-05-04T08:38:54.000Z</time>
      </trkpt>
      <trkpt lat="43.44567" lon="6.59818">
        <ele>172.80000305176</ele>
        <time>2019-05-04T08:38:58.000Z</time>
      </trkpt>
      <trkpt lat="43.44569" lon="6.59819">
        <ele>173.39999389648</ele>
        <time>2019-05-04T08:39:01.000Z</time>
      </trkpt>
      <trkpt lat="43.4457" lon="6.59821">
        <ele>173.80000305176</ele>
        <time>2019-05-04T08:39:05.000Z</time>
      </trkpt>
      <trkpt lat="43.44572" lon="6.59821">
        <ele>173.60000610352</ele>
        <time>2019-05-04T08:39:07.000Z</time>
      </trkpt>
      <trkpt lat="43.44574" lon="6.59821">
        <ele>173.80000305176</ele>
        <time>2019-05-04T08:39:09.000Z</time>
      </trkpt>
      <trkpt lat="43.44579" lon="6.59822">
        <ele>175</ele>
        <time>2019-05-04T08:39:13.000Z</time>
      </trkpt>
      <trkpt lat="43.4458" lon="6.59823">
        <ele>175.19999694824</ele>
        <time>2019-05-04T08:39:15.000Z</time>
      </trkpt>
      <trkpt lat="43.44584" lon="6.59826">
        <ele>176</ele>
        <time>2019-05-04T08:39:21.000Z</time>
      </trkpt>
      <trkpt lat="43.44586" lon="6.59826">
        <ele>176.19999694824</ele>
        <time>2019-05-04T08:39:22.000Z</time>
      </trkpt>
      <trkpt lat="43.44588" lon="6.59827">
        <ele>176.19999694824</ele>
        <time>2019-05-04T08:39:25.000Z</time>
      </trkpt>
      <trkpt lat="43.44591" lon="6.59829">
        <ele>176.80000305176</ele>
        <time>2019-05-04T08:39:28.000Z</time>
      </trkpt>
      <trkpt lat="43.44592" lon="6.59829">
        <ele>177.19999694824</ele>
        <time>2019-05-04T08:39:29.000Z</time>
      </trkpt>
      <trkpt lat="43.44597" lon="6.59831">
        <ele>177.80000305176</ele>
        <time>2019-05-04T08:39:35.000Z</time>
      </trkpt>
      <trkpt lat="43.446" lon="6.59831">
        <ele>178.39999389648</ele>
        <time>2019-05-04T08:39:38.000Z</time>
      </trkpt>
      <trkpt lat="43.44601" lon="6.59831">
        <ele>178.80000305176</ele>
        <time>2019-05-04T08:39:43.000Z</time>
      </trkpt>
      <trkpt lat="43.44607" lon="6.59828">
        <ele>179</ele>
        <time>2019-05-04T08:39:51.000Z</time>
      </trkpt>
      <trkpt lat="43.44612" lon="6.59828">
        <ele>179.39999389648</ele>
        <time>2019-05-04T08:39:54.000Z</time>
      </trkpt>
      <trkpt lat="43.44616" lon="6.59826">
        <ele>179.80000305176</ele>
        <time>2019-05-04T08:39:56.000Z</time>
      </trkpt>
      <trkpt lat="43.44621" lon="6.59824">
        <ele>180.39999389648</ele>
        <time>2019-05-04T08:39:59.000Z</time>
      </trkpt>
      <trkpt lat="43.44629" lon="6.59821">
        <ele>181.19999694824</ele>
        <time>2019-05-04T08:40:03.000Z</time>
      </trkpt>
      <trkpt lat="43.44632" lon="6.59821">
        <ele>181.60000610352</ele>
        <time>2019-05-04T08:40:05.000Z</time>
      </trkpt>
      <trkpt lat="43.44641" lon="6.59817">
        <ele>182.39999389648</ele>
        <time>2019-05-04T08:40:09.000Z</time>
      </trkpt>
      <trkpt lat="43.44657" lon="6.59804">
        <ele>181</ele>
        <time>2019-05-04T08:40:13.000Z</time>
      </trkpt>
      <trkpt lat="43.44663" lon="6.59798">
        <ele>180.19999694824</ele>
        <time>2019-05-04T08:40:15.000Z</time>
      </trkpt>
      <trkpt lat="43.44667" lon="6.59796">
        <ele>179.80000305176</ele>
        <time>2019-05-04T08:40:17.000Z</time>
      </trkpt>
      <trkpt lat="43.4468" lon="6.59785">
        <ele>181</ele>
        <time>2019-05-04T08:40:23.000Z</time>
      </trkpt>
      <trkpt lat="43.44691" lon="6.59783">
        <ele>181.19999694824</ele>
        <time>2019-05-04T08:40:27.000Z</time>
      </trkpt>
      <trkpt lat="43.44695" lon="6.59783">
        <ele>181.60000610352</ele>
        <time>2019-05-04T08:40:29.000Z</time>
      </trkpt>
      <trkpt lat="43.447" lon="6.59787">
        <ele>182.60000610352</ele>
        <time>2019-05-04T08:40:32.000Z</time>
      </trkpt>
      <trkpt lat="43.44704" lon="6.59789">
        <ele>183.19999694824</ele>
        <time>2019-05-04T08:40:34.000Z</time>
      </trkpt>
      <trkpt lat="43.44707" lon="6.59793">
        <ele>183.39999389648</ele>
        <time>2019-05-04T08:40:36.000Z</time>
      </trkpt>
      <trkpt lat="43.44707" lon="6.59796">
        <ele>183.60000610352</ele>
        <time>2019-05-04T08:40:37.000Z</time>
      </trkpt>
      <trkpt lat="43.44707" lon="6.598">
        <ele>184</ele>
        <time>2019-05-04T08:40:39.000Z</time>
      </trkpt>
      <trkpt lat="43.44709" lon="6.59805">
        <ele>184.39999389648</ele>
        <time>2019-05-04T08:40:41.000Z</time>
      </trkpt>
      <trkpt lat="43.44709" lon="6.59808">
        <ele>184.80000305176</ele>
        <time>2019-05-04T08:40:43.000Z</time>
      </trkpt>
      <trkpt lat="43.44711" lon="6.5981">
        <ele>185</ele>
        <time>2019-05-04T08:40:44.000Z</time>
      </trkpt>
      <trkpt lat="43.44717" lon="6.59824">
        <ele>185.39999389648</ele>
        <time>2019-05-04T08:40:51.000Z</time>
      </trkpt>
      <trkpt lat="43.44717" lon="6.59824">
        <ele>186</ele>
        <time>2019-05-04T08:40:55.000Z</time>
      </trkpt>
      <trkpt lat="43.44717" lon="6.59824">
        <ele>186</ele>
        <time>2019-05-04T08:40:56.000Z</time>
      </trkpt>
      <trkpt lat="43.44717" lon="6.59823">
        <ele>186.19999694824</ele>
        <time>2019-05-04T08:41:06.000Z</time>
      </trkpt>
      <trkpt lat="43.44718" lon="6.59823">
        <ele>186</ele>
        <time>2019-05-04T08:41:12.000Z</time>
      </trkpt>
      <trkpt lat="43.44718" lon="6.59822">
        <ele>186</ele>
        <time>2019-05-04T08:41:26.000Z</time>
      </trkpt>
      <trkpt lat="43.44718" lon="6.59821">
        <ele>186</ele>
        <time>2019-05-04T08:41:45.000Z</time>
      </trkpt>
      <trkpt lat="43.44718" lon="6.59821">
        <ele>186</ele>
        <time>2019-05-04T08:41:57.000Z</time>
      </trkpt>
      <trkpt lat="43.44717" lon="6.5982">
        <ele>186</ele>
        <time>2019-05-04T08:42:06.000Z</time>
      </trkpt>
      <trkpt lat="43.44717" lon="6.59821">
        <ele>186</ele>
        <time>2019-05-04T08:42:18.000Z</time>
      </trkpt>
      <trkpt lat="43.44718" lon="6.59821">
        <ele>186.19999694824</ele>
        <time>2019-05-04T08:42:28.000Z</time>
      </trkpt>
      <trkpt lat="43.44718" lon="6.5982">
        <ele>186.19999694824</ele>
        <time>2019-05-04T08:42:37.000Z</time>
      </trkpt>
      <trkpt lat="43.44717" lon="6.5982">
        <ele>186</ele>
        <time>2019-05-04T08:42:55.000Z</time>
      </trkpt>
      <trkpt lat="43.44717" lon="6.59821">
        <ele>186</ele>
        <time>2019-05-04T08:43:09.000Z</time>
      </trkpt>
      <trkpt lat="43.44717" lon="6.59821">
        <ele>185.80000305176</ele>
        <time>2019-05-04T08:43:25.000Z</time>
      </trkpt>
      <trkpt lat="43.44718" lon="6.59821">
        <ele>185.80000305176</ele>
        <time>2019-05-04T08:43:46.000Z</time>
      </trkpt>
      <trkpt lat="43.44718" lon="6.59822">
        <ele>185.80000305176</ele>
        <time>2019-05-04T08:43:54.000Z</time>
      </trkpt>
      <trkpt lat="43.44725" lon="6.59819">
        <ele>185.80000305176</ele>
        <time>2019-05-04T08:43:59.000Z</time>
      </trkpt>
      <trkpt lat="43.4473" lon="6.59816">
        <ele>185.60000610352</ele>
        <time>2019-05-04T08:44:03.000Z</time>
      </trkpt>
      <trkpt lat="43.44735" lon="6.59803">
        <ele>185.80000305176</ele>
        <time>2019-05-04T08:44:09.000Z</time>
      </trkpt>
      <trkpt lat="43.44737" lon="6.59789">
        <ele>186</ele>
        <time>2019-05-04T08:44:15.000Z</time>
      </trkpt>
      <trkpt lat="43.44736" lon="6.5977">
        <ele>186.39999389648</ele>
        <time>2019-05-04T08:44:21.000Z</time>
      </trkpt>
      <trkpt lat="43.44737" lon="6.59749">
        <ele>186.80000305176</ele>
        <time>2019-05-04T08:44:28.000Z</time>
      </trkpt>
      <trkpt lat="43.44737" lon="6.59746">
        <ele>187.19999694824</ele>
        <time>2019-05-04T08:44:29.000Z</time>
      </trkpt>
      <trkpt lat="43.44739" lon="6.59732">
        <ele>188.19999694824</ele>
        <time>2019-05-04T08:44:34.000Z</time>
      </trkpt>
      <trkpt lat="43.44739" lon="6.59717">
        <ele>188.19999694824</ele>
        <time>2019-05-04T08:44:38.000Z</time>
      </trkpt>
      <trkpt lat="43.44732" lon="6.59702">
        <ele>187.80000305176</ele>
        <time>2019-05-04T08:44:43.000Z</time>
      </trkpt>
      <trkpt lat="43.44727" lon="6.59679">
        <ele>188.39999389648</ele>
        <time>2019-05-04T08:44:48.000Z</time>
      </trkpt>
      <trkpt lat="43.44723" lon="6.59655">
        <ele>187.19999694824</ele>
        <time>2019-05-04T08:44:52.000Z</time>
      </trkpt>
      <trkpt lat="43.44714" lon="6.59655">
        <ele>186.39999389648</ele>
        <time>2019-05-04T08:44:55.000Z</time>
      </trkpt>
      <trkpt lat="43.44705" lon="6.59658">
        <ele>186.39999389648</ele>
        <time>2019-05-04T08:44:59.000Z</time>
      </trkpt>
      <trkpt lat="43.44701" lon="6.59659">
        <ele>187</ele>
        <time>2019-05-04T08:45:01.000Z</time>
      </trkpt>
      <trkpt lat="43.4469" lon="6.59658">
        <ele>188</ele>
        <time>2019-05-04T08:45:06.000Z</time>
      </trkpt>
      <trkpt lat="43.44688" lon="6.59655">
        <ele>188.19999694824</ele>
        <time>2019-05-04T08:45:07.000Z</time>
      </trkpt>
      <trkpt lat="43.44685" lon="6.59644">
        <ele>189.39999389648</ele>
        <time>2019-05-04T08:45:11.000Z</time>
      </trkpt>
      <trkpt lat="43.44684" lon="6.59636">
        <ele>189.80000305176</ele>
        <time>2019-05-04T08:45:14.000Z</time>
      </trkpt>
      <trkpt lat="43.44683" lon="6.59631">
        <ele>190.19999694824</ele>
        <time>2019-05-04T08:45:16.000Z</time>
      </trkpt>
      <trkpt lat="43.44683" lon="6.59628">
        <ele>190.60000610352</ele>
        <time>2019-05-04T08:45:17.000Z</time>
      </trkpt>
      <trkpt lat="43.44681" lon="6.59615">
        <ele>191.19999694824</ele>
        <time>2019-05-04T08:45:22.000Z</time>
      </trkpt>
      <trkpt lat="43.44681" lon="6.59613">
        <ele>191.80000305176</ele>
        <time>2019-05-04T08:45:23.000Z</time>
      </trkpt>
      <trkpt lat="43.44681" lon="6.59609">
        <ele>193</ele>
        <time>2019-05-04T08:45:26.000Z</time>
      </trkpt>
      <trkpt lat="43.44681" lon="6.59606">
        <ele>193.39999389648</ele>
        <time>2019-05-04T08:45:27.000Z</time>
      </trkpt>
      <trkpt lat="43.44682" lon="6.59596">
        <ele>194.19999694824</ele>
        <time>2019-05-04T08:45:30.000Z</time>
      </trkpt>
      <trkpt lat="43.44685" lon="6.59585">
        <ele>194.19999694824</ele>
        <time>2019-05-04T08:45:33.000Z</time>
      </trkpt>
      <trkpt lat="43.44693" lon="6.59563">
        <ele>194.39999389648</ele>
        <time>2019-05-04T08:45:39.000Z</time>
      </trkpt>
      <trkpt lat="43.44705" lon="6.59537">
        <ele>194.80000305176</ele>
        <time>2019-05-04T08:45:47.000Z</time>
      </trkpt>
      <trkpt lat="43.44712" lon="6.59525">
        <ele>195.19999694824</ele>
        <time>2019-05-04T08:45:51.000Z</time>
      </trkpt>
      <trkpt lat="43.44715" lon="6.59519">
        <ele>195.39999389648</ele>
        <time>2019-05-04T08:45:53.000Z</time>
      </trkpt>
      <trkpt lat="43.44724" lon="6.59506">
        <ele>195.80000305176</ele>
        <time>2019-05-04T08:45:58.000Z</time>
      </trkpt>
      <trkpt lat="43.44732" lon="6.59495">
        <ele>196.39999389648</ele>
        <time>2019-05-04T08:46:02.000Z</time>
      </trkpt>
      <trkpt lat="43.44736" lon="6.59491">
        <ele>196.80000305176</ele>
        <time>2019-05-04T08:46:04.000Z</time>
      </trkpt>
      <trkpt lat="43.44741" lon="6.59486">
        <ele>197.39999389648</ele>
        <time>2019-05-04T08:46:07.000Z</time>
      </trkpt>
      <trkpt lat="43.44744" lon="6.59484">
        <ele>197.80000305176</ele>
        <time>2019-05-04T08:46:09.000Z</time>
      </trkpt>
      <trkpt lat="43.44751" lon="6.59483">
        <ele>198.39999389648</ele>
        <time>2019-05-04T08:46:12.000Z</time>
      </trkpt>
      <trkpt lat="43.44756" lon="6.59482">
        <ele>198.80000305176</ele>
        <time>2019-05-04T08:46:14.000Z</time>
      </trkpt>
      <trkpt lat="43.44759" lon="6.59482">
        <ele>199</ele>
        <time>2019-05-04T08:46:15.000Z</time>
      </trkpt>
      <trkpt lat="43.4477" lon="6.59479">
        <ele>199.80000305176</ele>
        <time>2019-05-04T08:46:19.000Z</time>
      </trkpt>
      <trkpt lat="43.44776" lon="6.59472">
        <ele>200.19999694824</ele>
        <time>2019-05-04T08:46:22.000Z</time>
      </trkpt>
      <trkpt lat="43.44783" lon="6.59463">
        <ele>200.80000305176</ele>
        <time>2019-05-04T08:46:26.000Z</time>
      </trkpt>
      <trkpt lat="43.44789" lon="6.59457">
        <ele>201.39999389648</ele>
        <time>2019-05-04T08:46:29.000Z</time>
      </trkpt>
      <trkpt lat="43.44794" lon="6.5945">
        <ele>202</ele>
        <time>2019-05-04T08:46:32.000Z</time>
      </trkpt>
      <trkpt lat="43.44798" lon="6.59445">
        <ele>203</ele>
        <time>2019-05-04T08:46:35.000Z</time>
      </trkpt>
      <trkpt lat="43.448" lon="6.59442">
        <ele>203.19999694824</ele>
        <time>2019-05-04T08:46:36.000Z</time>
      </trkpt>
      <trkpt lat="43.44809" lon="6.59433">
        <ele>204.39999389648</ele>
        <time>2019-05-04T08:46:42.000Z</time>
      </trkpt>
      <trkpt lat="43.44821" lon="6.59421">
        <ele>204.39999389648</ele>
        <time>2019-05-04T08:46:48.000Z</time>
      </trkpt>
      <trkpt lat="43.44828" lon="6.59414">
        <ele>204.19999694824</ele>
        <time>2019-05-04T08:46:53.000Z</time>
      </trkpt>
      <trkpt lat="43.4483" lon="6.59412">
        <ele>204.39999389648</ele>
        <time>2019-05-04T08:46:54.000Z</time>
      </trkpt>
      <trkpt lat="43.44844" lon="6.59394">
        <ele>205.19999694824</ele>
        <time>2019-05-04T08:47:03.000Z</time>
      </trkpt>
      <trkpt lat="43.4485" lon="6.59393">
        <ele>205.39999389648</ele>
        <time>2019-05-04T08:47:05.000Z</time>
      </trkpt>
      <trkpt lat="43.44858" lon="6.5939">
        <ele>205.39999389648</ele>
        <time>2019-05-04T08:47:08.000Z</time>
      </trkpt>
      <trkpt lat="43.44871" lon="6.59377">
        <ele>205.19999694824</ele>
        <time>2019-05-04T08:47:13.000Z</time>
      </trkpt>
      <trkpt lat="43.44883" lon="6.5936">
        <ele>204.19999694824</ele>
        <time>2019-05-04T08:47:17.000Z</time>
      </trkpt>
      <trkpt lat="43.44886" lon="6.59357">
        <ele>203.60000610352</ele>
        <time>2019-05-04T08:47:18.000Z</time>
      </trkpt>
      <trkpt lat="43.44889" lon="6.59353">
        <ele>203</ele>
        <time>2019-05-04T08:47:19.000Z</time>
      </trkpt>
      <trkpt lat="43.44896" lon="6.59347">
        <ele>202.19999694824</ele>
        <time>2019-05-04T08:47:21.000Z</time>
      </trkpt>
      <trkpt lat="43.44898" lon="6.59346">
        <ele>202</ele>
        <time>2019-05-04T08:47:22.000Z</time>
      </trkpt>
      <trkpt lat="43.44899" lon="6.59342">
        <ele>201.60000610352</ele>
        <time>2019-05-04T08:47:23.000Z</time>
      </trkpt>
      <trkpt lat="43.44902" lon="6.59338">
        <ele>201.60000610352</ele>
        <time>2019-05-04T08:47:25.000Z</time>
      </trkpt>
      <trkpt lat="43.44911" lon="6.59324">
        <ele>202.80000305176</ele>
        <time>2019-05-04T08:47:31.000Z</time>
      </trkpt>
      <trkpt lat="43.44913" lon="6.59317">
        <ele>203</ele>
        <time>2019-05-04T08:47:33.000Z</time>
      </trkpt>
      <trkpt lat="43.44918" lon="6.59307">
        <ele>203.80000305176</ele>
        <time>2019-05-04T08:47:36.000Z</time>
      </trkpt>
      <trkpt lat="43.44921" lon="6.59293">
        <ele>204.19999694824</ele>
        <time>2019-05-04T08:47:40.000Z</time>
      </trkpt>
      <trkpt lat="43.44921" lon="6.59289">
        <ele>204.39999389648</ele>
        <time>2019-05-04T08:47:41.000Z</time>
      </trkpt>
      <trkpt lat="43.44924" lon="6.59272">
        <ele>205.60000610352</ele>
        <time>2019-05-04T08:47:46.000Z</time>
      </trkpt>
      <trkpt lat="43.44925" lon="6.5927">
        <ele>206</ele>
        <time>2019-05-04T08:47:47.000Z</time>
      </trkpt>
      <trkpt lat="43.44926" lon="6.59267">
        <ele>206.60000610352</ele>
        <time>2019-05-04T08:47:48.000Z</time>
      </trkpt>
      <trkpt lat="43.44931" lon="6.59255">
        <ele>207.60000610352</ele>
        <time>2019-05-04T08:47:53.000Z</time>
      </trkpt>
      <trkpt lat="43.44933" lon="6.59251">
        <ele>207.80000305176</ele>
        <time>2019-05-04T08:47:56.000Z</time>
      </trkpt>
      <trkpt lat="43.44933" lon="6.5925">
        <ele>208</ele>
        <time>2019-05-04T08:47:59.000Z</time>
      </trkpt>
      <trkpt lat="43.44932" lon="6.5925">
        <ele>208</ele>
        <time>2019-05-04T08:48:04.000Z</time>
      </trkpt>
      <trkpt lat="43.44932" lon="6.59249">
        <ele>208.19999694824</ele>
        <time>2019-05-04T08:48:09.000Z</time>
      </trkpt>
      <trkpt lat="43.44932" lon="6.59249">
        <ele>208.19999694824</ele>
        <time>2019-05-04T08:48:15.000Z</time>
      </trkpt>
      <trkpt lat="43.44932" lon="6.59247">
        <ele>208</ele>
        <time>2019-05-04T08:48:22.000Z</time>
      </trkpt>
      <trkpt lat="43.44934" lon="6.59247">
        <ele>208</ele>
        <time>2019-05-04T08:48:27.000Z</time>
      </trkpt>
      <trkpt lat="43.44934" lon="6.59247">
        <ele>208.39999389648</ele>
        <time>2019-05-04T08:48:41.000Z</time>
      </trkpt>
      <trkpt lat="43.44936" lon="6.59248">
        <ele>208.60000610352</ele>
        <time>2019-05-04T08:48:48.000Z</time>
      </trkpt>
      <trkpt lat="43.44936" lon="6.59248">
        <ele>208.80000305176</ele>
        <time>2019-05-04T08:48:49.000Z</time>
      </trkpt>
      <trkpt lat="43.44936" lon="6.59248">
        <ele>208.80000305176</ele>
        <time>2019-05-04T08:48:53.000Z</time>
      </trkpt>
      <trkpt lat="43.44937" lon="6.59248">
        <ele>208.60000610352</ele>
        <time>2019-05-04T08:48:55.000Z</time>
      </trkpt>
      <trkpt lat="43.44939" lon="6.59248">
        <ele>209</ele>
        <time>2019-05-04T08:49:01.000Z</time>
      </trkpt>
      <trkpt lat="43.44939" lon="6.59248">
        <ele>209.39999389648</ele>
        <time>2019-05-04T08:49:07.000Z</time>
      </trkpt>
      <trkpt lat="43.44938" lon="6.59248">
        <ele>209.39999389648</ele>
        <time>2019-05-04T08:49:10.000Z</time>
      </trkpt>
      <trkpt lat="43.44936" lon="6.59247">
        <ele>209.60000610352</ele>
        <time>2019-05-04T08:49:13.000Z</time>
      </trkpt>
      <trkpt lat="43.44932" lon="6.59247">
        <ele>208.60000610352</ele>
        <time>2019-05-04T08:49:19.000Z</time>
      </trkpt>
      <trkpt lat="43.44931" lon="6.59248">
        <ele>208.39999389648</ele>
        <time>2019-05-04T08:49:24.000Z</time>
      </trkpt>
      <trkpt lat="43.4493" lon="6.59249">
        <ele>208.39999389648</ele>
        <time>2019-05-04T08:49:31.000Z</time>
      </trkpt>
      <trkpt lat="43.44932" lon="6.59248">
        <ele>208.39999389648</ele>
        <time>2019-05-04T08:49:33.000Z</time>
      </trkpt>
      <trkpt lat="43.44934" lon="6.59248">
        <ele>208.19999694824</ele>
        <time>2019-05-04T08:49:35.000Z</time>
      </trkpt>
      <trkpt lat="43.4494" lon="6.59249">
        <ele>208.80000305176</ele>
        <time>2019-05-04T08:49:41.000Z</time>
      </trkpt>
      <trkpt lat="43.44944" lon="6.59246">
        <ele>209.39999389648</ele>
        <time>2019-05-04T08:49:46.000Z</time>
      </trkpt>
      <trkpt lat="43.4495" lon="6.59235">
        <ele>210</ele>
        <time>2019-05-04T08:49:51.000Z</time>
      </trkpt>
      <trkpt lat="43.44952" lon="6.59235">
        <ele>210.80000305176</ele>
        <time>2019-05-04T08:49:53.000Z</time>
      </trkpt>
      <trkpt lat="43.44953" lon="6.59236">
        <ele>211.39999389648</ele>
        <time>2019-05-04T08:49:54.000Z</time>
      </trkpt>
      <trkpt lat="43.44952" lon="6.59235">
        <ele>211.80000305176</ele>
        <time>2019-05-04T08:49:55.000Z</time>
      </trkpt>
      <trkpt lat="43.44954" lon="6.59236">
        <ele>216.80000305176</ele>
        <time>2019-05-04T08:49:56.000Z</time>
      </trkpt>
      <trkpt lat="43.44957" lon="6.59236">
        <ele>217.19999694824</ele>
        <time>2019-05-04T08:50:00.000Z</time>
      </trkpt>
      <trkpt lat="43.44958" lon="6.59235">
        <ele>212.19999694824</ele>
        <time>2019-05-04T08:50:01.000Z</time>
      </trkpt>
      <trkpt lat="43.44957" lon="6.5923">
        <ele>213.19999694824</ele>
        <time>2019-05-04T08:50:06.000Z</time>
      </trkpt>
      <trkpt lat="43.44958" lon="6.59231">
        <ele>213.39999389648</ele>
        <time>2019-05-04T08:50:07.000Z</time>
      </trkpt>
      <trkpt lat="43.44959" lon="6.5923">
        <ele>213.60000610352</ele>
        <time>2019-05-04T08:50:11.000Z</time>
      </trkpt>
      <trkpt lat="43.44959" lon="6.5923">
        <ele>213.39999389648</ele>
        <time>2019-05-04T08:50:16.000Z</time>
      </trkpt>
      <trkpt lat="43.44958" lon="6.59229">
        <ele>213.39999389648</ele>
        <time>2019-05-04T08:50:17.000Z</time>
      </trkpt>
      <trkpt lat="43.44953" lon="6.59224">
        <ele>213.60000610352</ele>
        <time>2019-05-04T08:50:21.000Z</time>
      </trkpt>
      <trkpt lat="43.44948" lon="6.59218">
        <ele>213.60000610352</ele>
        <time>2019-05-04T08:50:27.000Z</time>
      </trkpt>
      <trkpt lat="43.44944" lon="6.59213">
        <ele>214.39999389648</ele>
        <time>2019-05-04T08:50:34.000Z</time>
      </trkpt>
      <trkpt lat="43.44944" lon="6.5921">
        <ele>214.60000610352</ele>
        <time>2019-05-04T08:50:36.000Z</time>
      </trkpt>
      <trkpt lat="43.44942" lon="6.59206">
        <ele>214.19999694824</ele>
        <time>2019-05-04T08:50:39.000Z</time>
      </trkpt>
      <trkpt lat="43.44943" lon="6.59207">
        <ele>213.60000610352</ele>
        <time>2019-05-04T08:50:42.000Z</time>
      </trkpt>
      <trkpt lat="43.44943" lon="6.59207">
        <ele>213.39999389648</ele>
        <time>2019-05-04T08:50:44.000Z</time>
      </trkpt>
      <trkpt lat="43.44943" lon="6.59207">
        <ele>213.39999389648</ele>
        <time>2019-05-04T08:50:48.000Z</time>
      </trkpt>
      <trkpt lat="43.44943" lon="6.59207">
        <ele>213.39999389648</ele>
        <time>2019-05-04T08:51:01.000Z</time>
      </trkpt>
      <trkpt lat="43.44943" lon="6.59207">
        <ele>213.39999389648</ele>
        <time>2019-05-04T08:51:16.000Z</time>
      </trkpt>
      <trkpt lat="43.44943" lon="6.59207">
        <ele>213.39999389648</ele>
        <time>2019-05-04T08:51:30.000Z</time>
      </trkpt>
      <trkpt lat="43.44944" lon="6.59207">
        <ele>213.19999694824</ele>
        <time>2019-05-04T08:51:47.000Z</time>
      </trkpt>
      <trkpt lat="43.44943" lon="6.59206">
        <ele>211.39999389648</ele>
        <time>2019-05-04T08:51:57.000Z</time>
      </trkpt>
      <trkpt lat="43.44943" lon="6.59206">
        <ele>209.19999694824</ele>
        <time>2019-05-04T08:51:58.000Z</time>
      </trkpt>
      <trkpt lat="43.44943" lon="6.59206">
        <ele>207</ele>
        <time>2019-05-04T08:51:59.000Z</time>
      </trkpt>
      <trkpt lat="43.44943" lon="6.59206">
        <ele>204.80000305176</ele>
        <time>2019-05-04T08:52:00.000Z</time>
      </trkpt>
      <trkpt lat="43.44943" lon="6.59206">
        <ele>203</ele>
        <time>2019-05-04T08:52:01.000Z</time>
      </trkpt>
      <trkpt lat="43.44943" lon="6.59206">
        <ele>204.39999389648</ele>
        <time>2019-05-04T08:52:05.000Z</time>
      </trkpt>
      <trkpt lat="43.44943" lon="6.59206">
        <ele>203.39999389648</ele>
        <time>2019-05-04T08:52:09.000Z</time>
      </trkpt>
      <trkpt lat="43.44943" lon="6.59206">
        <ele>202</ele>
        <time>2019-05-04T08:52:11.000Z</time>
      </trkpt>
      <trkpt lat="43.44943" lon="6.59206">
        <ele>202.19999694824</ele>
        <time>2019-05-04T08:52:15.000Z</time>
      </trkpt>
      <trkpt lat="43.44943" lon="6.59206">
        <ele>199.60000610352</ele>
        <time>2019-05-04T08:52:19.000Z</time>
      </trkpt>
      <trkpt lat="43.44943" lon="6.59206">
        <ele>197.60000610352</ele>
        <time>2019-05-04T08:52:20.000Z</time>
      </trkpt>
      <trkpt lat="43.44943" lon="6.59207">
        <ele>196.19999694824</ele>
        <time>2019-05-04T08:52:21.000Z</time>
      </trkpt>
      <trkpt lat="43.44943" lon="6.59207">
        <ele>195.19999694824</ele>
        <time>2019-05-04T08:52:22.000Z</time>
      </trkpt>
      <trkpt lat="43.44944" lon="6.59208">
        <ele>194.39999389648</ele>
        <time>2019-05-04T08:52:25.000Z</time>
      </trkpt>
      <trkpt lat="43.44943" lon="6.5921">
        <ele>194</ele>
        <time>2019-05-04T08:52:33.000Z</time>
      </trkpt>
      <trkpt lat="43.44943" lon="6.5921">
        <ele>193.80000305176</ele>
        <time>2019-05-04T08:52:40.000Z</time>
      </trkpt>
      <trkpt lat="43.44943" lon="6.5921">
        <ele>193.60000610352</ele>
        <time>2019-05-04T08:52:51.000Z</time>
      </trkpt>
      <trkpt lat="43.44944" lon="6.5921">
        <ele>193.60000610352</ele>
        <time>2019-05-04T08:53:00.000Z</time>
      </trkpt>
      <trkpt lat="43.44944" lon="6.5921">
        <ele>193.60000610352</ele>
        <time>2019-05-04T08:53:10.000Z</time>
      </trkpt>
      <trkpt lat="43.44943" lon="6.59212">
        <ele>195.19999694824</ele>
        <time>2019-05-04T08:53:18.000Z</time>
      </trkpt>
      <trkpt lat="43.44945" lon="6.59212">
        <ele>196.39999389648</ele>
        <time>2019-05-04T08:53:23.000Z</time>
      </trkpt>
      <trkpt lat="43.44945" lon="6.59212">
        <ele>196.60000610352</ele>
        <time>2019-05-04T08:53:24.000Z</time>
      </trkpt>
      <trkpt lat="43.44945" lon="6.59212">
        <ele>197.39999389648</ele>
        <time>2019-05-04T08:53:27.000Z</time>
      </trkpt>
      <trkpt lat="43.44945" lon="6.59212">
        <ele>198.39999389648</ele>
        <time>2019-05-04T08:53:33.000Z</time>
      </trkpt>
      <trkpt lat="43.44945" lon="6.59212">
        <ele>198.60000610352</ele>
        <time>2019-05-04T08:53:34.000Z</time>
      </trkpt>
      <trkpt lat="43.44945" lon="6.59212">
        <ele>199.60000610352</ele>
        <time>2019-05-04T08:53:41.000Z</time>
      </trkpt>
      <trkpt lat="43.44945" lon="6.59212">
        <ele>200</ele>
        <time>2019-05-04T08:53:43.000Z</time>
      </trkpt>
      <trkpt lat="43.44945" lon="6.59212">
        <ele>200.80000305176</ele>
        <time>2019-05-04T08:53:48.000Z</time>
      </trkpt>
      <trkpt lat="43.44945" lon="6.59212">
        <ele>201.19999694824</ele>
        <time>2019-05-04T08:53:51.000Z</time>
      </trkpt>
      <trkpt lat="43.44946" lon="6.59212">
        <ele>202</ele>
        <time>2019-05-04T08:53:59.000Z</time>
      </trkpt>
      <trkpt lat="43.44946" lon="6.59212">
        <ele>203.19999694824</ele>
        <time>2019-05-04T08:54:04.000Z</time>
      </trkpt>
      <trkpt lat="43.44946" lon="6.59212">
        <ele>203.60000610352</ele>
        <time>2019-05-04T08:54:07.000Z</time>
      </trkpt>
      <trkpt lat="43.44946" lon="6.59212">
        <ele>204.19999694824</ele>
        <time>2019-05-04T08:54:11.000Z</time>
      </trkpt>
      <trkpt lat="43.44946" lon="6.59212">
        <ele>204.60000610352</ele>
        <time>2019-05-04T08:54:15.000Z</time>
      </trkpt>
      <trkpt lat="43.44946" lon="6.59212">
        <ele>205.19999694824</ele>
        <time>2019-05-04T08:54:19.000Z</time>
      </trkpt>
      <trkpt lat="43.44946" lon="6.59212">
        <ele>206.39999389648</ele>
        <time>2019-05-04T08:54:23.000Z</time>
      </trkpt>
      <trkpt lat="43.44945" lon="6.59213">
        <ele>207</ele>
        <time>2019-05-04T08:54:27.000Z</time>
      </trkpt>
      <trkpt lat="43.44945" lon="6.59213">
        <ele>207.39999389648</ele>
        <time>2019-05-04T08:54:30.000Z</time>
      </trkpt>
      <trkpt lat="43.44946" lon="6.59213">
        <ele>208.19999694824</ele>
        <time>2019-05-04T08:54:36.000Z</time>
      </trkpt>
      <trkpt lat="43.44946" lon="6.59214">
        <ele>208.60000610352</ele>
        <time>2019-05-04T08:54:42.000Z</time>
      </trkpt>
      <trkpt lat="43.44946" lon="6.59213">
        <ele>209.39999389648</ele>
        <time>2019-05-04T08:54:45.000Z</time>
      </trkpt>
      <trkpt lat="43.44946" lon="6.59213">
        <ele>209.60000610352</ele>
        <time>2019-05-04T08:54:47.000Z</time>
      </trkpt>
      <trkpt lat="43.44946" lon="6.59213">
        <ele>210.60000610352</ele>
        <time>2019-05-04T08:54:54.000Z</time>
      </trkpt>
      <trkpt lat="43.44946" lon="6.59213">
        <ele>210.60000610352</ele>
        <time>2019-05-04T08:54:56.000Z</time>
      </trkpt>
      <trkpt lat="43.44946" lon="6.59213">
        <ele>211.80000305176</ele>
        <time>2019-05-04T08:55:03.000Z</time>
      </trkpt>
      <trkpt lat="43.44947" lon="6.59213">
        <ele>213</ele>
        <time>2019-05-04T08:55:10.000Z</time>
      </trkpt>
      <trkpt lat="43.44946" lon="6.59213">
        <ele>213.19999694824</ele>
        <time>2019-05-04T08:55:11.000Z</time>
      </trkpt>
      <trkpt lat="43.44946" lon="6.59213">
        <ele>214</ele>
        <time>2019-05-04T08:55:17.000Z</time>
      </trkpt>
      <trkpt lat="43.44947" lon="6.59213">
        <ele>214.39999389648</ele>
        <time>2019-05-04T08:55:26.000Z</time>
      </trkpt>
      <trkpt lat="43.44946" lon="6.59213">
        <ele>214.60000610352</ele>
        <time>2019-05-04T08:55:34.000Z</time>
      </trkpt>
      <trkpt lat="43.44947" lon="6.59212">
        <ele>214.39999389648</ele>
        <time>2019-05-04T08:55:51.000Z</time>
      </trkpt>
      <trkpt lat="43.44948" lon="6.59213">
        <ele>207.39999389648</ele>
        <time>2019-05-04T08:55:56.000Z</time>
      </trkpt>
      <trkpt lat="43.44948" lon="6.59213">
        <ele>207.39999389648</ele>
        <time>2019-05-04T08:55:57.000Z</time>
      </trkpt>
      <trkpt lat="43.44947" lon="6.59213">
        <ele>214.19999694824</ele>
        <time>2019-05-04T08:56:01.000Z</time>
      </trkpt>
      <trkpt lat="43.44947" lon="6.59213">
        <ele>214</ele>
        <time>2019-05-04T08:56:06.000Z</time>
      </trkpt>
      <trkpt lat="43.44947" lon="6.59214">
        <ele>214.39999389648</ele>
        <time>2019-05-04T08:56:12.000Z</time>
      </trkpt>
      <trkpt lat="43.44948" lon="6.59214">
        <ele>214.19999694824</ele>
        <time>2019-05-04T08:56:17.000Z</time>
      </trkpt>
      <trkpt lat="43.44947" lon="6.59214">
        <ele>214.19999694824</ele>
        <time>2019-05-04T08:56:32.000Z</time>
      </trkpt>
      <trkpt lat="43.44946" lon="6.59214">
        <ele>214.19999694824</ele>
        <time>2019-05-04T08:56:45.000Z</time>
      </trkpt>
      <trkpt lat="43.44946" lon="6.59215">
        <ele>214.19999694824</ele>
        <time>2019-05-04T08:56:49.000Z</time>
      </trkpt>
      <trkpt lat="43.44947" lon="6.59216">
        <ele>214</ele>
        <time>2019-05-04T08:56:55.000Z</time>
      </trkpt>
      <trkpt lat="43.44946" lon="6.59217">
        <ele>214.39999389648</ele>
        <time>2019-05-04T08:57:04.000Z</time>
      </trkpt>
      <trkpt lat="43.44948" lon="6.59217">
        <ele>214.39999389648</ele>
        <time>2019-05-04T08:57:10.000Z</time>
      </trkpt>
      <trkpt lat="43.4495" lon="6.59218">
        <ele>212.80000305176</ele>
        <time>2019-05-04T08:57:16.000Z</time>
      </trkpt>
      <trkpt lat="43.44952" lon="6.5922">
        <ele>212.60000610352</ele>
        <time>2019-05-04T08:57:17.000Z</time>
      </trkpt>
      <trkpt lat="43.44953" lon="6.59221">
        <ele>212.39999389648</ele>
        <time>2019-05-04T08:57:20.000Z</time>
      </trkpt>
      <trkpt lat="43.44954" lon="6.59222">
        <ele>212.39999389648</ele>
        <time>2019-05-04T08:57:22.000Z</time>
      </trkpt>
      <trkpt lat="43.44957" lon="6.59225">
        <ele>212.60000610352</ele>
        <time>2019-05-04T08:57:26.000Z</time>
      </trkpt>
      <trkpt lat="43.44958" lon="6.59228">
        <ele>212.80000305176</ele>
        <time>2019-05-04T08:57:31.000Z</time>
      </trkpt>
      <trkpt lat="43.4496" lon="6.59229">
        <ele>213</ele>
        <time>2019-05-04T08:57:36.000Z</time>
      </trkpt>
      <trkpt lat="43.4496" lon="6.59229">
        <ele>213.19999694824</ele>
        <time>2019-05-04T08:57:38.000Z</time>
      </trkpt>
      <trkpt lat="43.4496" lon="6.59231">
        <ele>213.39999389648</ele>
        <time>2019-05-04T08:57:45.000Z</time>
      </trkpt>
      <trkpt lat="43.4496" lon="6.5923">
        <ele>213.60000610352</ele>
        <time>2019-05-04T08:57:54.000Z</time>
      </trkpt>
      <trkpt lat="43.4496" lon="6.5923">
        <ele>213.19999694824</ele>
        <time>2019-05-04T08:58:01.000Z</time>
      </trkpt>
      <trkpt lat="43.44961" lon="6.59229">
        <ele>213.80000305176</ele>
        <time>2019-05-04T08:58:05.000Z</time>
      </trkpt>
      <trkpt lat="43.44962" lon="6.59229">
        <ele>213.80000305176</ele>
        <time>2019-05-04T08:58:06.000Z</time>
      </trkpt>
      <trkpt lat="43.44966" lon="6.59225">
        <ele>212.80000305176</ele>
        <time>2019-05-04T08:58:13.000Z</time>
      </trkpt>
      <trkpt lat="43.44967" lon="6.59226">
        <ele>213.19999694824</ele>
        <time>2019-05-04T08:58:18.000Z</time>
      </trkpt>
      <trkpt lat="43.44966" lon="6.59226">
        <ele>213.80000305176</ele>
        <time>2019-05-04T08:58:28.000Z</time>
      </trkpt>
      <trkpt lat="43.44966" lon="6.59227">
        <ele>214</ele>
        <time>2019-05-04T08:58:30.000Z</time>
      </trkpt>
      <trkpt lat="43.44961" lon="6.59231">
        <ele>213.60000610352</ele>
        <time>2019-05-04T08:58:33.000Z</time>
      </trkpt>
      <trkpt lat="43.4496" lon="6.59231">
        <ele>213.39999389648</ele>
        <time>2019-05-04T08:58:37.000Z</time>
      </trkpt>
      <trkpt lat="43.4496" lon="6.5923">
        <ele>213.60000610352</ele>
        <time>2019-05-04T08:58:53.000Z</time>
      </trkpt>
      <trkpt lat="43.44962" lon="6.59229">
        <ele>213.19999694824</ele>
        <time>2019-05-04T08:59:00.000Z</time>
      </trkpt>
      <trkpt lat="43.44961" lon="6.59229">
        <ele>213</ele>
        <time>2019-05-04T08:59:03.000Z</time>
      </trkpt>
      <trkpt lat="43.4496" lon="6.59229">
        <ele>213</ele>
        <time>2019-05-04T08:59:04.000Z</time>
      </trkpt>
      <trkpt lat="43.44959" lon="6.5923">
        <ele>213</ele>
        <time>2019-05-04T08:59:05.000Z</time>
      </trkpt>
      <trkpt lat="43.4496" lon="6.5923">
        <ele>213.19999694824</ele>
        <time>2019-05-04T08:59:07.000Z</time>
      </trkpt>
      <trkpt lat="43.4496" lon="6.5923">
        <ele>213.19999694824</ele>
        <time>2019-05-04T08:59:08.000Z</time>
      </trkpt>
      <trkpt lat="43.4496" lon="6.59231">
        <ele>212.80000305176</ele>
        <time>2019-05-04T08:59:14.000Z</time>
      </trkpt>
      <trkpt lat="43.4496" lon="6.59229">
        <ele>213</ele>
        <time>2019-05-04T08:59:20.000Z</time>
      </trkpt>
      <trkpt lat="43.44959" lon="6.59229">
        <ele>213.39999389648</ele>
        <time>2019-05-04T08:59:28.000Z</time>
      </trkpt>
      <trkpt lat="43.44959" lon="6.59228">
        <ele>213.80000305176</ele>
        <time>2019-05-04T08:59:32.000Z</time>
      </trkpt>
      <trkpt lat="43.44959" lon="6.59227">
        <ele>214</ele>
        <time>2019-05-04T08:59:33.000Z</time>
      </trkpt>
      <trkpt lat="43.44959" lon="6.59228">
        <ele>213.80000305176</ele>
        <time>2019-05-04T08:59:41.000Z</time>
      </trkpt>
      <trkpt lat="43.44959" lon="6.59228">
        <ele>213.80000305176</ele>
        <time>2019-05-04T08:59:48.000Z</time>
      </trkpt>
      <trkpt lat="43.44959" lon="6.59228">
        <ele>214.19999694824</ele>
        <time>2019-05-04T08:59:56.000Z</time>
      </trkpt>
      <trkpt lat="43.44958" lon="6.59228">
        <ele>214</ele>
        <time>2019-05-04T09:00:01.000Z</time>
      </trkpt>
      <trkpt lat="43.44958" lon="6.59229">
        <ele>214.19999694824</ele>
        <time>2019-05-04T09:00:04.000Z</time>
      </trkpt>
      <trkpt lat="43.44957" lon="6.59229">
        <ele>214.19999694824</ele>
        <time>2019-05-04T09:00:06.000Z</time>
      </trkpt>
      <trkpt lat="43.44956" lon="6.59229">
        <ele>214</ele>
        <time>2019-05-04T09:00:12.000Z</time>
      </trkpt>
      <trkpt lat="43.44956" lon="6.59227">
        <ele>213.80000305176</ele>
        <time>2019-05-04T09:00:19.000Z</time>
      </trkpt>
      <trkpt lat="43.44956" lon="6.59227">
        <ele>213.39999389648</ele>
        <time>2019-05-04T09:00:28.000Z</time>
      </trkpt>
      <trkpt lat="43.44956" lon="6.59227">
        <ele>212.60000610352</ele>
        <time>2019-05-04T09:00:33.000Z</time>
      </trkpt>
      <trkpt lat="43.44956" lon="6.59227">
        <ele>210.39999389648</ele>
        <time>2019-05-04T09:00:34.000Z</time>
      </trkpt>
      <trkpt lat="43.44956" lon="6.59227">
        <ele>207.19999694824</ele>
        <time>2019-05-04T09:00:35.000Z</time>
      </trkpt>
      <trkpt lat="43.44956" lon="6.59227">
        <ele>203.80000305176</ele>
        <time>2019-05-04T09:00:36.000Z</time>
      </trkpt>
      <trkpt lat="43.44956" lon="6.59227">
        <ele>202.39999389648</ele>
        <time>2019-05-04T09:00:37.000Z</time>
      </trkpt>
      <trkpt lat="43.44956" lon="6.59227">
        <ele>201.19999694824</ele>
        <time>2019-05-04T09:00:38.000Z</time>
      </trkpt>
      <trkpt lat="43.44956" lon="6.59227">
        <ele>203.80000305176</ele>
        <time>2019-05-04T09:00:39.000Z</time>
      </trkpt>
      <trkpt lat="43.44956" lon="6.59227">
        <ele>206</ele>
        <time>2019-05-04T09:00:40.000Z</time>
      </trkpt>
      <trkpt lat="43.44956" lon="6.59227">
        <ele>209.39999389648</ele>
        <time>2019-05-04T09:00:41.000Z</time>
      </trkpt>
      <trkpt lat="43.44957" lon="6.59228">
        <ele>211.60000610352</ele>
        <time>2019-05-04T09:00:42.000Z</time>
      </trkpt>
      <trkpt lat="43.44957" lon="6.59228">
        <ele>213.60000610352</ele>
        <time>2019-05-04T09:00:43.000Z</time>
      </trkpt>
      <trkpt lat="43.44958" lon="6.59233">
        <ele>213</ele>
        <time>2019-05-04T09:00:51.000Z</time>
      </trkpt>
      <trkpt lat="43.44956" lon="6.59246">
        <ele>212.60000610352</ele>
        <time>2019-05-04T09:00:55.000Z</time>
      </trkpt>
      <trkpt lat="43.44955" lon="6.5925">
        <ele>212.39999389648</ele>
        <time>2019-05-04T09:00:56.000Z</time>
      </trkpt>
      <trkpt lat="43.44951" lon="6.59262">
        <ele>211.39999389648</ele>
        <time>2019-05-04T09:00:59.000Z</time>
      </trkpt>
      <trkpt lat="43.4495" lon="6.59265">
        <ele>211.19999694824</ele>
        <time>2019-05-04T09:01:00.000Z</time>
      </trkpt>
      <trkpt lat="43.44949" lon="6.59269">
        <ele>210.80000305176</ele>
        <time>2019-05-04T09:01:04.000Z</time>
      </trkpt>
      <trkpt lat="43.44949" lon="6.59269">
        <ele>211</ele>
        <time>2019-05-04T09:01:17.000Z</time>
      </trkpt>
      <trkpt lat="43.4495" lon="6.59273">
        <ele>211</ele>
        <time>2019-05-04T09:01:27.000Z</time>
      </trkpt>
      <trkpt lat="43.44948" lon="6.59287">
        <ele>210.60000610352</ele>
        <time>2019-05-04T09:01:31.000Z</time>
      </trkpt>
      <trkpt lat="43.44946" lon="6.59292">
        <ele>210.19999694824</ele>
        <time>2019-05-04T09:01:32.000Z</time>
      </trkpt>
      <trkpt lat="43.44939" lon="6.59307">
        <ele>208.80000305176</ele>
        <time>2019-05-04T09:01:35.000Z</time>
      </trkpt>
      <trkpt lat="43.4493" lon="6.59311">
        <ele>207.60000610352</ele>
        <time>2019-05-04T09:01:37.000Z</time>
      </trkpt>
      <trkpt lat="43.44922" lon="6.59311">
        <ele>207</ele>
        <time>2019-05-04T09:01:39.000Z</time>
      </trkpt>
      <trkpt lat="43.44914" lon="6.59312">
        <ele>206.19999694824</ele>
        <time>2019-05-04T09:01:41.000Z</time>
      </trkpt>
      <trkpt lat="43.44909" lon="6.59321">
        <ele>204.80000305176</ele>
        <time>2019-05-04T09:01:43.000Z</time>
      </trkpt>
      <trkpt lat="43.44906" lon="6.5933">
        <ele>203.19999694824</ele>
        <time>2019-05-04T09:01:45.000Z</time>
      </trkpt>
      <trkpt lat="43.44901" lon="6.59337">
        <ele>202.19999694824</ele>
        <time>2019-05-04T09:01:47.000Z</time>
      </trkpt>
      <trkpt lat="43.44899" lon="6.5934">
        <ele>202</ele>
        <time>2019-05-04T09:01:48.000Z</time>
      </trkpt>
      <trkpt lat="43.44893" lon="6.59347">
        <ele>201.60000610352</ele>
        <time>2019-05-04T09:01:51.000Z</time>
      </trkpt>
      <trkpt lat="43.4489" lon="6.59348">
        <ele>201.60000610352</ele>
        <time>2019-05-04T09:01:52.000Z</time>
      </trkpt>
      <trkpt lat="43.44882" lon="6.59355">
        <ele>201.60000610352</ele>
        <time>2019-05-04T09:01:57.000Z</time>
      </trkpt>
      <trkpt lat="43.44874" lon="6.59368">
        <ele>202</ele>
        <time>2019-05-04T09:02:03.000Z</time>
      </trkpt>
      <trkpt lat="43.44866" lon="6.5938">
        <ele>202.80000305176</ele>
        <time>2019-05-04T09:02:08.000Z</time>
      </trkpt>
      <trkpt lat="43.44864" lon="6.59383">
        <ele>203</ele>
        <time>2019-05-04T09:02:09.000Z</time>
      </trkpt>
      <trkpt lat="43.4486" lon="6.59386">
        <ele>203.60000610352</ele>
        <time>2019-05-04T09:02:11.000Z</time>
      </trkpt>
      <trkpt lat="43.44859" lon="6.59387">
        <ele>204</ele>
        <time>2019-05-04T09:02:12.000Z</time>
      </trkpt>
      <trkpt lat="43.44857" lon="6.59388">
        <ele>204.19999694824</ele>
        <time>2019-05-04T09:02:13.000Z</time>
      </trkpt>
      <trkpt lat="43.44844" lon="6.59391">
        <ele>205</ele>
        <time>2019-05-04T09:02:18.000Z</time>
      </trkpt>
      <trkpt lat="43.44833" lon="6.59401">
        <ele>204.80000305176</ele>
        <time>2019-05-04T09:02:23.000Z</time>
      </trkpt>
      <trkpt lat="43.44823" lon="6.59416">
        <ele>204.60000610352</ele>
        <time>2019-05-04T09:02:27.000Z</time>
      </trkpt>
      <trkpt lat="43.4482" lon="6.59418">
        <ele>204.39999389648</ele>
        <time>2019-05-04T09:02:28.000Z</time>
      </trkpt>
      <trkpt lat="43.44807" lon="6.59423">
        <ele>203.60000610352</ele>
        <time>2019-05-04T09:02:32.000Z</time>
      </trkpt>
      <trkpt lat="43.44805" lon="6.5942">
        <ele>203.19999694824</ele>
        <time>2019-05-04T09:02:34.000Z</time>
      </trkpt>
      <trkpt lat="43.44801" lon="6.59413">
        <ele>203.60000610352</ele>
        <time>2019-05-04T09:02:37.000Z</time>
      </trkpt>
      <trkpt lat="43.44796" lon="6.59404">
        <ele>203</ele>
        <time>2019-05-04T09:02:40.000Z</time>
      </trkpt>
      <trkpt lat="43.44793" lon="6.594">
        <ele>202.80000305176</ele>
        <time>2019-05-04T09:02:41.000Z</time>
      </trkpt>
      <trkpt lat="43.44779" lon="6.59381">
        <ele>202</ele>
        <time>2019-05-04T09:02:46.000Z</time>
      </trkpt>
      <trkpt lat="43.44773" lon="6.59377">
        <ele>202</ele>
        <time>2019-05-04T09:02:49.000Z</time>
      </trkpt>
      <trkpt lat="43.44771" lon="6.59376">
        <ele>202.19999694824</ele>
        <time>2019-05-04T09:02:50.000Z</time>
      </trkpt>
      <trkpt lat="43.44766" lon="6.59373">
        <ele>203.19999694824</ele>
        <time>2019-05-04T09:02:53.000Z</time>
      </trkpt>
      <trkpt lat="43.44763" lon="6.59367">
        <ele>204</ele>
        <time>2019-05-04T09:02:56.000Z</time>
      </trkpt>
      <trkpt lat="43.44761" lon="6.59365">
        <ele>204.39999389648</ele>
        <time>2019-05-04T09:02:57.000Z</time>
      </trkpt>
      <trkpt lat="43.44755" lon="6.59359">
        <ele>205.80000305176</ele>
        <time>2019-05-04T09:03:00.000Z</time>
      </trkpt>
      <trkpt lat="43.44749" lon="6.59352">
        <ele>206.60000610352</ele>
        <time>2019-05-04T09:03:03.000Z</time>
      </trkpt>
      <trkpt lat="43.44746" lon="6.5935">
        <ele>206.80000305176</ele>
        <time>2019-05-04T09:03:04.000Z</time>
      </trkpt>
      <trkpt lat="43.44731" lon="6.59341">
        <ele>207.19999694824</ele>
        <time>2019-05-04T09:03:08.000Z</time>
      </trkpt>
      <trkpt lat="43.44714" lon="6.5933">
        <ele>206.19999694824</ele>
        <time>2019-05-04T09:03:12.000Z</time>
      </trkpt>
      <trkpt lat="43.4471" lon="6.59329">
        <ele>205.80000305176</ele>
        <time>2019-05-04T09:03:13.000Z</time>
      </trkpt>
      <trkpt lat="43.44706" lon="6.59327">
        <ele>205.60000610352</ele>
        <time>2019-05-04T09:03:14.000Z</time>
      </trkpt>
      <trkpt lat="43.44697" lon="6.59323">
        <ele>205.19999694824</ele>
        <time>2019-05-04T09:03:16.000Z</time>
      </trkpt>
      <trkpt lat="43.44693" lon="6.59319">
        <ele>205</ele>
        <time>2019-05-04T09:03:17.000Z</time>
      </trkpt>
      <trkpt lat="43.44688" lon="6.59317">
        <ele>204.80000305176</ele>
        <time>2019-05-04T09:03:18.000Z</time>
      </trkpt>
      <trkpt lat="43.44685" lon="6.59316">
        <ele>204.60000610352</ele>
        <time>2019-05-04T09:03:19.000Z</time>
      </trkpt>
      <trkpt lat="43.44678" lon="6.59314">
        <ele>203.80000305176</ele>
        <time>2019-05-04T09:03:21.000Z</time>
      </trkpt>
      <trkpt lat="43.44673" lon="6.5931">
        <ele>203.19999694824</ele>
        <time>2019-05-04T09:03:23.000Z</time>
      </trkpt>
      <trkpt lat="43.44671" lon="6.59308">
        <ele>203.19999694824</ele>
        <time>2019-05-04T09:03:24.000Z</time>
      </trkpt>
      <trkpt lat="43.44665" lon="6.59306">
        <ele>203.19999694824</ele>
        <time>2019-05-04T09:03:26.000Z</time>
      </trkpt>
      <trkpt lat="43.44648" lon="6.59297">
        <ele>204.39999389648</ele>
        <time>2019-05-04T09:03:33.000Z</time>
      </trkpt>
      <trkpt lat="43.44646" lon="6.59296">
        <ele>204.60000610352</ele>
        <time>2019-05-04T09:03:34.000Z</time>
      </trkpt>
      <trkpt lat="43.44625" lon="6.59291">
        <ele>204.60000610352</ele>
        <time>2019-05-04T09:03:41.000Z</time>
      </trkpt>
      <trkpt lat="43.44603" lon="6.5929">
        <ele>203.80000305176</ele>
        <time>2019-05-04T09:03:47.000Z</time>
      </trkpt>
      <trkpt lat="43.44584" lon="6.59289">
        <ele>203.39999389648</ele>
        <time>2019-05-04T09:03:52.000Z</time>
      </trkpt>
      <trkpt lat="43.44582" lon="6.59289">
        <ele>203.19999694824</ele>
        <time>2019-05-04T09:03:53.000Z</time>
      </trkpt>
      <trkpt lat="43.44576" lon="6.59289">
        <ele>203.19999694824</ele>
        <time>2019-05-04T09:03:58.000Z</time>
      </trkpt>
      <trkpt lat="43.44574" lon="6.5929">
        <ele>203.19999694824</ele>
        <time>2019-05-04T09:04:05.000Z</time>
      </trkpt>
      <trkpt lat="43.44571" lon="6.5929">
        <ele>203.19999694824</ele>
        <time>2019-05-04T09:04:13.000Z</time>
      </trkpt>
      <trkpt lat="43.44567" lon="6.59288">
        <ele>203.39999389648</ele>
        <time>2019-05-04T09:04:19.000Z</time>
      </trkpt>
      <trkpt lat="43.44564" lon="6.59286">
        <ele>203.39999389648</ele>
        <time>2019-05-04T09:04:22.000Z</time>
      </trkpt>
      <trkpt lat="43.4456" lon="6.59286">
        <ele>203.19999694824</ele>
        <time>2019-05-04T09:04:26.000Z</time>
      </trkpt>
      <trkpt lat="43.4456" lon="6.59286">
        <ele>203.19999694824</ele>
        <time>2019-05-04T09:04:34.000Z</time>
      </trkpt>
      <trkpt lat="43.4456" lon="6.59286">
        <ele>203.19999694824</ele>
        <time>2019-05-04T09:05:02.000Z</time>
      </trkpt>
      <trkpt lat="43.44559" lon="6.59286">
        <ele>203.19999694824</ele>
        <time>2019-05-04T09:05:07.000Z</time>
      </trkpt>
      <trkpt lat="43.44556" lon="6.59288">
        <ele>203.19999694824</ele>
        <time>2019-05-04T09:05:09.000Z</time>
      </trkpt>
      <trkpt lat="43.44542" lon="6.59296">
        <ele>203</ele>
        <time>2019-05-04T09:05:14.000Z</time>
      </trkpt>
      <trkpt lat="43.44516" lon="6.59308">
        <ele>202.60000610352</ele>
        <time>2019-05-04T09:05:22.000Z</time>
      </trkpt>
      <trkpt lat="43.44499" lon="6.59316">
        <ele>202.80000305176</ele>
        <time>2019-05-04T09:05:28.000Z</time>
      </trkpt>
      <trkpt lat="43.44479" lon="6.59317">
        <ele>203.60000610352</ele>
        <time>2019-05-04T09:05:34.000Z</time>
      </trkpt>
      <trkpt lat="43.44462" lon="6.59315">
        <ele>204.60000610352</ele>
        <time>2019-05-04T09:05:39.000Z</time>
      </trkpt>
      <trkpt lat="43.44456" lon="6.59315">
        <ele>204.80000305176</ele>
        <time>2019-05-04T09:05:41.000Z</time>
      </trkpt>
      <trkpt lat="43.44446" lon="6.59315">
        <ele>205.60000610352</ele>
        <time>2019-05-04T09:05:44.000Z</time>
      </trkpt>
      <trkpt lat="43.44434" lon="6.59315">
        <ele>206.60000610352</ele>
        <time>2019-05-04T09:05:48.000Z</time>
      </trkpt>
      <trkpt lat="43.44431" lon="6.59315">
        <ele>206.80000305176</ele>
        <time>2019-05-04T09:05:49.000Z</time>
      </trkpt>
      <trkpt lat="43.44414" lon="6.59315">
        <ele>207.60000610352</ele>
        <time>2019-05-04T09:05:54.000Z</time>
      </trkpt>
      <trkpt lat="43.44403" lon="6.59314">
        <ele>207.60000610352</ele>
        <time>2019-05-04T09:05:57.000Z</time>
      </trkpt>
      <trkpt lat="43.44377" lon="6.59316">
        <ele>207.60000610352</ele>
        <time>2019-05-04T09:06:04.000Z</time>
      </trkpt>
      <trkpt lat="43.44362" lon="6.59324">
        <ele>207.60000610352</ele>
        <time>2019-05-04T09:06:08.000Z</time>
      </trkpt>
      <trkpt lat="43.44354" lon="6.59327">
        <ele>207.60000610352</ele>
        <time>2019-05-04T09:06:10.000Z</time>
      </trkpt>
      <trkpt lat="43.44345" lon="6.59328">
        <ele>207.60000610352</ele>
        <time>2019-05-04T09:06:12.000Z</time>
      </trkpt>
      <trkpt lat="43.44323" lon="6.59326">
        <ele>206.80000305176</ele>
        <time>2019-05-04T09:06:17.000Z</time>
      </trkpt>
      <trkpt lat="43.44319" lon="6.59325">
        <ele>206.39999389648</ele>
        <time>2019-05-04T09:06:18.000Z</time>
      </trkpt>
      <trkpt lat="43.44302" lon="6.59324">
        <ele>206.19999694824</ele>
        <time>2019-05-04T09:06:22.000Z</time>
      </trkpt>
      <trkpt lat="43.44298" lon="6.59326">
        <ele>206</ele>
        <time>2019-05-04T09:06:23.000Z</time>
      </trkpt>
      <trkpt lat="43.44291" lon="6.59328">
        <ele>205.60000610352</ele>
        <time>2019-05-04T09:06:26.000Z</time>
      </trkpt>
      <trkpt lat="43.4429" lon="6.59326">
        <ele>205.39999389648</ele>
        <time>2019-05-04T09:06:27.000Z</time>
      </trkpt>
      <trkpt lat="43.44282" lon="6.59322">
        <ele>205.19999694824</ele>
        <time>2019-05-04T09:06:30.000Z</time>
      </trkpt>
      <trkpt lat="43.44276" lon="6.5932">
        <ele>205</ele>
        <time>2019-05-04T09:06:31.000Z</time>
      </trkpt>
      <trkpt lat="43.44265" lon="6.59316">
        <ele>203.60000610352</ele>
        <time>2019-05-04T09:06:33.000Z</time>
      </trkpt>
      <trkpt lat="43.44258" lon="6.59314">
        <ele>202.60000610352</ele>
        <time>2019-05-04T09:06:34.000Z</time>
      </trkpt>
      <trkpt lat="43.44251" lon="6.59313">
        <ele>201.60000610352</ele>
        <time>2019-05-04T09:06:35.000Z</time>
      </trkpt>
      <trkpt lat="43.44242" lon="6.59316">
        <ele>200.39999389648</ele>
        <time>2019-05-04T09:06:36.000Z</time>
      </trkpt>
      <trkpt lat="43.44234" lon="6.59321">
        <ele>198.80000305176</ele>
        <time>2019-05-04T09:06:37.000Z</time>
      </trkpt>
      <trkpt lat="43.44226" lon="6.59326">
        <ele>197</ele>
        <time>2019-05-04T09:06:38.000Z</time>
      </trkpt>
      <trkpt lat="43.44219" lon="6.59331">
        <ele>195.80000305176</ele>
        <time>2019-05-04T09:06:39.000Z</time>
      </trkpt>
      <trkpt lat="43.44212" lon="6.59337">
        <ele>195</ele>
        <time>2019-05-04T09:06:40.000Z</time>
      </trkpt>
      <trkpt lat="43.44205" lon="6.59344">
        <ele>193.39999389648</ele>
        <time>2019-05-04T09:06:41.000Z</time>
      </trkpt>
      <trkpt lat="43.44193" lon="6.59355">
        <ele>192.19999694824</ele>
        <time>2019-05-04T09:06:43.000Z</time>
      </trkpt>
      <trkpt lat="43.44186" lon="6.59358">
        <ele>191.60000610352</ele>
        <time>2019-05-04T09:06:44.000Z</time>
      </trkpt>
      <trkpt lat="43.44175" lon="6.59365">
        <ele>190.80000305176</ele>
        <time>2019-05-04T09:06:46.000Z</time>
      </trkpt>
      <trkpt lat="43.4417" lon="6.59369">
        <ele>190.39999389648</ele>
        <time>2019-05-04T09:06:47.000Z</time>
      </trkpt>
      <trkpt lat="43.44167" lon="6.59375">
        <ele>190.19999694824</ele>
        <time>2019-05-04T09:06:48.000Z</time>
      </trkpt>
      <trkpt lat="43.44163" lon="6.5939">
        <ele>189.80000305176</ele>
        <time>2019-05-04T09:06:50.000Z</time>
      </trkpt>
      <trkpt lat="43.44161" lon="6.59398">
        <ele>189.39999389648</ele>
        <time>2019-05-04T09:06:51.000Z</time>
      </trkpt>
      <trkpt lat="43.44149" lon="6.59413">
        <ele>188.60000610352</ele>
        <time>2019-05-04T09:06:54.000Z</time>
      </trkpt>
      <trkpt lat="43.44145" lon="6.59416">
        <ele>188.19999694824</ele>
        <time>2019-05-04T09:06:55.000Z</time>
      </trkpt>
      <trkpt lat="43.4414" lon="6.5942">
        <ele>187.60000610352</ele>
        <time>2019-05-04T09:06:56.000Z</time>
      </trkpt>
      <trkpt lat="43.44136" lon="6.59424">
        <ele>187.39999389648</ele>
        <time>2019-05-04T09:06:57.000Z</time>
      </trkpt>
      <trkpt lat="43.44133" lon="6.59429">
        <ele>187</ele>
        <time>2019-05-04T09:06:58.000Z</time>
      </trkpt>
      <trkpt lat="43.44124" lon="6.59447">
        <ele>186.19999694824</ele>
        <time>2019-05-04T09:07:01.000Z</time>
      </trkpt>
      <trkpt lat="43.44118" lon="6.5946">
        <ele>185.19999694824</ele>
        <time>2019-05-04T09:07:03.000Z</time>
      </trkpt>
      <trkpt lat="43.44112" lon="6.59472">
        <ele>184.19999694824</ele>
        <time>2019-05-04T09:07:05.000Z</time>
      </trkpt>
      <trkpt lat="43.44106" lon="6.59486">
        <ele>183</ele>
        <time>2019-05-04T09:07:07.000Z</time>
      </trkpt>
      <trkpt lat="43.44101" lon="6.59501">
        <ele>181.80000305176</ele>
        <time>2019-05-04T09:07:09.000Z</time>
      </trkpt>
      <trkpt lat="43.44098" lon="6.59516">
        <ele>181</ele>
        <time>2019-05-04T09:07:11.000Z</time>
      </trkpt>
      <trkpt lat="43.44098" lon="6.59524">
        <ele>180.60000610352</ele>
        <time>2019-05-04T09:07:12.000Z</time>
      </trkpt>
      <trkpt lat="43.44098" lon="6.59533">
        <ele>180.19999694824</ele>
        <time>2019-05-04T09:07:13.000Z</time>
      </trkpt>
      <trkpt lat="43.44099" lon="6.59548">
        <ele>179.60000610352</ele>
        <time>2019-05-04T09:07:15.000Z</time>
      </trkpt>
      <trkpt lat="43.441" lon="6.59557">
        <ele>179.39999389648</ele>
        <time>2019-05-04T09:07:16.000Z</time>
      </trkpt>
      <trkpt lat="43.44101" lon="6.59565">
        <ele>179.19999694824</ele>
        <time>2019-05-04T09:07:17.000Z</time>
      </trkpt>
      <trkpt lat="43.44101" lon="6.59599">
        <ele>178.19999694824</ele>
        <time>2019-05-04T09:07:21.000Z</time>
      </trkpt>
      <trkpt lat="43.44103" lon="6.59625">
        <ele>177.39999389648</ele>
        <time>2019-05-04T09:07:24.000Z</time>
      </trkpt>
      <trkpt lat="43.44104" lon="6.59644">
        <ele>176.80000305176</ele>
        <time>2019-05-04T09:07:26.000Z</time>
      </trkpt>
      <trkpt lat="43.44102" lon="6.59662">
        <ele>175.60000610352</ele>
        <time>2019-05-04T09:07:28.000Z</time>
      </trkpt>
      <trkpt lat="43.441" lon="6.59681">
        <ele>174.39999389648</ele>
        <time>2019-05-04T09:07:30.000Z</time>
      </trkpt>
      <trkpt lat="43.44097" lon="6.59707">
        <ele>173.60000610352</ele>
        <time>2019-05-04T09:07:33.000Z</time>
      </trkpt>
      <trkpt lat="43.44096" lon="6.59715">
        <ele>173.39999389648</ele>
        <time>2019-05-04T09:07:34.000Z</time>
      </trkpt>
      <trkpt lat="43.44095" lon="6.59752">
        <ele>172.19999694824</ele>
        <time>2019-05-04T09:07:38.000Z</time>
      </trkpt>
      <trkpt lat="43.44097" lon="6.59761">
        <ele>171.39999389648</ele>
        <time>2019-05-04T09:07:39.000Z</time>
      </trkpt>
      <trkpt lat="43.441" lon="6.59768">
        <ele>170.60000610352</ele>
        <time>2019-05-04T09:07:40.000Z</time>
      </trkpt>
      <trkpt lat="43.44107" lon="6.59789">
        <ele>169</ele>
        <time>2019-05-04T09:07:42.000Z</time>
      </trkpt>
      <trkpt lat="43.44109" lon="6.598">
        <ele>168.19999694824</ele>
        <time>2019-05-04T09:07:43.000Z</time>
      </trkpt>
      <trkpt lat="43.44111" lon="6.59811">
        <ele>167.19999694824</ele>
        <time>2019-05-04T09:07:44.000Z</time>
      </trkpt>
      <trkpt lat="43.44113" lon="6.59831">
        <ele>165.60000610352</ele>
        <time>2019-05-04T09:07:46.000Z</time>
      </trkpt>
      <trkpt lat="43.44112" lon="6.59841">
        <ele>165</ele>
        <time>2019-05-04T09:07:47.000Z</time>
      </trkpt>
      <trkpt lat="43.4411" lon="6.59851">
        <ele>164.19999694824</ele>
        <time>2019-05-04T09:07:48.000Z</time>
      </trkpt>
      <trkpt lat="43.44107" lon="6.5987">
        <ele>162.80000305176</ele>
        <time>2019-05-04T09:07:50.000Z</time>
      </trkpt>
      <trkpt lat="43.44104" lon="6.59891">
        <ele>162</ele>
        <time>2019-05-04T09:07:52.000Z</time>
      </trkpt>
      <trkpt lat="43.44103" lon="6.59902">
        <ele>161.80000305176</ele>
        <time>2019-05-04T09:07:53.000Z</time>
      </trkpt>
      <trkpt lat="43.44101" lon="6.59914">
        <ele>161.39999389648</ele>
        <time>2019-05-04T09:07:54.000Z</time>
      </trkpt>
      <trkpt lat="43.44095" lon="6.59934">
        <ele>160.19999694824</ele>
        <time>2019-05-04T09:07:56.000Z</time>
      </trkpt>
      <trkpt lat="43.44083" lon="6.59948">
        <ele>159.19999694824</ele>
        <time>2019-05-04T09:07:58.000Z</time>
      </trkpt>
      <trkpt lat="43.44076" lon="6.59954">
        <ele>158.60000610352</ele>
        <time>2019-05-04T09:07:59.000Z</time>
      </trkpt>
      <trkpt lat="43.44069" lon="6.59959">
        <ele>158.19999694824</ele>
        <time>2019-05-04T09:08:00.000Z</time>
      </trkpt>
      <trkpt lat="43.44057" lon="6.59976">
        <ele>156.80000305176</ele>
        <time>2019-05-04T09:08:02.000Z</time>
      </trkpt>
      <trkpt lat="43.44052" lon="6.59987">
        <ele>155.60000610352</ele>
        <time>2019-05-04T09:08:03.000Z</time>
      </trkpt>
      <trkpt lat="43.44047" lon="6.60008">
        <ele>153.80000305176</ele>
        <time>2019-05-04T09:08:05.000Z</time>
      </trkpt>
      <trkpt lat="43.44047" lon="6.60031">
        <ele>152.60000610352</ele>
        <time>2019-05-04T09:08:07.000Z</time>
      </trkpt>
      <trkpt lat="43.44049" lon="6.60042">
        <ele>151.80000305176</ele>
        <time>2019-05-04T09:08:08.000Z</time>
      </trkpt>
      <trkpt lat="43.44051" lon="6.60053">
        <ele>151.19999694824</ele>
        <time>2019-05-04T09:08:09.000Z</time>
      </trkpt>
      <trkpt lat="43.44053" lon="6.60062">
        <ele>150.80000305176</ele>
        <time>2019-05-04T09:08:10.000Z</time>
      </trkpt>
      <trkpt lat="43.44058" lon="6.6008">
        <ele>150.19999694824</ele>
        <time>2019-05-04T09:08:12.000Z</time>
      </trkpt>
      <trkpt lat="43.44057" lon="6.601">
        <ele>150</ele>
        <time>2019-05-04T09:08:15.000Z</time>
      </trkpt>
      <trkpt lat="43.44057" lon="6.60121">
        <ele>149.19999694824</ele>
        <time>2019-05-04T09:08:18.000Z</time>
      </trkpt>
      <trkpt lat="43.44056" lon="6.6015">
        <ele>148.60000610352</ele>
        <time>2019-05-04T09:08:22.000Z</time>
      </trkpt>
      <trkpt lat="43.44054" lon="6.60166">
        <ele>148.39999389648</ele>
        <time>2019-05-04T09:08:24.000Z</time>
      </trkpt>
      <trkpt lat="43.44052" lon="6.60172">
        <ele>148.19999694824</ele>
        <time>2019-05-04T09:08:25.000Z</time>
      </trkpt>
      <trkpt lat="43.4405" lon="6.60177">
        <ele>148.19999694824</ele>
        <time>2019-05-04T09:08:26.000Z</time>
      </trkpt>
      <trkpt lat="43.44046" lon="6.60182">
        <ele>147.39999389648</ele>
        <time>2019-05-04T09:08:28.000Z</time>
      </trkpt>
      <trkpt lat="43.44045" lon="6.60183">
        <ele>147.19999694824</ele>
        <time>2019-05-04T09:08:29.000Z</time>
      </trkpt>
      <trkpt lat="43.44044" lon="6.60183">
        <ele>146.60000610352</ele>
        <time>2019-05-04T09:08:33.000Z</time>
      </trkpt>
      <trkpt lat="43.44043" lon="6.60183">
        <ele>146.19999694824</ele>
        <time>2019-05-04T09:08:43.000Z</time>
      </trkpt>
      <trkpt lat="43.44041" lon="6.60183">
        <ele>146.19999694824</ele>
        <time>2019-05-04T09:08:44.000Z</time>
      </trkpt>
      <trkpt lat="43.44038" lon="6.60182">
        <ele>146.19999694824</ele>
        <time>2019-05-04T09:08:46.000Z</time>
      </trkpt>
      <trkpt lat="43.44031" lon="6.60179">
        <ele>146</ele>
        <time>2019-05-04T09:08:49.000Z</time>
      </trkpt>
      <trkpt lat="43.44027" lon="6.60173">
        <ele>146</ele>
        <time>2019-05-04T09:08:51.000Z</time>
      </trkpt>
      <trkpt lat="43.44027" lon="6.60166">
        <ele>146.19999694824</ele>
        <time>2019-05-04T09:08:53.000Z</time>
      </trkpt>
      <trkpt lat="43.4403" lon="6.60156">
        <ele>146.39999389648</ele>
        <time>2019-05-04T09:08:57.000Z</time>
      </trkpt>
      <trkpt lat="43.44028" lon="6.60149">
        <ele>146.80000305176</ele>
        <time>2019-05-04T09:09:00.000Z</time>
      </trkpt>
      <trkpt lat="43.44022" lon="6.6013">
        <ele>146.19999694824</ele>
        <time>2019-05-04T09:09:04.000Z</time>
      </trkpt>
      <trkpt lat="43.44012" lon="6.60121">
        <ele>144.80000305176</ele>
        <time>2019-05-04T09:09:07.000Z</time>
      </trkpt>
      <trkpt lat="43.44009" lon="6.60121">
        <ele>144.39999389648</ele>
        <time>2019-05-04T09:09:08.000Z</time>
      </trkpt>
      <trkpt lat="43.44001" lon="6.60123">
        <ele>143.80000305176</ele>
        <time>2019-05-04T09:09:10.000Z</time>
      </trkpt>
      <trkpt lat="43.43992" lon="6.60127">
        <ele>143.19999694824</ele>
        <time>2019-05-04T09:09:12.000Z</time>
      </trkpt>
      <trkpt lat="43.43986" lon="6.60128">
        <ele>142.60000610352</ele>
        <time>2019-05-04T09:09:13.000Z</time>
      </trkpt>
      <trkpt lat="43.43974" lon="6.60124">
        <ele>141.80000305176</ele>
        <time>2019-05-04T09:09:15.000Z</time>
      </trkpt>
      <trkpt lat="43.43967" lon="6.60123">
        <ele>141</ele>
        <time>2019-05-04T09:09:16.000Z</time>
      </trkpt>
      <trkpt lat="43.4396" lon="6.60121">
        <ele>140</ele>
        <time>2019-05-04T09:09:17.000Z</time>
      </trkpt>
      <trkpt lat="43.43954" lon="6.60121">
        <ele>139</ele>
        <time>2019-05-04T09:09:18.000Z</time>
      </trkpt>
      <trkpt lat="43.43948" lon="6.60121">
        <ele>138</ele>
        <time>2019-05-04T09:09:19.000Z</time>
      </trkpt>
      <trkpt lat="43.43935" lon="6.60119">
        <ele>137</ele>
        <time>2019-05-04T09:09:21.000Z</time>
      </trkpt>
      <trkpt lat="43.43924" lon="6.60111">
        <ele>136</ele>
        <time>2019-05-04T09:09:23.000Z</time>
      </trkpt>
      <trkpt lat="43.43919" lon="6.60104">
        <ele>136</ele>
        <time>2019-05-04T09:09:24.000Z</time>
      </trkpt>
      <trkpt lat="43.43917" lon="6.60096">
        <ele>135.60000610352</ele>
        <time>2019-05-04T09:09:25.000Z</time>
      </trkpt>
      <trkpt lat="43.43915" lon="6.60079">
        <ele>134.60000610352</ele>
        <time>2019-05-04T09:09:27.000Z</time>
      </trkpt>
      <trkpt lat="43.43916" lon="6.60072">
        <ele>134</ele>
        <time>2019-05-04T09:09:28.000Z</time>
      </trkpt>
      <trkpt lat="43.43916" lon="6.60056">
        <ele>132.80000305176</ele>
        <time>2019-05-04T09:09:30.000Z</time>
      </trkpt>
      <trkpt lat="43.43915" lon="6.6004">
        <ele>132.39999389648</ele>
        <time>2019-05-04T09:09:32.000Z</time>
      </trkpt>
      <trkpt lat="43.4391" lon="6.6001">
        <ele>132</ele>
        <time>2019-05-04T09:09:36.000Z</time>
      </trkpt>
      <trkpt lat="43.43906" lon="6.59995">
        <ele>132</ele>
        <time>2019-05-04T09:09:39.000Z</time>
      </trkpt>
      <trkpt lat="43.43903" lon="6.59979">
        <ele>133.60000610352</ele>
        <time>2019-05-04T09:09:44.000Z</time>
      </trkpt>
      <trkpt lat="43.43898" lon="6.59974">
        <ele>134.19999694824</ele>
        <time>2019-05-04T09:09:46.000Z</time>
      </trkpt>
      <trkpt lat="43.4389" lon="6.59973">
        <ele>134</ele>
        <time>2019-05-04T09:09:48.000Z</time>
      </trkpt>
      <trkpt lat="43.43882" lon="6.59975">
        <ele>133.60000610352</ele>
        <time>2019-05-04T09:09:50.000Z</time>
      </trkpt>
      <trkpt lat="43.43872" lon="6.59981">
        <ele>133</ele>
        <time>2019-05-04T09:09:53.000Z</time>
      </trkpt>
      <trkpt lat="43.43864" lon="6.59995">
        <ele>134</ele>
        <time>2019-05-04T09:09:57.000Z</time>
      </trkpt>
      <trkpt lat="43.43863" lon="6.59998">
        <ele>134.19999694824</ele>
        <time>2019-05-04T09:09:58.000Z</time>
      </trkpt>
      <trkpt lat="43.43859" lon="6.60014">
        <ele>135.19999694824</ele>
        <time>2019-05-04T09:10:02.000Z</time>
      </trkpt>
      <trkpt lat="43.43859" lon="6.6002">
        <ele>135.39999389648</ele>
        <time>2019-05-04T09:10:03.000Z</time>
      </trkpt>
      <trkpt lat="43.43857" lon="6.60031">
        <ele>135.60000610352</ele>
        <time>2019-05-04T09:10:05.000Z</time>
      </trkpt>
      <trkpt lat="43.43854" lon="6.60049">
        <ele>135.60000610352</ele>
        <time>2019-05-04T09:10:08.000Z</time>
      </trkpt>
      <trkpt lat="43.43852" lon="6.6007">
        <ele>136.39999389648</ele>
        <time>2019-05-04T09:10:12.000Z</time>
      </trkpt>
      <trkpt lat="43.43849" lon="6.60085">
        <ele>137</ele>
        <time>2019-05-04T09:10:15.000Z</time>
      </trkpt>
      <trkpt lat="43.43847" lon="6.60095">
        <ele>137.39999389648</ele>
        <time>2019-05-04T09:10:17.000Z</time>
      </trkpt>
      <trkpt lat="43.43844" lon="6.60118">
        <ele>138.60000610352</ele>
        <time>2019-05-04T09:10:22.000Z</time>
      </trkpt>
      <trkpt lat="43.43843" lon="6.60134">
        <ele>139.60000610352</ele>
        <time>2019-05-04T09:10:26.000Z</time>
      </trkpt>
      <trkpt lat="43.43842" lon="6.60142">
        <ele>140.19999694824</ele>
        <time>2019-05-04T09:10:28.000Z</time>
      </trkpt>
      <trkpt lat="43.43841" lon="6.60149">
        <ele>141</ele>
        <time>2019-05-04T09:10:30.000Z</time>
      </trkpt>
      <trkpt lat="43.43839" lon="6.60162">
        <ele>141.80000305176</ele>
        <time>2019-05-04T09:10:33.000Z</time>
      </trkpt>
      <trkpt lat="43.43838" lon="6.60165">
        <ele>142.39999389648</ele>
        <time>2019-05-04T09:10:34.000Z</time>
      </trkpt>
      <trkpt lat="43.43833" lon="6.60179">
        <ele>143.39999389648</ele>
        <time>2019-05-04T09:10:38.000Z</time>
      </trkpt>
      <trkpt lat="43.43829" lon="6.60188">
        <ele>144.39999389648</ele>
        <time>2019-05-04T09:10:41.000Z</time>
      </trkpt>
      <trkpt lat="43.43827" lon="6.6019">
        <ele>144.60000610352</ele>
        <time>2019-05-04T09:10:42.000Z</time>
      </trkpt>
      <trkpt lat="43.43811" lon="6.60208">
        <ele>145.80000305176</ele>
        <time>2019-05-04T09:10:49.000Z</time>
      </trkpt>
      <trkpt lat="43.43804" lon="6.60219">
        <ele>146.39999389648</ele>
        <time>2019-05-04T09:10:53.000Z</time>
      </trkpt>
      <trkpt lat="43.438" lon="6.60225">
        <ele>147</ele>
        <time>2019-05-04T09:10:55.000Z</time>
      </trkpt>
      <trkpt lat="43.43794" lon="6.60233">
        <ele>148</ele>
        <time>2019-05-04T09:10:58.000Z</time>
      </trkpt>
      <trkpt lat="43.43792" lon="6.60235">
        <ele>148.60000610352</ele>
        <time>2019-05-04T09:10:59.000Z</time>
      </trkpt>
      <trkpt lat="43.4379" lon="6.60242">
        <ele>149.19999694824</ele>
        <time>2019-05-04T09:11:01.000Z</time>
      </trkpt>
      <trkpt lat="43.43788" lon="6.60254">
        <ele>150</ele>
        <time>2019-05-04T09:11:04.000Z</time>
      </trkpt>
      <trkpt lat="43.4379" lon="6.60274">
        <ele>150.19999694824</ele>
        <time>2019-05-04T09:11:08.000Z</time>
      </trkpt>
      <trkpt lat="43.43791" lon="6.60286">
        <ele>150.39999389648</ele>
        <time>2019-05-04T09:11:10.000Z</time>
      </trkpt>
      <trkpt lat="43.4379" lon="6.60293">
        <ele>150.39999389648</ele>
        <time>2019-05-04T09:11:11.000Z</time>
      </trkpt>
      <trkpt lat="43.43789" lon="6.60305">
        <ele>150.19999694824</ele>
        <time>2019-05-04T09:11:13.000Z</time>
      </trkpt>
      <trkpt lat="43.43787" lon="6.60341">
        <ele>150.19999694824</ele>
        <time>2019-05-04T09:11:19.000Z</time>
      </trkpt>
      <trkpt lat="43.43781" lon="6.60364">
        <ele>151</ele>
        <time>2019-05-04T09:11:24.000Z</time>
      </trkpt>
      <trkpt lat="43.4378" lon="6.60369">
        <ele>151.19999694824</ele>
        <time>2019-05-04T09:11:25.000Z</time>
      </trkpt>
      <trkpt lat="43.43778" lon="6.60375">
        <ele>151.19999694824</ele>
        <time>2019-05-04T09:11:26.000Z</time>
      </trkpt>
      <trkpt lat="43.43776" lon="6.60395">
        <ele>150.80000305176</ele>
        <time>2019-05-04T09:11:29.000Z</time>
      </trkpt>
      <trkpt lat="43.43774" lon="6.60413">
        <ele>150</ele>
        <time>2019-05-04T09:11:32.000Z</time>
      </trkpt>
      <trkpt lat="43.43773" lon="6.6043">
        <ele>149.39999389648</ele>
        <time>2019-05-04T09:11:35.000Z</time>
      </trkpt>
      <trkpt lat="43.43767" lon="6.60453">
        <ele>148.80000305176</ele>
        <time>2019-05-04T09:11:39.000Z</time>
      </trkpt>
      <trkpt lat="43.43764" lon="6.60464">
        <ele>147.80000305176</ele>
        <time>2019-05-04T09:11:41.000Z</time>
      </trkpt>
      <trkpt lat="43.4376" lon="6.60476">
        <ele>147</ele>
        <time>2019-05-04T09:11:43.000Z</time>
      </trkpt>
      <trkpt lat="43.43758" lon="6.60482">
        <ele>146.60000610352</ele>
        <time>2019-05-04T09:11:44.000Z</time>
      </trkpt>
      <trkpt lat="43.43758" lon="6.60487">
        <ele>146.39999389648</ele>
        <time>2019-05-04T09:11:45.000Z</time>
      </trkpt>
      <trkpt lat="43.43755" lon="6.60505">
        <ele>145.60000610352</ele>
        <time>2019-05-04T09:11:48.000Z</time>
      </trkpt>
      <trkpt lat="43.43754" lon="6.60511">
        <ele>145.39999389648</ele>
        <time>2019-05-04T09:11:49.000Z</time>
      </trkpt>
      <trkpt lat="43.43752" lon="6.60517">
        <ele>145.19999694824</ele>
        <time>2019-05-04T09:11:50.000Z</time>
      </trkpt>
      <trkpt lat="43.43746" lon="6.60547">
        <ele>144.19999694824</ele>
        <time>2019-05-04T09:11:55.000Z</time>
      </trkpt>
      <trkpt lat="43.43743" lon="6.60559">
        <ele>143.80000305176</ele>
        <time>2019-05-04T09:11:57.000Z</time>
      </trkpt>
      <trkpt lat="43.43733" lon="6.60592">
        <ele>143.80000305176</ele>
        <time>2019-05-04T09:12:03.000Z</time>
      </trkpt>
      <trkpt lat="43.43722" lon="6.60616">
        <ele>143</ele>
        <time>2019-05-04T09:12:07.000Z</time>
      </trkpt>
      <trkpt lat="43.43716" lon="6.60627">
        <ele>142.60000610352</ele>
        <time>2019-05-04T09:12:09.000Z</time>
      </trkpt>
      <trkpt lat="43.43713" lon="6.60631">
        <ele>142.80000305176</ele>
        <time>2019-05-04T09:12:10.000Z</time>
      </trkpt>
      <trkpt lat="43.437" lon="6.60642">
        <ele>142.60000610352</ele>
        <time>2019-05-04T09:12:13.000Z</time>
      </trkpt>
      <trkpt lat="43.43687" lon="6.6065">
        <ele>142.39999389648</ele>
        <time>2019-05-04T09:12:16.000Z</time>
      </trkpt>
      <trkpt lat="43.43664" lon="6.6066">
        <ele>142.60000610352</ele>
        <time>2019-05-04T09:12:21.000Z</time>
      </trkpt>
      <trkpt lat="43.4366" lon="6.60663">
        <ele>142.80000305176</ele>
        <time>2019-05-04T09:12:22.000Z</time>
      </trkpt>
      <trkpt lat="43.43643" lon="6.60683">
        <ele>142.60000610352</ele>
        <time>2019-05-04T09:12:27.000Z</time>
      </trkpt>
      <trkpt lat="43.43642" lon="6.60697">
        <ele>142</ele>
        <time>2019-05-04T09:12:29.000Z</time>
      </trkpt>
      <trkpt lat="43.43642" lon="6.60704">
        <ele>142</ele>
        <time>2019-05-04T09:12:30.000Z</time>
      </trkpt>
      <trkpt lat="43.43639" lon="6.60722">
        <ele>141</ele>
        <time>2019-05-04T09:12:32.000Z</time>
      </trkpt>
      <trkpt lat="43.43635" lon="6.60729">
        <ele>140.39999389648</ele>
        <time>2019-05-04T09:12:33.000Z</time>
      </trkpt>
      <trkpt lat="43.43624" lon="6.60738">
        <ele>138.60000610352</ele>
        <time>2019-05-04T09:12:35.000Z</time>
      </trkpt>
      <trkpt lat="43.43616" lon="6.60741">
        <ele>137.80000305176</ele>
        <time>2019-05-04T09:12:36.000Z</time>
      </trkpt>
      <trkpt lat="43.4361" lon="6.60745">
        <ele>137</ele>
        <time>2019-05-04T09:12:37.000Z</time>
      </trkpt>
      <trkpt lat="43.436" lon="6.60757">
        <ele>134.80000305176</ele>
        <time>2019-05-04T09:12:39.000Z</time>
      </trkpt>
      <trkpt lat="43.43597" lon="6.60772">
        <ele>133.39999389648</ele>
        <time>2019-05-04T09:12:41.000Z</time>
      </trkpt>
      <trkpt lat="43.43598" lon="6.60781">
        <ele>132.60000610352</ele>
        <time>2019-05-04T09:12:42.000Z</time>
      </trkpt>
      <trkpt lat="43.43599" lon="6.6079">
        <ele>132.19999694824</ele>
        <time>2019-05-04T09:12:43.000Z</time>
      </trkpt>
      <trkpt lat="43.43601" lon="6.60809">
        <ele>131.39999389648</ele>
        <time>2019-05-04T09:12:45.000Z</time>
      </trkpt>
      <trkpt lat="43.43601" lon="6.60819">
        <ele>130.80000305176</ele>
        <time>2019-05-04T09:12:46.000Z</time>
      </trkpt>
      <trkpt lat="43.43601" lon="6.60831">
        <ele>130.60000610352</ele>
        <time>2019-05-04T09:12:47.000Z</time>
      </trkpt>
      <trkpt lat="43.43599" lon="6.60842">
        <ele>129.60000610352</ele>
        <time>2019-05-04T09:12:48.000Z</time>
      </trkpt>
      <trkpt lat="43.43596" lon="6.60853">
        <ele>128.80000305176</ele>
        <time>2019-05-04T09:12:49.000Z</time>
      </trkpt>
      <trkpt lat="43.43594" lon="6.60864">
        <ele>127.80000305176</ele>
        <time>2019-05-04T09:12:50.000Z</time>
      </trkpt>
      <trkpt lat="43.43587" lon="6.60885">
        <ele>125.80000305176</ele>
        <time>2019-05-04T09:12:52.000Z</time>
      </trkpt>
      <trkpt lat="43.43585" lon="6.60893">
        <ele>125.19999694824</ele>
        <time>2019-05-04T09:12:53.000Z</time>
      </trkpt>
      <trkpt lat="43.43584" lon="6.60898">
        <ele>124.59999847412</ele>
        <time>2019-05-04T09:12:54.000Z</time>
      </trkpt>
      <trkpt lat="43.43585" lon="6.60906">
        <ele>124.19999694824</ele>
        <time>2019-05-04T09:12:56.000Z</time>
      </trkpt>
      <trkpt lat="43.43585" lon="6.60908">
        <ele>124.40000152588</ele>
        <time>2019-05-04T09:13:00.000Z</time>
      </trkpt>
      <trkpt lat="43.43585" lon="6.6091">
        <ele>124.59999847412</ele>
        <time>2019-05-04T09:13:12.000Z</time>
      </trkpt>
      <trkpt lat="43.43584" lon="6.60911">
        <ele>124.59999847412</ele>
        <time>2019-05-04T09:13:23.000Z</time>
      </trkpt>
      <trkpt lat="43.43585" lon="6.60911">
        <ele>124.59999847412</ele>
        <time>2019-05-04T09:13:36.000Z</time>
      </trkpt>
      <trkpt lat="43.43585" lon="6.60912">
        <ele>124.59999847412</ele>
        <time>2019-05-04T09:13:51.000Z</time>
      </trkpt>
      <trkpt lat="43.43584" lon="6.60912">
        <ele>124.59999847412</ele>
        <time>2019-05-04T09:14:03.000Z</time>
      </trkpt>
      <trkpt lat="43.43584" lon="6.60912">
        <ele>124.40000152588</ele>
        <time>2019-05-04T09:14:13.000Z</time>
      </trkpt>
      <trkpt lat="43.43579" lon="6.60903">
        <ele>124.40000152588</ele>
        <time>2019-05-04T09:14:18.000Z</time>
      </trkpt>
      <trkpt lat="43.43565" lon="6.60889">
        <ele>124</ele>
        <time>2019-05-04T09:14:23.000Z</time>
      </trkpt>
      <trkpt lat="43.43547" lon="6.60879">
        <ele>124.40000152588</ele>
        <time>2019-05-04T09:14:29.000Z</time>
      </trkpt>
      <trkpt lat="43.43546" lon="6.60878">
        <ele>124</ele>
        <time>2019-05-04T09:14:32.000Z</time>
      </trkpt>
      <trkpt lat="43.43546" lon="6.60878">
        <ele>123.40000152588</ele>
        <time>2019-05-04T09:14:36.000Z</time>
      </trkpt>
      <trkpt lat="43.43546" lon="6.60877">
        <ele>123.59999847412</ele>
        <time>2019-05-04T09:14:46.000Z</time>
      </trkpt>
      <trkpt lat="43.43546" lon="6.60876">
        <ele>123.40000152588</ele>
        <time>2019-05-04T09:14:51.000Z</time>
      </trkpt>
      <trkpt lat="43.43546" lon="6.60877">
        <ele>123.40000152588</ele>
        <time>2019-05-04T09:14:57.000Z</time>
      </trkpt>
      <trkpt lat="43.43546" lon="6.60875">
        <ele>123.59999847412</ele>
        <time>2019-05-04T09:15:09.000Z</time>
      </trkpt>
      <trkpt lat="43.43547" lon="6.60871">
        <ele>123.40000152588</ele>
        <time>2019-05-04T09:15:15.000Z</time>
      </trkpt>
      <trkpt lat="43.43546" lon="6.60869">
        <ele>123.40000152588</ele>
        <time>2019-05-04T09:15:16.000Z</time>
      </trkpt>
      <trkpt lat="43.43537" lon="6.6086">
        <ele>123.40000152588</ele>
        <time>2019-05-04T09:15:20.000Z</time>
      </trkpt>
      <trkpt lat="43.43534" lon="6.60857">
        <ele>123.40000152588</ele>
        <time>2019-05-04T09:15:21.000Z</time>
      </trkpt>
      <trkpt lat="43.43519" lon="6.60852">
        <ele>124</ele>
        <time>2019-05-04T09:15:26.000Z</time>
      </trkpt>
      <trkpt lat="43.43514" lon="6.60852">
        <ele>124.40000152588</ele>
        <time>2019-05-04T09:15:27.000Z</time>
      </trkpt>
      <trkpt lat="43.4351" lon="6.60853">
        <ele>124.40000152588</ele>
        <time>2019-05-04T09:15:28.000Z</time>
      </trkpt>
      <trkpt lat="43.43501" lon="6.60856">
        <ele>124.40000152588</ele>
        <time>2019-05-04T09:15:30.000Z</time>
      </trkpt>
      <trkpt lat="43.43487" lon="6.60854">
        <ele>124.59999847412</ele>
        <time>2019-05-04T09:15:34.000Z</time>
      </trkpt>
      <trkpt lat="43.43475" lon="6.60838">
        <ele>125.19999694824</ele>
        <time>2019-05-04T09:15:38.000Z</time>
      </trkpt>
      <trkpt lat="43.43464" lon="6.60816">
        <ele>124.80000305176</ele>
        <time>2019-05-04T09:15:41.000Z</time>
      </trkpt>
      <trkpt lat="43.43461" lon="6.60809">
        <ele>124</ele>
        <time>2019-05-04T09:15:42.000Z</time>
      </trkpt>
      <trkpt lat="43.43457" lon="6.60804">
        <ele>123</ele>
        <time>2019-05-04T09:15:43.000Z</time>
      </trkpt>
      <trkpt lat="43.43448" lon="6.60799">
        <ele>121.80000305176</ele>
        <time>2019-05-04T09:15:45.000Z</time>
      </trkpt>
      <trkpt lat="43.43438" lon="6.60796">
        <ele>122</ele>
        <time>2019-05-04T09:15:47.000Z</time>
      </trkpt>
      <trkpt lat="43.43427" lon="6.60794">
        <ele>122.80000305176</ele>
        <time>2019-05-04T09:15:50.000Z</time>
      </trkpt>
      <trkpt lat="43.43413" lon="6.60793">
        <ele>124</ele>
        <time>2019-05-04T09:15:54.000Z</time>
      </trkpt>
      <trkpt lat="43.43403" lon="6.60793">
        <ele>124.59999847412</ele>
        <time>2019-05-04T09:15:57.000Z</time>
      </trkpt>
      <trkpt lat="43.43382" lon="6.60794">
        <ele>124.40000152588</ele>
        <time>2019-05-04T09:16:01.000Z</time>
      </trkpt>
      <trkpt lat="43.43376" lon="6.60793">
        <ele>123.59999847412</ele>
        <time>2019-05-04T09:16:02.000Z</time>
      </trkpt>
      <trkpt lat="43.4337" lon="6.60791">
        <ele>122.59999847412</ele>
        <time>2019-05-04T09:16:03.000Z</time>
      </trkpt>
      <trkpt lat="43.43365" lon="6.60787">
        <ele>121.80000305176</ele>
        <time>2019-05-04T09:16:04.000Z</time>
      </trkpt>
      <trkpt lat="43.4336" lon="6.60783">
        <ele>120.80000305176</ele>
        <time>2019-05-04T09:16:05.000Z</time>
      </trkpt>
      <trkpt lat="43.43356" lon="6.60779">
        <ele>119.80000305176</ele>
        <time>2019-05-04T09:16:06.000Z</time>
      </trkpt>
      <trkpt lat="43.43353" lon="6.60775">
        <ele>119.40000152588</ele>
        <time>2019-05-04T09:16:07.000Z</time>
      </trkpt>
      <trkpt lat="43.43349" lon="6.60772">
        <ele>119.40000152588</ele>
        <time>2019-05-04T09:16:08.000Z</time>
      </trkpt>
      <trkpt lat="43.43343" lon="6.60767">
        <ele>118.19999694824</ele>
        <time>2019-05-04T09:16:10.000Z</time>
      </trkpt>
      <trkpt lat="43.43333" lon="6.6076">
        <ele>116.40000152588</ele>
        <time>2019-05-04T09:16:12.000Z</time>
      </trkpt>
      <trkpt lat="43.43329" lon="6.60757">
        <ele>114</ele>
        <time>2019-05-04T09:16:13.000Z</time>
      </trkpt>
      <trkpt lat="43.43325" lon="6.60753">
        <ele>112.59999847412</ele>
        <time>2019-05-04T09:16:14.000Z</time>
      </trkpt>
      <trkpt lat="43.43321" lon="6.60748">
        <ele>111.19999694824</ele>
        <time>2019-05-04T09:16:15.000Z</time>
      </trkpt>
      <trkpt lat="43.43319" lon="6.60744">
        <ele>109.40000152588</ele>
        <time>2019-05-04T09:16:16.000Z</time>
      </trkpt>
      <trkpt lat="43.43317" lon="6.60738">
        <ele>108.19999694824</ele>
        <time>2019-05-04T09:16:17.000Z</time>
      </trkpt>
      <trkpt lat="43.43307" lon="6.60729">
        <ele>107.19999694824</ele>
        <time>2019-05-04T09:16:20.000Z</time>
      </trkpt>
      <trkpt lat="43.43302" lon="6.60728">
        <ele>106.80000305176</ele>
        <time>2019-05-04T09:16:21.000Z</time>
      </trkpt>
      <trkpt lat="43.43291" lon="6.60726">
        <ele>105.59999847412</ele>
        <time>2019-05-04T09:16:23.000Z</time>
      </trkpt>
      <trkpt lat="43.43286" lon="6.60723">
        <ele>104</ele>
        <time>2019-05-04T09:16:24.000Z</time>
      </trkpt>
      <trkpt lat="43.43282" lon="6.6072">
        <ele>103</ele>
        <time>2019-05-04T09:16:25.000Z</time>
      </trkpt>
      <trkpt lat="43.43277" lon="6.60717">
        <ele>101.80000305176</ele>
        <time>2019-05-04T09:16:26.000Z</time>
      </trkpt>
      <trkpt lat="43.43274" lon="6.60715">
        <ele>100.59999847412</ele>
        <time>2019-05-04T09:16:27.000Z</time>
      </trkpt>
      <trkpt lat="43.43273" lon="6.60713">
        <ele>99.599998474121</ele>
        <time>2019-05-04T09:16:28.000Z</time>
      </trkpt>
      <trkpt lat="43.43272" lon="6.60712">
        <ele>99.199996948242</ele>
        <time>2019-05-04T09:16:29.000Z</time>
      </trkpt>
      <trkpt lat="43.43271" lon="6.60712">
        <ele>97.599998474121</ele>
        <time>2019-05-04T09:16:31.000Z</time>
      </trkpt>
      <trkpt lat="43.4327" lon="6.60712">
        <ele>96.400001525879</ele>
        <time>2019-05-04T09:16:33.000Z</time>
      </trkpt>
      <trkpt lat="43.4327" lon="6.60713">
        <ele>96</ele>
        <time>2019-05-04T09:16:40.000Z</time>
      </trkpt>
      <trkpt lat="43.43269" lon="6.60715">
        <ele>96.199996948242</ele>
        <time>2019-05-04T09:16:55.000Z</time>
      </trkpt>
      <trkpt lat="43.43268" lon="6.60716">
        <ele>96.199996948242</ele>
        <time>2019-05-04T09:16:56.000Z</time>
      </trkpt>
      <trkpt lat="43.4326" lon="6.60718">
        <ele>95.599998474121</ele>
        <time>2019-05-04T09:16:59.000Z</time>
      </trkpt>
      <trkpt lat="43.43258" lon="6.60719">
        <ele>95.199996948242</ele>
        <time>2019-05-04T09:17:00.000Z</time>
      </trkpt>
      <trkpt lat="43.43254" lon="6.60723">
        <ele>93.599998474121</ele>
        <time>2019-05-04T09:17:02.000Z</time>
      </trkpt>
      <trkpt lat="43.43252" lon="6.60727">
        <ele>92.800003051758</ele>
        <time>2019-05-04T09:17:03.000Z</time>
      </trkpt>
      <trkpt lat="43.4325" lon="6.60731">
        <ele>92.199996948242</ele>
        <time>2019-05-04T09:17:04.000Z</time>
      </trkpt>
      <trkpt lat="43.43243" lon="6.60745">
        <ele>90.800003051758</ele>
        <time>2019-05-04T09:17:07.000Z</time>
      </trkpt>
      <trkpt lat="43.4324" lon="6.60751">
        <ele>90</ele>
        <time>2019-05-04T09:17:08.000Z</time>
      </trkpt>
      <trkpt lat="43.43236" lon="6.60756">
        <ele>88.800003051758</ele>
        <time>2019-05-04T09:17:09.000Z</time>
      </trkpt>
      <trkpt lat="43.43231" lon="6.60758">
        <ele>87.599998474121</ele>
        <time>2019-05-04T09:17:10.000Z</time>
      </trkpt>
      <trkpt lat="43.43225" lon="6.60758">
        <ele>86.800003051758</ele>
        <time>2019-05-04T09:17:11.000Z</time>
      </trkpt>
      <trkpt lat="43.4322" lon="6.60756">
        <ele>86.199996948242</ele>
        <time>2019-05-04T09:17:12.000Z</time>
      </trkpt>
      <trkpt lat="43.43214" lon="6.60756">
        <ele>85.199996948242</ele>
        <time>2019-05-04T09:17:14.000Z</time>
      </trkpt>
      <trkpt lat="43.43206" lon="6.60763">
        <ele>83.800003051758</ele>
        <time>2019-05-04T09:17:16.000Z</time>
      </trkpt>
      <trkpt lat="43.43202" lon="6.60766">
        <ele>82.599998474121</ele>
        <time>2019-05-04T09:17:17.000Z</time>
      </trkpt>
      <trkpt lat="43.43197" lon="6.60769">
        <ele>82</ele>
        <time>2019-05-04T09:17:18.000Z</time>
      </trkpt>
      <trkpt lat="43.43192" lon="6.6077">
        <ele>81</ele>
        <time>2019-05-04T09:17:19.000Z</time>
      </trkpt>
      <trkpt lat="43.43188" lon="6.60769">
        <ele>80.800003051758</ele>
        <time>2019-05-04T09:17:20.000Z</time>
      </trkpt>
      <trkpt lat="43.43181" lon="6.60771">
        <ele>79.599998474121</ele>
        <time>2019-05-04T09:17:22.000Z</time>
      </trkpt>
      <trkpt lat="43.43173" lon="6.60774">
        <ele>77.800003051758</ele>
        <time>2019-05-04T09:17:24.000Z</time>
      </trkpt>
      <trkpt lat="43.43167" lon="6.60772">
        <ele>76.599998474121</ele>
        <time>2019-05-04T09:17:26.000Z</time>
      </trkpt>
      <trkpt lat="43.43163" lon="6.60771">
        <ele>76.400001525879</ele>
        <time>2019-05-04T09:17:27.000Z</time>
      </trkpt>
      <trkpt lat="43.43159" lon="6.6077">
        <ele>76.199996948242</ele>
        <time>2019-05-04T09:17:28.000Z</time>
      </trkpt>
      <trkpt lat="43.43154" lon="6.60768">
        <ele>76.199996948242</ele>
        <time>2019-05-04T09:17:29.000Z</time>
      </trkpt>
      <trkpt lat="43.43142" lon="6.60763">
        <ele>75.199996948242</ele>
        <time>2019-05-04T09:17:32.000Z</time>
      </trkpt>
      <trkpt lat="43.43138" lon="6.60761">
        <ele>74.599998474121</ele>
        <time>2019-05-04T09:17:33.000Z</time>
      </trkpt>
      <trkpt lat="43.43135" lon="6.60758">
        <ele>74</ele>
        <time>2019-05-04T09:17:34.000Z</time>
      </trkpt>
      <trkpt lat="43.43129" lon="6.60752">
        <ele>72.599998474121</ele>
        <time>2019-05-04T09:17:36.000Z</time>
      </trkpt>
      <trkpt lat="43.43129" lon="6.60751">
        <ele>72.199996948242</ele>
        <time>2019-05-04T09:17:37.000Z</time>
      </trkpt>
      <trkpt lat="43.43129" lon="6.60751">
        <ele>72.199996948242</ele>
        <time>2019-05-04T09:17:40.000Z</time>
      </trkpt>
      <trkpt lat="43.43128" lon="6.60752">
        <ele>73.199996948242</ele>
        <time>2019-05-04T09:17:45.000Z</time>
      </trkpt>
      <trkpt lat="43.43128" lon="6.60752">
        <ele>72.599998474121</ele>
        <time>2019-05-04T09:17:52.000Z</time>
      </trkpt>
      <trkpt lat="43.43127" lon="6.60752">
        <ele>72.800003051758</ele>
        <time>2019-05-04T09:17:58.000Z</time>
      </trkpt>
      <trkpt lat="43.43127" lon="6.60752">
        <ele>72.400001525879</ele>
        <time>2019-05-04T09:18:12.000Z</time>
      </trkpt>
      <trkpt lat="43.43126" lon="6.6075">
        <ele>72.400001525879</ele>
        <time>2019-05-04T09:18:28.000Z</time>
      </trkpt>
      <trkpt lat="43.43121" lon="6.60747">
        <ele>72.400001525879</ele>
        <time>2019-05-04T09:18:32.000Z</time>
      </trkpt>
      <trkpt lat="43.43118" lon="6.60747">
        <ele>72.199996948242</ele>
        <time>2019-05-04T09:18:34.000Z</time>
      </trkpt>
      <trkpt lat="43.43114" lon="6.6075">
        <ele>71.599998474121</ele>
        <time>2019-05-04T09:18:39.000Z</time>
      </trkpt>
      <trkpt lat="43.43107" lon="6.60751">
        <ele>70.800003051758</ele>
        <time>2019-05-04T09:18:46.000Z</time>
      </trkpt>
      <trkpt lat="43.431" lon="6.60753">
        <ele>70.599998474121</ele>
        <time>2019-05-04T09:18:49.000Z</time>
      </trkpt>
      <trkpt lat="43.43094" lon="6.60753">
        <ele>70.800003051758</ele>
        <time>2019-05-04T09:18:52.000Z</time>
      </trkpt>
      <trkpt lat="43.43083" lon="6.60748">
        <ele>71.800003051758</ele>
        <time>2019-05-04T09:18:57.000Z</time>
      </trkpt>
      <trkpt lat="43.43081" lon="6.60746">
        <ele>72</ele>
        <time>2019-05-04T09:18:58.000Z</time>
      </trkpt>
      <trkpt lat="43.4307" lon="6.60739">
        <ele>72.599998474121</ele>
        <time>2019-05-04T09:19:03.000Z</time>
      </trkpt>
      <trkpt lat="43.43068" lon="6.60737">
        <ele>72.800003051758</ele>
        <time>2019-05-04T09:19:04.000Z</time>
      </trkpt>
      <trkpt lat="43.43055" lon="6.6073">
        <ele>73.199996948242</ele>
        <time>2019-05-04T09:19:09.000Z</time>
      </trkpt>
      <trkpt lat="43.43046" lon="6.60724">
        <ele>73.800003051758</ele>
        <time>2019-05-04T09:19:13.000Z</time>
      </trkpt>
      <trkpt lat="43.43038" lon="6.6072">
        <ele>74.199996948242</ele>
        <time>2019-05-04T09:19:16.000Z</time>
      </trkpt>
      <trkpt lat="43.43024" lon="6.60716">
        <ele>75</ele>
        <time>2019-05-04T09:19:21.000Z</time>
      </trkpt>
      <trkpt lat="43.43018" lon="6.60718">
        <ele>75.199996948242</ele>
        <time>2019-05-04T09:19:23.000Z</time>
      </trkpt>
      <trkpt lat="43.43003" lon="6.60728">
        <ele>76</ele>
        <time>2019-05-04T09:19:29.000Z</time>
      </trkpt>
      <trkpt lat="43.43001" lon="6.6073">
        <ele>76.199996948242</ele>
        <time>2019-05-04T09:19:30.000Z</time>
      </trkpt>
      <trkpt lat="43.4299" lon="6.6074">
        <ele>77</ele>
        <time>2019-05-04T09:19:35.000Z</time>
      </trkpt>
      <trkpt lat="43.42988" lon="6.60739">
        <ele>77.400001525879</ele>
        <time>2019-05-04T09:19:36.000Z</time>
      </trkpt>
      <trkpt lat="43.42985" lon="6.60726">
        <ele>78.199996948242</ele>
        <time>2019-05-04T09:19:40.000Z</time>
      </trkpt>
      <trkpt lat="43.42981" lon="6.6072">
        <ele>78.400001525879</ele>
        <time>2019-05-04T09:19:42.000Z</time>
      </trkpt>
      <trkpt lat="43.4297" lon="6.60709">
        <ele>78.599998474121</ele>
        <time>2019-05-04T09:19:46.000Z</time>
      </trkpt>
      <trkpt lat="43.4296" lon="6.60699">
        <ele>77.599998474121</ele>
        <time>2019-05-04T09:19:50.000Z</time>
      </trkpt>
      <trkpt lat="43.42956" lon="6.60696">
        <ele>77.199996948242</ele>
        <time>2019-05-04T09:19:52.000Z</time>
      </trkpt>
      <trkpt lat="43.4295" lon="6.60686">
        <ele>77.599998474121</ele>
        <time>2019-05-04T09:19:56.000Z</time>
      </trkpt>
      <trkpt lat="43.42944" lon="6.60683">
        <ele>78.400001525879</ele>
        <time>2019-05-04T09:19:59.000Z</time>
      </trkpt>
      <trkpt lat="43.42941" lon="6.60683">
        <ele>78.599998474121</ele>
        <time>2019-05-04T09:20:01.000Z</time>
      </trkpt>
      <trkpt lat="43.42937" lon="6.60683">
        <ele>79.400001525879</ele>
        <time>2019-05-04T09:20:05.000Z</time>
      </trkpt>
      <trkpt lat="43.42933" lon="6.60683">
        <ele>80</ele>
        <time>2019-05-04T09:20:08.000Z</time>
      </trkpt>
      <trkpt lat="43.42928" lon="6.60685">
        <ele>80.599998474121</ele>
        <time>2019-05-04T09:20:11.000Z</time>
      </trkpt>
      <trkpt lat="43.42921" lon="6.60685">
        <ele>81.599998474121</ele>
        <time>2019-05-04T09:20:15.000Z</time>
      </trkpt>
      <trkpt lat="43.4292" lon="6.60685">
        <ele>81.800003051758</ele>
        <time>2019-05-04T09:20:16.000Z</time>
      </trkpt>
      <trkpt lat="43.42913" lon="6.60686">
        <ele>82.400001525879</ele>
        <time>2019-05-04T09:20:20.000Z</time>
      </trkpt>
      <trkpt lat="43.42911" lon="6.60686">
        <ele>82.800003051758</ele>
        <time>2019-05-04T09:20:21.000Z</time>
      </trkpt>
      <trkpt lat="43.42903" lon="6.60682">
        <ele>83.400001525879</ele>
        <time>2019-05-04T09:20:26.000Z</time>
      </trkpt>
      <trkpt lat="43.42897" lon="6.6068">
        <ele>84</ele>
        <time>2019-05-04T09:20:29.000Z</time>
      </trkpt>
      <trkpt lat="43.42895" lon="6.6068">
        <ele>84.199996948242</ele>
        <time>2019-05-04T09:20:30.000Z</time>
      </trkpt>
      <trkpt lat="43.42892" lon="6.6068">
        <ele>84.400001525879</ele>
        <time>2019-05-04T09:20:31.000Z</time>
      </trkpt>
      <trkpt lat="43.42879" lon="6.60678">
        <ele>85</ele>
        <time>2019-05-04T09:20:37.000Z</time>
      </trkpt>
      <trkpt lat="43.42864" lon="6.60678">
        <ele>86.199996948242</ele>
        <time>2019-05-04T09:20:44.000Z</time>
      </trkpt>
      <trkpt lat="43.42863" lon="6.6068">
        <ele>86.400001525879</ele>
        <time>2019-05-04T09:20:45.000Z</time>
      </trkpt>
      <trkpt lat="43.42856" lon="6.60687">
        <ele>87.199996948242</ele>
        <time>2019-05-04T09:20:49.000Z</time>
      </trkpt>
      <trkpt lat="43.42852" lon="6.60688">
        <ele>87.400001525879</ele>
        <time>2019-05-04T09:20:51.000Z</time>
      </trkpt>
      <trkpt lat="43.42848" lon="6.60689">
        <ele>88.199996948242</ele>
        <time>2019-05-04T09:20:54.000Z</time>
      </trkpt>
      <trkpt lat="43.42846" lon="6.6069">
        <ele>88.400001525879</ele>
        <time>2019-05-04T09:20:55.000Z</time>
      </trkpt>
      <trkpt lat="43.42838" lon="6.60692">
        <ele>89.400001525879</ele>
        <time>2019-05-04T09:21:00.000Z</time>
      </trkpt>
      <trkpt lat="43.42835" lon="6.60693">
        <ele>89.800003051758</ele>
        <time>2019-05-04T09:21:02.000Z</time>
      </trkpt>
      <trkpt lat="43.42831" lon="6.60694">
        <ele>90.400001525879</ele>
        <time>2019-05-04T09:21:05.000Z</time>
      </trkpt>
      <trkpt lat="43.42826" lon="6.60695">
        <ele>91.400001525879</ele>
        <time>2019-05-04T09:21:08.000Z</time>
      </trkpt>
      <trkpt lat="43.42824" lon="6.60696">
        <ele>91.599998474121</ele>
        <time>2019-05-04T09:21:09.000Z</time>
      </trkpt>
      <trkpt lat="43.42815" lon="6.607">
        <ele>92.199996948242</ele>
        <time>2019-05-04T09:21:14.000Z</time>
      </trkpt>
      <trkpt lat="43.42813" lon="6.607">
        <ele>92.400001525879</ele>
        <time>2019-05-04T09:21:15.000Z</time>
      </trkpt>
      <trkpt lat="43.42811" lon="6.60699">
        <ele>92.599998474121</ele>
        <time>2019-05-04T09:21:16.000Z</time>
      </trkpt>
      <trkpt lat="43.42805" lon="6.60704">
        <ele>93.400001525879</ele>
        <time>2019-05-04T09:21:20.000Z</time>
      </trkpt>
      <trkpt lat="43.42802" lon="6.60707">
        <ele>93.599998474121</ele>
        <time>2019-05-04T09:21:22.000Z</time>
      </trkpt>
      <trkpt lat="43.42797" lon="6.6071">
        <ele>94.400001525879</ele>
        <time>2019-05-04T09:21:25.000Z</time>
      </trkpt>
      <trkpt lat="43.42793" lon="6.60712">
        <ele>94.800003051758</ele>
        <time>2019-05-04T09:21:27.000Z</time>
      </trkpt>
      <trkpt lat="43.42787" lon="6.6072">
        <ele>95.800003051758</ele>
        <time>2019-05-04T09:21:32.000Z</time>
      </trkpt>
      <trkpt lat="43.42786" lon="6.60722">
        <ele>96</ele>
        <time>2019-05-04T09:21:33.000Z</time>
      </trkpt>
      <trkpt lat="43.42782" lon="6.60729">
        <ele>96.199996948242</ele>
        <time>2019-05-04T09:21:37.000Z</time>
      </trkpt>
      <trkpt lat="43.42778" lon="6.60733">
        <ele>97.199996948242</ele>
        <time>2019-05-04T09:21:42.000Z</time>
      </trkpt>
      <trkpt lat="43.42778" lon="6.60733">
        <ele>97.599998474121</ele>
        <time>2019-05-04T09:21:44.000Z</time>
      </trkpt>
      <trkpt lat="43.42776" lon="6.60734">
        <ele>98.199996948242</ele>
        <time>2019-05-04T09:21:50.000Z</time>
      </trkpt>
      <trkpt lat="43.42776" lon="6.60734">
        <ele>98.400001525879</ele>
        <time>2019-05-04T09:21:51.000Z</time>
      </trkpt>
      <trkpt lat="43.42774" lon="6.60736">
        <ele>99.199996948242</ele>
        <time>2019-05-04T09:21:57.000Z</time>
      </trkpt>
      <trkpt lat="43.42774" lon="6.60737">
        <ele>99.400001525879</ele>
        <time>2019-05-04T09:21:59.000Z</time>
      </trkpt>
      <trkpt lat="43.42772" lon="6.60739">
        <ele>100.40000152588</ele>
        <time>2019-05-04T09:22:05.000Z</time>
      </trkpt>
      <trkpt lat="43.42773" lon="6.60739">
        <ele>100.59999847412</ele>
        <time>2019-05-04T09:22:06.000Z</time>
      </trkpt>
      <trkpt lat="43.42771" lon="6.6074">
        <ele>101</ele>
        <time>2019-05-04T09:22:13.000Z</time>
      </trkpt>
      <trkpt lat="43.42769" lon="6.60742">
        <ele>101.59999847412</ele>
        <time>2019-05-04T09:22:21.000Z</time>
      </trkpt>
      <trkpt lat="43.42769" lon="6.60742">
        <ele>101.80000305176</ele>
        <time>2019-05-04T09:22:22.000Z</time>
      </trkpt>
      <trkpt lat="43.42767" lon="6.60744">
        <ele>102.59999847412</ele>
        <time>2019-05-04T09:22:28.000Z</time>
      </trkpt>
      <trkpt lat="43.42766" lon="6.60744">
        <ele>102.80000305176</ele>
        <time>2019-05-04T09:22:29.000Z</time>
      </trkpt>
      <trkpt lat="43.42763" lon="6.60744">
        <ele>103.59999847412</ele>
        <time>2019-05-04T09:22:35.000Z</time>
      </trkpt>
      <trkpt lat="43.42763" lon="6.60745">
        <ele>103.40000152588</ele>
        <time>2019-05-04T09:22:41.000Z</time>
      </trkpt>
      <trkpt lat="43.42761" lon="6.60747">
        <ele>103.80000305176</ele>
        <time>2019-05-04T09:22:48.000Z</time>
      </trkpt>
      <trkpt lat="43.4276" lon="6.60748">
        <ele>103.80000305176</ele>
        <time>2019-05-04T09:22:49.000Z</time>
      </trkpt>
      <trkpt lat="43.42758" lon="6.60748">
        <ele>103.80000305176</ele>
        <time>2019-05-04T09:22:50.000Z</time>
      </trkpt>
      <trkpt lat="43.42752" lon="6.6075">
        <ele>104.19999694824</ele>
        <time>2019-05-04T09:22:54.000Z</time>
      </trkpt>
      <trkpt lat="43.42751" lon="6.60751">
        <ele>104.80000305176</ele>
        <time>2019-05-04T09:22:56.000Z</time>
      </trkpt>
      <trkpt lat="43.42747" lon="6.60756">
        <ele>105.40000152588</ele>
        <time>2019-05-04T09:23:00.000Z</time>
      </trkpt>
      <trkpt lat="43.42741" lon="6.60767">
        <ele>103.80000305176</ele>
        <time>2019-05-04T09:23:06.000Z</time>
      </trkpt>
      <trkpt lat="43.42739" lon="6.6077">
        <ele>104</ele>
        <time>2019-05-04T09:23:09.000Z</time>
      </trkpt>
      <trkpt lat="43.42738" lon="6.60771">
        <ele>104.40000152588</ele>
        <time>2019-05-04T09:23:11.000Z</time>
      </trkpt>
      <trkpt lat="43.42736" lon="6.60772">
        <ele>104.59999847412</ele>
        <time>2019-05-04T09:23:19.000Z</time>
      </trkpt>
      <trkpt lat="43.42732" lon="6.60774">
        <ele>104.59999847412</ele>
        <time>2019-05-04T09:23:24.000Z</time>
      </trkpt>
      <trkpt lat="43.42731" lon="6.60775">
        <ele>104.59999847412</ele>
        <time>2019-05-04T09:23:25.000Z</time>
      </trkpt>
      <trkpt lat="43.42732" lon="6.6078">
        <ele>105</ele>
        <time>2019-05-04T09:23:29.000Z</time>
      </trkpt>
      <trkpt lat="43.42732" lon="6.60781">
        <ele>105.19999694824</ele>
        <time>2019-05-04T09:23:30.000Z</time>
      </trkpt>
      <trkpt lat="43.42732" lon="6.60785">
        <ele>106.19999694824</ele>
        <time>2019-05-04T09:23:33.000Z</time>
      </trkpt>
      <trkpt lat="43.42734" lon="6.60787">
        <ele>106.40000152588</ele>
        <time>2019-05-04T09:23:35.000Z</time>
      </trkpt>
      <trkpt lat="43.42735" lon="6.60796">
        <ele>107.19999694824</ele>
        <time>2019-05-04T09:23:40.000Z</time>
      </trkpt>
      <trkpt lat="43.42735" lon="6.60797">
        <ele>107.40000152588</ele>
        <time>2019-05-04T09:23:41.000Z</time>
      </trkpt>
      <trkpt lat="43.42734" lon="6.60801">
        <ele>108.40000152588</ele>
        <time>2019-05-04T09:23:44.000Z</time>
      </trkpt>
      <trkpt lat="43.42732" lon="6.60808">
        <ele>108.59999847412</ele>
        <time>2019-05-04T09:23:47.000Z</time>
      </trkpt>
      <trkpt lat="43.42723" lon="6.60819">
        <ele>108.80000305176</ele>
        <time>2019-05-04T09:23:53.000Z</time>
      </trkpt>
      <trkpt lat="43.42719" lon="6.60824">
        <ele>109.40000152588</ele>
        <time>2019-05-04T09:23:56.000Z</time>
      </trkpt>
      <trkpt lat="43.42714" lon="6.60828">
        <ele>110.19999694824</ele>
        <time>2019-05-04T09:23:59.000Z</time>
      </trkpt>
      <trkpt lat="43.42713" lon="6.6083">
        <ele>110.59999847412</ele>
        <time>2019-05-04T09:24:00.000Z</time>
      </trkpt>
      <trkpt lat="43.42708" lon="6.60835">
        <ele>111.80000305176</ele>
        <time>2019-05-04T09:24:04.000Z</time>
      </trkpt>
      <trkpt lat="43.42701" lon="6.6084">
        <ele>112.59999847412</ele>
        <time>2019-05-04T09:24:09.000Z</time>
      </trkpt>
      <trkpt lat="43.42701" lon="6.60842">
        <ele>112.80000305176</ele>
        <time>2019-05-04T09:24:10.000Z</time>
      </trkpt>
      <trkpt lat="43.42695" lon="6.6085">
        <ele>114</ele>
        <time>2019-05-04T09:24:15.000Z</time>
      </trkpt>
      <trkpt lat="43.42687" lon="6.60854">
        <ele>115.19999694824</ele>
        <time>2019-05-04T09:24:20.000Z</time>
      </trkpt>
      <trkpt lat="43.42686" lon="6.60847">
        <ele>115.80000305176</ele>
        <time>2019-05-04T09:24:23.000Z</time>
      </trkpt>
      <trkpt lat="43.42687" lon="6.60842">
        <ele>116.40000152588</ele>
        <time>2019-05-04T09:24:25.000Z</time>
      </trkpt>
      <trkpt lat="43.42688" lon="6.60841">
        <ele>116.59999847412</ele>
        <time>2019-05-04T09:24:26.000Z</time>
      </trkpt>
      <trkpt lat="43.42689" lon="6.60838">
        <ele>117.59999847412</ele>
        <time>2019-05-04T09:24:28.000Z</time>
      </trkpt>
      <trkpt lat="43.42691" lon="6.60833">
        <ele>118</ele>
        <time>2019-05-04T09:24:31.000Z</time>
      </trkpt>
      <trkpt lat="43.42691" lon="6.6083">
        <ele>118.40000152588</ele>
        <time>2019-05-04T09:24:33.000Z</time>
      </trkpt>
      <trkpt lat="43.42691" lon="6.60828">
        <ele>118.59999847412</ele>
        <time>2019-05-04T09:24:34.000Z</time>
      </trkpt>
      <trkpt lat="43.42692" lon="6.60826">
        <ele>118.80000305176</ele>
        <time>2019-05-04T09:24:35.000Z</time>
      </trkpt>
      <trkpt lat="43.42691" lon="6.60824">
        <ele>119</ele>
        <time>2019-05-04T09:24:36.000Z</time>
      </trkpt>
      <trkpt lat="43.42688" lon="6.60816">
        <ele>119.59999847412</ele>
        <time>2019-05-04T09:24:39.000Z</time>
      </trkpt>
      <trkpt lat="43.42688" lon="6.60814">
        <ele>119.80000305176</ele>
        <time>2019-05-04T09:24:40.000Z</time>
      </trkpt>
      <trkpt lat="43.42684" lon="6.60809">
        <ele>120</ele>
        <time>2019-05-04T09:24:42.000Z</time>
      </trkpt>
      <trkpt lat="43.42678" lon="6.60799">
        <ele>120.59999847412</ele>
        <time>2019-05-04T09:24:47.000Z</time>
      </trkpt>
      <trkpt lat="43.42676" lon="6.60799">
        <ele>120.80000305176</ele>
        <time>2019-05-04T09:24:48.000Z</time>
      </trkpt>
      <trkpt lat="43.42668" lon="6.60795">
        <ele>121.40000152588</ele>
        <time>2019-05-04T09:24:52.000Z</time>
      </trkpt>
      <trkpt lat="43.42658" lon="6.60792">
        <ele>121.80000305176</ele>
        <time>2019-05-04T09:24:57.000Z</time>
      </trkpt>
      <trkpt lat="43.42656" lon="6.6079">
        <ele>121.80000305176</ele>
        <time>2019-05-04T09:24:58.000Z</time>
      </trkpt>
      <trkpt lat="43.42655" lon="6.60788">
        <ele>122</ele>
        <time>2019-05-04T09:24:59.000Z</time>
      </trkpt>
      <trkpt lat="43.42653" lon="6.60782">
        <ele>122.40000152588</ele>
        <time>2019-05-04T09:25:01.000Z</time>
      </trkpt>
      <trkpt lat="43.42653" lon="6.60775">
        <ele>122.59999847412</ele>
        <time>2019-05-04T09:25:03.000Z</time>
      </trkpt>
      <trkpt lat="43.42652" lon="6.60769">
        <ele>122.80000305176</ele>
        <time>2019-05-04T09:25:05.000Z</time>
      </trkpt>
      <trkpt lat="43.42653" lon="6.60765">
        <ele>123</ele>
        <time>2019-05-04T09:25:06.000Z</time>
      </trkpt>
      <trkpt lat="43.42658" lon="6.60758">
        <ele>123.40000152588</ele>
        <time>2019-05-04T09:25:09.000Z</time>
      </trkpt>
      <trkpt lat="43.42663" lon="6.60748">
        <ele>124</ele>
        <time>2019-05-04T09:25:12.000Z</time>
      </trkpt>
      <trkpt lat="43.42666" lon="6.6074">
        <ele>124.40000152588</ele>
        <time>2019-05-04T09:25:14.000Z</time>
      </trkpt>
      <trkpt lat="43.42665" lon="6.60738">
        <ele>124.40000152588</ele>
        <time>2019-05-04T09:25:16.000Z</time>
      </trkpt>
      <trkpt lat="43.42664" lon="6.60736">
        <ele>124.40000152588</ele>
        <time>2019-05-04T09:25:17.000Z</time>
      </trkpt>
      <trkpt lat="43.42666" lon="6.60729">
        <ele>125</ele>
        <time>2019-05-04T09:25:21.000Z</time>
      </trkpt>
      <trkpt lat="43.42666" lon="6.60727">
        <ele>125.19999694824</ele>
        <time>2019-05-04T09:25:22.000Z</time>
      </trkpt>
      <trkpt lat="43.42669" lon="6.60717">
        <ele>125.80000305176</ele>
        <time>2019-05-04T09:25:26.000Z</time>
      </trkpt>
      <trkpt lat="43.42666" lon="6.60711">
        <ele>126</ele>
        <time>2019-05-04T09:25:29.000Z</time>
      </trkpt>
      <trkpt lat="43.42664" lon="6.6071">
        <ele>126.40000152588</ele>
        <time>2019-05-04T09:25:30.000Z</time>
      </trkpt>
      <trkpt lat="43.42658" lon="6.60713">
        <ele>126.80000305176</ele>
        <time>2019-05-04T09:25:33.000Z</time>
      </trkpt>
      <trkpt lat="43.42653" lon="6.60716">
        <ele>127.40000152588</ele>
        <time>2019-05-04T09:25:37.000Z</time>
      </trkpt>
      <trkpt lat="43.4265" lon="6.60718">
        <ele>128</ele>
        <time>2019-05-04T09:25:39.000Z</time>
      </trkpt>
      <trkpt lat="43.42648" lon="6.60719">
        <ele>128.19999694824</ele>
        <time>2019-05-04T09:25:41.000Z</time>
      </trkpt>
      <trkpt lat="43.42647" lon="6.6072">
        <ele>128.39999389648</ele>
        <time>2019-05-04T09:25:42.000Z</time>
      </trkpt>
      <trkpt lat="43.42644" lon="6.60722">
        <ele>128.80000305176</ele>
        <time>2019-05-04T09:25:44.000Z</time>
      </trkpt>
      <trkpt lat="43.42641" lon="6.60722">
        <ele>129.60000610352</ele>
        <time>2019-05-04T09:25:47.000Z</time>
      </trkpt>
      <trkpt lat="43.4264" lon="6.60723">
        <ele>130</ele>
        <time>2019-05-04T09:25:48.000Z</time>
      </trkpt>
      <trkpt lat="43.42635" lon="6.60726">
        <ele>130.80000305176</ele>
        <time>2019-05-04T09:25:52.000Z</time>
      </trkpt>
      <trkpt lat="43.42635" lon="6.60727">
        <ele>131</ele>
        <time>2019-05-04T09:25:53.000Z</time>
      </trkpt>
      <trkpt lat="43.42635" lon="6.60728">
        <ele>131.19999694824</ele>
        <time>2019-05-04T09:25:54.000Z</time>
      </trkpt>
      <trkpt lat="43.42631" lon="6.60732">
        <ele>131.80000305176</ele>
        <time>2019-05-04T09:25:57.000Z</time>
      </trkpt>
      <trkpt lat="43.42631" lon="6.60733">
        <ele>132.19999694824</ele>
        <time>2019-05-04T09:25:58.000Z</time>
      </trkpt>
      <trkpt lat="43.4263" lon="6.60735">
        <ele>132.60000610352</ele>
        <time>2019-05-04T09:26:00.000Z</time>
      </trkpt>
      <trkpt lat="43.42629" lon="6.60738">
        <ele>133.19999694824</ele>
        <time>2019-05-04T09:26:03.000Z</time>
      </trkpt>
      <trkpt lat="43.42623" lon="6.60746">
        <ele>134.39999389648</ele>
        <time>2019-05-04T09:26:08.000Z</time>
      </trkpt>
      <trkpt lat="43.42622" lon="6.60747">
        <ele>134.60000610352</ele>
        <time>2019-05-04T09:26:09.000Z</time>
      </trkpt>
      <trkpt lat="43.42619" lon="6.60753">
        <ele>135.39999389648</ele>
        <time>2019-05-04T09:26:12.000Z</time>
      </trkpt>
      <trkpt lat="43.42619" lon="6.60754">
        <ele>135.60000610352</ele>
        <time>2019-05-04T09:26:13.000Z</time>
      </trkpt>
      <trkpt lat="43.42617" lon="6.60758">
        <ele>136</ele>
        <time>2019-05-04T09:26:16.000Z</time>
      </trkpt>
      <trkpt lat="43.42616" lon="6.60761">
        <ele>136.39999389648</ele>
        <time>2019-05-04T09:26:18.000Z</time>
      </trkpt>
      <trkpt lat="43.42613" lon="6.6077">
        <ele>137.19999694824</ele>
        <time>2019-05-04T09:26:22.000Z</time>
      </trkpt>
      <trkpt lat="43.42612" lon="6.60774">
        <ele>137.60000610352</ele>
        <time>2019-05-04T09:26:24.000Z</time>
      </trkpt>
      <trkpt lat="43.42609" lon="6.60782">
        <ele>138.39999389648</ele>
        <time>2019-05-04T09:26:28.000Z</time>
      </trkpt>
      <trkpt lat="43.42609" lon="6.60785">
        <ele>138.60000610352</ele>
        <time>2019-05-04T09:26:29.000Z</time>
      </trkpt>
      <trkpt lat="43.42607" lon="6.60791">
        <ele>139.19999694824</ele>
        <time>2019-05-04T09:26:32.000Z</time>
      </trkpt>
      <trkpt lat="43.42607" lon="6.60793">
        <ele>139.39999389648</ele>
        <time>2019-05-04T09:26:33.000Z</time>
      </trkpt>
      <trkpt lat="43.42607" lon="6.60797">
        <ele>139.60000610352</ele>
        <time>2019-05-04T09:26:35.000Z</time>
      </trkpt>
      <trkpt lat="43.42606" lon="6.60802">
        <ele>139.80000305176</ele>
        <time>2019-05-04T09:26:37.000Z</time>
      </trkpt>
      <trkpt lat="43.42607" lon="6.60804">
        <ele>140</ele>
        <time>2019-05-04T09:26:38.000Z</time>
      </trkpt>
      <trkpt lat="43.42606" lon="6.60818">
        <ele>140.60000610352</ele>
        <time>2019-05-04T09:26:43.000Z</time>
      </trkpt>
      <trkpt lat="43.42606" lon="6.60827">
        <ele>141.19999694824</ele>
        <time>2019-05-04T09:26:47.000Z</time>
      </trkpt>
      <trkpt lat="43.42607" lon="6.60835">
        <ele>141.80000305176</ele>
        <time>2019-05-04T09:26:50.000Z</time>
      </trkpt>
      <trkpt lat="43.42607" lon="6.60837">
        <ele>142</ele>
        <time>2019-05-04T09:26:51.000Z</time>
      </trkpt>
      <trkpt lat="43.42608" lon="6.6085">
        <ele>142.80000305176</ele>
        <time>2019-05-04T09:26:56.000Z</time>
      </trkpt>
      <trkpt lat="43.42607" lon="6.60854">
        <ele>142.80000305176</ele>
        <time>2019-05-04T09:26:58.000Z</time>
      </trkpt>
      <trkpt lat="43.42603" lon="6.6086">
        <ele>143.19999694824</ele>
        <time>2019-05-04T09:27:01.000Z</time>
      </trkpt>
      <trkpt lat="43.42602" lon="6.60861">
        <ele>143.60000610352</ele>
        <time>2019-05-04T09:27:02.000Z</time>
      </trkpt>
      <trkpt lat="43.42602" lon="6.60857">
        <ele>143.80000305176</ele>
        <time>2019-05-04T09:27:04.000Z</time>
      </trkpt>
      <trkpt lat="43.42602" lon="6.60855">
        <ele>144</ele>
        <time>2019-05-04T09:27:05.000Z</time>
      </trkpt>
      <trkpt lat="43.42604" lon="6.60849">
        <ele>144.80000305176</ele>
        <time>2019-05-04T09:27:09.000Z</time>
      </trkpt>
      <trkpt lat="43.42606" lon="6.60845">
        <ele>145.19999694824</ele>
        <time>2019-05-04T09:27:11.000Z</time>
      </trkpt>
      <trkpt lat="43.42608" lon="6.60839">
        <ele>145.80000305176</ele>
        <time>2019-05-04T09:27:14.000Z</time>
      </trkpt>
      <trkpt lat="43.42611" lon="6.60832">
        <ele>146.39999389648</ele>
        <time>2019-05-04T09:27:17.000Z</time>
      </trkpt>
      <trkpt lat="43.4261" lon="6.6083">
        <ele>146.39999389648</ele>
        <time>2019-05-04T09:27:18.000Z</time>
      </trkpt>
      <trkpt lat="43.42609" lon="6.60823">
        <ele>146.80000305176</ele>
        <time>2019-05-04T09:27:22.000Z</time>
      </trkpt>
      <trkpt lat="43.42606" lon="6.60819">
        <ele>147.80000305176</ele>
        <time>2019-05-04T09:27:26.000Z</time>
      </trkpt>
      <trkpt lat="43.42607" lon="6.60813">
        <ele>148.39999389648</ele>
        <time>2019-05-04T09:27:29.000Z</time>
      </trkpt>
      <trkpt lat="43.42608" lon="6.6081">
        <ele>148.39999389648</ele>
        <time>2019-05-04T09:27:30.000Z</time>
      </trkpt>
      <trkpt lat="43.42607" lon="6.60799">
        <ele>148.60000610352</ele>
        <time>2019-05-04T09:27:34.000Z</time>
      </trkpt>
      <trkpt lat="43.4261" lon="6.60795">
        <ele>148.80000305176</ele>
        <time>2019-05-04T09:27:35.000Z</time>
      </trkpt>
      <trkpt lat="43.42612" lon="6.60791">
        <ele>149</ele>
        <time>2019-05-04T09:27:36.000Z</time>
      </trkpt>
      <trkpt lat="43.42613" lon="6.60789">
        <ele>149.19999694824</ele>
        <time>2019-05-04T09:27:37.000Z</time>
      </trkpt>
      <trkpt lat="43.42612" lon="6.60787">
        <ele>149.19999694824</ele>
        <time>2019-05-04T09:27:38.000Z</time>
      </trkpt>
      <trkpt lat="43.42609" lon="6.60784">
        <ele>149.60000610352</ele>
        <time>2019-05-04T09:27:40.000Z</time>
      </trkpt>
      <trkpt lat="43.42609" lon="6.60781">
        <ele>149.80000305176</ele>
        <time>2019-05-04T09:27:41.000Z</time>
      </trkpt>
      <trkpt lat="43.42608" lon="6.60778">
        <ele>150.39999389648</ele>
        <time>2019-05-04T09:27:43.000Z</time>
      </trkpt>
      <trkpt lat="43.42604" lon="6.60774">
        <ele>151</ele>
        <time>2019-05-04T09:27:46.000Z</time>
      </trkpt>
      <trkpt lat="43.426" lon="6.6077">
        <ele>151.60000610352</ele>
        <time>2019-05-04T09:27:49.000Z</time>
      </trkpt>
      <trkpt lat="43.42597" lon="6.60769">
        <ele>152</ele>
        <time>2019-05-04T09:27:51.000Z</time>
      </trkpt>
      <trkpt lat="43.42595" lon="6.60767">
        <ele>152.39999389648</ele>
        <time>2019-05-04T09:27:53.000Z</time>
      </trkpt>
      <trkpt lat="43.4259" lon="6.60764">
        <ele>153</ele>
        <time>2019-05-04T09:27:57.000Z</time>
      </trkpt>
      <trkpt lat="43.42588" lon="6.60764">
        <ele>153.19999694824</ele>
        <time>2019-05-04T09:27:58.000Z</time>
      </trkpt>
      <trkpt lat="43.42586" lon="6.60763">
        <ele>153.80000305176</ele>
        <time>2019-05-04T09:28:02.000Z</time>
      </trkpt>
      <trkpt lat="43.42583" lon="6.60761">
        <ele>154.19999694824</ele>
        <time>2019-05-04T09:28:05.000Z</time>
      </trkpt>
      <trkpt lat="43.42582" lon="6.6076">
        <ele>154.60000610352</ele>
        <time>2019-05-04T09:28:08.000Z</time>
      </trkpt>
      <trkpt lat="43.4258" lon="6.60757">
        <ele>154.80000305176</ele>
        <time>2019-05-04T09:28:15.000Z</time>
      </trkpt>
      <trkpt lat="43.42579" lon="6.60756">
        <ele>154.19999694824</ele>
        <time>2019-05-04T09:28:22.000Z</time>
      </trkpt>
      <trkpt lat="43.42579" lon="6.60753">
        <ele>154.60000610352</ele>
        <time>2019-05-04T09:28:30.000Z</time>
      </trkpt>
      <trkpt lat="43.42578" lon="6.60751">
        <ele>153.80000305176</ele>
        <time>2019-05-04T09:28:38.000Z</time>
      </trkpt>
      <trkpt lat="43.42578" lon="6.60749">
        <ele>154.19999694824</ele>
        <time>2019-05-04T09:28:43.000Z</time>
      </trkpt>
      <trkpt lat="43.42576" lon="6.60749">
        <ele>154.39999389648</ele>
        <time>2019-05-04T09:28:52.000Z</time>
      </trkpt>
      <trkpt lat="43.42574" lon="6.60751">
        <ele>154.60000610352</ele>
        <time>2019-05-04T09:28:57.000Z</time>
      </trkpt>
      <trkpt lat="43.42574" lon="6.6075">
        <ele>153.60000610352</ele>
        <time>2019-05-04T09:29:07.000Z</time>
      </trkpt>
      <trkpt lat="43.42572" lon="6.60751">
        <ele>154.19999694824</ele>
        <time>2019-05-04T09:29:13.000Z</time>
      </trkpt>
      <trkpt lat="43.42571" lon="6.6075">
        <ele>154.19999694824</ele>
        <time>2019-05-04T09:29:26.000Z</time>
      </trkpt>
      <trkpt lat="43.4257" lon="6.60751">
        <ele>154</ele>
        <time>2019-05-04T09:29:31.000Z</time>
      </trkpt>
      <trkpt lat="43.4257" lon="6.6075">
        <ele>154.19999694824</ele>
        <time>2019-05-04T09:29:39.000Z</time>
      </trkpt>
      <trkpt lat="43.4257" lon="6.60749">
        <ele>154.19999694824</ele>
        <time>2019-05-04T09:29:47.000Z</time>
      </trkpt>
      <trkpt lat="43.42569" lon="6.60749">
        <ele>154.39999389648</ele>
        <time>2019-05-04T09:29:56.000Z</time>
      </trkpt>
      <trkpt lat="43.42569" lon="6.60748">
        <ele>154.39999389648</ele>
        <time>2019-05-04T09:30:11.000Z</time>
      </trkpt>
      <trkpt lat="43.42568" lon="6.60747">
        <ele>154.39999389648</ele>
        <time>2019-05-04T09:30:13.000Z</time>
      </trkpt>
      <trkpt lat="43.42568" lon="6.60747">
        <ele>154.19999694824</ele>
        <time>2019-05-04T09:30:15.000Z</time>
      </trkpt>
      <trkpt lat="43.42569" lon="6.60748">
        <ele>154.60000610352</ele>
        <time>2019-05-04T09:30:22.000Z</time>
      </trkpt>
      <trkpt lat="43.4257" lon="6.60748">
        <ele>154.60000610352</ele>
        <time>2019-05-04T09:30:23.000Z</time>
      </trkpt>
      <trkpt lat="43.4257" lon="6.60747">
        <ele>154</ele>
        <time>2019-05-04T09:30:27.000Z</time>
      </trkpt>
      <trkpt lat="43.4257" lon="6.60746">
        <ele>154</ele>
        <time>2019-05-04T09:30:33.000Z</time>
      </trkpt>
      <trkpt lat="43.42568" lon="6.60743">
        <ele>154.39999389648</ele>
        <time>2019-05-04T09:30:37.000Z</time>
      </trkpt>
      <trkpt lat="43.42568" lon="6.60742">
        <ele>154.60000610352</ele>
        <time>2019-05-04T09:30:38.000Z</time>
      </trkpt>
      <trkpt lat="43.42566" lon="6.60742">
        <ele>154.80000305176</ele>
        <time>2019-05-04T09:30:40.000Z</time>
      </trkpt>
      <trkpt lat="43.42565" lon="6.60743">
        <ele>155.19999694824</ele>
        <time>2019-05-04T09:30:43.000Z</time>
      </trkpt>
      <trkpt lat="43.42565" lon="6.60744">
        <ele>155.19999694824</ele>
        <time>2019-05-04T09:30:44.000Z</time>
      </trkpt>
      <trkpt lat="43.42564" lon="6.60745">
        <ele>156</ele>
        <time>2019-05-04T09:30:49.000Z</time>
      </trkpt>
      <trkpt lat="43.42563" lon="6.60746">
        <ele>156.19999694824</ele>
        <time>2019-05-04T09:30:50.000Z</time>
      </trkpt>
      <trkpt lat="43.42562" lon="6.60748">
        <ele>156.80000305176</ele>
        <time>2019-05-04T09:30:53.000Z</time>
      </trkpt>
      <trkpt lat="43.42562" lon="6.60751">
        <ele>157.39999389648</ele>
        <time>2019-05-04T09:30:56.000Z</time>
      </trkpt>
      <trkpt lat="43.42563" lon="6.60753">
        <ele>158</ele>
        <time>2019-05-04T09:30:59.000Z</time>
      </trkpt>
      <trkpt lat="43.42563" lon="6.60754">
        <ele>158.39999389648</ele>
        <time>2019-05-04T09:31:01.000Z</time>
      </trkpt>
      <trkpt lat="43.42563" lon="6.60755">
        <ele>158.39999389648</ele>
        <time>2019-05-04T09:31:02.000Z</time>
      </trkpt>
      <trkpt lat="43.42564" lon="6.60759">
        <ele>158.60000610352</ele>
        <time>2019-05-04T09:31:04.000Z</time>
      </trkpt>
      <trkpt lat="43.42564" lon="6.60763">
        <ele>158.80000305176</ele>
        <time>2019-05-04T09:31:06.000Z</time>
      </trkpt>
      <trkpt lat="43.42564" lon="6.60774">
        <ele>159.19999694824</ele>
        <time>2019-05-04T09:31:09.000Z</time>
      </trkpt>
      <trkpt lat="43.42564" lon="6.60776">
        <ele>159.19999694824</ele>
        <time>2019-05-04T09:31:10.000Z</time>
      </trkpt>
      <trkpt lat="43.42564" lon="6.60786">
        <ele>159.39999389648</ele>
        <time>2019-05-04T09:31:13.000Z</time>
      </trkpt>
      <trkpt lat="43.42562" lon="6.6079">
        <ele>159.80000305176</ele>
        <time>2019-05-04T09:31:15.000Z</time>
      </trkpt>
      <trkpt lat="43.4256" lon="6.6079">
        <ele>160.60000610352</ele>
        <time>2019-05-04T09:31:17.000Z</time>
      </trkpt>
      <trkpt lat="43.42559" lon="6.60788">
        <ele>161.60000610352</ele>
        <time>2019-05-04T09:31:19.000Z</time>
      </trkpt>
      <trkpt lat="43.42559" lon="6.60785">
        <ele>162.80000305176</ele>
        <time>2019-05-04T09:31:21.000Z</time>
      </trkpt>
      <trkpt lat="43.42558" lon="6.60782">
        <ele>163.39999389648</ele>
        <time>2019-05-04T09:31:23.000Z</time>
      </trkpt>
      <trkpt lat="43.42557" lon="6.60778">
        <ele>163.80000305176</ele>
        <time>2019-05-04T09:31:25.000Z</time>
      </trkpt>
      <trkpt lat="43.42556" lon="6.60774">
        <ele>163.80000305176</ele>
        <time>2019-05-04T09:31:27.000Z</time>
      </trkpt>
      <trkpt lat="43.42554" lon="6.60772">
        <ele>164</ele>
        <time>2019-05-04T09:31:29.000Z</time>
      </trkpt>
      <trkpt lat="43.42553" lon="6.60771">
        <ele>164.60000610352</ele>
        <time>2019-05-04T09:31:34.000Z</time>
      </trkpt>
      <trkpt lat="43.42551" lon="6.6077">
        <ele>165</ele>
        <time>2019-05-04T09:31:37.000Z</time>
      </trkpt>
      <trkpt lat="43.42549" lon="6.60771">
        <ele>166</ele>
        <time>2019-05-04T09:31:41.000Z</time>
      </trkpt>
      <trkpt lat="43.42549" lon="6.60772">
        <ele>166.19999694824</ele>
        <time>2019-05-04T09:31:42.000Z</time>
      </trkpt>
      <trkpt lat="43.42548" lon="6.60773">
        <ele>166.60000610352</ele>
        <time>2019-05-04T09:31:44.000Z</time>
      </trkpt>
      <trkpt lat="43.42546" lon="6.60774">
        <ele>167</ele>
        <time>2019-05-04T09:31:47.000Z</time>
      </trkpt>
      <trkpt lat="43.42546" lon="6.60774">
        <ele>167.39999389648</ele>
        <time>2019-05-04T09:31:49.000Z</time>
      </trkpt>
      <trkpt lat="43.42543" lon="6.60776">
        <ele>168.39999389648</ele>
        <time>2019-05-04T09:31:54.000Z</time>
      </trkpt>
      <trkpt lat="43.42543" lon="6.60776">
        <ele>168.60000610352</ele>
        <time>2019-05-04T09:31:55.000Z</time>
      </trkpt>
      <trkpt lat="43.42543" lon="6.60778">
        <ele>169.19999694824</ele>
        <time>2019-05-04T09:31:59.000Z</time>
      </trkpt>
      <trkpt lat="43.42542" lon="6.60779">
        <ele>169.39999389648</ele>
        <time>2019-05-04T09:32:00.000Z</time>
      </trkpt>
      <trkpt lat="43.42541" lon="6.60779">
        <ele>169.60000610352</ele>
        <time>2019-05-04T09:32:03.000Z</time>
      </trkpt>
      <trkpt lat="43.4254" lon="6.6078">
        <ele>170</ele>
        <time>2019-05-04T09:32:06.000Z</time>
      </trkpt>
      <trkpt lat="43.42541" lon="6.60783">
        <ele>170.60000610352</ele>
        <time>2019-05-04T09:32:10.000Z</time>
      </trkpt>
      <trkpt lat="43.42542" lon="6.60784">
        <ele>171</ele>
        <time>2019-05-04T09:32:12.000Z</time>
      </trkpt>
      <trkpt lat="43.42541" lon="6.60788">
        <ele>171.80000305176</ele>
        <time>2019-05-04T09:32:17.000Z</time>
      </trkpt>
      <trkpt lat="43.4254" lon="6.6079">
        <ele>172.19999694824</ele>
        <time>2019-05-04T09:32:19.000Z</time>
      </trkpt>
      <trkpt lat="43.42538" lon="6.6079">
        <ele>172.60000610352</ele>
        <time>2019-05-04T09:32:21.000Z</time>
      </trkpt>
      <trkpt lat="43.42538" lon="6.60789">
        <ele>172.80000305176</ele>
        <time>2019-05-04T09:32:22.000Z</time>
      </trkpt>
      <trkpt lat="43.42537" lon="6.60791">
        <ele>173.19999694824</ele>
        <time>2019-05-04T09:32:27.000Z</time>
      </trkpt>
      <trkpt lat="43.42535" lon="6.60791">
        <ele>173</ele>
        <time>2019-05-04T09:32:40.000Z</time>
      </trkpt>
      <trkpt lat="43.42534" lon="6.60791">
        <ele>173.19999694824</ele>
        <time>2019-05-04T09:32:56.000Z</time>
      </trkpt>
      <trkpt lat="43.42533" lon="6.60792">
        <ele>173</ele>
        <time>2019-05-04T09:33:03.000Z</time>
      </trkpt>
      <trkpt lat="43.42533" lon="6.60792">
        <ele>173</ele>
        <time>2019-05-04T09:33:14.000Z</time>
      </trkpt>
      <trkpt lat="43.42533" lon="6.60792">
        <ele>172.80000305176</ele>
        <time>2019-05-04T09:33:24.000Z</time>
      </trkpt>
      <trkpt lat="43.42533" lon="6.60792">
        <ele>173</ele>
        <time>2019-05-04T09:33:35.000Z</time>
      </trkpt>
      <trkpt lat="43.42533" lon="6.60792">
        <ele>172.80000305176</ele>
        <time>2019-05-04T09:33:58.000Z</time>
      </trkpt>
      <trkpt lat="43.42532" lon="6.60792">
        <ele>173</ele>
        <time>2019-05-04T09:34:08.000Z</time>
      </trkpt>
      <trkpt lat="43.42532" lon="6.60792">
        <ele>173</ele>
        <time>2019-05-04T09:34:17.000Z</time>
      </trkpt>
      <trkpt lat="43.42532" lon="6.60791">
        <ele>172.80000305176</ele>
        <time>2019-05-04T09:34:37.000Z</time>
      </trkpt>
      <trkpt lat="43.42534" lon="6.6079">
        <ele>172.80000305176</ele>
        <time>2019-05-04T09:34:59.000Z</time>
      </trkpt>
      <trkpt lat="43.42534" lon="6.60792">
        <ele>172.60000610352</ele>
        <time>2019-05-04T09:35:03.000Z</time>
      </trkpt>
      <trkpt lat="43.42534" lon="6.60793">
        <ele>172.19999694824</ele>
        <time>2019-05-04T09:35:08.000Z</time>
      </trkpt>
      <trkpt lat="43.42535" lon="6.60793">
        <ele>172.80000305176</ele>
        <time>2019-05-04T09:35:15.000Z</time>
      </trkpt>
      <trkpt lat="43.42535" lon="6.60793">
        <ele>172.60000610352</ele>
        <time>2019-05-04T09:35:29.000Z</time>
      </trkpt>
      <trkpt lat="43.42535" lon="6.60793">
        <ele>172.60000610352</ele>
        <time>2019-05-04T09:35:42.000Z</time>
      </trkpt>
      <trkpt lat="43.42535" lon="6.60794">
        <ele>172.39999389648</ele>
        <time>2019-05-04T09:35:51.000Z</time>
      </trkpt>
      <trkpt lat="43.42536" lon="6.60794">
        <ele>172.39999389648</ele>
        <time>2019-05-04T09:36:06.000Z</time>
      </trkpt>
      <trkpt lat="43.42536" lon="6.60793">
        <ele>172.39999389648</ele>
        <time>2019-05-04T09:36:20.000Z</time>
      </trkpt>
      <trkpt lat="43.42537" lon="6.60794">
        <ele>172.19999694824</ele>
        <time>2019-05-04T09:36:30.000Z</time>
      </trkpt>
      <trkpt lat="43.42537" lon="6.60794">
        <ele>172.19999694824</ele>
        <time>2019-05-04T09:36:36.000Z</time>
      </trkpt>
      <trkpt lat="43.42537" lon="6.60794">
        <ele>172.19999694824</ele>
        <time>2019-05-04T09:36:45.000Z</time>
      </trkpt>
      <trkpt lat="43.42538" lon="6.60795">
        <ele>172.19999694824</ele>
        <time>2019-05-04T09:36:47.000Z</time>
      </trkpt>
      <trkpt lat="43.4254" lon="6.60797">
        <ele>172.19999694824</ele>
        <time>2019-05-04T09:36:49.000Z</time>
      </trkpt>
      <trkpt lat="43.42539" lon="6.60797">
        <ele>172.19999694824</ele>
        <time>2019-05-04T09:36:50.000Z</time>
      </trkpt>
      <trkpt lat="43.42539" lon="6.60796">
        <ele>172</ele>
        <time>2019-05-04T09:36:52.000Z</time>
      </trkpt>
      <trkpt lat="43.42538" lon="6.60795">
        <ele>172</ele>
        <time>2019-05-04T09:36:57.000Z</time>
      </trkpt>
      <trkpt lat="43.42537" lon="6.60794">
        <ele>175.60000610352</ele>
        <time>2019-05-04T09:36:58.000Z</time>
      </trkpt>
      <trkpt lat="43.42536" lon="6.60793">
        <ele>172.39999389648</ele>
        <time>2019-05-04T09:37:03.000Z</time>
      </trkpt>
      <trkpt lat="43.42536" lon="6.60793">
        <ele>172.39999389648</ele>
        <time>2019-05-04T09:37:05.000Z</time>
      </trkpt>
      <trkpt lat="43.42536" lon="6.60792">
        <ele>172.80000305176</ele>
        <time>2019-05-04T09:37:11.000Z</time>
      </trkpt>
      <trkpt lat="43.42536" lon="6.60792">
        <ele>172.19999694824</ele>
        <time>2019-05-04T09:37:22.000Z</time>
      </trkpt>
      <trkpt lat="43.42536" lon="6.60792">
        <ele>172</ele>
        <time>2019-05-04T09:37:32.000Z</time>
      </trkpt>
      <trkpt lat="43.42535" lon="6.6079">
        <ele>172</ele>
        <time>2019-05-04T09:37:40.000Z</time>
      </trkpt>
      <trkpt lat="43.42534" lon="6.60789">
        <ele>172.19999694824</ele>
        <time>2019-05-04T09:37:50.000Z</time>
      </trkpt>
      <trkpt lat="43.42534" lon="6.60788">
        <ele>172.19999694824</ele>
        <time>2019-05-04T09:38:03.000Z</time>
      </trkpt>
      <trkpt lat="43.42535" lon="6.60788">
        <ele>172</ele>
        <time>2019-05-04T09:38:25.000Z</time>
      </trkpt>
      <trkpt lat="43.42535" lon="6.60788">
        <ele>172.60000610352</ele>
        <time>2019-05-04T09:38:40.000Z</time>
      </trkpt>
      <trkpt lat="43.42534" lon="6.60788">
        <ele>172.39999389648</ele>
        <time>2019-05-04T09:38:48.000Z</time>
      </trkpt>
      <trkpt lat="43.42534" lon="6.60787">
        <ele>172.80000305176</ele>
        <time>2019-05-04T09:38:58.000Z</time>
      </trkpt>
      <trkpt lat="43.42534" lon="6.60788">
        <ele>172.39999389648</ele>
        <time>2019-05-04T09:39:05.000Z</time>
      </trkpt>
      <trkpt lat="43.42533" lon="6.60789">
        <ele>172</ele>
        <time>2019-05-04T09:39:10.000Z</time>
      </trkpt>
      <trkpt lat="43.42529" lon="6.60783">
        <ele>172.60000610352</ele>
        <time>2019-05-04T09:39:16.000Z</time>
      </trkpt>
      <trkpt lat="43.42519" lon="6.60778">
        <ele>172.80000305176</ele>
        <time>2019-05-04T09:39:22.000Z</time>
      </trkpt>
      <trkpt lat="43.42501" lon="6.6077">
        <ele>173.39999389648</ele>
        <time>2019-05-04T09:39:29.000Z</time>
      </trkpt>
      <trkpt lat="43.42483" lon="6.60765">
        <ele>174.19999694824</ele>
        <time>2019-05-04T09:39:36.000Z</time>
      </trkpt>
      <trkpt lat="43.42475" lon="6.60759">
        <ele>174.39999389648</ele>
        <time>2019-05-04T09:39:39.000Z</time>
      </trkpt>
      <trkpt lat="43.42471" lon="6.60755">
        <ele>174.39999389648</ele>
        <time>2019-05-04T09:39:41.000Z</time>
      </trkpt>
      <trkpt lat="43.42451" lon="6.60738">
        <ele>175.39999389648</ele>
        <time>2019-05-04T09:39:49.000Z</time>
      </trkpt>
      <trkpt lat="43.42445" lon="6.60736">
        <ele>175.60000610352</ele>
        <time>2019-05-04T09:39:51.000Z</time>
      </trkpt>
      <trkpt lat="43.42426" lon="6.60733">
        <ele>176</ele>
        <time>2019-05-04T09:39:57.000Z</time>
      </trkpt>
      <trkpt lat="43.42409" lon="6.60735">
        <ele>176.80000305176</ele>
        <time>2019-05-04T09:40:03.000Z</time>
      </trkpt>
      <trkpt lat="43.42404" lon="6.60736">
        <ele>177</ele>
        <time>2019-05-04T09:40:05.000Z</time>
      </trkpt>
      <trkpt lat="43.42395" lon="6.60736">
        <ele>177.80000305176</ele>
        <time>2019-05-04T09:40:09.000Z</time>
      </trkpt>
      <trkpt lat="43.42389" lon="6.60734">
        <ele>178.80000305176</ele>
        <time>2019-05-04T09:40:12.000Z</time>
      </trkpt>
      <trkpt lat="43.42387" lon="6.60733">
        <ele>179</ele>
        <time>2019-05-04T09:40:13.000Z</time>
      </trkpt>
      <trkpt lat="43.42379" lon="6.60729">
        <ele>180.19999694824</ele>
        <time>2019-05-04T09:40:17.000Z</time>
      </trkpt>
      <trkpt lat="43.42376" lon="6.60727">
        <ele>180.80000305176</ele>
        <time>2019-05-04T09:40:19.000Z</time>
      </trkpt>
      <trkpt lat="43.42374" lon="6.60724">
        <ele>181.39999389648</ele>
        <time>2019-05-04T09:40:21.000Z</time>
      </trkpt>
      <trkpt lat="43.42365" lon="6.60718">
        <ele>182.19999694824</ele>
        <time>2019-05-04T09:40:26.000Z</time>
      </trkpt>
      <trkpt lat="43.42364" lon="6.60717">
        <ele>182.39999389648</ele>
        <time>2019-05-04T09:40:27.000Z</time>
      </trkpt>
      <trkpt lat="43.42359" lon="6.60704">
        <ele>183.60000610352</ele>
        <time>2019-05-04T09:40:33.000Z</time>
      </trkpt>
      <trkpt lat="43.42358" lon="6.60694">
        <ele>184.19999694824</ele>
        <time>2019-05-04T09:40:37.000Z</time>
      </trkpt>
      <trkpt lat="43.4236" lon="6.60688">
        <ele>184.80000305176</ele>
        <time>2019-05-04T09:40:40.000Z</time>
      </trkpt>
      <trkpt lat="43.42359" lon="6.60677">
        <ele>186</ele>
        <time>2019-05-04T09:40:45.000Z</time>
      </trkpt>
      <trkpt lat="43.42359" lon="6.60675">
        <ele>186.39999389648</ele>
        <time>2019-05-04T09:40:46.000Z</time>
      </trkpt>
      <trkpt lat="43.42354" lon="6.60665">
        <ele>187</ele>
        <time>2019-05-04T09:40:51.000Z</time>
      </trkpt>
      <trkpt lat="43.42352" lon="6.60663">
        <ele>187</ele>
        <time>2019-05-04T09:40:52.000Z</time>
      </trkpt>
      <trkpt lat="43.42342" lon="6.60654">
        <ele>188</ele>
        <time>2019-05-04T09:40:58.000Z</time>
      </trkpt>
      <trkpt lat="43.42332" lon="6.60647">
        <ele>189</ele>
        <time>2019-05-04T09:41:04.000Z</time>
      </trkpt>
      <trkpt lat="43.42329" lon="6.60645">
        <ele>189.39999389648</ele>
        <time>2019-05-04T09:41:06.000Z</time>
      </trkpt>
      <trkpt lat="43.42324" lon="6.60642">
        <ele>190.19999694824</ele>
        <time>2019-05-04T09:41:10.000Z</time>
      </trkpt>
      <trkpt lat="43.42319" lon="6.60639">
        <ele>190.80000305176</ele>
        <time>2019-05-04T09:41:13.000Z</time>
      </trkpt>
      <trkpt lat="43.42314" lon="6.60638">
        <ele>191.39999389648</ele>
        <time>2019-05-04T09:41:16.000Z</time>
      </trkpt>
      <trkpt lat="43.42308" lon="6.60637">
        <ele>192.19999694824</ele>
        <time>2019-05-04T09:41:20.000Z</time>
      </trkpt>
      <trkpt lat="43.42305" lon="6.60637">
        <ele>192.39999389648</ele>
        <time>2019-05-04T09:41:22.000Z</time>
      </trkpt>
      <trkpt lat="43.42299" lon="6.60638">
        <ele>193</ele>
        <time>2019-05-04T09:41:26.000Z</time>
      </trkpt>
      <trkpt lat="43.42291" lon="6.6064">
        <ele>193.60000610352</ele>
        <time>2019-05-04T09:41:31.000Z</time>
      </trkpt>
      <trkpt lat="43.42285" lon="6.60643">
        <ele>194</ele>
        <time>2019-05-04T09:41:35.000Z</time>
      </trkpt>
      <trkpt lat="43.42276" lon="6.60648">
        <ele>194.60000610352</ele>
        <time>2019-05-04T09:41:40.000Z</time>
      </trkpt>
      <trkpt lat="43.4227" lon="6.60651">
        <ele>195</ele>
        <time>2019-05-04T09:41:43.000Z</time>
      </trkpt>
      <trkpt lat="43.42264" lon="6.60654">
        <ele>195.60000610352</ele>
        <time>2019-05-04T09:41:47.000Z</time>
      </trkpt>
      <trkpt lat="43.42256" lon="6.60659">
        <ele>196.19999694824</ele>
        <time>2019-05-04T09:41:51.000Z</time>
      </trkpt>
      <trkpt lat="43.42249" lon="6.60664">
        <ele>196.60000610352</ele>
        <time>2019-05-04T09:41:56.000Z</time>
      </trkpt>
      <trkpt lat="43.42248" lon="6.60665">
        <ele>196.80000305176</ele>
        <time>2019-05-04T09:41:57.000Z</time>
      </trkpt>
      <trkpt lat="43.42231" lon="6.60676">
        <ele>197.80000305176</ele>
        <time>2019-05-04T09:42:05.000Z</time>
      </trkpt>
      <trkpt lat="43.42218" lon="6.60693">
        <ele>198.19999694824</ele>
        <time>2019-05-04T09:42:12.000Z</time>
      </trkpt>
      <trkpt lat="43.42201" lon="6.60723">
        <ele>198.60000610352</ele>
        <time>2019-05-04T09:42:22.000Z</time>
      </trkpt>
      <trkpt lat="43.42187" lon="6.6074">
        <ele>198.19999694824</ele>
        <time>2019-05-04T09:42:27.000Z</time>
      </trkpt>
      <trkpt lat="43.42181" lon="6.60752">
        <ele>197.80000305176</ele>
        <time>2019-05-04T09:42:31.000Z</time>
      </trkpt>
      <trkpt lat="43.42181" lon="6.60755">
        <ele>198.19999694824</ele>
        <time>2019-05-04T09:42:32.000Z</time>
      </trkpt>
      <trkpt lat="43.42181" lon="6.6076">
        <ele>198.80000305176</ele>
        <time>2019-05-04T09:42:34.000Z</time>
      </trkpt>
      <trkpt lat="43.42185" lon="6.60772">
        <ele>199.80000305176</ele>
        <time>2019-05-04T09:42:38.000Z</time>
      </trkpt>
      <trkpt lat="43.42185" lon="6.60775">
        <ele>200</ele>
        <time>2019-05-04T09:42:39.000Z</time>
      </trkpt>
      <trkpt lat="43.42189" lon="6.60787">
        <ele>201.39999389648</ele>
        <time>2019-05-04T09:42:44.000Z</time>
      </trkpt>
      <trkpt lat="43.42193" lon="6.60792">
        <ele>202.39999389648</ele>
        <time>2019-05-04T09:42:47.000Z</time>
      </trkpt>
      <trkpt lat="43.42198" lon="6.60793">
        <ele>203.19999694824</ele>
        <time>2019-05-04T09:42:50.000Z</time>
      </trkpt>
      <trkpt lat="43.422" lon="6.60793">
        <ele>203.60000610352</ele>
        <time>2019-05-04T09:42:51.000Z</time>
      </trkpt>
      <trkpt lat="43.4221" lon="6.60788">
        <ele>204.80000305176</ele>
        <time>2019-05-04T09:42:56.000Z</time>
      </trkpt>
      <trkpt lat="43.42216" lon="6.60782">
        <ele>206</ele>
        <time>2019-05-04T09:43:00.000Z</time>
      </trkpt>
      <trkpt lat="43.42223" lon="6.60774">
        <ele>207</ele>
        <time>2019-05-04T09:43:04.000Z</time>
      </trkpt>
      <trkpt lat="43.42233" lon="6.60766">
        <ele>208</ele>
        <time>2019-05-04T09:43:10.000Z</time>
      </trkpt>
      <trkpt lat="43.4224" lon="6.60764">
        <ele>209.19999694824</ele>
        <time>2019-05-04T09:43:14.000Z</time>
      </trkpt>
      <trkpt lat="43.42246" lon="6.60765">
        <ele>210.19999694824</ele>
        <time>2019-05-04T09:43:17.000Z</time>
      </trkpt>
      <trkpt lat="43.42247" lon="6.60766">
        <ele>210.39999389648</ele>
        <time>2019-05-04T09:43:18.000Z</time>
      </trkpt>
      <trkpt lat="43.42255" lon="6.60772">
        <ele>211.39999389648</ele>
        <time>2019-05-04T09:43:23.000Z</time>
      </trkpt>
      <trkpt lat="43.42258" lon="6.60776">
        <ele>211.80000305176</ele>
        <time>2019-05-04T09:43:25.000Z</time>
      </trkpt>
      <trkpt lat="43.42263" lon="6.60783">
        <ele>212.60000610352</ele>
        <time>2019-05-04T09:43:29.000Z</time>
      </trkpt>
      <trkpt lat="43.42268" lon="6.60789">
        <ele>213.19999694824</ele>
        <time>2019-05-04T09:43:32.000Z</time>
      </trkpt>
      <trkpt lat="43.42275" lon="6.60799">
        <ele>213.80000305176</ele>
        <time>2019-05-04T09:43:38.000Z</time>
      </trkpt>
      <trkpt lat="43.42276" lon="6.60801">
        <ele>214</ele>
        <time>2019-05-04T09:43:39.000Z</time>
      </trkpt>
      <trkpt lat="43.42282" lon="6.60808">
        <ele>215</ele>
        <time>2019-05-04T09:43:44.000Z</time>
      </trkpt>
      <trkpt lat="43.42286" lon="6.60813">
        <ele>215.80000305176</ele>
        <time>2019-05-04T09:43:47.000Z</time>
      </trkpt>
      <trkpt lat="43.42289" lon="6.60817">
        <ele>216.19999694824</ele>
        <time>2019-05-04T09:43:49.000Z</time>
      </trkpt>
      <trkpt lat="43.42294" lon="6.60823">
        <ele>217.39999389648</ele>
        <time>2019-05-04T09:43:52.000Z</time>
      </trkpt>
      <trkpt lat="43.42299" lon="6.60828">
        <ele>218.39999389648</ele>
        <time>2019-05-04T09:43:55.000Z</time>
      </trkpt>
      <trkpt lat="43.42301" lon="6.6083">
        <ele>218.60000610352</ele>
        <time>2019-05-04T09:43:56.000Z</time>
      </trkpt>
      <trkpt lat="43.42306" lon="6.60835">
        <ele>219.60000610352</ele>
        <time>2019-05-04T09:43:59.000Z</time>
      </trkpt>
      <trkpt lat="43.42314" lon="6.60842">
        <ele>221</ele>
        <time>2019-05-04T09:44:03.000Z</time>
      </trkpt>
      <trkpt lat="43.42321" lon="6.60848">
        <ele>222</ele>
        <time>2019-05-04T09:44:07.000Z</time>
      </trkpt>
      <trkpt lat="43.42326" lon="6.60849">
        <ele>222.60000610352</ele>
        <time>2019-05-04T09:44:09.000Z</time>
      </trkpt>
      <trkpt lat="43.42339" lon="6.60848">
        <ele>223.19999694824</ele>
        <time>2019-05-04T09:44:15.000Z</time>
      </trkpt>
      <trkpt lat="43.42344" lon="6.60848">
        <ele>223.80000305176</ele>
        <time>2019-05-04T09:44:17.000Z</time>
      </trkpt>
      <trkpt lat="43.42348" lon="6.60848">
        <ele>224.39999389648</ele>
        <time>2019-05-04T09:44:19.000Z</time>
      </trkpt>
      <trkpt lat="43.42353" lon="6.60853">
        <ele>225.19999694824</ele>
        <time>2019-05-04T09:44:22.000Z</time>
      </trkpt>
      <trkpt lat="43.42354" lon="6.60855">
        <ele>225.60000610352</ele>
        <time>2019-05-04T09:44:23.000Z</time>
      </trkpt>
      <trkpt lat="43.42355" lon="6.60862">
        <ele>226.60000610352</ele>
        <time>2019-05-04T09:44:27.000Z</time>
      </trkpt>
      <trkpt lat="43.42355" lon="6.60863">
        <ele>227</ele>
        <time>2019-05-04T09:44:28.000Z</time>
      </trkpt>
      <trkpt lat="43.42355" lon="6.60869">
        <ele>228</ele>
        <time>2019-05-04T09:44:31.000Z</time>
      </trkpt>
      <trkpt lat="43.42355" lon="6.60879">
        <ele>228.60000610352</ele>
        <time>2019-05-04T09:44:35.000Z</time>
      </trkpt>
      <trkpt lat="43.42355" lon="6.60885">
        <ele>229.19999694824</ele>
        <time>2019-05-04T09:44:38.000Z</time>
      </trkpt>
      <trkpt lat="43.42354" lon="6.60892">
        <ele>230.19999694824</ele>
        <time>2019-05-04T09:44:42.000Z</time>
      </trkpt>
      <trkpt lat="43.42354" lon="6.60894">
        <ele>230.39999389648</ele>
        <time>2019-05-04T09:44:43.000Z</time>
      </trkpt>
      <trkpt lat="43.42353" lon="6.60898">
        <ele>231.39999389648</ele>
        <time>2019-05-04T09:44:46.000Z</time>
      </trkpt>
      <trkpt lat="43.42351" lon="6.60902">
        <ele>232</ele>
        <time>2019-05-04T09:44:49.000Z</time>
      </trkpt>
      <trkpt lat="43.4235" lon="6.60904">
        <ele>232.39999389648</ele>
        <time>2019-05-04T09:44:51.000Z</time>
      </trkpt>
      <trkpt lat="43.42348" lon="6.60911">
        <ele>233.80000305176</ele>
        <time>2019-05-04T09:44:56.000Z</time>
      </trkpt>
      <trkpt lat="43.42347" lon="6.60914">
        <ele>234</ele>
        <time>2019-05-04T09:44:58.000Z</time>
      </trkpt>
      <trkpt lat="43.42343" lon="6.6092">
        <ele>234.80000305176</ele>
        <time>2019-05-04T09:45:02.000Z</time>
      </trkpt>
      <trkpt lat="43.42337" lon="6.60927">
        <ele>236</ele>
        <time>2019-05-04T09:45:07.000Z</time>
      </trkpt>
      <trkpt lat="43.42336" lon="6.60929">
        <ele>236.19999694824</ele>
        <time>2019-05-04T09:45:08.000Z</time>
      </trkpt>
      <trkpt lat="43.42333" lon="6.60932">
        <ele>237.19999694824</ele>
        <time>2019-05-04T09:45:11.000Z</time>
      </trkpt>
      <trkpt lat="43.42328" lon="6.60938">
        <ele>238.60000610352</ele>
        <time>2019-05-04T09:45:16.000Z</time>
      </trkpt>
      <trkpt lat="43.42323" lon="6.60943">
        <ele>239.60000610352</ele>
        <time>2019-05-04T09:45:20.000Z</time>
      </trkpt>
      <trkpt lat="43.42321" lon="6.60946">
        <ele>240.19999694824</ele>
        <time>2019-05-04T09:45:22.000Z</time>
      </trkpt>
      <trkpt lat="43.42319" lon="6.60951">
        <ele>240.80000305176</ele>
        <time>2019-05-04T09:45:25.000Z</time>
      </trkpt>
      <trkpt lat="43.42316" lon="6.60957">
        <ele>241.80000305176</ele>
        <time>2019-05-04T09:45:29.000Z</time>
      </trkpt>
      <trkpt lat="43.42314" lon="6.6096">
        <ele>242.39999389648</ele>
        <time>2019-05-04T09:45:31.000Z</time>
      </trkpt>
      <trkpt lat="43.42312" lon="6.60964">
        <ele>242.80000305176</ele>
        <time>2019-05-04T09:45:33.000Z</time>
      </trkpt>
      <trkpt lat="43.4231" lon="6.60971">
        <ele>244</ele>
        <time>2019-05-04T09:45:37.000Z</time>
      </trkpt>
      <trkpt lat="43.42305" lon="6.60982">
        <ele>245</ele>
        <time>2019-05-04T09:45:43.000Z</time>
      </trkpt>
      <trkpt lat="43.42304" lon="6.60984">
        <ele>245.19999694824</ele>
        <time>2019-05-04T09:45:44.000Z</time>
      </trkpt>
      <trkpt lat="43.42299" lon="6.60999">
        <ele>246</ele>
        <time>2019-05-04T09:45:51.000Z</time>
      </trkpt>
      <trkpt lat="43.42298" lon="6.61004">
        <ele>246</ele>
        <time>2019-05-04T09:45:53.000Z</time>
      </trkpt>
      <trkpt lat="43.42296" lon="6.61013">
        <ele>246.19999694824</ele>
        <time>2019-05-04T09:45:56.000Z</time>
      </trkpt>
      <trkpt lat="43.4229" lon="6.61028">
        <ele>246.60000610352</ele>
        <time>2019-05-04T09:46:03.000Z</time>
      </trkpt>
      <trkpt lat="43.42285" lon="6.61036">
        <ele>247</ele>
        <time>2019-05-04T09:46:07.000Z</time>
      </trkpt>
      <trkpt lat="43.4228" lon="6.61045">
        <ele>247.60000610352</ele>
        <time>2019-05-04T09:46:12.000Z</time>
      </trkpt>
      <trkpt lat="43.42275" lon="6.61051">
        <ele>248</ele>
        <time>2019-05-04T09:46:16.000Z</time>
      </trkpt>
      <trkpt lat="43.42271" lon="6.61054">
        <ele>248.39999389648</ele>
        <time>2019-05-04T09:46:19.000Z</time>
      </trkpt>
      <trkpt lat="43.4226" lon="6.61063">
        <ele>248.60000610352</ele>
        <time>2019-05-04T09:46:26.000Z</time>
      </trkpt>
      <trkpt lat="43.42252" lon="6.61077">
        <ele>249</ele>
        <time>2019-05-04T09:46:32.000Z</time>
      </trkpt>
      <trkpt lat="43.42252" lon="6.61079">
        <ele>249.19999694824</ele>
        <time>2019-05-04T09:46:33.000Z</time>
      </trkpt>
      <trkpt lat="43.42251" lon="6.61089">
        <ele>250.60000610352</ele>
        <time>2019-05-04T09:46:37.000Z</time>
      </trkpt>
      <trkpt lat="43.4225" lon="6.61091">
        <ele>250.80000305176</ele>
        <time>2019-05-04T09:46:38.000Z</time>
      </trkpt>
      <trkpt lat="43.4225" lon="6.61096">
        <ele>251.60000610352</ele>
        <time>2019-05-04T09:46:41.000Z</time>
      </trkpt>
      <trkpt lat="43.42249" lon="6.61099">
        <ele>252.39999389648</ele>
        <time>2019-05-04T09:46:43.000Z</time>
      </trkpt>
      <trkpt lat="43.42249" lon="6.61098">
        <ele>252.80000305176</ele>
        <time>2019-05-04T09:46:44.000Z</time>
      </trkpt>
      <trkpt lat="43.42248" lon="6.611">
        <ele>253</ele>
        <time>2019-05-04T09:46:46.000Z</time>
      </trkpt>
      <trkpt lat="43.42248" lon="6.61099">
        <ele>253.19999694824</ele>
        <time>2019-05-04T09:46:47.000Z</time>
      </trkpt>
      <trkpt lat="43.42247" lon="6.61104">
        <ele>253.80000305176</ele>
        <time>2019-05-04T09:46:51.000Z</time>
      </trkpt>
      <trkpt lat="43.42247" lon="6.61106">
        <ele>253.80000305176</ele>
        <time>2019-05-04T09:46:52.000Z</time>
      </trkpt>
      <trkpt lat="43.4225" lon="6.61118">
        <ele>253.60000610352</ele>
        <time>2019-05-04T09:46:57.000Z</time>
      </trkpt>
      <trkpt lat="43.4225" lon="6.6112">
        <ele>253.80000305176</ele>
        <time>2019-05-04T09:46:58.000Z</time>
      </trkpt>
      <trkpt lat="43.42251" lon="6.61134">
        <ele>255</ele>
        <time>2019-05-04T09:47:05.000Z</time>
      </trkpt>
      <trkpt lat="43.42252" lon="6.61142">
        <ele>256</ele>
        <time>2019-05-04T09:47:10.000Z</time>
      </trkpt>
      <trkpt lat="43.42253" lon="6.61145">
        <ele>256.39999389648</ele>
        <time>2019-05-04T09:47:12.000Z</time>
      </trkpt>
      <trkpt lat="43.42254" lon="6.61148">
        <ele>256.79998779297</ele>
        <time>2019-05-04T09:47:14.000Z</time>
      </trkpt>
      <trkpt lat="43.42255" lon="6.61149">
        <ele>257</ele>
        <time>2019-05-04T09:47:15.000Z</time>
      </trkpt>
      <trkpt lat="43.42259" lon="6.61152">
        <ele>257.39999389648</ele>
        <time>2019-05-04T09:47:18.000Z</time>
      </trkpt>
      <trkpt lat="43.42268" lon="6.61162">
        <ele>257.39999389648</ele>
        <time>2019-05-04T09:47:25.000Z</time>
      </trkpt>
      <trkpt lat="43.42272" lon="6.61167">
        <ele>257.79998779297</ele>
        <time>2019-05-04T09:47:30.000Z</time>
      </trkpt>
      <trkpt lat="43.42272" lon="6.61169">
        <ele>258</ele>
        <time>2019-05-04T09:47:31.000Z</time>
      </trkpt>
      <trkpt lat="43.42272" lon="6.61168">
        <ele>258</ele>
        <time>2019-05-04T09:47:32.000Z</time>
      </trkpt>
      <trkpt lat="43.42272" lon="6.61169">
        <ele>258.39999389648</ele>
        <time>2019-05-04T09:47:35.000Z</time>
      </trkpt>
      <trkpt lat="43.4227" lon="6.61173">
        <ele>258.79998779297</ele>
        <time>2019-05-04T09:47:41.000Z</time>
      </trkpt>
      <trkpt lat="43.42269" lon="6.61174">
        <ele>259.20001220703</ele>
        <time>2019-05-04T09:47:43.000Z</time>
      </trkpt>
      <trkpt lat="43.42266" lon="6.61176">
        <ele>260.39999389648</ele>
        <time>2019-05-04T09:47:48.000Z</time>
      </trkpt>
      <trkpt lat="43.42266" lon="6.61176">
        <ele>260.60000610352</ele>
        <time>2019-05-04T09:47:49.000Z</time>
      </trkpt>
      <trkpt lat="43.42262" lon="6.61177">
        <ele>261.39999389648</ele>
        <time>2019-05-04T09:47:55.000Z</time>
      </trkpt>
      <trkpt lat="43.42259" lon="6.61181">
        <ele>262.60000610352</ele>
        <time>2019-05-04T09:48:02.000Z</time>
      </trkpt>
      <trkpt lat="43.42258" lon="6.61182">
        <ele>262.79998779297</ele>
        <time>2019-05-04T09:48:03.000Z</time>
      </trkpt>
      <trkpt lat="43.42257" lon="6.61185">
        <ele>263.60000610352</ele>
        <time>2019-05-04T09:48:07.000Z</time>
      </trkpt>
      <trkpt lat="43.42257" lon="6.61187">
        <ele>264.20001220703</ele>
        <time>2019-05-04T09:48:10.000Z</time>
      </trkpt>
      <trkpt lat="43.42256" lon="6.6119">
        <ele>264.60000610352</ele>
        <time>2019-05-04T09:48:13.000Z</time>
      </trkpt>
      <trkpt lat="43.42255" lon="6.61194">
        <ele>265.79998779297</ele>
        <time>2019-05-04T09:48:18.000Z</time>
      </trkpt>
      <trkpt lat="43.42255" lon="6.61196">
        <ele>266.79998779297</ele>
        <time>2019-05-04T09:48:26.000Z</time>
      </trkpt>
      <trkpt lat="43.42255" lon="6.61197">
        <ele>266.79998779297</ele>
        <time>2019-05-04T09:48:29.000Z</time>
      </trkpt>
      <trkpt lat="43.42256" lon="6.61198">
        <ele>267</ele>
        <time>2019-05-04T09:48:32.000Z</time>
      </trkpt>
      <trkpt lat="43.42257" lon="6.61203">
        <ele>267</ele>
        <time>2019-05-04T09:48:38.000Z</time>
      </trkpt>
      <trkpt lat="43.42258" lon="6.6121">
        <ele>268</ele>
        <time>2019-05-04T09:48:44.000Z</time>
      </trkpt>
      <trkpt lat="43.42258" lon="6.61212">
        <ele>268</ele>
        <time>2019-05-04T09:48:45.000Z</time>
      </trkpt>
      <trkpt lat="43.42257" lon="6.61218">
        <ele>269</ele>
        <time>2019-05-04T09:48:51.000Z</time>
      </trkpt>
      <trkpt lat="43.42257" lon="6.61219">
        <ele>269.39999389648</ele>
        <time>2019-05-04T09:48:52.000Z</time>
      </trkpt>
      <trkpt lat="43.42256" lon="6.61221">
        <ele>270.20001220703</ele>
        <time>2019-05-04T09:48:55.000Z</time>
      </trkpt>
      <trkpt lat="43.42253" lon="6.61223">
        <ele>271.20001220703</ele>
        <time>2019-05-04T09:49:00.000Z</time>
      </trkpt>
      <trkpt lat="43.4225" lon="6.61226">
        <ele>272.20001220703</ele>
        <time>2019-05-04T09:49:06.000Z</time>
      </trkpt>
      <trkpt lat="43.42249" lon="6.61228">
        <ele>273.20001220703</ele>
        <time>2019-05-04T09:49:10.000Z</time>
      </trkpt>
      <trkpt lat="43.42248" lon="6.61228">
        <ele>273.20001220703</ele>
        <time>2019-05-04T09:49:11.000Z</time>
      </trkpt>
      <trkpt lat="43.42247" lon="6.61229">
        <ele>273.60000610352</ele>
        <time>2019-05-04T09:49:13.000Z</time>
      </trkpt>
      <trkpt lat="43.42245" lon="6.61232">
        <ele>274.39999389648</ele>
        <time>2019-05-04T09:49:18.000Z</time>
      </trkpt>
      <trkpt lat="43.42244" lon="6.61235">
        <ele>275.20001220703</ele>
        <time>2019-05-04T09:49:22.000Z</time>
      </trkpt>
      <trkpt lat="43.42244" lon="6.61235">
        <ele>275.60000610352</ele>
        <time>2019-05-04T09:49:23.000Z</time>
      </trkpt>
      <trkpt lat="43.42242" lon="6.6124">
        <ele>276.79998779297</ele>
        <time>2019-05-04T09:49:29.000Z</time>
      </trkpt>
      <trkpt lat="43.42242" lon="6.6124">
        <ele>277</ele>
        <time>2019-05-04T09:49:30.000Z</time>
      </trkpt>
      <trkpt lat="43.42244" lon="6.61244">
        <ele>277.79998779297</ele>
        <time>2019-05-04T09:49:34.000Z</time>
      </trkpt>
      <trkpt lat="43.42245" lon="6.61249">
        <ele>278.20001220703</ele>
        <time>2019-05-04T09:49:38.000Z</time>
      </trkpt>
      <trkpt lat="43.42246" lon="6.61255">
        <ele>279</ele>
        <time>2019-05-04T09:49:44.000Z</time>
      </trkpt>
      <trkpt lat="43.42246" lon="6.61258">
        <ele>279.39999389648</ele>
        <time>2019-05-04T09:49:47.000Z</time>
      </trkpt>
      <trkpt lat="43.42246" lon="6.61261">
        <ele>280</ele>
        <time>2019-05-04T09:49:50.000Z</time>
      </trkpt>
      <trkpt lat="43.42245" lon="6.61264">
        <ele>280.79998779297</ele>
        <time>2019-05-04T09:49:54.000Z</time>
      </trkpt>
      <trkpt lat="43.42244" lon="6.61266">
        <ele>281.20001220703</ele>
        <time>2019-05-04T09:49:56.000Z</time>
      </trkpt>
      <trkpt lat="43.42242" lon="6.61269">
        <ele>282.20001220703</ele>
        <time>2019-05-04T09:50:01.000Z</time>
      </trkpt>
      <trkpt lat="43.42239" lon="6.61274">
        <ele>283.20001220703</ele>
        <time>2019-05-04T09:50:08.000Z</time>
      </trkpt>
      <trkpt lat="43.42238" lon="6.61276">
        <ele>283.39999389648</ele>
        <time>2019-05-04T09:50:10.000Z</time>
      </trkpt>
      <trkpt lat="43.42237" lon="6.61279">
        <ele>284.20001220703</ele>
        <time>2019-05-04T09:50:15.000Z</time>
      </trkpt>
      <trkpt lat="43.42236" lon="6.61282">
        <ele>285</ele>
        <time>2019-05-04T09:50:18.000Z</time>
      </trkpt>
      <trkpt lat="43.42235" lon="6.61283">
        <ele>285.39999389648</ele>
        <time>2019-05-04T09:50:20.000Z</time>
      </trkpt>
      <trkpt lat="43.42233" lon="6.61288">
        <ele>286.39999389648</ele>
        <time>2019-05-04T09:50:26.000Z</time>
      </trkpt>
      <trkpt lat="43.42232" lon="6.61292">
        <ele>287.60000610352</ele>
        <time>2019-05-04T09:50:31.000Z</time>
      </trkpt>
      <trkpt lat="43.42232" lon="6.61294">
        <ele>288</ele>
        <time>2019-05-04T09:50:33.000Z</time>
      </trkpt>
      <trkpt lat="43.42232" lon="6.61297">
        <ele>288.60000610352</ele>
        <time>2019-05-04T09:50:36.000Z</time>
      </trkpt>
      <trkpt lat="43.42231" lon="6.613">
        <ele>289.20001220703</ele>
        <time>2019-05-04T09:50:38.000Z</time>
      </trkpt>
      <trkpt lat="43.42231" lon="6.61303">
        <ele>289.79998779297</ele>
        <time>2019-05-04T09:50:41.000Z</time>
      </trkpt>
      <trkpt lat="43.4223" lon="6.61309">
        <ele>290.79998779297</ele>
        <time>2019-05-04T09:50:48.000Z</time>
      </trkpt>
      <trkpt lat="43.4223" lon="6.6131">
        <ele>291</ele>
        <time>2019-05-04T09:50:49.000Z</time>
      </trkpt>
      <trkpt lat="43.42231" lon="6.61311">
        <ele>291.20001220703</ele>
        <time>2019-05-04T09:50:53.000Z</time>
      </trkpt>
      <trkpt lat="43.42231" lon="6.61311">
        <ele>291</ele>
        <time>2019-05-04T09:50:54.000Z</time>
      </trkpt>
      <trkpt lat="43.42231" lon="6.61314">
        <ele>291.20001220703</ele>
        <time>2019-05-04T09:50:56.000Z</time>
      </trkpt>
      <trkpt lat="43.42233" lon="6.61318">
        <ele>291.39999389648</ele>
        <time>2019-05-04T09:50:59.000Z</time>
      </trkpt>
      <trkpt lat="43.42236" lon="6.61325">
        <ele>291.79998779297</ele>
        <time>2019-05-04T09:51:03.000Z</time>
      </trkpt>
      <trkpt lat="43.42236" lon="6.61328">
        <ele>292</ele>
        <time>2019-05-04T09:51:04.000Z</time>
      </trkpt>
      <trkpt lat="43.42236" lon="6.61331">
        <ele>292.20001220703</ele>
        <time>2019-05-04T09:51:05.000Z</time>
      </trkpt>
      <trkpt lat="43.42231" lon="6.61339">
        <ele>293</ele>
        <time>2019-05-04T09:51:09.000Z</time>
      </trkpt>
      <trkpt lat="43.42228" lon="6.61343">
        <ele>293.39999389648</ele>
        <time>2019-05-04T09:51:11.000Z</time>
      </trkpt>
      <trkpt lat="43.42224" lon="6.61351">
        <ele>294.20001220703</ele>
        <time>2019-05-04T09:51:15.000Z</time>
      </trkpt>
      <trkpt lat="43.42222" lon="6.61359">
        <ele>294.39999389648</ele>
        <time>2019-05-04T09:51:18.000Z</time>
      </trkpt>
      <trkpt lat="43.4222" lon="6.61375">
        <ele>294.39999389648</ele>
        <time>2019-05-04T09:51:24.000Z</time>
      </trkpt>
      <trkpt lat="43.42218" lon="6.61394">
        <ele>294.79998779297</ele>
        <time>2019-05-04T09:51:31.000Z</time>
      </trkpt>
      <trkpt lat="43.42218" lon="6.61399">
        <ele>295.39999389648</ele>
        <time>2019-05-04T09:51:33.000Z</time>
      </trkpt>
      <trkpt lat="43.42219" lon="6.61409">
        <ele>296.60000610352</ele>
        <time>2019-05-04T09:51:37.000Z</time>
      </trkpt>
      <trkpt lat="43.4222" lon="6.61414">
        <ele>297</ele>
        <time>2019-05-04T09:51:39.000Z</time>
      </trkpt>
      <trkpt lat="43.4222" lon="6.6142">
        <ele>297.60000610352</ele>
        <time>2019-05-04T09:51:41.000Z</time>
      </trkpt>
      <trkpt lat="43.42221" lon="6.61429">
        <ele>298.79998779297</ele>
        <time>2019-05-04T09:51:45.000Z</time>
      </trkpt>
      <trkpt lat="43.42223" lon="6.61445">
        <ele>299.79998779297</ele>
        <time>2019-05-04T09:51:51.000Z</time>
      </trkpt>
      <trkpt lat="43.42234" lon="6.61468">
        <ele>300.39999389648</ele>
        <time>2019-05-04T09:51:59.000Z</time>
      </trkpt>
      <trkpt lat="43.42243" lon="6.61472">
        <ele>300</ele>
        <time>2019-05-04T09:52:03.000Z</time>
      </trkpt>
      <trkpt lat="43.42243" lon="6.61473">
        <ele>299.60000610352</ele>
        <time>2019-05-04T09:52:08.000Z</time>
      </trkpt>
      <trkpt lat="43.42244" lon="6.61473">
        <ele>299.79998779297</ele>
        <time>2019-05-04T09:52:25.000Z</time>
      </trkpt>
      <trkpt lat="43.42244" lon="6.61473">
        <ele>300</ele>
        <time>2019-05-04T09:52:45.000Z</time>
      </trkpt>
      <trkpt lat="43.42245" lon="6.61474">
        <ele>300</ele>
        <time>2019-05-04T09:53:07.000Z</time>
      </trkpt>
      <trkpt lat="43.42245" lon="6.61474">
        <ele>300</ele>
        <time>2019-05-04T09:53:21.000Z</time>
      </trkpt>
      <trkpt lat="43.42244" lon="6.61475">
        <ele>300</ele>
        <time>2019-05-04T09:53:34.000Z</time>
      </trkpt>
      <trkpt lat="43.42245" lon="6.61475">
        <ele>300</ele>
        <time>2019-05-04T09:53:41.000Z</time>
      </trkpt>
      <trkpt lat="43.42244" lon="6.61475">
        <ele>300</ele>
        <time>2019-05-04T09:54:07.000Z</time>
      </trkpt>
      <trkpt lat="43.42244" lon="6.61475">
        <ele>300</ele>
        <time>2019-05-04T09:54:38.000Z</time>
      </trkpt>
      <trkpt lat="43.42244" lon="6.61475">
        <ele>300</ele>
        <time>2019-05-04T09:54:59.000Z</time>
      </trkpt>
      <trkpt lat="43.42244" lon="6.61475">
        <ele>300</ele>
        <time>2019-05-04T09:55:22.000Z</time>
      </trkpt>
      <trkpt lat="43.42245" lon="6.61475">
        <ele>300.20001220703</ele>
        <time>2019-05-04T09:55:30.000Z</time>
      </trkpt>
      <trkpt lat="43.42245" lon="6.61475">
        <ele>300</ele>
        <time>2019-05-04T09:55:46.000Z</time>
      </trkpt>
      <trkpt lat="43.42245" lon="6.61475">
        <ele>300</ele>
        <time>2019-05-04T09:56:00.000Z</time>
      </trkpt>
      <trkpt lat="43.42245" lon="6.61476">
        <ele>299.60000610352</ele>
        <time>2019-05-04T09:56:07.000Z</time>
      </trkpt>
      <trkpt lat="43.42245" lon="6.61475">
        <ele>299.79998779297</ele>
        <time>2019-05-04T09:56:26.000Z</time>
      </trkpt>
      <trkpt lat="43.42244" lon="6.61474">
        <ele>299.60000610352</ele>
        <time>2019-05-04T09:56:46.000Z</time>
      </trkpt>
      <trkpt lat="43.42244" lon="6.61474">
        <ele>299.60000610352</ele>
        <time>2019-05-04T09:57:11.000Z</time>
      </trkpt>
      <trkpt lat="43.42244" lon="6.61474">
        <ele>299.39999389648</ele>
        <time>2019-05-04T09:57:33.000Z</time>
      </trkpt>
      <trkpt lat="43.42249" lon="6.61471">
        <ele>299.20001220703</ele>
        <time>2019-05-04T09:57:40.000Z</time>
      </trkpt>
      <trkpt lat="43.4226" lon="6.61455">
        <ele>299.20001220703</ele>
        <time>2019-05-04T09:57:47.000Z</time>
      </trkpt>
      <trkpt lat="43.42259" lon="6.61451">
        <ele>299</ele>
        <time>2019-05-04T09:57:48.000Z</time>
      </trkpt>
      <trkpt lat="43.42257" lon="6.61441">
        <ele>299</ele>
        <time>2019-05-04T09:57:51.000Z</time>
      </trkpt>
      <trkpt lat="43.42257" lon="6.61433">
        <ele>298.79998779297</ele>
        <time>2019-05-04T09:57:53.000Z</time>
      </trkpt>
      <trkpt lat="43.42258" lon="6.61429">
        <ele>298.60000610352</ele>
        <time>2019-05-04T09:57:54.000Z</time>
      </trkpt>
      <trkpt lat="43.42257" lon="6.61424">
        <ele>298.60000610352</ele>
        <time>2019-05-04T09:57:55.000Z</time>
      </trkpt>
      <trkpt lat="43.42258" lon="6.61411">
        <ele>298</ele>
        <time>2019-05-04T09:57:58.000Z</time>
      </trkpt>
      <trkpt lat="43.42273" lon="6.61404">
        <ele>297.60000610352</ele>
        <time>2019-05-04T09:58:02.000Z</time>
      </trkpt>
      <trkpt lat="43.42276" lon="6.61407">
        <ele>297.60000610352</ele>
        <time>2019-05-04T09:58:03.000Z</time>
      </trkpt>
      <trkpt lat="43.4228" lon="6.6141">
        <ele>297</ele>
        <time>2019-05-04T09:58:04.000Z</time>
      </trkpt>
      <trkpt lat="43.42283" lon="6.6141">
        <ele>296.60000610352</ele>
        <time>2019-05-04T09:58:05.000Z</time>
      </trkpt>
      <trkpt lat="43.42286" lon="6.61407">
        <ele>295.79998779297</ele>
        <time>2019-05-04T09:58:06.000Z</time>
      </trkpt>
      <trkpt lat="43.42291" lon="6.61401">
        <ele>294.20001220703</ele>
        <time>2019-05-04T09:58:08.000Z</time>
      </trkpt>
      <trkpt lat="43.42297" lon="6.61405">
        <ele>293</ele>
        <time>2019-05-04T09:58:10.000Z</time>
      </trkpt>
      <trkpt lat="43.423" lon="6.61409">
        <ele>292.39999389648</ele>
        <time>2019-05-04T09:58:11.000Z</time>
      </trkpt>
      <trkpt lat="43.42303" lon="6.61411">
        <ele>291.79998779297</ele>
        <time>2019-05-04T09:58:12.000Z</time>
      </trkpt>
      <trkpt lat="43.42305" lon="6.61406">
        <ele>290.79998779297</ele>
        <time>2019-05-04T09:58:14.000Z</time>
      </trkpt>
      <trkpt lat="43.42305" lon="6.61403">
        <ele>290.60000610352</ele>
        <time>2019-05-04T09:58:15.000Z</time>
      </trkpt>
      <trkpt lat="43.42309" lon="6.61391">
        <ele>289.39999389648</ele>
        <time>2019-05-04T09:58:18.000Z</time>
      </trkpt>
      <trkpt lat="43.42311" lon="6.61388">
        <ele>289</ele>
        <time>2019-05-04T09:58:19.000Z</time>
      </trkpt>
      <trkpt lat="43.42312" lon="6.61384">
        <ele>288.39999389648</ele>
        <time>2019-05-04T09:58:20.000Z</time>
      </trkpt>
      <trkpt lat="43.42311" lon="6.61376">
        <ele>286.79998779297</ele>
        <time>2019-05-04T09:58:22.000Z</time>
      </trkpt>
      <trkpt lat="43.42314" lon="6.61371">
        <ele>284.60000610352</ele>
        <time>2019-05-04T09:58:24.000Z</time>
      </trkpt>
      <trkpt lat="43.42317" lon="6.61371">
        <ele>283.39999389648</ele>
        <time>2019-05-04T09:58:25.000Z</time>
      </trkpt>
      <trkpt lat="43.4232" lon="6.61372">
        <ele>281.79998779297</ele>
        <time>2019-05-04T09:58:26.000Z</time>
      </trkpt>
      <trkpt lat="43.42323" lon="6.61373">
        <ele>280.39999389648</ele>
        <time>2019-05-04T09:58:27.000Z</time>
      </trkpt>
      <trkpt lat="43.42329" lon="6.61372">
        <ele>278.79998779297</ele>
        <time>2019-05-04T09:58:29.000Z</time>
      </trkpt>
      <trkpt lat="43.42332" lon="6.6137">
        <ele>277.39999389648</ele>
        <time>2019-05-04T09:58:30.000Z</time>
      </trkpt>
      <trkpt lat="43.42334" lon="6.61368">
        <ele>276.39999389648</ele>
        <time>2019-05-04T09:58:31.000Z</time>
      </trkpt>
      <trkpt lat="43.42335" lon="6.61364">
        <ele>275.39999389648</ele>
        <time>2019-05-04T09:58:32.000Z</time>
      </trkpt>
      <trkpt lat="43.42338" lon="6.61363">
        <ele>274</ele>
        <time>2019-05-04T09:58:33.000Z</time>
      </trkpt>
      <trkpt lat="43.42343" lon="6.61367">
        <ele>272.60000610352</ele>
        <time>2019-05-04T09:58:35.000Z</time>
      </trkpt>
      <trkpt lat="43.42347" lon="6.61368">
        <ele>272.20001220703</ele>
        <time>2019-05-04T09:58:36.000Z</time>
      </trkpt>
      <trkpt lat="43.4235" lon="6.61366">
        <ele>271.39999389648</ele>
        <time>2019-05-04T09:58:37.000Z</time>
      </trkpt>
      <trkpt lat="43.42356" lon="6.61359">
        <ele>270.39999389648</ele>
        <time>2019-05-04T09:58:39.000Z</time>
      </trkpt>
      <trkpt lat="43.4236" lon="6.61358">
        <ele>269.20001220703</ele>
        <time>2019-05-04T09:58:40.000Z</time>
      </trkpt>
      <trkpt lat="43.42366" lon="6.61357">
        <ele>267.79998779297</ele>
        <time>2019-05-04T09:58:41.000Z</time>
      </trkpt>
      <trkpt lat="43.42372" lon="6.61357">
        <ele>266.39999389648</ele>
        <time>2019-05-04T09:58:42.000Z</time>
      </trkpt>
      <trkpt lat="43.42378" lon="6.61359">
        <ele>264.39999389648</ele>
        <time>2019-05-04T09:58:43.000Z</time>
      </trkpt>
      <trkpt lat="43.42384" lon="6.61362">
        <ele>262.79998779297</ele>
        <time>2019-05-04T09:58:44.000Z</time>
      </trkpt>
      <trkpt lat="43.42389" lon="6.61365">
        <ele>261.60000610352</ele>
        <time>2019-05-04T09:58:45.000Z</time>
      </trkpt>
      <trkpt lat="43.42395" lon="6.6137">
        <ele>260.20001220703</ele>
        <time>2019-05-04T09:58:46.000Z</time>
      </trkpt>
      <trkpt lat="43.42398" lon="6.61374">
        <ele>259.20001220703</ele>
        <time>2019-05-04T09:58:47.000Z</time>
      </trkpt>
      <trkpt lat="43.42402" lon="6.61379">
        <ele>258.60000610352</ele>
        <time>2019-05-04T09:58:48.000Z</time>
      </trkpt>
      <trkpt lat="43.42409" lon="6.61384">
        <ele>258</ele>
        <time>2019-05-04T09:58:50.000Z</time>
      </trkpt>
      <trkpt lat="43.42415" lon="6.61387">
        <ele>258</ele>
        <time>2019-05-04T09:58:51.000Z</time>
      </trkpt>
      <trkpt lat="43.4242" lon="6.61391">
        <ele>258</ele>
        <time>2019-05-04T09:58:52.000Z</time>
      </trkpt>
      <trkpt lat="43.42448" lon="6.61417">
        <ele>257</ele>
        <time>2019-05-04T09:58:57.000Z</time>
      </trkpt>
      <trkpt lat="43.42453" lon="6.61421">
        <ele>256.20001220703</ele>
        <time>2019-05-04T09:58:58.000Z</time>
      </trkpt>
      <trkpt lat="43.42463" lon="6.61432">
        <ele>254.60000610352</ele>
        <time>2019-05-04T09:59:00.000Z</time>
      </trkpt>
      <trkpt lat="43.42469" lon="6.61436">
        <ele>253.39999389648</ele>
        <time>2019-05-04T09:59:01.000Z</time>
      </trkpt>
      <trkpt lat="43.42474" lon="6.61437">
        <ele>251.80000305176</ele>
        <time>2019-05-04T09:59:02.000Z</time>
      </trkpt>
      <trkpt lat="43.42478" lon="6.61441">
        <ele>250.39999389648</ele>
        <time>2019-05-04T09:59:03.000Z</time>
      </trkpt>
      <trkpt lat="43.42481" lon="6.61445">
        <ele>248.80000305176</ele>
        <time>2019-05-04T09:59:04.000Z</time>
      </trkpt>
      <trkpt lat="43.42484" lon="6.61452">
        <ele>247.39999389648</ele>
        <time>2019-05-04T09:59:05.000Z</time>
      </trkpt>
      <trkpt lat="43.42495" lon="6.6146">
        <ele>245.80000305176</ele>
        <time>2019-05-04T09:59:07.000Z</time>
      </trkpt>
      <trkpt lat="43.42501" lon="6.61462">
        <ele>245</ele>
        <time>2019-05-04T09:59:08.000Z</time>
      </trkpt>
      <trkpt lat="43.42508" lon="6.61465">
        <ele>244.19999694824</ele>
        <time>2019-05-04T09:59:09.000Z</time>
      </trkpt>
      <trkpt lat="43.42513" lon="6.61466">
        <ele>243.80000305176</ele>
        <time>2019-05-04T09:59:10.000Z</time>
      </trkpt>
      <trkpt lat="43.4252" lon="6.61464">
        <ele>242.80000305176</ele>
        <time>2019-05-04T09:59:11.000Z</time>
      </trkpt>
      <trkpt lat="43.42531" lon="6.61464">
        <ele>241.19999694824</ele>
        <time>2019-05-04T09:59:13.000Z</time>
      </trkpt>
      <trkpt lat="43.4254" lon="6.61462">
        <ele>241</ele>
        <time>2019-05-04T09:59:15.000Z</time>
      </trkpt>
      <trkpt lat="43.4255" lon="6.61464">
        <ele>241.60000610352</ele>
        <time>2019-05-04T09:59:19.000Z</time>
      </trkpt>
      <trkpt lat="43.42553" lon="6.61465">
        <ele>242.39999389648</ele>
        <time>2019-05-04T09:59:21.000Z</time>
      </trkpt>
      <trkpt lat="43.42557" lon="6.61468">
        <ele>243</ele>
        <time>2019-05-04T09:59:24.000Z</time>
      </trkpt>
      <trkpt lat="43.42559" lon="6.61469">
        <ele>243.39999389648</ele>
        <time>2019-05-04T09:59:26.000Z</time>
      </trkpt>
      <trkpt lat="43.42562" lon="6.61469">
        <ele>243.80000305176</ele>
        <time>2019-05-04T09:59:29.000Z</time>
      </trkpt>
      <trkpt lat="43.42566" lon="6.61469">
        <ele>244</ele>
        <time>2019-05-04T09:59:34.000Z</time>
      </trkpt>
      <trkpt lat="43.42566" lon="6.61469">
        <ele>244.19999694824</ele>
        <time>2019-05-04T09:59:42.000Z</time>
      </trkpt>
      <trkpt lat="43.42567" lon="6.6147">
        <ele>244.39999389648</ele>
        <time>2019-05-04T09:59:53.000Z</time>
      </trkpt>
      <trkpt lat="43.42566" lon="6.6147">
        <ele>244.39999389648</ele>
        <time>2019-05-04T10:00:02.000Z</time>
      </trkpt>
      <trkpt lat="43.42567" lon="6.61471">
        <ele>244.39999389648</ele>
        <time>2019-05-04T10:00:08.000Z</time>
      </trkpt>
      <trkpt lat="43.42575" lon="6.61471">
        <ele>244.39999389648</ele>
        <time>2019-05-04T10:00:12.000Z</time>
      </trkpt>
      <trkpt lat="43.42584" lon="6.61483">
        <ele>243.80000305176</ele>
        <time>2019-05-04T10:00:16.000Z</time>
      </trkpt>
      <trkpt lat="43.42593" lon="6.61505">
        <ele>244</ele>
        <time>2019-05-04T10:00:21.000Z</time>
      </trkpt>
      <trkpt lat="43.42596" lon="6.61517">
        <ele>244.19999694824</ele>
        <time>2019-05-04T10:00:23.000Z</time>
      </trkpt>
      <trkpt lat="43.42595" lon="6.61525">
        <ele>244</ele>
        <time>2019-05-04T10:00:25.000Z</time>
      </trkpt>
      <trkpt lat="43.42596" lon="6.61529">
        <ele>244.39999389648</ele>
        <time>2019-05-04T10:00:28.000Z</time>
      </trkpt>
      <trkpt lat="43.42597" lon="6.61533">
        <ele>244.60000610352</ele>
        <time>2019-05-04T10:00:31.000Z</time>
      </trkpt>
      <trkpt lat="43.42599" lon="6.61536">
        <ele>244.60000610352</ele>
        <time>2019-05-04T10:00:32.000Z</time>
      </trkpt>
      <trkpt lat="43.42612" lon="6.61548">
        <ele>244.39999389648</ele>
        <time>2019-05-04T10:00:35.000Z</time>
      </trkpt>
      <trkpt lat="43.42622" lon="6.61561">
        <ele>243.39999389648</ele>
        <time>2019-05-04T10:00:37.000Z</time>
      </trkpt>
      <trkpt lat="43.42628" lon="6.61565">
        <ele>242.39999389648</ele>
        <time>2019-05-04T10:00:38.000Z</time>
      </trkpt>
      <trkpt lat="43.42632" lon="6.61569">
        <ele>241.60000610352</ele>
        <time>2019-05-04T10:00:39.000Z</time>
      </trkpt>
      <trkpt lat="43.42636" lon="6.61571">
        <ele>241.19999694824</ele>
        <time>2019-05-04T10:00:40.000Z</time>
      </trkpt>
      <trkpt lat="43.42641" lon="6.61572">
        <ele>241.39999389648</ele>
        <time>2019-05-04T10:00:41.000Z</time>
      </trkpt>
      <trkpt lat="43.42646" lon="6.61571">
        <ele>241.39999389648</ele>
        <time>2019-05-04T10:00:42.000Z</time>
      </trkpt>
      <trkpt lat="43.42663" lon="6.61571">
        <ele>239.19999694824</ele>
        <time>2019-05-04T10:00:45.000Z</time>
      </trkpt>
      <trkpt lat="43.42682" lon="6.61567">
        <ele>236.80000305176</ele>
        <time>2019-05-04T10:00:48.000Z</time>
      </trkpt>
      <trkpt lat="43.42688" lon="6.61563">
        <ele>235.39999389648</ele>
        <time>2019-05-04T10:00:49.000Z</time>
      </trkpt>
      <trkpt lat="43.42691" lon="6.6156">
        <ele>234.60000610352</ele>
        <time>2019-05-04T10:00:50.000Z</time>
      </trkpt>
      <trkpt lat="43.42696" lon="6.61557">
        <ele>234</ele>
        <time>2019-05-04T10:00:51.000Z</time>
      </trkpt>
      <trkpt lat="43.42705" lon="6.61554">
        <ele>233.80000305176</ele>
        <time>2019-05-04T10:00:53.000Z</time>
      </trkpt>
      <trkpt lat="43.42723" lon="6.61546">
        <ele>231.80000305176</ele>
        <time>2019-05-04T10:00:56.000Z</time>
      </trkpt>
      <trkpt lat="43.42727" lon="6.61544">
        <ele>231.39999389648</ele>
        <time>2019-05-04T10:00:57.000Z</time>
      </trkpt>
      <trkpt lat="43.42737" lon="6.61541">
        <ele>230.80000305176</ele>
        <time>2019-05-04T10:00:59.000Z</time>
      </trkpt>
      <trkpt lat="43.42745" lon="6.61542">
        <ele>230.39999389648</ele>
        <time>2019-05-04T10:01:01.000Z</time>
      </trkpt>
      <trkpt lat="43.42749" lon="6.61543">
        <ele>229.80000305176</ele>
        <time>2019-05-04T10:01:03.000Z</time>
      </trkpt>
      <trkpt lat="43.42749" lon="6.61542">
        <ele>229.60000610352</ele>
        <time>2019-05-04T10:01:04.000Z</time>
      </trkpt>
      <trkpt lat="43.42749" lon="6.61543">
        <ele>229</ele>
        <time>2019-05-04T10:01:12.000Z</time>
      </trkpt>
      <trkpt lat="43.4275" lon="6.61544">
        <ele>228.60000610352</ele>
        <time>2019-05-04T10:01:29.000Z</time>
      </trkpt>
      <trkpt lat="43.4275" lon="6.61544">
        <ele>228</ele>
        <time>2019-05-04T10:01:33.000Z</time>
      </trkpt>
      <trkpt lat="43.4275" lon="6.61545">
        <ele>227.60000610352</ele>
        <time>2019-05-04T10:01:39.000Z</time>
      </trkpt>
      <trkpt lat="43.42751" lon="6.61545">
        <ele>226.60000610352</ele>
        <time>2019-05-04T10:01:48.000Z</time>
      </trkpt>
      <trkpt lat="43.42751" lon="6.61545">
        <ele>225.80000305176</ele>
        <time>2019-05-04T10:01:54.000Z</time>
      </trkpt>
      <trkpt lat="43.42751" lon="6.61545">
        <ele>225.80000305176</ele>
        <time>2019-05-04T10:02:11.000Z</time>
      </trkpt>
      <trkpt lat="43.42751" lon="6.61545">
        <ele>225.80000305176</ele>
        <time>2019-05-04T10:02:32.000Z</time>
      </trkpt>
      <trkpt lat="43.42752" lon="6.61545">
        <ele>226</ele>
        <time>2019-05-04T10:02:48.000Z</time>
      </trkpt>
      <trkpt lat="43.42753" lon="6.61546">
        <ele>226</ele>
        <time>2019-05-04T10:03:01.000Z</time>
      </trkpt>
      <trkpt lat="43.42756" lon="6.61546">
        <ele>226</ele>
        <time>2019-05-04T10:03:03.000Z</time>
      </trkpt>
      <trkpt lat="43.42763" lon="6.61546">
        <ele>226</ele>
        <time>2019-05-04T10:03:05.000Z</time>
      </trkpt>
      <trkpt lat="43.4277" lon="6.61548">
        <ele>225.80000305176</ele>
        <time>2019-05-04T10:03:07.000Z</time>
      </trkpt>
      <trkpt lat="43.42773" lon="6.61551">
        <ele>225.39999389648</ele>
        <time>2019-05-04T10:03:08.000Z</time>
      </trkpt>
      <trkpt lat="43.42778" lon="6.61559">
        <ele>225.39999389648</ele>
        <time>2019-05-04T10:03:10.000Z</time>
      </trkpt>
      <trkpt lat="43.42782" lon="6.61569">
        <ele>224.60000610352</ele>
        <time>2019-05-04T10:03:12.000Z</time>
      </trkpt>
      <trkpt lat="43.42783" lon="6.61573">
        <ele>224.19999694824</ele>
        <time>2019-05-04T10:03:13.000Z</time>
      </trkpt>
      <trkpt lat="43.42785" lon="6.61575">
        <ele>223.80000305176</ele>
        <time>2019-05-04T10:03:14.000Z</time>
      </trkpt>
      <trkpt lat="43.42788" lon="6.61578">
        <ele>222</ele>
        <time>2019-05-04T10:03:15.000Z</time>
      </trkpt>
      <trkpt lat="43.4279" lon="6.61582">
        <ele>221</ele>
        <time>2019-05-04T10:03:16.000Z</time>
      </trkpt>
      <trkpt lat="43.42793" lon="6.61586">
        <ele>219</ele>
        <time>2019-05-04T10:03:17.000Z</time>
      </trkpt>
      <trkpt lat="43.42796" lon="6.6159">
        <ele>217.80000305176</ele>
        <time>2019-05-04T10:03:18.000Z</time>
      </trkpt>
      <trkpt lat="43.42797" lon="6.61595">
        <ele>216.60000610352</ele>
        <time>2019-05-04T10:03:19.000Z</time>
      </trkpt>
      <trkpt lat="43.42798" lon="6.616">
        <ele>215.39999389648</ele>
        <time>2019-05-04T10:03:20.000Z</time>
      </trkpt>
      <trkpt lat="43.42798" lon="6.61608">
        <ele>214.39999389648</ele>
        <time>2019-05-04T10:03:21.000Z</time>
      </trkpt>
      <trkpt lat="43.42796" lon="6.6162">
        <ele>212.60000610352</ele>
        <time>2019-05-04T10:03:23.000Z</time>
      </trkpt>
      <trkpt lat="43.42796" lon="6.61624">
        <ele>211.80000305176</ele>
        <time>2019-05-04T10:03:24.000Z</time>
      </trkpt>
      <trkpt lat="43.42798" lon="6.61632">
        <ele>211</ele>
        <time>2019-05-04T10:03:26.000Z</time>
      </trkpt>
      <trkpt lat="43.42797" lon="6.61637">
        <ele>210</ele>
        <time>2019-05-04T10:03:27.000Z</time>
      </trkpt>
      <trkpt lat="43.42797" lon="6.61642">
        <ele>209</ele>
        <time>2019-05-04T10:03:28.000Z</time>
      </trkpt>
      <trkpt lat="43.42798" lon="6.61648">
        <ele>207.80000305176</ele>
        <time>2019-05-04T10:03:29.000Z</time>
      </trkpt>
      <trkpt lat="43.428" lon="6.61653">
        <ele>207</ele>
        <time>2019-05-04T10:03:30.000Z</time>
      </trkpt>
      <trkpt lat="43.42804" lon="6.61657">
        <ele>205.60000610352</ele>
        <time>2019-05-04T10:03:31.000Z</time>
      </trkpt>
      <trkpt lat="43.4281" lon="6.6166">
        <ele>204.19999694824</ele>
        <time>2019-05-04T10:03:32.000Z</time>
      </trkpt>
      <trkpt lat="43.42813" lon="6.61663">
        <ele>202.60000610352</ele>
        <time>2019-05-04T10:03:33.000Z</time>
      </trkpt>
      <trkpt lat="43.42816" lon="6.61667">
        <ele>201</ele>
        <time>2019-05-04T10:03:34.000Z</time>
      </trkpt>
      <trkpt lat="43.42824" lon="6.61676">
        <ele>198.60000610352</ele>
        <time>2019-05-04T10:03:36.000Z</time>
      </trkpt>
      <trkpt lat="43.42829" lon="6.6168">
        <ele>197.19999694824</ele>
        <time>2019-05-04T10:03:37.000Z</time>
      </trkpt>
      <trkpt lat="43.42834" lon="6.61685">
        <ele>194.80000305176</ele>
        <time>2019-05-04T10:03:38.000Z</time>
      </trkpt>
      <trkpt lat="43.42841" lon="6.61691">
        <ele>193.39999389648</ele>
        <time>2019-05-04T10:03:39.000Z</time>
      </trkpt>
      <trkpt lat="43.42847" lon="6.61694">
        <ele>192</ele>
        <time>2019-05-04T10:03:40.000Z</time>
      </trkpt>
      <trkpt lat="43.42854" lon="6.61697">
        <ele>190.80000305176</ele>
        <time>2019-05-04T10:03:41.000Z</time>
      </trkpt>
      <trkpt lat="43.42867" lon="6.61703">
        <ele>189.80000305176</ele>
        <time>2019-05-04T10:03:43.000Z</time>
      </trkpt>
      <trkpt lat="43.42887" lon="6.61719">
        <ele>188.39999389648</ele>
        <time>2019-05-04T10:03:47.000Z</time>
      </trkpt>
      <trkpt lat="43.42902" lon="6.61734">
        <ele>188</ele>
        <time>2019-05-04T10:03:52.000Z</time>
      </trkpt>
      <trkpt lat="43.4291" lon="6.61742">
        <ele>189.39999389648</ele>
        <time>2019-05-04T10:03:56.000Z</time>
      </trkpt>
      <trkpt lat="43.42911" lon="6.61744">
        <ele>189.60000610352</ele>
        <time>2019-05-04T10:03:57.000Z</time>
      </trkpt>
      <trkpt lat="43.42916" lon="6.61752">
        <ele>191</ele>
        <time>2019-05-04T10:04:01.000Z</time>
      </trkpt>
      <trkpt lat="43.42917" lon="6.61756">
        <ele>191.39999389648</ele>
        <time>2019-05-04T10:04:03.000Z</time>
      </trkpt>
      <trkpt lat="43.4292" lon="6.6176">
        <ele>192</ele>
        <time>2019-05-04T10:04:05.000Z</time>
      </trkpt>
      <trkpt lat="43.42924" lon="6.61768">
        <ele>192.80000305176</ele>
        <time>2019-05-04T10:04:08.000Z</time>
      </trkpt>
      <trkpt lat="43.42925" lon="6.6177">
        <ele>193.19999694824</ele>
        <time>2019-05-04T10:04:09.000Z</time>
      </trkpt>
      <trkpt lat="43.42929" lon="6.61778">
        <ele>194.19999694824</ele>
        <time>2019-05-04T10:04:12.000Z</time>
      </trkpt>
      <trkpt lat="43.42934" lon="6.61786">
        <ele>195</ele>
        <time>2019-05-04T10:04:15.000Z</time>
      </trkpt>
      <trkpt lat="43.42938" lon="6.61794">
        <ele>195.19999694824</ele>
        <time>2019-05-04T10:04:17.000Z</time>
      </trkpt>
      <trkpt lat="43.42944" lon="6.61802">
        <ele>195.19999694824</ele>
        <time>2019-05-04T10:04:19.000Z</time>
      </trkpt>
      <trkpt lat="43.42949" lon="6.61803">
        <ele>195</ele>
        <time>2019-05-04T10:04:20.000Z</time>
      </trkpt>
      <trkpt lat="43.42964" lon="6.61795">
        <ele>194.19999694824</ele>
        <time>2019-05-04T10:04:23.000Z</time>
      </trkpt>
      <trkpt lat="43.42969" lon="6.61792">
        <ele>194</ele>
        <time>2019-05-04T10:04:24.000Z</time>
      </trkpt>
      <trkpt lat="43.42984" lon="6.6179">
        <ele>193</ele>
        <time>2019-05-04T10:04:27.000Z</time>
      </trkpt>
      <trkpt lat="43.42994" lon="6.61788">
        <ele>191.80000305176</ele>
        <time>2019-05-04T10:04:29.000Z</time>
      </trkpt>
      <trkpt lat="43.42998" lon="6.61787">
        <ele>191</ele>
        <time>2019-05-04T10:04:30.000Z</time>
      </trkpt>
      <trkpt lat="43.43004" lon="6.61788">
        <ele>189.80000305176</ele>
        <time>2019-05-04T10:04:31.000Z</time>
      </trkpt>
      <trkpt lat="43.43012" lon="6.61785">
        <ele>188</ele>
        <time>2019-05-04T10:04:33.000Z</time>
      </trkpt>
      <trkpt lat="43.43015" lon="6.61781">
        <ele>187.19999694824</ele>
        <time>2019-05-04T10:04:34.000Z</time>
      </trkpt>
      <trkpt lat="43.43018" lon="6.61778">
        <ele>186.39999389648</ele>
        <time>2019-05-04T10:04:35.000Z</time>
      </trkpt>
      <trkpt lat="43.4302" lon="6.6178">
        <ele>185.60000610352</ele>
        <time>2019-05-04T10:04:36.000Z</time>
      </trkpt>
      <trkpt lat="43.43022" lon="6.61782">
        <ele>184.80000305176</ele>
        <time>2019-05-04T10:04:37.000Z</time>
      </trkpt>
      <trkpt lat="43.43029" lon="6.61786">
        <ele>183.39999389648</ele>
        <time>2019-05-04T10:04:40.000Z</time>
      </trkpt>
      <trkpt lat="43.43033" lon="6.61785">
        <ele>183.19999694824</ele>
        <time>2019-05-04T10:04:41.000Z</time>
      </trkpt>
      <trkpt lat="43.43042" lon="6.61784">
        <ele>181.60000610352</ele>
        <time>2019-05-04T10:04:44.000Z</time>
      </trkpt>
      <trkpt lat="43.43045" lon="6.61786">
        <ele>180.39999389648</ele>
        <time>2019-05-04T10:04:45.000Z</time>
      </trkpt>
      <trkpt lat="43.43046" lon="6.61788">
        <ele>179.19999694824</ele>
        <time>2019-05-04T10:04:46.000Z</time>
      </trkpt>
      <trkpt lat="43.43047" lon="6.6179">
        <ele>178</ele>
        <time>2019-05-04T10:04:47.000Z</time>
      </trkpt>
      <trkpt lat="43.43048" lon="6.61791">
        <ele>176.80000305176</ele>
        <time>2019-05-04T10:04:48.000Z</time>
      </trkpt>
      <trkpt lat="43.43051" lon="6.61793">
        <ele>176</ele>
        <time>2019-05-04T10:04:49.000Z</time>
      </trkpt>
      <trkpt lat="43.43053" lon="6.61795">
        <ele>175.39999389648</ele>
        <time>2019-05-04T10:04:50.000Z</time>
      </trkpt>
      <trkpt lat="43.43059" lon="6.61807">
        <ele>173.80000305176</ele>
        <time>2019-05-04T10:04:53.000Z</time>
      </trkpt>
      <trkpt lat="43.43062" lon="6.61811">
        <ele>172.39999389648</ele>
        <time>2019-05-04T10:04:55.000Z</time>
      </trkpt>
      <trkpt lat="43.43064" lon="6.61809">
        <ele>171.39999389648</ele>
        <time>2019-05-04T10:04:56.000Z</time>
      </trkpt>
      <trkpt lat="43.43068" lon="6.61811">
        <ele>169.80000305176</ele>
        <time>2019-05-04T10:04:58.000Z</time>
      </trkpt>
      <trkpt lat="43.43069" lon="6.61812">
        <ele>169.39999389648</ele>
        <time>2019-05-04T10:04:59.000Z</time>
      </trkpt>
      <trkpt lat="43.43071" lon="6.61813">
        <ele>168.80000305176</ele>
        <time>2019-05-04T10:05:00.000Z</time>
      </trkpt>
      <trkpt lat="43.43075" lon="6.61809">
        <ele>167.60000610352</ele>
        <time>2019-05-04T10:05:02.000Z</time>
      </trkpt>
      <trkpt lat="43.43077" lon="6.61804">
        <ele>166.39999389648</ele>
        <time>2019-05-04T10:05:03.000Z</time>
      </trkpt>
      <trkpt lat="43.43083" lon="6.61798">
        <ele>164.39999389648</ele>
        <time>2019-05-04T10:05:05.000Z</time>
      </trkpt>
      <trkpt lat="43.43087" lon="6.61795">
        <ele>163.39999389648</ele>
        <time>2019-05-04T10:05:06.000Z</time>
      </trkpt>
      <trkpt lat="43.4309" lon="6.61793">
        <ele>162</ele>
        <time>2019-05-04T10:05:07.000Z</time>
      </trkpt>
      <trkpt lat="43.43092" lon="6.61788">
        <ele>161</ele>
        <time>2019-05-04T10:05:08.000Z</time>
      </trkpt>
      <trkpt lat="43.43095" lon="6.61784">
        <ele>159.60000610352</ele>
        <time>2019-05-04T10:05:09.000Z</time>
      </trkpt>
      <trkpt lat="43.43096" lon="6.61782">
        <ele>159</ele>
        <time>2019-05-04T10:05:10.000Z</time>
      </trkpt>
      <trkpt lat="43.43099" lon="6.61778">
        <ele>158</ele>
        <time>2019-05-04T10:05:11.000Z</time>
      </trkpt>
      <trkpt lat="43.43101" lon="6.61776">
        <ele>156.80000305176</ele>
        <time>2019-05-04T10:05:12.000Z</time>
      </trkpt>
      <trkpt lat="43.43107" lon="6.61773">
        <ele>155.19999694824</ele>
        <time>2019-05-04T10:05:14.000Z</time>
      </trkpt>
      <trkpt lat="43.43109" lon="6.61772">
        <ele>154.80000305176</ele>
        <time>2019-05-04T10:05:15.000Z</time>
      </trkpt>
      <trkpt lat="43.4311" lon="6.61771">
        <ele>154</ele>
        <time>2019-05-04T10:05:16.000Z</time>
      </trkpt>
      <trkpt lat="43.4311" lon="6.61771">
        <ele>152.60000610352</ele>
        <time>2019-05-04T10:05:18.000Z</time>
      </trkpt>
      <trkpt lat="43.43111" lon="6.6177">
        <ele>151.19999694824</ele>
        <time>2019-05-04T10:05:20.000Z</time>
      </trkpt>
      <trkpt lat="43.43111" lon="6.6177">
        <ele>150.19999694824</ele>
        <time>2019-05-04T10:05:21.000Z</time>
      </trkpt>
      <trkpt lat="43.43112" lon="6.6177">
        <ele>149</ele>
        <time>2019-05-04T10:05:23.000Z</time>
      </trkpt>
      <trkpt lat="43.43113" lon="6.6177">
        <ele>148.19999694824</ele>
        <time>2019-05-04T10:05:28.000Z</time>
      </trkpt>
      <trkpt lat="43.43115" lon="6.61769">
        <ele>148.39999389648</ele>
        <time>2019-05-04T10:05:41.000Z</time>
      </trkpt>
      <trkpt lat="43.43116" lon="6.61768">
        <ele>148.19999694824</ele>
        <time>2019-05-04T10:05:55.000Z</time>
      </trkpt>
      <trkpt lat="43.43116" lon="6.61767">
        <ele>148.39999389648</ele>
        <time>2019-05-04T10:06:08.000Z</time>
      </trkpt>
      <trkpt lat="43.43117" lon="6.61767">
        <ele>148.19999694824</ele>
        <time>2019-05-04T10:06:16.000Z</time>
      </trkpt>
      <trkpt lat="43.43117" lon="6.61767">
        <ele>148.39999389648</ele>
        <time>2019-05-04T10:06:31.000Z</time>
      </trkpt>
      <trkpt lat="43.43117" lon="6.61768">
        <ele>148.80000305176</ele>
        <time>2019-05-04T10:06:44.000Z</time>
      </trkpt>
      <trkpt lat="43.43118" lon="6.61767">
        <ele>148.80000305176</ele>
        <time>2019-05-04T10:06:52.000Z</time>
      </trkpt>
      <trkpt lat="43.4312" lon="6.61765">
        <ele>148.60000610352</ele>
        <time>2019-05-04T10:06:54.000Z</time>
      </trkpt>
      <trkpt lat="43.43123" lon="6.61759">
        <ele>147.80000305176</ele>
        <time>2019-05-04T10:06:57.000Z</time>
      </trkpt>
      <trkpt lat="43.43123" lon="6.61756">
        <ele>147.60000610352</ele>
        <time>2019-05-04T10:06:58.000Z</time>
      </trkpt>
      <trkpt lat="43.43123" lon="6.61753">
        <ele>146.80000305176</ele>
        <time>2019-05-04T10:07:00.000Z</time>
      </trkpt>
      <trkpt lat="43.43122" lon="6.61753">
        <ele>146.19999694824</ele>
        <time>2019-05-04T10:07:02.000Z</time>
      </trkpt>
      <trkpt lat="43.43122" lon="6.61752">
        <ele>145.80000305176</ele>
        <time>2019-05-04T10:07:07.000Z</time>
      </trkpt>
      <trkpt lat="43.43123" lon="6.61753">
        <ele>145.60000610352</ele>
        <time>2019-05-04T10:07:11.000Z</time>
      </trkpt>
      <trkpt lat="43.43123" lon="6.6175">
        <ele>145.80000305176</ele>
        <time>2019-05-04T10:07:19.000Z</time>
      </trkpt>
      <trkpt lat="43.43126" lon="6.61747">
        <ele>145.60000610352</ele>
        <time>2019-05-04T10:07:23.000Z</time>
      </trkpt>
      <trkpt lat="43.43127" lon="6.61745">
        <ele>145.60000610352</ele>
        <time>2019-05-04T10:07:24.000Z</time>
      </trkpt>
      <trkpt lat="43.43131" lon="6.61742">
        <ele>144.60000610352</ele>
        <time>2019-05-04T10:07:27.000Z</time>
      </trkpt>
      <trkpt lat="43.43133" lon="6.61744">
        <ele>143.80000305176</ele>
        <time>2019-05-04T10:07:29.000Z</time>
      </trkpt>
      <trkpt lat="43.43134" lon="6.61744">
        <ele>143.19999694824</ele>
        <time>2019-05-04T10:07:30.000Z</time>
      </trkpt>
      <trkpt lat="43.43135" lon="6.61739">
        <ele>142</ele>
        <time>2019-05-04T10:07:34.000Z</time>
      </trkpt>
      <trkpt lat="43.43135" lon="6.61726">
        <ele>141.39999389648</ele>
        <time>2019-05-04T10:07:37.000Z</time>
      </trkpt>
      <trkpt lat="43.43135" lon="6.61719">
        <ele>141</ele>
        <time>2019-05-04T10:07:39.000Z</time>
      </trkpt>
      <trkpt lat="43.43137" lon="6.61719">
        <ele>140.60000610352</ele>
        <time>2019-05-04T10:07:40.000Z</time>
      </trkpt>
      <trkpt lat="43.43145" lon="6.61722">
        <ele>139.80000305176</ele>
        <time>2019-05-04T10:07:43.000Z</time>
      </trkpt>
      <trkpt lat="43.43148" lon="6.61725">
        <ele>139.19999694824</ele>
        <time>2019-05-04T10:07:44.000Z</time>
      </trkpt>
      <trkpt lat="43.4315" lon="6.61728">
        <ele>138.60000610352</ele>
        <time>2019-05-04T10:07:45.000Z</time>
      </trkpt>
      <trkpt lat="43.43154" lon="6.61732">
        <ele>137</ele>
        <time>2019-05-04T10:07:47.000Z</time>
      </trkpt>
      <trkpt lat="43.43155" lon="6.61735">
        <ele>136</ele>
        <time>2019-05-04T10:07:48.000Z</time>
      </trkpt>
      <trkpt lat="43.43157" lon="6.61739">
        <ele>135</ele>
        <time>2019-05-04T10:07:49.000Z</time>
      </trkpt>
      <trkpt lat="43.43158" lon="6.61738">
        <ele>134</ele>
        <time>2019-05-04T10:07:50.000Z</time>
      </trkpt>
      <trkpt lat="43.43159" lon="6.61737">
        <ele>133.39999389648</ele>
        <time>2019-05-04T10:07:51.000Z</time>
      </trkpt>
      <trkpt lat="43.43161" lon="6.61733">
        <ele>132.60000610352</ele>
        <time>2019-05-04T10:07:52.000Z</time>
      </trkpt>
      <trkpt lat="43.43162" lon="6.61728">
        <ele>132</ele>
        <time>2019-05-04T10:07:53.000Z</time>
      </trkpt>
      <trkpt lat="43.43167" lon="6.61727">
        <ele>130.60000610352</ele>
        <time>2019-05-04T10:07:55.000Z</time>
      </trkpt>
      <trkpt lat="43.43171" lon="6.61734">
        <ele>129.39999389648</ele>
        <time>2019-05-04T10:07:57.000Z</time>
      </trkpt>
      <trkpt lat="43.43172" lon="6.61739">
        <ele>129</ele>
        <time>2019-05-04T10:07:58.000Z</time>
      </trkpt>
      <trkpt lat="43.43173" lon="6.61744">
        <ele>128.39999389648</ele>
        <time>2019-05-04T10:07:59.000Z</time>
      </trkpt>
      <trkpt lat="43.43173" lon="6.61749">
        <ele>127</ele>
        <time>2019-05-04T10:08:00.000Z</time>
      </trkpt>
      <trkpt lat="43.43171" lon="6.61758">
        <ele>125.59999847412</ele>
        <time>2019-05-04T10:08:02.000Z</time>
      </trkpt>
      <trkpt lat="43.43171" lon="6.61763">
        <ele>124.40000152588</ele>
        <time>2019-05-04T10:08:03.000Z</time>
      </trkpt>
      <trkpt lat="43.43172" lon="6.61766">
        <ele>123.59999847412</ele>
        <time>2019-05-04T10:08:04.000Z</time>
      </trkpt>
      <trkpt lat="43.43174" lon="6.6177">
        <ele>123</ele>
        <time>2019-05-04T10:08:05.000Z</time>
      </trkpt>
      <trkpt lat="43.43175" lon="6.61774">
        <ele>122</ele>
        <time>2019-05-04T10:08:07.000Z</time>
      </trkpt>
      <trkpt lat="43.43175" lon="6.61776">
        <ele>121.40000152588</ele>
        <time>2019-05-04T10:08:08.000Z</time>
      </trkpt>
      <trkpt lat="43.43175" lon="6.61778">
        <ele>120.40000152588</ele>
        <time>2019-05-04T10:08:09.000Z</time>
      </trkpt>
      <trkpt lat="43.43175" lon="6.6178">
        <ele>119.59999847412</ele>
        <time>2019-05-04T10:08:10.000Z</time>
      </trkpt>
      <trkpt lat="43.43177" lon="6.61788">
        <ele>118.19999694824</ele>
        <time>2019-05-04T10:08:12.000Z</time>
      </trkpt>
      <trkpt lat="43.4318" lon="6.61794">
        <ele>116.59999847412</ele>
        <time>2019-05-04T10:08:14.000Z</time>
      </trkpt>
      <trkpt lat="43.43181" lon="6.61796">
        <ele>115.80000305176</ele>
        <time>2019-05-04T10:08:15.000Z</time>
      </trkpt>
      <trkpt lat="43.43182" lon="6.61796">
        <ele>115.19999694824</ele>
        <time>2019-05-04T10:08:16.000Z</time>
      </trkpt>
      <trkpt lat="43.43184" lon="6.61797">
        <ele>114</ele>
        <time>2019-05-04T10:08:17.000Z</time>
      </trkpt>
      <trkpt lat="43.43187" lon="6.61798">
        <ele>112.80000305176</ele>
        <time>2019-05-04T10:08:18.000Z</time>
      </trkpt>
      <trkpt lat="43.43192" lon="6.61798">
        <ele>112.40000152588</ele>
        <time>2019-05-04T10:08:19.000Z</time>
      </trkpt>
      <trkpt lat="43.43198" lon="6.61797">
        <ele>111.19999694824</ele>
        <time>2019-05-04T10:08:21.000Z</time>
      </trkpt>
      <trkpt lat="43.43201" lon="6.61795">
        <ele>109.40000152588</ele>
        <time>2019-05-04T10:08:23.000Z</time>
      </trkpt>
      <trkpt lat="43.43202" lon="6.61794">
        <ele>108.40000152588</ele>
        <time>2019-05-04T10:08:24.000Z</time>
      </trkpt>
      <trkpt lat="43.43203" lon="6.61794">
        <ele>107.40000152588</ele>
        <time>2019-05-04T10:08:25.000Z</time>
      </trkpt>
      <trkpt lat="43.43205" lon="6.61794">
        <ele>106.59999847412</ele>
        <time>2019-05-04T10:08:26.000Z</time>
      </trkpt>
      <trkpt lat="43.43208" lon="6.61798">
        <ele>105.80000305176</ele>
        <time>2019-05-04T10:08:28.000Z</time>
      </trkpt>
      <trkpt lat="43.43211" lon="6.61801">
        <ele>105.59999847412</ele>
        <time>2019-05-04T10:08:29.000Z</time>
      </trkpt>
      <trkpt lat="43.43213" lon="6.61803">
        <ele>104.80000305176</ele>
        <time>2019-05-04T10:08:30.000Z</time>
      </trkpt>
      <trkpt lat="43.43213" lon="6.61805">
        <ele>104</ele>
        <time>2019-05-04T10:08:31.000Z</time>
      </trkpt>
      <trkpt lat="43.43213" lon="6.61807">
        <ele>103</ele>
        <time>2019-05-04T10:08:32.000Z</time>
      </trkpt>
      <trkpt lat="43.43215" lon="6.61811">
        <ele>101.40000152588</ele>
        <time>2019-05-04T10:08:34.000Z</time>
      </trkpt>
      <trkpt lat="43.43219" lon="6.6181">
        <ele>100.40000152588</ele>
        <time>2019-05-04T10:08:36.000Z</time>
      </trkpt>
      <trkpt lat="43.43223" lon="6.61813">
        <ele>99.199996948242</ele>
        <time>2019-05-04T10:08:38.000Z</time>
      </trkpt>
      <trkpt lat="43.43226" lon="6.61817">
        <ele>98.400001525879</ele>
        <time>2019-05-04T10:08:39.000Z</time>
      </trkpt>
      <trkpt lat="43.43228" lon="6.61821">
        <ele>97.400001525879</ele>
        <time>2019-05-04T10:08:40.000Z</time>
      </trkpt>
      <trkpt lat="43.43231" lon="6.61826">
        <ele>96.400001525879</ele>
        <time>2019-05-04T10:08:41.000Z</time>
      </trkpt>
      <trkpt lat="43.43233" lon="6.6183">
        <ele>95.400001525879</ele>
        <time>2019-05-04T10:08:42.000Z</time>
      </trkpt>
      <trkpt lat="43.43235" lon="6.61832">
        <ele>94.199996948242</ele>
        <time>2019-05-04T10:08:43.000Z</time>
      </trkpt>
      <trkpt lat="43.43236" lon="6.61836">
        <ele>93.199996948242</ele>
        <time>2019-05-04T10:08:44.000Z</time>
      </trkpt>
      <trkpt lat="43.43239" lon="6.6184">
        <ele>91.400001525879</ele>
        <time>2019-05-04T10:08:46.000Z</time>
      </trkpt>
      <trkpt lat="43.4324" lon="6.61844">
        <ele>90.599998474121</ele>
        <time>2019-05-04T10:08:47.000Z</time>
      </trkpt>
      <trkpt lat="43.43241" lon="6.61846">
        <ele>89.800003051758</ele>
        <time>2019-05-04T10:08:48.000Z</time>
      </trkpt>
      <trkpt lat="43.43243" lon="6.61852">
        <ele>88.800003051758</ele>
        <time>2019-05-04T10:08:50.000Z</time>
      </trkpt>
      <trkpt lat="43.43243" lon="6.61857">
        <ele>88.199996948242</ele>
        <time>2019-05-04T10:08:51.000Z</time>
      </trkpt>
      <trkpt lat="43.43242" lon="6.61861">
        <ele>87.199996948242</ele>
        <time>2019-05-04T10:08:53.000Z</time>
      </trkpt>
      <trkpt lat="43.43243" lon="6.61861">
        <ele>86.599998474121</ele>
        <time>2019-05-04T10:08:54.000Z</time>
      </trkpt>
      <trkpt lat="43.43243" lon="6.61861">
        <ele>85.599998474121</ele>
        <time>2019-05-04T10:08:56.000Z</time>
      </trkpt>
      <trkpt lat="43.43244" lon="6.61861">
        <ele>84.599998474121</ele>
        <time>2019-05-04T10:08:58.000Z</time>
      </trkpt>
      <trkpt lat="43.43243" lon="6.61861">
        <ele>84.599998474121</ele>
        <time>2019-05-04T10:08:59.000Z</time>
      </trkpt>
      <trkpt lat="43.43244" lon="6.6186">
        <ele>84.400001525879</ele>
        <time>2019-05-04T10:09:06.000Z</time>
      </trkpt>
      <trkpt lat="43.43245" lon="6.61859">
        <ele>84.599998474121</ele>
        <time>2019-05-04T10:09:12.000Z</time>
      </trkpt>
      <trkpt lat="43.43247" lon="6.61854">
        <ele>85.199996948242</ele>
        <time>2019-05-04T10:09:19.000Z</time>
      </trkpt>
      <trkpt lat="43.43247" lon="6.61854">
        <ele>85.400001525879</ele>
        <time>2019-05-04T10:09:25.000Z</time>
      </trkpt>
      <trkpt lat="43.43247" lon="6.61854">
        <ele>85.599998474121</ele>
        <time>2019-05-04T10:09:30.000Z</time>
      </trkpt>
      <trkpt lat="43.43246" lon="6.61855">
        <ele>85.599998474121</ele>
        <time>2019-05-04T10:09:41.000Z</time>
      </trkpt>
      <trkpt lat="43.43247" lon="6.61851">
        <ele>85</ele>
        <time>2019-05-04T10:09:47.000Z</time>
      </trkpt>
      <trkpt lat="43.43251" lon="6.61846">
        <ele>85.199996948242</ele>
        <time>2019-05-04T10:09:50.000Z</time>
      </trkpt>
      <trkpt lat="43.43253" lon="6.61844">
        <ele>86</ele>
        <time>2019-05-04T10:09:52.000Z</time>
      </trkpt>
      <trkpt lat="43.43254" lon="6.61843">
        <ele>86.199996948242</ele>
        <time>2019-05-04T10:09:53.000Z</time>
      </trkpt>
      <trkpt lat="43.43254" lon="6.61843">
        <ele>86.599998474121</ele>
        <time>2019-05-04T10:09:55.000Z</time>
      </trkpt>
      <trkpt lat="43.43255" lon="6.61843">
        <ele>86.800003051758</ele>
        <time>2019-05-04T10:09:59.000Z</time>
      </trkpt>
      <trkpt lat="43.43255" lon="6.61844">
        <ele>87.199996948242</ele>
        <time>2019-05-04T10:10:12.000Z</time>
      </trkpt>
      <trkpt lat="43.43256" lon="6.61844">
        <ele>87.199996948242</ele>
        <time>2019-05-04T10:10:28.000Z</time>
      </trkpt>
      <trkpt lat="43.43258" lon="6.61844">
        <ele>87</ele>
        <time>2019-05-04T10:10:43.000Z</time>
      </trkpt>
      <trkpt lat="43.43259" lon="6.61845">
        <ele>87.199996948242</ele>
        <time>2019-05-04T10:10:52.000Z</time>
      </trkpt>
      <trkpt lat="43.43259" lon="6.61845">
        <ele>87.199996948242</ele>
        <time>2019-05-04T10:11:00.000Z</time>
      </trkpt>
      <trkpt lat="43.43259" lon="6.61845">
        <ele>86.800003051758</ele>
        <time>2019-05-04T10:11:12.000Z</time>
      </trkpt>
      <trkpt lat="43.43258" lon="6.61846">
        <ele>86.800003051758</ele>
        <time>2019-05-04T10:11:22.000Z</time>
      </trkpt>
      <trkpt lat="43.43256" lon="6.61848">
        <ele>86.400001525879</ele>
        <time>2019-05-04T10:11:28.000Z</time>
      </trkpt>
      <trkpt lat="43.43252" lon="6.61851">
        <ele>86</ele>
        <time>2019-05-04T10:11:31.000Z</time>
      </trkpt>
      <trkpt lat="43.4325" lon="6.61853">
        <ele>85.800003051758</ele>
        <time>2019-05-04T10:11:33.000Z</time>
      </trkpt>
      <trkpt lat="43.43249" lon="6.61855">
        <ele>85.599998474121</ele>
        <time>2019-05-04T10:11:35.000Z</time>
      </trkpt>
      <trkpt lat="43.43249" lon="6.61857">
        <ele>85.400001525879</ele>
        <time>2019-05-04T10:11:37.000Z</time>
      </trkpt>
      <trkpt lat="43.43248" lon="6.61858">
        <ele>85.199996948242</ele>
        <time>2019-05-04T10:11:38.000Z</time>
      </trkpt>
      <trkpt lat="43.43248" lon="6.61858">
        <ele>85</ele>
        <time>2019-05-04T10:11:45.000Z</time>
      </trkpt>
      <trkpt lat="43.43247" lon="6.61859">
        <ele>85.400001525879</ele>
        <time>2019-05-04T10:11:56.000Z</time>
      </trkpt>
      <trkpt lat="43.43247" lon="6.61858">
        <ele>85.400001525879</ele>
        <time>2019-05-04T10:12:03.000Z</time>
      </trkpt>
      <trkpt lat="43.43246" lon="6.61859">
        <ele>85.400001525879</ele>
        <time>2019-05-04T10:12:14.000Z</time>
      </trkpt>
      <trkpt lat="43.43246" lon="6.61859">
        <ele>84.599998474121</ele>
        <time>2019-05-04T10:12:25.000Z</time>
      </trkpt>
      <trkpt lat="43.43245" lon="6.6186">
        <ele>84.599998474121</ele>
        <time>2019-05-04T10:12:30.000Z</time>
      </trkpt>
      <trkpt lat="43.43245" lon="6.61859">
        <ele>84.599998474121</ele>
        <time>2019-05-04T10:12:39.000Z</time>
      </trkpt>
      <trkpt lat="43.43245" lon="6.6186">
        <ele>85</ele>
        <time>2019-05-04T10:12:57.000Z</time>
      </trkpt>
      <trkpt lat="43.43245" lon="6.61861">
        <ele>84.800003051758</ele>
        <time>2019-05-04T10:13:19.000Z</time>
      </trkpt>
      <trkpt lat="43.43246" lon="6.61861">
        <ele>85</ele>
        <time>2019-05-04T10:13:30.000Z</time>
      </trkpt>
      <trkpt lat="43.43246" lon="6.61861">
        <ele>84.400001525879</ele>
        <time>2019-05-04T10:13:33.000Z</time>
      </trkpt>
      <trkpt lat="43.43246" lon="6.61861">
        <ele>84.199996948242</ele>
        <time>2019-05-04T10:13:35.000Z</time>
      </trkpt>
      <trkpt lat="43.43245" lon="6.61862">
        <ele>84.400001525879</ele>
        <time>2019-05-04T10:13:44.000Z</time>
      </trkpt>
      <trkpt lat="43.43244" lon="6.61863">
        <ele>84.599998474121</ele>
        <time>2019-05-04T10:13:50.000Z</time>
      </trkpt>
      <trkpt lat="43.43244" lon="6.61862">
        <ele>85</ele>
        <time>2019-05-04T10:14:01.000Z</time>
      </trkpt>
      <trkpt lat="43.43244" lon="6.61862">
        <ele>85</ele>
        <time>2019-05-04T10:14:08.000Z</time>
      </trkpt>
      <trkpt lat="43.43245" lon="6.61862">
        <ele>84.199996948242</ele>
        <time>2019-05-04T10:14:20.000Z</time>
      </trkpt>
      <trkpt lat="43.43245" lon="6.61862">
        <ele>84.199996948242</ele>
        <time>2019-05-04T10:14:34.000Z</time>
      </trkpt>
      <trkpt lat="43.43245" lon="6.61863">
        <ele>84.400001525879</ele>
        <time>2019-05-04T10:14:40.000Z</time>
      </trkpt>
      <trkpt lat="43.43245" lon="6.61862">
        <ele>84.400001525879</ele>
        <time>2019-05-04T10:14:54.000Z</time>
      </trkpt>
      <trkpt lat="43.43245" lon="6.61862">
        <ele>84.400001525879</ele>
        <time>2019-05-04T10:15:07.000Z</time>
      </trkpt>
      <trkpt lat="43.43245" lon="6.61862">
        <ele>84.400001525879</ele>
        <time>2019-05-04T10:15:20.000Z</time>
      </trkpt>
      <trkpt lat="43.43246" lon="6.61862">
        <ele>84.400001525879</ele>
        <time>2019-05-04T10:15:33.000Z</time>
      </trkpt>
      <trkpt lat="43.43246" lon="6.61862">
        <ele>84.400001525879</ele>
        <time>2019-05-04T10:15:42.000Z</time>
      </trkpt>
      <trkpt lat="43.43246" lon="6.61862">
        <ele>84.400001525879</ele>
        <time>2019-05-04T10:15:51.000Z</time>
      </trkpt>
      <trkpt lat="43.43247" lon="6.61862">
        <ele>84.400001525879</ele>
        <time>2019-05-04T10:16:11.000Z</time>
      </trkpt>
      <trkpt lat="43.43246" lon="6.61862">
        <ele>84.599998474121</ele>
        <time>2019-05-04T10:16:26.000Z</time>
      </trkpt>
      <trkpt lat="43.43246" lon="6.61861">
        <ele>84.599998474121</ele>
        <time>2019-05-04T10:16:42.000Z</time>
      </trkpt>
      <trkpt lat="43.43247" lon="6.61861">
        <ele>84.400001525879</ele>
        <time>2019-05-04T10:17:00.000Z</time>
      </trkpt>
      <trkpt lat="43.43247" lon="6.61861">
        <ele>84.400001525879</ele>
        <time>2019-05-04T10:17:08.000Z</time>
      </trkpt>
      <trkpt lat="43.43247" lon="6.61862">
        <ele>84.199996948242</ele>
        <time>2019-05-04T10:17:19.000Z</time>
      </trkpt>
      <trkpt lat="43.43247" lon="6.6186">
        <ele>84.199996948242</ele>
        <time>2019-05-04T10:17:27.000Z</time>
      </trkpt>
      <trkpt lat="43.43246" lon="6.61861">
        <ele>84.599998474121</ele>
        <time>2019-05-04T10:17:38.000Z</time>
      </trkpt>
      <trkpt lat="43.43246" lon="6.61862">
        <ele>84.400001525879</ele>
        <time>2019-05-04T10:17:49.000Z</time>
      </trkpt>
      <trkpt lat="43.43247" lon="6.61862">
        <ele>83.400001525879</ele>
        <time>2019-05-04T10:17:58.000Z</time>
      </trkpt>
      <trkpt lat="43.43247" lon="6.61862">
        <ele>83.400001525879</ele>
        <time>2019-05-04T10:18:03.000Z</time>
      </trkpt>
      <trkpt lat="43.43246" lon="6.61862">
        <ele>84.599998474121</ele>
        <time>2019-05-04T10:18:12.000Z</time>
      </trkpt>
      <trkpt lat="43.43246" lon="6.61862">
        <ele>84.599998474121</ele>
        <time>2019-05-04T10:18:13.000Z</time>
      </trkpt>
      <trkpt lat="43.43247" lon="6.61862">
        <ele>84.199996948242</ele>
        <time>2019-05-04T10:18:28.000Z</time>
      </trkpt>
      <trkpt lat="43.43248" lon="6.61862">
        <ele>84.199996948242</ele>
        <time>2019-05-04T10:18:37.000Z</time>
      </trkpt>
      <trkpt lat="43.43249" lon="6.61861">
        <ele>84.400001525879</ele>
        <time>2019-05-04T10:18:48.000Z</time>
      </trkpt>
      <trkpt lat="43.43249" lon="6.61863">
        <ele>84.599998474121</ele>
        <time>2019-05-04T10:18:54.000Z</time>
      </trkpt>
      <trkpt lat="43.4325" lon="6.61862">
        <ele>84.599998474121</ele>
        <time>2019-05-04T10:19:00.000Z</time>
      </trkpt>
      <trkpt lat="43.4325" lon="6.61861">
        <ele>84.400001525879</ele>
        <time>2019-05-04T10:19:08.000Z</time>
      </trkpt>
      <trkpt lat="43.4325" lon="6.61862">
        <ele>85</ele>
        <time>2019-05-04T10:19:16.000Z</time>
      </trkpt>
      <trkpt lat="43.43249" lon="6.61861">
        <ele>84.400001525879</ele>
        <time>2019-05-04T10:19:24.000Z</time>
      </trkpt>
      <trkpt lat="43.43251" lon="6.61861">
        <ele>83.800003051758</ele>
        <time>2019-05-04T10:19:41.000Z</time>
      </trkpt>
      <trkpt lat="43.43253" lon="6.61862">
        <ele>84.199996948242</ele>
        <time>2019-05-04T10:19:50.000Z</time>
      </trkpt>
      <trkpt lat="43.43254" lon="6.61863">
        <ele>84.199996948242</ele>
        <time>2019-05-04T10:19:59.000Z</time>
      </trkpt>
      <trkpt lat="43.43255" lon="6.61863">
        <ele>84.199996948242</ele>
        <time>2019-05-04T10:20:08.000Z</time>
      </trkpt>
      <trkpt lat="43.43255" lon="6.61863">
        <ele>84.199996948242</ele>
        <time>2019-05-04T10:20:19.000Z</time>
      </trkpt>
      <trkpt lat="43.43254" lon="6.61862">
        <ele>84.199996948242</ele>
        <time>2019-05-04T10:20:31.000Z</time>
      </trkpt>
      <trkpt lat="43.43254" lon="6.61862">
        <ele>84.199996948242</ele>
        <time>2019-05-04T10:20:51.000Z</time>
      </trkpt>
      <trkpt lat="43.43254" lon="6.61863">
        <ele>84</ele>
        <time>2019-05-04T10:21:02.000Z</time>
      </trkpt>
      <trkpt lat="43.43254" lon="6.61863">
        <ele>84</ele>
        <time>2019-05-04T10:21:15.000Z</time>
      </trkpt>
      <trkpt lat="43.43253" lon="6.61863">
        <ele>84</ele>
        <time>2019-05-04T10:21:38.000Z</time>
      </trkpt>
      <trkpt lat="43.43253" lon="6.61863">
        <ele>83.599998474121</ele>
        <time>2019-05-04T10:21:45.000Z</time>
      </trkpt>
      <trkpt lat="43.43253" lon="6.61863">
        <ele>83.599998474121</ele>
        <time>2019-05-04T10:21:46.000Z</time>
      </trkpt>
      <trkpt lat="43.43253" lon="6.61863">
        <ele>83.599998474121</ele>
        <time>2019-05-04T10:21:54.000Z</time>
      </trkpt>
      <trkpt lat="43.43253" lon="6.61863">
        <ele>84.199996948242</ele>
        <time>2019-05-04T10:22:02.000Z</time>
      </trkpt>
      <trkpt lat="43.43252" lon="6.61863">
        <ele>83.400001525879</ele>
        <time>2019-05-04T10:22:13.000Z</time>
      </trkpt>
      <trkpt lat="43.43252" lon="6.61863">
        <ele>83.400001525879</ele>
        <time>2019-05-04T10:22:19.000Z</time>
      </trkpt>
      <trkpt lat="43.43252" lon="6.61863">
        <ele>83.800003051758</ele>
        <time>2019-05-04T10:22:28.000Z</time>
      </trkpt>
      <trkpt lat="43.43252" lon="6.61863">
        <ele>83.800003051758</ele>
        <time>2019-05-04T10:22:38.000Z</time>
      </trkpt>
      <trkpt lat="43.43252" lon="6.61864">
        <ele>83.599998474121</ele>
        <time>2019-05-04T10:22:44.000Z</time>
      </trkpt>
      <trkpt lat="43.43252" lon="6.61864">
        <ele>82.800003051758</ele>
        <time>2019-05-04T10:22:53.000Z</time>
      </trkpt>
      <trkpt lat="43.43252" lon="6.61863">
        <ele>83</ele>
        <time>2019-05-04T10:23:02.000Z</time>
      </trkpt>
      <trkpt lat="43.43252" lon="6.61863">
        <ele>83</ele>
        <time>2019-05-04T10:23:14.000Z</time>
      </trkpt>
      <trkpt lat="43.43253" lon="6.61862">
        <ele>83</ele>
        <time>2019-05-04T10:23:21.000Z</time>
      </trkpt>
      <trkpt lat="43.43254" lon="6.61863">
        <ele>83</ele>
        <time>2019-05-04T10:23:30.000Z</time>
      </trkpt>
      <trkpt lat="43.43254" lon="6.61863">
        <ele>83</ele>
        <time>2019-05-04T10:23:37.000Z</time>
      </trkpt>
      <trkpt lat="43.43252" lon="6.61863">
        <ele>83.199996948242</ele>
        <time>2019-05-04T10:23:48.000Z</time>
      </trkpt>
      <trkpt lat="43.43251" lon="6.61862">
        <ele>83.400001525879</ele>
        <time>2019-05-04T10:23:54.000Z</time>
      </trkpt>
      <trkpt lat="43.43251" lon="6.61862">
        <ele>83.800003051758</ele>
        <time>2019-05-04T10:24:01.000Z</time>
      </trkpt>
      <trkpt lat="43.43249" lon="6.61861">
        <ele>83.800003051758</ele>
        <time>2019-05-04T10:24:14.000Z</time>
      </trkpt>
      <trkpt lat="43.4325" lon="6.61862">
        <ele>83.800003051758</ele>
        <time>2019-05-04T10:24:27.000Z</time>
      </trkpt>
      <trkpt lat="43.43249" lon="6.61862">
        <ele>83.800003051758</ele>
        <time>2019-05-04T10:24:38.000Z</time>
      </trkpt>
      <trkpt lat="43.43248" lon="6.61863">
        <ele>83.400001525879</ele>
        <time>2019-05-04T10:24:53.000Z</time>
      </trkpt>
      <trkpt lat="43.43248" lon="6.61862">
        <ele>83.599998474121</ele>
        <time>2019-05-04T10:25:01.000Z</time>
      </trkpt>
      <trkpt lat="43.43248" lon="6.61863">
        <ele>83.400001525879</ele>
        <time>2019-05-04T10:25:17.000Z</time>
      </trkpt>
      <trkpt lat="43.43249" lon="6.61862">
        <ele>83.599998474121</ele>
        <time>2019-05-04T10:25:25.000Z</time>
      </trkpt>
      <trkpt lat="43.43249" lon="6.61862">
        <ele>83.800003051758</ele>
        <time>2019-05-04T10:25:39.000Z</time>
      </trkpt>
      <trkpt lat="43.43249" lon="6.61861">
        <ele>83.599998474121</ele>
        <time>2019-05-04T10:25:50.000Z</time>
      </trkpt>
      <trkpt lat="43.43251" lon="6.61862">
        <ele>83.599998474121</ele>
        <time>2019-05-04T10:26:05.000Z</time>
      </trkpt>
      <trkpt lat="43.43251" lon="6.61862">
        <ele>83.599998474121</ele>
        <time>2019-05-04T10:26:17.000Z</time>
      </trkpt>
      <trkpt lat="43.43251" lon="6.61862">
        <ele>83.800003051758</ele>
        <time>2019-05-04T10:26:26.000Z</time>
      </trkpt>
      <trkpt lat="43.43251" lon="6.61862">
        <ele>84.199996948242</ele>
        <time>2019-05-04T10:26:35.000Z</time>
      </trkpt>
      <trkpt lat="43.43251" lon="6.61862">
        <ele>84</ele>
        <time>2019-05-04T10:26:50.000Z</time>
      </trkpt>
      <trkpt lat="43.43251" lon="6.61862">
        <ele>84</ele>
        <time>2019-05-04T10:26:58.000Z</time>
      </trkpt>
      <trkpt lat="43.4325" lon="6.61861">
        <ele>84</ele>
        <time>2019-05-04T10:27:07.000Z</time>
      </trkpt>
      <trkpt lat="43.4325" lon="6.61861">
        <ele>84</ele>
        <time>2019-05-04T10:27:22.000Z</time>
      </trkpt>
      <trkpt lat="43.43249" lon="6.61861">
        <ele>84.400001525879</ele>
        <time>2019-05-04T10:27:36.000Z</time>
      </trkpt>
      <trkpt lat="43.43248" lon="6.61861">
        <ele>84.199996948242</ele>
        <time>2019-05-04T10:27:47.000Z</time>
      </trkpt>
      <trkpt lat="43.43249" lon="6.61861">
        <ele>84.199996948242</ele>
        <time>2019-05-04T10:27:53.000Z</time>
      </trkpt>
      <trkpt lat="43.43249" lon="6.61861">
        <ele>84.199996948242</ele>
        <time>2019-05-04T10:28:01.000Z</time>
      </trkpt>
      <trkpt lat="43.43249" lon="6.61861">
        <ele>84</ele>
        <time>2019-05-04T10:28:07.000Z</time>
      </trkpt>
      <trkpt lat="43.43249" lon="6.61861">
        <ele>84.199996948242</ele>
        <time>2019-05-04T10:28:13.000Z</time>
      </trkpt>
      <trkpt lat="43.4325" lon="6.61861">
        <ele>84.400001525879</ele>
        <time>2019-05-04T10:28:22.000Z</time>
      </trkpt>
      <trkpt lat="43.43252" lon="6.61862">
        <ele>84.199996948242</ele>
        <time>2019-05-04T10:28:32.000Z</time>
      </trkpt>
      <trkpt lat="43.43253" lon="6.61863">
        <ele>84.599998474121</ele>
        <time>2019-05-04T10:28:40.000Z</time>
      </trkpt>
      <trkpt lat="43.43253" lon="6.61863">
        <ele>84.800003051758</ele>
        <time>2019-05-04T10:28:48.000Z</time>
      </trkpt>
      <trkpt lat="43.43255" lon="6.61864">
        <ele>84.800003051758</ele>
        <time>2019-05-04T10:29:05.000Z</time>
      </trkpt>
      <trkpt lat="43.43254" lon="6.61864">
        <ele>85</ele>
        <time>2019-05-04T10:29:21.000Z</time>
      </trkpt>
      <trkpt lat="43.43254" lon="6.61864">
        <ele>85</ele>
        <time>2019-05-04T10:29:36.000Z</time>
      </trkpt>
      <trkpt lat="43.43254" lon="6.61864">
        <ele>84.599998474121</ele>
        <time>2019-05-04T10:29:49.000Z</time>
      </trkpt>
      <trkpt lat="43.43254" lon="6.61864">
        <ele>85.199996948242</ele>
        <time>2019-05-04T10:30:04.000Z</time>
      </trkpt>
      <trkpt lat="43.43254" lon="6.61864">
        <ele>85.199996948242</ele>
        <time>2019-05-04T10:30:15.000Z</time>
      </trkpt>
      <trkpt lat="43.43253" lon="6.61863">
        <ele>85.199996948242</ele>
        <time>2019-05-04T10:30:31.000Z</time>
      </trkpt>
      <trkpt lat="43.43252" lon="6.61863">
        <ele>85.199996948242</ele>
        <time>2019-05-04T10:30:51.000Z</time>
      </trkpt>
      <trkpt lat="43.43251" lon="6.61863">
        <ele>85.199996948242</ele>
        <time>2019-05-04T10:31:08.000Z</time>
      </trkpt>
      <trkpt lat="43.43251" lon="6.61864">
        <ele>85.199996948242</ele>
        <time>2019-05-04T10:31:24.000Z</time>
      </trkpt>
      <trkpt lat="43.43252" lon="6.61865">
        <ele>85</ele>
        <time>2019-05-04T10:31:34.000Z</time>
      </trkpt>
      <trkpt lat="43.43253" lon="6.61865">
        <ele>85</ele>
        <time>2019-05-04T10:31:43.000Z</time>
      </trkpt>
      <trkpt lat="43.43253" lon="6.61865">
        <ele>85.400001525879</ele>
        <time>2019-05-04T10:31:51.000Z</time>
      </trkpt>
      <trkpt lat="43.43253" lon="6.61865">
        <ele>85.199996948242</ele>
        <time>2019-05-04T10:32:04.000Z</time>
      </trkpt>
      <trkpt lat="43.43254" lon="6.61865">
        <ele>85</ele>
        <time>2019-05-04T10:32:13.000Z</time>
      </trkpt>
      <trkpt lat="43.43254" lon="6.61865">
        <ele>85.400001525879</ele>
        <time>2019-05-04T10:32:26.000Z</time>
      </trkpt>
      <trkpt lat="43.43252" lon="6.61865">
        <ele>85.599998474121</ele>
        <time>2019-05-04T10:32:39.000Z</time>
      </trkpt>
      <trkpt lat="43.43252" lon="6.61864">
        <ele>85.400001525879</ele>
        <time>2019-05-04T10:32:44.000Z</time>
      </trkpt>
      <trkpt lat="43.43252" lon="6.61864">
        <ele>85.599998474121</ele>
        <time>2019-05-04T10:32:49.000Z</time>
      </trkpt>
      <trkpt lat="43.43252" lon="6.61864">
        <ele>85.199996948242</ele>
        <time>2019-05-04T10:32:56.000Z</time>
      </trkpt>
      <trkpt lat="43.43253" lon="6.61864">
        <ele>85</ele>
        <time>2019-05-04T10:33:11.000Z</time>
      </trkpt>
      <trkpt lat="43.43254" lon="6.61864">
        <ele>85.400001525879</ele>
        <time>2019-05-04T10:33:22.000Z</time>
      </trkpt>
      <trkpt lat="43.43253" lon="6.61864">
        <ele>85.199996948242</ele>
        <time>2019-05-04T10:33:32.000Z</time>
      </trkpt>
      <trkpt lat="43.43253" lon="6.61863">
        <ele>85.199996948242</ele>
        <time>2019-05-04T10:33:43.000Z</time>
      </trkpt>
      <trkpt lat="43.43253" lon="6.61863">
        <ele>85.400001525879</ele>
        <time>2019-05-04T10:33:56.000Z</time>
      </trkpt>
      <trkpt lat="43.43253" lon="6.61863">
        <ele>85.400001525879</ele>
        <time>2019-05-04T10:34:08.000Z</time>
      </trkpt>
      <trkpt lat="43.43253" lon="6.61865">
        <ele>85</ele>
        <time>2019-05-04T10:34:14.000Z</time>
      </trkpt>
      <trkpt lat="43.43253" lon="6.61865">
        <ele>84.800003051758</ele>
        <time>2019-05-04T10:34:22.000Z</time>
      </trkpt>
      <trkpt lat="43.43252" lon="6.61864">
        <ele>84.800003051758</ele>
        <time>2019-05-04T10:34:31.000Z</time>
      </trkpt>
      <trkpt lat="43.43251" lon="6.61863">
        <ele>85</ele>
        <time>2019-05-04T10:34:42.000Z</time>
      </trkpt>
      <trkpt lat="43.43251" lon="6.61863">
        <ele>85</ele>
        <time>2019-05-04T10:34:52.000Z</time>
      </trkpt>
      <trkpt lat="43.4325" lon="6.61863">
        <ele>85.199996948242</ele>
        <time>2019-05-04T10:35:00.000Z</time>
      </trkpt>
      <trkpt lat="43.4325" lon="6.61863">
        <ele>85.400001525879</ele>
        <time>2019-05-04T10:35:08.000Z</time>
      </trkpt>
      <trkpt lat="43.43251" lon="6.61861">
        <ele>85.199996948242</ele>
        <time>2019-05-04T10:35:14.000Z</time>
      </trkpt>
      <trkpt lat="43.43251" lon="6.6186">
        <ele>85.400001525879</ele>
        <time>2019-05-04T10:35:22.000Z</time>
      </trkpt>
      <trkpt lat="43.4325" lon="6.6186">
        <ele>85.400001525879</ele>
        <time>2019-05-04T10:35:34.000Z</time>
      </trkpt>
      <trkpt lat="43.4325" lon="6.61861">
        <ele>85.400001525879</ele>
        <time>2019-05-04T10:35:44.000Z</time>
      </trkpt>
      <trkpt lat="43.43251" lon="6.61862">
        <ele>85.400001525879</ele>
        <time>2019-05-04T10:36:02.000Z</time>
      </trkpt>
      <trkpt lat="43.43251" lon="6.61862">
        <ele>85.199996948242</ele>
        <time>2019-05-04T10:36:19.000Z</time>
      </trkpt>
      <trkpt lat="43.43252" lon="6.61862">
        <ele>85.400001525879</ele>
        <time>2019-05-04T10:36:36.000Z</time>
      </trkpt>
      <trkpt lat="43.43251" lon="6.61863">
        <ele>85.599998474121</ele>
        <time>2019-05-04T10:36:41.000Z</time>
      </trkpt>
      <trkpt lat="43.43251" lon="6.61862">
        <ele>85.400001525879</ele>
        <time>2019-05-04T10:36:53.000Z</time>
      </trkpt>
      <trkpt lat="43.4325" lon="6.61861">
        <ele>85.199996948242</ele>
        <time>2019-05-04T10:37:17.000Z</time>
      </trkpt>
      <trkpt lat="43.43251" lon="6.61862">
        <ele>85.400001525879</ele>
        <time>2019-05-04T10:37:28.000Z</time>
      </trkpt>
      <trkpt lat="43.43251" lon="6.61862">
        <ele>85.599998474121</ele>
        <time>2019-05-04T10:37:37.000Z</time>
      </trkpt>
      <trkpt lat="43.43251" lon="6.61862">
        <ele>85.199996948242</ele>
        <time>2019-05-04T10:37:49.000Z</time>
      </trkpt>
      <trkpt lat="43.43251" lon="6.61863">
        <ele>85.599998474121</ele>
        <time>2019-05-04T10:37:59.000Z</time>
      </trkpt>
      <trkpt lat="43.43252" lon="6.61863">
        <ele>85.599998474121</ele>
        <time>2019-05-04T10:38:11.000Z</time>
      </trkpt>
      <trkpt lat="43.43252" lon="6.61863">
        <ele>85.800003051758</ele>
        <time>2019-05-04T10:38:23.000Z</time>
      </trkpt>
      <trkpt lat="43.43252" lon="6.61863">
        <ele>85.400001525879</ele>
        <time>2019-05-04T10:38:40.000Z</time>
      </trkpt>
      <trkpt lat="43.43253" lon="6.61864">
        <ele>85.599998474121</ele>
        <time>2019-05-04T10:38:54.000Z</time>
      </trkpt>
      <trkpt lat="43.43252" lon="6.61863">
        <ele>85.800003051758</ele>
        <time>2019-05-04T10:39:06.000Z</time>
      </trkpt>
      <trkpt lat="43.43251" lon="6.61863">
        <ele>85.800003051758</ele>
        <time>2019-05-04T10:39:22.000Z</time>
      </trkpt>
      <trkpt lat="43.43251" lon="6.61863">
        <ele>86</ele>
        <time>2019-05-04T10:39:30.000Z</time>
      </trkpt>
      <trkpt lat="43.43251" lon="6.61863">
        <ele>86.199996948242</ele>
        <time>2019-05-04T10:39:41.000Z</time>
      </trkpt>
      <trkpt lat="43.43251" lon="6.61863">
        <ele>86.199996948242</ele>
        <time>2019-05-04T10:39:54.000Z</time>
      </trkpt>
      <trkpt lat="43.43251" lon="6.61863">
        <ele>86</ele>
        <time>2019-05-04T10:40:01.000Z</time>
      </trkpt>
      <trkpt lat="43.43249" lon="6.61862">
        <ele>86</ele>
        <time>2019-05-04T10:40:16.000Z</time>
      </trkpt>
      <trkpt lat="43.4325" lon="6.61862">
        <ele>86.400001525879</ele>
        <time>2019-05-04T10:40:29.000Z</time>
      </trkpt>
      <trkpt lat="43.4325" lon="6.61862">
        <ele>86.800003051758</ele>
        <time>2019-05-04T10:40:32.000Z</time>
      </trkpt>
      <trkpt lat="43.4325" lon="6.61862">
        <ele>86.599998474121</ele>
        <time>2019-05-04T10:40:38.000Z</time>
      </trkpt>
      <trkpt lat="43.43251" lon="6.61863">
        <ele>86.800003051758</ele>
        <time>2019-05-04T10:40:58.000Z</time>
      </trkpt>
      <trkpt lat="43.43252" lon="6.61863">
        <ele>86.800003051758</ele>
        <time>2019-05-04T10:41:15.000Z</time>
      </trkpt>
      <trkpt lat="43.43252" lon="6.61863">
        <ele>86.400001525879</ele>
        <time>2019-05-04T10:41:25.000Z</time>
      </trkpt>
      <trkpt lat="43.4325" lon="6.61863">
        <ele>87</ele>
        <time>2019-05-04T10:41:35.000Z</time>
      </trkpt>
      <trkpt lat="43.4325" lon="6.61862">
        <ele>87.199996948242</ele>
        <time>2019-05-04T10:41:43.000Z</time>
      </trkpt>
      <trkpt lat="43.43248" lon="6.61862">
        <ele>86.599998474121</ele>
        <time>2019-05-04T10:42:03.000Z</time>
      </trkpt>
      <trkpt lat="43.43246" lon="6.61862">
        <ele>86.599998474121</ele>
        <time>2019-05-04T10:42:22.000Z</time>
      </trkpt>
      <trkpt lat="43.43246" lon="6.61861">
        <ele>86.599998474121</ele>
        <time>2019-05-04T10:42:23.000Z</time>
      </trkpt>
      <trkpt lat="43.43244" lon="6.61861">
        <ele>86.599998474121</ele>
        <time>2019-05-04T10:42:26.000Z</time>
      </trkpt>
      <trkpt lat="43.43244" lon="6.61861">
        <ele>86.800003051758</ele>
        <time>2019-05-04T10:42:32.000Z</time>
      </trkpt>
      <trkpt lat="43.43244" lon="6.61861">
        <ele>86.599998474121</ele>
        <time>2019-05-04T10:42:38.000Z</time>
      </trkpt>
      <trkpt lat="43.43244" lon="6.61861">
        <ele>86.199996948242</ele>
        <time>2019-05-04T10:42:45.000Z</time>
      </trkpt>
      <trkpt lat="43.43244" lon="6.61861">
        <ele>86.599998474121</ele>
        <time>2019-05-04T10:42:54.000Z</time>
      </trkpt>
      <trkpt lat="43.43243" lon="6.61861">
        <ele>86.599998474121</ele>
        <time>2019-05-04T10:43:06.000Z</time>
      </trkpt>
      <trkpt lat="43.43242" lon="6.61861">
        <ele>86.800003051758</ele>
        <time>2019-05-04T10:43:18.000Z</time>
      </trkpt>
      <trkpt lat="43.43242" lon="6.6186">
        <ele>87.199996948242</ele>
        <time>2019-05-04T10:43:31.000Z</time>
      </trkpt>
      <trkpt lat="43.43243" lon="6.6186">
        <ele>86.800003051758</ele>
        <time>2019-05-04T10:43:41.000Z</time>
      </trkpt>
      <trkpt lat="43.43244" lon="6.61861">
        <ele>86.800003051758</ele>
        <time>2019-05-04T10:43:47.000Z</time>
      </trkpt>
      <trkpt lat="43.43246" lon="6.61859">
        <ele>87</ele>
        <time>2019-05-04T10:43:52.000Z</time>
      </trkpt>
      <trkpt lat="43.43247" lon="6.61859">
        <ele>87.599998474121</ele>
        <time>2019-05-04T10:44:00.000Z</time>
      </trkpt>
      <trkpt lat="43.43246" lon="6.61859">
        <ele>87.400001525879</ele>
        <time>2019-05-04T10:44:02.000Z</time>
      </trkpt>
      <trkpt lat="43.43247" lon="6.61859">
        <ele>87.400001525879</ele>
        <time>2019-05-04T10:44:04.000Z</time>
      </trkpt>
      <trkpt lat="43.43247" lon="6.6186">
        <ele>86.599998474121</ele>
        <time>2019-05-04T10:44:14.000Z</time>
      </trkpt>
      <trkpt lat="43.43246" lon="6.6186">
        <ele>86.800003051758</ele>
        <time>2019-05-04T10:44:21.000Z</time>
      </trkpt>
      <trkpt lat="43.43247" lon="6.6186">
        <ele>87.199996948242</ele>
        <time>2019-05-04T10:44:30.000Z</time>
      </trkpt>
      <trkpt lat="43.43248" lon="6.61862">
        <ele>86.800003051758</ele>
        <time>2019-05-04T10:44:42.000Z</time>
      </trkpt>
      <trkpt lat="43.43249" lon="6.61862">
        <ele>86.599998474121</ele>
        <time>2019-05-04T10:44:56.000Z</time>
      </trkpt>
      <trkpt lat="43.43249" lon="6.61863">
        <ele>86.800003051758</ele>
        <time>2019-05-04T10:45:16.000Z</time>
      </trkpt>
      <trkpt lat="43.43249" lon="6.61862">
        <ele>87.400001525879</ele>
        <time>2019-05-04T10:45:36.000Z</time>
      </trkpt>
      <trkpt lat="43.43249" lon="6.61862">
        <ele>87.199996948242</ele>
        <time>2019-05-04T10:45:51.000Z</time>
      </trkpt>
      <trkpt lat="43.43249" lon="6.61862">
        <ele>87.400001525879</ele>
        <time>2019-05-04T10:46:07.000Z</time>
      </trkpt>
      <trkpt lat="43.43249" lon="6.61862">
        <ele>87.599998474121</ele>
        <time>2019-05-04T10:46:20.000Z</time>
      </trkpt>
      <trkpt lat="43.43248" lon="6.61862">
        <ele>87.599998474121</ele>
        <time>2019-05-04T10:46:34.000Z</time>
      </trkpt>
      <trkpt lat="43.43248" lon="6.61863">
        <ele>87.400001525879</ele>
        <time>2019-05-04T10:46:49.000Z</time>
      </trkpt>
      <trkpt lat="43.43247" lon="6.61864">
        <ele>87.199996948242</ele>
        <time>2019-05-04T10:47:02.000Z</time>
      </trkpt>
      <trkpt lat="43.43247" lon="6.61863">
        <ele>87.199996948242</ele>
        <time>2019-05-04T10:47:13.000Z</time>
      </trkpt>
      <trkpt lat="43.43247" lon="6.61863">
        <ele>87</ele>
        <time>2019-05-04T10:47:24.000Z</time>
      </trkpt>
      <trkpt lat="43.43248" lon="6.61863">
        <ele>86.800003051758</ele>
        <time>2019-05-04T10:47:36.000Z</time>
      </trkpt>
      <trkpt lat="43.43248" lon="6.61863">
        <ele>87</ele>
        <time>2019-05-04T10:47:52.000Z</time>
      </trkpt>
      <trkpt lat="43.43248" lon="6.61862">
        <ele>87</ele>
        <time>2019-05-04T10:48:08.000Z</time>
      </trkpt>
      <trkpt lat="43.43248" lon="6.61862">
        <ele>87.199996948242</ele>
        <time>2019-05-04T10:48:19.000Z</time>
      </trkpt>
      <trkpt lat="43.43248" lon="6.61862">
        <ele>87</ele>
        <time>2019-05-04T10:48:25.000Z</time>
      </trkpt>
      <trkpt lat="43.43248" lon="6.61862">
        <ele>87</ele>
        <time>2019-05-04T10:48:50.000Z</time>
      </trkpt>
      <trkpt lat="43.43249" lon="6.61863">
        <ele>87.199996948242</ele>
        <time>2019-05-04T10:49:05.000Z</time>
      </trkpt>
      <trkpt lat="43.43249" lon="6.61863">
        <ele>87.199996948242</ele>
        <time>2019-05-04T10:49:24.000Z</time>
      </trkpt>
      <trkpt lat="43.43248" lon="6.61863">
        <ele>87.400001525879</ele>
        <time>2019-05-04T10:49:48.000Z</time>
      </trkpt>
      <trkpt lat="43.43248" lon="6.61863">
        <ele>87.400001525879</ele>
        <time>2019-05-04T10:50:01.000Z</time>
      </trkpt>
      <trkpt lat="43.43247" lon="6.61862">
        <ele>87.199996948242</ele>
        <time>2019-05-04T10:50:08.000Z</time>
      </trkpt>
      <trkpt lat="43.43247" lon="6.61862">
        <ele>87</ele>
        <time>2019-05-04T10:50:20.000Z</time>
      </trkpt>
      <trkpt lat="43.43246" lon="6.61862">
        <ele>87.400001525879</ele>
        <time>2019-05-04T10:50:30.000Z</time>
      </trkpt>
      <trkpt lat="43.43246" lon="6.61863">
        <ele>87.400001525879</ele>
        <time>2019-05-04T10:50:37.000Z</time>
      </trkpt>
      <trkpt lat="43.43244" lon="6.61867">
        <ele>86.800003051758</ele>
        <time>2019-05-04T10:51:02.000Z</time>
      </trkpt>
      <trkpt lat="43.43245" lon="6.61867">
        <ele>87.199996948242</ele>
        <time>2019-05-04T10:51:16.000Z</time>
      </trkpt>
      <trkpt lat="43.43246" lon="6.61865">
        <ele>87.199996948242</ele>
        <time>2019-05-04T10:51:42.000Z</time>
      </trkpt>
      <trkpt lat="43.43246" lon="6.61864">
        <ele>87.800003051758</ele>
        <time>2019-05-04T10:51:47.000Z</time>
      </trkpt>
      <trkpt lat="43.43246" lon="6.61864">
        <ele>87.800003051758</ele>
        <time>2019-05-04T10:51:49.000Z</time>
      </trkpt>
      <trkpt lat="43.43246" lon="6.61864">
        <ele>87.199996948242</ele>
        <time>2019-05-04T10:52:04.000Z</time>
      </trkpt>
      <trkpt lat="43.43246" lon="6.61865">
        <ele>87.400001525879</ele>
        <time>2019-05-04T10:52:19.000Z</time>
      </trkpt>
      <trkpt lat="43.43247" lon="6.61865">
        <ele>87.599998474121</ele>
        <time>2019-05-04T10:52:42.000Z</time>
      </trkpt>
      <trkpt lat="43.43246" lon="6.61863">
        <ele>87.400001525879</ele>
        <time>2019-05-04T10:52:56.000Z</time>
      </trkpt>
      <trkpt lat="43.43247" lon="6.61862">
        <ele>88</ele>
        <time>2019-05-04T10:53:11.000Z</time>
      </trkpt>
      <trkpt lat="43.43246" lon="6.61862">
        <ele>88.199996948242</ele>
        <time>2019-05-04T10:53:32.000Z</time>
      </trkpt>
      <trkpt lat="43.43248" lon="6.61863">
        <ele>88</ele>
        <time>2019-05-04T10:53:51.000Z</time>
      </trkpt>
      <trkpt lat="43.43249" lon="6.61863">
        <ele>87.400001525879</ele>
        <time>2019-05-04T10:54:12.000Z</time>
      </trkpt>
      <trkpt lat="43.43249" lon="6.61863">
        <ele>87.599998474121</ele>
        <time>2019-05-04T10:54:29.000Z</time>
      </trkpt>
      <trkpt lat="43.43249" lon="6.61864">
        <ele>87.800003051758</ele>
        <time>2019-05-04T10:54:37.000Z</time>
      </trkpt>
      <trkpt lat="43.43249" lon="6.61863">
        <ele>87.400001525879</ele>
        <time>2019-05-04T10:54:46.000Z</time>
      </trkpt>
      <trkpt lat="43.43249" lon="6.61864">
        <ele>87.199996948242</ele>
        <time>2019-05-04T10:54:59.000Z</time>
      </trkpt>
      <trkpt lat="43.43249" lon="6.61863">
        <ele>87</ele>
        <time>2019-05-04T10:55:12.000Z</time>
      </trkpt>
      <trkpt lat="43.43249" lon="6.61863">
        <ele>87.400001525879</ele>
        <time>2019-05-04T10:55:20.000Z</time>
      </trkpt>
      <trkpt lat="43.43249" lon="6.61863">
        <ele>87.400001525879</ele>
        <time>2019-05-04T10:55:26.000Z</time>
      </trkpt>
      <trkpt lat="43.43248" lon="6.61863">
        <ele>87.400001525879</ele>
        <time>2019-05-04T10:55:39.000Z</time>
      </trkpt>
      <trkpt lat="43.43248" lon="6.61863">
        <ele>87.599998474121</ele>
        <time>2019-05-04T10:55:48.000Z</time>
      </trkpt>
      <trkpt lat="43.43245" lon="6.61864">
        <ele>88</ele>
        <time>2019-05-04T10:55:57.000Z</time>
      </trkpt>
      <trkpt lat="43.43245" lon="6.61863">
        <ele>88</ele>
        <time>2019-05-04T10:56:04.000Z</time>
      </trkpt>
      <trkpt lat="43.43245" lon="6.61863">
        <ele>88</ele>
        <time>2019-05-04T10:56:13.000Z</time>
      </trkpt>
      <trkpt lat="43.43245" lon="6.61863">
        <ele>88.199996948242</ele>
        <time>2019-05-04T10:56:18.000Z</time>
      </trkpt>
      <trkpt lat="43.43246" lon="6.61863">
        <ele>87.400001525879</ele>
        <time>2019-05-04T10:56:28.000Z</time>
      </trkpt>
      <trkpt lat="43.43246" lon="6.61862">
        <ele>88.199996948242</ele>
        <time>2019-05-04T10:56:34.000Z</time>
      </trkpt>
      <trkpt lat="43.43245" lon="6.61862">
        <ele>88</ele>
        <time>2019-05-04T10:56:46.000Z</time>
      </trkpt>
      <trkpt lat="43.43245" lon="6.61862">
        <ele>88</ele>
        <time>2019-05-04T10:56:56.000Z</time>
      </trkpt>
      <trkpt lat="43.43245" lon="6.61862">
        <ele>88.199996948242</ele>
        <time>2019-05-04T10:57:04.000Z</time>
      </trkpt>
      <trkpt lat="43.43246" lon="6.61862">
        <ele>88</ele>
        <time>2019-05-04T10:57:21.000Z</time>
      </trkpt>
      <trkpt lat="43.43246" lon="6.61862">
        <ele>88.199996948242</ele>
        <time>2019-05-04T10:57:34.000Z</time>
      </trkpt>
      <trkpt lat="43.43247" lon="6.61862">
        <ele>88.199996948242</ele>
        <time>2019-05-04T10:57:47.000Z</time>
      </trkpt>
      <trkpt lat="43.43248" lon="6.61862">
        <ele>88</ele>
        <time>2019-05-04T10:57:58.000Z</time>
      </trkpt>
      <trkpt lat="43.43247" lon="6.61862">
        <ele>88.400001525879</ele>
        <time>2019-05-04T10:58:08.000Z</time>
      </trkpt>
      <trkpt lat="43.43247" lon="6.61861">
        <ele>88</ele>
        <time>2019-05-04T10:58:20.000Z</time>
      </trkpt>
      <trkpt lat="43.43247" lon="6.61861">
        <ele>88</ele>
        <time>2019-05-04T10:58:34.000Z</time>
      </trkpt>
      <trkpt lat="43.43248" lon="6.6186">
        <ele>88.400001525879</ele>
        <time>2019-05-04T10:58:41.000Z</time>
      </trkpt>
      <trkpt lat="43.43247" lon="6.61859">
        <ele>88.400001525879</ele>
        <time>2019-05-04T10:59:01.000Z</time>
      </trkpt>
      <trkpt lat="43.43247" lon="6.61859">
        <ele>88.400001525879</ele>
        <time>2019-05-04T10:59:10.000Z</time>
      </trkpt>
      <trkpt lat="43.43248" lon="6.61858">
        <ele>88.400001525879</ele>
        <time>2019-05-04T10:59:17.000Z</time>
      </trkpt>
      <trkpt lat="43.43248" lon="6.61858">
        <ele>88.400001525879</ele>
        <time>2019-05-04T10:59:24.000Z</time>
      </trkpt>
      <trkpt lat="43.43246" lon="6.6186">
        <ele>88.400001525879</ele>
        <time>2019-05-04T10:59:29.000Z</time>
      </trkpt>
      <trkpt lat="43.43246" lon="6.61861">
        <ele>88.400001525879</ele>
        <time>2019-05-04T10:59:35.000Z</time>
      </trkpt>
      <trkpt lat="43.43246" lon="6.61863">
        <ele>88.599998474121</ele>
        <time>2019-05-04T10:59:43.000Z</time>
      </trkpt>
      <trkpt lat="43.43246" lon="6.61863">
        <ele>88.800003051758</ele>
        <time>2019-05-04T10:59:49.000Z</time>
      </trkpt>
      <trkpt lat="43.43245" lon="6.61864">
        <ele>88.599998474121</ele>
        <time>2019-05-04T10:59:57.000Z</time>
      </trkpt>
      <trkpt lat="43.43245" lon="6.61862">
        <ele>88.800003051758</ele>
        <time>2019-05-04T11:00:04.000Z</time>
      </trkpt>
      <trkpt lat="43.43244" lon="6.61861">
        <ele>88.599998474121</ele>
        <time>2019-05-04T11:00:11.000Z</time>
      </trkpt>
      <trkpt lat="43.43244" lon="6.61861">
        <ele>88.800003051758</ele>
        <time>2019-05-04T11:00:21.000Z</time>
      </trkpt>
      <trkpt lat="43.43243" lon="6.61861">
        <ele>88.800003051758</ele>
        <time>2019-05-04T11:00:33.000Z</time>
      </trkpt>
      <trkpt lat="43.43243" lon="6.6186">
        <ele>88.599998474121</ele>
        <time>2019-05-04T11:00:45.000Z</time>
      </trkpt>
      <trkpt lat="43.43242" lon="6.6186">
        <ele>88.599998474121</ele>
        <time>2019-05-04T11:00:51.000Z</time>
      </trkpt>
      <trkpt lat="43.43242" lon="6.6186">
        <ele>88.599998474121</ele>
        <time>2019-05-04T11:00:56.000Z</time>
      </trkpt>
      <trkpt lat="43.43242" lon="6.61859">
        <ele>88.800003051758</ele>
        <time>2019-05-04T11:01:07.000Z</time>
      </trkpt>
      <trkpt lat="43.43242" lon="6.61858">
        <ele>88.800003051758</ele>
        <time>2019-05-04T11:01:20.000Z</time>
      </trkpt>
      <trkpt lat="43.43242" lon="6.61858">
        <ele>88.800003051758</ele>
        <time>2019-05-04T11:01:30.000Z</time>
      </trkpt>
      <trkpt lat="43.43243" lon="6.61858">
        <ele>88.599998474121</ele>
        <time>2019-05-04T11:01:52.000Z</time>
      </trkpt>
      <trkpt lat="43.43243" lon="6.61857">
        <ele>88.599998474121</ele>
        <time>2019-05-04T11:02:04.000Z</time>
      </trkpt>
      <trkpt lat="43.43243" lon="6.61857">
        <ele>88.599998474121</ele>
        <time>2019-05-04T11:02:22.000Z</time>
      </trkpt>
      <trkpt lat="43.43243" lon="6.61857">
        <ele>88.400001525879</ele>
        <time>2019-05-04T11:02:33.000Z</time>
      </trkpt>
      <trkpt lat="43.43243" lon="6.61857">
        <ele>88.599998474121</ele>
        <time>2019-05-04T11:02:43.000Z</time>
      </trkpt>
      <trkpt lat="43.43243" lon="6.61858">
        <ele>88.800003051758</ele>
        <time>2019-05-04T11:02:59.000Z</time>
      </trkpt>
      <trkpt lat="43.43243" lon="6.61858">
        <ele>89</ele>
        <time>2019-05-04T11:03:22.000Z</time>
      </trkpt>
      <trkpt lat="43.43243" lon="6.61857">
        <ele>88.800003051758</ele>
        <time>2019-05-04T11:03:41.000Z</time>
      </trkpt>
      <trkpt lat="43.43244" lon="6.61857">
        <ele>89.199996948242</ele>
        <time>2019-05-04T11:03:59.000Z</time>
      </trkpt>
      <trkpt lat="43.43243" lon="6.61857">
        <ele>89.599998474121</ele>
        <time>2019-05-04T11:04:13.000Z</time>
      </trkpt>
      <trkpt lat="43.43243" lon="6.61857">
        <ele>89.199996948242</ele>
        <time>2019-05-04T11:04:25.000Z</time>
      </trkpt>
      <trkpt lat="43.43243" lon="6.61857">
        <ele>89.199996948242</ele>
        <time>2019-05-04T11:04:36.000Z</time>
      </trkpt>
      <trkpt lat="43.43243" lon="6.61856">
        <ele>89</ele>
        <time>2019-05-04T11:04:50.000Z</time>
      </trkpt>
      <trkpt lat="43.43244" lon="6.61857">
        <ele>89.400001525879</ele>
        <time>2019-05-04T11:04:58.000Z</time>
      </trkpt>
      <trkpt lat="43.43243" lon="6.61858">
        <ele>89.400001525879</ele>
        <time>2019-05-04T11:05:17.000Z</time>
      </trkpt>
      <trkpt lat="43.43243" lon="6.61857">
        <ele>89.800003051758</ele>
        <time>2019-05-04T11:05:26.000Z</time>
      </trkpt>
      <trkpt lat="43.43243" lon="6.61857">
        <ele>90.199996948242</ele>
        <time>2019-05-04T11:05:29.000Z</time>
      </trkpt>
      <trkpt lat="43.43243" lon="6.61858">
        <ele>89.599998474121</ele>
        <time>2019-05-04T11:05:35.000Z</time>
      </trkpt>
      <trkpt lat="43.43243" lon="6.61859">
        <ele>89.800003051758</ele>
        <time>2019-05-04T11:05:40.000Z</time>
      </trkpt>
      <trkpt lat="43.43243" lon="6.61859">
        <ele>89.199996948242</ele>
        <time>2019-05-04T11:05:42.000Z</time>
      </trkpt>
      <trkpt lat="43.43243" lon="6.61859">
        <ele>90.199996948242</ele>
        <time>2019-05-04T11:05:55.000Z</time>
      </trkpt>
      <trkpt lat="43.43243" lon="6.61859">
        <ele>90</ele>
        <time>2019-05-04T11:06:07.000Z</time>
      </trkpt>
      <trkpt lat="43.43243" lon="6.61858">
        <ele>89.800003051758</ele>
        <time>2019-05-04T11:06:12.000Z</time>
      </trkpt>
      <trkpt lat="43.43243" lon="6.61858">
        <ele>89.599998474121</ele>
        <time>2019-05-04T11:06:26.000Z</time>
      </trkpt>
      <trkpt lat="43.43242" lon="6.61858">
        <ele>89.599998474121</ele>
        <time>2019-05-04T11:06:47.000Z</time>
      </trkpt>
      <trkpt lat="43.43242" lon="6.61859">
        <ele>89.599998474121</ele>
        <time>2019-05-04T11:07:10.000Z</time>
      </trkpt>
      <trkpt lat="43.43242" lon="6.61859">
        <ele>89.800003051758</ele>
        <time>2019-05-04T11:07:27.000Z</time>
      </trkpt>
      <trkpt lat="43.43241" lon="6.61858">
        <ele>90</ele>
        <time>2019-05-04T11:07:47.000Z</time>
      </trkpt>
      <trkpt lat="43.43242" lon="6.61859">
        <ele>90</ele>
        <time>2019-05-04T11:08:07.000Z</time>
      </trkpt>
      <trkpt lat="43.43241" lon="6.61858">
        <ele>90</ele>
        <time>2019-05-04T11:08:31.000Z</time>
      </trkpt>
      <trkpt lat="43.43241" lon="6.61858">
        <ele>90</ele>
        <time>2019-05-04T11:08:54.000Z</time>
      </trkpt>
      <trkpt lat="43.43241" lon="6.61859">
        <ele>90</ele>
        <time>2019-05-04T11:09:04.000Z</time>
      </trkpt>
      <trkpt lat="43.43241" lon="6.61858">
        <ele>89.599998474121</ele>
        <time>2019-05-04T11:09:18.000Z</time>
      </trkpt>
      <trkpt lat="43.43241" lon="6.61858">
        <ele>89.800003051758</ele>
        <time>2019-05-04T11:09:35.000Z</time>
      </trkpt>
      <trkpt lat="43.43241" lon="6.61858">
        <ele>90</ele>
        <time>2019-05-04T11:09:57.000Z</time>
      </trkpt>
      <trkpt lat="43.43242" lon="6.61857">
        <ele>90.199996948242</ele>
        <time>2019-05-04T11:10:14.000Z</time>
      </trkpt>
      <trkpt lat="43.43242" lon="6.61857">
        <ele>90</ele>
        <time>2019-05-04T11:10:36.000Z</time>
      </trkpt>
      <trkpt lat="43.43242" lon="6.61857">
        <ele>90</ele>
        <time>2019-05-04T11:11:05.000Z</time>
      </trkpt>
      <trkpt lat="43.43241" lon="6.61857">
        <ele>90</ele>
        <time>2019-05-04T11:11:31.000Z</time>
      </trkpt>
      <trkpt lat="43.43242" lon="6.61858">
        <ele>89.800003051758</ele>
        <time>2019-05-04T11:11:45.000Z</time>
      </trkpt>
      <trkpt lat="43.43242" lon="6.61857">
        <ele>90</ele>
        <time>2019-05-04T11:12:02.000Z</time>
      </trkpt>
      <trkpt lat="43.43242" lon="6.61857">
        <ele>90</ele>
        <time>2019-05-04T11:12:26.000Z</time>
      </trkpt>
      <trkpt lat="43.43242" lon="6.61858">
        <ele>90.199996948242</ele>
        <time>2019-05-04T11:12:52.000Z</time>
      </trkpt>
      <trkpt lat="43.43241" lon="6.61857">
        <ele>90.199996948242</ele>
        <time>2019-05-04T11:13:19.000Z</time>
      </trkpt>
      <trkpt lat="43.43241" lon="6.61857">
        <ele>90.599998474121</ele>
        <time>2019-05-04T11:13:36.000Z</time>
      </trkpt>
      <trkpt lat="43.43242" lon="6.61856">
        <ele>90.400001525879</ele>
        <time>2019-05-04T11:13:56.000Z</time>
      </trkpt>
      <trkpt lat="43.43242" lon="6.61856">
        <ele>90</ele>
        <time>2019-05-04T11:14:20.000Z</time>
      </trkpt>
      <trkpt lat="43.43242" lon="6.61855">
        <ele>90.199996948242</ele>
        <time>2019-05-04T11:14:31.000Z</time>
      </trkpt>
      <trkpt lat="43.43242" lon="6.61856">
        <ele>90.400001525879</ele>
        <time>2019-05-04T11:14:39.000Z</time>
      </trkpt>
      <trkpt lat="43.43242" lon="6.61856">
        <ele>90.400001525879</ele>
        <time>2019-05-04T11:14:51.000Z</time>
      </trkpt>
      <trkpt lat="43.43242" lon="6.61857">
        <ele>90.599998474121</ele>
        <time>2019-05-04T11:15:05.000Z</time>
      </trkpt>
      <trkpt lat="43.43242" lon="6.61857">
        <ele>90.599998474121</ele>
        <time>2019-05-04T11:15:14.000Z</time>
      </trkpt>
      <trkpt lat="43.43241" lon="6.61857">
        <ele>90.199996948242</ele>
        <time>2019-05-04T11:15:26.000Z</time>
      </trkpt>
      <trkpt lat="43.43241" lon="6.61856">
        <ele>90.400001525879</ele>
        <time>2019-05-04T11:15:35.000Z</time>
      </trkpt>
      <trkpt lat="43.43242" lon="6.61855">
        <ele>90.400001525879</ele>
        <time>2019-05-04T11:15:42.000Z</time>
      </trkpt>
      <trkpt lat="43.43245" lon="6.61856">
        <ele>90</ele>
        <time>2019-05-04T11:15:49.000Z</time>
      </trkpt>
      <trkpt lat="43.43246" lon="6.61856">
        <ele>90.599998474121</ele>
        <time>2019-05-04T11:15:56.000Z</time>
      </trkpt>
      <trkpt lat="43.43246" lon="6.61856">
        <ele>91</ele>
        <time>2019-05-04T11:15:58.000Z</time>
      </trkpt>
      <trkpt lat="43.43246" lon="6.61857">
        <ele>90.599998474121</ele>
        <time>2019-05-04T11:16:07.000Z</time>
      </trkpt>
      <trkpt lat="43.43245" lon="6.61858">
        <ele>90.599998474121</ele>
        <time>2019-05-04T11:16:18.000Z</time>
      </trkpt>
      <trkpt lat="43.43247" lon="6.61856">
        <ele>91</ele>
        <time>2019-05-04T11:16:31.000Z</time>
      </trkpt>
      <trkpt lat="43.43254" lon="6.61848">
        <ele>90.800003051758</ele>
        <time>2019-05-04T11:16:38.000Z</time>
      </trkpt>
      <trkpt lat="43.43256" lon="6.61848">
        <ele>91</ele>
        <time>2019-05-04T11:16:40.000Z</time>
      </trkpt>
      <trkpt lat="43.43254" lon="6.6185">
        <ele>91.199996948242</ele>
        <time>2019-05-04T11:16:42.000Z</time>
      </trkpt>
      <trkpt lat="43.43255" lon="6.61848">
        <ele>91.800003051758</ele>
        <time>2019-05-04T11:16:45.000Z</time>
      </trkpt>
      <trkpt lat="43.43255" lon="6.61847">
        <ele>92</ele>
        <time>2019-05-04T11:16:46.000Z</time>
      </trkpt>
      <trkpt lat="43.43256" lon="6.61842">
        <ele>92</ele>
        <time>2019-05-04T11:16:50.000Z</time>
      </trkpt>
      <trkpt lat="43.43262" lon="6.61829">
        <ele>92</ele>
        <time>2019-05-04T11:16:55.000Z</time>
      </trkpt>
      <trkpt lat="43.43267" lon="6.61807">
        <ele>92.199996948242</ele>
        <time>2019-05-04T11:17:02.000Z</time>
      </trkpt>
      <trkpt lat="43.43264" lon="6.61802">
        <ele>92.599998474121</ele>
        <time>2019-05-04T11:17:04.000Z</time>
      </trkpt>
      <trkpt lat="43.43261" lon="6.61796">
        <ele>92.800003051758</ele>
        <time>2019-05-04T11:17:06.000Z</time>
      </trkpt>
      <trkpt lat="43.4326" lon="6.61793">
        <ele>93</ele>
        <time>2019-05-04T11:17:07.000Z</time>
      </trkpt>
      <trkpt lat="43.43249" lon="6.61777">
        <ele>94.199996948242</ele>
        <time>2019-05-04T11:17:13.000Z</time>
      </trkpt>
      <trkpt lat="43.43246" lon="6.61757">
        <ele>95</ele>
        <time>2019-05-04T11:17:20.000Z</time>
      </trkpt>
      <trkpt lat="43.43245" lon="6.61753">
        <ele>95.400001525879</ele>
        <time>2019-05-04T11:17:21.000Z</time>
      </trkpt>
      <trkpt lat="43.43245" lon="6.61739">
        <ele>96.199996948242</ele>
        <time>2019-05-04T11:17:26.000Z</time>
      </trkpt>
      <trkpt lat="43.43245" lon="6.61735">
        <ele>96.400001525879</ele>
        <time>2019-05-04T11:17:28.000Z</time>
      </trkpt>
      <trkpt lat="43.43245" lon="6.61719">
        <ele>97.599998474121</ele>
        <time>2019-05-04T11:17:34.000Z</time>
      </trkpt>
      <trkpt lat="43.43245" lon="6.61701">
        <ele>98.599998474121</ele>
        <time>2019-05-04T11:17:41.000Z</time>
      </trkpt>
      <trkpt lat="43.43245" lon="6.61698">
        <ele>99</ele>
        <time>2019-05-04T11:17:42.000Z</time>
      </trkpt>
      <trkpt lat="43.43244" lon="6.61691">
        <ele>99.800003051758</ele>
        <time>2019-05-04T11:17:45.000Z</time>
      </trkpt>
      <trkpt lat="43.43242" lon="6.61683">
        <ele>100.40000152588</ele>
        <time>2019-05-04T11:17:48.000Z</time>
      </trkpt>
      <trkpt lat="43.43239" lon="6.61673">
        <ele>100.80000305176</ele>
        <time>2019-05-04T11:17:52.000Z</time>
      </trkpt>
      <trkpt lat="43.43238" lon="6.61668">
        <ele>100.80000305176</ele>
        <time>2019-05-04T11:17:54.000Z</time>
      </trkpt>
      <trkpt lat="43.43234" lon="6.61657">
        <ele>101.80000305176</ele>
        <time>2019-05-04T11:17:59.000Z</time>
      </trkpt>
      <trkpt lat="43.43233" lon="6.61655">
        <ele>102</ele>
        <time>2019-05-04T11:18:00.000Z</time>
      </trkpt>
      <trkpt lat="43.43229" lon="6.61643">
        <ele>102.80000305176</ele>
        <time>2019-05-04T11:18:05.000Z</time>
      </trkpt>
      <trkpt lat="43.43227" lon="6.61636">
        <ele>103</ele>
        <time>2019-05-04T11:18:08.000Z</time>
      </trkpt>
      <trkpt lat="43.43222" lon="6.61625">
        <ele>103.80000305176</ele>
        <time>2019-05-04T11:18:14.000Z</time>
      </trkpt>
      <trkpt lat="43.4322" lon="6.61621">
        <ele>104.19999694824</ele>
        <time>2019-05-04T11:18:16.000Z</time>
      </trkpt>
      <trkpt lat="43.43218" lon="6.61614">
        <ele>104.80000305176</ele>
        <time>2019-05-04T11:18:19.000Z</time>
      </trkpt>
      <trkpt lat="43.43214" lon="6.61605">
        <ele>105.40000152588</ele>
        <time>2019-05-04T11:18:23.000Z</time>
      </trkpt>
      <trkpt lat="43.4321" lon="6.61595">
        <ele>106</ele>
        <time>2019-05-04T11:18:28.000Z</time>
      </trkpt>
      <trkpt lat="43.43208" lon="6.61589">
        <ele>106.40000152588</ele>
        <time>2019-05-04T11:18:31.000Z</time>
      </trkpt>
      <trkpt lat="43.43205" lon="6.61583">
        <ele>107.19999694824</ele>
        <time>2019-05-04T11:18:34.000Z</time>
      </trkpt>
      <trkpt lat="43.432" lon="6.61574">
        <ele>108.19999694824</ele>
        <time>2019-05-04T11:18:39.000Z</time>
      </trkpt>
      <trkpt lat="43.43198" lon="6.61572">
        <ele>108.40000152588</ele>
        <time>2019-05-04T11:18:40.000Z</time>
      </trkpt>
      <trkpt lat="43.43189" lon="6.61562">
        <ele>109.19999694824</ele>
        <time>2019-05-04T11:18:47.000Z</time>
      </trkpt>
      <trkpt lat="43.43187" lon="6.61561">
        <ele>109.19999694824</ele>
        <time>2019-05-04T11:18:48.000Z</time>
      </trkpt>
      <trkpt lat="43.43175" lon="6.61556">
        <ele>110.19999694824</ele>
        <time>2019-05-04T11:18:55.000Z</time>
      </trkpt>
      <trkpt lat="43.43171" lon="6.61555">
        <ele>110.19999694824</ele>
        <time>2019-05-04T11:18:57.000Z</time>
      </trkpt>
      <trkpt lat="43.43157" lon="6.61552">
        <ele>111</ele>
        <time>2019-05-04T11:19:04.000Z</time>
      </trkpt>
      <trkpt lat="43.43148" lon="6.61552">
        <ele>111.40000152588</ele>
        <time>2019-05-04T11:19:08.000Z</time>
      </trkpt>
      <trkpt lat="43.43141" lon="6.6155">
        <ele>112.40000152588</ele>
        <time>2019-05-04T11:19:12.000Z</time>
      </trkpt>
      <trkpt lat="43.43139" lon="6.6155">
        <ele>112.59999847412</ele>
        <time>2019-05-04T11:19:13.000Z</time>
      </trkpt>
      <trkpt lat="43.43125" lon="6.61547">
        <ele>113</ele>
        <time>2019-05-04T11:19:19.000Z</time>
      </trkpt>
      <trkpt lat="43.43114" lon="6.61534">
        <ele>113.80000305176</ele>
        <time>2019-05-04T11:19:25.000Z</time>
      </trkpt>
      <trkpt lat="43.43113" lon="6.61528">
        <ele>114.19999694824</ele>
        <time>2019-05-04T11:19:27.000Z</time>
      </trkpt>
      <trkpt lat="43.43114" lon="6.61522">
        <ele>114.40000152588</ele>
        <time>2019-05-04T11:19:29.000Z</time>
      </trkpt>
      <trkpt lat="43.43115" lon="6.61517">
        <ele>114.59999847412</ele>
        <time>2019-05-04T11:19:31.000Z</time>
      </trkpt>
      <trkpt lat="43.43116" lon="6.61513">
        <ele>114.80000305176</ele>
        <time>2019-05-04T11:19:33.000Z</time>
      </trkpt>
      <trkpt lat="43.43116" lon="6.61503">
        <ele>115.40000152588</ele>
        <time>2019-05-04T11:19:37.000Z</time>
      </trkpt>
      <trkpt lat="43.43112" lon="6.61495">
        <ele>116</ele>
        <time>2019-05-04T11:19:41.000Z</time>
      </trkpt>
      <trkpt lat="43.43109" lon="6.61493">
        <ele>116.40000152588</ele>
        <time>2019-05-04T11:19:43.000Z</time>
      </trkpt>
      <trkpt lat="43.43102" lon="6.61491">
        <ele>117</ele>
        <time>2019-05-04T11:19:46.000Z</time>
      </trkpt>
      <trkpt lat="43.4309" lon="6.61486">
        <ele>118</ele>
        <time>2019-05-04T11:19:52.000Z</time>
      </trkpt>
      <trkpt lat="43.43076" lon="6.61486">
        <ele>119</ele>
        <time>2019-05-04T11:19:59.000Z</time>
      </trkpt>
      <trkpt lat="43.43074" lon="6.61487">
        <ele>119.19999694824</ele>
        <time>2019-05-04T11:20:00.000Z</time>
      </trkpt>
      <trkpt lat="43.43054" lon="6.61492">
        <ele>120</ele>
        <time>2019-05-04T11:20:08.000Z</time>
      </trkpt>
      <trkpt lat="43.43051" lon="6.61481">
        <ele>120</ele>
        <time>2019-05-04T11:20:12.000Z</time>
      </trkpt>
      <trkpt lat="43.43051" lon="6.61477">
        <ele>120</ele>
        <time>2019-05-04T11:20:13.000Z</time>
      </trkpt>
      <trkpt lat="43.43052" lon="6.61463">
        <ele>120.19999694824</ele>
        <time>2019-05-04T11:20:17.000Z</time>
      </trkpt>
      <trkpt lat="43.43052" lon="6.61457">
        <ele>120.19999694824</ele>
        <time>2019-05-04T11:20:19.000Z</time>
      </trkpt>
      <trkpt lat="43.43048" lon="6.61442">
        <ele>121.40000152588</ele>
        <time>2019-05-04T11:20:24.000Z</time>
      </trkpt>
      <trkpt lat="43.43047" lon="6.6144">
        <ele>121.40000152588</ele>
        <time>2019-05-04T11:20:25.000Z</time>
      </trkpt>
      <trkpt lat="43.43035" lon="6.61424">
        <ele>121.59999847412</ele>
        <time>2019-05-04T11:20:32.000Z</time>
      </trkpt>
      <trkpt lat="43.43025" lon="6.61413">
        <ele>122.40000152588</ele>
        <time>2019-05-04T11:20:38.000Z</time>
      </trkpt>
      <trkpt lat="43.43023" lon="6.61409">
        <ele>123</ele>
        <time>2019-05-04T11:20:40.000Z</time>
      </trkpt>
      <trkpt lat="43.43021" lon="6.61404">
        <ele>123.59999847412</ele>
        <time>2019-05-04T11:20:42.000Z</time>
      </trkpt>
      <trkpt lat="43.43016" lon="6.61396">
        <ele>124.80000305176</ele>
        <time>2019-05-04T11:20:46.000Z</time>
      </trkpt>
      <trkpt lat="43.43013" lon="6.61384">
        <ele>125.80000305176</ele>
        <time>2019-05-04T11:20:51.000Z</time>
      </trkpt>
      <trkpt lat="43.43011" lon="6.61378">
        <ele>126</ele>
        <time>2019-05-04T11:20:53.000Z</time>
      </trkpt>
      <trkpt lat="43.43011" lon="6.61365">
        <ele>126.80000305176</ele>
        <time>2019-05-04T11:20:58.000Z</time>
      </trkpt>
      <trkpt lat="43.4301" lon="6.61357">
        <ele>127.80000305176</ele>
        <time>2019-05-04T11:21:01.000Z</time>
      </trkpt>
      <trkpt lat="43.43011" lon="6.61355">
        <ele>128</ele>
        <time>2019-05-04T11:21:02.000Z</time>
      </trkpt>
      <trkpt lat="43.4301" lon="6.6134">
        <ele>128.60000610352</ele>
        <time>2019-05-04T11:21:07.000Z</time>
      </trkpt>
      <trkpt lat="43.43004" lon="6.61321">
        <ele>129.19999694824</ele>
        <time>2019-05-04T11:21:14.000Z</time>
      </trkpt>
      <trkpt lat="43.43003" lon="6.61319">
        <ele>129.39999389648</ele>
        <time>2019-05-04T11:21:15.000Z</time>
      </trkpt>
      <trkpt lat="43.42999" lon="6.61312">
        <ele>130.19999694824</ele>
        <time>2019-05-04T11:21:18.000Z</time>
      </trkpt>
      <trkpt lat="43.42992" lon="6.61301">
        <ele>130.80000305176</ele>
        <time>2019-05-04T11:21:23.000Z</time>
      </trkpt>
      <trkpt lat="43.42986" lon="6.61288">
        <ele>131.19999694824</ele>
        <time>2019-05-04T11:21:28.000Z</time>
      </trkpt>
      <trkpt lat="43.42983" lon="6.6128">
        <ele>131.60000610352</ele>
        <time>2019-05-04T11:21:31.000Z</time>
      </trkpt>
      <trkpt lat="43.42982" lon="6.61269">
        <ele>132.39999389648</ele>
        <time>2019-05-04T11:21:35.000Z</time>
      </trkpt>
      <trkpt lat="43.42981" lon="6.61261">
        <ele>132.80000305176</ele>
        <time>2019-05-04T11:21:38.000Z</time>
      </trkpt>
      <trkpt lat="43.4298" lon="6.61256">
        <ele>133</ele>
        <time>2019-05-04T11:21:40.000Z</time>
      </trkpt>
      <trkpt lat="43.42978" lon="6.6125">
        <ele>133.39999389648</ele>
        <time>2019-05-04T11:21:42.000Z</time>
      </trkpt>
      <trkpt lat="43.42976" lon="6.61245">
        <ele>133.80000305176</ele>
        <time>2019-05-04T11:21:44.000Z</time>
      </trkpt>
      <trkpt lat="43.42971" lon="6.61233">
        <ele>134.60000610352</ele>
        <time>2019-05-04T11:21:49.000Z</time>
      </trkpt>
      <trkpt lat="43.42968" lon="6.61227">
        <ele>135.39999389648</ele>
        <time>2019-05-04T11:21:52.000Z</time>
      </trkpt>
      <trkpt lat="43.42966" lon="6.61222">
        <ele>135.80000305176</ele>
        <time>2019-05-04T11:21:54.000Z</time>
      </trkpt>
      <trkpt lat="43.42961" lon="6.61212">
        <ele>136.39999389648</ele>
        <time>2019-05-04T11:21:59.000Z</time>
      </trkpt>
      <trkpt lat="43.42956" lon="6.61201">
        <ele>137</ele>
        <time>2019-05-04T11:22:04.000Z</time>
      </trkpt>
      <trkpt lat="43.42951" lon="6.61194">
        <ele>137.39999389648</ele>
        <time>2019-05-04T11:22:07.000Z</time>
      </trkpt>
      <trkpt lat="43.42947" lon="6.61191">
        <ele>138</ele>
        <time>2019-05-04T11:22:09.000Z</time>
      </trkpt>
      <trkpt lat="43.42939" lon="6.6119">
        <ele>138.80000305176</ele>
        <time>2019-05-04T11:22:13.000Z</time>
      </trkpt>
      <trkpt lat="43.42937" lon="6.6119">
        <ele>139</ele>
        <time>2019-05-04T11:22:14.000Z</time>
      </trkpt>
      <trkpt lat="43.42926" lon="6.61187">
        <ele>139.80000305176</ele>
        <time>2019-05-04T11:22:20.000Z</time>
      </trkpt>
      <trkpt lat="43.42922" lon="6.61184">
        <ele>140.19999694824</ele>
        <time>2019-05-04T11:22:22.000Z</time>
      </trkpt>
      <trkpt lat="43.42913" lon="6.61176">
        <ele>141.39999389648</ele>
        <time>2019-05-04T11:22:27.000Z</time>
      </trkpt>
      <trkpt lat="43.42909" lon="6.61172">
        <ele>141.80000305176</ele>
        <time>2019-05-04T11:22:29.000Z</time>
      </trkpt>
      <trkpt lat="43.42903" lon="6.61164">
        <ele>142.39999389648</ele>
        <time>2019-05-04T11:22:33.000Z</time>
      </trkpt>
      <trkpt lat="43.42897" lon="6.61155">
        <ele>142.80000305176</ele>
        <time>2019-05-04T11:22:37.000Z</time>
      </trkpt>
      <trkpt lat="43.42892" lon="6.61146">
        <ele>143.60000610352</ele>
        <time>2019-05-04T11:22:42.000Z</time>
      </trkpt>
      <trkpt lat="43.42888" lon="6.61141">
        <ele>144.39999389648</ele>
        <time>2019-05-04T11:22:45.000Z</time>
      </trkpt>
      <trkpt lat="43.42885" lon="6.61138">
        <ele>144.80000305176</ele>
        <time>2019-05-04T11:22:47.000Z</time>
      </trkpt>
      <trkpt lat="43.42874" lon="6.61131">
        <ele>145.39999389648</ele>
        <time>2019-05-04T11:22:53.000Z</time>
      </trkpt>
      <trkpt lat="43.42866" lon="6.61129">
        <ele>145.80000305176</ele>
        <time>2019-05-04T11:22:57.000Z</time>
      </trkpt>
      <trkpt lat="43.42859" lon="6.61125">
        <ele>146.60000610352</ele>
        <time>2019-05-04T11:23:01.000Z</time>
      </trkpt>
      <trkpt lat="43.42856" lon="6.61122">
        <ele>147</ele>
        <time>2019-05-04T11:23:03.000Z</time>
      </trkpt>
      <trkpt lat="43.42847" lon="6.61118">
        <ele>148.19999694824</ele>
        <time>2019-05-04T11:23:08.000Z</time>
      </trkpt>
      <trkpt lat="43.42845" lon="6.61118">
        <ele>148.39999389648</ele>
        <time>2019-05-04T11:23:09.000Z</time>
      </trkpt>
      <trkpt lat="43.42833" lon="6.61111">
        <ele>149.19999694824</ele>
        <time>2019-05-04T11:23:16.000Z</time>
      </trkpt>
      <trkpt lat="43.42832" lon="6.61109">
        <ele>149.39999389648</ele>
        <time>2019-05-04T11:23:17.000Z</time>
      </trkpt>
      <trkpt lat="43.42822" lon="6.61098">
        <ele>150.39999389648</ele>
        <time>2019-05-04T11:23:24.000Z</time>
      </trkpt>
      <trkpt lat="43.4282" lon="6.61096">
        <ele>150.39999389648</ele>
        <time>2019-05-04T11:23:25.000Z</time>
      </trkpt>
      <trkpt lat="43.42805" lon="6.61083">
        <ele>151</ele>
        <time>2019-05-04T11:23:34.000Z</time>
      </trkpt>
      <trkpt lat="43.42801" lon="6.61082">
        <ele>151.60000610352</ele>
        <time>2019-05-04T11:23:36.000Z</time>
      </trkpt>
      <trkpt lat="43.42791" lon="6.61084">
        <ele>152.60000610352</ele>
        <time>2019-05-04T11:23:41.000Z</time>
      </trkpt>
      <trkpt lat="43.42789" lon="6.61084">
        <ele>152.80000305176</ele>
        <time>2019-05-04T11:23:42.000Z</time>
      </trkpt>
      <trkpt lat="43.42774" lon="6.61091">
        <ele>153.39999389648</ele>
        <time>2019-05-04T11:23:49.000Z</time>
      </trkpt>
      <trkpt lat="43.42766" lon="6.61096">
        <ele>153.80000305176</ele>
        <time>2019-05-04T11:23:53.000Z</time>
      </trkpt>
      <trkpt lat="43.42755" lon="6.61102">
        <ele>154.19999694824</ele>
        <time>2019-05-04T11:23:58.000Z</time>
      </trkpt>
      <trkpt lat="43.42747" lon="6.61109">
        <ele>155</ele>
        <time>2019-05-04T11:24:02.000Z</time>
      </trkpt>
      <trkpt lat="43.42742" lon="6.61116">
        <ele>155.60000610352</ele>
        <time>2019-05-04T11:24:05.000Z</time>
      </trkpt>
      <trkpt lat="43.42737" lon="6.61123">
        <ele>156</ele>
        <time>2019-05-04T11:24:08.000Z</time>
      </trkpt>
      <trkpt lat="43.42732" lon="6.61133">
        <ele>156.60000610352</ele>
        <time>2019-05-04T11:24:11.000Z</time>
      </trkpt>
      <trkpt lat="43.42726" lon="6.61139">
        <ele>157.19999694824</ele>
        <time>2019-05-04T11:24:14.000Z</time>
      </trkpt>
      <trkpt lat="43.42721" lon="6.61141">
        <ele>157.60000610352</ele>
        <time>2019-05-04T11:24:16.000Z</time>
      </trkpt>
      <trkpt lat="43.42714" lon="6.61142">
        <ele>158.19999694824</ele>
        <time>2019-05-04T11:24:19.000Z</time>
      </trkpt>
      <trkpt lat="43.42707" lon="6.61142">
        <ele>159</ele>
        <time>2019-05-04T11:24:22.000Z</time>
      </trkpt>
      <trkpt lat="43.42702" lon="6.61141">
        <ele>159.19999694824</ele>
        <time>2019-05-04T11:24:24.000Z</time>
      </trkpt>
      <trkpt lat="43.42688" lon="6.61132">
        <ele>159.80000305176</ele>
        <time>2019-05-04T11:24:29.000Z</time>
      </trkpt>
      <trkpt lat="43.42681" lon="6.61123">
        <ele>160.39999389648</ele>
        <time>2019-05-04T11:24:33.000Z</time>
      </trkpt>
      <trkpt lat="43.42677" lon="6.61119">
        <ele>160.80000305176</ele>
        <time>2019-05-04T11:24:35.000Z</time>
      </trkpt>
      <trkpt lat="43.4267" lon="6.61113">
        <ele>161.39999389648</ele>
        <time>2019-05-04T11:24:39.000Z</time>
      </trkpt>
      <trkpt lat="43.42663" lon="6.61108">
        <ele>161.80000305176</ele>
        <time>2019-05-04T11:24:43.000Z</time>
      </trkpt>
      <trkpt lat="43.42655" lon="6.61107">
        <ele>162.39999389648</ele>
        <time>2019-05-04T11:24:47.000Z</time>
      </trkpt>
      <trkpt lat="43.42649" lon="6.61108">
        <ele>162.80000305176</ele>
        <time>2019-05-04T11:24:50.000Z</time>
      </trkpt>
      <trkpt lat="43.42642" lon="6.6111">
        <ele>163.60000610352</ele>
        <time>2019-05-04T11:24:53.000Z</time>
      </trkpt>
      <trkpt lat="43.42631" lon="6.61113">
        <ele>163.60000610352</ele>
        <time>2019-05-04T11:24:58.000Z</time>
      </trkpt>
      <trkpt lat="43.42613" lon="6.61107">
        <ele>164.80000305176</ele>
        <time>2019-05-04T11:25:06.000Z</time>
      </trkpt>
      <trkpt lat="43.42599" lon="6.61095">
        <ele>165.80000305176</ele>
        <time>2019-05-04T11:25:13.000Z</time>
      </trkpt>
      <trkpt lat="43.42597" lon="6.61094">
        <ele>166</ele>
        <time>2019-05-04T11:25:14.000Z</time>
      </trkpt>
      <trkpt lat="43.42579" lon="6.61082">
        <ele>166.60000610352</ele>
        <time>2019-05-04T11:25:21.000Z</time>
      </trkpt>
      <trkpt lat="43.42573" lon="6.61078">
        <ele>167</ele>
        <time>2019-05-04T11:25:23.000Z</time>
      </trkpt>
      <trkpt lat="43.4256" lon="6.61066">
        <ele>168</ele>
        <time>2019-05-04T11:25:28.000Z</time>
      </trkpt>
      <trkpt lat="43.42555" lon="6.6106">
        <ele>168.19999694824</ele>
        <time>2019-05-04T11:25:30.000Z</time>
      </trkpt>
      <trkpt lat="43.42553" lon="6.61043">
        <ele>168.80000305176</ele>
        <time>2019-05-04T11:25:34.000Z</time>
      </trkpt>
      <trkpt lat="43.42548" lon="6.61025">
        <ele>169.19999694824</ele>
        <time>2019-05-04T11:25:39.000Z</time>
      </trkpt>
      <trkpt lat="43.42546" lon="6.61022">
        <ele>169.60000610352</ele>
        <time>2019-05-04T11:25:40.000Z</time>
      </trkpt>
      <trkpt lat="43.4254" lon="6.6101">
        <ele>170.39999389648</ele>
        <time>2019-05-04T11:25:44.000Z</time>
      </trkpt>
      <trkpt lat="43.42538" lon="6.61004">
        <ele>170.60000610352</ele>
        <time>2019-05-04T11:25:46.000Z</time>
      </trkpt>
      <trkpt lat="43.4254" lon="6.60992">
        <ele>171.39999389648</ele>
        <time>2019-05-04T11:25:50.000Z</time>
      </trkpt>
      <trkpt lat="43.42541" lon="6.60989">
        <ele>171.60000610352</ele>
        <time>2019-05-04T11:25:51.000Z</time>
      </trkpt>
      <trkpt lat="43.42548" lon="6.60971">
        <ele>172.39999389648</ele>
        <time>2019-05-04T11:25:57.000Z</time>
      </trkpt>
      <trkpt lat="43.42549" lon="6.60969">
        <ele>172.60000610352</ele>
        <time>2019-05-04T11:25:58.000Z</time>
      </trkpt>
      <trkpt lat="43.42552" lon="6.60957">
        <ele>173.80000305176</ele>
        <time>2019-05-04T11:26:02.000Z</time>
      </trkpt>
      <trkpt lat="43.42552" lon="6.60954">
        <ele>174</ele>
        <time>2019-05-04T11:26:03.000Z</time>
      </trkpt>
      <trkpt lat="43.42548" lon="6.6093">
        <ele>174.60000610352</ele>
        <time>2019-05-04T11:26:09.000Z</time>
      </trkpt>
      <trkpt lat="43.42547" lon="6.60927">
        <ele>174.80000305176</ele>
        <time>2019-05-04T11:26:10.000Z</time>
      </trkpt>
      <trkpt lat="43.42537" lon="6.60896">
        <ele>175.19999694824</ele>
        <time>2019-05-04T11:26:17.000Z</time>
      </trkpt>
      <trkpt lat="43.42539" lon="6.60877">
        <ele>175.19999694824</ele>
        <time>2019-05-04T11:26:21.000Z</time>
      </trkpt>
      <trkpt lat="43.42541" lon="6.60867">
        <ele>175.80000305176</ele>
        <time>2019-05-04T11:26:24.000Z</time>
      </trkpt>
      <trkpt lat="43.42543" lon="6.60856">
        <ele>176.39999389648</ele>
        <time>2019-05-04T11:26:27.000Z</time>
      </trkpt>
      <trkpt lat="43.42544" lon="6.60841">
        <ele>176.80000305176</ele>
        <time>2019-05-04T11:26:31.000Z</time>
      </trkpt>
      <trkpt lat="43.42543" lon="6.60834">
        <ele>177.19999694824</ele>
        <time>2019-05-04T11:26:33.000Z</time>
      </trkpt>
      <trkpt lat="43.42541" lon="6.6082">
        <ele>178.19999694824</ele>
        <time>2019-05-04T11:26:37.000Z</time>
      </trkpt>
      <trkpt lat="43.42541" lon="6.6081">
        <ele>178.80000305176</ele>
        <time>2019-05-04T11:26:40.000Z</time>
      </trkpt>
      <trkpt lat="43.42536" lon="6.60796">
        <ele>179.19999694824</ele>
        <time>2019-05-04T11:26:44.000Z</time>
      </trkpt>
      <trkpt lat="43.42533" lon="6.60791">
        <ele>179.39999389648</ele>
        <time>2019-05-04T11:26:46.000Z</time>
      </trkpt>
      <trkpt lat="43.4252" lon="6.60778">
        <ele>180.39999389648</ele>
        <time>2019-05-04T11:26:52.000Z</time>
      </trkpt>
      <trkpt lat="43.42517" lon="6.60777">
        <ele>180.80000305176</ele>
        <time>2019-05-04T11:26:53.000Z</time>
      </trkpt>
      <trkpt lat="43.42498" lon="6.60771">
        <ele>181.39999389648</ele>
        <time>2019-05-04T11:27:00.000Z</time>
      </trkpt>
      <trkpt lat="43.42476" lon="6.60762">
        <ele>181.80000305176</ele>
        <time>2019-05-04T11:27:08.000Z</time>
      </trkpt>
      <trkpt lat="43.42464" lon="6.6075">
        <ele>182.60000610352</ele>
        <time>2019-05-04T11:27:13.000Z</time>
      </trkpt>
      <trkpt lat="43.42458" lon="6.60746">
        <ele>182.80000305176</ele>
        <time>2019-05-04T11:27:15.000Z</time>
      </trkpt>
      <trkpt lat="43.42446" lon="6.60739">
        <ele>183.60000610352</ele>
        <time>2019-05-04T11:27:19.000Z</time>
      </trkpt>
      <trkpt lat="43.42431" lon="6.60734">
        <ele>184</ele>
        <time>2019-05-04T11:27:24.000Z</time>
      </trkpt>
      <trkpt lat="43.42413" lon="6.60734">
        <ele>184.60000610352</ele>
        <time>2019-05-04T11:27:31.000Z</time>
      </trkpt>
      <trkpt lat="43.42403" lon="6.60735">
        <ele>185.60000610352</ele>
        <time>2019-05-04T11:27:35.000Z</time>
      </trkpt>
      <trkpt lat="43.42392" lon="6.60734">
        <ele>186.39999389648</ele>
        <time>2019-05-04T11:27:40.000Z</time>
      </trkpt>
      <trkpt lat="43.42388" lon="6.60733">
        <ele>186.60000610352</ele>
        <time>2019-05-04T11:27:42.000Z</time>
      </trkpt>
      <trkpt lat="43.42378" lon="6.60729">
        <ele>188</ele>
        <time>2019-05-04T11:27:47.000Z</time>
      </trkpt>
      <trkpt lat="43.42374" lon="6.60726">
        <ele>188.19999694824</ele>
        <time>2019-05-04T11:27:49.000Z</time>
      </trkpt>
      <trkpt lat="43.42367" lon="6.6072">
        <ele>189.19999694824</ele>
        <time>2019-05-04T11:27:53.000Z</time>
      </trkpt>
      <trkpt lat="43.42361" lon="6.60715">
        <ele>189.80000305176</ele>
        <time>2019-05-04T11:27:56.000Z</time>
      </trkpt>
      <trkpt lat="43.42359" lon="6.60711">
        <ele>190.19999694824</ele>
        <time>2019-05-04T11:27:58.000Z</time>
      </trkpt>
      <trkpt lat="43.42356" lon="6.60704">
        <ele>190.80000305176</ele>
        <time>2019-05-04T11:28:01.000Z</time>
      </trkpt>
      <trkpt lat="43.42355" lon="6.60698">
        <ele>191.39999389648</ele>
        <time>2019-05-04T11:28:03.000Z</time>
      </trkpt>
      <trkpt lat="43.42356" lon="6.60688">
        <ele>192.39999389648</ele>
        <time>2019-05-04T11:28:07.000Z</time>
      </trkpt>
      <trkpt lat="43.42356" lon="6.60686">
        <ele>192.60000610352</ele>
        <time>2019-05-04T11:28:08.000Z</time>
      </trkpt>
      <trkpt lat="43.42355" lon="6.60675">
        <ele>193.60000610352</ele>
        <time>2019-05-04T11:28:13.000Z</time>
      </trkpt>
      <trkpt lat="43.42355" lon="6.60673">
        <ele>194</ele>
        <time>2019-05-04T11:28:14.000Z</time>
      </trkpt>
      <trkpt lat="43.42348" lon="6.6066">
        <ele>194.80000305176</ele>
        <time>2019-05-04T11:28:20.000Z</time>
      </trkpt>
      <trkpt lat="43.42347" lon="6.60658">
        <ele>195</ele>
        <time>2019-05-04T11:28:21.000Z</time>
      </trkpt>
      <trkpt lat="43.4234" lon="6.60653">
        <ele>195.80000305176</ele>
        <time>2019-05-04T11:28:25.000Z</time>
      </trkpt>
      <trkpt lat="43.42335" lon="6.60649">
        <ele>196.60000610352</ele>
        <time>2019-05-04T11:28:28.000Z</time>
      </trkpt>
      <trkpt lat="43.42331" lon="6.60647">
        <ele>197</ele>
        <time>2019-05-04T11:28:30.000Z</time>
      </trkpt>
      <trkpt lat="43.42322" lon="6.6064">
        <ele>197.80000305176</ele>
        <time>2019-05-04T11:28:36.000Z</time>
      </trkpt>
      <trkpt lat="43.4232" lon="6.60639">
        <ele>198</ele>
        <time>2019-05-04T11:28:37.000Z</time>
      </trkpt>
      <trkpt lat="43.42313" lon="6.60637">
        <ele>199</ele>
        <time>2019-05-04T11:28:41.000Z</time>
      </trkpt>
      <trkpt lat="43.42308" lon="6.60636">
        <ele>199.80000305176</ele>
        <time>2019-05-04T11:28:44.000Z</time>
      </trkpt>
      <trkpt lat="43.42303" lon="6.60636">
        <ele>200.19999694824</ele>
        <time>2019-05-04T11:28:46.000Z</time>
      </trkpt>
      <trkpt lat="43.42293" lon="6.60637">
        <ele>200.60000610352</ele>
        <time>2019-05-04T11:28:51.000Z</time>
      </trkpt>
      <trkpt lat="43.42283" lon="6.6064">
        <ele>201.19999694824</ele>
        <time>2019-05-04T11:28:56.000Z</time>
      </trkpt>
      <trkpt lat="43.42279" lon="6.60642">
        <ele>201.80000305176</ele>
        <time>2019-05-04T11:28:58.000Z</time>
      </trkpt>
      <trkpt lat="43.42275" lon="6.60644">
        <ele>202.39999389648</ele>
        <time>2019-05-04T11:29:00.000Z</time>
      </trkpt>
      <trkpt lat="43.42258" lon="6.60654">
        <ele>203</ele>
        <time>2019-05-04T11:29:07.000Z</time>
      </trkpt>
      <trkpt lat="43.42248" lon="6.60661">
        <ele>203.60000610352</ele>
        <time>2019-05-04T11:29:12.000Z</time>
      </trkpt>
      <trkpt lat="43.42239" lon="6.60666">
        <ele>204</ele>
        <time>2019-05-04T11:29:16.000Z</time>
      </trkpt>
      <trkpt lat="43.4223" lon="6.60673">
        <ele>204.60000610352</ele>
        <time>2019-05-04T11:29:20.000Z</time>
      </trkpt>
      <trkpt lat="43.42222" lon="6.60682">
        <ele>205.60000610352</ele>
        <time>2019-05-04T11:29:24.000Z</time>
      </trkpt>
      <trkpt lat="43.42221" lon="6.60684">
        <ele>205.60000610352</ele>
        <time>2019-05-04T11:29:25.000Z</time>
      </trkpt>
      <trkpt lat="43.42211" lon="6.60702">
        <ele>205.60000610352</ele>
        <time>2019-05-04T11:29:31.000Z</time>
      </trkpt>
      <trkpt lat="43.422" lon="6.60723">
        <ele>206</ele>
        <time>2019-05-04T11:29:38.000Z</time>
      </trkpt>
      <trkpt lat="43.42184" lon="6.6074">
        <ele>205.60000610352</ele>
        <time>2019-05-04T11:29:43.000Z</time>
      </trkpt>
      <trkpt lat="43.42173" lon="6.60751">
        <ele>205.39999389648</ele>
        <time>2019-05-04T11:29:48.000Z</time>
      </trkpt>
      <trkpt lat="43.42161" lon="6.60765">
        <ele>206.19999694824</ele>
        <time>2019-05-04T11:29:53.000Z</time>
      </trkpt>
      <trkpt lat="43.42148" lon="6.60781">
        <ele>206.80000305176</ele>
        <time>2019-05-04T11:29:59.000Z</time>
      </trkpt>
      <trkpt lat="43.42142" lon="6.60789">
        <ele>207</ele>
        <time>2019-05-04T11:30:02.000Z</time>
      </trkpt>
      <trkpt lat="43.42132" lon="6.60808">
        <ele>207.80000305176</ele>
        <time>2019-05-04T11:30:08.000Z</time>
      </trkpt>
      <trkpt lat="43.4213" lon="6.60815">
        <ele>208.19999694824</ele>
        <time>2019-05-04T11:30:10.000Z</time>
      </trkpt>
      <trkpt lat="43.42118" lon="6.60841">
        <ele>208.80000305176</ele>
        <time>2019-05-04T11:30:18.000Z</time>
      </trkpt>
      <trkpt lat="43.42116" lon="6.60844">
        <ele>208.80000305176</ele>
        <time>2019-05-04T11:30:19.000Z</time>
      </trkpt>
      <trkpt lat="43.42103" lon="6.60867">
        <ele>209.80000305176</ele>
        <time>2019-05-04T11:30:26.000Z</time>
      </trkpt>
      <trkpt lat="43.421" lon="6.60872">
        <ele>210.19999694824</ele>
        <time>2019-05-04T11:30:28.000Z</time>
      </trkpt>
      <trkpt lat="43.42084" lon="6.6089">
        <ele>210.39999389648</ele>
        <time>2019-05-04T11:30:35.000Z</time>
      </trkpt>
      <trkpt lat="43.42066" lon="6.60909">
        <ele>211</ele>
        <time>2019-05-04T11:30:43.000Z</time>
      </trkpt>
      <trkpt lat="43.42055" lon="6.60916">
        <ele>212.19999694824</ele>
        <time>2019-05-04T11:30:47.000Z</time>
      </trkpt>
      <trkpt lat="43.42044" lon="6.60921">
        <ele>213</ele>
        <time>2019-05-04T11:30:51.000Z</time>
      </trkpt>
      <trkpt lat="43.42026" lon="6.60931">
        <ele>213.39999389648</ele>
        <time>2019-05-04T11:30:58.000Z</time>
      </trkpt>
      <trkpt lat="43.42024" lon="6.60933">
        <ele>213.39999389648</ele>
        <time>2019-05-04T11:30:59.000Z</time>
      </trkpt>
      <trkpt lat="43.42006" lon="6.60946">
        <ele>214.19999694824</ele>
        <time>2019-05-04T11:31:06.000Z</time>
      </trkpt>
      <trkpt lat="43.42004" lon="6.60948">
        <ele>214.39999389648</ele>
        <time>2019-05-04T11:31:07.000Z</time>
      </trkpt>
      <trkpt lat="43.41987" lon="6.60962">
        <ele>215</ele>
        <time>2019-05-04T11:31:13.000Z</time>
      </trkpt>
      <trkpt lat="43.41976" lon="6.60972">
        <ele>215.60000610352</ele>
        <time>2019-05-04T11:31:18.000Z</time>
      </trkpt>
      <trkpt lat="43.41964" lon="6.60978">
        <ele>216.39999389648</ele>
        <time>2019-05-04T11:31:24.000Z</time>
      </trkpt>
      <trkpt lat="43.41962" lon="6.60978">
        <ele>216.80000305176</ele>
        <time>2019-05-04T11:31:25.000Z</time>
      </trkpt>
      <trkpt lat="43.41954" lon="6.60978">
        <ele>218</ele>
        <time>2019-05-04T11:31:29.000Z</time>
      </trkpt>
      <trkpt lat="43.41951" lon="6.60976">
        <ele>218.19999694824</ele>
        <time>2019-05-04T11:31:31.000Z</time>
      </trkpt>
      <trkpt lat="43.41946" lon="6.6097">
        <ele>219</ele>
        <time>2019-05-04T11:31:35.000Z</time>
      </trkpt>
      <trkpt lat="43.41942" lon="6.60967">
        <ele>220</ele>
        <time>2019-05-04T11:31:38.000Z</time>
      </trkpt>
      <trkpt lat="43.4194" lon="6.60967">
        <ele>220.19999694824</ele>
        <time>2019-05-04T11:31:39.000Z</time>
      </trkpt>
      <trkpt lat="43.41934" lon="6.60964">
        <ele>221.19999694824</ele>
        <time>2019-05-04T11:31:43.000Z</time>
      </trkpt>
      <trkpt lat="43.41931" lon="6.60964">
        <ele>221.60000610352</ele>
        <time>2019-05-04T11:31:45.000Z</time>
      </trkpt>
      <trkpt lat="43.41926" lon="6.60965">
        <ele>222.39999389648</ele>
        <time>2019-05-04T11:31:48.000Z</time>
      </trkpt>
      <trkpt lat="43.4192" lon="6.60967">
        <ele>223</ele>
        <time>2019-05-04T11:31:52.000Z</time>
      </trkpt>
      <trkpt lat="43.41919" lon="6.60968">
        <ele>223.39999389648</ele>
        <time>2019-05-04T11:31:53.000Z</time>
      </trkpt>
      <trkpt lat="43.41915" lon="6.60968">
        <ele>224.60000610352</ele>
        <time>2019-05-04T11:31:56.000Z</time>
      </trkpt>
      <trkpt lat="43.41912" lon="6.6097">
        <ele>225</ele>
        <time>2019-05-04T11:31:58.000Z</time>
      </trkpt>
      <trkpt lat="43.41906" lon="6.60975">
        <ele>225.60000610352</ele>
        <time>2019-05-04T11:32:03.000Z</time>
      </trkpt>
      <trkpt lat="43.41904" lon="6.60977">
        <ele>225.80000305176</ele>
        <time>2019-05-04T11:32:05.000Z</time>
      </trkpt>
      <trkpt lat="43.41898" lon="6.60987">
        <ele>226.80000305176</ele>
        <time>2019-05-04T11:32:11.000Z</time>
      </trkpt>
      <trkpt lat="43.41896" lon="6.60991">
        <ele>227.39999389648</ele>
        <time>2019-05-04T11:32:13.000Z</time>
      </trkpt>
      <trkpt lat="43.41895" lon="6.60996">
        <ele>227.80000305176</ele>
        <time>2019-05-04T11:32:16.000Z</time>
      </trkpt>
      <trkpt lat="43.41895" lon="6.61003">
        <ele>228.39999389648</ele>
        <time>2019-05-04T11:32:19.000Z</time>
      </trkpt>
      <trkpt lat="43.41895" lon="6.61009">
        <ele>229</ele>
        <time>2019-05-04T11:32:22.000Z</time>
      </trkpt>
      <trkpt lat="43.41899" lon="6.61014">
        <ele>229.39999389648</ele>
        <time>2019-05-04T11:32:25.000Z</time>
      </trkpt>
      <trkpt lat="43.41902" lon="6.61018">
        <ele>230</ele>
        <time>2019-05-04T11:32:28.000Z</time>
      </trkpt>
      <trkpt lat="43.41909" lon="6.61022">
        <ele>231.19999694824</ele>
        <time>2019-05-04T11:32:32.000Z</time>
      </trkpt>
      <trkpt lat="43.41918" lon="6.61026">
        <ele>232</ele>
        <time>2019-05-04T11:32:37.000Z</time>
      </trkpt>
      <trkpt lat="43.41921" lon="6.61027">
        <ele>232.19999694824</ele>
        <time>2019-05-04T11:32:39.000Z</time>
      </trkpt>
      <trkpt lat="43.41927" lon="6.61031">
        <ele>233</ele>
        <time>2019-05-04T11:32:43.000Z</time>
      </trkpt>
      <trkpt lat="43.41929" lon="6.61033">
        <ele>233.19999694824</ele>
        <time>2019-05-04T11:32:45.000Z</time>
      </trkpt>
      <trkpt lat="43.41935" lon="6.61038">
        <ele>233.60000610352</ele>
        <time>2019-05-04T11:32:49.000Z</time>
      </trkpt>
      <trkpt lat="43.41939" lon="6.61044">
        <ele>234.39999389648</ele>
        <time>2019-05-04T11:32:53.000Z</time>
      </trkpt>
      <trkpt lat="43.41943" lon="6.61051">
        <ele>235.19999694824</ele>
        <time>2019-05-04T11:32:57.000Z</time>
      </trkpt>
      <trkpt lat="43.41944" lon="6.61053">
        <ele>235.39999389648</ele>
        <time>2019-05-04T11:32:58.000Z</time>
      </trkpt>
      <trkpt lat="43.41945" lon="6.61064">
        <ele>236.39999389648</ele>
        <time>2019-05-04T11:33:03.000Z</time>
      </trkpt>
      <trkpt lat="43.41945" lon="6.61068">
        <ele>236.60000610352</ele>
        <time>2019-05-04T11:33:05.000Z</time>
      </trkpt>
      <trkpt lat="43.41938" lon="6.61083">
        <ele>237.39999389648</ele>
        <time>2019-05-04T11:33:12.000Z</time>
      </trkpt>
      <trkpt lat="43.41937" lon="6.61085">
        <ele>237.39999389648</ele>
        <time>2019-05-04T11:33:13.000Z</time>
      </trkpt>
      <trkpt lat="43.4193" lon="6.61096">
        <ele>238.39999389648</ele>
        <time>2019-05-04T11:33:18.000Z</time>
      </trkpt>
      <trkpt lat="43.41929" lon="6.61097">
        <ele>238.60000610352</ele>
        <time>2019-05-04T11:33:19.000Z</time>
      </trkpt>
      <trkpt lat="43.41921" lon="6.61107">
        <ele>239.60000610352</ele>
        <time>2019-05-04T11:33:25.000Z</time>
      </trkpt>
      <trkpt lat="43.4192" lon="6.61108">
        <ele>240</ele>
        <time>2019-05-04T11:33:26.000Z</time>
      </trkpt>
      <trkpt lat="43.41909" lon="6.61112">
        <ele>240.80000305176</ele>
        <time>2019-05-04T11:33:32.000Z</time>
      </trkpt>
      <trkpt lat="43.41906" lon="6.61113">
        <ele>241.39999389648</ele>
        <time>2019-05-04T11:33:34.000Z</time>
      </trkpt>
      <trkpt lat="43.41895" lon="6.61114">
        <ele>241.80000305176</ele>
        <time>2019-05-04T11:33:39.000Z</time>
      </trkpt>
      <trkpt lat="43.41891" lon="6.61113">
        <ele>242.19999694824</ele>
        <time>2019-05-04T11:33:41.000Z</time>
      </trkpt>
      <trkpt lat="43.41881" lon="6.61117">
        <ele>242.60000610352</ele>
        <time>2019-05-04T11:33:46.000Z</time>
      </trkpt>
      <trkpt lat="43.41875" lon="6.61121">
        <ele>243</ele>
        <time>2019-05-04T11:33:49.000Z</time>
      </trkpt>
      <trkpt lat="43.41859" lon="6.61129">
        <ele>244</ele>
        <time>2019-05-04T11:33:56.000Z</time>
      </trkpt>
      <trkpt lat="43.41843" lon="6.61132">
        <ele>245.19999694824</ele>
        <time>2019-05-04T11:34:02.000Z</time>
      </trkpt>
      <trkpt lat="43.41838" lon="6.61132">
        <ele>245.80000305176</ele>
        <time>2019-05-04T11:34:04.000Z</time>
      </trkpt>
      <trkpt lat="43.41829" lon="6.61133">
        <ele>246.39999389648</ele>
        <time>2019-05-04T11:34:08.000Z</time>
      </trkpt>
      <trkpt lat="43.4182" lon="6.61135">
        <ele>247.19999694824</ele>
        <time>2019-05-04T11:34:12.000Z</time>
      </trkpt>
      <trkpt lat="43.41815" lon="6.61136">
        <ele>247.39999389648</ele>
        <time>2019-05-04T11:34:14.000Z</time>
      </trkpt>
      <trkpt lat="43.41805" lon="6.61139">
        <ele>248.39999389648</ele>
        <time>2019-05-04T11:34:19.000Z</time>
      </trkpt>
      <trkpt lat="43.41793" lon="6.61142">
        <ele>249.39999389648</ele>
        <time>2019-05-04T11:34:26.000Z</time>
      </trkpt>
      <trkpt lat="43.41791" lon="6.61142">
        <ele>249.60000610352</ele>
        <time>2019-05-04T11:34:27.000Z</time>
      </trkpt>
      <trkpt lat="43.41777" lon="6.61139">
        <ele>250.39999389648</ele>
        <time>2019-05-04T11:34:35.000Z</time>
      </trkpt>
      <trkpt lat="43.41771" lon="6.61136">
        <ele>251.60000610352</ele>
        <time>2019-05-04T11:34:38.000Z</time>
      </trkpt>
      <trkpt lat="43.41762" lon="6.61131">
        <ele>252</ele>
        <time>2019-05-04T11:34:43.000Z</time>
      </trkpt>
      <trkpt lat="43.4175" lon="6.61125">
        <ele>252.60000610352</ele>
        <time>2019-05-04T11:34:50.000Z</time>
      </trkpt>
      <trkpt lat="43.41746" lon="6.61124">
        <ele>252.80000305176</ele>
        <time>2019-05-04T11:34:52.000Z</time>
      </trkpt>
      <trkpt lat="43.41735" lon="6.61122">
        <ele>253.60000610352</ele>
        <time>2019-05-04T11:34:58.000Z</time>
      </trkpt>
      <trkpt lat="43.41729" lon="6.61122">
        <ele>254</ele>
        <time>2019-05-04T11:35:01.000Z</time>
      </trkpt>
      <trkpt lat="43.4172" lon="6.61123">
        <ele>254.80000305176</ele>
        <time>2019-05-04T11:35:07.000Z</time>
      </trkpt>
      <trkpt lat="43.41716" lon="6.61124">
        <ele>255.19999694824</ele>
        <time>2019-05-04T11:35:10.000Z</time>
      </trkpt>
      <trkpt lat="43.41712" lon="6.61124">
        <ele>255.80000305176</ele>
        <time>2019-05-04T11:35:13.000Z</time>
      </trkpt>
      <trkpt lat="43.41706" lon="6.61123">
        <ele>256.60000610352</ele>
        <time>2019-05-04T11:35:18.000Z</time>
      </trkpt>
      <trkpt lat="43.41702" lon="6.61123">
        <ele>257</ele>
        <time>2019-05-04T11:35:21.000Z</time>
      </trkpt>
      <trkpt lat="43.41697" lon="6.61123">
        <ele>257.60000610352</ele>
        <time>2019-05-04T11:35:25.000Z</time>
      </trkpt>
      <trkpt lat="43.41694" lon="6.61122">
        <ele>258</ele>
        <time>2019-05-04T11:35:28.000Z</time>
      </trkpt>
      <trkpt lat="43.41686" lon="6.61117">
        <ele>259</ele>
        <time>2019-05-04T11:35:35.000Z</time>
      </trkpt>
      <trkpt lat="43.41677" lon="6.61108">
        <ele>259.79998779297</ele>
        <time>2019-05-04T11:35:43.000Z</time>
      </trkpt>
      <trkpt lat="43.41675" lon="6.61101">
        <ele>260.20001220703</ele>
        <time>2019-05-04T11:35:47.000Z</time>
      </trkpt>
      <trkpt lat="43.41673" lon="6.61094">
        <ele>260.79998779297</ele>
        <time>2019-05-04T11:35:50.000Z</time>
      </trkpt>
      <trkpt lat="43.41672" lon="6.61087">
        <ele>261.39999389648</ele>
        <time>2019-05-04T11:35:53.000Z</time>
      </trkpt>
      <trkpt lat="43.41665" lon="6.61071">
        <ele>262.20001220703</ele>
        <time>2019-05-04T11:36:00.000Z</time>
      </trkpt>
      <trkpt lat="43.4166" lon="6.61068">
        <ele>262.60000610352</ele>
        <time>2019-05-04T11:36:03.000Z</time>
      </trkpt>
      <trkpt lat="43.41655" lon="6.61066">
        <ele>263.20001220703</ele>
        <time>2019-05-04T11:36:06.000Z</time>
      </trkpt>
      <trkpt lat="43.41653" lon="6.61066">
        <ele>263.60000610352</ele>
        <time>2019-05-04T11:36:07.000Z</time>
      </trkpt>
      <trkpt lat="43.41645" lon="6.61063">
        <ele>264.60000610352</ele>
        <time>2019-05-04T11:36:11.000Z</time>
      </trkpt>
      <trkpt lat="43.41644" lon="6.61063">
        <ele>264.79998779297</ele>
        <time>2019-05-04T11:36:12.000Z</time>
      </trkpt>
      <trkpt lat="43.41636" lon="6.61057">
        <ele>265.60000610352</ele>
        <time>2019-05-04T11:36:18.000Z</time>
      </trkpt>
      <trkpt lat="43.41632" lon="6.61053">
        <ele>266.20001220703</ele>
        <time>2019-05-04T11:36:21.000Z</time>
      </trkpt>
      <trkpt lat="43.41625" lon="6.61047">
        <ele>266.79998779297</ele>
        <time>2019-05-04T11:36:27.000Z</time>
      </trkpt>
      <trkpt lat="43.41624" lon="6.61046">
        <ele>267.20001220703</ele>
        <time>2019-05-04T11:36:28.000Z</time>
      </trkpt>
      <trkpt lat="43.41619" lon="6.6104">
        <ele>268</ele>
        <time>2019-05-04T11:36:34.000Z</time>
      </trkpt>
      <trkpt lat="43.41614" lon="6.61034">
        <ele>269.20001220703</ele>
        <time>2019-05-04T11:36:40.000Z</time>
      </trkpt>
      <trkpt lat="43.41612" lon="6.61032">
        <ele>269.39999389648</ele>
        <time>2019-05-04T11:36:41.000Z</time>
      </trkpt>
      <trkpt lat="43.41608" lon="6.61025">
        <ele>270.20001220703</ele>
        <time>2019-05-04T11:36:47.000Z</time>
      </trkpt>
      <trkpt lat="43.41608" lon="6.61023">
        <ele>270.39999389648</ele>
        <time>2019-05-04T11:36:48.000Z</time>
      </trkpt>
      <trkpt lat="43.41603" lon="6.61013">
        <ele>271.20001220703</ele>
        <time>2019-05-04T11:36:56.000Z</time>
      </trkpt>
      <trkpt lat="43.41597" lon="6.61006">
        <ele>272</ele>
        <time>2019-05-04T11:37:03.000Z</time>
      </trkpt>
      <trkpt lat="43.41592" lon="6.61006">
        <ele>272.39999389648</ele>
        <time>2019-05-04T11:37:08.000Z</time>
      </trkpt>
      <trkpt lat="43.41591" lon="6.61007">
        <ele>272.60000610352</ele>
        <time>2019-05-04T11:37:09.000Z</time>
      </trkpt>
      <trkpt lat="43.41587" lon="6.61016">
        <ele>273.60000610352</ele>
        <time>2019-05-04T11:37:15.000Z</time>
      </trkpt>
      <trkpt lat="43.41587" lon="6.61018">
        <ele>273.79998779297</ele>
        <time>2019-05-04T11:37:16.000Z</time>
      </trkpt>
      <trkpt lat="43.41584" lon="6.61029">
        <ele>274.60000610352</ele>
        <time>2019-05-04T11:37:23.000Z</time>
      </trkpt>
      <trkpt lat="43.41583" lon="6.61033">
        <ele>274.79998779297</ele>
        <time>2019-05-04T11:37:25.000Z</time>
      </trkpt>
      <trkpt lat="43.41579" lon="6.61042">
        <ele>275</ele>
        <time>2019-05-04T11:37:31.000Z</time>
      </trkpt>
      <trkpt lat="43.41573" lon="6.61045">
        <ele>275.79998779297</ele>
        <time>2019-05-04T11:37:36.000Z</time>
      </trkpt>
      <trkpt lat="43.41572" lon="6.61045">
        <ele>276.20001220703</ele>
        <time>2019-05-04T11:37:37.000Z</time>
      </trkpt>
      <trkpt lat="43.41568" lon="6.61045">
        <ele>276.79998779297</ele>
        <time>2019-05-04T11:37:40.000Z</time>
      </trkpt>
      <trkpt lat="43.41559" lon="6.61042">
        <ele>277.60000610352</ele>
        <time>2019-05-04T11:37:46.000Z</time>
      </trkpt>
      <trkpt lat="43.41555" lon="6.6104">
        <ele>278</ele>
        <time>2019-05-04T11:37:49.000Z</time>
      </trkpt>
      <trkpt lat="43.41546" lon="6.61039">
        <ele>278.20001220703</ele>
        <time>2019-05-04T11:37:53.000Z</time>
      </trkpt>
      <trkpt lat="43.41532" lon="6.61039">
        <ele>279</ele>
        <time>2019-05-04T11:38:00.000Z</time>
      </trkpt>
      <trkpt lat="43.4153" lon="6.61039">
        <ele>279.20001220703</ele>
        <time>2019-05-04T11:38:01.000Z</time>
      </trkpt>
      <trkpt lat="43.41519" lon="6.61034">
        <ele>279.60000610352</ele>
        <time>2019-05-04T11:38:08.000Z</time>
      </trkpt>
      <trkpt lat="43.41515" lon="6.6103">
        <ele>280.39999389648</ele>
        <time>2019-05-04T11:38:11.000Z</time>
      </trkpt>
      <trkpt lat="43.41509" lon="6.61024">
        <ele>281</ele>
        <time>2019-05-04T11:38:15.000Z</time>
      </trkpt>
      <trkpt lat="43.41502" lon="6.6102">
        <ele>281.39999389648</ele>
        <time>2019-05-04T11:38:20.000Z</time>
      </trkpt>
      <trkpt lat="43.41501" lon="6.6102">
        <ele>281.60000610352</ele>
        <time>2019-05-04T11:38:21.000Z</time>
      </trkpt>
      <trkpt lat="43.41494" lon="6.61019">
        <ele>282.20001220703</ele>
        <time>2019-05-04T11:38:26.000Z</time>
      </trkpt>
      <trkpt lat="43.41488" lon="6.61021">
        <ele>282.60000610352</ele>
        <time>2019-05-04T11:38:30.000Z</time>
      </trkpt>
      <trkpt lat="43.41482" lon="6.61023">
        <ele>283</ele>
        <time>2019-05-04T11:38:34.000Z</time>
      </trkpt>
      <trkpt lat="43.41473" lon="6.61025">
        <ele>283.60000610352</ele>
        <time>2019-05-04T11:38:40.000Z</time>
      </trkpt>
      <trkpt lat="43.4147" lon="6.61025">
        <ele>284</ele>
        <time>2019-05-04T11:38:42.000Z</time>
      </trkpt>
      <trkpt lat="43.41463" lon="6.61025">
        <ele>284.60000610352</ele>
        <time>2019-05-04T11:38:46.000Z</time>
      </trkpt>
      <trkpt lat="43.41457" lon="6.61023">
        <ele>285.20001220703</ele>
        <time>2019-05-04T11:38:49.000Z</time>
      </trkpt>
      <trkpt lat="43.41445" lon="6.61019">
        <ele>285.39999389648</ele>
        <time>2019-05-04T11:38:56.000Z</time>
      </trkpt>
      <trkpt lat="43.41438" lon="6.61016">
        <ele>285.79998779297</ele>
        <time>2019-05-04T11:39:00.000Z</time>
      </trkpt>
      <trkpt lat="43.41432" lon="6.61015">
        <ele>286.20001220703</ele>
        <time>2019-05-04T11:39:03.000Z</time>
      </trkpt>
      <trkpt lat="43.41419" lon="6.61011">
        <ele>286.79998779297</ele>
        <time>2019-05-04T11:39:10.000Z</time>
      </trkpt>
      <trkpt lat="43.41415" lon="6.6101">
        <ele>287.39999389648</ele>
        <time>2019-05-04T11:39:12.000Z</time>
      </trkpt>
      <trkpt lat="43.41399" lon="6.61006">
        <ele>287.79998779297</ele>
        <time>2019-05-04T11:39:19.000Z</time>
      </trkpt>
      <trkpt lat="43.41393" lon="6.61004">
        <ele>288.20001220703</ele>
        <time>2019-05-04T11:39:22.000Z</time>
      </trkpt>
      <trkpt lat="43.41376" lon="6.60999">
        <ele>289</ele>
        <time>2019-05-04T11:39:30.000Z</time>
      </trkpt>
      <trkpt lat="43.41373" lon="6.60998">
        <ele>289</ele>
        <time>2019-05-04T11:39:31.000Z</time>
      </trkpt>
      <trkpt lat="43.41356" lon="6.60987">
        <ele>289</ele>
        <time>2019-05-04T11:39:38.000Z</time>
      </trkpt>
      <trkpt lat="43.41337" lon="6.60976">
        <ele>289.79998779297</ele>
        <time>2019-05-04T11:39:46.000Z</time>
      </trkpt>
      <trkpt lat="43.41323" lon="6.60966">
        <ele>290</ele>
        <time>2019-05-04T11:39:53.000Z</time>
      </trkpt>
      <trkpt lat="43.4132" lon="6.60963">
        <ele>290.20001220703</ele>
        <time>2019-05-04T11:39:55.000Z</time>
      </trkpt>
      <trkpt lat="43.41313" lon="6.60955">
        <ele>291.20001220703</ele>
        <time>2019-05-04T11:40:00.000Z</time>
      </trkpt>
      <trkpt lat="43.4131" lon="6.60951">
        <ele>291.60000610352</ele>
        <time>2019-05-04T11:40:02.000Z</time>
      </trkpt>
      <trkpt lat="43.413" lon="6.60937">
        <ele>292</ele>
        <time>2019-05-04T11:40:10.000Z</time>
      </trkpt>
      <trkpt lat="43.41298" lon="6.60933">
        <ele>292.39999389648</ele>
        <time>2019-05-04T11:40:12.000Z</time>
      </trkpt>
      <trkpt lat="43.4129" lon="6.60923">
        <ele>293.20001220703</ele>
        <time>2019-05-04T11:40:18.000Z</time>
      </trkpt>
      <trkpt lat="43.41288" lon="6.60919">
        <ele>293.39999389648</ele>
        <time>2019-05-04T11:40:20.000Z</time>
      </trkpt>
      <trkpt lat="43.41281" lon="6.60904">
        <ele>293.60000610352</ele>
        <time>2019-05-04T11:40:26.000Z</time>
      </trkpt>
      <trkpt lat="43.41275" lon="6.60894">
        <ele>294.39999389648</ele>
        <time>2019-05-04T11:40:31.000Z</time>
      </trkpt>
      <trkpt lat="43.41271" lon="6.6089">
        <ele>295.20001220703</ele>
        <time>2019-05-04T11:40:34.000Z</time>
      </trkpt>
      <trkpt lat="43.41268" lon="6.60887">
        <ele>295.60000610352</ele>
        <time>2019-05-04T11:40:36.000Z</time>
      </trkpt>
      <trkpt lat="43.41261" lon="6.60881">
        <ele>296.39999389648</ele>
        <time>2019-05-04T11:40:40.000Z</time>
      </trkpt>
      <trkpt lat="43.41259" lon="6.6088">
        <ele>296.79998779297</ele>
        <time>2019-05-04T11:40:41.000Z</time>
      </trkpt>
      <trkpt lat="43.41247" lon="6.60876">
        <ele>297.79998779297</ele>
        <time>2019-05-04T11:40:48.000Z</time>
      </trkpt>
      <trkpt lat="43.41239" lon="6.60876">
        <ele>298.79998779297</ele>
        <time>2019-05-04T11:40:54.000Z</time>
      </trkpt>
      <trkpt lat="43.41235" lon="6.60876">
        <ele>299</ele>
        <time>2019-05-04T11:40:56.000Z</time>
      </trkpt>
      <trkpt lat="43.41225" lon="6.60871">
        <ele>299.79998779297</ele>
        <time>2019-05-04T11:41:04.000Z</time>
      </trkpt>
      <trkpt lat="43.41219" lon="6.60868">
        <ele>301</ele>
        <time>2019-05-04T11:41:08.000Z</time>
      </trkpt>
      <trkpt lat="43.41217" lon="6.60865">
        <ele>301.39999389648</ele>
        <time>2019-05-04T11:41:10.000Z</time>
      </trkpt>
      <trkpt lat="43.41214" lon="6.6086">
        <ele>302.20001220703</ele>
        <time>2019-05-04T11:41:13.000Z</time>
      </trkpt>
      <trkpt lat="43.41208" lon="6.60854">
        <ele>302.60000610352</ele>
        <time>2019-05-04T11:41:17.000Z</time>
      </trkpt>
      <trkpt lat="43.41199" lon="6.60846">
        <ele>303.20001220703</ele>
        <time>2019-05-04T11:41:24.000Z</time>
      </trkpt>
      <trkpt lat="43.41189" lon="6.60841">
        <ele>304.39999389648</ele>
        <time>2019-05-04T11:41:31.000Z</time>
      </trkpt>
      <trkpt lat="43.41188" lon="6.60841">
        <ele>304.60000610352</ele>
        <time>2019-05-04T11:41:32.000Z</time>
      </trkpt>
      <trkpt lat="43.41177" lon="6.60836">
        <ele>305.60000610352</ele>
        <time>2019-05-04T11:41:39.000Z</time>
      </trkpt>
      <trkpt lat="43.41176" lon="6.60835">
        <ele>305.79998779297</ele>
        <time>2019-05-04T11:41:40.000Z</time>
      </trkpt>
      <trkpt lat="43.41172" lon="6.6083">
        <ele>306.60000610352</ele>
        <time>2019-05-04T11:41:43.000Z</time>
      </trkpt>
      <trkpt lat="43.41167" lon="6.60824">
        <ele>307</ele>
        <time>2019-05-04T11:41:47.000Z</time>
      </trkpt>
      <trkpt lat="43.41161" lon="6.60819">
        <ele>307.79998779297</ele>
        <time>2019-05-04T11:41:52.000Z</time>
      </trkpt>
      <trkpt lat="43.41158" lon="6.60819">
        <ele>307.79998779297</ele>
        <time>2019-05-04T11:41:54.000Z</time>
      </trkpt>
      <trkpt lat="43.41155" lon="6.60824">
        <ele>308.20001220703</ele>
        <time>2019-05-04T11:41:57.000Z</time>
      </trkpt>
      <trkpt lat="43.41154" lon="6.60832">
        <ele>308.79998779297</ele>
        <time>2019-05-04T11:42:00.000Z</time>
      </trkpt>
      <trkpt lat="43.41155" lon="6.60837">
        <ele>309.39999389648</ele>
        <time>2019-05-04T11:42:02.000Z</time>
      </trkpt>
      <trkpt lat="43.41157" lon="6.60842">
        <ele>309.60000610352</ele>
        <time>2019-05-04T11:42:04.000Z</time>
      </trkpt>
      <trkpt lat="43.41158" lon="6.60847">
        <ele>310</ele>
        <time>2019-05-04T11:42:06.000Z</time>
      </trkpt>
      <trkpt lat="43.4116" lon="6.60856">
        <ele>310.20001220703</ele>
        <time>2019-05-04T11:42:09.000Z</time>
      </trkpt>
      <trkpt lat="43.41165" lon="6.60872">
        <ele>311</ele>
        <time>2019-05-04T11:42:16.000Z</time>
      </trkpt>
      <trkpt lat="43.41167" lon="6.60876">
        <ele>311.20001220703</ele>
        <time>2019-05-04T11:42:18.000Z</time>
      </trkpt>
      <trkpt lat="43.41171" lon="6.60883">
        <ele>312</ele>
        <time>2019-05-04T11:42:22.000Z</time>
      </trkpt>
      <trkpt lat="43.41173" lon="6.6089">
        <ele>312.20001220703</ele>
        <time>2019-05-04T11:42:25.000Z</time>
      </trkpt>
      <trkpt lat="43.41181" lon="6.60907">
        <ele>313</ele>
        <time>2019-05-04T11:42:33.000Z</time>
      </trkpt>
      <trkpt lat="43.41182" lon="6.60909">
        <ele>313.20001220703</ele>
        <time>2019-05-04T11:42:34.000Z</time>
      </trkpt>
      <trkpt lat="43.4119" lon="6.6092">
        <ele>314</ele>
        <time>2019-05-04T11:42:40.000Z</time>
      </trkpt>
      <trkpt lat="43.41191" lon="6.60921">
        <ele>314.20001220703</ele>
        <time>2019-05-04T11:42:41.000Z</time>
      </trkpt>
      <trkpt lat="43.41199" lon="6.60932">
        <ele>314.60000610352</ele>
        <time>2019-05-04T11:42:46.000Z</time>
      </trkpt>
      <trkpt lat="43.41205" lon="6.60945">
        <ele>315</ele>
        <time>2019-05-04T11:42:52.000Z</time>
      </trkpt>
      <trkpt lat="43.41207" lon="6.60947">
        <ele>315.20001220703</ele>
        <time>2019-05-04T11:42:53.000Z</time>
      </trkpt>
      <trkpt lat="43.41215" lon="6.60962">
        <ele>315.79998779297</ele>
        <time>2019-05-04T11:42:59.000Z</time>
      </trkpt>
      <trkpt lat="43.41221" lon="6.60976">
        <ele>316.20001220703</ele>
        <time>2019-05-04T11:43:04.000Z</time>
      </trkpt>
      <trkpt lat="43.41222" lon="6.60978">
        <ele>316.20001220703</ele>
        <time>2019-05-04T11:43:05.000Z</time>
      </trkpt>
      <trkpt lat="43.41231" lon="6.60997">
        <ele>317.20001220703</ele>
        <time>2019-05-04T11:43:12.000Z</time>
      </trkpt>
      <trkpt lat="43.41233" lon="6.60999">
        <ele>317.20001220703</ele>
        <time>2019-05-04T11:43:13.000Z</time>
      </trkpt>
      <trkpt lat="43.41238" lon="6.61011">
        <ele>317.79998779297</ele>
        <time>2019-05-04T11:43:17.000Z</time>
      </trkpt>
      <trkpt lat="43.41242" lon="6.61019">
        <ele>318.39999389648</ele>
        <time>2019-05-04T11:43:20.000Z</time>
      </trkpt>
      <trkpt lat="43.41249" lon="6.61033">
        <ele>319.20001220703</ele>
        <time>2019-05-04T11:43:26.000Z</time>
      </trkpt>
      <trkpt lat="43.41251" lon="6.61038">
        <ele>319.60000610352</ele>
        <time>2019-05-04T11:43:28.000Z</time>
      </trkpt>
      <trkpt lat="43.41257" lon="6.61053">
        <ele>320.39999389648</ele>
        <time>2019-05-04T11:43:35.000Z</time>
      </trkpt>
      <trkpt lat="43.41258" lon="6.61056">
        <ele>320.60000610352</ele>
        <time>2019-05-04T11:43:36.000Z</time>
      </trkpt>
      <trkpt lat="43.41265" lon="6.61075">
        <ele>321.60000610352</ele>
        <time>2019-05-04T11:43:43.000Z</time>
      </trkpt>
      <trkpt lat="43.41263" lon="6.61085">
        <ele>321.79998779297</ele>
        <time>2019-05-04T11:43:46.000Z</time>
      </trkpt>
      <trkpt lat="43.4126" lon="6.61089">
        <ele>321.79998779297</ele>
        <time>2019-05-04T11:43:48.000Z</time>
      </trkpt>
      <trkpt lat="43.41251" lon="6.61089">
        <ele>322.79998779297</ele>
        <time>2019-05-04T11:43:53.000Z</time>
      </trkpt>
      <trkpt lat="43.41249" lon="6.61087">
        <ele>323</ele>
        <time>2019-05-04T11:43:54.000Z</time>
      </trkpt>
      <trkpt lat="43.41248" lon="6.61086">
        <ele>322.79998779297</ele>
        <time>2019-05-04T11:43:55.000Z</time>
      </trkpt>
      <trkpt lat="43.41236" lon="6.61077">
        <ele>323.20001220703</ele>
        <time>2019-05-04T11:44:02.000Z</time>
      </trkpt>
      <trkpt lat="43.41231" lon="6.61074">
        <ele>324</ele>
        <time>2019-05-04T11:44:05.000Z</time>
      </trkpt>
      <trkpt lat="43.41224" lon="6.61071">
        <ele>325.20001220703</ele>
        <time>2019-05-04T11:44:10.000Z</time>
      </trkpt>
      <trkpt lat="43.41222" lon="6.61071">
        <ele>325.39999389648</ele>
        <time>2019-05-04T11:44:11.000Z</time>
      </trkpt>
      <trkpt lat="43.4121" lon="6.61069">
        <ele>326.20001220703</ele>
        <time>2019-05-04T11:44:19.000Z</time>
      </trkpt>
      <trkpt lat="43.41208" lon="6.61069">
        <ele>326.39999389648</ele>
        <time>2019-05-04T11:44:20.000Z</time>
      </trkpt>
      <trkpt lat="43.41197" lon="6.6107">
        <ele>327.20001220703</ele>
        <time>2019-05-04T11:44:26.000Z</time>
      </trkpt>
      <trkpt lat="43.41195" lon="6.6107">
        <ele>327.39999389648</ele>
        <time>2019-05-04T11:44:27.000Z</time>
      </trkpt>
      <trkpt lat="43.41182" lon="6.61069">
        <ele>328</ele>
        <time>2019-05-04T11:44:35.000Z</time>
      </trkpt>
      <trkpt lat="43.41177" lon="6.61068">
        <ele>328.39999389648</ele>
        <time>2019-05-04T11:44:38.000Z</time>
      </trkpt>
      <trkpt lat="43.41168" lon="6.61066">
        <ele>329.39999389648</ele>
        <time>2019-05-04T11:44:43.000Z</time>
      </trkpt>
      <trkpt lat="43.41155" lon="6.61063">
        <ele>330.39999389648</ele>
        <time>2019-05-04T11:44:50.000Z</time>
      </trkpt>
      <trkpt lat="43.41151" lon="6.61062">
        <ele>330.39999389648</ele>
        <time>2019-05-04T11:44:52.000Z</time>
      </trkpt>
      <trkpt lat="43.41138" lon="6.61059">
        <ele>330.20001220703</ele>
        <time>2019-05-04T11:44:59.000Z</time>
      </trkpt>
      <trkpt lat="43.41122" lon="6.61055">
        <ele>331.20001220703</ele>
        <time>2019-05-04T11:45:08.000Z</time>
      </trkpt>
      <trkpt lat="43.41119" lon="6.61053">
        <ele>331.60000610352</ele>
        <time>2019-05-04T11:45:10.000Z</time>
      </trkpt>
      <trkpt lat="43.41105" lon="6.61044">
        <ele>331.79998779297</ele>
        <time>2019-05-04T11:45:18.000Z</time>
      </trkpt>
      <trkpt lat="43.41095" lon="6.61035">
        <ele>332.60000610352</ele>
        <time>2019-05-04T11:45:24.000Z</time>
      </trkpt>
      <trkpt lat="43.41089" lon="6.61031">
        <ele>332.79998779297</ele>
        <time>2019-05-04T11:45:27.000Z</time>
      </trkpt>
      <trkpt lat="43.4108" lon="6.61012">
        <ele>333</ele>
        <time>2019-05-04T11:45:34.000Z</time>
      </trkpt>
      <trkpt lat="43.41073" lon="6.60989">
        <ele>333.60000610352</ele>
        <time>2019-05-04T11:45:41.000Z</time>
      </trkpt>
      <trkpt lat="43.41069" lon="6.60971">
        <ele>333.79998779297</ele>
        <time>2019-05-04T11:45:46.000Z</time>
      </trkpt>
      <trkpt lat="43.41067" lon="6.60955">
        <ele>334.20001220703</ele>
        <time>2019-05-04T11:45:50.000Z</time>
      </trkpt>
      <trkpt lat="43.41064" lon="6.60932">
        <ele>334.79998779297</ele>
        <time>2019-05-04T11:45:56.000Z</time>
      </trkpt>
      <trkpt lat="43.41063" lon="6.60921">
        <ele>335.20001220703</ele>
        <time>2019-05-04T11:45:59.000Z</time>
      </trkpt>
      <trkpt lat="43.41061" lon="6.60908">
        <ele>335.79998779297</ele>
        <time>2019-05-04T11:46:03.000Z</time>
      </trkpt>
      <trkpt lat="43.41057" lon="6.60891">
        <ele>336.20001220703</ele>
        <time>2019-05-04T11:46:08.000Z</time>
      </trkpt>
      <trkpt lat="43.41053" lon="6.60877">
        <ele>336.79998779297</ele>
        <time>2019-05-04T11:46:12.000Z</time>
      </trkpt>
      <trkpt lat="43.41049" lon="6.60868">
        <ele>337</ele>
        <time>2019-05-04T11:46:15.000Z</time>
      </trkpt>
      <trkpt lat="43.41036" lon="6.60841">
        <ele>337.79998779297</ele>
        <time>2019-05-04T11:46:24.000Z</time>
      </trkpt>
      <trkpt lat="43.41035" lon="6.60837">
        <ele>338</ele>
        <time>2019-05-04T11:46:25.000Z</time>
      </trkpt>
      <trkpt lat="43.41024" lon="6.60819">
        <ele>338.39999389648</ele>
        <time>2019-05-04T11:46:31.000Z</time>
      </trkpt>
      <trkpt lat="43.41012" lon="6.60806">
        <ele>339</ele>
        <time>2019-05-04T11:46:36.000Z</time>
      </trkpt>
      <trkpt lat="43.41008" lon="6.60803">
        <ele>339.60000610352</ele>
        <time>2019-05-04T11:46:38.000Z</time>
      </trkpt>
      <trkpt lat="43.41" lon="6.60798">
        <ele>340</ele>
        <time>2019-05-04T11:46:41.000Z</time>
      </trkpt>
      <trkpt lat="43.4099" lon="6.60794">
        <ele>340.79998779297</ele>
        <time>2019-05-04T11:46:45.000Z</time>
      </trkpt>
      <trkpt lat="43.40972" lon="6.60786">
        <ele>341.20001220703</ele>
        <time>2019-05-04T11:46:52.000Z</time>
      </trkpt>
      <trkpt lat="43.40969" lon="6.60784">
        <ele>341.39999389648</ele>
        <time>2019-05-04T11:46:53.000Z</time>
      </trkpt>
      <trkpt lat="43.40951" lon="6.60764">
        <ele>342</ele>
        <time>2019-05-04T11:47:01.000Z</time>
      </trkpt>
      <trkpt lat="43.40944" lon="6.6076">
        <ele>342.39999389648</ele>
        <time>2019-05-04T11:47:04.000Z</time>
      </trkpt>
      <trkpt lat="43.40938" lon="6.60759">
        <ele>342.60000610352</ele>
        <time>2019-05-04T11:47:06.000Z</time>
      </trkpt>
      <trkpt lat="43.40923" lon="6.60766">
        <ele>342.79998779297</ele>
        <time>2019-05-04T11:47:11.000Z</time>
      </trkpt>
      <trkpt lat="43.40904" lon="6.6078">
        <ele>342</ele>
        <time>2019-05-04T11:47:17.000Z</time>
      </trkpt>
      <trkpt lat="43.40881" lon="6.60791">
        <ele>341.79998779297</ele>
        <time>2019-05-04T11:47:24.000Z</time>
      </trkpt>
      <trkpt lat="43.40854" lon="6.60794">
        <ele>341.79998779297</ele>
        <time>2019-05-04T11:47:31.000Z</time>
      </trkpt>
      <trkpt lat="43.40837" lon="6.60784">
        <ele>341.79998779297</ele>
        <time>2019-05-04T11:47:36.000Z</time>
      </trkpt>
      <trkpt lat="43.40815" lon="6.60762">
        <ele>342</ele>
        <time>2019-05-04T11:47:43.000Z</time>
      </trkpt>
      <trkpt lat="43.40808" lon="6.60757">
        <ele>342</ele>
        <time>2019-05-04T11:47:45.000Z</time>
      </trkpt>
      <trkpt lat="43.40784" lon="6.60738">
        <ele>341.39999389648</ele>
        <time>2019-05-04T11:47:52.000Z</time>
      </trkpt>
      <trkpt lat="43.40779" lon="6.60729">
        <ele>341.20001220703</ele>
        <time>2019-05-04T11:47:54.000Z</time>
      </trkpt>
      <trkpt lat="43.40773" lon="6.60721">
        <ele>341.20001220703</ele>
        <time>2019-05-04T11:47:56.000Z</time>
      </trkpt>
      <trkpt lat="43.40766" lon="6.60714">
        <ele>341</ele>
        <time>2019-05-04T11:47:58.000Z</time>
      </trkpt>
      <trkpt lat="43.40755" lon="6.60709">
        <ele>341</ele>
        <time>2019-05-04T11:48:01.000Z</time>
      </trkpt>
      <trkpt lat="43.40747" lon="6.60706">
        <ele>341</ele>
        <time>2019-05-04T11:48:03.000Z</time>
      </trkpt>
      <trkpt lat="43.40717" lon="6.60698">
        <ele>341.60000610352</ele>
        <time>2019-05-04T11:48:11.000Z</time>
      </trkpt>
      <trkpt lat="43.40707" lon="6.60695">
        <ele>342.39999389648</ele>
        <time>2019-05-04T11:48:14.000Z</time>
      </trkpt>
      <trkpt lat="43.40696" lon="6.60692">
        <ele>343</ele>
        <time>2019-05-04T11:48:18.000Z</time>
      </trkpt>
      <trkpt lat="43.40687" lon="6.6069">
        <ele>343.60000610352</ele>
        <time>2019-05-04T11:48:22.000Z</time>
      </trkpt>
      <trkpt lat="43.40679" lon="6.60688">
        <ele>344.39999389648</ele>
        <time>2019-05-04T11:48:25.000Z</time>
      </trkpt>
      <trkpt lat="43.40673" lon="6.60685">
        <ele>344.79998779297</ele>
        <time>2019-05-04T11:48:28.000Z</time>
      </trkpt>
      <trkpt lat="43.40665" lon="6.60678">
        <ele>345</ele>
        <time>2019-05-04T11:48:32.000Z</time>
      </trkpt>
      <trkpt lat="43.40647" lon="6.60661">
        <ele>345.39999389648</ele>
        <time>2019-05-04T11:48:41.000Z</time>
      </trkpt>
      <trkpt lat="43.40642" lon="6.60659">
        <ele>346</ele>
        <time>2019-05-04T11:48:43.000Z</time>
      </trkpt>
      <trkpt lat="43.40633" lon="6.60662">
        <ele>346.20001220703</ele>
        <time>2019-05-04T11:48:47.000Z</time>
      </trkpt>
      <trkpt lat="43.4063" lon="6.60668">
        <ele>346.20001220703</ele>
        <time>2019-05-04T11:48:49.000Z</time>
      </trkpt>
      <trkpt lat="43.40631" lon="6.60675">
        <ele>346.60000610352</ele>
        <time>2019-05-04T11:48:51.000Z</time>
      </trkpt>
      <trkpt lat="43.40637" lon="6.60686">
        <ele>346.79998779297</ele>
        <time>2019-05-04T11:48:55.000Z</time>
      </trkpt>
      <trkpt lat="43.4064" lon="6.60689">
        <ele>346.79998779297</ele>
        <time>2019-05-04T11:48:56.000Z</time>
      </trkpt>
      <trkpt lat="43.40642" lon="6.60691">
        <ele>347</ele>
        <time>2019-05-04T11:48:57.000Z</time>
      </trkpt>
      <trkpt lat="43.40656" lon="6.60706">
        <ele>347.39999389648</ele>
        <time>2019-05-04T11:49:03.000Z</time>
      </trkpt>
      <trkpt lat="43.40676" lon="6.60724">
        <ele>347.20001220703</ele>
        <time>2019-05-04T11:49:10.000Z</time>
      </trkpt>
      <trkpt lat="43.40701" lon="6.60749">
        <ele>346.60000610352</ele>
        <time>2019-05-04T11:49:17.000Z</time>
      </trkpt>
      <trkpt lat="43.40724" lon="6.60771">
        <ele>345.79998779297</ele>
        <time>2019-05-04T11:49:23.000Z</time>
      </trkpt>
      <trkpt lat="43.40727" lon="6.60777">
        <ele>345.60000610352</ele>
        <time>2019-05-04T11:49:24.000Z</time>
      </trkpt>
      <trkpt lat="43.40734" lon="6.60801">
        <ele>344.79998779297</ele>
        <time>2019-05-04T11:49:28.000Z</time>
      </trkpt>
      <trkpt lat="43.40735" lon="6.60807">
        <ele>344.60000610352</ele>
        <time>2019-05-04T11:49:29.000Z</time>
      </trkpt>
      <trkpt lat="43.40741" lon="6.60844">
        <ele>344.20001220703</ele>
        <time>2019-05-04T11:49:36.000Z</time>
      </trkpt>
      <trkpt lat="43.40744" lon="6.60876">
        <ele>344.79998779297</ele>
        <time>2019-05-04T11:49:43.000Z</time>
      </trkpt>
      <trkpt lat="43.40747" lon="6.60901">
        <ele>345.79998779297</ele>
        <time>2019-05-04T11:49:49.000Z</time>
      </trkpt>
      <trkpt lat="43.4075" lon="6.60911">
        <ele>345.79998779297</ele>
        <time>2019-05-04T11:49:52.000Z</time>
      </trkpt>
      <trkpt lat="43.40763" lon="6.60933">
        <ele>346.79998779297</ele>
        <time>2019-05-04T11:49:59.000Z</time>
      </trkpt>
      <trkpt lat="43.40765" lon="6.60936">
        <ele>346.79998779297</ele>
        <time>2019-05-04T11:50:00.000Z</time>
      </trkpt>
      <trkpt lat="43.4078" lon="6.60959">
        <ele>347.20001220703</ele>
        <time>2019-05-04T11:50:07.000Z</time>
      </trkpt>
      <trkpt lat="43.40778" lon="6.60976">
        <ele>347.20001220703</ele>
        <time>2019-05-04T11:50:11.000Z</time>
      </trkpt>
      <trkpt lat="43.40768" lon="6.60979">
        <ele>347.20001220703</ele>
        <time>2019-05-04T11:50:14.000Z</time>
      </trkpt>
      <trkpt lat="43.40761" lon="6.60977">
        <ele>347.20001220703</ele>
        <time>2019-05-04T11:50:16.000Z</time>
      </trkpt>
      <trkpt lat="43.40749" lon="6.60973">
        <ele>346.60000610352</ele>
        <time>2019-05-04T11:50:19.000Z</time>
      </trkpt>
      <trkpt lat="43.40724" lon="6.6096">
        <ele>346.79998779297</ele>
        <time>2019-05-04T11:50:26.000Z</time>
      </trkpt>
      <trkpt lat="43.40718" lon="6.60958">
        <ele>347</ele>
        <time>2019-05-04T11:50:28.000Z</time>
      </trkpt>
      <trkpt lat="43.40715" lon="6.6096">
        <ele>347</ele>
        <time>2019-05-04T11:50:29.000Z</time>
      </trkpt>
      <trkpt lat="43.40711" lon="6.60971">
        <ele>347.20001220703</ele>
        <time>2019-05-04T11:50:33.000Z</time>
      </trkpt>
      <trkpt lat="43.40715" lon="6.60984">
        <ele>347.60000610352</ele>
        <time>2019-05-04T11:50:37.000Z</time>
      </trkpt>
      <trkpt lat="43.40715" lon="6.60987">
        <ele>348</ele>
        <time>2019-05-04T11:50:38.000Z</time>
      </trkpt>
      <trkpt lat="43.40715" lon="6.6101">
        <ele>348.79998779297</ele>
        <time>2019-05-04T11:50:44.000Z</time>
      </trkpt>
      <trkpt lat="43.40703" lon="6.61024">
        <ele>348.79998779297</ele>
        <time>2019-05-04T11:50:49.000Z</time>
      </trkpt>
      <trkpt lat="43.40699" lon="6.6103">
        <ele>349</ele>
        <time>2019-05-04T11:50:51.000Z</time>
      </trkpt>
      <trkpt lat="43.40695" lon="6.61043">
        <ele>349.20001220703</ele>
        <time>2019-05-04T11:50:54.000Z</time>
      </trkpt>
      <trkpt lat="43.40692" lon="6.61068">
        <ele>350</ele>
        <time>2019-05-04T11:51:00.000Z</time>
      </trkpt>
      <trkpt lat="43.40691" lon="6.61072">
        <ele>350.39999389648</ele>
        <time>2019-05-04T11:51:01.000Z</time>
      </trkpt>
      <trkpt lat="43.40691" lon="6.61091">
        <ele>351.20001220703</ele>
        <time>2019-05-04T11:51:06.000Z</time>
      </trkpt>
      <trkpt lat="43.40692" lon="6.61098">
        <ele>351.20001220703</ele>
        <time>2019-05-04T11:51:08.000Z</time>
      </trkpt>
      <trkpt lat="43.407" lon="6.61119">
        <ele>352.39999389648</ele>
        <time>2019-05-04T11:51:14.000Z</time>
      </trkpt>
      <trkpt lat="43.40701" lon="6.61122">
        <ele>352.39999389648</ele>
        <time>2019-05-04T11:51:15.000Z</time>
      </trkpt>
      <trkpt lat="43.40707" lon="6.61145">
        <ele>353.39999389648</ele>
        <time>2019-05-04T11:51:21.000Z</time>
      </trkpt>
      <trkpt lat="43.40709" lon="6.61152">
        <ele>353.60000610352</ele>
        <time>2019-05-04T11:51:23.000Z</time>
      </trkpt>
      <trkpt lat="43.40712" lon="6.61168">
        <ele>354</ele>
        <time>2019-05-04T11:51:28.000Z</time>
      </trkpt>
      <trkpt lat="43.40714" lon="6.61175">
        <ele>354.39999389648</ele>
        <time>2019-05-04T11:51:30.000Z</time>
      </trkpt>
      <trkpt lat="43.40716" lon="6.61194">
        <ele>355</ele>
        <time>2019-05-04T11:51:35.000Z</time>
      </trkpt>
      <trkpt lat="43.40715" lon="6.61212">
        <ele>355.60000610352</ele>
        <time>2019-05-04T11:51:40.000Z</time>
      </trkpt>
      <trkpt lat="43.40713" lon="6.61219">
        <ele>355.79998779297</ele>
        <time>2019-05-04T11:51:42.000Z</time>
      </trkpt>
      <trkpt lat="43.40701" lon="6.61237">
        <ele>356.20001220703</ele>
        <time>2019-05-04T11:51:49.000Z</time>
      </trkpt>
      <trkpt lat="43.40696" lon="6.6124">
        <ele>356.60000610352</ele>
        <time>2019-05-04T11:51:51.000Z</time>
      </trkpt>
      <trkpt lat="43.40688" lon="6.61244">
        <ele>357</ele>
        <time>2019-05-04T11:51:55.000Z</time>
      </trkpt>
      <trkpt lat="43.40676" lon="6.61246">
        <ele>357.60000610352</ele>
        <time>2019-05-04T11:52:01.000Z</time>
      </trkpt>
      <trkpt lat="43.40671" lon="6.61246">
        <ele>357.79998779297</ele>
        <time>2019-05-04T11:52:03.000Z</time>
      </trkpt>
      <trkpt lat="43.40658" lon="6.61242">
        <ele>358.60000610352</ele>
        <time>2019-05-04T11:52:09.000Z</time>
      </trkpt>
      <trkpt lat="43.40654" lon="6.61242">
        <ele>358.79998779297</ele>
        <time>2019-05-04T11:52:11.000Z</time>
      </trkpt>
      <trkpt lat="43.40641" lon="6.61241">
        <ele>359.39999389648</ele>
        <time>2019-05-04T11:52:16.000Z</time>
      </trkpt>
      <trkpt lat="43.4063" lon="6.61244">
        <ele>360</ele>
        <time>2019-05-04T11:52:21.000Z</time>
      </trkpt>
      <trkpt lat="43.40622" lon="6.61249">
        <ele>360.60000610352</ele>
        <time>2019-05-04T11:52:25.000Z</time>
      </trkpt>
      <trkpt lat="43.40618" lon="6.61253">
        <ele>361.20001220703</ele>
        <time>2019-05-04T11:52:27.000Z</time>
      </trkpt>
      <trkpt lat="43.40607" lon="6.61262">
        <ele>361.79998779297</ele>
        <time>2019-05-04T11:52:32.000Z</time>
      </trkpt>
      <trkpt lat="43.40596" lon="6.61269">
        <ele>361.60000610352</ele>
        <time>2019-05-04T11:52:37.000Z</time>
      </trkpt>
      <trkpt lat="43.40589" lon="6.6127">
        <ele>361.79998779297</ele>
        <time>2019-05-04T11:52:40.000Z</time>
      </trkpt>
      <trkpt lat="43.40582" lon="6.61271">
        <ele>362.20001220703</ele>
        <time>2019-05-04T11:52:43.000Z</time>
      </trkpt>
      <trkpt lat="43.40572" lon="6.61269">
        <ele>362.39999389648</ele>
        <time>2019-05-04T11:52:47.000Z</time>
      </trkpt>
      <trkpt lat="43.40554" lon="6.61261">
        <ele>362.79998779297</ele>
        <time>2019-05-04T11:52:55.000Z</time>
      </trkpt>
      <trkpt lat="43.40538" lon="6.61249">
        <ele>362.79998779297</ele>
        <time>2019-05-04T11:53:02.000Z</time>
      </trkpt>
      <trkpt lat="43.40532" lon="6.61243">
        <ele>363.39999389648</ele>
        <time>2019-05-04T11:53:05.000Z</time>
      </trkpt>
      <trkpt lat="43.40525" lon="6.6123">
        <ele>363.79998779297</ele>
        <time>2019-05-04T11:53:10.000Z</time>
      </trkpt>
      <trkpt lat="43.40514" lon="6.6122">
        <ele>364.39999389648</ele>
        <time>2019-05-04T11:53:15.000Z</time>
      </trkpt>
      <trkpt lat="43.40512" lon="6.6122">
        <ele>364.39999389648</ele>
        <time>2019-05-04T11:53:16.000Z</time>
      </trkpt>
      <trkpt lat="43.405" lon="6.61219">
        <ele>365.60000610352</ele>
        <time>2019-05-04T11:53:21.000Z</time>
      </trkpt>
      <trkpt lat="43.40486" lon="6.61212">
        <ele>366.60000610352</ele>
        <time>2019-05-04T11:53:28.000Z</time>
      </trkpt>
      <trkpt lat="43.40484" lon="6.6121">
        <ele>366.79998779297</ele>
        <time>2019-05-04T11:53:29.000Z</time>
      </trkpt>
      <trkpt lat="43.4047" lon="6.61196">
        <ele>367.39999389648</ele>
        <time>2019-05-04T11:53:36.000Z</time>
      </trkpt>
      <trkpt lat="43.40466" lon="6.61192">
        <ele>367.60000610352</ele>
        <time>2019-05-04T11:53:38.000Z</time>
      </trkpt>
      <trkpt lat="43.40456" lon="6.61189">
        <ele>368.20001220703</ele>
        <time>2019-05-04T11:53:42.000Z</time>
      </trkpt>
      <trkpt lat="43.40453" lon="6.61193">
        <ele>368.20001220703</ele>
        <time>2019-05-04T11:53:44.000Z</time>
      </trkpt>
      <trkpt lat="43.40452" lon="6.61198">
        <ele>368.20001220703</ele>
        <time>2019-05-04T11:53:46.000Z</time>
      </trkpt>
      <trkpt lat="43.40451" lon="6.61219">
        <ele>368.20001220703</ele>
        <time>2019-05-04T11:53:52.000Z</time>
      </trkpt>
      <trkpt lat="43.40452" lon="6.61234">
        <ele>368.79998779297</ele>
        <time>2019-05-04T11:53:56.000Z</time>
      </trkpt>
      <trkpt lat="43.40452" lon="6.61237">
        <ele>369</ele>
        <time>2019-05-04T11:53:57.000Z</time>
      </trkpt>
      <trkpt lat="43.40456" lon="6.61265">
        <ele>368.79998779297</ele>
        <time>2019-05-04T11:54:05.000Z</time>
      </trkpt>
      <trkpt lat="43.40454" lon="6.61289">
        <ele>369.79998779297</ele>
        <time>2019-05-04T11:54:12.000Z</time>
      </trkpt>
      <trkpt lat="43.40453" lon="6.61292">
        <ele>369.79998779297</ele>
        <time>2019-05-04T11:54:13.000Z</time>
      </trkpt>
      <trkpt lat="43.40444" lon="6.61309">
        <ele>370.60000610352</ele>
        <time>2019-05-04T11:54:19.000Z</time>
      </trkpt>
      <trkpt lat="43.40441" lon="6.61314">
        <ele>371</ele>
        <time>2019-05-04T11:54:21.000Z</time>
      </trkpt>
      <trkpt lat="43.40439" lon="6.61323">
        <ele>371.39999389648</ele>
        <time>2019-05-04T11:54:24.000Z</time>
      </trkpt>
      <trkpt lat="43.40442" lon="6.61337">
        <ele>372</ele>
        <time>2019-05-04T11:54:29.000Z</time>
      </trkpt>
      <trkpt lat="43.40443" lon="6.61339">
        <ele>372.20001220703</ele>
        <time>2019-05-04T11:54:30.000Z</time>
      </trkpt>
      <trkpt lat="43.40454" lon="6.61353">
        <ele>372.79998779297</ele>
        <time>2019-05-04T11:54:36.000Z</time>
      </trkpt>
      <trkpt lat="43.40458" lon="6.61357">
        <ele>373</ele>
        <time>2019-05-04T11:54:38.000Z</time>
      </trkpt>
      <trkpt lat="43.40475" lon="6.61375">
        <ele>373.79998779297</ele>
        <time>2019-05-04T11:54:46.000Z</time>
      </trkpt>
      <trkpt lat="43.40481" lon="6.61384">
        <ele>374</ele>
        <time>2019-05-04T11:54:49.000Z</time>
      </trkpt>
      <trkpt lat="43.4049" lon="6.61394">
        <ele>374.20001220703</ele>
        <time>2019-05-04T11:54:53.000Z</time>
      </trkpt>
      <trkpt lat="43.40506" lon="6.61415">
        <ele>375.20001220703</ele>
        <time>2019-05-04T11:55:01.000Z</time>
      </trkpt>
      <trkpt lat="43.40509" lon="6.6142">
        <ele>375.60000610352</ele>
        <time>2019-05-04T11:55:03.000Z</time>
      </trkpt>
      <trkpt lat="43.4052" lon="6.61443">
        <ele>376</ele>
        <time>2019-05-04T11:55:10.000Z</time>
      </trkpt>
      <trkpt lat="43.40529" lon="6.61462">
        <ele>376.20001220703</ele>
        <time>2019-05-04T11:55:16.000Z</time>
      </trkpt>
      <trkpt lat="43.4053" lon="6.61465">
        <ele>376.20001220703</ele>
        <time>2019-05-04T11:55:17.000Z</time>
      </trkpt>
      <trkpt lat="43.40544" lon="6.61479">
        <ele>376.60000610352</ele>
        <time>2019-05-04T11:55:24.000Z</time>
      </trkpt>
      <trkpt lat="43.40553" lon="6.61487">
        <ele>377.20001220703</ele>
        <time>2019-05-04T11:55:29.000Z</time>
      </trkpt>
      <trkpt lat="43.40554" lon="6.61488">
        <ele>377.39999389648</ele>
        <time>2019-05-04T11:55:30.000Z</time>
      </trkpt>
      <trkpt lat="43.40568" lon="6.61502">
        <ele>378.20001220703</ele>
        <time>2019-05-04T11:55:38.000Z</time>
      </trkpt>
      <trkpt lat="43.4057" lon="6.61504">
        <ele>378.39999389648</ele>
        <time>2019-05-04T11:55:39.000Z</time>
      </trkpt>
      <trkpt lat="43.40581" lon="6.61515">
        <ele>378.79998779297</ele>
        <time>2019-05-04T11:55:45.000Z</time>
      </trkpt>
      <trkpt lat="43.40595" lon="6.61521">
        <ele>379.39999389648</ele>
        <time>2019-05-04T11:55:51.000Z</time>
      </trkpt>
      <trkpt lat="43.40607" lon="6.61524">
        <ele>380</ele>
        <time>2019-05-04T11:55:56.000Z</time>
      </trkpt>
      <trkpt lat="43.40623" lon="6.61528">
        <ele>380.39999389648</ele>
        <time>2019-05-04T11:56:02.000Z</time>
      </trkpt>
      <trkpt lat="43.40636" lon="6.61531">
        <ele>380.60000610352</ele>
        <time>2019-05-04T11:56:07.000Z</time>
      </trkpt>
      <trkpt lat="43.40641" lon="6.61533">
        <ele>380.79998779297</ele>
        <time>2019-05-04T11:56:09.000Z</time>
      </trkpt>
      <trkpt lat="43.40653" lon="6.61536">
        <ele>381.60000610352</ele>
        <time>2019-05-04T11:56:14.000Z</time>
      </trkpt>
      <trkpt lat="43.40661" lon="6.61537">
        <ele>382</ele>
        <time>2019-05-04T11:56:17.000Z</time>
      </trkpt>
      <trkpt lat="43.4068" lon="6.61544">
        <ele>382.20001220703</ele>
        <time>2019-05-04T11:56:24.000Z</time>
      </trkpt>
      <trkpt lat="43.40685" lon="6.61546">
        <ele>382.60000610352</ele>
        <time>2019-05-04T11:56:26.000Z</time>
      </trkpt>
      <trkpt lat="43.407" lon="6.61552">
        <ele>383.39999389648</ele>
        <time>2019-05-04T11:56:32.000Z</time>
      </trkpt>
      <trkpt lat="43.40705" lon="6.61553">
        <ele>383.60000610352</ele>
        <time>2019-05-04T11:56:34.000Z</time>
      </trkpt>
      <trkpt lat="43.40711" lon="6.61556">
        <ele>384.79998779297</ele>
        <time>2019-05-04T11:56:37.000Z</time>
      </trkpt>
      <trkpt lat="43.40716" lon="6.61557">
        <ele>385</ele>
        <time>2019-05-04T11:56:39.000Z</time>
      </trkpt>
      <trkpt lat="43.40734" lon="6.61568">
        <ele>385.60000610352</ele>
        <time>2019-05-04T11:56:48.000Z</time>
      </trkpt>
      <trkpt lat="43.40741" lon="6.61574">
        <ele>385.79998779297</ele>
        <time>2019-05-04T11:56:51.000Z</time>
      </trkpt>
      <trkpt lat="43.40747" lon="6.61579">
        <ele>386.20001220703</ele>
        <time>2019-05-04T11:56:54.000Z</time>
      </trkpt>
      <trkpt lat="43.40757" lon="6.61588">
        <ele>387</ele>
        <time>2019-05-04T11:56:59.000Z</time>
      </trkpt>
      <trkpt lat="43.40761" lon="6.61591">
        <ele>387</ele>
        <time>2019-05-04T11:57:01.000Z</time>
      </trkpt>
      <trkpt lat="43.40774" lon="6.61603">
        <ele>387.39999389648</ele>
        <time>2019-05-04T11:57:08.000Z</time>
      </trkpt>
      <trkpt lat="43.40782" lon="6.61612">
        <ele>388</ele>
        <time>2019-05-04T11:57:12.000Z</time>
      </trkpt>
      <trkpt lat="43.40788" lon="6.6162">
        <ele>388.39999389648</ele>
        <time>2019-05-04T11:57:16.000Z</time>
      </trkpt>
      <trkpt lat="43.40793" lon="6.61629">
        <ele>389</ele>
        <time>2019-05-04T11:57:19.000Z</time>
      </trkpt>
      <trkpt lat="43.40794" lon="6.61638">
        <ele>389.20001220703</ele>
        <time>2019-05-04T11:57:22.000Z</time>
      </trkpt>
      <trkpt lat="43.40788" lon="6.61651">
        <ele>389.39999389648</ele>
        <time>2019-05-04T11:57:27.000Z</time>
      </trkpt>
      <trkpt lat="43.40773" lon="6.61661">
        <ele>389.79998779297</ele>
        <time>2019-05-04T11:57:34.000Z</time>
      </trkpt>
      <trkpt lat="43.40758" lon="6.61669">
        <ele>390</ele>
        <time>2019-05-04T11:57:41.000Z</time>
      </trkpt>
      <trkpt lat="43.40755" lon="6.6167">
        <ele>390</ele>
        <time>2019-05-04T11:57:42.000Z</time>
      </trkpt>
      <trkpt lat="43.40741" lon="6.61679">
        <ele>391.20001220703</ele>
        <time>2019-05-04T11:57:48.000Z</time>
      </trkpt>
      <trkpt lat="43.40739" lon="6.6168">
        <ele>391.60000610352</ele>
        <time>2019-05-04T11:57:49.000Z</time>
      </trkpt>
      <trkpt lat="43.40724" lon="6.61689">
        <ele>392.39999389648</ele>
        <time>2019-05-04T11:57:56.000Z</time>
      </trkpt>
      <trkpt lat="43.40706" lon="6.617">
        <ele>393.39999389648</ele>
        <time>2019-05-04T11:58:05.000Z</time>
      </trkpt>
      <trkpt lat="43.40692" lon="6.61711">
        <ele>394.60000610352</ele>
        <time>2019-05-04T11:58:11.000Z</time>
      </trkpt>
      <trkpt lat="43.40686" lon="6.61717">
        <ele>394.60000610352</ele>
        <time>2019-05-04T11:58:14.000Z</time>
      </trkpt>
      <trkpt lat="43.40671" lon="6.61723">
        <ele>395.60000610352</ele>
        <time>2019-05-04T11:58:20.000Z</time>
      </trkpt>
      <trkpt lat="43.40657" lon="6.61726">
        <ele>396.39999389648</ele>
        <time>2019-05-04T11:58:26.000Z</time>
      </trkpt>
      <trkpt lat="43.4065" lon="6.61729">
        <ele>396.79998779297</ele>
        <time>2019-05-04T11:58:29.000Z</time>
      </trkpt>
      <trkpt lat="43.40639" lon="6.61737">
        <ele>397.20001220703</ele>
        <time>2019-05-04T11:58:33.000Z</time>
      </trkpt>
      <trkpt lat="43.40629" lon="6.61746">
        <ele>398</ele>
        <time>2019-05-04T11:58:38.000Z</time>
      </trkpt>
      <trkpt lat="43.40625" lon="6.61749">
        <ele>398.20001220703</ele>
        <time>2019-05-04T11:58:40.000Z</time>
      </trkpt>
      <trkpt lat="43.40619" lon="6.61755">
        <ele>399</ele>
        <time>2019-05-04T11:58:43.000Z</time>
      </trkpt>
      <trkpt lat="43.40613" lon="6.6176">
        <ele>399.20001220703</ele>
        <time>2019-05-04T11:58:46.000Z</time>
      </trkpt>
      <trkpt lat="43.40597" lon="6.61781">
        <ele>400</ele>
        <time>2019-05-04T11:58:55.000Z</time>
      </trkpt>
      <trkpt lat="43.40595" lon="6.61784">
        <ele>400.20001220703</ele>
        <time>2019-05-04T11:58:56.000Z</time>
      </trkpt>
      <trkpt lat="43.40583" lon="6.61805">
        <ele>401.20001220703</ele>
        <time>2019-05-04T11:59:04.000Z</time>
      </trkpt>
      <trkpt lat="43.40574" lon="6.61821">
        <ele>401.39999389648</ele>
        <time>2019-05-04T11:59:10.000Z</time>
      </trkpt>
      <trkpt lat="43.4057" lon="6.61827">
        <ele>401.79998779297</ele>
        <time>2019-05-04T11:59:12.000Z</time>
      </trkpt>
      <trkpt lat="43.40565" lon="6.61838">
        <ele>402.79998779297</ele>
        <time>2019-05-04T11:59:16.000Z</time>
      </trkpt>
      <trkpt lat="43.40558" lon="6.61853">
        <ele>403.60000610352</ele>
        <time>2019-05-04T11:59:21.000Z</time>
      </trkpt>
      <trkpt lat="43.40554" lon="6.61862">
        <ele>403.79998779297</ele>
        <time>2019-05-04T11:59:24.000Z</time>
      </trkpt>
      <trkpt lat="43.40546" lon="6.61876">
        <ele>404</ele>
        <time>2019-05-04T11:59:29.000Z</time>
      </trkpt>
      <trkpt lat="43.40538" lon="6.61891">
        <ele>405</ele>
        <time>2019-05-04T11:59:34.000Z</time>
      </trkpt>
      <trkpt lat="43.40529" lon="6.61902">
        <ele>405.20001220703</ele>
        <time>2019-05-04T11:59:38.000Z</time>
      </trkpt>
      <trkpt lat="43.40506" lon="6.61916">
        <ele>405</ele>
        <time>2019-05-04T11:59:45.000Z</time>
      </trkpt>
      <trkpt lat="43.40482" lon="6.61925">
        <ele>405</ele>
        <time>2019-05-04T11:59:52.000Z</time>
      </trkpt>
      <trkpt lat="43.40464" lon="6.61942">
        <ele>405.20001220703</ele>
        <time>2019-05-04T11:59:59.000Z</time>
      </trkpt>
      <trkpt lat="43.4046" lon="6.61965">
        <ele>404.60000610352</ele>
        <time>2019-05-04T12:00:04.000Z</time>
      </trkpt>
      <trkpt lat="43.4046" lon="6.62">
        <ele>406</ele>
        <time>2019-05-04T12:00:12.000Z</time>
      </trkpt>
      <trkpt lat="43.40459" lon="6.62023">
        <ele>407</ele>
        <time>2019-05-04T12:00:18.000Z</time>
      </trkpt>
      <trkpt lat="43.40458" lon="6.62029">
        <ele>407</ele>
        <time>2019-05-04T12:00:20.000Z</time>
      </trkpt>
      <trkpt lat="43.40452" lon="6.62055">
        <ele>408</ele>
        <time>2019-05-04T12:00:28.000Z</time>
      </trkpt>
      <trkpt lat="43.40451" lon="6.62058">
        <ele>408.20001220703</ele>
        <time>2019-05-04T12:00:29.000Z</time>
      </trkpt>
      <trkpt lat="43.40444" lon="6.62078">
        <ele>408.79998779297</ele>
        <time>2019-05-04T12:00:36.000Z</time>
      </trkpt>
      <trkpt lat="43.40439" lon="6.62087">
        <ele>409.20001220703</ele>
        <time>2019-05-04T12:00:39.000Z</time>
      </trkpt>
      <trkpt lat="43.40431" lon="6.62104">
        <ele>410</ele>
        <time>2019-05-04T12:00:45.000Z</time>
      </trkpt>
      <trkpt lat="43.40428" lon="6.62109">
        <ele>410.39999389648</ele>
        <time>2019-05-04T12:00:47.000Z</time>
      </trkpt>
      <trkpt lat="43.4042" lon="6.62123">
        <ele>410.60000610352</ele>
        <time>2019-05-04T12:00:52.000Z</time>
      </trkpt>
      <trkpt lat="43.40413" lon="6.62136">
        <ele>411.39999389648</ele>
        <time>2019-05-04T12:00:57.000Z</time>
      </trkpt>
      <trkpt lat="43.40409" lon="6.62143">
        <ele>412.20001220703</ele>
        <time>2019-05-04T12:01:00.000Z</time>
      </trkpt>
      <trkpt lat="43.40406" lon="6.62148">
        <ele>412.39999389648</ele>
        <time>2019-05-04T12:01:02.000Z</time>
      </trkpt>
      <trkpt lat="43.404" lon="6.62164">
        <ele>412.79998779297</ele>
        <time>2019-05-04T12:01:07.000Z</time>
      </trkpt>
      <trkpt lat="43.40391" lon="6.62191">
        <ele>412.60000610352</ele>
        <time>2019-05-04T12:01:15.000Z</time>
      </trkpt>
      <trkpt lat="43.40391" lon="6.62193">
        <ele>412.79998779297</ele>
        <time>2019-05-04T12:01:18.000Z</time>
      </trkpt>
      <trkpt lat="43.40391" lon="6.62194">
        <ele>412.79998779297</ele>
        <time>2019-05-04T12:01:19.000Z</time>
      </trkpt>
      <trkpt lat="43.40394" lon="6.62192">
        <ele>413.60000610352</ele>
        <time>2019-05-04T12:01:24.000Z</time>
      </trkpt>
      <trkpt lat="43.40395" lon="6.62192">
        <ele>413.60000610352</ele>
        <time>2019-05-04T12:01:25.000Z</time>
      </trkpt>
      <trkpt lat="43.40397" lon="6.62193">
        <ele>413.79998779297</ele>
        <time>2019-05-04T12:01:32.000Z</time>
      </trkpt>
      <trkpt lat="43.40397" lon="6.62193">
        <ele>413.79998779297</ele>
        <time>2019-05-04T12:01:48.000Z</time>
      </trkpt>
      <trkpt lat="43.40395" lon="6.62191">
        <ele>414</ele>
        <time>2019-05-04T12:02:04.000Z</time>
      </trkpt>
      <trkpt lat="43.40391" lon="6.62191">
        <ele>414.20001220703</ele>
        <time>2019-05-04T12:02:11.000Z</time>
      </trkpt>
      <trkpt lat="43.40391" lon="6.62192">
        <ele>413.79998779297</ele>
        <time>2019-05-04T12:02:16.000Z</time>
      </trkpt>
      <trkpt lat="43.40392" lon="6.62192">
        <ele>414.60000610352</ele>
        <time>2019-05-04T12:02:25.000Z</time>
      </trkpt>
      <trkpt lat="43.40392" lon="6.62192">
        <ele>414.79998779297</ele>
        <time>2019-05-04T12:02:26.000Z</time>
      </trkpt>
      <trkpt lat="43.40392" lon="6.62192">
        <ele>414.20001220703</ele>
        <time>2019-05-04T12:02:36.000Z</time>
      </trkpt>
      <trkpt lat="43.40392" lon="6.62191">
        <ele>414.60000610352</ele>
        <time>2019-05-04T12:02:51.000Z</time>
      </trkpt>
      <trkpt lat="43.40392" lon="6.62192">
        <ele>414.39999389648</ele>
        <time>2019-05-04T12:02:58.000Z</time>
      </trkpt>
      <trkpt lat="43.40392" lon="6.62191">
        <ele>414.79998779297</ele>
        <time>2019-05-04T12:03:05.000Z</time>
      </trkpt>
      <trkpt lat="43.40392" lon="6.62191">
        <ele>414.79998779297</ele>
        <time>2019-05-04T12:03:11.000Z</time>
      </trkpt>
      <trkpt lat="43.40392" lon="6.62191">
        <ele>414.39999389648</ele>
        <time>2019-05-04T12:03:18.000Z</time>
      </trkpt>
      <trkpt lat="43.40392" lon="6.62191">
        <ele>414.20001220703</ele>
        <time>2019-05-04T12:03:29.000Z</time>
      </trkpt>
      <trkpt lat="43.40392" lon="6.62189">
        <ele>414</ele>
        <time>2019-05-04T12:03:36.000Z</time>
      </trkpt>
      <trkpt lat="43.40393" lon="6.6219">
        <ele>414.60000610352</ele>
        <time>2019-05-04T12:03:44.000Z</time>
      </trkpt>
      <trkpt lat="43.40393" lon="6.62191">
        <ele>414.79998779297</ele>
        <time>2019-05-04T12:03:52.000Z</time>
      </trkpt>
      <trkpt lat="43.40395" lon="6.62189">
        <ele>414.60000610352</ele>
        <time>2019-05-04T12:03:58.000Z</time>
      </trkpt>
      <trkpt lat="43.404" lon="6.6219">
        <ele>414</ele>
        <time>2019-05-04T12:04:03.000Z</time>
      </trkpt>
      <trkpt lat="43.40401" lon="6.62196">
        <ele>413.60000610352</ele>
        <time>2019-05-04T12:04:09.000Z</time>
      </trkpt>
      <trkpt lat="43.40401" lon="6.62202">
        <ele>415.20001220703</ele>
        <time>2019-05-04T12:04:17.000Z</time>
      </trkpt>
      <trkpt lat="43.40402" lon="6.62204">
        <ele>415.79998779297</ele>
        <time>2019-05-04T12:04:20.000Z</time>
      </trkpt>
      <trkpt lat="43.40402" lon="6.62206">
        <ele>416.39999389648</ele>
        <time>2019-05-04T12:04:24.000Z</time>
      </trkpt>
      <trkpt lat="43.40401" lon="6.62209">
        <ele>416.79998779297</ele>
        <time>2019-05-04T12:04:27.000Z</time>
      </trkpt>
      <trkpt lat="43.40401" lon="6.62211">
        <ele>417.39999389648</ele>
        <time>2019-05-04T12:04:32.000Z</time>
      </trkpt>
      <trkpt lat="43.40402" lon="6.62213">
        <ele>418</ele>
        <time>2019-05-04T12:04:35.000Z</time>
      </trkpt>
      <trkpt lat="43.40401" lon="6.62216">
        <ele>418.39999389648</ele>
        <time>2019-05-04T12:04:38.000Z</time>
      </trkpt>
      <trkpt lat="43.404" lon="6.62219">
        <ele>419</ele>
        <time>2019-05-04T12:04:43.000Z</time>
      </trkpt>
      <trkpt lat="43.404" lon="6.62219">
        <ele>419.20001220703</ele>
        <time>2019-05-04T12:04:44.000Z</time>
      </trkpt>
      <trkpt lat="43.404" lon="6.62223">
        <ele>420.20001220703</ele>
        <time>2019-05-04T12:04:51.000Z</time>
      </trkpt>
      <trkpt lat="43.404" lon="6.62225">
        <ele>421.39999389648</ele>
        <time>2019-05-04T12:04:56.000Z</time>
      </trkpt>
      <trkpt lat="43.404" lon="6.62228">
        <ele>421.79998779297</ele>
        <time>2019-05-04T12:04:58.000Z</time>
      </trkpt>
      <trkpt lat="43.40401" lon="6.62229">
        <ele>422.39999389648</ele>
        <time>2019-05-04T12:05:02.000Z</time>
      </trkpt>
      <trkpt lat="43.40401" lon="6.6223">
        <ele>422.39999389648</ele>
        <time>2019-05-04T12:05:04.000Z</time>
      </trkpt>
      <trkpt lat="43.40404" lon="6.62234">
        <ele>423.39999389648</ele>
        <time>2019-05-04T12:05:10.000Z</time>
      </trkpt>
      <trkpt lat="43.40406" lon="6.62238">
        <ele>424.39999389648</ele>
        <time>2019-05-04T12:05:16.000Z</time>
      </trkpt>
      <trkpt lat="43.40406" lon="6.62238">
        <ele>424.79998779297</ele>
        <time>2019-05-04T12:05:17.000Z</time>
      </trkpt>
      <trkpt lat="43.40407" lon="6.62241">
        <ele>425.39999389648</ele>
        <time>2019-05-04T12:05:21.000Z</time>
      </trkpt>
      <trkpt lat="43.40408" lon="6.62243">
        <ele>426</ele>
        <time>2019-05-04T12:05:24.000Z</time>
      </trkpt>
      <trkpt lat="43.40407" lon="6.62246">
        <ele>426.60000610352</ele>
        <time>2019-05-04T12:05:28.000Z</time>
      </trkpt>
      <trkpt lat="43.40407" lon="6.62248">
        <ele>427.20001220703</ele>
        <time>2019-05-04T12:05:31.000Z</time>
      </trkpt>
      <trkpt lat="43.40407" lon="6.62248">
        <ele>427.60000610352</ele>
        <time>2019-05-04T12:05:33.000Z</time>
      </trkpt>
      <trkpt lat="43.40408" lon="6.6225">
        <ele>428</ele>
        <time>2019-05-04T12:05:35.000Z</time>
      </trkpt>
      <trkpt lat="43.40408" lon="6.6225">
        <ele>428.20001220703</ele>
        <time>2019-05-04T12:05:37.000Z</time>
      </trkpt>
      <trkpt lat="43.40408" lon="6.62253">
        <ele>428.60000610352</ele>
        <time>2019-05-04T12:05:43.000Z</time>
      </trkpt>
      <trkpt lat="43.40408" lon="6.62253">
        <ele>428.60000610352</ele>
        <time>2019-05-04T12:05:44.000Z</time>
      </trkpt>
      <trkpt lat="43.40409" lon="6.62257">
        <ele>429.39999389648</ele>
        <time>2019-05-04T12:05:50.000Z</time>
      </trkpt>
      <trkpt lat="43.40411" lon="6.6226">
        <ele>429.79998779297</ele>
        <time>2019-05-04T12:05:55.000Z</time>
      </trkpt>
      <trkpt lat="43.40411" lon="6.62261">
        <ele>429.79998779297</ele>
        <time>2019-05-04T12:05:57.000Z</time>
      </trkpt>
      <trkpt lat="43.40414" lon="6.62265">
        <ele>430.79998779297</ele>
        <time>2019-05-04T12:06:04.000Z</time>
      </trkpt>
      <trkpt lat="43.40414" lon="6.62269">
        <ele>432</ele>
        <time>2019-05-04T12:06:09.000Z</time>
      </trkpt>
      <trkpt lat="43.40414" lon="6.6227">
        <ele>432</ele>
        <time>2019-05-04T12:06:10.000Z</time>
      </trkpt>
      <trkpt lat="43.40414" lon="6.62274">
        <ele>432.60000610352</ele>
        <time>2019-05-04T12:06:16.000Z</time>
      </trkpt>
      <trkpt lat="43.40414" lon="6.62277">
        <ele>432.79998779297</ele>
        <time>2019-05-04T12:06:20.000Z</time>
      </trkpt>
      <trkpt lat="43.40414" lon="6.62277">
        <ele>433</ele>
        <time>2019-05-04T12:06:21.000Z</time>
      </trkpt>
      <trkpt lat="43.40415" lon="6.62278">
        <ele>433.39999389648</ele>
        <time>2019-05-04T12:06:22.000Z</time>
      </trkpt>
      <trkpt lat="43.40415" lon="6.62279">
        <ele>434</ele>
        <time>2019-05-04T12:06:24.000Z</time>
      </trkpt>
      <trkpt lat="43.40416" lon="6.62281">
        <ele>434.79998779297</ele>
        <time>2019-05-04T12:06:27.000Z</time>
      </trkpt>
      <trkpt lat="43.40416" lon="6.62284">
        <ele>435.20001220703</ele>
        <time>2019-05-04T12:06:32.000Z</time>
      </trkpt>
      <trkpt lat="43.40416" lon="6.62286">
        <ele>435.39999389648</ele>
        <time>2019-05-04T12:06:34.000Z</time>
      </trkpt>
      <trkpt lat="43.40414" lon="6.62291">
        <ele>436.20001220703</ele>
        <time>2019-05-04T12:06:41.000Z</time>
      </trkpt>
      <trkpt lat="43.40413" lon="6.62296">
        <ele>436.60000610352</ele>
        <time>2019-05-04T12:06:48.000Z</time>
      </trkpt>
      <trkpt lat="43.40413" lon="6.62301">
        <ele>437.39999389648</ele>
        <time>2019-05-04T12:06:54.000Z</time>
      </trkpt>
      <trkpt lat="43.40412" lon="6.62302">
        <ele>437.79998779297</ele>
        <time>2019-05-04T12:06:56.000Z</time>
      </trkpt>
      <trkpt lat="43.40412" lon="6.62304">
        <ele>438.20001220703</ele>
        <time>2019-05-04T12:06:58.000Z</time>
      </trkpt>
      <trkpt lat="43.40412" lon="6.62303">
        <ele>438.39999389648</ele>
        <time>2019-05-04T12:06:59.000Z</time>
      </trkpt>
      <trkpt lat="43.40412" lon="6.62306">
        <ele>438.79998779297</ele>
        <time>2019-05-04T12:07:01.000Z</time>
      </trkpt>
      <trkpt lat="43.40412" lon="6.62309">
        <ele>439</ele>
        <time>2019-05-04T12:07:05.000Z</time>
      </trkpt>
      <trkpt lat="43.40413" lon="6.6231">
        <ele>439</ele>
        <time>2019-05-04T12:07:07.000Z</time>
      </trkpt>
      <trkpt lat="43.40413" lon="6.62311">
        <ele>439.60000610352</ele>
        <time>2019-05-04T12:07:09.000Z</time>
      </trkpt>
      <trkpt lat="43.40415" lon="6.62313">
        <ele>440</ele>
        <time>2019-05-04T12:07:14.000Z</time>
      </trkpt>
      <trkpt lat="43.40416" lon="6.62315">
        <ele>440.60000610352</ele>
        <time>2019-05-04T12:07:19.000Z</time>
      </trkpt>
      <trkpt lat="43.40416" lon="6.62314">
        <ele>440.79998779297</ele>
        <time>2019-05-04T12:07:20.000Z</time>
      </trkpt>
      <trkpt lat="43.40418" lon="6.62317">
        <ele>441.60000610352</ele>
        <time>2019-05-04T12:07:24.000Z</time>
      </trkpt>
      <trkpt lat="43.40418" lon="6.62318">
        <ele>441.79998779297</ele>
        <time>2019-05-04T12:07:25.000Z</time>
      </trkpt>
      <trkpt lat="43.40418" lon="6.62322">
        <ele>442.60000610352</ele>
        <time>2019-05-04T12:07:31.000Z</time>
      </trkpt>
      <trkpt lat="43.40419" lon="6.62324">
        <ele>443.60000610352</ele>
        <time>2019-05-04T12:07:36.000Z</time>
      </trkpt>
      <trkpt lat="43.40421" lon="6.62324">
        <ele>443.79998779297</ele>
        <time>2019-05-04T12:07:37.000Z</time>
      </trkpt>
      <trkpt lat="43.40424" lon="6.62325">
        <ele>444.79998779297</ele>
        <time>2019-05-04T12:07:43.000Z</time>
      </trkpt>
      <trkpt lat="43.40423" lon="6.62325">
        <ele>445</ele>
        <time>2019-05-04T12:07:44.000Z</time>
      </trkpt>
      <trkpt lat="43.40425" lon="6.62327">
        <ele>445.60000610352</ele>
        <time>2019-05-04T12:07:49.000Z</time>
      </trkpt>
      <trkpt lat="43.40426" lon="6.62326">
        <ele>445.79998779297</ele>
        <time>2019-05-04T12:07:50.000Z</time>
      </trkpt>
      <trkpt lat="43.40425" lon="6.62327">
        <ele>446</ele>
        <time>2019-05-04T12:07:51.000Z</time>
      </trkpt>
      <trkpt lat="43.40426" lon="6.62329">
        <ele>447</ele>
        <time>2019-05-04T12:07:56.000Z</time>
      </trkpt>
      <trkpt lat="43.40426" lon="6.6233">
        <ele>447.20001220703</ele>
        <time>2019-05-04T12:07:58.000Z</time>
      </trkpt>
      <trkpt lat="43.40426" lon="6.62334">
        <ele>448.20001220703</ele>
        <time>2019-05-04T12:08:04.000Z</time>
      </trkpt>
      <trkpt lat="43.40426" lon="6.62336">
        <ele>448.79998779297</ele>
        <time>2019-05-04T12:08:09.000Z</time>
      </trkpt>
      <trkpt lat="43.40426" lon="6.62337">
        <ele>449.20001220703</ele>
        <time>2019-05-04T12:08:12.000Z</time>
      </trkpt>
      <trkpt lat="43.40427" lon="6.62339">
        <ele>449.79998779297</ele>
        <time>2019-05-04T12:08:15.000Z</time>
      </trkpt>
      <trkpt lat="43.40427" lon="6.62341">
        <ele>450.79998779297</ele>
        <time>2019-05-04T12:08:17.000Z</time>
      </trkpt>
      <trkpt lat="43.40428" lon="6.62343">
        <ele>451.60000610352</ele>
        <time>2019-05-04T12:08:20.000Z</time>
      </trkpt>
      <trkpt lat="43.40428" lon="6.62346">
        <ele>451.79998779297</ele>
        <time>2019-05-04T12:08:24.000Z</time>
      </trkpt>
      <trkpt lat="43.40428" lon="6.62348">
        <ele>452</ele>
        <time>2019-05-04T12:08:26.000Z</time>
      </trkpt>
      <trkpt lat="43.40428" lon="6.6235">
        <ele>452</ele>
        <time>2019-05-04T12:08:27.000Z</time>
      </trkpt>
      <trkpt lat="43.40428" lon="6.62351">
        <ele>452.39999389648</ele>
        <time>2019-05-04T12:08:30.000Z</time>
      </trkpt>
      <trkpt lat="43.40427" lon="6.62354">
        <ele>452.79998779297</ele>
        <time>2019-05-04T12:08:33.000Z</time>
      </trkpt>
      <trkpt lat="43.40427" lon="6.62356">
        <ele>452.79998779297</ele>
        <time>2019-05-04T12:08:36.000Z</time>
      </trkpt>
      <trkpt lat="43.40428" lon="6.62359">
        <ele>453.20001220703</ele>
        <time>2019-05-04T12:08:41.000Z</time>
      </trkpt>
      <trkpt lat="43.4043" lon="6.62361">
        <ele>453.39999389648</ele>
        <time>2019-05-04T12:08:47.000Z</time>
      </trkpt>
      <trkpt lat="43.40432" lon="6.62362">
        <ele>454</ele>
        <time>2019-05-04T12:08:49.000Z</time>
      </trkpt>
      <trkpt lat="43.40433" lon="6.62364">
        <ele>455</ele>
        <time>2019-05-04T12:08:52.000Z</time>
      </trkpt>
      <trkpt lat="43.40433" lon="6.62365">
        <ele>455.20001220703</ele>
        <time>2019-05-04T12:08:53.000Z</time>
      </trkpt>
      <trkpt lat="43.40434" lon="6.62368">
        <ele>455.39999389648</ele>
        <time>2019-05-04T12:08:58.000Z</time>
      </trkpt>
      <trkpt lat="43.40435" lon="6.62372">
        <ele>456.39999389648</ele>
        <time>2019-05-04T12:09:03.000Z</time>
      </trkpt>
      <trkpt lat="43.40435" lon="6.62373">
        <ele>456.60000610352</ele>
        <time>2019-05-04T12:09:04.000Z</time>
      </trkpt>
      <trkpt lat="43.40437" lon="6.62377">
        <ele>457.39999389648</ele>
        <time>2019-05-04T12:09:09.000Z</time>
      </trkpt>
      <trkpt lat="43.40437" lon="6.62376">
        <ele>457.60000610352</ele>
        <time>2019-05-04T12:09:10.000Z</time>
      </trkpt>
      <trkpt lat="43.40439" lon="6.62381">
        <ele>458</ele>
        <time>2019-05-04T12:09:17.000Z</time>
      </trkpt>
      <trkpt lat="43.40439" lon="6.62381">
        <ele>458.39999389648</ele>
        <time>2019-05-04T12:09:19.000Z</time>
      </trkpt>
      <trkpt lat="43.4044" lon="6.62387">
        <ele>459.20001220703</ele>
        <time>2019-05-04T12:09:25.000Z</time>
      </trkpt>
      <trkpt lat="43.40441" lon="6.62388">
        <ele>459.60000610352</ele>
        <time>2019-05-04T12:09:27.000Z</time>
      </trkpt>
      <trkpt lat="43.40442" lon="6.62388">
        <ele>460.60000610352</ele>
        <time>2019-05-04T12:09:30.000Z</time>
      </trkpt>
      <trkpt lat="43.40442" lon="6.62389">
        <ele>460.79998779297</ele>
        <time>2019-05-04T12:09:31.000Z</time>
      </trkpt>
      <trkpt lat="43.40442" lon="6.62392">
        <ele>461.39999389648</ele>
        <time>2019-05-04T12:09:38.000Z</time>
      </trkpt>
      <trkpt lat="43.40442" lon="6.62393">
        <ele>461.79998779297</ele>
        <time>2019-05-04T12:09:41.000Z</time>
      </trkpt>
      <trkpt lat="43.40442" lon="6.62395">
        <ele>462.20001220703</ele>
        <time>2019-05-04T12:09:44.000Z</time>
      </trkpt>
      <trkpt lat="43.40443" lon="6.624">
        <ele>463</ele>
        <time>2019-05-04T12:09:51.000Z</time>
      </trkpt>
      <trkpt lat="43.40444" lon="6.62401">
        <ele>464.20001220703</ele>
        <time>2019-05-04T12:09:56.000Z</time>
      </trkpt>
      <trkpt lat="43.40444" lon="6.62402">
        <ele>464.39999389648</ele>
        <time>2019-05-04T12:09:57.000Z</time>
      </trkpt>
      <trkpt lat="43.40445" lon="6.62404">
        <ele>465.39999389648</ele>
        <time>2019-05-04T12:10:02.000Z</time>
      </trkpt>
      <trkpt lat="43.40446" lon="6.62408">
        <ele>466</ele>
        <time>2019-05-04T12:10:09.000Z</time>
      </trkpt>
      <trkpt lat="43.40446" lon="6.62408">
        <ele>466.39999389648</ele>
        <time>2019-05-04T12:10:10.000Z</time>
      </trkpt>
      <trkpt lat="43.40447" lon="6.62411">
        <ele>467.20001220703</ele>
        <time>2019-05-04T12:10:14.000Z</time>
      </trkpt>
      <trkpt lat="43.40447" lon="6.62414">
        <ele>467.60000610352</ele>
        <time>2019-05-04T12:10:19.000Z</time>
      </trkpt>
      <trkpt lat="43.40447" lon="6.62416">
        <ele>467.79998779297</ele>
        <time>2019-05-04T12:10:22.000Z</time>
      </trkpt>
      <trkpt lat="43.40447" lon="6.62418">
        <ele>468.60000610352</ele>
        <time>2019-05-04T12:10:27.000Z</time>
      </trkpt>
      <trkpt lat="43.40448" lon="6.62421">
        <ele>469.60000610352</ele>
        <time>2019-05-04T12:10:31.000Z</time>
      </trkpt>
      <trkpt lat="43.40447" lon="6.62423">
        <ele>470.20001220703</ele>
        <time>2019-05-04T12:10:34.000Z</time>
      </trkpt>
      <trkpt lat="43.40448" lon="6.62426">
        <ele>470.79998779297</ele>
        <time>2019-05-04T12:10:39.000Z</time>
      </trkpt>
      <trkpt lat="43.40448" lon="6.62427">
        <ele>470.79998779297</ele>
        <time>2019-05-04T12:10:40.000Z</time>
      </trkpt>
      <trkpt lat="43.40449" lon="6.6243">
        <ele>471.79998779297</ele>
        <time>2019-05-04T12:10:45.000Z</time>
      </trkpt>
      <trkpt lat="43.40449" lon="6.62431">
        <ele>471.79998779297</ele>
        <time>2019-05-04T12:10:46.000Z</time>
      </trkpt>
      <trkpt lat="43.4045" lon="6.62434">
        <ele>472.79998779297</ele>
        <time>2019-05-04T12:10:51.000Z</time>
      </trkpt>
      <trkpt lat="43.40451" lon="6.62435">
        <ele>473.20001220703</ele>
        <time>2019-05-04T12:10:53.000Z</time>
      </trkpt>
      <trkpt lat="43.40452" lon="6.62436">
        <ele>474</ele>
        <time>2019-05-04T12:10:55.000Z</time>
      </trkpt>
      <trkpt lat="43.40452" lon="6.62438">
        <ele>474.39999389648</ele>
        <time>2019-05-04T12:10:58.000Z</time>
      </trkpt>
      <trkpt lat="43.40453" lon="6.62441">
        <ele>475</ele>
        <time>2019-05-04T12:11:03.000Z</time>
      </trkpt>
      <trkpt lat="43.40454" lon="6.62442">
        <ele>476</ele>
        <time>2019-05-04T12:11:08.000Z</time>
      </trkpt>
      <trkpt lat="43.40454" lon="6.62444">
        <ele>476.20001220703</ele>
        <time>2019-05-04T12:11:09.000Z</time>
      </trkpt>
      <trkpt lat="43.40455" lon="6.62447">
        <ele>477.20001220703</ele>
        <time>2019-05-04T12:11:14.000Z</time>
      </trkpt>
      <trkpt lat="43.40455" lon="6.62447">
        <ele>477.20001220703</ele>
        <time>2019-05-04T12:11:15.000Z</time>
      </trkpt>
      <trkpt lat="43.40455" lon="6.62449">
        <ele>477.20001220703</ele>
        <time>2019-05-04T12:11:20.000Z</time>
      </trkpt>
      <trkpt lat="43.40456" lon="6.62452">
        <ele>477.79998779297</ele>
        <time>2019-05-04T12:11:25.000Z</time>
      </trkpt>
      <trkpt lat="43.40456" lon="6.62453">
        <ele>478.20001220703</ele>
        <time>2019-05-04T12:11:27.000Z</time>
      </trkpt>
      <trkpt lat="43.40457" lon="6.62455">
        <ele>478.60000610352</ele>
        <time>2019-05-04T12:11:30.000Z</time>
      </trkpt>
      <trkpt lat="43.40457" lon="6.62458">
        <ele>479.39999389648</ele>
        <time>2019-05-04T12:11:35.000Z</time>
      </trkpt>
      <trkpt lat="43.40457" lon="6.62459">
        <ele>479.39999389648</ele>
        <time>2019-05-04T12:11:36.000Z</time>
      </trkpt>
      <trkpt lat="43.40458" lon="6.62462">
        <ele>480.39999389648</ele>
        <time>2019-05-04T12:11:41.000Z</time>
      </trkpt>
      <trkpt lat="43.40458" lon="6.62463">
        <ele>480.60000610352</ele>
        <time>2019-05-04T12:11:42.000Z</time>
      </trkpt>
      <trkpt lat="43.40459" lon="6.62466">
        <ele>481.39999389648</ele>
        <time>2019-05-04T12:11:47.000Z</time>
      </trkpt>
      <trkpt lat="43.40459" lon="6.62468">
        <ele>481.60000610352</ele>
        <time>2019-05-04T12:11:49.000Z</time>
      </trkpt>
      <trkpt lat="43.4046" lon="6.62473">
        <ele>482.39999389648</ele>
        <time>2019-05-04T12:11:56.000Z</time>
      </trkpt>
      <trkpt lat="43.4046" lon="6.62474">
        <ele>482.39999389648</ele>
        <time>2019-05-04T12:11:57.000Z</time>
      </trkpt>
      <trkpt lat="43.4046" lon="6.62479">
        <ele>483.20001220703</ele>
        <time>2019-05-04T12:12:02.000Z</time>
      </trkpt>
      <trkpt lat="43.4046" lon="6.62482">
        <ele>483.60000610352</ele>
        <time>2019-05-04T12:12:05.000Z</time>
      </trkpt>
      <trkpt lat="43.40461" lon="6.62484">
        <ele>484</ele>
        <time>2019-05-04T12:12:08.000Z</time>
      </trkpt>
      <trkpt lat="43.40462" lon="6.62488">
        <ele>484.60000610352</ele>
        <time>2019-05-04T12:12:13.000Z</time>
      </trkpt>
      <trkpt lat="43.40462" lon="6.62489">
        <ele>484.79998779297</ele>
        <time>2019-05-04T12:12:14.000Z</time>
      </trkpt>
      <trkpt lat="43.40463" lon="6.6249">
        <ele>485</ele>
        <time>2019-05-04T12:12:15.000Z</time>
      </trkpt>
      <trkpt lat="43.40463" lon="6.6249">
        <ele>485.60000610352</ele>
        <time>2019-05-04T12:12:17.000Z</time>
      </trkpt>
      <trkpt lat="43.40463" lon="6.6249">
        <ele>486.20001220703</ele>
        <time>2019-05-04T12:12:21.000Z</time>
      </trkpt>
      <trkpt lat="43.40464" lon="6.62493">
        <ele>486.20001220703</ele>
        <time>2019-05-04T12:12:34.000Z</time>
      </trkpt>
      <trkpt lat="43.40464" lon="6.62494">
        <ele>486</ele>
        <time>2019-05-04T12:12:41.000Z</time>
      </trkpt>
      <trkpt lat="43.40464" lon="6.62494">
        <ele>486</ele>
        <time>2019-05-04T12:13:00.000Z</time>
      </trkpt>
      <trkpt lat="43.40464" lon="6.62495">
        <ele>486.39999389648</ele>
        <time>2019-05-04T12:13:18.000Z</time>
      </trkpt>
      <trkpt lat="43.40464" lon="6.62496">
        <ele>486.39999389648</ele>
        <time>2019-05-04T12:13:35.000Z</time>
      </trkpt>
      <trkpt lat="43.40463" lon="6.62496">
        <ele>486.39999389648</ele>
        <time>2019-05-04T12:13:52.000Z</time>
      </trkpt>
      <trkpt lat="43.40464" lon="6.62495">
        <ele>486.79998779297</ele>
        <time>2019-05-04T12:14:05.000Z</time>
      </trkpt>
      <trkpt lat="43.40464" lon="6.62495">
        <ele>487</ele>
        <time>2019-05-04T12:14:06.000Z</time>
      </trkpt>
      <trkpt lat="43.40464" lon="6.62496">
        <ele>486.79998779297</ele>
        <time>2019-05-04T12:14:20.000Z</time>
      </trkpt>
      <trkpt lat="43.40464" lon="6.62497">
        <ele>485.79998779297</ele>
        <time>2019-05-04T12:14:28.000Z</time>
      </trkpt>
      <trkpt lat="43.40464" lon="6.62497">
        <ele>485.79998779297</ele>
        <time>2019-05-04T12:14:29.000Z</time>
      </trkpt>
      <trkpt lat="43.40464" lon="6.62497">
        <ele>487</ele>
        <time>2019-05-04T12:14:37.000Z</time>
      </trkpt>
      <trkpt lat="43.40464" lon="6.62497">
        <ele>486.79998779297</ele>
        <time>2019-05-04T12:14:41.000Z</time>
      </trkpt>
      <trkpt lat="43.40465" lon="6.62497">
        <ele>486.60000610352</ele>
        <time>2019-05-04T12:14:50.000Z</time>
      </trkpt>
      <trkpt lat="43.40465" lon="6.62497">
        <ele>486.39999389648</ele>
        <time>2019-05-04T12:15:00.000Z</time>
      </trkpt>
      <trkpt lat="43.40466" lon="6.62496">
        <ele>486.60000610352</ele>
        <time>2019-05-04T12:15:22.000Z</time>
      </trkpt>
      <trkpt lat="43.40466" lon="6.62496">
        <ele>486.60000610352</ele>
        <time>2019-05-04T12:15:41.000Z</time>
      </trkpt>
      <trkpt lat="43.40466" lon="6.62495">
        <ele>487</ele>
        <time>2019-05-04T12:15:55.000Z</time>
      </trkpt>
      <trkpt lat="43.40466" lon="6.62495">
        <ele>486.60000610352</ele>
        <time>2019-05-04T12:16:14.000Z</time>
      </trkpt>
      <trkpt lat="43.40467" lon="6.62494">
        <ele>486.39999389648</ele>
        <time>2019-05-04T12:16:44.000Z</time>
      </trkpt>
      <trkpt lat="43.40467" lon="6.62494">
        <ele>486.20001220703</ele>
        <time>2019-05-04T12:17:07.000Z</time>
      </trkpt>
      <trkpt lat="43.40467" lon="6.62494">
        <ele>486.79998779297</ele>
        <time>2019-05-04T12:17:24.000Z</time>
      </trkpt>
      <trkpt lat="43.40467" lon="6.62494">
        <ele>487</ele>
        <time>2019-05-04T12:17:45.000Z</time>
      </trkpt>
      <trkpt lat="43.40467" lon="6.62494">
        <ele>487.20001220703</ele>
        <time>2019-05-04T12:17:54.000Z</time>
      </trkpt>
      <trkpt lat="43.40467" lon="6.62494">
        <ele>487</ele>
        <time>2019-05-04T12:18:10.000Z</time>
      </trkpt>
      <trkpt lat="43.40468" lon="6.62493">
        <ele>487</ele>
        <time>2019-05-04T12:18:31.000Z</time>
      </trkpt>
      <trkpt lat="43.40468" lon="6.62493">
        <ele>487</ele>
        <time>2019-05-04T12:18:42.000Z</time>
      </trkpt>
      <trkpt lat="43.40468" lon="6.62494">
        <ele>486.79998779297</ele>
        <time>2019-05-04T12:19:04.000Z</time>
      </trkpt>
      <trkpt lat="43.40468" lon="6.62494">
        <ele>486.39999389648</ele>
        <time>2019-05-04T12:19:17.000Z</time>
      </trkpt>
      <trkpt lat="43.40467" lon="6.62495">
        <ele>486.39999389648</ele>
        <time>2019-05-04T12:19:38.000Z</time>
      </trkpt>
      <trkpt lat="43.40467" lon="6.62495">
        <ele>486.39999389648</ele>
        <time>2019-05-04T12:20:02.000Z</time>
      </trkpt>
      <trkpt lat="43.40467" lon="6.62495">
        <ele>486.20001220703</ele>
        <time>2019-05-04T12:20:25.000Z</time>
      </trkpt>
      <trkpt lat="43.40467" lon="6.62495">
        <ele>486.60000610352</ele>
        <time>2019-05-04T12:20:52.000Z</time>
      </trkpt>
      <trkpt lat="43.40467" lon="6.62495">
        <ele>486.20001220703</ele>
        <time>2019-05-04T12:21:15.000Z</time>
      </trkpt>
      <trkpt lat="43.40467" lon="6.62495">
        <ele>486.20001220703</ele>
        <time>2019-05-04T12:21:38.000Z</time>
      </trkpt>
      <trkpt lat="43.40467" lon="6.62495">
        <ele>486.39999389648</ele>
        <time>2019-05-04T12:21:54.000Z</time>
      </trkpt>
      <trkpt lat="43.40467" lon="6.62495">
        <ele>486.20001220703</ele>
        <time>2019-05-04T12:22:03.000Z</time>
      </trkpt>
      <trkpt lat="43.40467" lon="6.62494">
        <ele>486.60000610352</ele>
        <time>2019-05-04T12:22:24.000Z</time>
      </trkpt>
      <trkpt lat="43.40467" lon="6.62494">
        <ele>486.39999389648</ele>
        <time>2019-05-04T12:22:32.000Z</time>
      </trkpt>
      <trkpt lat="43.40467" lon="6.62494">
        <ele>486.39999389648</ele>
        <time>2019-05-04T12:22:49.000Z</time>
      </trkpt>
      <trkpt lat="43.40467" lon="6.62494">
        <ele>486.60000610352</ele>
        <time>2019-05-04T12:23:11.000Z</time>
      </trkpt>
      <trkpt lat="43.40466" lon="6.62494">
        <ele>486.60000610352</ele>
        <time>2019-05-04T12:23:23.000Z</time>
      </trkpt>
      <trkpt lat="43.40463" lon="6.62494">
        <ele>486.79998779297</ele>
        <time>2019-05-04T12:23:25.000Z</time>
      </trkpt>
      <trkpt lat="43.40455" lon="6.6249">
        <ele>486.20001220703</ele>
        <time>2019-05-04T12:23:29.000Z</time>
      </trkpt>
      <trkpt lat="43.40453" lon="6.62491">
        <ele>486</ele>
        <time>2019-05-04T12:23:30.000Z</time>
      </trkpt>
      <trkpt lat="43.40451" lon="6.62492">
        <ele>485.39999389648</ele>
        <time>2019-05-04T12:23:31.000Z</time>
      </trkpt>
      <trkpt lat="43.40446" lon="6.62493">
        <ele>484.20001220703</ele>
        <time>2019-05-04T12:23:33.000Z</time>
      </trkpt>
      <trkpt lat="43.4044" lon="6.62494">
        <ele>483.60000610352</ele>
        <time>2019-05-04T12:23:35.000Z</time>
      </trkpt>
      <trkpt lat="43.40439" lon="6.62495">
        <ele>483</ele>
        <time>2019-05-04T12:23:36.000Z</time>
      </trkpt>
      <trkpt lat="43.40436" lon="6.625">
        <ele>482.39999389648</ele>
        <time>2019-05-04T12:23:38.000Z</time>
      </trkpt>
      <trkpt lat="43.40433" lon="6.62502">
        <ele>481</ele>
        <time>2019-05-04T12:23:39.000Z</time>
      </trkpt>
      <trkpt lat="43.40428" lon="6.62507">
        <ele>479.20001220703</ele>
        <time>2019-05-04T12:23:41.000Z</time>
      </trkpt>
      <trkpt lat="43.40422" lon="6.6251">
        <ele>477.60000610352</ele>
        <time>2019-05-04T12:23:43.000Z</time>
      </trkpt>
      <trkpt lat="43.4042" lon="6.6251">
        <ele>477.20001220703</ele>
        <time>2019-05-04T12:23:44.000Z</time>
      </trkpt>
      <trkpt lat="43.40415" lon="6.62509">
        <ele>476</ele>
        <time>2019-05-04T12:23:46.000Z</time>
      </trkpt>
      <trkpt lat="43.4041" lon="6.62509">
        <ele>474.39999389648</ele>
        <time>2019-05-04T12:23:48.000Z</time>
      </trkpt>
      <trkpt lat="43.40409" lon="6.62509">
        <ele>473.39999389648</ele>
        <time>2019-05-04T12:23:49.000Z</time>
      </trkpt>
      <trkpt lat="43.40409" lon="6.62509">
        <ele>471.39999389648</ele>
        <time>2019-05-04T12:23:51.000Z</time>
      </trkpt>
      <trkpt lat="43.40409" lon="6.62509">
        <ele>470.20001220703</ele>
        <time>2019-05-04T12:23:54.000Z</time>
      </trkpt>
      <trkpt lat="43.40408" lon="6.62509">
        <ele>470.20001220703</ele>
        <time>2019-05-04T12:24:14.000Z</time>
      </trkpt>
      <trkpt lat="43.40404" lon="6.62511">
        <ele>469.79998779297</ele>
        <time>2019-05-04T12:24:23.000Z</time>
      </trkpt>
      <trkpt lat="43.40399" lon="6.6251">
        <ele>469</ele>
        <time>2019-05-04T12:24:26.000Z</time>
      </trkpt>
      <trkpt lat="43.40393" lon="6.62513">
        <ele>467.60000610352</ele>
        <time>2019-05-04T12:24:29.000Z</time>
      </trkpt>
      <trkpt lat="43.40388" lon="6.6252">
        <ele>466.39999389648</ele>
        <time>2019-05-04T12:24:31.000Z</time>
      </trkpt>
      <trkpt lat="43.40385" lon="6.62528">
        <ele>465.60000610352</ele>
        <time>2019-05-04T12:24:33.000Z</time>
      </trkpt>
      <trkpt lat="43.40382" lon="6.62531">
        <ele>464.79998779297</ele>
        <time>2019-05-04T12:24:34.000Z</time>
      </trkpt>
      <trkpt lat="43.4038" lon="6.62533">
        <ele>464.20001220703</ele>
        <time>2019-05-04T12:24:35.000Z</time>
      </trkpt>
      <trkpt lat="43.40377" lon="6.62534">
        <ele>463.79998779297</ele>
        <time>2019-05-04T12:24:36.000Z</time>
      </trkpt>
      <trkpt lat="43.40374" lon="6.62536">
        <ele>463</ele>
        <time>2019-05-04T12:24:37.000Z</time>
      </trkpt>
      <trkpt lat="43.40367" lon="6.62543">
        <ele>461.60000610352</ele>
        <time>2019-05-04T12:24:39.000Z</time>
      </trkpt>
      <trkpt lat="43.40364" lon="6.62545">
        <ele>460.79998779297</ele>
        <time>2019-05-04T12:24:40.000Z</time>
      </trkpt>
      <trkpt lat="43.40361" lon="6.62547">
        <ele>460</ele>
        <time>2019-05-04T12:24:41.000Z</time>
      </trkpt>
      <trkpt lat="43.40352" lon="6.6255">
        <ele>459.20001220703</ele>
        <time>2019-05-04T12:24:44.000Z</time>
      </trkpt>
      <trkpt lat="43.40344" lon="6.6255">
        <ele>458.60000610352</ele>
        <time>2019-05-04T12:24:47.000Z</time>
      </trkpt>
      <trkpt lat="43.40341" lon="6.62551">
        <ele>457.79998779297</ele>
        <time>2019-05-04T12:24:48.000Z</time>
      </trkpt>
      <trkpt lat="43.40338" lon="6.62553">
        <ele>457.20001220703</ele>
        <time>2019-05-04T12:24:49.000Z</time>
      </trkpt>
      <trkpt lat="43.4033" lon="6.62565">
        <ele>455</ele>
        <time>2019-05-04T12:24:52.000Z</time>
      </trkpt>
      <trkpt lat="43.40329" lon="6.6257">
        <ele>454.20001220703</ele>
        <time>2019-05-04T12:24:53.000Z</time>
      </trkpt>
      <trkpt lat="43.40327" lon="6.62573">
        <ele>453.60000610352</ele>
        <time>2019-05-04T12:24:54.000Z</time>
      </trkpt>
      <trkpt lat="43.40323" lon="6.6258">
        <ele>453</ele>
        <time>2019-05-04T12:24:57.000Z</time>
      </trkpt>
      <trkpt lat="43.40321" lon="6.62582">
        <ele>453</ele>
        <time>2019-05-04T12:24:58.000Z</time>
      </trkpt>
      <trkpt lat="43.4032" lon="6.62584">
        <ele>453.39999389648</ele>
        <time>2019-05-04T12:24:59.000Z</time>
      </trkpt>
      <trkpt lat="43.40319" lon="6.62591">
        <ele>453.79998779297</ele>
        <time>2019-05-04T12:25:02.000Z</time>
      </trkpt>
      <trkpt lat="43.40319" lon="6.62595">
        <ele>454.79998779297</ele>
        <time>2019-05-04T12:25:06.000Z</time>
      </trkpt>
      <trkpt lat="43.40317" lon="6.626">
        <ele>455.79998779297</ele>
        <time>2019-05-04T12:25:10.000Z</time>
      </trkpt>
      <trkpt lat="43.40316" lon="6.62601">
        <ele>456</ele>
        <time>2019-05-04T12:25:12.000Z</time>
      </trkpt>
      <trkpt lat="43.40313" lon="6.62605">
        <ele>455.79998779297</ele>
        <time>2019-05-04T12:25:17.000Z</time>
      </trkpt>
      <trkpt lat="43.4031" lon="6.62606">
        <ele>455.79998779297</ele>
        <time>2019-05-04T12:25:19.000Z</time>
      </trkpt>
      <trkpt lat="43.40307" lon="6.62604">
        <ele>455.39999389648</ele>
        <time>2019-05-04T12:25:21.000Z</time>
      </trkpt>
      <trkpt lat="43.40302" lon="6.62604">
        <ele>454.60000610352</ele>
        <time>2019-05-04T12:25:23.000Z</time>
      </trkpt>
      <trkpt lat="43.40299" lon="6.62603">
        <ele>454.39999389648</ele>
        <time>2019-05-04T12:25:24.000Z</time>
      </trkpt>
      <trkpt lat="43.40296" lon="6.62601">
        <ele>454.20001220703</ele>
        <time>2019-05-04T12:25:25.000Z</time>
      </trkpt>
      <trkpt lat="43.40288" lon="6.62603">
        <ele>453.79998779297</ele>
        <time>2019-05-04T12:25:28.000Z</time>
      </trkpt>
      <trkpt lat="43.40285" lon="6.62603">
        <ele>453.39999389648</ele>
        <time>2019-05-04T12:25:29.000Z</time>
      </trkpt>
      <trkpt lat="43.40281" lon="6.62604">
        <ele>452.39999389648</ele>
        <time>2019-05-04T12:25:31.000Z</time>
      </trkpt>
      <trkpt lat="43.40279" lon="6.62605">
        <ele>452.20001220703</ele>
        <time>2019-05-04T12:25:32.000Z</time>
      </trkpt>
      <trkpt lat="43.40276" lon="6.62606">
        <ele>451.60000610352</ele>
        <time>2019-05-04T12:25:33.000Z</time>
      </trkpt>
      <trkpt lat="43.40272" lon="6.62608">
        <ele>451</ele>
        <time>2019-05-04T12:25:34.000Z</time>
      </trkpt>
      <trkpt lat="43.40267" lon="6.62609">
        <ele>450.79998779297</ele>
        <time>2019-05-04T12:25:35.000Z</time>
      </trkpt>
      <trkpt lat="43.40254" lon="6.62613">
        <ele>449.79998779297</ele>
        <time>2019-05-04T12:25:38.000Z</time>
      </trkpt>
      <trkpt lat="43.40251" lon="6.62614">
        <ele>449.39999389648</ele>
        <time>2019-05-04T12:25:39.000Z</time>
      </trkpt>
      <trkpt lat="43.40244" lon="6.62617">
        <ele>449</ele>
        <time>2019-05-04T12:25:41.000Z</time>
      </trkpt>
      <trkpt lat="43.40241" lon="6.62617">
        <ele>448.60000610352</ele>
        <time>2019-05-04T12:25:42.000Z</time>
      </trkpt>
      <trkpt lat="43.40238" lon="6.62619">
        <ele>448.60000610352</ele>
        <time>2019-05-04T12:25:43.000Z</time>
      </trkpt>
      <trkpt lat="43.40224" lon="6.62627">
        <ele>448.20001220703</ele>
        <time>2019-05-04T12:25:47.000Z</time>
      </trkpt>
      <trkpt lat="43.4022" lon="6.62628">
        <ele>448.20001220703</ele>
        <time>2019-05-04T12:25:48.000Z</time>
      </trkpt>
      <trkpt lat="43.40216" lon="6.62629">
        <ele>447.20001220703</ele>
        <time>2019-05-04T12:25:49.000Z</time>
      </trkpt>
      <trkpt lat="43.40209" lon="6.62634">
        <ele>446</ele>
        <time>2019-05-04T12:25:51.000Z</time>
      </trkpt>
      <trkpt lat="43.40201" lon="6.62639">
        <ele>444.60000610352</ele>
        <time>2019-05-04T12:25:53.000Z</time>
      </trkpt>
      <trkpt lat="43.4019" lon="6.62648">
        <ele>443.79998779297</ele>
        <time>2019-05-04T12:25:56.000Z</time>
      </trkpt>
      <trkpt lat="43.40186" lon="6.62651">
        <ele>443.20001220703</ele>
        <time>2019-05-04T12:25:57.000Z</time>
      </trkpt>
      <trkpt lat="43.40179" lon="6.62658">
        <ele>442.39999389648</ele>
        <time>2019-05-04T12:25:59.000Z</time>
      </trkpt>
      <trkpt lat="43.40176" lon="6.62661">
        <ele>441.79998779297</ele>
        <time>2019-05-04T12:26:00.000Z</time>
      </trkpt>
      <trkpt lat="43.40169" lon="6.62665">
        <ele>440.39999389648</ele>
        <time>2019-05-04T12:26:02.000Z</time>
      </trkpt>
      <trkpt lat="43.40154" lon="6.62668">
        <ele>440</ele>
        <time>2019-05-04T12:26:06.000Z</time>
      </trkpt>
      <trkpt lat="43.4015" lon="6.62678">
        <ele>440.60000610352</ele>
        <time>2019-05-04T12:26:09.000Z</time>
      </trkpt>
      <trkpt lat="43.40139" lon="6.62692">
        <ele>440.39999389648</ele>
        <time>2019-05-04T12:26:13.000Z</time>
      </trkpt>
      <trkpt lat="43.40133" lon="6.62707">
        <ele>440.20001220703</ele>
        <time>2019-05-04T12:26:16.000Z</time>
      </trkpt>
      <trkpt lat="43.4013" lon="6.6271">
        <ele>439.79998779297</ele>
        <time>2019-05-04T12:26:17.000Z</time>
      </trkpt>
      <trkpt lat="43.40124" lon="6.62708">
        <ele>439.39999389648</ele>
        <time>2019-05-04T12:26:20.000Z</time>
      </trkpt>
      <trkpt lat="43.40121" lon="6.6271">
        <ele>439.39999389648</ele>
        <time>2019-05-04T12:26:21.000Z</time>
      </trkpt>
      <trkpt lat="43.40116" lon="6.62717">
        <ele>439.20001220703</ele>
        <time>2019-05-04T12:26:23.000Z</time>
      </trkpt>
      <trkpt lat="43.40114" lon="6.62724">
        <ele>437.79998779297</ele>
        <time>2019-05-04T12:26:25.000Z</time>
      </trkpt>
      <trkpt lat="43.40112" lon="6.62731">
        <ele>437</ele>
        <time>2019-05-04T12:26:27.000Z</time>
      </trkpt>
      <trkpt lat="43.40111" lon="6.62734">
        <ele>436.60000610352</ele>
        <time>2019-05-04T12:26:28.000Z</time>
      </trkpt>
      <trkpt lat="43.40106" lon="6.62743">
        <ele>436.79998779297</ele>
        <time>2019-05-04T12:26:31.000Z</time>
      </trkpt>
      <trkpt lat="43.40105" lon="6.62748">
        <ele>437.20001220703</ele>
        <time>2019-05-04T12:26:33.000Z</time>
      </trkpt>
      <trkpt lat="43.40104" lon="6.62753">
        <ele>437.20001220703</ele>
        <time>2019-05-04T12:26:35.000Z</time>
      </trkpt>
      <trkpt lat="43.40105" lon="6.62755">
        <ele>437.20001220703</ele>
        <time>2019-05-04T12:26:36.000Z</time>
      </trkpt>
      <trkpt lat="43.40102" lon="6.6276">
        <ele>437.20001220703</ele>
        <time>2019-05-04T12:26:40.000Z</time>
      </trkpt>
      <trkpt lat="43.40099" lon="6.62762">
        <ele>438</ele>
        <time>2019-05-04T12:26:42.000Z</time>
      </trkpt>
      <trkpt lat="43.40093" lon="6.62766">
        <ele>437.79998779297</ele>
        <time>2019-05-04T12:26:45.000Z</time>
      </trkpt>
      <trkpt lat="43.40092" lon="6.62768">
        <ele>437.60000610352</ele>
        <time>2019-05-04T12:26:46.000Z</time>
      </trkpt>
      <trkpt lat="43.40092" lon="6.62774">
        <ele>438</ele>
        <time>2019-05-04T12:26:49.000Z</time>
      </trkpt>
      <trkpt lat="43.40093" lon="6.62779">
        <ele>439.20001220703</ele>
        <time>2019-05-04T12:26:52.000Z</time>
      </trkpt>
      <trkpt lat="43.40093" lon="6.62781">
        <ele>439.60000610352</ele>
        <time>2019-05-04T12:26:53.000Z</time>
      </trkpt>
      <trkpt lat="43.40089" lon="6.62782">
        <ele>440.60000610352</ele>
        <time>2019-05-04T12:26:56.000Z</time>
      </trkpt>
      <trkpt lat="43.40085" lon="6.62782">
        <ele>441.20001220703</ele>
        <time>2019-05-04T12:26:58.000Z</time>
      </trkpt>
      <trkpt lat="43.40081" lon="6.62785">
        <ele>441.60000610352</ele>
        <time>2019-05-04T12:27:00.000Z</time>
      </trkpt>
      <trkpt lat="43.4008" lon="6.62788">
        <ele>441.79998779297</ele>
        <time>2019-05-04T12:27:01.000Z</time>
      </trkpt>
      <trkpt lat="43.4008" lon="6.62792">
        <ele>441.79998779297</ele>
        <time>2019-05-04T12:27:04.000Z</time>
      </trkpt>
      <trkpt lat="43.40076" lon="6.628">
        <ele>442.39999389648</ele>
        <time>2019-05-04T12:27:08.000Z</time>
      </trkpt>
      <trkpt lat="43.40069" lon="6.6281">
        <ele>441.60000610352</ele>
        <time>2019-05-04T12:27:12.000Z</time>
      </trkpt>
      <trkpt lat="43.40069" lon="6.62813">
        <ele>441.20001220703</ele>
        <time>2019-05-04T12:27:13.000Z</time>
      </trkpt>
      <trkpt lat="43.40067" lon="6.62818">
        <ele>440.60000610352</ele>
        <time>2019-05-04T12:27:15.000Z</time>
      </trkpt>
      <trkpt lat="43.40063" lon="6.62824">
        <ele>440.79998779297</ele>
        <time>2019-05-04T12:27:17.000Z</time>
      </trkpt>
      <trkpt lat="43.40061" lon="6.6283">
        <ele>441.20001220703</ele>
        <time>2019-05-04T12:27:19.000Z</time>
      </trkpt>
      <trkpt lat="43.4006" lon="6.62837">
        <ele>441.39999389648</ele>
        <time>2019-05-04T12:27:21.000Z</time>
      </trkpt>
      <trkpt lat="43.40059" lon="6.6284">
        <ele>441.60000610352</ele>
        <time>2019-05-04T12:27:22.000Z</time>
      </trkpt>
      <trkpt lat="43.40057" lon="6.62848">
        <ele>441.79998779297</ele>
        <time>2019-05-04T12:27:24.000Z</time>
      </trkpt>
      <trkpt lat="43.40052" lon="6.62859">
        <ele>442</ele>
        <time>2019-05-04T12:27:27.000Z</time>
      </trkpt>
      <trkpt lat="43.40047" lon="6.62875">
        <ele>441.60000610352</ele>
        <time>2019-05-04T12:27:32.000Z</time>
      </trkpt>
      <trkpt lat="43.40046" lon="6.62877">
        <ele>441.60000610352</ele>
        <time>2019-05-04T12:27:33.000Z</time>
      </trkpt>
      <trkpt lat="43.40044" lon="6.62881">
        <ele>442</ele>
        <time>2019-05-04T12:27:35.000Z</time>
      </trkpt>
      <trkpt lat="43.40043" lon="6.6289">
        <ele>442</ele>
        <time>2019-05-04T12:27:39.000Z</time>
      </trkpt>
      <trkpt lat="43.40042" lon="6.62892">
        <ele>442</ele>
        <time>2019-05-04T12:27:40.000Z</time>
      </trkpt>
      <trkpt lat="43.40041" lon="6.62897">
        <ele>442.39999389648</ele>
        <time>2019-05-04T12:27:42.000Z</time>
      </trkpt>
      <trkpt lat="43.4004" lon="6.62899">
        <ele>442.60000610352</ele>
        <time>2019-05-04T12:27:43.000Z</time>
      </trkpt>
      <trkpt lat="43.40038" lon="6.62902">
        <ele>443</ele>
        <time>2019-05-04T12:27:45.000Z</time>
      </trkpt>
      <trkpt lat="43.40037" lon="6.62912">
        <ele>443.60000610352</ele>
        <time>2019-05-04T12:27:49.000Z</time>
      </trkpt>
      <trkpt lat="43.40036" lon="6.62915">
        <ele>443.60000610352</ele>
        <time>2019-05-04T12:27:50.000Z</time>
      </trkpt>
      <trkpt lat="43.40031" lon="6.62926">
        <ele>444.20001220703</ele>
        <time>2019-05-04T12:27:55.000Z</time>
      </trkpt>
      <trkpt lat="43.40029" lon="6.62932">
        <ele>444.39999389648</ele>
        <time>2019-05-04T12:27:57.000Z</time>
      </trkpt>
      <trkpt lat="43.40027" lon="6.6294">
        <ele>444.39999389648</ele>
        <time>2019-05-04T12:27:59.000Z</time>
      </trkpt>
      <trkpt lat="43.40023" lon="6.62961">
        <ele>444.20001220703</ele>
        <time>2019-05-04T12:28:04.000Z</time>
      </trkpt>
      <trkpt lat="43.40019" lon="6.62974">
        <ele>443.60000610352</ele>
        <time>2019-05-04T12:28:07.000Z</time>
      </trkpt>
      <trkpt lat="43.40014" lon="6.62977">
        <ele>442.79998779297</ele>
        <time>2019-05-04T12:28:09.000Z</time>
      </trkpt>
      <trkpt lat="43.40012" lon="6.62979">
        <ele>442.39999389648</ele>
        <time>2019-05-04T12:28:10.000Z</time>
      </trkpt>
      <trkpt lat="43.40011" lon="6.62981">
        <ele>442</ele>
        <time>2019-05-04T12:28:11.000Z</time>
      </trkpt>
      <trkpt lat="43.40012" lon="6.62986">
        <ele>441.20001220703</ele>
        <time>2019-05-04T12:28:13.000Z</time>
      </trkpt>
      <trkpt lat="43.40009" lon="6.62994">
        <ele>440.20001220703</ele>
        <time>2019-05-04T12:28:15.000Z</time>
      </trkpt>
      <trkpt lat="43.40007" lon="6.62998">
        <ele>439.39999389648</ele>
        <time>2019-05-04T12:28:16.000Z</time>
      </trkpt>
      <trkpt lat="43.40004" lon="6.63008">
        <ele>437.79998779297</ele>
        <time>2019-05-04T12:28:18.000Z</time>
      </trkpt>
      <trkpt lat="43.40003" lon="6.63014">
        <ele>437</ele>
        <time>2019-05-04T12:28:19.000Z</time>
      </trkpt>
      <trkpt lat="43.40002" lon="6.63019">
        <ele>436.20001220703</ele>
        <time>2019-05-04T12:28:20.000Z</time>
      </trkpt>
      <trkpt lat="43.39999" lon="6.63027">
        <ele>435</ele>
        <time>2019-05-04T12:28:22.000Z</time>
      </trkpt>
      <trkpt lat="43.39992" lon="6.63038">
        <ele>434.60000610352</ele>
        <time>2019-05-04T12:28:26.000Z</time>
      </trkpt>
      <trkpt lat="43.39987" lon="6.63045">
        <ele>434.39999389648</ele>
        <time>2019-05-04T12:28:28.000Z</time>
      </trkpt>
      <trkpt lat="43.39984" lon="6.6305">
        <ele>434.20001220703</ele>
        <time>2019-05-04T12:28:29.000Z</time>
      </trkpt>
      <trkpt lat="43.39981" lon="6.63053">
        <ele>434.20001220703</ele>
        <time>2019-05-04T12:28:30.000Z</time>
      </trkpt>
      <trkpt lat="43.39966" lon="6.63061">
        <ele>434</ele>
        <time>2019-05-04T12:28:34.000Z</time>
      </trkpt>
      <trkpt lat="43.39957" lon="6.63075">
        <ele>433.39999389648</ele>
        <time>2019-05-04T12:28:38.000Z</time>
      </trkpt>
      <trkpt lat="43.39955" lon="6.63082">
        <ele>434</ele>
        <time>2019-05-04T12:28:41.000Z</time>
      </trkpt>
      <trkpt lat="43.39954" lon="6.63081">
        <ele>434.39999389648</ele>
        <time>2019-05-04T12:28:42.000Z</time>
      </trkpt>
      <trkpt lat="43.39954" lon="6.63084">
        <ele>435.60000610352</ele>
        <time>2019-05-04T12:28:44.000Z</time>
      </trkpt>
      <trkpt lat="43.39954" lon="6.63084">
        <ele>436.60000610352</ele>
        <time>2019-05-04T12:28:47.000Z</time>
      </trkpt>
      <trkpt lat="43.39954" lon="6.63084">
        <ele>436.79998779297</ele>
        <time>2019-05-04T12:28:48.000Z</time>
      </trkpt>
      <trkpt lat="43.39954" lon="6.63086">
        <ele>436.79998779297</ele>
        <time>2019-05-04T12:28:53.000Z</time>
      </trkpt>
      <trkpt lat="43.39953" lon="6.63088">
        <ele>436.79998779297</ele>
        <time>2019-05-04T12:28:55.000Z</time>
      </trkpt>
      <trkpt lat="43.3995" lon="6.63094">
        <ele>437.79998779297</ele>
        <time>2019-05-04T12:29:00.000Z</time>
      </trkpt>
      <trkpt lat="43.39949" lon="6.63097">
        <ele>437.79998779297</ele>
        <time>2019-05-04T12:29:02.000Z</time>
      </trkpt>
      <trkpt lat="43.39945" lon="6.63102">
        <ele>438.39999389648</ele>
        <time>2019-05-04T12:29:07.000Z</time>
      </trkpt>
      <trkpt lat="43.39938" lon="6.63111">
        <ele>438</ele>
        <time>2019-05-04T12:29:12.000Z</time>
      </trkpt>
      <trkpt lat="43.39935" lon="6.63114">
        <ele>438.20001220703</ele>
        <time>2019-05-04T12:29:14.000Z</time>
      </trkpt>
      <trkpt lat="43.39931" lon="6.63113">
        <ele>438.39999389648</ele>
        <time>2019-05-04T12:29:16.000Z</time>
      </trkpt>
      <trkpt lat="43.39924" lon="6.63115">
        <ele>437.79998779297</ele>
        <time>2019-05-04T12:29:19.000Z</time>
      </trkpt>
      <trkpt lat="43.39922" lon="6.63117">
        <ele>437.20001220703</ele>
        <time>2019-05-04T12:29:20.000Z</time>
      </trkpt>
      <trkpt lat="43.39919" lon="6.63125">
        <ele>436</ele>
        <time>2019-05-04T12:29:22.000Z</time>
      </trkpt>
      <trkpt lat="43.39917" lon="6.63134">
        <ele>435</ele>
        <time>2019-05-04T12:29:24.000Z</time>
      </trkpt>
      <trkpt lat="43.39912" lon="6.63154">
        <ele>434.79998779297</ele>
        <time>2019-05-04T12:29:29.000Z</time>
      </trkpt>
      <trkpt lat="43.39911" lon="6.63157">
        <ele>434.60000610352</ele>
        <time>2019-05-04T12:29:30.000Z</time>
      </trkpt>
      <trkpt lat="43.39907" lon="6.63165">
        <ele>433.79998779297</ele>
        <time>2019-05-04T12:29:33.000Z</time>
      </trkpt>
      <trkpt lat="43.39902" lon="6.63185">
        <ele>432.79998779297</ele>
        <time>2019-05-04T12:29:38.000Z</time>
      </trkpt>
      <trkpt lat="43.399" lon="6.63188">
        <ele>432.20001220703</ele>
        <time>2019-05-04T12:29:39.000Z</time>
      </trkpt>
      <trkpt lat="43.39897" lon="6.63199">
        <ele>431</ele>
        <time>2019-05-04T12:29:42.000Z</time>
      </trkpt>
      <trkpt lat="43.39893" lon="6.63201">
        <ele>430</ele>
        <time>2019-05-04T12:29:44.000Z</time>
      </trkpt>
      <trkpt lat="43.39891" lon="6.63201">
        <ele>429.39999389648</ele>
        <time>2019-05-04T12:29:45.000Z</time>
      </trkpt>
      <trkpt lat="43.3989" lon="6.63199">
        <ele>428.39999389648</ele>
        <time>2019-05-04T12:29:46.000Z</time>
      </trkpt>
      <trkpt lat="43.39887" lon="6.63197">
        <ele>426.79998779297</ele>
        <time>2019-05-04T12:29:48.000Z</time>
      </trkpt>
      <trkpt lat="43.39883" lon="6.63196">
        <ele>425.79998779297</ele>
        <time>2019-05-04T12:29:50.000Z</time>
      </trkpt>
      <trkpt lat="43.3988" lon="6.63194">
        <ele>424.60000610352</ele>
        <time>2019-05-04T12:29:53.000Z</time>
      </trkpt>
      <trkpt lat="43.39877" lon="6.63191">
        <ele>423</ele>
        <time>2019-05-04T12:29:55.000Z</time>
      </trkpt>
      <trkpt lat="43.39875" lon="6.63189">
        <ele>422.39999389648</ele>
        <time>2019-05-04T12:29:56.000Z</time>
      </trkpt>
      <trkpt lat="43.39874" lon="6.63184">
        <ele>421</ele>
        <time>2019-05-04T12:29:58.000Z</time>
      </trkpt>
      <trkpt lat="43.39873" lon="6.63182">
        <ele>420.20001220703</ele>
        <time>2019-05-04T12:29:59.000Z</time>
      </trkpt>
      <trkpt lat="43.39872" lon="6.63182">
        <ele>419.79998779297</ele>
        <time>2019-05-04T12:30:00.000Z</time>
      </trkpt>
      <trkpt lat="43.3987" lon="6.63183">
        <ele>418.20001220703</ele>
        <time>2019-05-04T12:30:02.000Z</time>
      </trkpt>
      <trkpt lat="43.39869" lon="6.63184">
        <ele>417.79998779297</ele>
        <time>2019-05-04T12:30:03.000Z</time>
      </trkpt>
      <trkpt lat="43.39867" lon="6.63185">
        <ele>416.79998779297</ele>
        <time>2019-05-04T12:30:05.000Z</time>
      </trkpt>
      <trkpt lat="43.39866" lon="6.63187">
        <ele>415.79998779297</ele>
        <time>2019-05-04T12:30:07.000Z</time>
      </trkpt>
      <trkpt lat="43.39865" lon="6.6319">
        <ele>415.39999389648</ele>
        <time>2019-05-04T12:30:08.000Z</time>
      </trkpt>
      <trkpt lat="43.39863" lon="6.63197">
        <ele>414.60000610352</ele>
        <time>2019-05-04T12:30:10.000Z</time>
      </trkpt>
      <trkpt lat="43.39861" lon="6.63206">
        <ele>413.79998779297</ele>
        <time>2019-05-04T12:30:12.000Z</time>
      </trkpt>
      <trkpt lat="43.39859" lon="6.63209">
        <ele>413.20001220703</ele>
        <time>2019-05-04T12:30:13.000Z</time>
      </trkpt>
      <trkpt lat="43.39854" lon="6.6322">
        <ele>411.39999389648</ele>
        <time>2019-05-04T12:30:16.000Z</time>
      </trkpt>
      <trkpt lat="43.39853" lon="6.63229">
        <ele>409.79998779297</ele>
        <time>2019-05-04T12:30:19.000Z</time>
      </trkpt>
      <trkpt lat="43.39853" lon="6.63233">
        <ele>409.79998779297</ele>
        <time>2019-05-04T12:30:21.000Z</time>
      </trkpt>
      <trkpt lat="43.39852" lon="6.63235">
        <ele>410</ele>
        <time>2019-05-04T12:30:22.000Z</time>
      </trkpt>
      <trkpt lat="43.39846" lon="6.6324">
        <ele>410.79998779297</ele>
        <time>2019-05-04T12:30:25.000Z</time>
      </trkpt>
      <trkpt lat="43.39837" lon="6.63247">
        <ele>409.60000610352</ele>
        <time>2019-05-04T12:30:29.000Z</time>
      </trkpt>
      <trkpt lat="43.39835" lon="6.63245">
        <ele>407.79998779297</ele>
        <time>2019-05-04T12:30:31.000Z</time>
      </trkpt>
      <trkpt lat="43.39832" lon="6.63245">
        <ele>406.39999389648</ele>
        <time>2019-05-04T12:30:33.000Z</time>
      </trkpt>
      <trkpt lat="43.39831" lon="6.63245">
        <ele>405.60000610352</ele>
        <time>2019-05-04T12:30:34.000Z</time>
      </trkpt>
      <trkpt lat="43.39829" lon="6.63245">
        <ele>405</ele>
        <time>2019-05-04T12:30:35.000Z</time>
      </trkpt>
      <trkpt lat="43.39825" lon="6.63244">
        <ele>403.79998779297</ele>
        <time>2019-05-04T12:30:37.000Z</time>
      </trkpt>
      <trkpt lat="43.39824" lon="6.63243">
        <ele>403.20001220703</ele>
        <time>2019-05-04T12:30:38.000Z</time>
      </trkpt>
      <trkpt lat="43.39823" lon="6.63243">
        <ele>402.60000610352</ele>
        <time>2019-05-04T12:30:39.000Z</time>
      </trkpt>
      <trkpt lat="43.39822" lon="6.63242">
        <ele>402.39999389648</ele>
        <time>2019-05-04T12:30:40.000Z</time>
      </trkpt>
      <trkpt lat="43.39821" lon="6.63243">
        <ele>401.20001220703</ele>
        <time>2019-05-04T12:30:42.000Z</time>
      </trkpt>
      <trkpt lat="43.39818" lon="6.63245">
        <ele>400.60000610352</ele>
        <time>2019-05-04T12:30:44.000Z</time>
      </trkpt>
      <trkpt lat="43.39815" lon="6.63247">
        <ele>399.60000610352</ele>
        <time>2019-05-04T12:30:46.000Z</time>
      </trkpt>
      <trkpt lat="43.39812" lon="6.63248">
        <ele>398.20001220703</ele>
        <time>2019-05-04T12:30:48.000Z</time>
      </trkpt>
      <trkpt lat="43.39811" lon="6.6325">
        <ele>397.39999389648</ele>
        <time>2019-05-04T12:30:49.000Z</time>
      </trkpt>
      <trkpt lat="43.3981" lon="6.63253">
        <ele>396.39999389648</ele>
        <time>2019-05-04T12:30:50.000Z</time>
      </trkpt>
      <trkpt lat="43.3981" lon="6.6326">
        <ele>395.39999389648</ele>
        <time>2019-05-04T12:30:52.000Z</time>
      </trkpt>
      <trkpt lat="43.39808" lon="6.63263">
        <ele>395.20001220703</ele>
        <time>2019-05-04T12:30:53.000Z</time>
      </trkpt>
      <trkpt lat="43.39805" lon="6.6327">
        <ele>394.20001220703</ele>
        <time>2019-05-04T12:30:55.000Z</time>
      </trkpt>
      <trkpt lat="43.39803" lon="6.63274">
        <ele>393.60000610352</ele>
        <time>2019-05-04T12:30:56.000Z</time>
      </trkpt>
      <trkpt lat="43.39801" lon="6.63276">
        <ele>393.20001220703</ele>
        <time>2019-05-04T12:30:57.000Z</time>
      </trkpt>
      <trkpt lat="43.39797" lon="6.63284">
        <ele>391.60000610352</ele>
        <time>2019-05-04T12:30:59.000Z</time>
      </trkpt>
      <trkpt lat="43.39795" lon="6.63289">
        <ele>391.39999389648</ele>
        <time>2019-05-04T12:31:00.000Z</time>
      </trkpt>
      <trkpt lat="43.39793" lon="6.63294">
        <ele>390.60000610352</ele>
        <time>2019-05-04T12:31:01.000Z</time>
      </trkpt>
      <trkpt lat="43.3979" lon="6.63305">
        <ele>389.39999389648</ele>
        <time>2019-05-04T12:31:03.000Z</time>
      </trkpt>
      <trkpt lat="43.39787" lon="6.63308">
        <ele>388.39999389648</ele>
        <time>2019-05-04T12:31:04.000Z</time>
      </trkpt>
      <trkpt lat="43.39777" lon="6.63316">
        <ele>386.60000610352</ele>
        <time>2019-05-04T12:31:06.000Z</time>
      </trkpt>
      <trkpt lat="43.39769" lon="6.63325">
        <ele>384.79998779297</ele>
        <time>2019-05-04T12:31:08.000Z</time>
      </trkpt>
      <trkpt lat="43.39765" lon="6.63331">
        <ele>383.60000610352</ele>
        <time>2019-05-04T12:31:09.000Z</time>
      </trkpt>
      <trkpt lat="43.39758" lon="6.63342">
        <ele>381.79998779297</ele>
        <time>2019-05-04T12:31:11.000Z</time>
      </trkpt>
      <trkpt lat="43.39755" lon="6.63349">
        <ele>381.20001220703</ele>
        <time>2019-05-04T12:31:12.000Z</time>
      </trkpt>
      <trkpt lat="43.39752" lon="6.63355">
        <ele>380.39999389648</ele>
        <time>2019-05-04T12:31:13.000Z</time>
      </trkpt>
      <trkpt lat="43.39748" lon="6.63361">
        <ele>379.39999389648</ele>
        <time>2019-05-04T12:31:14.000Z</time>
      </trkpt>
      <trkpt lat="43.39744" lon="6.63366">
        <ele>378.39999389648</ele>
        <time>2019-05-04T12:31:15.000Z</time>
      </trkpt>
      <trkpt lat="43.39737" lon="6.63374">
        <ele>377</ele>
        <time>2019-05-04T12:31:17.000Z</time>
      </trkpt>
      <trkpt lat="43.39735" lon="6.63376">
        <ele>376.20001220703</ele>
        <time>2019-05-04T12:31:18.000Z</time>
      </trkpt>
      <trkpt lat="43.39734" lon="6.63378">
        <ele>375.60000610352</ele>
        <time>2019-05-04T12:31:19.000Z</time>
      </trkpt>
      <trkpt lat="43.39733" lon="6.63378">
        <ele>374.60000610352</ele>
        <time>2019-05-04T12:31:23.000Z</time>
      </trkpt>
      <trkpt lat="43.39733" lon="6.63378">
        <ele>374.60000610352</ele>
        <time>2019-05-04T12:31:24.000Z</time>
      </trkpt>
      <trkpt lat="43.39733" lon="6.63378">
        <ele>374.79998779297</ele>
        <time>2019-05-04T12:31:34.000Z</time>
      </trkpt>
      <trkpt lat="43.39733" lon="6.63379">
        <ele>374.20001220703</ele>
        <time>2019-05-04T12:31:54.000Z</time>
      </trkpt>
      <trkpt lat="43.39733" lon="6.63379">
        <ele>373.79998779297</ele>
        <time>2019-05-04T12:32:15.000Z</time>
      </trkpt>
      <trkpt lat="43.39733" lon="6.63379">
        <ele>373.79998779297</ele>
        <time>2019-05-04T12:32:36.000Z</time>
      </trkpt>
      <trkpt lat="43.39734" lon="6.63379">
        <ele>374.39999389648</ele>
        <time>2019-05-04T12:32:46.000Z</time>
      </trkpt>
      <trkpt lat="43.39733" lon="6.6338">
        <ele>374.39999389648</ele>
        <time>2019-05-04T12:33:02.000Z</time>
      </trkpt>
      <trkpt lat="43.39733" lon="6.6338">
        <ele>374.20001220703</ele>
        <time>2019-05-04T12:33:24.000Z</time>
      </trkpt>
      <trkpt lat="43.39732" lon="6.63381">
        <ele>374.20001220703</ele>
        <time>2019-05-04T12:33:36.000Z</time>
      </trkpt>
      <trkpt lat="43.39731" lon="6.63382">
        <ele>374.60000610352</ele>
        <time>2019-05-04T12:33:55.000Z</time>
      </trkpt>
      <trkpt lat="43.39724" lon="6.63391">
        <ele>374.60000610352</ele>
        <time>2019-05-04T12:34:01.000Z</time>
      </trkpt>
      <trkpt lat="43.3972" lon="6.63393">
        <ele>374.20001220703</ele>
        <time>2019-05-04T12:34:02.000Z</time>
      </trkpt>
      <trkpt lat="43.39715" lon="6.63396">
        <ele>373.60000610352</ele>
        <time>2019-05-04T12:34:03.000Z</time>
      </trkpt>
      <trkpt lat="43.39706" lon="6.63402">
        <ele>372.39999389648</ele>
        <time>2019-05-04T12:34:05.000Z</time>
      </trkpt>
      <trkpt lat="43.39697" lon="6.63409">
        <ele>371.20001220703</ele>
        <time>2019-05-04T12:34:07.000Z</time>
      </trkpt>
      <trkpt lat="43.3969" lon="6.63416">
        <ele>369.20001220703</ele>
        <time>2019-05-04T12:34:09.000Z</time>
      </trkpt>
      <trkpt lat="43.39687" lon="6.63425">
        <ele>367.39999389648</ele>
        <time>2019-05-04T12:34:11.000Z</time>
      </trkpt>
      <trkpt lat="43.39685" lon="6.63428">
        <ele>366</ele>
        <time>2019-05-04T12:34:12.000Z</time>
      </trkpt>
      <trkpt lat="43.39672" lon="6.6344">
        <ele>364.60000610352</ele>
        <time>2019-05-04T12:34:17.000Z</time>
      </trkpt>
      <trkpt lat="43.39668" lon="6.6345">
        <ele>364.20001220703</ele>
        <time>2019-05-04T12:34:19.000Z</time>
      </trkpt>
      <trkpt lat="43.39665" lon="6.63454">
        <ele>364</ele>
        <time>2019-05-04T12:34:20.000Z</time>
      </trkpt>
      <trkpt lat="43.39662" lon="6.63454">
        <ele>363.79998779297</ele>
        <time>2019-05-04T12:34:21.000Z</time>
      </trkpt>
      <trkpt lat="43.39647" lon="6.63451">
        <ele>364.39999389648</ele>
        <time>2019-05-04T12:34:24.000Z</time>
      </trkpt>
      <trkpt lat="43.39643" lon="6.63452">
        <ele>363.79998779297</ele>
        <time>2019-05-04T12:34:25.000Z</time>
      </trkpt>
      <trkpt lat="43.3964" lon="6.63453">
        <ele>362.79998779297</ele>
        <time>2019-05-04T12:34:26.000Z</time>
      </trkpt>
      <trkpt lat="43.39636" lon="6.63455">
        <ele>361.39999389648</ele>
        <time>2019-05-04T12:34:27.000Z</time>
      </trkpt>
      <trkpt lat="43.3963" lon="6.63455">
        <ele>360</ele>
        <time>2019-05-04T12:34:28.000Z</time>
      </trkpt>
      <trkpt lat="43.39626" lon="6.63455">
        <ele>359</ele>
        <time>2019-05-04T12:34:29.000Z</time>
      </trkpt>
      <trkpt lat="43.39621" lon="6.63454">
        <ele>357.79998779297</ele>
        <time>2019-05-04T12:34:30.000Z</time>
      </trkpt>
      <trkpt lat="43.39617" lon="6.63456">
        <ele>356.79998779297</ele>
        <time>2019-05-04T12:34:31.000Z</time>
      </trkpt>
      <trkpt lat="43.39614" lon="6.63461">
        <ele>356.20001220703</ele>
        <time>2019-05-04T12:34:32.000Z</time>
      </trkpt>
      <trkpt lat="43.39613" lon="6.63465">
        <ele>355.39999389648</ele>
        <time>2019-05-04T12:34:33.000Z</time>
      </trkpt>
      <trkpt lat="43.39608" lon="6.63478">
        <ele>353.79998779297</ele>
        <time>2019-05-04T12:34:35.000Z</time>
      </trkpt>
      <trkpt lat="43.39606" lon="6.63485">
        <ele>353.39999389648</ele>
        <time>2019-05-04T12:34:36.000Z</time>
      </trkpt>
      <trkpt lat="43.39603" lon="6.63492">
        <ele>352.60000610352</ele>
        <time>2019-05-04T12:34:37.000Z</time>
      </trkpt>
      <trkpt lat="43.39598" lon="6.63502">
        <ele>351.79998779297</ele>
        <time>2019-05-04T12:34:39.000Z</time>
      </trkpt>
      <trkpt lat="43.39595" lon="6.63506">
        <ele>351.60000610352</ele>
        <time>2019-05-04T12:34:40.000Z</time>
      </trkpt>
      <trkpt lat="43.39591" lon="6.63508">
        <ele>350.60000610352</ele>
        <time>2019-05-04T12:34:41.000Z</time>
      </trkpt>
      <trkpt lat="43.39586" lon="6.6351">
        <ele>350.39999389648</ele>
        <time>2019-05-04T12:34:42.000Z</time>
      </trkpt>
      <trkpt lat="43.39575" lon="6.63512">
        <ele>349</ele>
        <time>2019-05-04T12:34:44.000Z</time>
      </trkpt>
      <trkpt lat="43.39565" lon="6.63513">
        <ele>347.20001220703</ele>
        <time>2019-05-04T12:34:46.000Z</time>
      </trkpt>
      <trkpt lat="43.3956" lon="6.63515">
        <ele>346</ele>
        <time>2019-05-04T12:34:47.000Z</time>
      </trkpt>
      <trkpt lat="43.39554" lon="6.63517">
        <ele>345</ele>
        <time>2019-05-04T12:34:48.000Z</time>
      </trkpt>
      <trkpt lat="43.39548" lon="6.63515">
        <ele>344</ele>
        <time>2019-05-04T12:34:49.000Z</time>
      </trkpt>
      <trkpt lat="43.39544" lon="6.63513">
        <ele>342.60000610352</ele>
        <time>2019-05-04T12:34:50.000Z</time>
      </trkpt>
      <trkpt lat="43.39541" lon="6.63511">
        <ele>341.39999389648</ele>
        <time>2019-05-04T12:34:51.000Z</time>
      </trkpt>
      <trkpt lat="43.39537" lon="6.63509">
        <ele>340.39999389648</ele>
        <time>2019-05-04T12:34:52.000Z</time>
      </trkpt>
      <trkpt lat="43.39528" lon="6.63508">
        <ele>338.79998779297</ele>
        <time>2019-05-04T12:34:54.000Z</time>
      </trkpt>
      <trkpt lat="43.39522" lon="6.63517">
        <ele>337.60000610352</ele>
        <time>2019-05-04T12:34:56.000Z</time>
      </trkpt>
      <trkpt lat="43.39511" lon="6.63523">
        <ele>336.60000610352</ele>
        <time>2019-05-04T12:34:58.000Z</time>
      </trkpt>
      <trkpt lat="43.39505" lon="6.63524">
        <ele>335.39999389648</ele>
        <time>2019-05-04T12:34:59.000Z</time>
      </trkpt>
      <trkpt lat="43.39498" lon="6.63526">
        <ele>334.20001220703</ele>
        <time>2019-05-04T12:35:00.000Z</time>
      </trkpt>
      <trkpt lat="43.39492" lon="6.63527">
        <ele>333.20001220703</ele>
        <time>2019-05-04T12:35:01.000Z</time>
      </trkpt>
      <trkpt lat="43.39486" lon="6.63527">
        <ele>332</ele>
        <time>2019-05-04T12:35:02.000Z</time>
      </trkpt>
      <trkpt lat="43.39479" lon="6.63528">
        <ele>330.39999389648</ele>
        <time>2019-05-04T12:35:03.000Z</time>
      </trkpt>
      <trkpt lat="43.39472" lon="6.6353">
        <ele>330</ele>
        <time>2019-05-04T12:35:04.000Z</time>
      </trkpt>
      <trkpt lat="43.39466" lon="6.63535">
        <ele>329.39999389648</ele>
        <time>2019-05-04T12:35:05.000Z</time>
      </trkpt>
      <trkpt lat="43.39458" lon="6.63547">
        <ele>327.79998779297</ele>
        <time>2019-05-04T12:35:07.000Z</time>
      </trkpt>
      <trkpt lat="43.39454" lon="6.63552">
        <ele>325.79998779297</ele>
        <time>2019-05-04T12:35:08.000Z</time>
      </trkpt>
      <trkpt lat="43.39452" lon="6.63557">
        <ele>324.39999389648</ele>
        <time>2019-05-04T12:35:09.000Z</time>
      </trkpt>
      <trkpt lat="43.39445" lon="6.63565">
        <ele>322.39999389648</ele>
        <time>2019-05-04T12:35:11.000Z</time>
      </trkpt>
      <trkpt lat="43.39441" lon="6.63568">
        <ele>321</ele>
        <time>2019-05-04T12:35:12.000Z</time>
      </trkpt>
      <trkpt lat="43.39432" lon="6.63573">
        <ele>319.39999389648</ele>
        <time>2019-05-04T12:35:14.000Z</time>
      </trkpt>
      <trkpt lat="43.39428" lon="6.63575">
        <ele>318.39999389648</ele>
        <time>2019-05-04T12:35:15.000Z</time>
      </trkpt>
      <trkpt lat="43.39426" lon="6.63579">
        <ele>317.39999389648</ele>
        <time>2019-05-04T12:35:16.000Z</time>
      </trkpt>
      <trkpt lat="43.39425" lon="6.63585">
        <ele>315.60000610352</ele>
        <time>2019-05-04T12:35:17.000Z</time>
      </trkpt>
      <trkpt lat="43.39424" lon="6.63591">
        <ele>314.60000610352</ele>
        <time>2019-05-04T12:35:18.000Z</time>
      </trkpt>
      <trkpt lat="43.39419" lon="6.63603">
        <ele>313.39999389648</ele>
        <time>2019-05-04T12:35:20.000Z</time>
      </trkpt>
      <trkpt lat="43.39418" lon="6.6361">
        <ele>311.39999389648</ele>
        <time>2019-05-04T12:35:21.000Z</time>
      </trkpt>
      <trkpt lat="43.39414" lon="6.63625">
        <ele>309.79998779297</ele>
        <time>2019-05-04T12:35:23.000Z</time>
      </trkpt>
      <trkpt lat="43.39408" lon="6.6364">
        <ele>308.79998779297</ele>
        <time>2019-05-04T12:35:25.000Z</time>
      </trkpt>
      <trkpt lat="43.39404" lon="6.63649">
        <ele>307.79998779297</ele>
        <time>2019-05-04T12:35:27.000Z</time>
      </trkpt>
      <trkpt lat="43.39402" lon="6.63654">
        <ele>307.39999389648</ele>
        <time>2019-05-04T12:35:28.000Z</time>
      </trkpt>
      <trkpt lat="43.39399" lon="6.63659">
        <ele>306.39999389648</ele>
        <time>2019-05-04T12:35:29.000Z</time>
      </trkpt>
      <trkpt lat="43.39399" lon="6.63665">
        <ele>306</ele>
        <time>2019-05-04T12:35:30.000Z</time>
      </trkpt>
      <trkpt lat="43.39399" lon="6.6367">
        <ele>305.60000610352</ele>
        <time>2019-05-04T12:35:31.000Z</time>
      </trkpt>
      <trkpt lat="43.394" lon="6.63673">
        <ele>304.39999389648</ele>
        <time>2019-05-04T12:35:32.000Z</time>
      </trkpt>
      <trkpt lat="43.39401" lon="6.63675">
        <ele>303</ele>
        <time>2019-05-04T12:35:34.000Z</time>
      </trkpt>
      <trkpt lat="43.39402" lon="6.63678">
        <ele>302.20001220703</ele>
        <time>2019-05-04T12:35:35.000Z</time>
      </trkpt>
      <trkpt lat="43.394" lon="6.63682">
        <ele>301.60000610352</ele>
        <time>2019-05-04T12:35:36.000Z</time>
      </trkpt>
      <trkpt lat="43.39399" lon="6.63685">
        <ele>301.39999389648</ele>
        <time>2019-05-04T12:35:37.000Z</time>
      </trkpt>
      <trkpt lat="43.39396" lon="6.63685">
        <ele>301.60000610352</ele>
        <time>2019-05-04T12:35:38.000Z</time>
      </trkpt>
      <trkpt lat="43.39391" lon="6.63683">
        <ele>301</ele>
        <time>2019-05-04T12:35:40.000Z</time>
      </trkpt>
      <trkpt lat="43.39386" lon="6.63686">
        <ele>300</ele>
        <time>2019-05-04T12:35:42.000Z</time>
      </trkpt>
      <trkpt lat="43.39384" lon="6.63688">
        <ele>299.79998779297</ele>
        <time>2019-05-04T12:35:43.000Z</time>
      </trkpt>
      <trkpt lat="43.3938" lon="6.63695">
        <ele>299</ele>
        <time>2019-05-04T12:35:46.000Z</time>
      </trkpt>
      <trkpt lat="43.39373" lon="6.63708">
        <ele>297.20001220703</ele>
        <time>2019-05-04T12:35:49.000Z</time>
      </trkpt>
      <trkpt lat="43.39371" lon="6.63714">
        <ele>296.20001220703</ele>
        <time>2019-05-04T12:35:50.000Z</time>
      </trkpt>
      <trkpt lat="43.39366" lon="6.6372">
        <ele>294.39999389648</ele>
        <time>2019-05-04T12:35:52.000Z</time>
      </trkpt>
      <trkpt lat="43.39363" lon="6.63722">
        <ele>293.20001220703</ele>
        <time>2019-05-04T12:35:53.000Z</time>
      </trkpt>
      <trkpt lat="43.39355" lon="6.63728">
        <ele>292</ele>
        <time>2019-05-04T12:35:55.000Z</time>
      </trkpt>
      <trkpt lat="43.39353" lon="6.63733">
        <ele>290.60000610352</ele>
        <time>2019-05-04T12:35:56.000Z</time>
      </trkpt>
      <trkpt lat="43.39348" lon="6.63737">
        <ele>289</ele>
        <time>2019-05-04T12:35:57.000Z</time>
      </trkpt>
      <trkpt lat="43.39343" lon="6.6374">
        <ele>287.39999389648</ele>
        <time>2019-05-04T12:35:58.000Z</time>
      </trkpt>
      <trkpt lat="43.39339" lon="6.63745">
        <ele>286</ele>
        <time>2019-05-04T12:35:59.000Z</time>
      </trkpt>
      <trkpt lat="43.39336" lon="6.63754">
        <ele>284.60000610352</ele>
        <time>2019-05-04T12:36:00.000Z</time>
      </trkpt>
      <trkpt lat="43.39333" lon="6.63761">
        <ele>283.39999389648</ele>
        <time>2019-05-04T12:36:01.000Z</time>
      </trkpt>
      <trkpt lat="43.39331" lon="6.63767">
        <ele>282.79998779297</ele>
        <time>2019-05-04T12:36:02.000Z</time>
      </trkpt>
      <trkpt lat="43.39329" lon="6.63771">
        <ele>282</ele>
        <time>2019-05-04T12:36:03.000Z</time>
      </trkpt>
      <trkpt lat="43.39326" lon="6.63774">
        <ele>281.20001220703</ele>
        <time>2019-05-04T12:36:04.000Z</time>
      </trkpt>
      <trkpt lat="43.39323" lon="6.63776">
        <ele>280.79998779297</ele>
        <time>2019-05-04T12:36:05.000Z</time>
      </trkpt>
      <trkpt lat="43.39315" lon="6.63788">
        <ele>278.39999389648</ele>
        <time>2019-05-04T12:36:08.000Z</time>
      </trkpt>
      <trkpt lat="43.39313" lon="6.6379">
        <ele>277.20001220703</ele>
        <time>2019-05-04T12:36:11.000Z</time>
      </trkpt>
      <trkpt lat="43.39313" lon="6.6379">
        <ele>276.20001220703</ele>
        <time>2019-05-04T12:36:20.000Z</time>
      </trkpt>
      <trkpt lat="43.39313" lon="6.6379">
        <ele>276.20001220703</ele>
        <time>2019-05-04T12:36:22.000Z</time>
      </trkpt>
      <trkpt lat="43.39313" lon="6.63791">
        <ele>276</ele>
        <time>2019-05-04T12:36:39.000Z</time>
      </trkpt>
      <trkpt lat="43.39313" lon="6.63792">
        <ele>275</ele>
        <time>2019-05-04T12:36:55.000Z</time>
      </trkpt>
      <trkpt lat="43.39313" lon="6.63792">
        <ele>274.60000610352</ele>
        <time>2019-05-04T12:36:57.000Z</time>
      </trkpt>
      <trkpt lat="43.39313" lon="6.63792">
        <ele>274</ele>
        <time>2019-05-04T12:37:01.000Z</time>
      </trkpt>
      <trkpt lat="43.39313" lon="6.63792">
        <ele>272.79998779297</ele>
        <time>2019-05-04T12:37:07.000Z</time>
      </trkpt>
      <trkpt lat="43.39313" lon="6.63792">
        <ele>271.60000610352</ele>
        <time>2019-05-04T12:37:14.000Z</time>
      </trkpt>
      <trkpt lat="43.39312" lon="6.63792">
        <ele>271.60000610352</ele>
        <time>2019-05-04T12:37:19.000Z</time>
      </trkpt>
      <trkpt lat="43.39312" lon="6.63793">
        <ele>271.79998779297</ele>
        <time>2019-05-04T12:37:27.000Z</time>
      </trkpt>
      <trkpt lat="43.39312" lon="6.63793">
        <ele>271.60000610352</ele>
        <time>2019-05-04T12:37:40.000Z</time>
      </trkpt>
      <trkpt lat="43.39312" lon="6.63792">
        <ele>272</ele>
        <time>2019-05-04T12:37:51.000Z</time>
      </trkpt>
      <trkpt lat="43.39311" lon="6.63793">
        <ele>271.60000610352</ele>
        <time>2019-05-04T12:38:02.000Z</time>
      </trkpt>
      <trkpt lat="43.39312" lon="6.63793">
        <ele>271.79998779297</ele>
        <time>2019-05-04T12:38:17.000Z</time>
      </trkpt>
      <trkpt lat="43.39311" lon="6.63793">
        <ele>271.79998779297</ele>
        <time>2019-05-04T12:38:41.000Z</time>
      </trkpt>
      <trkpt lat="43.39311" lon="6.63793">
        <ele>271.60000610352</ele>
        <time>2019-05-04T12:38:50.000Z</time>
      </trkpt>
      <trkpt lat="43.39309" lon="6.63801">
        <ele>271.60000610352</ele>
        <time>2019-05-04T12:38:54.000Z</time>
      </trkpt>
      <trkpt lat="43.39303" lon="6.63808">
        <ele>270.39999389648</ele>
        <time>2019-05-04T12:38:58.000Z</time>
      </trkpt>
      <trkpt lat="43.393" lon="6.63815">
        <ele>269.60000610352</ele>
        <time>2019-05-04T12:39:00.000Z</time>
      </trkpt>
      <trkpt lat="43.39298" lon="6.63819">
        <ele>268.79998779297</ele>
        <time>2019-05-04T12:39:01.000Z</time>
      </trkpt>
      <trkpt lat="43.39294" lon="6.63825">
        <ele>267</ele>
        <time>2019-05-04T12:39:03.000Z</time>
      </trkpt>
      <trkpt lat="43.39294" lon="6.63827">
        <ele>265.79998779297</ele>
        <time>2019-05-04T12:39:04.000Z</time>
      </trkpt>
      <trkpt lat="43.39293" lon="6.63831">
        <ele>264.79998779297</ele>
        <time>2019-05-04T12:39:05.000Z</time>
      </trkpt>
      <trkpt lat="43.3929" lon="6.63838">
        <ele>263</ele>
        <time>2019-05-04T12:39:07.000Z</time>
      </trkpt>
      <trkpt lat="43.39289" lon="6.6384">
        <ele>261.79998779297</ele>
        <time>2019-05-04T12:39:08.000Z</time>
      </trkpt>
      <trkpt lat="43.39288" lon="6.63844">
        <ele>260.79998779297</ele>
        <time>2019-05-04T12:39:09.000Z</time>
      </trkpt>
      <trkpt lat="43.39287" lon="6.63851">
        <ele>258.39999389648</ele>
        <time>2019-05-04T12:39:11.000Z</time>
      </trkpt>
      <trkpt lat="43.39287" lon="6.63853">
        <ele>257</ele>
        <time>2019-05-04T12:39:12.000Z</time>
      </trkpt>
      <trkpt lat="43.39287" lon="6.63856">
        <ele>256</ele>
        <time>2019-05-04T12:39:13.000Z</time>
      </trkpt>
      <trkpt lat="43.39287" lon="6.63859">
        <ele>254.80000305176</ele>
        <time>2019-05-04T12:39:14.000Z</time>
      </trkpt>
      <trkpt lat="43.39286" lon="6.63863">
        <ele>253.39999389648</ele>
        <time>2019-05-04T12:39:15.000Z</time>
      </trkpt>
      <trkpt lat="43.39282" lon="6.63869">
        <ele>251.80000305176</ele>
        <time>2019-05-04T12:39:17.000Z</time>
      </trkpt>
      <trkpt lat="43.39281" lon="6.6387">
        <ele>250.60000610352</ele>
        <time>2019-05-04T12:39:18.000Z</time>
      </trkpt>
      <trkpt lat="43.39282" lon="6.6387">
        <ele>249</ele>
        <time>2019-05-04T12:39:20.000Z</time>
      </trkpt>
      <trkpt lat="43.39282" lon="6.6387">
        <ele>247.60000610352</ele>
        <time>2019-05-04T12:39:22.000Z</time>
      </trkpt>
      <trkpt lat="43.39282" lon="6.6387">
        <ele>246.60000610352</ele>
        <time>2019-05-04T12:39:28.000Z</time>
      </trkpt>
      <trkpt lat="43.39281" lon="6.6387">
        <ele>246.39999389648</ele>
        <time>2019-05-04T12:39:29.000Z</time>
      </trkpt>
      <trkpt lat="43.3928" lon="6.63869">
        <ele>247</ele>
        <time>2019-05-04T12:39:35.000Z</time>
      </trkpt>
      <trkpt lat="43.3928" lon="6.6387">
        <ele>247.19999694824</ele>
        <time>2019-05-04T12:39:39.000Z</time>
      </trkpt>
      <trkpt lat="43.39277" lon="6.63872">
        <ele>247.19999694824</ele>
        <time>2019-05-04T12:39:41.000Z</time>
      </trkpt>
      <trkpt lat="43.39274" lon="6.63873">
        <ele>246.80000305176</ele>
        <time>2019-05-04T12:39:42.000Z</time>
      </trkpt>
      <trkpt lat="43.39268" lon="6.63874">
        <ele>245.39999389648</ele>
        <time>2019-05-04T12:39:45.000Z</time>
      </trkpt>
      <trkpt lat="43.39262" lon="6.63879">
        <ele>243.80000305176</ele>
        <time>2019-05-04T12:39:47.000Z</time>
      </trkpt>
      <trkpt lat="43.39261" lon="6.63887">
        <ele>242.60000610352</ele>
        <time>2019-05-04T12:39:49.000Z</time>
      </trkpt>
      <trkpt lat="43.39262" lon="6.63895">
        <ele>241.60000610352</ele>
        <time>2019-05-04T12:39:51.000Z</time>
      </trkpt>
      <trkpt lat="43.39262" lon="6.639">
        <ele>241.19999694824</ele>
        <time>2019-05-04T12:39:52.000Z</time>
      </trkpt>
      <trkpt lat="43.39261" lon="6.63906">
        <ele>240.80000305176</ele>
        <time>2019-05-04T12:39:53.000Z</time>
      </trkpt>
      <trkpt lat="43.39258" lon="6.63915">
        <ele>239.80000305176</ele>
        <time>2019-05-04T12:39:55.000Z</time>
      </trkpt>
      <trkpt lat="43.39257" lon="6.63917">
        <ele>239.39999389648</ele>
        <time>2019-05-04T12:39:56.000Z</time>
      </trkpt>
      <trkpt lat="43.39257" lon="6.63917">
        <ele>239.19999694824</ele>
        <time>2019-05-04T12:39:57.000Z</time>
      </trkpt>
      <trkpt lat="43.39257" lon="6.63916">
        <ele>238.80000305176</ele>
        <time>2019-05-04T12:39:58.000Z</time>
      </trkpt>
      <trkpt lat="43.39257" lon="6.63917">
        <ele>238.60000610352</ele>
        <time>2019-05-04T12:40:01.000Z</time>
      </trkpt>
      <trkpt lat="43.39257" lon="6.63922">
        <ele>238.39999389648</ele>
        <time>2019-05-04T12:40:14.000Z</time>
      </trkpt>
      <trkpt lat="43.39255" lon="6.63941">
        <ele>238.39999389648</ele>
        <time>2019-05-04T12:40:18.000Z</time>
      </trkpt>
      <trkpt lat="43.39252" lon="6.63956">
        <ele>237.60000610352</ele>
        <time>2019-05-04T12:40:20.000Z</time>
      </trkpt>
      <trkpt lat="43.39247" lon="6.63967">
        <ele>236</ele>
        <time>2019-05-04T12:40:22.000Z</time>
      </trkpt>
      <trkpt lat="43.39247" lon="6.63973">
        <ele>235.19999694824</ele>
        <time>2019-05-04T12:40:23.000Z</time>
      </trkpt>
      <trkpt lat="43.39249" lon="6.6398">
        <ele>234.80000305176</ele>
        <time>2019-05-04T12:40:24.000Z</time>
      </trkpt>
      <trkpt lat="43.3925" lon="6.63985">
        <ele>234.19999694824</ele>
        <time>2019-05-04T12:40:25.000Z</time>
      </trkpt>
      <trkpt lat="43.39252" lon="6.63993">
        <ele>233.60000610352</ele>
        <time>2019-05-04T12:40:28.000Z</time>
      </trkpt>
      <trkpt lat="43.3926" lon="6.63992">
        <ele>232.39999389648</ele>
        <time>2019-05-04T12:40:31.000Z</time>
      </trkpt>
      <trkpt lat="43.39263" lon="6.63991">
        <ele>232.19999694824</ele>
        <time>2019-05-04T12:40:32.000Z</time>
      </trkpt>
      <trkpt lat="43.39274" lon="6.63978">
        <ele>231.19999694824</ele>
        <time>2019-05-04T12:40:36.000Z</time>
      </trkpt>
      <trkpt lat="43.39279" lon="6.63973">
        <ele>231</ele>
        <time>2019-05-04T12:40:37.000Z</time>
      </trkpt>
      <trkpt lat="43.39291" lon="6.63965">
        <ele>229.39999389648</ele>
        <time>2019-05-04T12:40:39.000Z</time>
      </trkpt>
      <trkpt lat="43.39297" lon="6.63963">
        <ele>228.39999389648</ele>
        <time>2019-05-04T12:40:40.000Z</time>
      </trkpt>
      <trkpt lat="43.39301" lon="6.6396">
        <ele>227.19999694824</ele>
        <time>2019-05-04T12:40:41.000Z</time>
      </trkpt>
      <trkpt lat="43.39308" lon="6.63956">
        <ele>225.60000610352</ele>
        <time>2019-05-04T12:40:42.000Z</time>
      </trkpt>
      <trkpt lat="43.39318" lon="6.63949">
        <ele>224</ele>
        <time>2019-05-04T12:40:44.000Z</time>
      </trkpt>
      <trkpt lat="43.39324" lon="6.63946">
        <ele>223.39999389648</ele>
        <time>2019-05-04T12:40:45.000Z</time>
      </trkpt>
      <trkpt lat="43.39336" lon="6.63943">
        <ele>222.80000305176</ele>
        <time>2019-05-04T12:40:47.000Z</time>
      </trkpt>
      <trkpt lat="43.39343" lon="6.63941">
        <ele>222.60000610352</ele>
        <time>2019-05-04T12:40:48.000Z</time>
      </trkpt>
      <trkpt lat="43.39364" lon="6.63937">
        <ele>221</ele>
        <time>2019-05-04T12:40:51.000Z</time>
      </trkpt>
      <trkpt lat="43.3937" lon="6.63936">
        <ele>220.39999389648</ele>
        <time>2019-05-04T12:40:52.000Z</time>
      </trkpt>
      <trkpt lat="43.39376" lon="6.63937">
        <ele>219.60000610352</ele>
        <time>2019-05-04T12:40:53.000Z</time>
      </trkpt>
      <trkpt lat="43.39382" lon="6.63937">
        <ele>219</ele>
        <time>2019-05-04T12:40:54.000Z</time>
      </trkpt>
      <trkpt lat="43.39388" lon="6.63938">
        <ele>218.60000610352</ele>
        <time>2019-05-04T12:40:55.000Z</time>
      </trkpt>
      <trkpt lat="43.39409" lon="6.63945">
        <ele>216.80000305176</ele>
        <time>2019-05-04T12:40:58.000Z</time>
      </trkpt>
      <trkpt lat="43.39417" lon="6.63947">
        <ele>216</ele>
        <time>2019-05-04T12:40:59.000Z</time>
      </trkpt>
      <trkpt lat="43.39424" lon="6.63948">
        <ele>215.19999694824</ele>
        <time>2019-05-04T12:41:00.000Z</time>
      </trkpt>
      <trkpt lat="43.3943" lon="6.6395">
        <ele>214</ele>
        <time>2019-05-04T12:41:01.000Z</time>
      </trkpt>
      <trkpt lat="43.39436" lon="6.6395">
        <ele>212.80000305176</ele>
        <time>2019-05-04T12:41:02.000Z</time>
      </trkpt>
      <trkpt lat="43.39441" lon="6.63949">
        <ele>213</ele>
        <time>2019-05-04T12:41:03.000Z</time>
      </trkpt>
      <trkpt lat="43.39449" lon="6.63946">
        <ele>213</ele>
        <time>2019-05-04T12:41:05.000Z</time>
      </trkpt>
      <trkpt lat="43.39457" lon="6.63944">
        <ele>214.39999389648</ele>
        <time>2019-05-04T12:41:07.000Z</time>
      </trkpt>
      <trkpt lat="43.39461" lon="6.63943">
        <ele>214.80000305176</ele>
        <time>2019-05-04T12:41:08.000Z</time>
      </trkpt>
      <trkpt lat="43.39472" lon="6.63945">
        <ele>215.39999389648</ele>
        <time>2019-05-04T12:41:10.000Z</time>
      </trkpt>
      <trkpt lat="43.39477" lon="6.63949">
        <ele>215.19999694824</ele>
        <time>2019-05-04T12:41:11.000Z</time>
      </trkpt>
      <trkpt lat="43.39483" lon="6.63953">
        <ele>214.39999389648</ele>
        <time>2019-05-04T12:41:12.000Z</time>
      </trkpt>
      <trkpt lat="43.39489" lon="6.63958">
        <ele>213.80000305176</ele>
        <time>2019-05-04T12:41:13.000Z</time>
      </trkpt>
      <trkpt lat="43.395" lon="6.63963">
        <ele>212.60000610352</ele>
        <time>2019-05-04T12:41:15.000Z</time>
      </trkpt>
      <trkpt lat="43.39504" lon="6.63963">
        <ele>211.80000305176</ele>
        <time>2019-05-04T12:41:16.000Z</time>
      </trkpt>
      <trkpt lat="43.39509" lon="6.63963">
        <ele>211.60000610352</ele>
        <time>2019-05-04T12:41:17.000Z</time>
      </trkpt>
      <trkpt lat="43.39518" lon="6.6396">
        <ele>211.80000305176</ele>
        <time>2019-05-04T12:41:19.000Z</time>
      </trkpt>
      <trkpt lat="43.39529" lon="6.63955">
        <ele>212.19999694824</ele>
        <time>2019-05-04T12:41:21.000Z</time>
      </trkpt>
      <trkpt lat="43.39543" lon="6.63943">
        <ele>211.80000305176</ele>
        <time>2019-05-04T12:41:24.000Z</time>
      </trkpt>
      <trkpt lat="43.39547" lon="6.63939">
        <ele>211.60000610352</ele>
        <time>2019-05-04T12:41:25.000Z</time>
      </trkpt>
      <trkpt lat="43.39551" lon="6.63934">
        <ele>211.39999389648</ele>
        <time>2019-05-04T12:41:26.000Z</time>
      </trkpt>
      <trkpt lat="43.39565" lon="6.63927">
        <ele>211</ele>
        <time>2019-05-04T12:41:29.000Z</time>
      </trkpt>
      <trkpt lat="43.39577" lon="6.63931">
        <ele>210.80000305176</ele>
        <time>2019-05-04T12:41:33.000Z</time>
      </trkpt>
      <trkpt lat="43.39588" lon="6.63937">
        <ele>211.60000610352</ele>
        <time>2019-05-04T12:41:36.000Z</time>
      </trkpt>
      <trkpt lat="43.39594" lon="6.63944">
        <ele>211.80000305176</ele>
        <time>2019-05-04T12:41:38.000Z</time>
      </trkpt>
      <trkpt lat="43.39597" lon="6.63955">
        <ele>212</ele>
        <time>2019-05-04T12:41:40.000Z</time>
      </trkpt>
      <trkpt lat="43.39601" lon="6.63973">
        <ele>212</ele>
        <time>2019-05-04T12:41:43.000Z</time>
      </trkpt>
      <trkpt lat="43.39608" lon="6.63995">
        <ele>211.60000610352</ele>
        <time>2019-05-04T12:41:47.000Z</time>
      </trkpt>
      <trkpt lat="43.39612" lon="6.64002">
        <ele>211.60000610352</ele>
        <time>2019-05-04T12:41:49.000Z</time>
      </trkpt>
      <trkpt lat="43.39615" lon="6.64007">
        <ele>211.80000305176</ele>
        <time>2019-05-04T12:41:50.000Z</time>
      </trkpt>
      <trkpt lat="43.39635" lon="6.64023">
        <ele>211.80000305176</ele>
        <time>2019-05-04T12:41:54.000Z</time>
      </trkpt>
      <trkpt lat="43.39653" lon="6.64027">
        <ele>210</ele>
        <time>2019-05-04T12:41:57.000Z</time>
      </trkpt>
      <trkpt lat="43.3966" lon="6.64029">
        <ele>209.19999694824</ele>
        <time>2019-05-04T12:41:58.000Z</time>
      </trkpt>
      <trkpt lat="43.39667" lon="6.64032">
        <ele>207.60000610352</ele>
        <time>2019-05-04T12:41:59.000Z</time>
      </trkpt>
      <trkpt lat="43.39679" lon="6.6404">
        <ele>206.80000305176</ele>
        <time>2019-05-04T12:42:01.000Z</time>
      </trkpt>
      <trkpt lat="43.39684" lon="6.64044">
        <ele>206.19999694824</ele>
        <time>2019-05-04T12:42:02.000Z</time>
      </trkpt>
      <trkpt lat="43.39697" lon="6.64053">
        <ele>206</ele>
        <time>2019-05-04T12:42:05.000Z</time>
      </trkpt>
      <trkpt lat="43.39701" lon="6.64053">
        <ele>206.19999694824</ele>
        <time>2019-05-04T12:42:06.000Z</time>
      </trkpt>
      <trkpt lat="43.3971" lon="6.64055">
        <ele>207.39999389648</ele>
        <time>2019-05-04T12:42:08.000Z</time>
      </trkpt>
      <trkpt lat="43.39726" lon="6.64054">
        <ele>208.39999389648</ele>
        <time>2019-05-04T12:42:12.000Z</time>
      </trkpt>
      <trkpt lat="43.39736" lon="6.64052">
        <ele>208.80000305176</ele>
        <time>2019-05-04T12:42:14.000Z</time>
      </trkpt>
      <trkpt lat="43.39742" lon="6.64051">
        <ele>208.80000305176</ele>
        <time>2019-05-04T12:42:15.000Z</time>
      </trkpt>
      <trkpt lat="43.39749" lon="6.64054">
        <ele>208.60000610352</ele>
        <time>2019-05-04T12:42:16.000Z</time>
      </trkpt>
      <trkpt lat="43.3976" lon="6.64059">
        <ele>207.39999389648</ele>
        <time>2019-05-04T12:42:18.000Z</time>
      </trkpt>
      <trkpt lat="43.39764" lon="6.64063">
        <ele>206.60000610352</ele>
        <time>2019-05-04T12:42:19.000Z</time>
      </trkpt>
      <trkpt lat="43.39767" lon="6.64068">
        <ele>206.19999694824</ele>
        <time>2019-05-04T12:42:20.000Z</time>
      </trkpt>
      <trkpt lat="43.39769" lon="6.64073">
        <ele>205.39999389648</ele>
        <time>2019-05-04T12:42:21.000Z</time>
      </trkpt>
      <trkpt lat="43.39771" lon="6.64077">
        <ele>204.60000610352</ele>
        <time>2019-05-04T12:42:22.000Z</time>
      </trkpt>
      <trkpt lat="43.39774" lon="6.64082">
        <ele>204.19999694824</ele>
        <time>2019-05-04T12:42:23.000Z</time>
      </trkpt>
      <trkpt lat="43.39781" lon="6.64092">
        <ele>203</ele>
        <time>2019-05-04T12:42:25.000Z</time>
      </trkpt>
      <trkpt lat="43.39782" lon="6.64095">
        <ele>202</ele>
        <time>2019-05-04T12:42:26.000Z</time>
      </trkpt>
      <trkpt lat="43.39784" lon="6.64098">
        <ele>200.80000305176</ele>
        <time>2019-05-04T12:42:29.000Z</time>
      </trkpt>
      <trkpt lat="43.39798" lon="6.64101">
        <ele>200</ele>
        <time>2019-05-04T12:42:33.000Z</time>
      </trkpt>
      <trkpt lat="43.39808" lon="6.64105">
        <ele>199.39999389648</ele>
        <time>2019-05-04T12:42:35.000Z</time>
      </trkpt>
      <trkpt lat="43.39818" lon="6.64115">
        <ele>197.80000305176</ele>
        <time>2019-05-04T12:42:37.000Z</time>
      </trkpt>
      <trkpt lat="43.39825" lon="6.64126">
        <ele>196.19999694824</ele>
        <time>2019-05-04T12:42:39.000Z</time>
      </trkpt>
      <trkpt lat="43.39828" lon="6.64131">
        <ele>195.60000610352</ele>
        <time>2019-05-04T12:42:40.000Z</time>
      </trkpt>
      <trkpt lat="43.39826" lon="6.64138">
        <ele>194.80000305176</ele>
        <time>2019-05-04T12:42:41.000Z</time>
      </trkpt>
      <trkpt lat="43.39824" lon="6.64144">
        <ele>194.19999694824</ele>
        <time>2019-05-04T12:42:42.000Z</time>
      </trkpt>
      <trkpt lat="43.3982" lon="6.64148">
        <ele>193.60000610352</ele>
        <time>2019-05-04T12:42:43.000Z</time>
      </trkpt>
      <trkpt lat="43.39809" lon="6.64152">
        <ele>192</ele>
        <time>2019-05-04T12:42:45.000Z</time>
      </trkpt>
      <trkpt lat="43.39794" lon="6.64153">
        <ele>189.39999389648</ele>
        <time>2019-05-04T12:42:47.000Z</time>
      </trkpt>
      <trkpt lat="43.39786" lon="6.64152">
        <ele>188.39999389648</ele>
        <time>2019-05-04T12:42:48.000Z</time>
      </trkpt>
      <trkpt lat="43.39779" lon="6.64151">
        <ele>187.80000305176</ele>
        <time>2019-05-04T12:42:49.000Z</time>
      </trkpt>
      <trkpt lat="43.39766" lon="6.64149">
        <ele>186</ele>
        <time>2019-05-04T12:42:51.000Z</time>
      </trkpt>
      <trkpt lat="43.39752" lon="6.64146">
        <ele>184.60000610352</ele>
        <time>2019-05-04T12:42:53.000Z</time>
      </trkpt>
      <trkpt lat="43.39746" lon="6.64144">
        <ele>184.39999389648</ele>
        <time>2019-05-04T12:42:54.000Z</time>
      </trkpt>
      <trkpt lat="43.39728" lon="6.6414">
        <ele>183.80000305176</ele>
        <time>2019-05-04T12:42:57.000Z</time>
      </trkpt>
      <trkpt lat="43.39723" lon="6.64141">
        <ele>182.80000305176</ele>
        <time>2019-05-04T12:42:58.000Z</time>
      </trkpt>
      <trkpt lat="43.39718" lon="6.64141">
        <ele>182.80000305176</ele>
        <time>2019-05-04T12:42:59.000Z</time>
      </trkpt>
      <trkpt lat="43.39708" lon="6.6414">
        <ele>182.80000305176</ele>
        <time>2019-05-04T12:43:01.000Z</time>
      </trkpt>
      <trkpt lat="43.39686" lon="6.64135">
        <ele>183.60000610352</ele>
        <time>2019-05-04T12:43:05.000Z</time>
      </trkpt>
      <trkpt lat="43.39667" lon="6.64121">
        <ele>183.39999389648</ele>
        <time>2019-05-04T12:43:09.000Z</time>
      </trkpt>
      <trkpt lat="43.39662" lon="6.6412">
        <ele>183.19999694824</ele>
        <time>2019-05-04T12:43:10.000Z</time>
      </trkpt>
      <trkpt lat="43.39653" lon="6.64127">
        <ele>182.80000305176</ele>
        <time>2019-05-04T12:43:12.000Z</time>
      </trkpt>
      <trkpt lat="43.39638" lon="6.64144">
        <ele>181.80000305176</ele>
        <time>2019-05-04T12:43:15.000Z</time>
      </trkpt>
      <trkpt lat="43.39632" lon="6.64146">
        <ele>181.39999389648</ele>
        <time>2019-05-04T12:43:16.000Z</time>
      </trkpt>
      <trkpt lat="43.39618" lon="6.64148">
        <ele>180.80000305176</ele>
        <time>2019-05-04T12:43:18.000Z</time>
      </trkpt>
      <trkpt lat="43.39607" lon="6.64151">
        <ele>180</ele>
        <time>2019-05-04T12:43:20.000Z</time>
      </trkpt>
      <trkpt lat="43.39601" lon="6.64155">
        <ele>179.80000305176</ele>
        <time>2019-05-04T12:43:21.000Z</time>
      </trkpt>
      <trkpt lat="43.39595" lon="6.64158">
        <ele>179.60000610352</ele>
        <time>2019-05-04T12:43:22.000Z</time>
      </trkpt>
      <trkpt lat="43.3959" lon="6.6416">
        <ele>179.19999694824</ele>
        <time>2019-05-04T12:43:23.000Z</time>
      </trkpt>
      <trkpt lat="43.3957" lon="6.64171">
        <ele>178.19999694824</ele>
        <time>2019-05-04T12:43:26.000Z</time>
      </trkpt>
      <trkpt lat="43.39557" lon="6.6418">
        <ele>177.60000610352</ele>
        <time>2019-05-04T12:43:28.000Z</time>
      </trkpt>
      <trkpt lat="43.39546" lon="6.64189">
        <ele>176.60000610352</ele>
        <time>2019-05-04T12:43:30.000Z</time>
      </trkpt>
      <trkpt lat="43.39542" lon="6.64194">
        <ele>175.80000305176</ele>
        <time>2019-05-04T12:43:31.000Z</time>
      </trkpt>
      <trkpt lat="43.39537" lon="6.64199">
        <ele>174.80000305176</ele>
        <time>2019-05-04T12:43:32.000Z</time>
      </trkpt>
      <trkpt lat="43.39532" lon="6.64201">
        <ele>174.19999694824</ele>
        <time>2019-05-04T12:43:33.000Z</time>
      </trkpt>
      <trkpt lat="43.39527" lon="6.642">
        <ele>173.39999389648</ele>
        <time>2019-05-04T12:43:34.000Z</time>
      </trkpt>
      <trkpt lat="43.39523" lon="6.64195">
        <ele>172.60000610352</ele>
        <time>2019-05-04T12:43:35.000Z</time>
      </trkpt>
      <trkpt lat="43.39521" lon="6.64188">
        <ele>172.19999694824</ele>
        <time>2019-05-04T12:43:36.000Z</time>
      </trkpt>
      <trkpt lat="43.39519" lon="6.64174">
        <ele>171.19999694824</ele>
        <time>2019-05-04T12:43:38.000Z</time>
      </trkpt>
      <trkpt lat="43.3951" lon="6.64156">
        <ele>170</ele>
        <time>2019-05-04T12:43:41.000Z</time>
      </trkpt>
      <trkpt lat="43.39505" lon="6.64149">
        <ele>169.60000610352</ele>
        <time>2019-05-04T12:43:42.000Z</time>
      </trkpt>
      <trkpt lat="43.39502" lon="6.64143">
        <ele>169.39999389648</ele>
        <time>2019-05-04T12:43:43.000Z</time>
      </trkpt>
      <trkpt lat="43.39493" lon="6.64136">
        <ele>168.80000305176</ele>
        <time>2019-05-04T12:43:45.000Z</time>
      </trkpt>
      <trkpt lat="43.39488" lon="6.64137">
        <ele>168.80000305176</ele>
        <time>2019-05-04T12:43:46.000Z</time>
      </trkpt>
      <trkpt lat="43.39485" lon="6.64139">
        <ele>167.60000610352</ele>
        <time>2019-05-04T12:43:48.000Z</time>
      </trkpt>
      <trkpt lat="43.39479" lon="6.64144">
        <ele>168.80000305176</ele>
        <time>2019-05-04T12:43:54.000Z</time>
      </trkpt>
      <trkpt lat="43.39478" lon="6.64145">
        <ele>169.80000305176</ele>
        <time>2019-05-04T12:44:00.000Z</time>
      </trkpt>
      <trkpt lat="43.39478" lon="6.64145">
        <ele>170</ele>
        <time>2019-05-04T12:44:01.000Z</time>
      </trkpt>
      <trkpt lat="43.39476" lon="6.6415">
        <ele>169.80000305176</ele>
        <time>2019-05-04T12:44:06.000Z</time>
      </trkpt>
      <trkpt lat="43.39475" lon="6.6416">
        <ele>169.80000305176</ele>
        <time>2019-05-04T12:44:12.000Z</time>
      </trkpt>
      <trkpt lat="43.39472" lon="6.64185">
        <ele>170.60000610352</ele>
        <time>2019-05-04T12:44:19.000Z</time>
      </trkpt>
      <trkpt lat="43.39469" lon="6.64196">
        <ele>170.60000610352</ele>
        <time>2019-05-04T12:44:21.000Z</time>
      </trkpt>
      <trkpt lat="43.39465" lon="6.64206">
        <ele>170</ele>
        <time>2019-05-04T12:44:23.000Z</time>
      </trkpt>
      <trkpt lat="43.39461" lon="6.6421">
        <ele>169.80000305176</ele>
        <time>2019-05-04T12:44:24.000Z</time>
      </trkpt>
      <trkpt lat="43.39444" lon="6.6422">
        <ele>169.39999389648</ele>
        <time>2019-05-04T12:44:28.000Z</time>
      </trkpt>
      <trkpt lat="43.3944" lon="6.64222">
        <ele>169.39999389648</ele>
        <time>2019-05-04T12:44:29.000Z</time>
      </trkpt>
      <trkpt lat="43.39417" lon="6.6423">
        <ele>170.19999694824</ele>
        <time>2019-05-04T12:44:35.000Z</time>
      </trkpt>
      <trkpt lat="43.39397" lon="6.64241">
        <ele>169.60000610352</ele>
        <time>2019-05-04T12:44:39.000Z</time>
      </trkpt>
      <trkpt lat="43.39387" lon="6.64248">
        <ele>168.19999694824</ele>
        <time>2019-05-04T12:44:41.000Z</time>
      </trkpt>
      <trkpt lat="43.39381" lon="6.64252">
        <ele>167</ele>
        <time>2019-05-04T12:44:42.000Z</time>
      </trkpt>
      <trkpt lat="43.39375" lon="6.64256">
        <ele>166</ele>
        <time>2019-05-04T12:44:43.000Z</time>
      </trkpt>
      <trkpt lat="43.39369" lon="6.64258">
        <ele>164.80000305176</ele>
        <time>2019-05-04T12:44:44.000Z</time>
      </trkpt>
      <trkpt lat="43.39362" lon="6.64261">
        <ele>164.19999694824</ele>
        <time>2019-05-04T12:44:45.000Z</time>
      </trkpt>
      <trkpt lat="43.39357" lon="6.64263">
        <ele>163.19999694824</ele>
        <time>2019-05-04T12:44:46.000Z</time>
      </trkpt>
      <trkpt lat="43.39353" lon="6.64268">
        <ele>162.39999389648</ele>
        <time>2019-05-04T12:44:47.000Z</time>
      </trkpt>
      <trkpt lat="43.3935" lon="6.64272">
        <ele>161.39999389648</ele>
        <time>2019-05-04T12:44:48.000Z</time>
      </trkpt>
      <trkpt lat="43.39346" lon="6.64286">
        <ele>160.19999694824</ele>
        <time>2019-05-04T12:44:50.000Z</time>
      </trkpt>
      <trkpt lat="43.39344" lon="6.64295">
        <ele>159.80000305176</ele>
        <time>2019-05-04T12:44:51.000Z</time>
      </trkpt>
      <trkpt lat="43.39342" lon="6.64303">
        <ele>159.19999694824</ele>
        <time>2019-05-04T12:44:52.000Z</time>
      </trkpt>
      <trkpt lat="43.39338" lon="6.6431">
        <ele>158.80000305176</ele>
        <time>2019-05-04T12:44:53.000Z</time>
      </trkpt>
      <trkpt lat="43.39333" lon="6.64316">
        <ele>158.19999694824</ele>
        <time>2019-05-04T12:44:54.000Z</time>
      </trkpt>
      <trkpt lat="43.39327" lon="6.64322">
        <ele>157.80000305176</ele>
        <time>2019-05-04T12:44:55.000Z</time>
      </trkpt>
      <trkpt lat="43.3932" lon="6.64325">
        <ele>156.80000305176</ele>
        <time>2019-05-04T12:44:56.000Z</time>
      </trkpt>
      <trkpt lat="43.39306" lon="6.64329">
        <ele>156.19999694824</ele>
        <time>2019-05-04T12:44:58.000Z</time>
      </trkpt>
      <trkpt lat="43.39298" lon="6.64331">
        <ele>155.39999389648</ele>
        <time>2019-05-04T12:44:59.000Z</time>
      </trkpt>
      <trkpt lat="43.39286" lon="6.64336">
        <ele>154.39999389648</ele>
        <time>2019-05-04T12:45:01.000Z</time>
      </trkpt>
      <trkpt lat="43.39278" lon="6.64345">
        <ele>153.60000610352</ele>
        <time>2019-05-04T12:45:03.000Z</time>
      </trkpt>
      <trkpt lat="43.39276" lon="6.64353">
        <ele>153.19999694824</ele>
        <time>2019-05-04T12:45:04.000Z</time>
      </trkpt>
      <trkpt lat="43.39274" lon="6.64367">
        <ele>152.60000610352</ele>
        <time>2019-05-04T12:45:06.000Z</time>
      </trkpt>
      <trkpt lat="43.39273" lon="6.64374">
        <ele>151.80000305176</ele>
        <time>2019-05-04T12:45:07.000Z</time>
      </trkpt>
      <trkpt lat="43.39273" lon="6.64378">
        <ele>151</ele>
        <time>2019-05-04T12:45:09.000Z</time>
      </trkpt>
      <trkpt lat="43.3927" lon="6.64388">
        <ele>151.39999389648</ele>
        <time>2019-05-04T12:45:14.000Z</time>
      </trkpt>
      <trkpt lat="43.39269" lon="6.64389">
        <ele>151</ele>
        <time>2019-05-04T12:45:19.000Z</time>
      </trkpt>
      <trkpt lat="43.39269" lon="6.64389">
        <ele>151.60000610352</ele>
        <time>2019-05-04T12:45:28.000Z</time>
      </trkpt>
      <trkpt lat="43.39269" lon="6.6439">
        <ele>151.60000610352</ele>
        <time>2019-05-04T12:45:39.000Z</time>
      </trkpt>
      <trkpt lat="43.39268" lon="6.6439">
        <ele>151.80000305176</ele>
        <time>2019-05-04T12:45:51.000Z</time>
      </trkpt>
      <trkpt lat="43.39267" lon="6.64392">
        <ele>151.60000610352</ele>
        <time>2019-05-04T12:45:59.000Z</time>
      </trkpt>
      <trkpt lat="43.39267" lon="6.64392">
        <ele>151.60000610352</ele>
        <time>2019-05-04T12:46:05.000Z</time>
      </trkpt>
      <trkpt lat="43.39267" lon="6.64394">
        <ele>151.19999694824</ele>
        <time>2019-05-04T12:46:14.000Z</time>
      </trkpt>
      <trkpt lat="43.39266" lon="6.64397">
        <ele>150.80000305176</ele>
        <time>2019-05-04T12:46:23.000Z</time>
      </trkpt>
      <trkpt lat="43.39265" lon="6.64397">
        <ele>150.80000305176</ele>
        <time>2019-05-04T12:46:24.000Z</time>
      </trkpt>
      <trkpt lat="43.39264" lon="6.64402">
        <ele>150.80000305176</ele>
        <time>2019-05-04T12:46:31.000Z</time>
      </trkpt>
      <trkpt lat="43.39262" lon="6.64402">
        <ele>151</ele>
        <time>2019-05-04T12:46:33.000Z</time>
      </trkpt>
      <trkpt lat="43.39259" lon="6.64402">
        <ele>150.80000305176</ele>
        <time>2019-05-04T12:46:36.000Z</time>
      </trkpt>
      <trkpt lat="43.39259" lon="6.64401">
        <ele>150.80000305176</ele>
        <time>2019-05-04T12:46:37.000Z</time>
      </trkpt>
      <trkpt lat="43.39256" lon="6.64401">
        <ele>150.19999694824</ele>
        <time>2019-05-04T12:46:43.000Z</time>
      </trkpt>
      <trkpt lat="43.39253" lon="6.64401">
        <ele>150.60000610352</ele>
        <time>2019-05-04T12:46:45.000Z</time>
      </trkpt>
      <trkpt lat="43.39249" lon="6.64404">
        <ele>150.60000610352</ele>
        <time>2019-05-04T12:46:47.000Z</time>
      </trkpt>
      <trkpt lat="43.39241" lon="6.64404">
        <ele>149.80000305176</ele>
        <time>2019-05-04T12:46:51.000Z</time>
      </trkpt>
      <trkpt lat="43.39239" lon="6.64403">
        <ele>149.60000610352</ele>
        <time>2019-05-04T12:46:52.000Z</time>
      </trkpt>
      <trkpt lat="43.39234" lon="6.644">
        <ele>149.60000610352</ele>
        <time>2019-05-04T12:46:55.000Z</time>
      </trkpt>
      <trkpt lat="43.39226" lon="6.64397">
        <ele>149.80000305176</ele>
        <time>2019-05-04T12:46:57.000Z</time>
      </trkpt>
      <trkpt lat="43.39206" lon="6.64392">
        <ele>149.39999389648</ele>
        <time>2019-05-04T12:47:01.000Z</time>
      </trkpt>
      <trkpt lat="43.39201" lon="6.64391">
        <ele>149.19999694824</ele>
        <time>2019-05-04T12:47:02.000Z</time>
      </trkpt>
      <trkpt lat="43.39191" lon="6.64394">
        <ele>148.60000610352</ele>
        <time>2019-05-04T12:47:04.000Z</time>
      </trkpt>
      <trkpt lat="43.39184" lon="6.64397">
        <ele>148.19999694824</ele>
        <time>2019-05-04T12:47:06.000Z</time>
      </trkpt>
      <trkpt lat="43.39165" lon="6.64408">
        <ele>149.19999694824</ele>
        <time>2019-05-04T12:47:12.000Z</time>
      </trkpt>
      <trkpt lat="43.39161" lon="6.6441">
        <ele>149.80000305176</ele>
        <time>2019-05-04T12:47:13.000Z</time>
      </trkpt>
      <trkpt lat="43.39146" lon="6.64418">
        <ele>150.39999389648</ele>
        <time>2019-05-04T12:47:18.000Z</time>
      </trkpt>
      <trkpt lat="43.39138" lon="6.64422">
        <ele>150.80000305176</ele>
        <time>2019-05-04T12:47:21.000Z</time>
      </trkpt>
      <trkpt lat="43.39126" lon="6.64428">
        <ele>151.80000305176</ele>
        <time>2019-05-04T12:47:25.000Z</time>
      </trkpt>
      <trkpt lat="43.39123" lon="6.64429">
        <ele>152.19999694824</ele>
        <time>2019-05-04T12:47:26.000Z</time>
      </trkpt>
      <trkpt lat="43.39104" lon="6.64437">
        <ele>153</ele>
        <time>2019-05-04T12:47:32.000Z</time>
      </trkpt>
      <trkpt lat="43.39099" lon="6.6444">
        <ele>153.39999389648</ele>
        <time>2019-05-04T12:47:34.000Z</time>
      </trkpt>
      <trkpt lat="43.39091" lon="6.64444">
        <ele>154.19999694824</ele>
        <time>2019-05-04T12:47:37.000Z</time>
      </trkpt>
      <trkpt lat="43.39077" lon="6.64454">
        <ele>154.60000610352</ele>
        <time>2019-05-04T12:47:42.000Z</time>
      </trkpt>
      <trkpt lat="43.39053" lon="6.64474">
        <ele>155</ele>
        <time>2019-05-04T12:47:50.000Z</time>
      </trkpt>
      <trkpt lat="43.39048" lon="6.6448">
        <ele>155.39999389648</ele>
        <time>2019-05-04T12:47:52.000Z</time>
      </trkpt>
      <trkpt lat="43.39036" lon="6.6449">
        <ele>156</ele>
        <time>2019-05-04T12:47:57.000Z</time>
      </trkpt>
      <trkpt lat="43.39022" lon="6.64502">
        <ele>156.39999389648</ele>
        <time>2019-05-04T12:48:03.000Z</time>
      </trkpt>
      <trkpt lat="43.3902" lon="6.64503">
        <ele>156.80000305176</ele>
        <time>2019-05-04T12:48:04.000Z</time>
      </trkpt>
      <trkpt lat="43.39002" lon="6.64515">
        <ele>157.39999389648</ele>
        <time>2019-05-04T12:48:09.000Z</time>
      </trkpt>
      <trkpt lat="43.38978" lon="6.6453">
        <ele>156.60000610352</ele>
        <time>2019-05-04T12:48:15.000Z</time>
      </trkpt>
      <trkpt lat="43.38969" lon="6.6455">
        <ele>156.19999694824</ele>
        <time>2019-05-04T12:48:19.000Z</time>
      </trkpt>
      <trkpt lat="43.38967" lon="6.64564">
        <ele>156</ele>
        <time>2019-05-04T12:48:22.000Z</time>
      </trkpt>
      <trkpt lat="43.38966" lon="6.64568">
        <ele>156</ele>
        <time>2019-05-04T12:48:23.000Z</time>
      </trkpt>
      <trkpt lat="43.38965" lon="6.64593">
        <ele>157.39999389648</ele>
        <time>2019-05-04T12:48:29.000Z</time>
      </trkpt>
      <trkpt lat="43.38958" lon="6.64629">
        <ele>157.19999694824</ele>
        <time>2019-05-04T12:48:36.000Z</time>
      </trkpt>
      <trkpt lat="43.38944" lon="6.64649">
        <ele>156.39999389648</ele>
        <time>2019-05-04T12:48:39.000Z</time>
      </trkpt>
      <trkpt lat="43.38933" lon="6.64654">
        <ele>155</ele>
        <time>2019-05-04T12:48:41.000Z</time>
      </trkpt>
      <trkpt lat="43.38927" lon="6.64656">
        <ele>154.39999389648</ele>
        <time>2019-05-04T12:48:42.000Z</time>
      </trkpt>
      <trkpt lat="43.38922" lon="6.64657">
        <ele>153.80000305176</ele>
        <time>2019-05-04T12:48:43.000Z</time>
      </trkpt>
      <trkpt lat="43.38917" lon="6.6466">
        <ele>153.39999389648</ele>
        <time>2019-05-04T12:48:44.000Z</time>
      </trkpt>
      <trkpt lat="43.38897" lon="6.64673">
        <ele>153.19999694824</ele>
        <time>2019-05-04T12:48:48.000Z</time>
      </trkpt>
      <trkpt lat="43.38867" lon="6.64701">
        <ele>153.19999694824</ele>
        <time>2019-05-04T12:48:55.000Z</time>
      </trkpt>
      <trkpt lat="43.38862" lon="6.64704">
        <ele>153.19999694824</ele>
        <time>2019-05-04T12:48:56.000Z</time>
      </trkpt>
      <trkpt lat="43.38849" lon="6.64704">
        <ele>153.19999694824</ele>
        <time>2019-05-04T12:48:59.000Z</time>
      </trkpt>
      <trkpt lat="43.38842" lon="6.64701">
        <ele>153.60000610352</ele>
        <time>2019-05-04T12:49:01.000Z</time>
      </trkpt>
      <trkpt lat="43.38828" lon="6.647">
        <ele>154.39999389648</ele>
        <time>2019-05-04T12:49:04.000Z</time>
      </trkpt>
      <trkpt lat="43.38805" lon="6.64701">
        <ele>154.39999389648</ele>
        <time>2019-05-04T12:49:09.000Z</time>
      </trkpt>
      <trkpt lat="43.38796" lon="6.64703">
        <ele>154.39999389648</ele>
        <time>2019-05-04T12:49:11.000Z</time>
      </trkpt>
      <trkpt lat="43.3878" lon="6.64708">
        <ele>154.80000305176</ele>
        <time>2019-05-04T12:49:15.000Z</time>
      </trkpt>
      <trkpt lat="43.38775" lon="6.64713">
        <ele>155.39999389648</ele>
        <time>2019-05-04T12:49:17.000Z</time>
      </trkpt>
      <trkpt lat="43.38771" lon="6.64721">
        <ele>156.19999694824</ele>
        <time>2019-05-04T12:49:20.000Z</time>
      </trkpt>
      <trkpt lat="43.38771" lon="6.64725">
        <ele>156.60000610352</ele>
        <time>2019-05-04T12:49:22.000Z</time>
      </trkpt>
      <trkpt lat="43.38768" lon="6.64738">
        <ele>157.39999389648</ele>
        <time>2019-05-04T12:49:26.000Z</time>
      </trkpt>
      <trkpt lat="43.38764" lon="6.64754">
        <ele>158.60000610352</ele>
        <time>2019-05-04T12:49:33.000Z</time>
      </trkpt>
      <trkpt lat="43.38764" lon="6.64755">
        <ele>159.60000610352</ele>
        <time>2019-05-04T12:49:37.000Z</time>
      </trkpt>
      <trkpt lat="43.38764" lon="6.64755">
        <ele>159.60000610352</ele>
        <time>2019-05-04T12:49:39.000Z</time>
      </trkpt>
      <trkpt lat="43.38763" lon="6.64755">
        <ele>159.80000305176</ele>
        <time>2019-05-04T12:49:52.000Z</time>
      </trkpt>
      <trkpt lat="43.38763" lon="6.64754">
        <ele>159.80000305176</ele>
        <time>2019-05-04T12:49:58.000Z</time>
      </trkpt>
      <trkpt lat="43.38763" lon="6.64756">
        <ele>159.80000305176</ele>
        <time>2019-05-04T12:50:05.000Z</time>
      </trkpt>
      <trkpt lat="43.38763" lon="6.64757">
        <ele>160</ele>
        <time>2019-05-04T12:50:20.000Z</time>
      </trkpt>
      <trkpt lat="43.38763" lon="6.64757">
        <ele>159.80000305176</ele>
        <time>2019-05-04T12:50:26.000Z</time>
      </trkpt>
      <trkpt lat="43.38764" lon="6.64757">
        <ele>160</ele>
        <time>2019-05-04T12:50:31.000Z</time>
      </trkpt>
      <trkpt lat="43.38765" lon="6.64759">
        <ele>160</ele>
        <time>2019-05-04T12:50:32.000Z</time>
      </trkpt>
      <trkpt lat="43.38766" lon="6.64761">
        <ele>160</ele>
        <time>2019-05-04T12:50:34.000Z</time>
      </trkpt>
      <trkpt lat="43.38768" lon="6.64762">
        <ele>160.19999694824</ele>
        <time>2019-05-04T12:50:39.000Z</time>
      </trkpt>
      <trkpt lat="43.38771" lon="6.64757">
        <ele>160.19999694824</ele>
        <time>2019-05-04T12:50:44.000Z</time>
      </trkpt>
      <trkpt lat="43.38775" lon="6.64749">
        <ele>160.60000610352</ele>
        <time>2019-05-04T12:50:48.000Z</time>
      </trkpt>
      <trkpt lat="43.38776" lon="6.64747">
        <ele>160.80000305176</ele>
        <time>2019-05-04T12:50:49.000Z</time>
      </trkpt>
      <trkpt lat="43.38778" lon="6.64743">
        <ele>161.60000610352</ele>
        <time>2019-05-04T12:50:52.000Z</time>
      </trkpt>
      <trkpt lat="43.38782" lon="6.64741">
        <ele>162.39999389648</ele>
        <time>2019-05-04T12:50:55.000Z</time>
      </trkpt>
      <trkpt lat="43.38786" lon="6.6474">
        <ele>162.80000305176</ele>
        <time>2019-05-04T12:50:57.000Z</time>
      </trkpt>
      <trkpt lat="43.3879" lon="6.64741">
        <ele>164</ele>
        <time>2019-05-04T12:51:01.000Z</time>
      </trkpt>
      <trkpt lat="43.38795" lon="6.64743">
        <ele>165.19999694824</ele>
        <time>2019-05-04T12:51:06.000Z</time>
      </trkpt>
      <trkpt lat="43.38796" lon="6.64744">
        <ele>165.60000610352</ele>
        <time>2019-05-04T12:51:07.000Z</time>
      </trkpt>
      <trkpt lat="43.38797" lon="6.64745">
        <ele>166.19999694824</ele>
        <time>2019-05-04T12:51:10.000Z</time>
      </trkpt>
      <trkpt lat="43.38798" lon="6.64746">
        <ele>166.60000610352</ele>
        <time>2019-05-04T12:51:12.000Z</time>
      </trkpt>
      <trkpt lat="43.388" lon="6.64749">
        <ele>167.19999694824</ele>
        <time>2019-05-04T12:51:17.000Z</time>
      </trkpt>
      <trkpt lat="43.38801" lon="6.64749">
        <ele>167.39999389648</ele>
        <time>2019-05-04T12:51:18.000Z</time>
      </trkpt>
      <trkpt lat="43.38803" lon="6.64752">
        <ele>168.39999389648</ele>
        <time>2019-05-04T12:51:23.000Z</time>
      </trkpt>
      <trkpt lat="43.38806" lon="6.64754">
        <ele>169.60000610352</ele>
        <time>2019-05-04T12:51:29.000Z</time>
      </trkpt>
      <trkpt lat="43.38808" lon="6.64756">
        <ele>170.80000305176</ele>
        <time>2019-05-04T12:51:36.000Z</time>
      </trkpt>
      <trkpt lat="43.3881" lon="6.64758">
        <ele>171.39999389648</ele>
        <time>2019-05-04T12:51:39.000Z</time>
      </trkpt>
      <trkpt lat="43.38811" lon="6.64759">
        <ele>171.80000305176</ele>
        <time>2019-05-04T12:51:43.000Z</time>
      </trkpt>
      <trkpt lat="43.38813" lon="6.6476">
        <ele>172.60000610352</ele>
        <time>2019-05-04T12:51:48.000Z</time>
      </trkpt>
      <trkpt lat="43.38815" lon="6.6476">
        <ele>172.80000305176</ele>
        <time>2019-05-04T12:51:51.000Z</time>
      </trkpt>
      <trkpt lat="43.38819" lon="6.64762">
        <ele>174</ele>
        <time>2019-05-04T12:51:57.000Z</time>
      </trkpt>
      <trkpt lat="43.38823" lon="6.64765">
        <ele>175.19999694824</ele>
        <time>2019-05-04T12:52:04.000Z</time>
      </trkpt>
      <trkpt lat="43.38823" lon="6.64765">
        <ele>175.39999389648</ele>
        <time>2019-05-04T12:52:05.000Z</time>
      </trkpt>
      <trkpt lat="43.38827" lon="6.64766">
        <ele>176.19999694824</ele>
        <time>2019-05-04T12:52:10.000Z</time>
      </trkpt>
      <trkpt lat="43.38829" lon="6.64767">
        <ele>176.60000610352</ele>
        <time>2019-05-04T12:52:13.000Z</time>
      </trkpt>
      <trkpt lat="43.38834" lon="6.6477">
        <ele>177.39999389648</ele>
        <time>2019-05-04T12:52:19.000Z</time>
      </trkpt>
      <trkpt lat="43.38834" lon="6.6477">
        <ele>177.60000610352</ele>
        <time>2019-05-04T12:52:20.000Z</time>
      </trkpt>
      <trkpt lat="43.38839" lon="6.64774">
        <ele>178.39999389648</ele>
        <time>2019-05-04T12:52:27.000Z</time>
      </trkpt>
      <trkpt lat="43.38841" lon="6.64775">
        <ele>179.19999694824</ele>
        <time>2019-05-04T12:52:30.000Z</time>
      </trkpt>
      <trkpt lat="43.38842" lon="6.64776">
        <ele>179.60000610352</ele>
        <time>2019-05-04T12:52:32.000Z</time>
      </trkpt>
      <trkpt lat="43.38845" lon="6.64779">
        <ele>180.60000610352</ele>
        <time>2019-05-04T12:52:38.000Z</time>
      </trkpt>
      <trkpt lat="43.38846" lon="6.6478">
        <ele>181</ele>
        <time>2019-05-04T12:52:40.000Z</time>
      </trkpt>
      <trkpt lat="43.3885" lon="6.64782">
        <ele>181.80000305176</ele>
        <time>2019-05-04T12:52:46.000Z</time>
      </trkpt>
      <trkpt lat="43.38853" lon="6.64784">
        <ele>183</ele>
        <time>2019-05-04T12:52:51.000Z</time>
      </trkpt>
      <trkpt lat="43.38854" lon="6.64784">
        <ele>183</ele>
        <time>2019-05-04T12:52:52.000Z</time>
      </trkpt>
      <trkpt lat="43.38855" lon="6.64784">
        <ele>183</ele>
        <time>2019-05-04T12:52:59.000Z</time>
      </trkpt>
      <trkpt lat="43.38859" lon="6.64787">
        <ele>184.19999694824</ele>
        <time>2019-05-04T12:53:05.000Z</time>
      </trkpt>
      <trkpt lat="43.38861" lon="6.64788">
        <ele>184.80000305176</ele>
        <time>2019-05-04T12:53:07.000Z</time>
      </trkpt>
      <trkpt lat="43.38864" lon="6.64791">
        <ele>185.39999389648</ele>
        <time>2019-05-04T12:53:11.000Z</time>
      </trkpt>
      <trkpt lat="43.3887" lon="6.64794">
        <ele>186.39999389648</ele>
        <time>2019-05-04T12:53:17.000Z</time>
      </trkpt>
      <trkpt lat="43.3887" lon="6.64795">
        <ele>186.60000610352</ele>
        <time>2019-05-04T12:53:18.000Z</time>
      </trkpt>
      <trkpt lat="43.38876" lon="6.64798">
        <ele>187.60000610352</ele>
        <time>2019-05-04T12:53:25.000Z</time>
      </trkpt>
      <trkpt lat="43.38881" lon="6.64801">
        <ele>188.80000305176</ele>
        <time>2019-05-04T12:53:33.000Z</time>
      </trkpt>
      <trkpt lat="43.38882" lon="6.64802">
        <ele>189.19999694824</ele>
        <time>2019-05-04T12:53:35.000Z</time>
      </trkpt>
      <trkpt lat="43.38885" lon="6.64803">
        <ele>190</ele>
        <time>2019-05-04T12:53:41.000Z</time>
      </trkpt>
      <trkpt lat="43.38887" lon="6.64804">
        <ele>190.60000610352</ele>
        <time>2019-05-04T12:53:43.000Z</time>
      </trkpt>
      <trkpt lat="43.38888" lon="6.64805">
        <ele>191.19999694824</ele>
        <time>2019-05-04T12:53:45.000Z</time>
      </trkpt>
      <trkpt lat="43.38891" lon="6.64807">
        <ele>192.19999694824</ele>
        <time>2019-05-04T12:53:51.000Z</time>
      </trkpt>
      <trkpt lat="43.38891" lon="6.64808">
        <ele>192.39999389648</ele>
        <time>2019-05-04T12:53:52.000Z</time>
      </trkpt>
      <trkpt lat="43.38893" lon="6.64811">
        <ele>193.19999694824</ele>
        <time>2019-05-04T12:53:57.000Z</time>
      </trkpt>
      <trkpt lat="43.38895" lon="6.64813">
        <ele>194.39999389648</ele>
        <time>2019-05-04T12:54:02.000Z</time>
      </trkpt>
      <trkpt lat="43.38895" lon="6.64814">
        <ele>194.60000610352</ele>
        <time>2019-05-04T12:54:03.000Z</time>
      </trkpt>
      <trkpt lat="43.38896" lon="6.64816">
        <ele>195.39999389648</ele>
        <time>2019-05-04T12:54:07.000Z</time>
      </trkpt>
      <trkpt lat="43.38898" lon="6.64821">
        <ele>196.19999694824</ele>
        <time>2019-05-04T12:54:14.000Z</time>
      </trkpt>
      <trkpt lat="43.38899" lon="6.64824">
        <ele>196.60000610352</ele>
        <time>2019-05-04T12:54:17.000Z</time>
      </trkpt>
      <trkpt lat="43.38899" lon="6.64828">
        <ele>197.60000610352</ele>
        <time>2019-05-04T12:54:21.000Z</time>
      </trkpt>
      <trkpt lat="43.38899" lon="6.6483">
        <ele>198.19999694824</ele>
        <time>2019-05-04T12:54:23.000Z</time>
      </trkpt>
      <trkpt lat="43.38899" lon="6.64833">
        <ele>198.60000610352</ele>
        <time>2019-05-04T12:54:25.000Z</time>
      </trkpt>
      <trkpt lat="43.38898" lon="6.64837">
        <ele>199.60000610352</ele>
        <time>2019-05-04T12:54:29.000Z</time>
      </trkpt>
      <trkpt lat="43.38898" lon="6.64844">
        <ele>200.39999389648</ele>
        <time>2019-05-04T12:54:34.000Z</time>
      </trkpt>
      <trkpt lat="43.38898" lon="6.64845">
        <ele>200.80000305176</ele>
        <time>2019-05-04T12:54:35.000Z</time>
      </trkpt>
      <trkpt lat="43.38898" lon="6.64847">
        <ele>201.39999389648</ele>
        <time>2019-05-04T12:54:38.000Z</time>
      </trkpt>
      <trkpt lat="43.38897" lon="6.64849">
        <ele>201.60000610352</ele>
        <time>2019-05-04T12:54:40.000Z</time>
      </trkpt>
      <trkpt lat="43.38898" lon="6.64853">
        <ele>201.80000305176</ele>
        <time>2019-05-04T12:54:42.000Z</time>
      </trkpt>
      <trkpt lat="43.38899" lon="6.64855">
        <ele>202</ele>
        <time>2019-05-04T12:54:43.000Z</time>
      </trkpt>
      <trkpt lat="43.389" lon="6.64859">
        <ele>202.19999694824</ele>
        <time>2019-05-04T12:54:45.000Z</time>
      </trkpt>
      <trkpt lat="43.3891" lon="6.64865">
        <ele>202.80000305176</ele>
        <time>2019-05-04T12:54:50.000Z</time>
      </trkpt>
      <trkpt lat="43.38916" lon="6.64859">
        <ele>202.60000610352</ele>
        <time>2019-05-04T12:54:53.000Z</time>
      </trkpt>
      <trkpt lat="43.3892" lon="6.6485">
        <ele>202.80000305176</ele>
        <time>2019-05-04T12:54:57.000Z</time>
      </trkpt>
      <trkpt lat="43.38922" lon="6.64848">
        <ele>203.19999694824</ele>
        <time>2019-05-04T12:54:58.000Z</time>
      </trkpt>
      <trkpt lat="43.38925" lon="6.64844">
        <ele>203.60000610352</ele>
        <time>2019-05-04T12:55:00.000Z</time>
      </trkpt>
      <trkpt lat="43.3893" lon="6.64839">
        <ele>204.19999694824</ele>
        <time>2019-05-04T12:55:03.000Z</time>
      </trkpt>
      <trkpt lat="43.38936" lon="6.64832">
        <ele>205</ele>
        <time>2019-05-04T12:55:07.000Z</time>
      </trkpt>
      <trkpt lat="43.38938" lon="6.6483">
        <ele>205.19999694824</ele>
        <time>2019-05-04T12:55:08.000Z</time>
      </trkpt>
      <trkpt lat="43.38945" lon="6.64826">
        <ele>206.39999389648</ele>
        <time>2019-05-04T12:55:12.000Z</time>
      </trkpt>
      <trkpt lat="43.38948" lon="6.64824">
        <ele>207</ele>
        <time>2019-05-04T12:55:14.000Z</time>
      </trkpt>
      <trkpt lat="43.38952" lon="6.64823">
        <ele>207.39999389648</ele>
        <time>2019-05-04T12:55:16.000Z</time>
      </trkpt>
      <trkpt lat="43.38965" lon="6.64818">
        <ele>208.39999389648</ele>
        <time>2019-05-04T12:55:23.000Z</time>
      </trkpt>
      <trkpt lat="43.38969" lon="6.64816">
        <ele>208.60000610352</ele>
        <time>2019-05-04T12:55:25.000Z</time>
      </trkpt>
      <trkpt lat="43.38979" lon="6.6481">
        <ele>209.19999694824</ele>
        <time>2019-05-04T12:55:30.000Z</time>
      </trkpt>
      <trkpt lat="43.38986" lon="6.64806">
        <ele>209.60000610352</ele>
        <time>2019-05-04T12:55:34.000Z</time>
      </trkpt>
      <trkpt lat="43.38994" lon="6.64802">
        <ele>210.19999694824</ele>
        <time>2019-05-04T12:55:38.000Z</time>
      </trkpt>
      <trkpt lat="43.38997" lon="6.64801">
        <ele>210.60000610352</ele>
        <time>2019-05-04T12:55:40.000Z</time>
      </trkpt>
      <trkpt lat="43.39007" lon="6.64797">
        <ele>211.19999694824</ele>
        <time>2019-05-04T12:55:45.000Z</time>
      </trkpt>
      <trkpt lat="43.39011" lon="6.64795">
        <ele>211.80000305176</ele>
        <time>2019-05-04T12:55:47.000Z</time>
      </trkpt>
      <trkpt lat="43.39021" lon="6.6479">
        <ele>212.80000305176</ele>
        <time>2019-05-04T12:55:53.000Z</time>
      </trkpt>
      <trkpt lat="43.39022" lon="6.64789">
        <ele>212.80000305176</ele>
        <time>2019-05-04T12:55:54.000Z</time>
      </trkpt>
      <trkpt lat="43.3903" lon="6.64778">
        <ele>213.39999389648</ele>
        <time>2019-05-04T12:56:00.000Z</time>
      </trkpt>
      <trkpt lat="43.39033" lon="6.64772">
        <ele>213.80000305176</ele>
        <time>2019-05-04T12:56:03.000Z</time>
      </trkpt>
      <trkpt lat="43.39035" lon="6.64768">
        <ele>214.80000305176</ele>
        <time>2019-05-04T12:56:06.000Z</time>
      </trkpt>
      <trkpt lat="43.39036" lon="6.64765">
        <ele>215</ele>
        <time>2019-05-04T12:56:07.000Z</time>
      </trkpt>
      <trkpt lat="43.39041" lon="6.64757">
        <ele>216</ele>
        <time>2019-05-04T12:56:12.000Z</time>
      </trkpt>
      <trkpt lat="43.39044" lon="6.64752">
        <ele>217</ele>
        <time>2019-05-04T12:56:15.000Z</time>
      </trkpt>
      <trkpt lat="43.39045" lon="6.64751">
        <ele>217.19999694824</ele>
        <time>2019-05-04T12:56:16.000Z</time>
      </trkpt>
      <trkpt lat="43.39053" lon="6.64743">
        <ele>218.19999694824</ele>
        <time>2019-05-04T12:56:23.000Z</time>
      </trkpt>
      <trkpt lat="43.39057" lon="6.64739">
        <ele>219.39999389648</ele>
        <time>2019-05-04T12:56:27.000Z</time>
      </trkpt>
      <trkpt lat="43.39061" lon="6.64735">
        <ele>220</ele>
        <time>2019-05-04T12:56:30.000Z</time>
      </trkpt>
      <trkpt lat="43.39067" lon="6.64732">
        <ele>220.39999389648</ele>
        <time>2019-05-04T12:56:33.000Z</time>
      </trkpt>
      <trkpt lat="43.39073" lon="6.6473">
        <ele>221</ele>
        <time>2019-05-04T12:56:36.000Z</time>
      </trkpt>
      <trkpt lat="43.39075" lon="6.6473">
        <ele>221.60000610352</ele>
        <time>2019-05-04T12:56:38.000Z</time>
      </trkpt>
      <trkpt lat="43.39078" lon="6.6473">
        <ele>222.80000305176</ele>
        <time>2019-05-04T12:56:41.000Z</time>
      </trkpt>
      <trkpt lat="43.3908" lon="6.6473">
        <ele>223.19999694824</ele>
        <time>2019-05-04T12:56:42.000Z</time>
      </trkpt>
      <trkpt lat="43.39084" lon="6.6473">
        <ele>224</ele>
        <time>2019-05-04T12:56:45.000Z</time>
      </trkpt>
      <trkpt lat="43.3909" lon="6.6473">
        <ele>224.60000610352</ele>
        <time>2019-05-04T12:56:49.000Z</time>
      </trkpt>
      <trkpt lat="43.39096" lon="6.6473">
        <ele>225</ele>
        <time>2019-05-04T12:56:53.000Z</time>
      </trkpt>
      <trkpt lat="43.39106" lon="6.6473">
        <ele>225.39999389648</ele>
        <time>2019-05-04T12:56:58.000Z</time>
      </trkpt>
      <trkpt lat="43.39127" lon="6.64727">
        <ele>226.19999694824</ele>
        <time>2019-05-04T12:57:07.000Z</time>
      </trkpt>
      <trkpt lat="43.39149" lon="6.64723">
        <ele>226.19999694824</ele>
        <time>2019-05-04T12:57:15.000Z</time>
      </trkpt>
      <trkpt lat="43.39174" lon="6.64717">
        <ele>225</ele>
        <time>2019-05-04T12:57:21.000Z</time>
      </trkpt>
      <trkpt lat="43.39177" lon="6.64716">
        <ele>224.80000305176</ele>
        <time>2019-05-04T12:57:22.000Z</time>
      </trkpt>
      <trkpt lat="43.39201" lon="6.64707">
        <ele>223.80000305176</ele>
        <time>2019-05-04T12:57:27.000Z</time>
      </trkpt>
      <trkpt lat="43.39215" lon="6.64694">
        <ele>222.39999389648</ele>
        <time>2019-05-04T12:57:30.000Z</time>
      </trkpt>
      <trkpt lat="43.39219" lon="6.6469">
        <ele>221.80000305176</ele>
        <time>2019-05-04T12:57:31.000Z</time>
      </trkpt>
      <trkpt lat="43.39223" lon="6.64686">
        <ele>221.19999694824</ele>
        <time>2019-05-04T12:57:32.000Z</time>
      </trkpt>
      <trkpt lat="43.39241" lon="6.64666">
        <ele>221.60000610352</ele>
        <time>2019-05-04T12:57:37.000Z</time>
      </trkpt>
      <trkpt lat="43.39248" lon="6.64659">
        <ele>221.60000610352</ele>
        <time>2019-05-04T12:57:39.000Z</time>
      </trkpt>
      <trkpt lat="43.39257" lon="6.64659">
        <ele>221.60000610352</ele>
        <time>2019-05-04T12:57:41.000Z</time>
      </trkpt>
      <trkpt lat="43.39272" lon="6.64657">
        <ele>221.39999389648</ele>
        <time>2019-05-04T12:57:45.000Z</time>
      </trkpt>
      <trkpt lat="43.39276" lon="6.64655">
        <ele>221.60000610352</ele>
        <time>2019-05-04T12:57:46.000Z</time>
      </trkpt>
      <trkpt lat="43.3929" lon="6.64649">
        <ele>221.19999694824</ele>
        <time>2019-05-04T12:57:49.000Z</time>
      </trkpt>
      <trkpt lat="43.39308" lon="6.64646">
        <ele>220.39999389648</ele>
        <time>2019-05-04T12:57:52.000Z</time>
      </trkpt>
      <trkpt lat="43.39314" lon="6.64645">
        <ele>220</ele>
        <time>2019-05-04T12:57:53.000Z</time>
      </trkpt>
      <trkpt lat="43.39328" lon="6.64643">
        <ele>218</ele>
        <time>2019-05-04T12:57:55.000Z</time>
      </trkpt>
      <trkpt lat="43.39336" lon="6.64642">
        <ele>216.19999694824</ele>
        <time>2019-05-04T12:57:57.000Z</time>
      </trkpt>
      <trkpt lat="43.39345" lon="6.64637">
        <ele>215.19999694824</ele>
        <time>2019-05-04T12:58:00.000Z</time>
      </trkpt>
      <trkpt lat="43.39347" lon="6.64636">
        <ele>215</ele>
        <time>2019-05-04T12:58:01.000Z</time>
      </trkpt>
      <trkpt lat="43.39354" lon="6.64634">
        <ele>215.39999389648</ele>
        <time>2019-05-04T12:58:05.000Z</time>
      </trkpt>
      <trkpt lat="43.39355" lon="6.64633">
        <ele>215.60000610352</ele>
        <time>2019-05-04T12:58:06.000Z</time>
      </trkpt>
      <trkpt lat="43.39362" lon="6.64633">
        <ele>216.39999389648</ele>
        <time>2019-05-04T12:58:09.000Z</time>
      </trkpt>
      <trkpt lat="43.39366" lon="6.64633">
        <ele>216.80000305176</ele>
        <time>2019-05-04T12:58:11.000Z</time>
      </trkpt>
      <trkpt lat="43.3937" lon="6.64633">
        <ele>217.80000305176</ele>
        <time>2019-05-04T12:58:13.000Z</time>
      </trkpt>
      <trkpt lat="43.39377" lon="6.64635">
        <ele>218.80000305176</ele>
        <time>2019-05-04T12:58:17.000Z</time>
      </trkpt>
      <trkpt lat="43.39387" lon="6.64636">
        <ele>219.80000305176</ele>
        <time>2019-05-04T12:58:23.000Z</time>
      </trkpt>
      <trkpt lat="43.3939" lon="6.64637">
        <ele>220</ele>
        <time>2019-05-04T12:58:24.000Z</time>
      </trkpt>
      <trkpt lat="43.39396" lon="6.64638">
        <ele>221.19999694824</ele>
        <time>2019-05-04T12:58:28.000Z</time>
      </trkpt>
      <trkpt lat="43.39399" lon="6.6464">
        <ele>221.80000305176</ele>
        <time>2019-05-04T12:58:30.000Z</time>
      </trkpt>
      <trkpt lat="43.39401" lon="6.64642">
        <ele>222.39999389648</ele>
        <time>2019-05-04T12:58:32.000Z</time>
      </trkpt>
      <trkpt lat="43.39407" lon="6.64648">
        <ele>223</ele>
        <time>2019-05-04T12:58:36.000Z</time>
      </trkpt>
      <trkpt lat="43.39414" lon="6.64652">
        <ele>223.39999389648</ele>
        <time>2019-05-04T12:58:40.000Z</time>
      </trkpt>
      <trkpt lat="43.39418" lon="6.64654">
        <ele>224</ele>
        <time>2019-05-04T12:58:43.000Z</time>
      </trkpt>
      <trkpt lat="43.39425" lon="6.64655">
        <ele>224.39999389648</ele>
        <time>2019-05-04T12:58:47.000Z</time>
      </trkpt>
      <trkpt lat="43.39434" lon="6.64655">
        <ele>224.39999389648</ele>
        <time>2019-05-04T12:58:51.000Z</time>
      </trkpt>
      <trkpt lat="43.39449" lon="6.64648">
        <ele>225</ele>
        <time>2019-05-04T12:58:59.000Z</time>
      </trkpt>
      <trkpt lat="43.39455" lon="6.64645">
        <ele>225.60000610352</ele>
        <time>2019-05-04T12:59:02.000Z</time>
      </trkpt>
      <trkpt lat="43.39465" lon="6.6464">
        <ele>226.39999389648</ele>
        <time>2019-05-04T12:59:08.000Z</time>
      </trkpt>
      <trkpt lat="43.39467" lon="6.64639">
        <ele>226.60000610352</ele>
        <time>2019-05-04T12:59:09.000Z</time>
      </trkpt>
      <trkpt lat="43.39483" lon="6.64632">
        <ele>227.60000610352</ele>
        <time>2019-05-04T12:59:18.000Z</time>
      </trkpt>
      <trkpt lat="43.39491" lon="6.64626">
        <ele>228.80000305176</ele>
        <time>2019-05-04T12:59:23.000Z</time>
      </trkpt>
      <trkpt lat="43.39493" lon="6.64625">
        <ele>229</ele>
        <time>2019-05-04T12:59:24.000Z</time>
      </trkpt>
      <trkpt lat="43.39497" lon="6.64622">
        <ele>229.80000305176</ele>
        <time>2019-05-04T12:59:27.000Z</time>
      </trkpt>
      <trkpt lat="43.39504" lon="6.64619">
        <ele>231</ele>
        <time>2019-05-04T12:59:32.000Z</time>
      </trkpt>
      <trkpt lat="43.39512" lon="6.64614">
        <ele>232</ele>
        <time>2019-05-04T12:59:37.000Z</time>
      </trkpt>
      <trkpt lat="43.39517" lon="6.64611">
        <ele>233</ele>
        <time>2019-05-04T12:59:41.000Z</time>
      </trkpt>
      <trkpt lat="43.39519" lon="6.6461">
        <ele>233.39999389648</ele>
        <time>2019-05-04T12:59:42.000Z</time>
      </trkpt>
      <trkpt lat="43.39525" lon="6.64607">
        <ele>234.39999389648</ele>
        <time>2019-05-04T12:59:46.000Z</time>
      </trkpt>
      <trkpt lat="43.39532" lon="6.64603">
        <ele>235</ele>
        <time>2019-05-04T12:59:50.000Z</time>
      </trkpt>
      <trkpt lat="43.39535" lon="6.64602">
        <ele>235.80000305176</ele>
        <time>2019-05-04T12:59:52.000Z</time>
      </trkpt>
      <trkpt lat="43.3954" lon="6.64599">
        <ele>237</ele>
        <time>2019-05-04T12:59:55.000Z</time>
      </trkpt>
      <trkpt lat="43.39541" lon="6.64599">
        <ele>237.19999694824</ele>
        <time>2019-05-04T12:59:56.000Z</time>
      </trkpt>
      <trkpt lat="43.39545" lon="6.64597">
        <ele>238.19999694824</ele>
        <time>2019-05-04T12:59:59.000Z</time>
      </trkpt>
      <trkpt lat="43.39551" lon="6.64596">
        <ele>239.19999694824</ele>
        <time>2019-05-04T13:00:03.000Z</time>
      </trkpt>
      <trkpt lat="43.39552" lon="6.64596">
        <ele>239.60000610352</ele>
        <time>2019-05-04T13:00:04.000Z</time>
      </trkpt>
      <trkpt lat="43.39558" lon="6.64595">
        <ele>240.39999389648</ele>
        <time>2019-05-04T13:00:09.000Z</time>
      </trkpt>
      <trkpt lat="43.3956" lon="6.64594">
        <ele>241.19999694824</ele>
        <time>2019-05-04T13:00:11.000Z</time>
      </trkpt>
      <trkpt lat="43.39563" lon="6.64593">
        <ele>241.60000610352</ele>
        <time>2019-05-04T13:00:13.000Z</time>
      </trkpt>
      <trkpt lat="43.39569" lon="6.64589">
        <ele>242.60000610352</ele>
        <time>2019-05-04T13:00:19.000Z</time>
      </trkpt>
      <trkpt lat="43.39571" lon="6.64587">
        <ele>243.19999694824</ele>
        <time>2019-05-04T13:00:24.000Z</time>
      </trkpt>
      <trkpt lat="43.39576" lon="6.64583">
        <ele>243.80000305176</ele>
        <time>2019-05-04T13:00:31.000Z</time>
      </trkpt>
      <trkpt lat="43.39582" lon="6.64579">
        <ele>244.80000305176</ele>
        <time>2019-05-04T13:00:39.000Z</time>
      </trkpt>
      <trkpt lat="43.39583" lon="6.64579">
        <ele>245</ele>
        <time>2019-05-04T13:00:40.000Z</time>
      </trkpt>
      <trkpt lat="43.39587" lon="6.64575">
        <ele>246</ele>
        <time>2019-05-04T13:00:46.000Z</time>
      </trkpt>
      <trkpt lat="43.39589" lon="6.64574">
        <ele>246.39999389648</ele>
        <time>2019-05-04T13:00:48.000Z</time>
      </trkpt>
      <trkpt lat="43.3959" lon="6.64572">
        <ele>247.19999694824</ele>
        <time>2019-05-04T13:00:51.000Z</time>
      </trkpt>
      <trkpt lat="43.39593" lon="6.64568">
        <ele>248.19999694824</ele>
        <time>2019-05-04T13:00:56.000Z</time>
      </trkpt>
      <trkpt lat="43.39594" lon="6.64567">
        <ele>248.39999389648</ele>
        <time>2019-05-04T13:00:57.000Z</time>
      </trkpt>
      <trkpt lat="43.39595" lon="6.64566">
        <ele>249.19999694824</ele>
        <time>2019-05-04T13:01:01.000Z</time>
      </trkpt>
      <trkpt lat="43.39596" lon="6.64564">
        <ele>249.60000610352</ele>
        <time>2019-05-04T13:01:04.000Z</time>
      </trkpt>
      <trkpt lat="43.39598" lon="6.64561">
        <ele>249.60000610352</ele>
        <time>2019-05-04T13:01:06.000Z</time>
      </trkpt>
      <trkpt lat="43.39603" lon="6.64554">
        <ele>250.39999389648</ele>
        <time>2019-05-04T13:01:11.000Z</time>
      </trkpt>
      <trkpt lat="43.39606" lon="6.64549">
        <ele>251.19999694824</ele>
        <time>2019-05-04T13:01:14.000Z</time>
      </trkpt>
      <trkpt lat="43.39609" lon="6.64546">
        <ele>251.39999389648</ele>
        <time>2019-05-04T13:01:16.000Z</time>
      </trkpt>
      <trkpt lat="43.39618" lon="6.64541">
        <ele>252.19999694824</ele>
        <time>2019-05-04T13:01:21.000Z</time>
      </trkpt>
      <trkpt lat="43.39623" lon="6.64538">
        <ele>252.60000610352</ele>
        <time>2019-05-04T13:01:24.000Z</time>
      </trkpt>
      <trkpt lat="43.39626" lon="6.64537">
        <ele>253</ele>
        <time>2019-05-04T13:01:26.000Z</time>
      </trkpt>
      <trkpt lat="43.39631" lon="6.64536">
        <ele>253.60000610352</ele>
        <time>2019-05-04T13:01:29.000Z</time>
      </trkpt>
      <trkpt lat="43.39642" lon="6.64532">
        <ele>254</ele>
        <time>2019-05-04T13:01:35.000Z</time>
      </trkpt>
      <trkpt lat="43.39648" lon="6.64531">
        <ele>254.60000610352</ele>
        <time>2019-05-04T13:01:39.000Z</time>
      </trkpt>
      <trkpt lat="43.39653" lon="6.6453">
        <ele>255.19999694824</ele>
        <time>2019-05-04T13:01:42.000Z</time>
      </trkpt>
      <trkpt lat="43.3966" lon="6.64529">
        <ele>255.80000305176</ele>
        <time>2019-05-04T13:01:47.000Z</time>
      </trkpt>
      <trkpt lat="43.39661" lon="6.64529">
        <ele>256.20001220703</ele>
        <time>2019-05-04T13:01:48.000Z</time>
      </trkpt>
      <trkpt lat="43.39665" lon="6.64528">
        <ele>256.79998779297</ele>
        <time>2019-05-04T13:01:50.000Z</time>
      </trkpt>
      <trkpt lat="43.39673" lon="6.64526">
        <ele>257.60000610352</ele>
        <time>2019-05-04T13:01:55.000Z</time>
      </trkpt>
      <trkpt lat="43.39677" lon="6.64527">
        <ele>258</ele>
        <time>2019-05-04T13:01:57.000Z</time>
      </trkpt>
      <trkpt lat="43.39681" lon="6.64528">
        <ele>259.60000610352</ele>
        <time>2019-05-04T13:02:00.000Z</time>
      </trkpt>
      <trkpt lat="43.39683" lon="6.64528">
        <ele>260.79998779297</ele>
        <time>2019-05-04T13:02:02.000Z</time>
      </trkpt>
      <trkpt lat="43.39686" lon="6.64528">
        <ele>261.79998779297</ele>
        <time>2019-05-04T13:02:04.000Z</time>
      </trkpt>
      <trkpt lat="43.39687" lon="6.64528">
        <ele>262</ele>
        <time>2019-05-04T13:02:05.000Z</time>
      </trkpt>
      <trkpt lat="43.39692" lon="6.64526">
        <ele>262.60000610352</ele>
        <time>2019-05-04T13:02:09.000Z</time>
      </trkpt>
      <trkpt lat="43.39696" lon="6.64524">
        <ele>263</ele>
        <time>2019-05-04T13:02:12.000Z</time>
      </trkpt>
      <trkpt lat="43.39699" lon="6.6452">
        <ele>263</ele>
        <time>2019-05-04T13:02:15.000Z</time>
      </trkpt>
      <trkpt lat="43.39707" lon="6.64509">
        <ele>263.20001220703</ele>
        <time>2019-05-04T13:02:21.000Z</time>
      </trkpt>
      <trkpt lat="43.39719" lon="6.64505">
        <ele>262.79998779297</ele>
        <time>2019-05-04T13:02:25.000Z</time>
      </trkpt>
      <trkpt lat="43.39737" lon="6.64509">
        <ele>263</ele>
        <time>2019-05-04T13:02:32.000Z</time>
      </trkpt>
      <trkpt lat="43.39747" lon="6.64513">
        <ele>264</ele>
        <time>2019-05-04T13:02:36.000Z</time>
      </trkpt>
      <trkpt lat="43.39757" lon="6.64515">
        <ele>264.20001220703</ele>
        <time>2019-05-04T13:02:39.000Z</time>
      </trkpt>
      <trkpt lat="43.39779" lon="6.64519">
        <ele>264.60000610352</ele>
        <time>2019-05-04T13:02:46.000Z</time>
      </trkpt>
      <trkpt lat="43.39797" lon="6.64529">
        <ele>263.79998779297</ele>
        <time>2019-05-04T13:02:51.000Z</time>
      </trkpt>
      <trkpt lat="43.39805" lon="6.64528">
        <ele>263</ele>
        <time>2019-05-04T13:02:54.000Z</time>
      </trkpt>
      <trkpt lat="43.39806" lon="6.64528">
        <ele>262.60000610352</ele>
        <time>2019-05-04T13:02:55.000Z</time>
      </trkpt>
      <trkpt lat="43.39806" lon="6.64528">
        <ele>261.79998779297</ele>
        <time>2019-05-04T13:02:59.000Z</time>
      </trkpt>
      <trkpt lat="43.39806" lon="6.64528">
        <ele>261.79998779297</ele>
        <time>2019-05-04T13:03:00.000Z</time>
      </trkpt>
      <trkpt lat="43.39807" lon="6.64529">
        <ele>261.79998779297</ele>
        <time>2019-05-04T13:03:21.000Z</time>
      </trkpt>
      <trkpt lat="43.39808" lon="6.64529">
        <ele>261.60000610352</ele>
        <time>2019-05-04T13:03:41.000Z</time>
      </trkpt>
      <trkpt lat="43.39813" lon="6.64526">
        <ele>261.39999389648</ele>
        <time>2019-05-04T13:03:50.000Z</time>
      </trkpt>
      <trkpt lat="43.39823" lon="6.64516">
        <ele>261.20001220703</ele>
        <time>2019-05-04T13:03:54.000Z</time>
      </trkpt>
      <trkpt lat="43.39827" lon="6.64512">
        <ele>260.79998779297</ele>
        <time>2019-05-04T13:03:55.000Z</time>
      </trkpt>
      <trkpt lat="43.39841" lon="6.64508">
        <ele>259.60000610352</ele>
        <time>2019-05-04T13:03:58.000Z</time>
      </trkpt>
      <trkpt lat="43.39847" lon="6.64496">
        <ele>258.60000610352</ele>
        <time>2019-05-04T13:04:01.000Z</time>
      </trkpt>
      <trkpt lat="43.3985" lon="6.64493">
        <ele>258.20001220703</ele>
        <time>2019-05-04T13:04:02.000Z</time>
      </trkpt>
      <trkpt lat="43.39852" lon="6.6449">
        <ele>257.60000610352</ele>
        <time>2019-05-04T13:04:03.000Z</time>
      </trkpt>
      <trkpt lat="43.39853" lon="6.64487">
        <ele>256.79998779297</ele>
        <time>2019-05-04T13:04:04.000Z</time>
      </trkpt>
      <trkpt lat="43.39857" lon="6.64483">
        <ele>255.60000610352</ele>
        <time>2019-05-04T13:04:05.000Z</time>
      </trkpt>
      <trkpt lat="43.3986" lon="6.64474">
        <ele>254.39999389648</ele>
        <time>2019-05-04T13:04:07.000Z</time>
      </trkpt>
      <trkpt lat="43.39864" lon="6.64472">
        <ele>253.60000610352</ele>
        <time>2019-05-04T13:04:08.000Z</time>
      </trkpt>
      <trkpt lat="43.39869" lon="6.64468">
        <ele>253</ele>
        <time>2019-05-04T13:04:09.000Z</time>
      </trkpt>
      <trkpt lat="43.39882" lon="6.64456">
        <ele>251.39999389648</ele>
        <time>2019-05-04T13:04:12.000Z</time>
      </trkpt>
      <trkpt lat="43.39887" lon="6.64452">
        <ele>250.60000610352</ele>
        <time>2019-05-04T13:04:13.000Z</time>
      </trkpt>
      <trkpt lat="43.39891" lon="6.6445">
        <ele>250</ele>
        <time>2019-05-04T13:04:14.000Z</time>
      </trkpt>
      <trkpt lat="43.39897" lon="6.64447">
        <ele>249</ele>
        <time>2019-05-04T13:04:15.000Z</time>
      </trkpt>
      <trkpt lat="43.39912" lon="6.64444">
        <ele>247.60000610352</ele>
        <time>2019-05-04T13:04:18.000Z</time>
      </trkpt>
      <trkpt lat="43.39918" lon="6.64443">
        <ele>247.19999694824</ele>
        <time>2019-05-04T13:04:19.000Z</time>
      </trkpt>
      <trkpt lat="43.39925" lon="6.64441">
        <ele>246.39999389648</ele>
        <time>2019-05-04T13:04:20.000Z</time>
      </trkpt>
      <trkpt lat="43.39931" lon="6.64437">
        <ele>245.80000305176</ele>
        <time>2019-05-04T13:04:21.000Z</time>
      </trkpt>
      <trkpt lat="43.39936" lon="6.64433">
        <ele>245.39999389648</ele>
        <time>2019-05-04T13:04:22.000Z</time>
      </trkpt>
      <trkpt lat="43.39938" lon="6.64427">
        <ele>244.80000305176</ele>
        <time>2019-05-04T13:04:23.000Z</time>
      </trkpt>
      <trkpt lat="43.39941" lon="6.64423">
        <ele>244.19999694824</ele>
        <time>2019-05-04T13:04:24.000Z</time>
      </trkpt>
      <trkpt lat="43.39944" lon="6.64419">
        <ele>244</ele>
        <time>2019-05-04T13:04:25.000Z</time>
      </trkpt>
      <trkpt lat="43.39951" lon="6.64402">
        <ele>245.19999694824</ele>
        <time>2019-05-04T13:04:29.000Z</time>
      </trkpt>
      <trkpt lat="43.39953" lon="6.64398">
        <ele>245.39999389648</ele>
        <time>2019-05-04T13:04:30.000Z</time>
      </trkpt>
      <trkpt lat="43.3996" lon="6.64378">
        <ele>246</ele>
        <time>2019-05-04T13:04:36.000Z</time>
      </trkpt>
      <trkpt lat="43.39963" lon="6.64373">
        <ele>246.60000610352</ele>
        <time>2019-05-04T13:04:38.000Z</time>
      </trkpt>
      <trkpt lat="43.39969" lon="6.64366">
        <ele>247.80000305176</ele>
        <time>2019-05-04T13:04:41.000Z</time>
      </trkpt>
      <trkpt lat="43.39973" lon="6.64365">
        <ele>248</ele>
        <time>2019-05-04T13:04:42.000Z</time>
      </trkpt>
      <trkpt lat="43.39995" lon="6.64355">
        <ele>248</ele>
        <time>2019-05-04T13:04:47.000Z</time>
      </trkpt>
      <trkpt lat="43.4" lon="6.64351">
        <ele>247.39999389648</ele>
        <time>2019-05-04T13:04:48.000Z</time>
      </trkpt>
      <trkpt lat="43.4001" lon="6.64346">
        <ele>246.60000610352</ele>
        <time>2019-05-04T13:04:50.000Z</time>
      </trkpt>
      <trkpt lat="43.40014" lon="6.64346">
        <ele>245.80000305176</ele>
        <time>2019-05-04T13:04:51.000Z</time>
      </trkpt>
      <trkpt lat="43.40019" lon="6.64347">
        <ele>244.80000305176</ele>
        <time>2019-05-04T13:04:52.000Z</time>
      </trkpt>
      <trkpt lat="43.40026" lon="6.64349">
        <ele>243.80000305176</ele>
        <time>2019-05-04T13:04:54.000Z</time>
      </trkpt>
      <trkpt lat="43.40029" lon="6.64348">
        <ele>243.39999389648</ele>
        <time>2019-05-04T13:04:55.000Z</time>
      </trkpt>
      <trkpt lat="43.40035" lon="6.64346">
        <ele>242.60000610352</ele>
        <time>2019-05-04T13:04:57.000Z</time>
      </trkpt>
      <trkpt lat="43.40035" lon="6.64345">
        <ele>242</ele>
        <time>2019-05-04T13:04:58.000Z</time>
      </trkpt>
      <trkpt lat="43.40038" lon="6.64343">
        <ele>240.39999389648</ele>
        <time>2019-05-04T13:05:00.000Z</time>
      </trkpt>
      <trkpt lat="43.4004" lon="6.64342">
        <ele>239</ele>
        <time>2019-05-04T13:05:02.000Z</time>
      </trkpt>
      <trkpt lat="43.40043" lon="6.64339">
        <ele>238.19999694824</ele>
        <time>2019-05-04T13:05:04.000Z</time>
      </trkpt>
      <trkpt lat="43.40045" lon="6.64337">
        <ele>237.60000610352</ele>
        <time>2019-05-04T13:05:05.000Z</time>
      </trkpt>
      <trkpt lat="43.40052" lon="6.64329">
        <ele>236</ele>
        <time>2019-05-04T13:05:07.000Z</time>
      </trkpt>
      <trkpt lat="43.40054" lon="6.64324">
        <ele>235.19999694824</ele>
        <time>2019-05-04T13:05:08.000Z</time>
      </trkpt>
      <trkpt lat="43.40055" lon="6.6432">
        <ele>234.39999389648</ele>
        <time>2019-05-04T13:05:09.000Z</time>
      </trkpt>
      <trkpt lat="43.40056" lon="6.64316">
        <ele>233.39999389648</ele>
        <time>2019-05-04T13:05:10.000Z</time>
      </trkpt>
      <trkpt lat="43.4006" lon="6.64306">
        <ele>232.39999389648</ele>
        <time>2019-05-04T13:05:12.000Z</time>
      </trkpt>
      <trkpt lat="43.40061" lon="6.64299">
        <ele>231.39999389648</ele>
        <time>2019-05-04T13:05:13.000Z</time>
      </trkpt>
      <trkpt lat="43.40062" lon="6.64293">
        <ele>230.39999389648</ele>
        <time>2019-05-04T13:05:14.000Z</time>
      </trkpt>
      <trkpt lat="43.40066" lon="6.64291">
        <ele>229.39999389648</ele>
        <time>2019-05-04T13:05:15.000Z</time>
      </trkpt>
      <trkpt lat="43.40068" lon="6.64289">
        <ele>229</ele>
        <time>2019-05-04T13:05:16.000Z</time>
      </trkpt>
      <trkpt lat="43.4007" lon="6.64275">
        <ele>228.39999389648</ele>
        <time>2019-05-04T13:05:19.000Z</time>
      </trkpt>
      <trkpt lat="43.4007" lon="6.64266">
        <ele>227.19999694824</ele>
        <time>2019-05-04T13:05:21.000Z</time>
      </trkpt>
      <trkpt lat="43.40071" lon="6.64251">
        <ele>225.39999389648</ele>
        <time>2019-05-04T13:05:24.000Z</time>
      </trkpt>
      <trkpt lat="43.40067" lon="6.64247">
        <ele>224.39999389648</ele>
        <time>2019-05-04T13:05:25.000Z</time>
      </trkpt>
      <trkpt lat="43.40062" lon="6.64246">
        <ele>223.60000610352</ele>
        <time>2019-05-04T13:05:26.000Z</time>
      </trkpt>
      <trkpt lat="43.40057" lon="6.64244">
        <ele>222.39999389648</ele>
        <time>2019-05-04T13:05:27.000Z</time>
      </trkpt>
      <trkpt lat="43.40053" lon="6.6424">
        <ele>221.60000610352</ele>
        <time>2019-05-04T13:05:28.000Z</time>
      </trkpt>
      <trkpt lat="43.40051" lon="6.64235">
        <ele>220.19999694824</ele>
        <time>2019-05-04T13:05:29.000Z</time>
      </trkpt>
      <trkpt lat="43.40045" lon="6.64219">
        <ele>218.60000610352</ele>
        <time>2019-05-04T13:05:32.000Z</time>
      </trkpt>
      <trkpt lat="43.40045" lon="6.64205">
        <ele>217</ele>
        <time>2019-05-04T13:05:35.000Z</time>
      </trkpt>
      <trkpt lat="43.40049" lon="6.64204">
        <ele>216</ele>
        <time>2019-05-04T13:05:38.000Z</time>
      </trkpt>
      <trkpt lat="43.4005" lon="6.64205">
        <ele>215.60000610352</ele>
        <time>2019-05-04T13:05:45.000Z</time>
      </trkpt>
      <trkpt lat="43.40051" lon="6.64205">
        <ele>216</ele>
        <time>2019-05-04T13:05:57.000Z</time>
      </trkpt>
      <trkpt lat="43.40052" lon="6.64204">
        <ele>216.19999694824</ele>
        <time>2019-05-04T13:06:16.000Z</time>
      </trkpt>
      <trkpt lat="43.40054" lon="6.64206">
        <ele>216.19999694824</ele>
        <time>2019-05-04T13:06:23.000Z</time>
      </trkpt>
      <trkpt lat="43.40056" lon="6.64211">
        <ele>216.39999389648</ele>
        <time>2019-05-04T13:06:32.000Z</time>
      </trkpt>
      <trkpt lat="43.40058" lon="6.64212">
        <ele>216.39999389648</ele>
        <time>2019-05-04T13:06:33.000Z</time>
      </trkpt>
      <trkpt lat="43.40071" lon="6.64223">
        <ele>216.39999389648</ele>
        <time>2019-05-04T13:06:39.000Z</time>
      </trkpt>
      <trkpt lat="43.40088" lon="6.64228">
        <ele>217</ele>
        <time>2019-05-04T13:06:46.000Z</time>
      </trkpt>
      <trkpt lat="43.40091" lon="6.64228">
        <ele>217.19999694824</ele>
        <time>2019-05-04T13:06:47.000Z</time>
      </trkpt>
      <trkpt lat="43.40102" lon="6.64225">
        <ele>217.60000610352</ele>
        <time>2019-05-04T13:06:50.000Z</time>
      </trkpt>
      <trkpt lat="43.40115" lon="6.64228">
        <ele>217.39999389648</ele>
        <time>2019-05-04T13:06:53.000Z</time>
      </trkpt>
      <trkpt lat="43.40123" lon="6.64231">
        <ele>217.19999694824</ele>
        <time>2019-05-04T13:06:55.000Z</time>
      </trkpt>
      <trkpt lat="43.4014" lon="6.64239">
        <ele>217.39999389648</ele>
        <time>2019-05-04T13:06:59.000Z</time>
      </trkpt>
      <trkpt lat="43.40148" lon="6.64243">
        <ele>217.60000610352</ele>
        <time>2019-05-04T13:07:01.000Z</time>
      </trkpt>
      <trkpt lat="43.40163" lon="6.64248">
        <ele>218.39999389648</ele>
        <time>2019-05-04T13:07:06.000Z</time>
      </trkpt>
      <trkpt lat="43.40165" lon="6.6425">
        <ele>218.60000610352</ele>
        <time>2019-05-04T13:07:07.000Z</time>
      </trkpt>
      <trkpt lat="43.40174" lon="6.64254">
        <ele>219.60000610352</ele>
        <time>2019-05-04T13:07:11.000Z</time>
      </trkpt>
      <trkpt lat="43.40176" lon="6.64255">
        <ele>220</ele>
        <time>2019-05-04T13:07:12.000Z</time>
      </trkpt>
      <trkpt lat="43.40178" lon="6.64257">
        <ele>220.80000305176</ele>
        <time>2019-05-04T13:07:14.000Z</time>
      </trkpt>
      <trkpt lat="43.40184" lon="6.64261">
        <ele>221.39999389648</ele>
        <time>2019-05-04T13:07:18.000Z</time>
      </trkpt>
      <trkpt lat="43.40185" lon="6.64261">
        <ele>221.80000305176</ele>
        <time>2019-05-04T13:07:19.000Z</time>
      </trkpt>
      <trkpt lat="43.40194" lon="6.64264">
        <ele>222.80000305176</ele>
        <time>2019-05-04T13:07:23.000Z</time>
      </trkpt>
      <trkpt lat="43.40199" lon="6.64265">
        <ele>224</ele>
        <time>2019-05-04T13:07:26.000Z</time>
      </trkpt>
      <trkpt lat="43.40202" lon="6.64265">
        <ele>224.80000305176</ele>
        <time>2019-05-04T13:07:28.000Z</time>
      </trkpt>
      <trkpt lat="43.40203" lon="6.64265">
        <ele>225.19999694824</ele>
        <time>2019-05-04T13:07:29.000Z</time>
      </trkpt>
      <trkpt lat="43.40211" lon="6.64266">
        <ele>226.19999694824</ele>
        <time>2019-05-04T13:07:34.000Z</time>
      </trkpt>
      <trkpt lat="43.40221" lon="6.64267">
        <ele>227.19999694824</ele>
        <time>2019-05-04T13:07:40.000Z</time>
      </trkpt>
      <trkpt lat="43.40224" lon="6.64267">
        <ele>227.60000610352</ele>
        <time>2019-05-04T13:07:42.000Z</time>
      </trkpt>
      <trkpt lat="43.40231" lon="6.6427">
        <ele>228.60000610352</ele>
        <time>2019-05-04T13:07:47.000Z</time>
      </trkpt>
      <trkpt lat="43.40234" lon="6.64271">
        <ele>228.80000305176</ele>
        <time>2019-05-04T13:07:49.000Z</time>
      </trkpt>
      <trkpt lat="43.4024" lon="6.64273">
        <ele>229.80000305176</ele>
        <time>2019-05-04T13:07:53.000Z</time>
      </trkpt>
      <trkpt lat="43.40246" lon="6.64276">
        <ele>230.39999389648</ele>
        <time>2019-05-04T13:07:57.000Z</time>
      </trkpt>
      <trkpt lat="43.40249" lon="6.64277">
        <ele>231</ele>
        <time>2019-05-04T13:07:59.000Z</time>
      </trkpt>
      <trkpt lat="43.40253" lon="6.6428">
        <ele>232</ele>
        <time>2019-05-04T13:08:02.000Z</time>
      </trkpt>
      <trkpt lat="43.40255" lon="6.6428">
        <ele>232.39999389648</ele>
        <time>2019-05-04T13:08:03.000Z</time>
      </trkpt>
      <trkpt lat="43.40259" lon="6.64283">
        <ele>233.39999389648</ele>
        <time>2019-05-04T13:08:06.000Z</time>
      </trkpt>
      <trkpt lat="43.40262" lon="6.64285">
        <ele>234.19999694824</ele>
        <time>2019-05-04T13:08:09.000Z</time>
      </trkpt>
      <trkpt lat="43.40265" lon="6.64287">
        <ele>234.60000610352</ele>
        <time>2019-05-04T13:08:11.000Z</time>
      </trkpt>
      <trkpt lat="43.40268" lon="6.6429">
        <ele>235.60000610352</ele>
        <time>2019-05-04T13:08:15.000Z</time>
      </trkpt>
      <trkpt lat="43.4027" lon="6.64291">
        <ele>236</ele>
        <time>2019-05-04T13:08:17.000Z</time>
      </trkpt>
      <trkpt lat="43.40273" lon="6.64295">
        <ele>236.60000610352</ele>
        <time>2019-05-04T13:08:21.000Z</time>
      </trkpt>
      <trkpt lat="43.40276" lon="6.64298">
        <ele>237.39999389648</ele>
        <time>2019-05-04T13:08:25.000Z</time>
      </trkpt>
      <trkpt lat="43.40277" lon="6.64299">
        <ele>237.80000305176</ele>
        <time>2019-05-04T13:08:27.000Z</time>
      </trkpt>
      <trkpt lat="43.40282" lon="6.64304">
        <ele>238.80000305176</ele>
        <time>2019-05-04T13:08:33.000Z</time>
      </trkpt>
      <trkpt lat="43.40287" lon="6.64309">
        <ele>240</ele>
        <time>2019-05-04T13:08:38.000Z</time>
      </trkpt>
      <trkpt lat="43.40289" lon="6.64311">
        <ele>240.19999694824</ele>
        <time>2019-05-04T13:08:40.000Z</time>
      </trkpt>
      <trkpt lat="43.4029" lon="6.64311">
        <ele>240.39999389648</ele>
        <time>2019-05-04T13:08:41.000Z</time>
      </trkpt>
      <trkpt lat="43.40293" lon="6.64312">
        <ele>241</ele>
        <time>2019-05-04T13:08:43.000Z</time>
      </trkpt>
      <trkpt lat="43.40295" lon="6.64313">
        <ele>241.60000610352</ele>
        <time>2019-05-04T13:08:45.000Z</time>
      </trkpt>
      <trkpt lat="43.40297" lon="6.64315">
        <ele>242.39999389648</ele>
        <time>2019-05-04T13:08:47.000Z</time>
      </trkpt>
      <trkpt lat="43.403" lon="6.64318">
        <ele>243.39999389648</ele>
        <time>2019-05-04T13:08:51.000Z</time>
      </trkpt>
      <trkpt lat="43.40303" lon="6.64323">
        <ele>244.60000610352</ele>
        <time>2019-05-04T13:08:56.000Z</time>
      </trkpt>
      <trkpt lat="43.40305" lon="6.64325">
        <ele>245</ele>
        <time>2019-05-04T13:08:58.000Z</time>
      </trkpt>
      <trkpt lat="43.40309" lon="6.64327">
        <ele>245.60000610352</ele>
        <time>2019-05-04T13:09:01.000Z</time>
      </trkpt>
      <trkpt lat="43.40313" lon="6.6433">
        <ele>246.39999389648</ele>
        <time>2019-05-04T13:09:05.000Z</time>
      </trkpt>
      <trkpt lat="43.40315" lon="6.64331">
        <ele>246.60000610352</ele>
        <time>2019-05-04T13:09:06.000Z</time>
      </trkpt>
      <trkpt lat="43.40319" lon="6.64334">
        <ele>247.60000610352</ele>
        <time>2019-05-04T13:09:10.000Z</time>
      </trkpt>
      <trkpt lat="43.4032" lon="6.64335">
        <ele>248</ele>
        <time>2019-05-04T13:09:11.000Z</time>
      </trkpt>
      <trkpt lat="43.40324" lon="6.64337">
        <ele>248.60000610352</ele>
        <time>2019-05-04T13:09:15.000Z</time>
      </trkpt>
      <trkpt lat="43.40325" lon="6.64338">
        <ele>248.80000305176</ele>
        <time>2019-05-04T13:09:16.000Z</time>
      </trkpt>
      <trkpt lat="43.4033" lon="6.64342">
        <ele>250</ele>
        <time>2019-05-04T13:09:21.000Z</time>
      </trkpt>
      <trkpt lat="43.40331" lon="6.64342">
        <ele>250</ele>
        <time>2019-05-04T13:09:22.000Z</time>
      </trkpt>
      <trkpt lat="43.40337" lon="6.64345">
        <ele>251</ele>
        <time>2019-05-04T13:09:27.000Z</time>
      </trkpt>
      <trkpt lat="43.40338" lon="6.64346">
        <ele>251.19999694824</ele>
        <time>2019-05-04T13:09:28.000Z</time>
      </trkpt>
      <trkpt lat="43.40343" lon="6.64351">
        <ele>252</ele>
        <time>2019-05-04T13:09:34.000Z</time>
      </trkpt>
      <trkpt lat="43.40346" lon="6.64352">
        <ele>252.39999389648</ele>
        <time>2019-05-04T13:09:36.000Z</time>
      </trkpt>
      <trkpt lat="43.4035" lon="6.64356">
        <ele>253.19999694824</ele>
        <time>2019-05-04T13:09:40.000Z</time>
      </trkpt>
      <trkpt lat="43.40352" lon="6.64358">
        <ele>253.60000610352</ele>
        <time>2019-05-04T13:09:42.000Z</time>
      </trkpt>
      <trkpt lat="43.40355" lon="6.6436">
        <ele>254.19999694824</ele>
        <time>2019-05-04T13:09:44.000Z</time>
      </trkpt>
      <trkpt lat="43.40359" lon="6.64364">
        <ele>255.19999694824</ele>
        <time>2019-05-04T13:09:48.000Z</time>
      </trkpt>
      <trkpt lat="43.40363" lon="6.64368">
        <ele>256.39999389648</ele>
        <time>2019-05-04T13:09:52.000Z</time>
      </trkpt>
      <trkpt lat="43.4037" lon="6.64376">
        <ele>257.60000610352</ele>
        <time>2019-05-04T13:09:58.000Z</time>
      </trkpt>
      <trkpt lat="43.40372" lon="6.64377">
        <ele>257.79998779297</ele>
        <time>2019-05-04T13:09:59.000Z</time>
      </trkpt>
      <trkpt lat="43.40377" lon="6.64384">
        <ele>258.20001220703</ele>
        <time>2019-05-04T13:10:03.000Z</time>
      </trkpt>
      <trkpt lat="43.4038" lon="6.64389">
        <ele>258.60000610352</ele>
        <time>2019-05-04T13:10:06.000Z</time>
      </trkpt>
      <trkpt lat="43.40383" lon="6.64393">
        <ele>259.20001220703</ele>
        <time>2019-05-04T13:10:09.000Z</time>
      </trkpt>
      <trkpt lat="43.40385" lon="6.64395">
        <ele>259.39999389648</ele>
        <time>2019-05-04T13:10:10.000Z</time>
      </trkpt>
      <trkpt lat="43.40386" lon="6.64397">
        <ele>259.79998779297</ele>
        <time>2019-05-04T13:10:11.000Z</time>
      </trkpt>
      <trkpt lat="43.40393" lon="6.64404">
        <ele>260.20001220703</ele>
        <time>2019-05-04T13:10:16.000Z</time>
      </trkpt>
      <trkpt lat="43.40397" lon="6.64407">
        <ele>260.79998779297</ele>
        <time>2019-05-04T13:10:19.000Z</time>
      </trkpt>
      <trkpt lat="43.40401" lon="6.64409">
        <ele>261.20001220703</ele>
        <time>2019-05-04T13:10:22.000Z</time>
      </trkpt>
      <trkpt lat="43.40411" lon="6.64411">
        <ele>261.39999389648</ele>
        <time>2019-05-04T13:10:27.000Z</time>
      </trkpt>
      <trkpt lat="43.40421" lon="6.6441">
        <ele>261.79998779297</ele>
        <time>2019-05-04T13:10:31.000Z</time>
      </trkpt>
      <trkpt lat="43.40431" lon="6.6441">
        <ele>262.20001220703</ele>
        <time>2019-05-04T13:10:35.000Z</time>
      </trkpt>
      <trkpt lat="43.40444" lon="6.64418">
        <ele>262.39999389648</ele>
        <time>2019-05-04T13:10:40.000Z</time>
      </trkpt>
      <trkpt lat="43.40461" lon="6.64429">
        <ele>263.20001220703</ele>
        <time>2019-05-04T13:10:48.000Z</time>
      </trkpt>
      <trkpt lat="43.40466" lon="6.64435">
        <ele>264.39999389648</ele>
        <time>2019-05-04T13:10:52.000Z</time>
      </trkpt>
      <trkpt lat="43.40472" lon="6.6444">
        <ele>265.20001220703</ele>
        <time>2019-05-04T13:10:56.000Z</time>
      </trkpt>
      <trkpt lat="43.40474" lon="6.64441">
        <ele>265.60000610352</ele>
        <time>2019-05-04T13:10:57.000Z</time>
      </trkpt>
      <trkpt lat="43.40478" lon="6.64446">
        <ele>266.79998779297</ele>
        <time>2019-05-04T13:11:01.000Z</time>
      </trkpt>
      <trkpt lat="43.4048" lon="6.6445">
        <ele>267.60000610352</ele>
        <time>2019-05-04T13:11:04.000Z</time>
      </trkpt>
      <trkpt lat="43.40482" lon="6.64453">
        <ele>268.20001220703</ele>
        <time>2019-05-04T13:11:06.000Z</time>
      </trkpt>
      <trkpt lat="43.40486" lon="6.64457">
        <ele>269</ele>
        <time>2019-05-04T13:11:10.000Z</time>
      </trkpt>
      <trkpt lat="43.40488" lon="6.64458">
        <ele>269.20001220703</ele>
        <time>2019-05-04T13:11:11.000Z</time>
      </trkpt>
      <trkpt lat="43.40489" lon="6.64459">
        <ele>269.20001220703</ele>
        <time>2019-05-04T13:11:12.000Z</time>
      </trkpt>
      <trkpt lat="43.40491" lon="6.64463">
        <ele>269.79998779297</ele>
        <time>2019-05-04T13:11:15.000Z</time>
      </trkpt>
      <trkpt lat="43.40494" lon="6.64465">
        <ele>270.39999389648</ele>
        <time>2019-05-04T13:11:17.000Z</time>
      </trkpt>
      <trkpt lat="43.40499" lon="6.64471">
        <ele>271.20001220703</ele>
        <time>2019-05-04T13:11:22.000Z</time>
      </trkpt>
      <trkpt lat="43.405" lon="6.64472">
        <ele>271.39999389648</ele>
        <time>2019-05-04T13:11:23.000Z</time>
      </trkpt>
      <trkpt lat="43.40507" lon="6.64482">
        <ele>272.20001220703</ele>
        <time>2019-05-04T13:11:29.000Z</time>
      </trkpt>
      <trkpt lat="43.40511" lon="6.64486">
        <ele>272.60000610352</ele>
        <time>2019-05-04T13:11:32.000Z</time>
      </trkpt>
      <trkpt lat="43.40516" lon="6.64491">
        <ele>273.60000610352</ele>
        <time>2019-05-04T13:11:36.000Z</time>
      </trkpt>
      <trkpt lat="43.40517" lon="6.64492">
        <ele>273.79998779297</ele>
        <time>2019-05-04T13:11:37.000Z</time>
      </trkpt>
      <trkpt lat="43.40525" lon="6.64499">
        <ele>275</ele>
        <time>2019-05-04T13:11:42.000Z</time>
      </trkpt>
      <trkpt lat="43.40526" lon="6.64501">
        <ele>275.20001220703</ele>
        <time>2019-05-04T13:11:43.000Z</time>
      </trkpt>
      <trkpt lat="43.40533" lon="6.64508">
        <ele>276</ele>
        <time>2019-05-04T13:11:48.000Z</time>
      </trkpt>
      <trkpt lat="43.40535" lon="6.64511">
        <ele>276.39999389648</ele>
        <time>2019-05-04T13:11:50.000Z</time>
      </trkpt>
      <trkpt lat="43.40538" lon="6.64515">
        <ele>277.20001220703</ele>
        <time>2019-05-04T13:11:53.000Z</time>
      </trkpt>
      <trkpt lat="43.4054" lon="6.64519">
        <ele>278.39999389648</ele>
        <time>2019-05-04T13:11:56.000Z</time>
      </trkpt>
      <trkpt lat="43.40541" lon="6.6452">
        <ele>278.39999389648</ele>
        <time>2019-05-04T13:11:57.000Z</time>
      </trkpt>
      <trkpt lat="43.40547" lon="6.64525">
        <ele>279.60000610352</ele>
        <time>2019-05-04T13:12:01.000Z</time>
      </trkpt>
      <trkpt lat="43.40551" lon="6.64529">
        <ele>280.39999389648</ele>
        <time>2019-05-04T13:12:04.000Z</time>
      </trkpt>
      <trkpt lat="43.40553" lon="6.6453">
        <ele>280.60000610352</ele>
        <time>2019-05-04T13:12:05.000Z</time>
      </trkpt>
      <trkpt lat="43.40555" lon="6.64532">
        <ele>280.60000610352</ele>
        <time>2019-05-04T13:12:06.000Z</time>
      </trkpt>
      <trkpt lat="43.40557" lon="6.64535">
        <ele>280.79998779297</ele>
        <time>2019-05-04T13:12:08.000Z</time>
      </trkpt>
      <trkpt lat="43.40566" lon="6.64544">
        <ele>281.79998779297</ele>
        <time>2019-05-04T13:12:15.000Z</time>
      </trkpt>
      <trkpt lat="43.40567" lon="6.64545">
        <ele>281.79998779297</ele>
        <time>2019-05-04T13:12:16.000Z</time>
      </trkpt>
      <trkpt lat="43.40577" lon="6.64557">
        <ele>282.60000610352</ele>
        <time>2019-05-04T13:12:23.000Z</time>
      </trkpt>
      <trkpt lat="43.40578" lon="6.64559">
        <ele>282.79998779297</ele>
        <time>2019-05-04T13:12:24.000Z</time>
      </trkpt>
      <trkpt lat="43.40589" lon="6.64575">
        <ele>283.79998779297</ele>
        <time>2019-05-04T13:12:33.000Z</time>
      </trkpt>
      <trkpt lat="43.40594" lon="6.64575">
        <ele>284</ele>
        <time>2019-05-04T13:12:35.000Z</time>
      </trkpt>
      <trkpt lat="43.40601" lon="6.64574">
        <ele>284.20001220703</ele>
        <time>2019-05-04T13:12:39.000Z</time>
      </trkpt>
      <trkpt lat="43.40608" lon="6.6457">
        <ele>285</ele>
        <time>2019-05-04T13:12:44.000Z</time>
      </trkpt>
      <trkpt lat="43.40613" lon="6.64568">
        <ele>285.79998779297</ele>
        <time>2019-05-04T13:12:47.000Z</time>
      </trkpt>
      <trkpt lat="43.40614" lon="6.64567">
        <ele>286</ele>
        <time>2019-05-04T13:12:48.000Z</time>
      </trkpt>
      <trkpt lat="43.40621" lon="6.64565">
        <ele>287.20001220703</ele>
        <time>2019-05-04T13:12:53.000Z</time>
      </trkpt>
      <trkpt lat="43.40625" lon="6.64564">
        <ele>288</ele>
        <time>2019-05-04T13:12:57.000Z</time>
      </trkpt>
      <trkpt lat="43.40626" lon="6.64564">
        <ele>288.20001220703</ele>
        <time>2019-05-04T13:12:58.000Z</time>
      </trkpt>
      <trkpt lat="43.40634" lon="6.64563">
        <ele>289.20001220703</ele>
        <time>2019-05-04T13:13:04.000Z</time>
      </trkpt>
      <trkpt lat="43.40635" lon="6.64563">
        <ele>289.20001220703</ele>
        <time>2019-05-04T13:13:05.000Z</time>
      </trkpt>
      <trkpt lat="43.40644" lon="6.64561">
        <ele>290.39999389648</ele>
        <time>2019-05-04T13:13:11.000Z</time>
      </trkpt>
      <trkpt lat="43.40647" lon="6.64561">
        <ele>290.79998779297</ele>
        <time>2019-05-04T13:13:13.000Z</time>
      </trkpt>
      <trkpt lat="43.40652" lon="6.6456">
        <ele>291.39999389648</ele>
        <time>2019-05-04T13:13:16.000Z</time>
      </trkpt>
      <trkpt lat="43.40663" lon="6.64557">
        <ele>292.39999389648</ele>
        <time>2019-05-04T13:13:22.000Z</time>
      </trkpt>
      <trkpt lat="43.40665" lon="6.64557">
        <ele>292.79998779297</ele>
        <time>2019-05-04T13:13:23.000Z</time>
      </trkpt>
      <trkpt lat="43.40673" lon="6.64555">
        <ele>293.79998779297</ele>
        <time>2019-05-04T13:13:28.000Z</time>
      </trkpt>
      <trkpt lat="43.40677" lon="6.64556">
        <ele>294.20001220703</ele>
        <time>2019-05-04T13:13:30.000Z</time>
      </trkpt>
      <trkpt lat="43.40683" lon="6.64556">
        <ele>294.79998779297</ele>
        <time>2019-05-04T13:13:33.000Z</time>
      </trkpt>
      <trkpt lat="43.4069" lon="6.64555">
        <ele>296</ele>
        <time>2019-05-04T13:13:37.000Z</time>
      </trkpt>
      <trkpt lat="43.40692" lon="6.64555">
        <ele>296.20001220703</ele>
        <time>2019-05-04T13:13:38.000Z</time>
      </trkpt>
      <trkpt lat="43.40698" lon="6.64556">
        <ele>297</ele>
        <time>2019-05-04T13:13:42.000Z</time>
      </trkpt>
      <trkpt lat="43.40705" lon="6.64556">
        <ele>297.60000610352</ele>
        <time>2019-05-04T13:13:46.000Z</time>
      </trkpt>
      <trkpt lat="43.40726" lon="6.64553">
        <ele>297.39999389648</ele>
        <time>2019-05-04T13:13:53.000Z</time>
      </trkpt>
      <trkpt lat="43.40749" lon="6.64544">
        <ele>295.79998779297</ele>
        <time>2019-05-04T13:13:57.000Z</time>
      </trkpt>
      <trkpt lat="43.40755" lon="6.64541">
        <ele>295.39999389648</ele>
        <time>2019-05-04T13:13:58.000Z</time>
      </trkpt>
      <trkpt lat="43.40761" lon="6.64539">
        <ele>294.60000610352</ele>
        <time>2019-05-04T13:13:59.000Z</time>
      </trkpt>
      <trkpt lat="43.40775" lon="6.64538">
        <ele>294</ele>
        <time>2019-05-04T13:14:02.000Z</time>
      </trkpt>
      <trkpt lat="43.40783" lon="6.64538">
        <ele>295.60000610352</ele>
        <time>2019-05-04T13:14:06.000Z</time>
      </trkpt>
      <trkpt lat="43.40785" lon="6.64538">
        <ele>296.20001220703</ele>
        <time>2019-05-04T13:14:07.000Z</time>
      </trkpt>
      <trkpt lat="43.40787" lon="6.64538">
        <ele>296.79998779297</ele>
        <time>2019-05-04T13:14:08.000Z</time>
      </trkpt>
      <trkpt lat="43.40792" lon="6.64538">
        <ele>298.20001220703</ele>
        <time>2019-05-04T13:14:11.000Z</time>
      </trkpt>
      <trkpt lat="43.40797" lon="6.64539">
        <ele>298.79998779297</ele>
        <time>2019-05-04T13:14:13.000Z</time>
      </trkpt>
      <trkpt lat="43.40808" lon="6.6454">
        <ele>299.20001220703</ele>
        <time>2019-05-04T13:14:18.000Z</time>
      </trkpt>
      <trkpt lat="43.40815" lon="6.64541">
        <ele>300.39999389648</ele>
        <time>2019-05-04T13:14:22.000Z</time>
      </trkpt>
      <trkpt lat="43.40822" lon="6.64542">
        <ele>301.39999389648</ele>
        <time>2019-05-04T13:14:25.000Z</time>
      </trkpt>
      <trkpt lat="43.40826" lon="6.64543">
        <ele>302</ele>
        <time>2019-05-04T13:14:27.000Z</time>
      </trkpt>
      <trkpt lat="43.4083" lon="6.64544">
        <ele>302.60000610352</ele>
        <time>2019-05-04T13:14:29.000Z</time>
      </trkpt>
      <trkpt lat="43.40841" lon="6.64547">
        <ele>303.60000610352</ele>
        <time>2019-05-04T13:14:34.000Z</time>
      </trkpt>
      <trkpt lat="43.40843" lon="6.64547">
        <ele>304</ele>
        <time>2019-05-04T13:14:35.000Z</time>
      </trkpt>
      <trkpt lat="43.40847" lon="6.64547">
        <ele>305.20001220703</ele>
        <time>2019-05-04T13:14:38.000Z</time>
      </trkpt>
      <trkpt lat="43.40851" lon="6.64547">
        <ele>305.60000610352</ele>
        <time>2019-05-04T13:14:40.000Z</time>
      </trkpt>
      <trkpt lat="43.40854" lon="6.64548">
        <ele>306.20001220703</ele>
        <time>2019-05-04T13:14:42.000Z</time>
      </trkpt>
      <trkpt lat="43.40858" lon="6.64549">
        <ele>307.39999389648</ele>
        <time>2019-05-04T13:14:46.000Z</time>
      </trkpt>
      <trkpt lat="43.40862" lon="6.64549">
        <ele>308</ele>
        <time>2019-05-04T13:14:48.000Z</time>
      </trkpt>
      <trkpt lat="43.40863" lon="6.6455">
        <ele>308.39999389648</ele>
        <time>2019-05-04T13:14:50.000Z</time>
      </trkpt>
      <trkpt lat="43.40865" lon="6.64552">
        <ele>308.39999389648</ele>
        <time>2019-05-04T13:14:53.000Z</time>
      </trkpt>
      <trkpt lat="43.40865" lon="6.64552">
        <ele>308.79998779297</ele>
        <time>2019-05-04T13:14:59.000Z</time>
      </trkpt>
      <trkpt lat="43.40867" lon="6.64555">
        <ele>308.79998779297</ele>
        <time>2019-05-04T13:15:09.000Z</time>
      </trkpt>
      <trkpt lat="43.40868" lon="6.64564">
        <ele>309.20001220703</ele>
        <time>2019-05-04T13:15:14.000Z</time>
      </trkpt>
      <trkpt lat="43.40868" lon="6.64565">
        <ele>309.39999389648</ele>
        <time>2019-05-04T13:15:15.000Z</time>
      </trkpt>
      <trkpt lat="43.40867" lon="6.6457">
        <ele>309.79998779297</ele>
        <time>2019-05-04T13:15:18.000Z</time>
      </trkpt>
      <trkpt lat="43.40866" lon="6.64575">
        <ele>310.39999389648</ele>
        <time>2019-05-04T13:15:22.000Z</time>
      </trkpt>
      <trkpt lat="43.40865" lon="6.64581">
        <ele>311.79998779297</ele>
        <time>2019-05-04T13:15:26.000Z</time>
      </trkpt>
      <trkpt lat="43.40865" lon="6.64583">
        <ele>312</ele>
        <time>2019-05-04T13:15:27.000Z</time>
      </trkpt>
      <trkpt lat="43.40864" lon="6.64588">
        <ele>312.79998779297</ele>
        <time>2019-05-04T13:15:30.000Z</time>
      </trkpt>
      <trkpt lat="43.40864" lon="6.64592">
        <ele>313.20001220703</ele>
        <time>2019-05-04T13:15:33.000Z</time>
      </trkpt>
      <trkpt lat="43.40863" lon="6.64597">
        <ele>313.79998779297</ele>
        <time>2019-05-04T13:15:37.000Z</time>
      </trkpt>
      <trkpt lat="43.40861" lon="6.64602">
        <ele>314.60000610352</ele>
        <time>2019-05-04T13:15:40.000Z</time>
      </trkpt>
      <trkpt lat="43.40861" lon="6.64603">
        <ele>314.79998779297</ele>
        <time>2019-05-04T13:15:41.000Z</time>
      </trkpt>
      <trkpt lat="43.40859" lon="6.6461">
        <ele>316.20001220703</ele>
        <time>2019-05-04T13:15:45.000Z</time>
      </trkpt>
      <trkpt lat="43.40858" lon="6.64613">
        <ele>316.79998779297</ele>
        <time>2019-05-04T13:15:47.000Z</time>
      </trkpt>
      <trkpt lat="43.40858" lon="6.64613">
        <ele>317.39999389648</ele>
        <time>2019-05-04T13:15:48.000Z</time>
      </trkpt>
      <trkpt lat="43.40856" lon="6.64622">
        <ele>318.39999389648</ele>
        <time>2019-05-04T13:15:53.000Z</time>
      </trkpt>
      <trkpt lat="43.40856" lon="6.64624">
        <ele>318.39999389648</ele>
        <time>2019-05-04T13:15:54.000Z</time>
      </trkpt>
      <trkpt lat="43.40854" lon="6.64629">
        <ele>319.60000610352</ele>
        <time>2019-05-04T13:15:58.000Z</time>
      </trkpt>
      <trkpt lat="43.40854" lon="6.6463">
        <ele>320.39999389648</ele>
        <time>2019-05-04T13:16:00.000Z</time>
      </trkpt>
      <trkpt lat="43.40854" lon="6.64631">
        <ele>320.79998779297</ele>
        <time>2019-05-04T13:16:01.000Z</time>
      </trkpt>
      <trkpt lat="43.40854" lon="6.64636">
        <ele>321.60000610352</ele>
        <time>2019-05-04T13:16:05.000Z</time>
      </trkpt>
      <trkpt lat="43.40854" lon="6.64638">
        <ele>321.79998779297</ele>
        <time>2019-05-04T13:16:06.000Z</time>
      </trkpt>
      <trkpt lat="43.40852" lon="6.6464">
        <ele>323</ele>
        <time>2019-05-04T13:16:09.000Z</time>
      </trkpt>
      <trkpt lat="43.40852" lon="6.6464">
        <ele>323.39999389648</ele>
        <time>2019-05-04T13:16:11.000Z</time>
      </trkpt>
      <trkpt lat="43.40852" lon="6.64641">
        <ele>323.79998779297</ele>
        <time>2019-05-04T13:16:22.000Z</time>
      </trkpt>
      <trkpt lat="43.40852" lon="6.64644">
        <ele>323.79998779297</ele>
        <time>2019-05-04T13:16:24.000Z</time>
      </trkpt>
      <trkpt lat="43.40851" lon="6.64649">
        <ele>323.79998779297</ele>
        <time>2019-05-04T13:16:27.000Z</time>
      </trkpt>
      <trkpt lat="43.40851" lon="6.64652">
        <ele>324.20001220703</ele>
        <time>2019-05-04T13:16:29.000Z</time>
      </trkpt>
      <trkpt lat="43.40851" lon="6.64657">
        <ele>324.79998779297</ele>
        <time>2019-05-04T13:16:33.000Z</time>
      </trkpt>
      <trkpt lat="43.40851" lon="6.64659">
        <ele>324.79998779297</ele>
        <time>2019-05-04T13:16:34.000Z</time>
      </trkpt>
      <trkpt lat="43.40851" lon="6.64664">
        <ele>325</ele>
        <time>2019-05-04T13:16:37.000Z</time>
      </trkpt>
      <trkpt lat="43.40851" lon="6.64668">
        <ele>325.20001220703</ele>
        <time>2019-05-04T13:16:38.000Z</time>
      </trkpt>
      <trkpt lat="43.40851" lon="6.64673">
        <ele>325.39999389648</ele>
        <time>2019-05-04T13:16:40.000Z</time>
      </trkpt>
      <trkpt lat="43.40848" lon="6.64693">
        <ele>325.39999389648</ele>
        <time>2019-05-04T13:16:47.000Z</time>
      </trkpt>
      <trkpt lat="43.40845" lon="6.64706">
        <ele>326.39999389648</ele>
        <time>2019-05-04T13:16:51.000Z</time>
      </trkpt>
      <trkpt lat="43.40843" lon="6.64714">
        <ele>327.39999389648</ele>
        <time>2019-05-04T13:16:54.000Z</time>
      </trkpt>
      <trkpt lat="43.40842" lon="6.64716">
        <ele>327.60000610352</ele>
        <time>2019-05-04T13:16:55.000Z</time>
      </trkpt>
      <trkpt lat="43.4084" lon="6.64721">
        <ele>329</ele>
        <time>2019-05-04T13:16:57.000Z</time>
      </trkpt>
      <trkpt lat="43.40838" lon="6.64727">
        <ele>330</ele>
        <time>2019-05-04T13:17:00.000Z</time>
      </trkpt>
      <trkpt lat="43.40837" lon="6.64727">
        <ele>330.20001220703</ele>
        <time>2019-05-04T13:17:01.000Z</time>
      </trkpt>
      <trkpt lat="43.40832" lon="6.64736">
        <ele>331.20001220703</ele>
        <time>2019-05-04T13:17:06.000Z</time>
      </trkpt>
      <trkpt lat="43.4083" lon="6.64738">
        <ele>331.39999389648</ele>
        <time>2019-05-04T13:17:08.000Z</time>
      </trkpt>
      <trkpt lat="43.40828" lon="6.64743">
        <ele>332.20001220703</ele>
        <time>2019-05-04T13:17:11.000Z</time>
      </trkpt>
      <trkpt lat="43.40824" lon="6.6475">
        <ele>333</ele>
        <time>2019-05-04T13:17:15.000Z</time>
      </trkpt>
      <trkpt lat="43.40821" lon="6.64757">
        <ele>333.39999389648</ele>
        <time>2019-05-04T13:17:20.000Z</time>
      </trkpt>
      <trkpt lat="43.40819" lon="6.64759">
        <ele>333.60000610352</ele>
        <time>2019-05-04T13:17:21.000Z</time>
      </trkpt>
      <trkpt lat="43.40815" lon="6.64769">
        <ele>334.20001220703</ele>
        <time>2019-05-04T13:17:27.000Z</time>
      </trkpt>
      <trkpt lat="43.40812" lon="6.64774">
        <ele>334.39999389648</ele>
        <time>2019-05-04T13:17:30.000Z</time>
      </trkpt>
      <trkpt lat="43.40808" lon="6.64786">
        <ele>334.20001220703</ele>
        <time>2019-05-04T13:17:34.000Z</time>
      </trkpt>
      <trkpt lat="43.40806" lon="6.6481">
        <ele>333.60000610352</ele>
        <time>2019-05-04T13:17:41.000Z</time>
      </trkpt>
      <trkpt lat="43.40805" lon="6.64826">
        <ele>335</ele>
        <time>2019-05-04T13:17:47.000Z</time>
      </trkpt>
      <trkpt lat="43.40805" lon="6.64832">
        <ele>335.60000610352</ele>
        <time>2019-05-04T13:17:49.000Z</time>
      </trkpt>
      <trkpt lat="43.40804" lon="6.64842">
        <ele>335.60000610352</ele>
        <time>2019-05-04T13:17:52.000Z</time>
      </trkpt>
      <trkpt lat="43.408" lon="6.64867">
        <ele>336</ele>
        <time>2019-05-04T13:17:59.000Z</time>
      </trkpt>
      <trkpt lat="43.40799" lon="6.64879">
        <ele>335.60000610352</ele>
        <time>2019-05-04T13:18:01.000Z</time>
      </trkpt>
      <trkpt lat="43.40803" lon="6.64892">
        <ele>334.60000610352</ele>
        <time>2019-05-04T13:18:04.000Z</time>
      </trkpt>
      <trkpt lat="43.40804" lon="6.64894">
        <ele>334.39999389648</ele>
        <time>2019-05-04T13:18:05.000Z</time>
      </trkpt>
      <trkpt lat="43.40805" lon="6.64897">
        <ele>334.39999389648</ele>
        <time>2019-05-04T13:18:06.000Z</time>
      </trkpt>
      <trkpt lat="43.4081" lon="6.64902">
        <ele>335.20001220703</ele>
        <time>2019-05-04T13:18:09.000Z</time>
      </trkpt>
      <trkpt lat="43.40811" lon="6.64903">
        <ele>335.60000610352</ele>
        <time>2019-05-04T13:18:10.000Z</time>
      </trkpt>
      <trkpt lat="43.40815" lon="6.64909">
        <ele>336.79998779297</ele>
        <time>2019-05-04T13:18:13.000Z</time>
      </trkpt>
      <trkpt lat="43.40819" lon="6.64912">
        <ele>337.39999389648</ele>
        <time>2019-05-04T13:18:15.000Z</time>
      </trkpt>
      <trkpt lat="43.40823" lon="6.64916">
        <ele>337.79998779297</ele>
        <time>2019-05-04T13:18:18.000Z</time>
      </trkpt>
      <trkpt lat="43.40831" lon="6.6492">
        <ele>339</ele>
        <time>2019-05-04T13:18:22.000Z</time>
      </trkpt>
      <trkpt lat="43.40847" lon="6.64934">
        <ele>340</ele>
        <time>2019-05-04T13:18:31.000Z</time>
      </trkpt>
      <trkpt lat="43.4085" lon="6.64938">
        <ele>340.20001220703</ele>
        <time>2019-05-04T13:18:33.000Z</time>
      </trkpt>
      <trkpt lat="43.4085" lon="6.64947">
        <ele>341.20001220703</ele>
        <time>2019-05-04T13:18:37.000Z</time>
      </trkpt>
      <trkpt lat="43.40849" lon="6.64949">
        <ele>341.39999389648</ele>
        <time>2019-05-04T13:18:38.000Z</time>
      </trkpt>
      <trkpt lat="43.40845" lon="6.64956">
        <ele>342.60000610352</ele>
        <time>2019-05-04T13:18:42.000Z</time>
      </trkpt>
      <trkpt lat="43.40844" lon="6.64958">
        <ele>343</ele>
        <time>2019-05-04T13:18:43.000Z</time>
      </trkpt>
      <trkpt lat="43.40841" lon="6.64971">
        <ele>343.79998779297</ele>
        <time>2019-05-04T13:18:49.000Z</time>
      </trkpt>
      <trkpt lat="43.40841" lon="6.64974">
        <ele>343.79998779297</ele>
        <time>2019-05-04T13:18:50.000Z</time>
      </trkpt>
      <trkpt lat="43.40842" lon="6.6499">
        <ele>345</ele>
        <time>2019-05-04T13:18:56.000Z</time>
      </trkpt>
      <trkpt lat="43.40842" lon="6.64994">
        <ele>345.60000610352</ele>
        <time>2019-05-04T13:18:58.000Z</time>
      </trkpt>
      <trkpt lat="43.40842" lon="6.64996">
        <ele>346.20001220703</ele>
        <time>2019-05-04T13:18:59.000Z</time>
      </trkpt>
      <trkpt lat="43.40843" lon="6.65005">
        <ele>347.20001220703</ele>
        <time>2019-05-04T13:19:04.000Z</time>
      </trkpt>
      <trkpt lat="43.40844" lon="6.65009">
        <ele>347.60000610352</ele>
        <time>2019-05-04T13:19:06.000Z</time>
      </trkpt>
      <trkpt lat="43.40845" lon="6.65014">
        <ele>348.20001220703</ele>
        <time>2019-05-04T13:19:09.000Z</time>
      </trkpt>
      <trkpt lat="43.40849" lon="6.65031">
        <ele>348.79998779297</ele>
        <time>2019-05-04T13:19:16.000Z</time>
      </trkpt>
      <trkpt lat="43.40855" lon="6.6505">
        <ele>348.60000610352</ele>
        <time>2019-05-04T13:19:21.000Z</time>
      </trkpt>
      <trkpt lat="43.4086" lon="6.65052">
        <ele>348</ele>
        <time>2019-05-04T13:19:23.000Z</time>
      </trkpt>
      <trkpt lat="43.40862" lon="6.65051">
        <ele>347.60000610352</ele>
        <time>2019-05-04T13:19:24.000Z</time>
      </trkpt>
      <trkpt lat="43.40868" lon="6.6505">
        <ele>348</ele>
        <time>2019-05-04T13:19:27.000Z</time>
      </trkpt>
      <trkpt lat="43.40872" lon="6.65049">
        <ele>349.39999389648</ele>
        <time>2019-05-04T13:19:30.000Z</time>
      </trkpt>
      <trkpt lat="43.40877" lon="6.65049">
        <ele>350.60000610352</ele>
        <time>2019-05-04T13:19:33.000Z</time>
      </trkpt>
      <trkpt lat="43.40886" lon="6.65049">
        <ele>350.79998779297</ele>
        <time>2019-05-04T13:19:38.000Z</time>
      </trkpt>
      <trkpt lat="43.40897" lon="6.6505">
        <ele>351.39999389648</ele>
        <time>2019-05-04T13:19:44.000Z</time>
      </trkpt>
      <trkpt lat="43.40901" lon="6.6505">
        <ele>351.60000610352</ele>
        <time>2019-05-04T13:19:46.000Z</time>
      </trkpt>
      <trkpt lat="43.40913" lon="6.65048">
        <ele>351.39999389648</ele>
        <time>2019-05-04T13:19:49.000Z</time>
      </trkpt>
      <trkpt lat="43.40917" lon="6.65048">
        <ele>351.20001220703</ele>
        <time>2019-05-04T13:19:50.000Z</time>
      </trkpt>
      <trkpt lat="43.40926" lon="6.65051">
        <ele>350.39999389648</ele>
        <time>2019-05-04T13:19:53.000Z</time>
      </trkpt>
      <trkpt lat="43.40929" lon="6.65052">
        <ele>350.20001220703</ele>
        <time>2019-05-04T13:19:54.000Z</time>
      </trkpt>
      <trkpt lat="43.40932" lon="6.65053">
        <ele>350.79998779297</ele>
        <time>2019-05-04T13:19:57.000Z</time>
      </trkpt>
      <trkpt lat="43.40934" lon="6.65054">
        <ele>351.20001220703</ele>
        <time>2019-05-04T13:19:58.000Z</time>
      </trkpt>
      <trkpt lat="43.40935" lon="6.65054">
        <ele>351.60000610352</ele>
        <time>2019-05-04T13:19:59.000Z</time>
      </trkpt>
      <trkpt lat="43.40938" lon="6.65056">
        <ele>352.60000610352</ele>
        <time>2019-05-04T13:20:03.000Z</time>
      </trkpt>
      <trkpt lat="43.40939" lon="6.65056">
        <ele>353.60000610352</ele>
        <time>2019-05-04T13:20:08.000Z</time>
      </trkpt>
      <trkpt lat="43.40939" lon="6.65057">
        <ele>353.60000610352</ele>
        <time>2019-05-04T13:20:09.000Z</time>
      </trkpt>
      <trkpt lat="43.40941" lon="6.65059">
        <ele>353.79998779297</ele>
        <time>2019-05-04T13:20:16.000Z</time>
      </trkpt>
      <trkpt lat="43.40941" lon="6.65064">
        <ele>354.39999389648</ele>
        <time>2019-05-04T13:20:21.000Z</time>
      </trkpt>
      <trkpt lat="43.4094" lon="6.65065">
        <ele>354.60000610352</ele>
        <time>2019-05-04T13:20:23.000Z</time>
      </trkpt>
      <trkpt lat="43.40939" lon="6.65067">
        <ele>355</ele>
        <time>2019-05-04T13:20:26.000Z</time>
      </trkpt>
      <trkpt lat="43.40939" lon="6.65067">
        <ele>355.79998779297</ele>
        <time>2019-05-04T13:20:29.000Z</time>
      </trkpt>
      <trkpt lat="43.40938" lon="6.65069">
        <ele>356</ele>
        <time>2019-05-04T13:20:31.000Z</time>
      </trkpt>
      <trkpt lat="43.40937" lon="6.65073">
        <ele>356.79998779297</ele>
        <time>2019-05-04T13:20:35.000Z</time>
      </trkpt>
      <trkpt lat="43.40937" lon="6.65074">
        <ele>357</ele>
        <time>2019-05-04T13:20:36.000Z</time>
      </trkpt>
      <trkpt lat="43.40937" lon="6.65078">
        <ele>357.79998779297</ele>
        <time>2019-05-04T13:20:44.000Z</time>
      </trkpt>
      <trkpt lat="43.40937" lon="6.65078">
        <ele>358</ele>
        <time>2019-05-04T13:20:45.000Z</time>
      </trkpt>
      <trkpt lat="43.40938" lon="6.65082">
        <ele>359.20001220703</ele>
        <time>2019-05-04T13:20:49.000Z</time>
      </trkpt>
      <trkpt lat="43.40939" lon="6.65082">
        <ele>359.20001220703</ele>
        <time>2019-05-04T13:20:50.000Z</time>
      </trkpt>
      <trkpt lat="43.40938" lon="6.65088">
        <ele>359.79998779297</ele>
        <time>2019-05-04T13:20:59.000Z</time>
      </trkpt>
      <trkpt lat="43.40937" lon="6.6509">
        <ele>360.20001220703</ele>
        <time>2019-05-04T13:21:01.000Z</time>
      </trkpt>
      <trkpt lat="43.40938" lon="6.65093">
        <ele>360.60000610352</ele>
        <time>2019-05-04T13:21:04.000Z</time>
      </trkpt>
      <trkpt lat="43.4094" lon="6.65095">
        <ele>361.39999389648</ele>
        <time>2019-05-04T13:21:08.000Z</time>
      </trkpt>
      <trkpt lat="43.4094" lon="6.65094">
        <ele>361.79998779297</ele>
        <time>2019-05-04T13:21:10.000Z</time>
      </trkpt>
      <trkpt lat="43.40944" lon="6.65096">
        <ele>362.20001220703</ele>
        <time>2019-05-04T13:21:14.000Z</time>
      </trkpt>
      <trkpt lat="43.40945" lon="6.65097">
        <ele>362.20001220703</ele>
        <time>2019-05-04T13:21:15.000Z</time>
      </trkpt>
      <trkpt lat="43.40946" lon="6.65099">
        <ele>362.39999389648</ele>
        <time>2019-05-04T13:21:19.000Z</time>
      </trkpt>
      <trkpt lat="43.40946" lon="6.65098">
        <ele>363.39999389648</ele>
        <time>2019-05-04T13:21:20.000Z</time>
      </trkpt>
      <trkpt lat="43.40948" lon="6.651">
        <ele>360.39999389648</ele>
        <time>2019-05-04T13:21:21.000Z</time>
      </trkpt>
      <trkpt lat="43.40951" lon="6.65103">
        <ele>359.20001220703</ele>
        <time>2019-05-04T13:21:25.000Z</time>
      </trkpt>
      <trkpt lat="43.40951" lon="6.65104">
        <ele>362</ele>
        <time>2019-05-04T13:21:26.000Z</time>
      </trkpt>
      <trkpt lat="43.40953" lon="6.65104">
        <ele>361.60000610352</ele>
        <time>2019-05-04T13:21:27.000Z</time>
      </trkpt>
      <trkpt lat="43.40956" lon="6.65104">
        <ele>361.79998779297</ele>
        <time>2019-05-04T13:21:31.000Z</time>
      </trkpt>
      <trkpt lat="43.40956" lon="6.65104">
        <ele>363.20001220703</ele>
        <time>2019-05-04T13:21:35.000Z</time>
      </trkpt>
      <trkpt lat="43.40956" lon="6.65104">
        <ele>363.39999389648</ele>
        <time>2019-05-04T13:21:36.000Z</time>
      </trkpt>
      <trkpt lat="43.40957" lon="6.65105">
        <ele>363.60000610352</ele>
        <time>2019-05-04T13:21:48.000Z</time>
      </trkpt>
      <trkpt lat="43.40956" lon="6.65104">
        <ele>363.20001220703</ele>
        <time>2019-05-04T13:21:55.000Z</time>
      </trkpt>
      <trkpt lat="43.40956" lon="6.65103">
        <ele>358.39999389648</ele>
        <time>2019-05-04T13:22:02.000Z</time>
      </trkpt>
      <trkpt lat="43.40959" lon="6.65101">
        <ele>355.60000610352</ele>
        <time>2019-05-04T13:22:03.000Z</time>
      </trkpt>
      <trkpt lat="43.40958" lon="6.65102">
        <ele>355.20001220703</ele>
        <time>2019-05-04T13:22:06.000Z</time>
      </trkpt>
      <trkpt lat="43.40957" lon="6.65102">
        <ele>355.39999389648</ele>
        <time>2019-05-04T13:22:19.000Z</time>
      </trkpt>
      <trkpt lat="43.40957" lon="6.65102">
        <ele>355.60000610352</ele>
        <time>2019-05-04T13:22:33.000Z</time>
      </trkpt>
      <trkpt lat="43.40957" lon="6.65103">
        <ele>355.79998779297</ele>
        <time>2019-05-04T13:22:47.000Z</time>
      </trkpt>
      <trkpt lat="43.40956" lon="6.65103">
        <ele>356.60000610352</ele>
        <time>2019-05-04T13:22:51.000Z</time>
      </trkpt>
      <trkpt lat="43.40956" lon="6.65102">
        <ele>356.79998779297</ele>
        <time>2019-05-04T13:22:52.000Z</time>
      </trkpt>
      <trkpt lat="43.40956" lon="6.65103">
        <ele>357.60000610352</ele>
        <time>2019-05-04T13:23:00.000Z</time>
      </trkpt>
      <trkpt lat="43.40957" lon="6.65104">
        <ele>358.60000610352</ele>
        <time>2019-05-04T13:23:08.000Z</time>
      </trkpt>
      <trkpt lat="43.40956" lon="6.65104">
        <ele>358.79998779297</ele>
        <time>2019-05-04T13:23:10.000Z</time>
      </trkpt>
      <trkpt lat="43.40956" lon="6.65104">
        <ele>360</ele>
        <time>2019-05-04T13:23:15.000Z</time>
      </trkpt>
      <trkpt lat="43.40957" lon="6.65105">
        <ele>360.39999389648</ele>
        <time>2019-05-04T13:23:21.000Z</time>
      </trkpt>
      <trkpt lat="43.40961" lon="6.65107">
        <ele>361</ele>
        <time>2019-05-04T13:23:24.000Z</time>
      </trkpt>
      <trkpt lat="43.40964" lon="6.65109">
        <ele>361.20001220703</ele>
        <time>2019-05-04T13:23:25.000Z</time>
      </trkpt>
      <trkpt lat="43.40978" lon="6.65119">
        <ele>361</ele>
        <time>2019-05-04T13:23:30.000Z</time>
      </trkpt>
      <trkpt lat="43.40987" lon="6.65118">
        <ele>360.60000610352</ele>
        <time>2019-05-04T13:23:35.000Z</time>
      </trkpt>
      <trkpt lat="43.40995" lon="6.6512">
        <ele>361.60000610352</ele>
        <time>2019-05-04T13:23:40.000Z</time>
      </trkpt>
      <trkpt lat="43.40998" lon="6.65126">
        <ele>362</ele>
        <time>2019-05-04T13:23:42.000Z</time>
      </trkpt>
      <trkpt lat="43.41002" lon="6.65134">
        <ele>361.60000610352</ele>
        <time>2019-05-04T13:23:44.000Z</time>
      </trkpt>
      <trkpt lat="43.41009" lon="6.65137">
        <ele>360.39999389648</ele>
        <time>2019-05-04T13:23:46.000Z</time>
      </trkpt>
      <trkpt lat="43.41015" lon="6.65143">
        <ele>358.60000610352</ele>
        <time>2019-05-04T13:23:48.000Z</time>
      </trkpt>
      <trkpt lat="43.41017" lon="6.65149">
        <ele>357.39999389648</ele>
        <time>2019-05-04T13:23:50.000Z</time>
      </trkpt>
      <trkpt lat="43.41019" lon="6.65149">
        <ele>356.79998779297</ele>
        <time>2019-05-04T13:23:51.000Z</time>
      </trkpt>
      <trkpt lat="43.41022" lon="6.65147">
        <ele>356.39999389648</ele>
        <time>2019-05-04T13:23:52.000Z</time>
      </trkpt>
      <trkpt lat="43.41032" lon="6.65144">
        <ele>355.20001220703</ele>
        <time>2019-05-04T13:23:55.000Z</time>
      </trkpt>
      <trkpt lat="43.41034" lon="6.65144">
        <ele>353.60000610352</ele>
        <time>2019-05-04T13:23:58.000Z</time>
      </trkpt>
      <trkpt lat="43.41036" lon="6.65148">
        <ele>353.60000610352</ele>
        <time>2019-05-04T13:24:00.000Z</time>
      </trkpt>
      <trkpt lat="43.41036" lon="6.65155">
        <ele>353.79998779297</ele>
        <time>2019-05-04T13:24:02.000Z</time>
      </trkpt>
      <trkpt lat="43.41033" lon="6.65164">
        <ele>353</ele>
        <time>2019-05-04T13:24:05.000Z</time>
      </trkpt>
      <trkpt lat="43.41033" lon="6.65167">
        <ele>352.60000610352</ele>
        <time>2019-05-04T13:24:06.000Z</time>
      </trkpt>
      <trkpt lat="43.41031" lon="6.65173">
        <ele>351.60000610352</ele>
        <time>2019-05-04T13:24:08.000Z</time>
      </trkpt>
      <trkpt lat="43.41031" lon="6.65175">
        <ele>351.20001220703</ele>
        <time>2019-05-04T13:24:09.000Z</time>
      </trkpt>
      <trkpt lat="43.41029" lon="6.65176">
        <ele>350.79998779297</ele>
        <time>2019-05-04T13:24:10.000Z</time>
      </trkpt>
      <trkpt lat="43.41029" lon="6.65181">
        <ele>350.79998779297</ele>
        <time>2019-05-04T13:24:12.000Z</time>
      </trkpt>
      <trkpt lat="43.41028" lon="6.65189">
        <ele>350.20001220703</ele>
        <time>2019-05-04T13:24:15.000Z</time>
      </trkpt>
      <trkpt lat="43.41028" lon="6.65191">
        <ele>349.79998779297</ele>
        <time>2019-05-04T13:24:16.000Z</time>
      </trkpt>
      <trkpt lat="43.41028" lon="6.65198">
        <ele>348.39999389648</ele>
        <time>2019-05-04T13:24:18.000Z</time>
      </trkpt>
      <trkpt lat="43.4103" lon="6.65199">
        <ele>347.60000610352</ele>
        <time>2019-05-04T13:24:19.000Z</time>
      </trkpt>
      <trkpt lat="43.41032" lon="6.65199">
        <ele>347</ele>
        <time>2019-05-04T13:24:20.000Z</time>
      </trkpt>
      <trkpt lat="43.41037" lon="6.65199">
        <ele>345.39999389648</ele>
        <time>2019-05-04T13:24:22.000Z</time>
      </trkpt>
      <trkpt lat="43.41043" lon="6.65204">
        <ele>344.60000610352</ele>
        <time>2019-05-04T13:24:24.000Z</time>
      </trkpt>
      <trkpt lat="43.41046" lon="6.65204">
        <ele>343.79998779297</ele>
        <time>2019-05-04T13:24:25.000Z</time>
      </trkpt>
      <trkpt lat="43.41055" lon="6.65201">
        <ele>342.60000610352</ele>
        <time>2019-05-04T13:24:27.000Z</time>
      </trkpt>
      <trkpt lat="43.4106" lon="6.65202">
        <ele>341.79998779297</ele>
        <time>2019-05-04T13:24:28.000Z</time>
      </trkpt>
      <trkpt lat="43.41063" lon="6.65201">
        <ele>341</ele>
        <time>2019-05-04T13:24:29.000Z</time>
      </trkpt>
      <trkpt lat="43.41067" lon="6.65195">
        <ele>340.20001220703</ele>
        <time>2019-05-04T13:24:31.000Z</time>
      </trkpt>
      <trkpt lat="43.41071" lon="6.65192">
        <ele>339.39999389648</ele>
        <time>2019-05-04T13:24:32.000Z</time>
      </trkpt>
      <trkpt lat="43.41084" lon="6.65189">
        <ele>338.39999389648</ele>
        <time>2019-05-04T13:24:35.000Z</time>
      </trkpt>
      <trkpt lat="43.41089" lon="6.65195">
        <ele>337.20001220703</ele>
        <time>2019-05-04T13:24:37.000Z</time>
      </trkpt>
      <trkpt lat="43.41091" lon="6.65197">
        <ele>337.20001220703</ele>
        <time>2019-05-04T13:24:38.000Z</time>
      </trkpt>
      <trkpt lat="43.41096" lon="6.65197">
        <ele>335.39999389648</ele>
        <time>2019-05-04T13:24:40.000Z</time>
      </trkpt>
      <trkpt lat="43.41102" lon="6.65196">
        <ele>334.39999389648</ele>
        <time>2019-05-04T13:24:41.000Z</time>
      </trkpt>
      <trkpt lat="43.41107" lon="6.65194">
        <ele>334.20001220703</ele>
        <time>2019-05-04T13:24:42.000Z</time>
      </trkpt>
      <trkpt lat="43.4111" lon="6.6519">
        <ele>333.20001220703</ele>
        <time>2019-05-04T13:24:43.000Z</time>
      </trkpt>
      <trkpt lat="43.41116" lon="6.6518">
        <ele>331.39999389648</ele>
        <time>2019-05-04T13:24:45.000Z</time>
      </trkpt>
      <trkpt lat="43.41124" lon="6.65182">
        <ele>329.79998779297</ele>
        <time>2019-05-04T13:24:47.000Z</time>
      </trkpt>
      <trkpt lat="43.41131" lon="6.65194">
        <ele>328.60000610352</ele>
        <time>2019-05-04T13:24:50.000Z</time>
      </trkpt>
      <trkpt lat="43.41136" lon="6.65195">
        <ele>327</ele>
        <time>2019-05-04T13:24:52.000Z</time>
      </trkpt>
      <trkpt lat="43.41139" lon="6.65193">
        <ele>325.60000610352</ele>
        <time>2019-05-04T13:24:53.000Z</time>
      </trkpt>
      <trkpt lat="43.41143" lon="6.65192">
        <ele>324.20001220703</ele>
        <time>2019-05-04T13:24:54.000Z</time>
      </trkpt>
      <trkpt lat="43.4115" lon="6.65192">
        <ele>322.20001220703</ele>
        <time>2019-05-04T13:24:56.000Z</time>
      </trkpt>
      <trkpt lat="43.41154" lon="6.65189">
        <ele>321.60000610352</ele>
        <time>2019-05-04T13:24:57.000Z</time>
      </trkpt>
      <trkpt lat="43.41157" lon="6.65188">
        <ele>321.39999389648</ele>
        <time>2019-05-04T13:24:58.000Z</time>
      </trkpt>
      <trkpt lat="43.41158" lon="6.6519">
        <ele>321</ele>
        <time>2019-05-04T13:24:59.000Z</time>
      </trkpt>
      <trkpt lat="43.41161" lon="6.65193">
        <ele>320.60000610352</ele>
        <time>2019-05-04T13:25:00.000Z</time>
      </trkpt>
      <trkpt lat="43.41167" lon="6.65196">
        <ele>319.39999389648</ele>
        <time>2019-05-04T13:25:02.000Z</time>
      </trkpt>
      <trkpt lat="43.41173" lon="6.652">
        <ele>318.20001220703</ele>
        <time>2019-05-04T13:25:04.000Z</time>
      </trkpt>
      <trkpt lat="43.41177" lon="6.65201">
        <ele>317</ele>
        <time>2019-05-04T13:25:06.000Z</time>
      </trkpt>
      <trkpt lat="43.41181" lon="6.65202">
        <ele>316.20001220703</ele>
        <time>2019-05-04T13:25:07.000Z</time>
      </trkpt>
      <trkpt lat="43.41184" lon="6.65206">
        <ele>314.79998779297</ele>
        <time>2019-05-04T13:25:08.000Z</time>
      </trkpt>
      <trkpt lat="43.41185" lon="6.65209">
        <ele>316</ele>
        <time>2019-05-04T13:25:09.000Z</time>
      </trkpt>
      <trkpt lat="43.41188" lon="6.6521">
        <ele>315</ele>
        <time>2019-05-04T13:25:10.000Z</time>
      </trkpt>
      <trkpt lat="43.41191" lon="6.65214">
        <ele>314</ele>
        <time>2019-05-04T13:25:11.000Z</time>
      </trkpt>
      <trkpt lat="43.41197" lon="6.65217">
        <ele>312.20001220703</ele>
        <time>2019-05-04T13:25:13.000Z</time>
      </trkpt>
      <trkpt lat="43.41201" lon="6.6522">
        <ele>310.60000610352</ele>
        <time>2019-05-04T13:25:15.000Z</time>
      </trkpt>
      <trkpt lat="43.412" lon="6.65219">
        <ele>309.39999389648</ele>
        <time>2019-05-04T13:25:17.000Z</time>
      </trkpt>
      <trkpt lat="43.41202" lon="6.65218">
        <ele>309.60000610352</ele>
        <time>2019-05-04T13:25:25.000Z</time>
      </trkpt>
      <trkpt lat="43.41204" lon="6.65217">
        <ele>309.60000610352</ele>
        <time>2019-05-04T13:25:30.000Z</time>
      </trkpt>
      <trkpt lat="43.41207" lon="6.65216">
        <ele>309.39999389648</ele>
        <time>2019-05-04T13:25:34.000Z</time>
      </trkpt>
      <trkpt lat="43.41209" lon="6.65213">
        <ele>309.39999389648</ele>
        <time>2019-05-04T13:25:37.000Z</time>
      </trkpt>
      <trkpt lat="43.41213" lon="6.65211">
        <ele>309.60000610352</ele>
        <time>2019-05-04T13:25:43.000Z</time>
      </trkpt>
      <trkpt lat="43.41214" lon="6.65211">
        <ele>309.20001220703</ele>
        <time>2019-05-04T13:25:52.000Z</time>
      </trkpt>
      <trkpt lat="43.41214" lon="6.65211">
        <ele>308.20001220703</ele>
        <time>2019-05-04T13:25:57.000Z</time>
      </trkpt>
      <trkpt lat="43.41214" lon="6.65211">
        <ele>307.39999389648</ele>
        <time>2019-05-04T13:26:02.000Z</time>
      </trkpt>
      <trkpt lat="43.41214" lon="6.65211">
        <ele>307.20001220703</ele>
        <time>2019-05-04T13:26:06.000Z</time>
      </trkpt>
      <trkpt lat="43.41214" lon="6.65211">
        <ele>306</ele>
        <time>2019-05-04T13:26:10.000Z</time>
      </trkpt>
      <trkpt lat="43.41214" lon="6.65211">
        <ele>305.60000610352</ele>
        <time>2019-05-04T13:26:11.000Z</time>
      </trkpt>
      <trkpt lat="43.41214" lon="6.6521">
        <ele>305.39999389648</ele>
        <time>2019-05-04T13:26:20.000Z</time>
      </trkpt>
      <trkpt lat="43.41214" lon="6.6521">
        <ele>304.60000610352</ele>
        <time>2019-05-04T13:26:24.000Z</time>
      </trkpt>
      <trkpt lat="43.41215" lon="6.6521">
        <ele>303.60000610352</ele>
        <time>2019-05-04T13:26:27.000Z</time>
      </trkpt>
      <trkpt lat="43.41215" lon="6.6521">
        <ele>304</ele>
        <time>2019-05-04T13:26:34.000Z</time>
      </trkpt>
      <trkpt lat="43.41215" lon="6.65211">
        <ele>304.60000610352</ele>
        <time>2019-05-04T13:26:40.000Z</time>
      </trkpt>
      <trkpt lat="43.41215" lon="6.65211">
        <ele>305.20001220703</ele>
        <time>2019-05-04T13:26:44.000Z</time>
      </trkpt>
      <trkpt lat="43.41214" lon="6.65214">
        <ele>304</ele>
        <time>2019-05-04T13:26:52.000Z</time>
      </trkpt>
      <trkpt lat="43.41212" lon="6.65216">
        <ele>303.39999389648</ele>
        <time>2019-05-04T13:26:56.000Z</time>
      </trkpt>
      <trkpt lat="43.41211" lon="6.65217">
        <ele>303.39999389648</ele>
        <time>2019-05-04T13:26:57.000Z</time>
      </trkpt>
      <trkpt lat="43.41211" lon="6.65217">
        <ele>303.20001220703</ele>
        <time>2019-05-04T13:26:58.000Z</time>
      </trkpt>
      <trkpt lat="43.4121" lon="6.65218">
        <ele>302.79998779297</ele>
        <time>2019-05-04T13:27:04.000Z</time>
      </trkpt>
      <trkpt lat="43.41209" lon="6.65218">
        <ele>302.79998779297</ele>
        <time>2019-05-04T13:27:16.000Z</time>
      </trkpt>
      <trkpt lat="43.41207" lon="6.65219">
        <ele>303</ele>
        <time>2019-05-04T13:27:23.000Z</time>
      </trkpt>
      <trkpt lat="43.41206" lon="6.65219">
        <ele>303.20001220703</ele>
        <time>2019-05-04T13:27:31.000Z</time>
      </trkpt>
      <trkpt lat="43.41211" lon="6.6522">
        <ele>303.60000610352</ele>
        <time>2019-05-04T13:27:38.000Z</time>
      </trkpt>
      <trkpt lat="43.41212" lon="6.65223">
        <ele>303.60000610352</ele>
        <time>2019-05-04T13:27:39.000Z</time>
      </trkpt>
      <trkpt lat="43.41213" lon="6.65225">
        <ele>303.39999389648</ele>
        <time>2019-05-04T13:27:40.000Z</time>
      </trkpt>
      <trkpt lat="43.41215" lon="6.65232">
        <ele>303</ele>
        <time>2019-05-04T13:27:42.000Z</time>
      </trkpt>
      <trkpt lat="43.41221" lon="6.6524">
        <ele>302.20001220703</ele>
        <time>2019-05-04T13:27:44.000Z</time>
      </trkpt>
      <trkpt lat="43.41224" lon="6.6525">
        <ele>301.20001220703</ele>
        <time>2019-05-04T13:27:46.000Z</time>
      </trkpt>
      <trkpt lat="43.41227" lon="6.65256">
        <ele>299.39999389648</ele>
        <time>2019-05-04T13:27:48.000Z</time>
      </trkpt>
      <trkpt lat="43.4123" lon="6.65259">
        <ele>298.20001220703</ele>
        <time>2019-05-04T13:27:49.000Z</time>
      </trkpt>
      <trkpt lat="43.41232" lon="6.65263">
        <ele>296.60000610352</ele>
        <time>2019-05-04T13:27:50.000Z</time>
      </trkpt>
      <trkpt lat="43.41232" lon="6.65265">
        <ele>295.39999389648</ele>
        <time>2019-05-04T13:27:51.000Z</time>
      </trkpt>
      <trkpt lat="43.41233" lon="6.65268">
        <ele>294</ele>
        <time>2019-05-04T13:27:52.000Z</time>
      </trkpt>
      <trkpt lat="43.41234" lon="6.65271">
        <ele>293</ele>
        <time>2019-05-04T13:27:53.000Z</time>
      </trkpt>
      <trkpt lat="43.41234" lon="6.65274">
        <ele>292</ele>
        <time>2019-05-04T13:27:54.000Z</time>
      </trkpt>
      <trkpt lat="43.41234" lon="6.65277">
        <ele>291.20001220703</ele>
        <time>2019-05-04T13:27:55.000Z</time>
      </trkpt>
      <trkpt lat="43.41234" lon="6.6528">
        <ele>290.20001220703</ele>
        <time>2019-05-04T13:27:56.000Z</time>
      </trkpt>
      <trkpt lat="43.41237" lon="6.6529">
        <ele>288.20001220703</ele>
        <time>2019-05-04T13:27:58.000Z</time>
      </trkpt>
      <trkpt lat="43.41239" lon="6.65293">
        <ele>287.60000610352</ele>
        <time>2019-05-04T13:27:59.000Z</time>
      </trkpt>
      <trkpt lat="43.41242" lon="6.65297">
        <ele>286.60000610352</ele>
        <time>2019-05-04T13:28:00.000Z</time>
      </trkpt>
      <trkpt lat="43.41243" lon="6.65301">
        <ele>285.20001220703</ele>
        <time>2019-05-04T13:28:01.000Z</time>
      </trkpt>
      <trkpt lat="43.41244" lon="6.65305">
        <ele>284.20001220703</ele>
        <time>2019-05-04T13:28:02.000Z</time>
      </trkpt>
      <trkpt lat="43.41243" lon="6.65307">
        <ele>283.60000610352</ele>
        <time>2019-05-04T13:28:03.000Z</time>
      </trkpt>
      <trkpt lat="43.41245" lon="6.65309">
        <ele>282</ele>
        <time>2019-05-04T13:28:04.000Z</time>
      </trkpt>
      <trkpt lat="43.41247" lon="6.6531">
        <ele>281.20001220703</ele>
        <time>2019-05-04T13:28:05.000Z</time>
      </trkpt>
      <trkpt lat="43.41251" lon="6.65311">
        <ele>280</ele>
        <time>2019-05-04T13:28:06.000Z</time>
      </trkpt>
      <trkpt lat="43.41254" lon="6.65321">
        <ele>278</ele>
        <time>2019-05-04T13:28:08.000Z</time>
      </trkpt>
      <trkpt lat="43.41257" lon="6.65328">
        <ele>276.39999389648</ele>
        <time>2019-05-04T13:28:10.000Z</time>
      </trkpt>
      <trkpt lat="43.41261" lon="6.6533">
        <ele>275.39999389648</ele>
        <time>2019-05-04T13:28:11.000Z</time>
      </trkpt>
      <trkpt lat="43.41264" lon="6.65333">
        <ele>274.39999389648</ele>
        <time>2019-05-04T13:28:12.000Z</time>
      </trkpt>
      <trkpt lat="43.41263" lon="6.65337">
        <ele>273.39999389648</ele>
        <time>2019-05-04T13:28:13.000Z</time>
      </trkpt>
      <trkpt lat="43.41261" lon="6.6534">
        <ele>272.60000610352</ele>
        <time>2019-05-04T13:28:14.000Z</time>
      </trkpt>
      <trkpt lat="43.41259" lon="6.65343">
        <ele>272</ele>
        <time>2019-05-04T13:28:15.000Z</time>
      </trkpt>
      <trkpt lat="43.41262" lon="6.65346">
        <ele>270.20001220703</ele>
        <time>2019-05-04T13:28:17.000Z</time>
      </trkpt>
      <trkpt lat="43.41264" lon="6.65348">
        <ele>269.79998779297</ele>
        <time>2019-05-04T13:28:18.000Z</time>
      </trkpt>
      <trkpt lat="43.41269" lon="6.6535">
        <ele>269.20001220703</ele>
        <time>2019-05-04T13:28:19.000Z</time>
      </trkpt>
      <trkpt lat="43.41272" lon="6.65354">
        <ele>268.60000610352</ele>
        <time>2019-05-04T13:28:20.000Z</time>
      </trkpt>
      <trkpt lat="43.41276" lon="6.65356">
        <ele>268</ele>
        <time>2019-05-04T13:28:21.000Z</time>
      </trkpt>
      <trkpt lat="43.41281" lon="6.65365">
        <ele>266.60000610352</ele>
        <time>2019-05-04T13:28:23.000Z</time>
      </trkpt>
      <trkpt lat="43.41284" lon="6.65369">
        <ele>265</ele>
        <time>2019-05-04T13:28:24.000Z</time>
      </trkpt>
      <trkpt lat="43.41293" lon="6.65374">
        <ele>263.79998779297</ele>
        <time>2019-05-04T13:28:26.000Z</time>
      </trkpt>
      <trkpt lat="43.41297" lon="6.65375">
        <ele>262.60000610352</ele>
        <time>2019-05-04T13:28:27.000Z</time>
      </trkpt>
      <trkpt lat="43.413" lon="6.6538">
        <ele>261.79998779297</ele>
        <time>2019-05-04T13:28:28.000Z</time>
      </trkpt>
      <trkpt lat="43.41301" lon="6.65387">
        <ele>261.39999389648</ele>
        <time>2019-05-04T13:28:29.000Z</time>
      </trkpt>
      <trkpt lat="43.41302" lon="6.65394">
        <ele>260.79998779297</ele>
        <time>2019-05-04T13:28:30.000Z</time>
      </trkpt>
      <trkpt lat="43.41304" lon="6.65399">
        <ele>259</ele>
        <time>2019-05-04T13:28:31.000Z</time>
      </trkpt>
      <trkpt lat="43.41308" lon="6.654">
        <ele>258</ele>
        <time>2019-05-04T13:28:32.000Z</time>
      </trkpt>
      <trkpt lat="43.41313" lon="6.65402">
        <ele>256.60000610352</ele>
        <time>2019-05-04T13:28:33.000Z</time>
      </trkpt>
      <trkpt lat="43.4132" lon="6.65408">
        <ele>254.80000305176</ele>
        <time>2019-05-04T13:28:35.000Z</time>
      </trkpt>
      <trkpt lat="43.41329" lon="6.65422">
        <ele>253.60000610352</ele>
        <time>2019-05-04T13:28:37.000Z</time>
      </trkpt>
      <trkpt lat="43.41333" lon="6.65428">
        <ele>252.60000610352</ele>
        <time>2019-05-04T13:28:38.000Z</time>
      </trkpt>
      <trkpt lat="43.41337" lon="6.65433">
        <ele>251.39999389648</ele>
        <time>2019-05-04T13:28:39.000Z</time>
      </trkpt>
      <trkpt lat="43.41342" lon="6.65438">
        <ele>250.39999389648</ele>
        <time>2019-05-04T13:28:40.000Z</time>
      </trkpt>
      <trkpt lat="43.41347" lon="6.65455">
        <ele>249</ele>
        <time>2019-05-04T13:28:42.000Z</time>
      </trkpt>
      <trkpt lat="43.41356" lon="6.65469">
        <ele>247</ele>
        <time>2019-05-04T13:28:44.000Z</time>
      </trkpt>
      <trkpt lat="43.41359" lon="6.65476">
        <ele>246.39999389648</ele>
        <time>2019-05-04T13:28:45.000Z</time>
      </trkpt>
      <trkpt lat="43.4136" lon="6.65484">
        <ele>245.39999389648</ele>
        <time>2019-05-04T13:28:46.000Z</time>
      </trkpt>
      <trkpt lat="43.41362" lon="6.655">
        <ele>243.80000305176</ele>
        <time>2019-05-04T13:28:48.000Z</time>
      </trkpt>
      <trkpt lat="43.41364" lon="6.65508">
        <ele>243.60000610352</ele>
        <time>2019-05-04T13:28:49.000Z</time>
      </trkpt>
      <trkpt lat="43.41365" lon="6.65514">
        <ele>242.60000610352</ele>
        <time>2019-05-04T13:28:50.000Z</time>
      </trkpt>
      <trkpt lat="43.41366" lon="6.65526">
        <ele>241.39999389648</ele>
        <time>2019-05-04T13:28:52.000Z</time>
      </trkpt>
      <trkpt lat="43.41375" lon="6.65531">
        <ele>240.19999694824</ele>
        <time>2019-05-04T13:28:54.000Z</time>
      </trkpt>
      <trkpt lat="43.41378" lon="6.65534">
        <ele>239.60000610352</ele>
        <time>2019-05-04T13:28:55.000Z</time>
      </trkpt>
      <trkpt lat="43.41379" lon="6.6554">
        <ele>238.60000610352</ele>
        <time>2019-05-04T13:28:56.000Z</time>
      </trkpt>
      <trkpt lat="43.41382" lon="6.6555">
        <ele>237.19999694824</ele>
        <time>2019-05-04T13:28:58.000Z</time>
      </trkpt>
      <trkpt lat="43.41388" lon="6.65554">
        <ele>236</ele>
        <time>2019-05-04T13:29:00.000Z</time>
      </trkpt>
      <trkpt lat="43.41391" lon="6.65558">
        <ele>235</ele>
        <time>2019-05-04T13:29:01.000Z</time>
      </trkpt>
      <trkpt lat="43.41392" lon="6.65563">
        <ele>233.39999389648</ele>
        <time>2019-05-04T13:29:02.000Z</time>
      </trkpt>
      <trkpt lat="43.41395" lon="6.65568">
        <ele>231.19999694824</ele>
        <time>2019-05-04T13:29:04.000Z</time>
      </trkpt>
      <trkpt lat="43.41397" lon="6.65573">
        <ele>229.80000305176</ele>
        <time>2019-05-04T13:29:05.000Z</time>
      </trkpt>
      <trkpt lat="43.41398" lon="6.65577">
        <ele>228.60000610352</ele>
        <time>2019-05-04T13:29:06.000Z</time>
      </trkpt>
      <trkpt lat="43.41396" lon="6.65587">
        <ele>226.39999389648</ele>
        <time>2019-05-04T13:29:08.000Z</time>
      </trkpt>
      <trkpt lat="43.41395" lon="6.65591">
        <ele>225.19999694824</ele>
        <time>2019-05-04T13:29:09.000Z</time>
      </trkpt>
      <trkpt lat="43.41397" lon="6.65598">
        <ele>223.60000610352</ele>
        <time>2019-05-04T13:29:11.000Z</time>
      </trkpt>
      <trkpt lat="43.41398" lon="6.65604">
        <ele>222.60000610352</ele>
        <time>2019-05-04T13:29:12.000Z</time>
      </trkpt>
      <trkpt lat="43.41403" lon="6.65613">
        <ele>221</ele>
        <time>2019-05-04T13:29:14.000Z</time>
      </trkpt>
      <trkpt lat="43.41406" lon="6.65622">
        <ele>219.39999389648</ele>
        <time>2019-05-04T13:29:16.000Z</time>
      </trkpt>
      <trkpt lat="43.41406" lon="6.6563">
        <ele>217.80000305176</ele>
        <time>2019-05-04T13:29:18.000Z</time>
      </trkpt>
      <trkpt lat="43.41406" lon="6.65635">
        <ele>216.80000305176</ele>
        <time>2019-05-04T13:29:19.000Z</time>
      </trkpt>
      <trkpt lat="43.41407" lon="6.65639">
        <ele>215.80000305176</ele>
        <time>2019-05-04T13:29:20.000Z</time>
      </trkpt>
      <trkpt lat="43.41406" lon="6.65644">
        <ele>215.19999694824</ele>
        <time>2019-05-04T13:29:21.000Z</time>
      </trkpt>
      <trkpt lat="43.41402" lon="6.65647">
        <ele>214.60000610352</ele>
        <time>2019-05-04T13:29:22.000Z</time>
      </trkpt>
      <trkpt lat="43.41403" lon="6.65651">
        <ele>214</ele>
        <time>2019-05-04T13:29:23.000Z</time>
      </trkpt>
      <trkpt lat="43.41402" lon="6.65661">
        <ele>212.39999389648</ele>
        <time>2019-05-04T13:29:25.000Z</time>
      </trkpt>
      <trkpt lat="43.41404" lon="6.65665">
        <ele>211.80000305176</ele>
        <time>2019-05-04T13:29:26.000Z</time>
      </trkpt>
      <trkpt lat="43.41404" lon="6.65671">
        <ele>210.80000305176</ele>
        <time>2019-05-04T13:29:27.000Z</time>
      </trkpt>
      <trkpt lat="43.41404" lon="6.65679">
        <ele>209.60000610352</ele>
        <time>2019-05-04T13:29:29.000Z</time>
      </trkpt>
      <trkpt lat="43.41402" lon="6.65685">
        <ele>208.19999694824</ele>
        <time>2019-05-04T13:29:31.000Z</time>
      </trkpt>
      <trkpt lat="43.41405" lon="6.65696">
        <ele>206.19999694824</ele>
        <time>2019-05-04T13:29:34.000Z</time>
      </trkpt>
      <trkpt lat="43.41402" lon="6.65707">
        <ele>204.60000610352</ele>
        <time>2019-05-04T13:29:37.000Z</time>
      </trkpt>
      <trkpt lat="43.41401" lon="6.65713">
        <ele>203</ele>
        <time>2019-05-04T13:29:39.000Z</time>
      </trkpt>
      <trkpt lat="43.414" lon="6.65722">
        <ele>201.19999694824</ele>
        <time>2019-05-04T13:29:41.000Z</time>
      </trkpt>
      <trkpt lat="43.41399" lon="6.65727">
        <ele>200.80000305176</ele>
        <time>2019-05-04T13:29:42.000Z</time>
      </trkpt>
      <trkpt lat="43.41398" lon="6.65732">
        <ele>200</ele>
        <time>2019-05-04T13:29:43.000Z</time>
      </trkpt>
      <trkpt lat="43.41398" lon="6.65738">
        <ele>199</ele>
        <time>2019-05-04T13:29:45.000Z</time>
      </trkpt>
      <trkpt lat="43.41397" lon="6.65741">
        <ele>198</ele>
        <time>2019-05-04T13:29:46.000Z</time>
      </trkpt>
      <trkpt lat="43.41396" lon="6.65744">
        <ele>197</ele>
        <time>2019-05-04T13:29:47.000Z</time>
      </trkpt>
      <trkpt lat="43.41393" lon="6.65752">
        <ele>195.80000305176</ele>
        <time>2019-05-04T13:29:49.000Z</time>
      </trkpt>
      <trkpt lat="43.41394" lon="6.65756">
        <ele>194.60000610352</ele>
        <time>2019-05-04T13:29:50.000Z</time>
      </trkpt>
      <trkpt lat="43.41394" lon="6.65766">
        <ele>193</ele>
        <time>2019-05-04T13:29:52.000Z</time>
      </trkpt>
      <trkpt lat="43.41392" lon="6.65771">
        <ele>192.19999694824</ele>
        <time>2019-05-04T13:29:53.000Z</time>
      </trkpt>
      <trkpt lat="43.41391" lon="6.65776">
        <ele>191.19999694824</ele>
        <time>2019-05-04T13:29:54.000Z</time>
      </trkpt>
      <trkpt lat="43.41394" lon="6.65786">
        <ele>189.39999389648</ele>
        <time>2019-05-04T13:29:56.000Z</time>
      </trkpt>
      <trkpt lat="43.41395" lon="6.65795">
        <ele>187.60000610352</ele>
        <time>2019-05-04T13:29:58.000Z</time>
      </trkpt>
      <trkpt lat="43.41398" lon="6.65804">
        <ele>186.19999694824</ele>
        <time>2019-05-04T13:30:00.000Z</time>
      </trkpt>
      <trkpt lat="43.41397" lon="6.65816">
        <ele>184.80000305176</ele>
        <time>2019-05-04T13:30:02.000Z</time>
      </trkpt>
      <trkpt lat="43.41397" lon="6.65821">
        <ele>184.39999389648</ele>
        <time>2019-05-04T13:30:03.000Z</time>
      </trkpt>
      <trkpt lat="43.41396" lon="6.65827">
        <ele>183.80000305176</ele>
        <time>2019-05-04T13:30:04.000Z</time>
      </trkpt>
      <trkpt lat="43.41395" lon="6.65834">
        <ele>182.19999694824</ele>
        <time>2019-05-04T13:30:06.000Z</time>
      </trkpt>
      <trkpt lat="43.41395" lon="6.65845">
        <ele>180.60000610352</ele>
        <time>2019-05-04T13:30:08.000Z</time>
      </trkpt>
      <trkpt lat="43.41397" lon="6.65856">
        <ele>177.80000305176</ele>
        <time>2019-05-04T13:30:10.000Z</time>
      </trkpt>
      <trkpt lat="43.414" lon="6.6586">
        <ele>176.60000610352</ele>
        <time>2019-05-04T13:30:11.000Z</time>
      </trkpt>
      <trkpt lat="43.41403" lon="6.65863">
        <ele>175.39999389648</ele>
        <time>2019-05-04T13:30:12.000Z</time>
      </trkpt>
      <trkpt lat="43.41406" lon="6.65872">
        <ele>173.60000610352</ele>
        <time>2019-05-04T13:30:14.000Z</time>
      </trkpt>
      <trkpt lat="43.41408" lon="6.65881">
        <ele>172.19999694824</ele>
        <time>2019-05-04T13:30:16.000Z</time>
      </trkpt>
      <trkpt lat="43.4141" lon="6.65882">
        <ele>171</ele>
        <time>2019-05-04T13:30:17.000Z</time>
      </trkpt>
      <trkpt lat="43.41417" lon="6.65885">
        <ele>169.39999389648</ele>
        <time>2019-05-04T13:30:19.000Z</time>
      </trkpt>
      <trkpt lat="43.4142" lon="6.65888">
        <ele>168.80000305176</ele>
        <time>2019-05-04T13:30:20.000Z</time>
      </trkpt>
      <trkpt lat="43.41423" lon="6.65886">
        <ele>168</ele>
        <time>2019-05-04T13:30:21.000Z</time>
      </trkpt>
      <trkpt lat="43.41432" lon="6.65888">
        <ele>166.60000610352</ele>
        <time>2019-05-04T13:30:23.000Z</time>
      </trkpt>
      <trkpt lat="43.41443" lon="6.65892">
        <ele>165.60000610352</ele>
        <time>2019-05-04T13:30:25.000Z</time>
      </trkpt>
      <trkpt lat="43.41448" lon="6.65899">
        <ele>163.80000305176</ele>
        <time>2019-05-04T13:30:27.000Z</time>
      </trkpt>
      <trkpt lat="43.41448" lon="6.65905">
        <ele>162.80000305176</ele>
        <time>2019-05-04T13:30:28.000Z</time>
      </trkpt>
      <trkpt lat="43.41448" lon="6.65908">
        <ele>162</ele>
        <time>2019-05-04T13:30:29.000Z</time>
      </trkpt>
      <trkpt lat="43.41448" lon="6.65912">
        <ele>161.39999389648</ele>
        <time>2019-05-04T13:30:30.000Z</time>
      </trkpt>
      <trkpt lat="43.41449" lon="6.65914">
        <ele>160.39999389648</ele>
        <time>2019-05-04T13:30:31.000Z</time>
      </trkpt>
      <trkpt lat="43.41457" lon="6.65923">
        <ele>158.39999389648</ele>
        <time>2019-05-04T13:30:33.000Z</time>
      </trkpt>
      <trkpt lat="43.41458" lon="6.65934">
        <ele>156.60000610352</ele>
        <time>2019-05-04T13:30:35.000Z</time>
      </trkpt>
      <trkpt lat="43.41459" lon="6.6594">
        <ele>155.80000305176</ele>
        <time>2019-05-04T13:30:36.000Z</time>
      </trkpt>
      <trkpt lat="43.41459" lon="6.65945">
        <ele>154.80000305176</ele>
        <time>2019-05-04T13:30:37.000Z</time>
      </trkpt>
      <trkpt lat="43.4146" lon="6.65949">
        <ele>153.80000305176</ele>
        <time>2019-05-04T13:30:38.000Z</time>
      </trkpt>
      <trkpt lat="43.41463" lon="6.65953">
        <ele>152.60000610352</ele>
        <time>2019-05-04T13:30:39.000Z</time>
      </trkpt>
      <trkpt lat="43.41466" lon="6.65957">
        <ele>151.39999389648</ele>
        <time>2019-05-04T13:30:40.000Z</time>
      </trkpt>
      <trkpt lat="43.41467" lon="6.65966">
        <ele>149.39999389648</ele>
        <time>2019-05-04T13:30:42.000Z</time>
      </trkpt>
      <trkpt lat="43.41464" lon="6.65969">
        <ele>148.60000610352</ele>
        <time>2019-05-04T13:30:43.000Z</time>
      </trkpt>
      <trkpt lat="43.41463" lon="6.65972">
        <ele>148</ele>
        <time>2019-05-04T13:30:44.000Z</time>
      </trkpt>
      <trkpt lat="43.41461" lon="6.65976">
        <ele>146.60000610352</ele>
        <time>2019-05-04T13:30:45.000Z</time>
      </trkpt>
      <trkpt lat="43.41457" lon="6.65978">
        <ele>146</ele>
        <time>2019-05-04T13:30:46.000Z</time>
      </trkpt>
      <trkpt lat="43.41454" lon="6.65977">
        <ele>145.60000610352</ele>
        <time>2019-05-04T13:30:47.000Z</time>
      </trkpt>
      <trkpt lat="43.41452" lon="6.65977">
        <ele>145</ele>
        <time>2019-05-04T13:30:48.000Z</time>
      </trkpt>
      <trkpt lat="43.41447" lon="6.65978">
        <ele>143.39999389648</ele>
        <time>2019-05-04T13:30:50.000Z</time>
      </trkpt>
      <trkpt lat="43.41446" lon="6.6598">
        <ele>142.19999694824</ele>
        <time>2019-05-04T13:30:51.000Z</time>
      </trkpt>
      <trkpt lat="43.41445" lon="6.65982">
        <ele>141</ele>
        <time>2019-05-04T13:30:52.000Z</time>
      </trkpt>
      <trkpt lat="43.41445" lon="6.65983">
        <ele>139.60000610352</ele>
        <time>2019-05-04T13:30:54.000Z</time>
      </trkpt>
      <trkpt lat="43.41443" lon="6.65987">
        <ele>139.19999694824</ele>
        <time>2019-05-04T13:30:56.000Z</time>
      </trkpt>
      <trkpt lat="43.41439" lon="6.65993">
        <ele>138.39999389648</ele>
        <time>2019-05-04T13:30:58.000Z</time>
      </trkpt>
      <trkpt lat="43.41436" lon="6.65991">
        <ele>138.19999694824</ele>
        <time>2019-05-04T13:30:59.000Z</time>
      </trkpt>
      <trkpt lat="43.41431" lon="6.65991">
        <ele>137.19999694824</ele>
        <time>2019-05-04T13:31:01.000Z</time>
      </trkpt>
      <trkpt lat="43.41423" lon="6.65999">
        <ele>135.80000305176</ele>
        <time>2019-05-04T13:31:04.000Z</time>
      </trkpt>
      <trkpt lat="43.41419" lon="6.66002">
        <ele>135.80000305176</ele>
        <time>2019-05-04T13:31:05.000Z</time>
      </trkpt>
      <trkpt lat="43.41409" lon="6.66004">
        <ele>135</ele>
        <time>2019-05-04T13:31:07.000Z</time>
      </trkpt>
      <trkpt lat="43.41405" lon="6.66005">
        <ele>134.39999389648</ele>
        <time>2019-05-04T13:31:08.000Z</time>
      </trkpt>
      <trkpt lat="43.41396" lon="6.66008">
        <ele>133.39999389648</ele>
        <time>2019-05-04T13:31:10.000Z</time>
      </trkpt>
      <trkpt lat="43.41386" lon="6.66012">
        <ele>132.39999389648</ele>
        <time>2019-05-04T13:31:12.000Z</time>
      </trkpt>
      <trkpt lat="43.41382" lon="6.66016">
        <ele>132.19999694824</ele>
        <time>2019-05-04T13:31:13.000Z</time>
      </trkpt>
      <trkpt lat="43.41378" lon="6.66025">
        <ele>131.60000610352</ele>
        <time>2019-05-04T13:31:15.000Z</time>
      </trkpt>
      <trkpt lat="43.41372" lon="6.66035">
        <ele>131.60000610352</ele>
        <time>2019-05-04T13:31:18.000Z</time>
      </trkpt>
      <trkpt lat="43.41366" lon="6.66041">
        <ele>132</ele>
        <time>2019-05-04T13:31:20.000Z</time>
      </trkpt>
      <trkpt lat="43.41362" lon="6.66044">
        <ele>131.80000305176</ele>
        <time>2019-05-04T13:31:22.000Z</time>
      </trkpt>
      <trkpt lat="43.41358" lon="6.66051">
        <ele>131</ele>
        <time>2019-05-04T13:31:24.000Z</time>
      </trkpt>
      <trkpt lat="43.41356" lon="6.66051">
        <ele>130.19999694824</ele>
        <time>2019-05-04T13:31:25.000Z</time>
      </trkpt>
      <trkpt lat="43.41354" lon="6.66051">
        <ele>129.60000610352</ele>
        <time>2019-05-04T13:31:26.000Z</time>
      </trkpt>
      <trkpt lat="43.4135" lon="6.66059">
        <ele>128.19999694824</ele>
        <time>2019-05-04T13:31:28.000Z</time>
      </trkpt>
      <trkpt lat="43.41352" lon="6.66065">
        <ele>127.59999847412</ele>
        <time>2019-05-04T13:31:29.000Z</time>
      </trkpt>
      <trkpt lat="43.41355" lon="6.66073">
        <ele>126.59999847412</ele>
        <time>2019-05-04T13:31:30.000Z</time>
      </trkpt>
      <trkpt lat="43.41359" lon="6.66084">
        <ele>124.59999847412</ele>
        <time>2019-05-04T13:31:32.000Z</time>
      </trkpt>
      <trkpt lat="43.41359" lon="6.66086">
        <ele>124</ele>
        <time>2019-05-04T13:31:33.000Z</time>
      </trkpt>
      <trkpt lat="43.41359" lon="6.6609">
        <ele>123.19999694824</ele>
        <time>2019-05-04T13:31:34.000Z</time>
      </trkpt>
      <trkpt lat="43.41358" lon="6.66094">
        <ele>123</ele>
        <time>2019-05-04T13:31:35.000Z</time>
      </trkpt>
      <trkpt lat="43.41357" lon="6.66107">
        <ele>122.80000305176</ele>
        <time>2019-05-04T13:31:37.000Z</time>
      </trkpt>
      <trkpt lat="43.41353" lon="6.66117">
        <ele>122.19999694824</ele>
        <time>2019-05-04T13:31:39.000Z</time>
      </trkpt>
      <trkpt lat="43.4134" lon="6.66123">
        <ele>121</ele>
        <time>2019-05-04T13:31:42.000Z</time>
      </trkpt>
      <trkpt lat="43.41329" lon="6.66129">
        <ele>120</ele>
        <time>2019-05-04T13:31:46.000Z</time>
      </trkpt>
      <trkpt lat="43.41322" lon="6.66135">
        <ele>118.59999847412</ele>
        <time>2019-05-04T13:31:48.000Z</time>
      </trkpt>
      <trkpt lat="43.41321" lon="6.6614">
        <ele>118</ele>
        <time>2019-05-04T13:31:49.000Z</time>
      </trkpt>
      <trkpt lat="43.41314" lon="6.66146">
        <ele>117.59999847412</ele>
        <time>2019-05-04T13:31:51.000Z</time>
      </trkpt>
      <trkpt lat="43.41305" lon="6.6615">
        <ele>117.19999694824</ele>
        <time>2019-05-04T13:31:53.000Z</time>
      </trkpt>
      <trkpt lat="43.41297" lon="6.6616">
        <ele>116.40000152588</ele>
        <time>2019-05-04T13:31:55.000Z</time>
      </trkpt>
      <trkpt lat="43.41293" lon="6.66163">
        <ele>116</ele>
        <time>2019-05-04T13:31:56.000Z</time>
      </trkpt>
      <trkpt lat="43.41291" lon="6.66166">
        <ele>115.19999694824</ele>
        <time>2019-05-04T13:31:57.000Z</time>
      </trkpt>
      <trkpt lat="43.41289" lon="6.66172">
        <ele>114.19999694824</ele>
        <time>2019-05-04T13:31:59.000Z</time>
      </trkpt>
      <trkpt lat="43.41288" lon="6.66179">
        <ele>114</ele>
        <time>2019-05-04T13:32:01.000Z</time>
      </trkpt>
      <trkpt lat="43.41284" lon="6.66183">
        <ele>113.19999694824</ele>
        <time>2019-05-04T13:32:03.000Z</time>
      </trkpt>
      <trkpt lat="43.41283" lon="6.66184">
        <ele>112.80000305176</ele>
        <time>2019-05-04T13:32:04.000Z</time>
      </trkpt>
      <trkpt lat="43.41281" lon="6.66186">
        <ele>111.80000305176</ele>
        <time>2019-05-04T13:32:05.000Z</time>
      </trkpt>
      <trkpt lat="43.4128" lon="6.66189">
        <ele>110.80000305176</ele>
        <time>2019-05-04T13:32:06.000Z</time>
      </trkpt>
      <trkpt lat="43.41278" lon="6.6619">
        <ele>110</ele>
        <time>2019-05-04T13:32:07.000Z</time>
      </trkpt>
      <trkpt lat="43.41276" lon="6.66192">
        <ele>109.19999694824</ele>
        <time>2019-05-04T13:32:08.000Z</time>
      </trkpt>
      <trkpt lat="43.41274" lon="6.66193">
        <ele>108.19999694824</ele>
        <time>2019-05-04T13:32:09.000Z</time>
      </trkpt>
      <trkpt lat="43.4127" lon="6.66196">
        <ele>106.80000305176</ele>
        <time>2019-05-04T13:32:11.000Z</time>
      </trkpt>
      <trkpt lat="43.41268" lon="6.66199">
        <ele>106</ele>
        <time>2019-05-04T13:32:12.000Z</time>
      </trkpt>
      <trkpt lat="43.41266" lon="6.66202">
        <ele>105.40000152588</ele>
        <time>2019-05-04T13:32:13.000Z</time>
      </trkpt>
      <trkpt lat="43.41262" lon="6.66206">
        <ele>103.59999847412</ele>
        <time>2019-05-04T13:32:15.000Z</time>
      </trkpt>
      <trkpt lat="43.4126" lon="6.66208">
        <ele>102.40000152588</ele>
        <time>2019-05-04T13:32:16.000Z</time>
      </trkpt>
      <trkpt lat="43.41256" lon="6.66209">
        <ele>100.40000152588</ele>
        <time>2019-05-04T13:32:18.000Z</time>
      </trkpt>
      <trkpt lat="43.41252" lon="6.6621">
        <ele>101.19999694824</ele>
        <time>2019-05-04T13:32:23.000Z</time>
      </trkpt>
      <trkpt lat="43.41252" lon="6.66211">
        <ele>101.40000152588</ele>
        <time>2019-05-04T13:32:24.000Z</time>
      </trkpt>
      <trkpt lat="43.41251" lon="6.66214">
        <ele>101.80000305176</ele>
        <time>2019-05-04T13:32:29.000Z</time>
      </trkpt>
      <trkpt lat="43.41253" lon="6.66215">
        <ele>102.40000152588</ele>
        <time>2019-05-04T13:32:32.000Z</time>
      </trkpt>
      <trkpt lat="43.41253" lon="6.66216">
        <ele>103.19999694824</ele>
        <time>2019-05-04T13:32:36.000Z</time>
      </trkpt>
      <trkpt lat="43.41253" lon="6.66216">
        <ele>103.59999847412</ele>
        <time>2019-05-04T13:32:40.000Z</time>
      </trkpt>
      <trkpt lat="43.41255" lon="6.66218">
        <ele>103.80000305176</ele>
        <time>2019-05-04T13:32:48.000Z</time>
      </trkpt>
      <trkpt lat="43.41256" lon="6.6622">
        <ele>104.59999847412</ele>
        <time>2019-05-04T13:32:51.000Z</time>
      </trkpt>
      <trkpt lat="43.41259" lon="6.66225">
        <ele>105.59999847412</ele>
        <time>2019-05-04T13:32:57.000Z</time>
      </trkpt>
      <trkpt lat="43.41262" lon="6.66232">
        <ele>106.80000305176</ele>
        <time>2019-05-04T13:33:05.000Z</time>
      </trkpt>
      <trkpt lat="43.41264" lon="6.66235">
        <ele>107.80000305176</ele>
        <time>2019-05-04T13:33:10.000Z</time>
      </trkpt>
      <trkpt lat="43.41264" lon="6.66236">
        <ele>108</ele>
        <time>2019-05-04T13:33:11.000Z</time>
      </trkpt>
      <trkpt lat="43.41266" lon="6.66239">
        <ele>108.80000305176</ele>
        <time>2019-05-04T13:33:17.000Z</time>
      </trkpt>
      <trkpt lat="43.41266" lon="6.6624">
        <ele>108.80000305176</ele>
        <time>2019-05-04T13:33:18.000Z</time>
      </trkpt>
      <trkpt lat="43.41267" lon="6.66243">
        <ele>109.40000152588</ele>
        <time>2019-05-04T13:33:23.000Z</time>
      </trkpt>
      <trkpt lat="43.41268" lon="6.66244">
        <ele>110</ele>
        <time>2019-05-04T13:33:26.000Z</time>
      </trkpt>
      <trkpt lat="43.41269" lon="6.66248">
        <ele>110.80000305176</ele>
        <time>2019-05-04T13:33:30.000Z</time>
      </trkpt>
      <trkpt lat="43.41269" lon="6.66248">
        <ele>111</ele>
        <time>2019-05-04T13:33:36.000Z</time>
      </trkpt>
      <trkpt lat="43.41269" lon="6.66248">
        <ele>110.80000305176</ele>
        <time>2019-05-04T13:33:52.000Z</time>
      </trkpt>
      <trkpt lat="43.41269" lon="6.66248">
        <ele>110.59999847412</ele>
        <time>2019-05-04T13:34:15.000Z</time>
      </trkpt>
      <trkpt lat="43.41269" lon="6.66248">
        <ele>110.59999847412</ele>
        <time>2019-05-04T13:34:34.000Z</time>
      </trkpt>
      <trkpt lat="43.41268" lon="6.66247">
        <ele>111</ele>
        <time>2019-05-04T13:34:52.000Z</time>
      </trkpt>
      <trkpt lat="43.41268" lon="6.66248">
        <ele>110.80000305176</ele>
        <time>2019-05-04T13:34:59.000Z</time>
      </trkpt>
      <trkpt lat="43.41269" lon="6.66249">
        <ele>110.59999847412</ele>
        <time>2019-05-04T13:35:16.000Z</time>
      </trkpt>
      <trkpt lat="43.41269" lon="6.66248">
        <ele>110.40000152588</ele>
        <time>2019-05-04T13:35:36.000Z</time>
      </trkpt>
      <trkpt lat="43.41269" lon="6.66248">
        <ele>110.40000152588</ele>
        <time>2019-05-04T13:35:56.000Z</time>
      </trkpt>
      <trkpt lat="43.41269" lon="6.66248">
        <ele>110</ele>
        <time>2019-05-04T13:36:07.000Z</time>
      </trkpt>
      <trkpt lat="43.41269" lon="6.66248">
        <ele>110</ele>
        <time>2019-05-04T13:36:21.000Z</time>
      </trkpt>
      <trkpt lat="43.41269" lon="6.66248">
        <ele>109.80000305176</ele>
        <time>2019-05-04T13:36:46.000Z</time>
      </trkpt>
      <trkpt lat="43.41269" lon="6.66248">
        <ele>109.80000305176</ele>
        <time>2019-05-04T13:37:09.000Z</time>
      </trkpt>
      <trkpt lat="43.41269" lon="6.66247">
        <ele>110</ele>
        <time>2019-05-04T13:37:23.000Z</time>
      </trkpt>
      <trkpt lat="43.41269" lon="6.66247">
        <ele>109.80000305176</ele>
        <time>2019-05-04T13:37:41.000Z</time>
      </trkpt>
      <trkpt lat="43.41269" lon="6.66247">
        <ele>110</ele>
        <time>2019-05-04T13:38:06.000Z</time>
      </trkpt>
      <trkpt lat="43.41269" lon="6.66247">
        <ele>109.80000305176</ele>
        <time>2019-05-04T13:38:27.000Z</time>
      </trkpt>
      <trkpt lat="43.41269" lon="6.66248">
        <ele>109.59999847412</ele>
        <time>2019-05-04T13:38:36.000Z</time>
      </trkpt>
      <trkpt lat="43.4127" lon="6.66248">
        <ele>109.59999847412</ele>
        <time>2019-05-04T13:38:42.000Z</time>
      </trkpt>
      <trkpt lat="43.41275" lon="6.66248">
        <ele>109.19999694824</ele>
        <time>2019-05-04T13:38:46.000Z</time>
      </trkpt>
      <trkpt lat="43.4129" lon="6.6625">
        <ele>109</ele>
        <time>2019-05-04T13:38:50.000Z</time>
      </trkpt>
      <trkpt lat="43.41295" lon="6.66251">
        <ele>108.80000305176</ele>
        <time>2019-05-04T13:38:51.000Z</time>
      </trkpt>
      <trkpt lat="43.41311" lon="6.66254">
        <ele>107.19999694824</ele>
        <time>2019-05-04T13:38:54.000Z</time>
      </trkpt>
      <trkpt lat="43.41315" lon="6.66256">
        <ele>106.40000152588</ele>
        <time>2019-05-04T13:38:55.000Z</time>
      </trkpt>
      <trkpt lat="43.41321" lon="6.66259">
        <ele>105.40000152588</ele>
        <time>2019-05-04T13:38:56.000Z</time>
      </trkpt>
      <trkpt lat="43.41331" lon="6.66269">
        <ele>103.59999847412</ele>
        <time>2019-05-04T13:38:58.000Z</time>
      </trkpt>
      <trkpt lat="43.41339" lon="6.66283">
        <ele>101.80000305176</ele>
        <time>2019-05-04T13:39:00.000Z</time>
      </trkpt>
      <trkpt lat="43.41344" lon="6.663">
        <ele>100.40000152588</ele>
        <time>2019-05-04T13:39:02.000Z</time>
      </trkpt>
      <trkpt lat="43.41345" lon="6.66318">
        <ele>98.199996948242</ele>
        <time>2019-05-04T13:39:04.000Z</time>
      </trkpt>
      <trkpt lat="43.41343" lon="6.66339">
        <ele>96.199996948242</ele>
        <time>2019-05-04T13:39:06.000Z</time>
      </trkpt>
      <trkpt lat="43.41343" lon="6.66349">
        <ele>95</ele>
        <time>2019-05-04T13:39:07.000Z</time>
      </trkpt>
      <trkpt lat="43.41343" lon="6.66359">
        <ele>93.599998474121</ele>
        <time>2019-05-04T13:39:08.000Z</time>
      </trkpt>
      <trkpt lat="43.41348" lon="6.66377">
        <ele>91.400001525879</ele>
        <time>2019-05-04T13:39:10.000Z</time>
      </trkpt>
      <trkpt lat="43.41351" lon="6.66387">
        <ele>90.599998474121</ele>
        <time>2019-05-04T13:39:11.000Z</time>
      </trkpt>
      <trkpt lat="43.41354" lon="6.66397">
        <ele>89.599998474121</ele>
        <time>2019-05-04T13:39:12.000Z</time>
      </trkpt>
      <trkpt lat="43.41359" lon="6.66405">
        <ele>88.599998474121</ele>
        <time>2019-05-04T13:39:13.000Z</time>
      </trkpt>
      <trkpt lat="43.41364" lon="6.66413">
        <ele>87.800003051758</ele>
        <time>2019-05-04T13:39:14.000Z</time>
      </trkpt>
      <trkpt lat="43.41376" lon="6.66422">
        <ele>86.400001525879</ele>
        <time>2019-05-04T13:39:16.000Z</time>
      </trkpt>
      <trkpt lat="43.41383" lon="6.66427">
        <ele>85.400001525879</ele>
        <time>2019-05-04T13:39:17.000Z</time>
      </trkpt>
      <trkpt lat="43.4139" lon="6.6643">
        <ele>85.199996948242</ele>
        <time>2019-05-04T13:39:18.000Z</time>
      </trkpt>
      <trkpt lat="43.41402" lon="6.66436">
        <ele>83.800003051758</ele>
        <time>2019-05-04T13:39:20.000Z</time>
      </trkpt>
      <trkpt lat="43.41416" lon="6.66442">
        <ele>83.199996948242</ele>
        <time>2019-05-04T13:39:22.000Z</time>
      </trkpt>
      <trkpt lat="43.41421" lon="6.66445">
        <ele>82.199996948242</ele>
        <time>2019-05-04T13:39:23.000Z</time>
      </trkpt>
      <trkpt lat="43.41429" lon="6.66453">
        <ele>81</ele>
        <time>2019-05-04T13:39:25.000Z</time>
      </trkpt>
      <trkpt lat="43.41433" lon="6.66459">
        <ele>80.400001525879</ele>
        <time>2019-05-04T13:39:26.000Z</time>
      </trkpt>
      <trkpt lat="43.41435" lon="6.66465">
        <ele>79.599998474121</ele>
        <time>2019-05-04T13:39:27.000Z</time>
      </trkpt>
      <trkpt lat="43.41437" lon="6.66473">
        <ele>78.599998474121</ele>
        <time>2019-05-04T13:39:28.000Z</time>
      </trkpt>
      <trkpt lat="43.41439" lon="6.66481">
        <ele>77.800003051758</ele>
        <time>2019-05-04T13:39:29.000Z</time>
      </trkpt>
      <trkpt lat="43.41441" lon="6.66485">
        <ele>76.599998474121</ele>
        <time>2019-05-04T13:39:30.000Z</time>
      </trkpt>
      <trkpt lat="43.41445" lon="6.66489">
        <ele>75.599998474121</ele>
        <time>2019-05-04T13:39:31.000Z</time>
      </trkpt>
      <trkpt lat="43.41449" lon="6.6649">
        <ele>74.800003051758</ele>
        <time>2019-05-04T13:39:32.000Z</time>
      </trkpt>
      <trkpt lat="43.41453" lon="6.66489">
        <ele>74.199996948242</ele>
        <time>2019-05-04T13:39:33.000Z</time>
      </trkpt>
      <trkpt lat="43.41457" lon="6.66489">
        <ele>73.599998474121</ele>
        <time>2019-05-04T13:39:34.000Z</time>
      </trkpt>
      <trkpt lat="43.41463" lon="6.66489">
        <ele>73.599998474121</ele>
        <time>2019-05-04T13:39:36.000Z</time>
      </trkpt>
      <trkpt lat="43.4148" lon="6.66494">
        <ele>74.599998474121</ele>
        <time>2019-05-04T13:39:42.000Z</time>
      </trkpt>
      <trkpt lat="43.41485" lon="6.66495">
        <ele>75.199996948242</ele>
        <time>2019-05-04T13:39:44.000Z</time>
      </trkpt>
      <trkpt lat="43.41493" lon="6.66495">
        <ele>76</ele>
        <time>2019-05-04T13:39:47.000Z</time>
      </trkpt>
      <trkpt lat="43.41503" lon="6.66496">
        <ele>76.400001525879</ele>
        <time>2019-05-04T13:39:51.000Z</time>
      </trkpt>
      <trkpt lat="43.41508" lon="6.66498">
        <ele>77.199996948242</ele>
        <time>2019-05-04T13:39:53.000Z</time>
      </trkpt>
      <trkpt lat="43.4151" lon="6.66499">
        <ele>77.400001525879</ele>
        <time>2019-05-04T13:39:54.000Z</time>
      </trkpt>
      <trkpt lat="43.41525" lon="6.66504">
        <ele>78.599998474121</ele>
        <time>2019-05-04T13:40:00.000Z</time>
      </trkpt>
      <trkpt lat="43.4154" lon="6.66497">
        <ele>79.599998474121</ele>
        <time>2019-05-04T13:40:06.000Z</time>
      </trkpt>
      <trkpt lat="43.41543" lon="6.66497">
        <ele>79.800003051758</ele>
        <time>2019-05-04T13:40:07.000Z</time>
      </trkpt>
      <trkpt lat="43.41553" lon="6.665">
        <ele>81</ele>
        <time>2019-05-04T13:40:11.000Z</time>
      </trkpt>
      <trkpt lat="43.41556" lon="6.66501">
        <ele>81.199996948242</ele>
        <time>2019-05-04T13:40:12.000Z</time>
      </trkpt>
      <trkpt lat="43.41566" lon="6.66511">
        <ele>82.199996948242</ele>
        <time>2019-05-04T13:40:17.000Z</time>
      </trkpt>
      <trkpt lat="43.41578" lon="6.66506">
        <ele>82.800003051758</ele>
        <time>2019-05-04T13:40:21.000Z</time>
      </trkpt>
      <trkpt lat="43.41594" lon="6.66493">
        <ele>83</ele>
        <time>2019-05-04T13:40:26.000Z</time>
      </trkpt>
      <trkpt lat="43.41602" lon="6.66488">
        <ele>82.800003051758</ele>
        <time>2019-05-04T13:40:28.000Z</time>
      </trkpt>
      <trkpt lat="43.41617" lon="6.66483">
        <ele>82</ele>
        <time>2019-05-04T13:40:31.000Z</time>
      </trkpt>
      <trkpt lat="43.41623" lon="6.66483">
        <ele>81.800003051758</ele>
        <time>2019-05-04T13:40:32.000Z</time>
      </trkpt>
      <trkpt lat="43.41633" lon="6.6649">
        <ele>81.199996948242</ele>
        <time>2019-05-04T13:40:34.000Z</time>
      </trkpt>
      <trkpt lat="43.41636" lon="6.66496">
        <ele>80.800003051758</ele>
        <time>2019-05-04T13:40:35.000Z</time>
      </trkpt>
      <trkpt lat="43.41637" lon="6.66511">
        <ele>80.199996948242</ele>
        <time>2019-05-04T13:40:37.000Z</time>
      </trkpt>
      <trkpt lat="43.41641" lon="6.66523">
        <ele>79.599998474121</ele>
        <time>2019-05-04T13:40:39.000Z</time>
      </trkpt>
      <trkpt lat="43.41643" lon="6.66524">
        <ele>79.400001525879</ele>
        <time>2019-05-04T13:40:40.000Z</time>
      </trkpt>
      <trkpt lat="43.41654" lon="6.66517">
        <ele>79.199996948242</ele>
        <time>2019-05-04T13:40:43.000Z</time>
      </trkpt>
      <trkpt lat="43.41684" lon="6.66496">
        <ele>79.599998474121</ele>
        <time>2019-05-04T13:40:50.000Z</time>
      </trkpt>
      <trkpt lat="43.41689" lon="6.66495">
        <ele>79.800003051758</ele>
        <time>2019-05-04T13:40:51.000Z</time>
      </trkpt>
      <trkpt lat="43.41704" lon="6.6649">
        <ele>80.599998474121</ele>
        <time>2019-05-04T13:40:54.000Z</time>
      </trkpt>
      <trkpt lat="43.41715" lon="6.66487">
        <ele>81</ele>
        <time>2019-05-04T13:40:56.000Z</time>
      </trkpt>
      <trkpt lat="43.41736" lon="6.6648">
        <ele>80.599998474121</ele>
        <time>2019-05-04T13:41:00.000Z</time>
      </trkpt>
      <trkpt lat="43.41746" lon="6.66484">
        <ele>80.199996948242</ele>
        <time>2019-05-04T13:41:02.000Z</time>
      </trkpt>
      <trkpt lat="43.41748" lon="6.66495">
        <ele>80</ele>
        <time>2019-05-04T13:41:04.000Z</time>
      </trkpt>
      <trkpt lat="43.41742" lon="6.66517">
        <ele>79.800003051758</ele>
        <time>2019-05-04T13:41:08.000Z</time>
      </trkpt>
      <trkpt lat="43.41742" lon="6.66523">
        <ele>80</ele>
        <time>2019-05-04T13:41:09.000Z</time>
      </trkpt>
      <trkpt lat="43.41745" lon="6.66534">
        <ele>80.199996948242</ele>
        <time>2019-05-04T13:41:11.000Z</time>
      </trkpt>
      <trkpt lat="43.41755" lon="6.66546">
        <ele>80.400001525879</ele>
        <time>2019-05-04T13:41:14.000Z</time>
      </trkpt>
      <trkpt lat="43.41761" lon="6.66562">
        <ele>80</ele>
        <time>2019-05-04T13:41:17.000Z</time>
      </trkpt>
      <trkpt lat="43.4177" lon="6.66566">
        <ele>79.599998474121</ele>
        <time>2019-05-04T13:41:20.000Z</time>
      </trkpt>
      <trkpt lat="43.4178" lon="6.66555">
        <ele>79.400001525879</ele>
        <time>2019-05-04T13:41:24.000Z</time>
      </trkpt>
      <trkpt lat="43.41789" lon="6.66544">
        <ele>80</ele>
        <time>2019-05-04T13:41:27.000Z</time>
      </trkpt>
      <trkpt lat="43.41798" lon="6.66532">
        <ele>80.199996948242</ele>
        <time>2019-05-04T13:41:30.000Z</time>
      </trkpt>
      <trkpt lat="43.41825" lon="6.66513">
        <ele>79.800003051758</ele>
        <time>2019-05-04T13:41:36.000Z</time>
      </trkpt>
      <trkpt lat="43.41838" lon="6.66509">
        <ele>79.400001525879</ele>
        <time>2019-05-04T13:41:38.000Z</time>
      </trkpt>
      <trkpt lat="43.4185" lon="6.6651">
        <ele>78.800003051758</ele>
        <time>2019-05-04T13:41:40.000Z</time>
      </trkpt>
      <trkpt lat="43.41857" lon="6.66514">
        <ele>78.400001525879</ele>
        <time>2019-05-04T13:41:41.000Z</time>
      </trkpt>
      <trkpt lat="43.41868" lon="6.66521">
        <ele>77.199996948242</ele>
        <time>2019-05-04T13:41:43.000Z</time>
      </trkpt>
      <trkpt lat="43.41878" lon="6.66519">
        <ele>75.599998474121</ele>
        <time>2019-05-04T13:41:45.000Z</time>
      </trkpt>
      <trkpt lat="43.41884" lon="6.66516">
        <ele>75.400001525879</ele>
        <time>2019-05-04T13:41:46.000Z</time>
      </trkpt>
      <trkpt lat="43.4189" lon="6.66515">
        <ele>75.199996948242</ele>
        <time>2019-05-04T13:41:47.000Z</time>
      </trkpt>
      <trkpt lat="43.41902" lon="6.66514">
        <ele>74.800003051758</ele>
        <time>2019-05-04T13:41:49.000Z</time>
      </trkpt>
      <trkpt lat="43.41908" lon="6.66512">
        <ele>74.599998474121</ele>
        <time>2019-05-04T13:41:50.000Z</time>
      </trkpt>
      <trkpt lat="43.41923" lon="6.66503">
        <ele>73.800003051758</ele>
        <time>2019-05-04T13:41:52.000Z</time>
      </trkpt>
      <trkpt lat="43.41932" lon="6.66497">
        <ele>72.800003051758</ele>
        <time>2019-05-04T13:41:53.000Z</time>
      </trkpt>
      <trkpt lat="43.4194" lon="6.66491">
        <ele>71.599998474121</ele>
        <time>2019-05-04T13:41:54.000Z</time>
      </trkpt>
      <trkpt lat="43.41949" lon="6.66487">
        <ele>70.400001525879</ele>
        <time>2019-05-04T13:41:55.000Z</time>
      </trkpt>
      <trkpt lat="43.41959" lon="6.66482">
        <ele>68.800003051758</ele>
        <time>2019-05-04T13:41:56.000Z</time>
      </trkpt>
      <trkpt lat="43.41968" lon="6.66478">
        <ele>70.199996948242</ele>
        <time>2019-05-04T13:41:57.000Z</time>
      </trkpt>
      <trkpt lat="43.41984" lon="6.6647">
        <ele>67.800003051758</ele>
        <time>2019-05-04T13:41:59.000Z</time>
      </trkpt>
      <trkpt lat="43.4199" lon="6.66464">
        <ele>66.199996948242</ele>
        <time>2019-05-04T13:42:00.000Z</time>
      </trkpt>
      <trkpt lat="43.42006" lon="6.6644">
        <ele>65.400001525879</ele>
        <time>2019-05-04T13:42:03.000Z</time>
      </trkpt>
      <trkpt lat="43.42009" lon="6.66435">
        <ele>64.800003051758</ele>
        <time>2019-05-04T13:42:04.000Z</time>
      </trkpt>
      <trkpt lat="43.42015" lon="6.66427">
        <ele>63.599998474121</ele>
        <time>2019-05-04T13:42:06.000Z</time>
      </trkpt>
      <trkpt lat="43.42018" lon="6.66423">
        <ele>62.599998474121</ele>
        <time>2019-05-04T13:42:08.000Z</time>
      </trkpt>
      <trkpt lat="43.42019" lon="6.66422">
        <ele>62.200000762939</ele>
        <time>2019-05-04T13:42:09.000Z</time>
      </trkpt>
      <trkpt lat="43.42019" lon="6.66422">
        <ele>61.799999237061</ele>
        <time>2019-05-04T13:42:14.000Z</time>
      </trkpt>
      <trkpt lat="43.4202" lon="6.6642">
        <ele>63.200000762939</ele>
        <time>2019-05-04T13:42:26.000Z</time>
      </trkpt>
      <trkpt lat="43.42021" lon="6.6642">
        <ele>63.599998474121</ele>
        <time>2019-05-04T13:42:30.000Z</time>
      </trkpt>
      <trkpt lat="43.42021" lon="6.66419">
        <ele>63.400001525879</ele>
        <time>2019-05-04T13:42:39.000Z</time>
      </trkpt>
      <trkpt lat="43.42022" lon="6.66417">
        <ele>62.599998474121</ele>
        <time>2019-05-04T13:42:43.000Z</time>
      </trkpt>
      <trkpt lat="43.42024" lon="6.66415">
        <ele>62.400001525879</ele>
        <time>2019-05-04T13:42:44.000Z</time>
      </trkpt>
      <trkpt lat="43.42024" lon="6.66411">
        <ele>62.200000762939</ele>
        <time>2019-05-04T13:42:45.000Z</time>
      </trkpt>
      <trkpt lat="43.42023" lon="6.664">
        <ele>61</ele>
        <time>2019-05-04T13:42:47.000Z</time>
      </trkpt>
      <trkpt lat="43.42024" lon="6.66394">
        <ele>60.200000762939</ele>
        <time>2019-05-04T13:42:48.000Z</time>
      </trkpt>
      <trkpt lat="43.42024" lon="6.66389">
        <ele>59.599998474121</ele>
        <time>2019-05-04T13:42:49.000Z</time>
      </trkpt>
      <trkpt lat="43.42027" lon="6.6638">
        <ele>58.599998474121</ele>
        <time>2019-05-04T13:42:51.000Z</time>
      </trkpt>
      <trkpt lat="43.42028" lon="6.66377">
        <ele>58.200000762939</ele>
        <time>2019-05-04T13:42:52.000Z</time>
      </trkpt>
      <trkpt lat="43.42033" lon="6.66369">
        <ele>57.400001525879</ele>
        <time>2019-05-04T13:42:54.000Z</time>
      </trkpt>
      <trkpt lat="43.42034" lon="6.66368">
        <ele>57</ele>
        <time>2019-05-04T13:42:55.000Z</time>
      </trkpt>
      <trkpt lat="43.42035" lon="6.66369">
        <ele>56.400001525879</ele>
        <time>2019-05-04T13:42:56.000Z</time>
      </trkpt>
      <trkpt lat="43.42036" lon="6.66369">
        <ele>56.400001525879</ele>
        <time>2019-05-04T13:42:57.000Z</time>
      </trkpt>
      <trkpt lat="43.42037" lon="6.66371">
        <ele>56.400001525879</ele>
        <time>2019-05-04T13:42:59.000Z</time>
      </trkpt>
      <trkpt lat="43.42039" lon="6.66374">
        <ele>57</ele>
        <time>2019-05-04T13:43:01.000Z</time>
      </trkpt>
      <trkpt lat="43.4205" lon="6.66381">
        <ele>56</ele>
        <time>2019-05-04T13:43:05.000Z</time>
      </trkpt>
      <trkpt lat="43.42063" lon="6.66385">
        <ele>55</ele>
        <time>2019-05-04T13:43:08.000Z</time>
      </trkpt>
      <trkpt lat="43.4207" lon="6.66388">
        <ele>54.799999237061</ele>
        <time>2019-05-04T13:43:10.000Z</time>
      </trkpt>
      <trkpt lat="43.4209" lon="6.66391">
        <ele>54.400001525879</ele>
        <time>2019-05-04T13:43:15.000Z</time>
      </trkpt>
      <trkpt lat="43.42101" lon="6.66389">
        <ele>53.799999237061</ele>
        <time>2019-05-04T13:43:18.000Z</time>
      </trkpt>
      <trkpt lat="43.42112" lon="6.66386">
        <ele>53.400001525879</ele>
        <time>2019-05-04T13:43:21.000Z</time>
      </trkpt>
      <trkpt lat="43.42126" lon="6.66378">
        <ele>52.799999237061</ele>
        <time>2019-05-04T13:43:26.000Z</time>
      </trkpt>
      <trkpt lat="43.42129" lon="6.66376">
        <ele>52.599998474121</ele>
        <time>2019-05-04T13:43:27.000Z</time>
      </trkpt>
      <trkpt lat="43.42141" lon="6.66376">
        <ele>52.200000762939</ele>
        <time>2019-05-04T13:43:31.000Z</time>
      </trkpt>
      <trkpt lat="43.42147" lon="6.66378">
        <ele>51.599998474121</ele>
        <time>2019-05-04T13:43:33.000Z</time>
      </trkpt>
      <trkpt lat="43.42158" lon="6.66379">
        <ele>50.599998474121</ele>
        <time>2019-05-04T13:43:36.000Z</time>
      </trkpt>
      <trkpt lat="43.42164" lon="6.66379">
        <ele>49.799999237061</ele>
        <time>2019-05-04T13:43:38.000Z</time>
      </trkpt>
      <trkpt lat="43.42174" lon="6.6638">
        <ele>49.599998474121</ele>
        <time>2019-05-04T13:43:41.000Z</time>
      </trkpt>
      <trkpt lat="43.4219" lon="6.66382">
        <ele>48.599998474121</ele>
        <time>2019-05-04T13:43:46.000Z</time>
      </trkpt>
      <trkpt lat="43.42197" lon="6.66384">
        <ele>48.400001525879</ele>
        <time>2019-05-04T13:43:48.000Z</time>
      </trkpt>
      <trkpt lat="43.42209" lon="6.66393">
        <ele>47.400001525879</ele>
        <time>2019-05-04T13:43:52.000Z</time>
      </trkpt>
      <trkpt lat="43.42215" lon="6.66402">
        <ele>47.200000762939</ele>
        <time>2019-05-04T13:43:54.000Z</time>
      </trkpt>
      <trkpt lat="43.42218" lon="6.66405">
        <ele>47.200000762939</ele>
        <time>2019-05-04T13:43:55.000Z</time>
      </trkpt>
      <trkpt lat="43.42226" lon="6.66407">
        <ele>46.599998474121</ele>
        <time>2019-05-04T13:43:57.000Z</time>
      </trkpt>
      <trkpt lat="43.42241" lon="6.66413">
        <ele>46.799999237061</ele>
        <time>2019-05-04T13:44:02.000Z</time>
      </trkpt>
      <trkpt lat="43.42262" lon="6.66428">
        <ele>47</ele>
        <time>2019-05-04T13:44:08.000Z</time>
      </trkpt>
      <trkpt lat="43.42278" lon="6.66432">
        <ele>47</ele>
        <time>2019-05-04T13:44:12.000Z</time>
      </trkpt>
      <trkpt lat="43.42282" lon="6.6644">
        <ele>47</ele>
        <time>2019-05-04T13:44:14.000Z</time>
      </trkpt>
      <trkpt lat="43.42284" lon="6.66443">
        <ele>46.799999237061</ele>
        <time>2019-05-04T13:44:15.000Z</time>
      </trkpt>
      <trkpt lat="43.42291" lon="6.66461">
        <ele>46</ele>
        <time>2019-05-04T13:44:19.000Z</time>
      </trkpt>
      <trkpt lat="43.42293" lon="6.66463">
        <ele>45.799999237061</ele>
        <time>2019-05-04T13:44:20.000Z</time>
      </trkpt>
      <trkpt lat="43.42298" lon="6.66467">
        <ele>45.799999237061</ele>
        <time>2019-05-04T13:44:24.000Z</time>
      </trkpt>
      <trkpt lat="43.42301" lon="6.66468">
        <ele>46.400001525879</ele>
        <time>2019-05-04T13:44:27.000Z</time>
      </trkpt>
      <trkpt lat="43.42302" lon="6.66471">
        <ele>46.799999237061</ele>
        <time>2019-05-04T13:44:29.000Z</time>
      </trkpt>
      <trkpt lat="43.42303" lon="6.66471">
        <ele>47</ele>
        <time>2019-05-04T13:44:33.000Z</time>
      </trkpt>
      <trkpt lat="43.42303" lon="6.66471">
        <ele>47</ele>
        <time>2019-05-04T13:44:34.000Z</time>
      </trkpt>
      <trkpt lat="43.42302" lon="6.66469">
        <ele>46.799999237061</ele>
        <time>2019-05-04T13:44:45.000Z</time>
      </trkpt>
      <trkpt lat="43.42302" lon="6.66467">
        <ele>46.200000762939</ele>
        <time>2019-05-04T13:45:05.000Z</time>
      </trkpt>
      <trkpt lat="43.42304" lon="6.66464">
        <ele>46.200000762939</ele>
        <time>2019-05-04T13:45:16.000Z</time>
      </trkpt>
      <trkpt lat="43.42306" lon="6.66465">
        <ele>46.200000762939</ele>
        <time>2019-05-04T13:45:17.000Z</time>
      </trkpt>
      <trkpt lat="43.42315" lon="6.66473">
        <ele>46.400001525879</ele>
        <time>2019-05-04T13:45:22.000Z</time>
      </trkpt>
      <trkpt lat="43.42332" lon="6.66496">
        <ele>46.200000762939</ele>
        <time>2019-05-04T13:45:29.000Z</time>
      </trkpt>
      <trkpt lat="43.42335" lon="6.66499">
        <ele>46</ele>
        <time>2019-05-04T13:45:30.000Z</time>
      </trkpt>
      <trkpt lat="43.42338" lon="6.66503">
        <ele>46</ele>
        <time>2019-05-04T13:45:31.000Z</time>
      </trkpt>
      <trkpt lat="43.42352" lon="6.66513">
        <ele>45.799999237061</ele>
        <time>2019-05-04T13:45:35.000Z</time>
      </trkpt>
      <trkpt lat="43.42381" lon="6.66524">
        <ele>45.200000762939</ele>
        <time>2019-05-04T13:45:42.000Z</time>
      </trkpt>
      <trkpt lat="43.42386" lon="6.66525">
        <ele>45</ele>
        <time>2019-05-04T13:45:43.000Z</time>
      </trkpt>
      <trkpt lat="43.4239" lon="6.66525">
        <ele>45</ele>
        <time>2019-05-04T13:45:44.000Z</time>
      </trkpt>
      <trkpt lat="43.42404" lon="6.66526">
        <ele>44.599998474121</ele>
        <time>2019-05-04T13:45:47.000Z</time>
      </trkpt>
      <trkpt lat="43.42425" lon="6.66528">
        <ele>44.799999237061</ele>
        <time>2019-05-04T13:45:52.000Z</time>
      </trkpt>
      <trkpt lat="43.4244" lon="6.66526">
        <ele>44.799999237061</ele>
        <time>2019-05-04T13:45:55.000Z</time>
      </trkpt>
      <trkpt lat="43.42466" lon="6.66518">
        <ele>44.200000762939</ele>
        <time>2019-05-04T13:46:00.000Z</time>
      </trkpt>
      <trkpt lat="43.42471" lon="6.66515">
        <ele>44</ele>
        <time>2019-05-04T13:46:01.000Z</time>
      </trkpt>
      <trkpt lat="43.425" lon="6.66498">
        <ele>44.599998474121</ele>
        <time>2019-05-04T13:46:07.000Z</time>
      </trkpt>
      <trkpt lat="43.42535" lon="6.66481">
        <ele>44.400001525879</ele>
        <time>2019-05-04T13:46:14.000Z</time>
      </trkpt>
      <trkpt lat="43.42564" lon="6.66468">
        <ele>44.599998474121</ele>
        <time>2019-05-04T13:46:20.000Z</time>
      </trkpt>
      <trkpt lat="43.42569" lon="6.66465">
        <ele>44.400001525879</ele>
        <time>2019-05-04T13:46:21.000Z</time>
      </trkpt>
      <trkpt lat="43.42589" lon="6.6646">
        <ele>44</ele>
        <time>2019-05-04T13:46:25.000Z</time>
      </trkpt>
      <trkpt lat="43.42593" lon="6.66457">
        <ele>44</ele>
        <time>2019-05-04T13:46:26.000Z</time>
      </trkpt>
      <trkpt lat="43.42597" lon="6.6644">
        <ele>43.799999237061</ele>
        <time>2019-05-04T13:46:29.000Z</time>
      </trkpt>
      <trkpt lat="43.42592" lon="6.66422">
        <ele>43.799999237061</ele>
        <time>2019-05-04T13:46:32.000Z</time>
      </trkpt>
      <trkpt lat="43.42591" lon="6.66417">
        <ele>43.799999237061</ele>
        <time>2019-05-04T13:46:33.000Z</time>
      </trkpt>
      <trkpt lat="43.42575" lon="6.6637">
        <ele>44.200000762939</ele>
        <time>2019-05-04T13:46:42.000Z</time>
      </trkpt>
      <trkpt lat="43.42577" lon="6.66349">
        <ele>44.599998474121</ele>
        <time>2019-05-04T13:46:46.000Z</time>
      </trkpt>
      <trkpt lat="43.4259" lon="6.66326">
        <ele>44.599998474121</ele>
        <time>2019-05-04T13:46:51.000Z</time>
      </trkpt>
      <trkpt lat="43.42611" lon="6.66291">
        <ele>45</ele>
        <time>2019-05-04T13:46:59.000Z</time>
      </trkpt>
      <trkpt lat="43.42616" lon="6.66282">
        <ele>45</ele>
        <time>2019-05-04T13:47:01.000Z</time>
      </trkpt>
      <trkpt lat="43.42632" lon="6.66258">
        <ele>45.599998474121</ele>
        <time>2019-05-04T13:47:07.000Z</time>
      </trkpt>
      <trkpt lat="43.42657" lon="6.66224">
        <ele>45.799999237061</ele>
        <time>2019-05-04T13:47:15.000Z</time>
      </trkpt>
      <trkpt lat="43.42686" lon="6.66189">
        <ele>46</ele>
        <time>2019-05-04T13:47:24.000Z</time>
      </trkpt>
      <trkpt lat="43.42693" lon="6.66183">
        <ele>46</ele>
        <time>2019-05-04T13:47:26.000Z</time>
      </trkpt>
      <trkpt lat="43.42697" lon="6.66181">
        <ele>46.200000762939</ele>
        <time>2019-05-04T13:47:27.000Z</time>
      </trkpt>
      <trkpt lat="43.42707" lon="6.66178">
        <ele>46.400001525879</ele>
        <time>2019-05-04T13:47:29.000Z</time>
      </trkpt>
      <trkpt lat="43.42739" lon="6.66171">
        <ele>45.200000762939</ele>
        <time>2019-05-04T13:47:35.000Z</time>
      </trkpt>
      <trkpt lat="43.42745" lon="6.6617">
        <ele>45</ele>
        <time>2019-05-04T13:47:36.000Z</time>
      </trkpt>
      <trkpt lat="43.42756" lon="6.66166">
        <ele>44.599998474121</ele>
        <time>2019-05-04T13:47:38.000Z</time>
      </trkpt>
      <trkpt lat="43.42766" lon="6.66159">
        <ele>44.400001525879</ele>
        <time>2019-05-04T13:47:40.000Z</time>
      </trkpt>
      <trkpt lat="43.42805" lon="6.66132">
        <ele>43.799999237061</ele>
        <time>2019-05-04T13:47:47.000Z</time>
      </trkpt>
      <trkpt lat="43.42811" lon="6.66129">
        <ele>43.799999237061</ele>
        <time>2019-05-04T13:47:48.000Z</time>
      </trkpt>
      <trkpt lat="43.42859" lon="6.66099">
        <ele>43.799999237061</ele>
        <time>2019-05-04T13:47:57.000Z</time>
      </trkpt>
      <trkpt lat="43.42875" lon="6.66087">
        <ele>44.200000762939</ele>
        <time>2019-05-04T13:48:01.000Z</time>
      </trkpt>
      <trkpt lat="43.42886" lon="6.6608">
        <ele>44.400001525879</ele>
        <time>2019-05-04T13:48:04.000Z</time>
      </trkpt>
      <trkpt lat="43.4289" lon="6.66077">
        <ele>44.400001525879</ele>
        <time>2019-05-04T13:48:05.000Z</time>
      </trkpt>
      <trkpt lat="43.42895" lon="6.66075">
        <ele>44.200000762939</ele>
        <time>2019-05-04T13:48:06.000Z</time>
      </trkpt>
      <trkpt lat="43.42918" lon="6.66068">
        <ele>45</ele>
        <time>2019-05-04T13:48:11.000Z</time>
      </trkpt>
      <trkpt lat="43.42931" lon="6.66063">
        <ele>45.400001525879</ele>
        <time>2019-05-04T13:48:15.000Z</time>
      </trkpt>
      <trkpt lat="43.42936" lon="6.66063">
        <ele>45.599998474121</ele>
        <time>2019-05-04T13:48:17.000Z</time>
      </trkpt>
      <trkpt lat="43.42942" lon="6.66061">
        <ele>46</ele>
        <time>2019-05-04T13:48:19.000Z</time>
      </trkpt>
      <trkpt lat="43.4295" lon="6.6606">
        <ele>46.400001525879</ele>
        <time>2019-05-04T13:48:21.000Z</time>
      </trkpt>
      <trkpt lat="43.42955" lon="6.66058">
        <ele>46.599998474121</ele>
        <time>2019-05-04T13:48:22.000Z</time>
      </trkpt>
      <trkpt lat="43.42965" lon="6.66054">
        <ele>47</ele>
        <time>2019-05-04T13:48:24.000Z</time>
      </trkpt>
      <trkpt lat="43.42969" lon="6.66053">
        <ele>47.200000762939</ele>
        <time>2019-05-04T13:48:25.000Z</time>
      </trkpt>
      <trkpt lat="43.42993" lon="6.66044">
        <ele>48.200000762939</ele>
        <time>2019-05-04T13:48:31.000Z</time>
      </trkpt>
      <trkpt lat="43.42996" lon="6.66043">
        <ele>48.599998474121</ele>
        <time>2019-05-04T13:48:32.000Z</time>
      </trkpt>
      <trkpt lat="43.43008" lon="6.66035">
        <ele>49.400001525879</ele>
        <time>2019-05-04T13:48:36.000Z</time>
      </trkpt>
      <trkpt lat="43.43011" lon="6.66033">
        <ele>49.599998474121</ele>
        <time>2019-05-04T13:48:37.000Z</time>
      </trkpt>
      <trkpt lat="43.43029" lon="6.6602">
        <ele>50</ele>
        <time>2019-05-04T13:48:41.000Z</time>
      </trkpt>
      <trkpt lat="43.43062" lon="6.65988">
        <ele>48.400001525879</ele>
        <time>2019-05-04T13:48:47.000Z</time>
      </trkpt>
      <trkpt lat="43.43088" lon="6.65971">
        <ele>47.200000762939</ele>
        <time>2019-05-04T13:48:51.000Z</time>
      </trkpt>
      <trkpt lat="43.43094" lon="6.65968">
        <ele>46.799999237061</ele>
        <time>2019-05-04T13:48:52.000Z</time>
      </trkpt>
      <trkpt lat="43.43113" lon="6.65958">
        <ele>46</ele>
        <time>2019-05-04T13:48:55.000Z</time>
      </trkpt>
      <trkpt lat="43.43131" lon="6.65949">
        <ele>45.599998474121</ele>
        <time>2019-05-04T13:48:58.000Z</time>
      </trkpt>
      <trkpt lat="43.43149" lon="6.65943">
        <ele>45.400001525879</ele>
        <time>2019-05-04T13:49:01.000Z</time>
      </trkpt>
      <trkpt lat="43.43166" lon="6.65939">
        <ele>45.200000762939</ele>
        <time>2019-05-04T13:49:04.000Z</time>
      </trkpt>
      <trkpt lat="43.43186" lon="6.65943">
        <ele>45.799999237061</ele>
        <time>2019-05-04T13:49:08.000Z</time>
      </trkpt>
      <trkpt lat="43.43217" lon="6.6595">
        <ele>46.400001525879</ele>
        <time>2019-05-04T13:49:14.000Z</time>
      </trkpt>
      <trkpt lat="43.43222" lon="6.6595">
        <ele>46.599998474121</ele>
        <time>2019-05-04T13:49:15.000Z</time>
      </trkpt>
      <trkpt lat="43.43236" lon="6.6595">
        <ele>47</ele>
        <time>2019-05-04T13:49:18.000Z</time>
      </trkpt>
      <trkpt lat="43.43244" lon="6.65951">
        <ele>47.400001525879</ele>
        <time>2019-05-04T13:49:20.000Z</time>
      </trkpt>
      <trkpt lat="43.43266" lon="6.65955">
        <ele>48.200000762939</ele>
        <time>2019-05-04T13:49:25.000Z</time>
      </trkpt>
      <trkpt lat="43.43273" lon="6.65956">
        <ele>48.400001525879</ele>
        <time>2019-05-04T13:49:27.000Z</time>
      </trkpt>
      <trkpt lat="43.43288" lon="6.6596">
        <ele>49.200000762939</ele>
        <time>2019-05-04T13:49:31.000Z</time>
      </trkpt>
      <trkpt lat="43.43295" lon="6.65962">
        <ele>50</ele>
        <time>2019-05-04T13:49:33.000Z</time>
      </trkpt>
      <trkpt lat="43.43302" lon="6.65963">
        <ele>50.400001525879</ele>
        <time>2019-05-04T13:49:35.000Z</time>
      </trkpt>
      <trkpt lat="43.43317" lon="6.65966">
        <ele>51.599998474121</ele>
        <time>2019-05-04T13:49:39.000Z</time>
      </trkpt>
      <trkpt lat="43.4332" lon="6.65966">
        <ele>51.799999237061</ele>
        <time>2019-05-04T13:49:40.000Z</time>
      </trkpt>
      <trkpt lat="43.43335" lon="6.65968">
        <ele>52.799999237061</ele>
        <time>2019-05-04T13:49:44.000Z</time>
      </trkpt>
      <trkpt lat="43.43346" lon="6.65966">
        <ele>53.400001525879</ele>
        <time>2019-05-04T13:49:47.000Z</time>
      </trkpt>
      <trkpt lat="43.43351" lon="6.65964">
        <ele>53.599998474121</ele>
        <time>2019-05-04T13:49:48.000Z</time>
      </trkpt>
      <trkpt lat="43.43377" lon="6.65954">
        <ele>52.400001525879</ele>
        <time>2019-05-04T13:49:53.000Z</time>
      </trkpt>
      <trkpt lat="43.43387" lon="6.65951">
        <ele>51.799999237061</ele>
        <time>2019-05-04T13:49:55.000Z</time>
      </trkpt>
      <trkpt lat="43.43393" lon="6.65946">
        <ele>51.400001525879</ele>
        <time>2019-05-04T13:49:57.000Z</time>
      </trkpt>
      <trkpt lat="43.43397" lon="6.65944">
        <ele>52</ele>
        <time>2019-05-04T13:50:01.000Z</time>
      </trkpt>
      <trkpt lat="43.43399" lon="6.65943">
        <ele>52.799999237061</ele>
        <time>2019-05-04T13:50:12.000Z</time>
      </trkpt>
      <trkpt lat="43.434" lon="6.65943">
        <ele>52.799999237061</ele>
        <time>2019-05-04T13:50:15.000Z</time>
      </trkpt>
      <trkpt lat="43.43404" lon="6.65941">
        <ele>52.599998474121</ele>
        <time>2019-05-04T13:50:18.000Z</time>
      </trkpt>
      <trkpt lat="43.43406" lon="6.65939">
        <ele>52.400001525879</ele>
        <time>2019-05-04T13:50:20.000Z</time>
      </trkpt>
      <trkpt lat="43.43412" lon="6.65936">
        <ele>52.400001525879</ele>
        <time>2019-05-04T13:50:23.000Z</time>
      </trkpt>
      <trkpt lat="43.43424" lon="6.6593">
        <ele>52.400001525879</ele>
        <time>2019-05-04T13:50:28.000Z</time>
      </trkpt>
      <trkpt lat="43.43434" lon="6.65919">
        <ele>52.200000762939</ele>
        <time>2019-05-04T13:50:32.000Z</time>
      </trkpt>
      <trkpt lat="43.43437" lon="6.65913">
        <ele>52.200000762939</ele>
        <time>2019-05-04T13:50:37.000Z</time>
      </trkpt>
      <trkpt lat="43.4344" lon="6.65911">
        <ele>52.200000762939</ele>
        <time>2019-05-04T13:50:50.000Z</time>
      </trkpt>
      <trkpt lat="43.4344" lon="6.6591">
        <ele>52.599998474121</ele>
        <time>2019-05-04T13:51:05.000Z</time>
      </trkpt>
      <trkpt lat="43.43443" lon="6.65907">
        <ele>52.200000762939</ele>
        <time>2019-05-04T13:51:18.000Z</time>
      </trkpt>
      <trkpt lat="43.43455" lon="6.65898">
        <ele>51.799999237061</ele>
        <time>2019-05-04T13:51:23.000Z</time>
      </trkpt>
      <trkpt lat="43.43458" lon="6.65895">
        <ele>51.599998474121</ele>
        <time>2019-05-04T13:51:24.000Z</time>
      </trkpt>
      <trkpt lat="43.43469" lon="6.65885">
        <ele>51.200000762939</ele>
        <time>2019-05-04T13:51:27.000Z</time>
      </trkpt>
      <trkpt lat="43.4348" lon="6.65874">
        <ele>51</ele>
        <time>2019-05-04T13:51:30.000Z</time>
      </trkpt>
      <trkpt lat="43.43501" lon="6.65853">
        <ele>51.400001525879</ele>
        <time>2019-05-04T13:51:36.000Z</time>
      </trkpt>
      <trkpt lat="43.43523" lon="6.65836">
        <ele>50.799999237061</ele>
        <time>2019-05-04T13:51:40.000Z</time>
      </trkpt>
      <trkpt lat="43.4353" lon="6.6583">
        <ele>50.200000762939</ele>
        <time>2019-05-04T13:51:41.000Z</time>
      </trkpt>
      <trkpt lat="43.43545" lon="6.65818">
        <ele>48.599998474121</ele>
        <time>2019-05-04T13:51:43.000Z</time>
      </trkpt>
      <trkpt lat="43.43552" lon="6.65812">
        <ele>47.799999237061</ele>
        <time>2019-05-04T13:51:44.000Z</time>
      </trkpt>
      <trkpt lat="43.43559" lon="6.65805">
        <ele>46.799999237061</ele>
        <time>2019-05-04T13:51:45.000Z</time>
      </trkpt>
      <trkpt lat="43.43572" lon="6.6579">
        <ele>45.599998474121</ele>
        <time>2019-05-04T13:51:47.000Z</time>
      </trkpt>
      <trkpt lat="43.43583" lon="6.65775">
        <ele>44.400001525879</ele>
        <time>2019-05-04T13:51:49.000Z</time>
      </trkpt>
      <trkpt lat="43.43591" lon="6.65762">
        <ele>44.200000762939</ele>
        <time>2019-05-04T13:51:51.000Z</time>
      </trkpt>
      <trkpt lat="43.43599" lon="6.65754">
        <ele>44.799999237061</ele>
        <time>2019-05-04T13:51:53.000Z</time>
      </trkpt>
      <trkpt lat="43.43604" lon="6.65747">
        <ele>45.799999237061</ele>
        <time>2019-05-04T13:51:55.000Z</time>
      </trkpt>
      <trkpt lat="43.43614" lon="6.65734">
        <ele>47.200000762939</ele>
        <time>2019-05-04T13:51:59.000Z</time>
      </trkpt>
      <trkpt lat="43.43625" lon="6.65711">
        <ele>47.400001525879</ele>
        <time>2019-05-04T13:52:05.000Z</time>
      </trkpt>
      <trkpt lat="43.43629" lon="6.657">
        <ele>47</ele>
        <time>2019-05-04T13:52:07.000Z</time>
      </trkpt>
      <trkpt lat="43.43634" lon="6.65686">
        <ele>46.799999237061</ele>
        <time>2019-05-04T13:52:09.000Z</time>
      </trkpt>
      <trkpt lat="43.43642" lon="6.65665">
        <ele>45.799999237061</ele>
        <time>2019-05-04T13:52:12.000Z</time>
      </trkpt>
      <trkpt lat="43.4365" lon="6.65643">
        <ele>44.599998474121</ele>
        <time>2019-05-04T13:52:15.000Z</time>
      </trkpt>
      <trkpt lat="43.43653" lon="6.65635">
        <ele>44.400001525879</ele>
        <time>2019-05-04T13:52:16.000Z</time>
      </trkpt>
      <trkpt lat="43.43664" lon="6.65606">
        <ele>43.599998474121</ele>
        <time>2019-05-04T13:52:20.000Z</time>
      </trkpt>
      <trkpt lat="43.43678" lon="6.65572">
        <ele>43</ele>
        <time>2019-05-04T13:52:25.000Z</time>
      </trkpt>
      <trkpt lat="43.43682" lon="6.65566">
        <ele>42.799999237061</ele>
        <time>2019-05-04T13:52:26.000Z</time>
      </trkpt>
      <trkpt lat="43.4369" lon="6.65555">
        <ele>42.599998474121</ele>
        <time>2019-05-04T13:52:28.000Z</time>
      </trkpt>
      <trkpt lat="43.43697" lon="6.65544">
        <ele>42.400001525879</ele>
        <time>2019-05-04T13:52:30.000Z</time>
      </trkpt>
      <trkpt lat="43.43706" lon="6.65524">
        <ele>42.599998474121</ele>
        <time>2019-05-04T13:52:33.000Z</time>
      </trkpt>
      <trkpt lat="43.43709" lon="6.6551">
        <ele>42.400001525879</ele>
        <time>2019-05-04T13:52:35.000Z</time>
      </trkpt>
      <trkpt lat="43.43716" lon="6.65475">
        <ele>43</ele>
        <time>2019-05-04T13:52:40.000Z</time>
      </trkpt>
      <trkpt lat="43.43718" lon="6.65461">
        <ele>43</ele>
        <time>2019-05-04T13:52:42.000Z</time>
      </trkpt>
      <trkpt lat="43.43732" lon="6.65397">
        <ele>43.599998474121</ele>
        <time>2019-05-04T13:52:52.000Z</time>
      </trkpt>
      <trkpt lat="43.43741" lon="6.65354">
        <ele>44</ele>
        <time>2019-05-04T13:52:59.000Z</time>
      </trkpt>
      <trkpt lat="43.43745" lon="6.65318">
        <ele>44.599998474121</ele>
        <time>2019-05-04T13:53:05.000Z</time>
      </trkpt>
      <trkpt lat="43.4375" lon="6.65291">
        <ele>44.799999237061</ele>
        <time>2019-05-04T13:53:10.000Z</time>
      </trkpt>
      <trkpt lat="43.43751" lon="6.65285">
        <ele>44.799999237061</ele>
        <time>2019-05-04T13:53:11.000Z</time>
      </trkpt>
      <trkpt lat="43.43756" lon="6.65264">
        <ele>45.200000762939</ele>
        <time>2019-05-04T13:53:15.000Z</time>
      </trkpt>
      <trkpt lat="43.43758" lon="6.65259">
        <ele>45.200000762939</ele>
        <time>2019-05-04T13:53:16.000Z</time>
      </trkpt>
      <trkpt lat="43.43767" lon="6.6524">
        <ele>45.799999237061</ele>
        <time>2019-05-04T13:53:20.000Z</time>
      </trkpt>
      <trkpt lat="43.43771" lon="6.65231">
        <ele>46.200000762939</ele>
        <time>2019-05-04T13:53:22.000Z</time>
      </trkpt>
      <trkpt lat="43.43778" lon="6.65206">
        <ele>46.400001525879</ele>
        <time>2019-05-04T13:53:27.000Z</time>
      </trkpt>
      <trkpt lat="43.43779" lon="6.65195">
        <ele>46.599998474121</ele>
        <time>2019-05-04T13:53:29.000Z</time>
      </trkpt>
      <trkpt lat="43.4378" lon="6.65177">
        <ele>47</ele>
        <time>2019-05-04T13:53:32.000Z</time>
      </trkpt>
      <trkpt lat="43.4378" lon="6.65172">
        <ele>47.200000762939</ele>
        <time>2019-05-04T13:53:33.000Z</time>
      </trkpt>
      <trkpt lat="43.43781" lon="6.6514">
        <ele>48</ele>
        <time>2019-05-04T13:53:39.000Z</time>
      </trkpt>
      <trkpt lat="43.43782" lon="6.65137">
        <ele>48</ele>
        <time>2019-05-04T13:53:40.000Z</time>
      </trkpt>
      <trkpt lat="43.43787" lon="6.65114">
        <ele>48.599998474121</ele>
        <time>2019-05-04T13:53:45.000Z</time>
      </trkpt>
      <trkpt lat="43.43795" lon="6.65093">
        <ele>49.200000762939</ele>
        <time>2019-05-04T13:53:50.000Z</time>
      </trkpt>
      <trkpt lat="43.43811" lon="6.65066">
        <ele>50.200000762939</ele>
        <time>2019-05-04T13:53:57.000Z</time>
      </trkpt>
      <trkpt lat="43.43814" lon="6.65063">
        <ele>50.400001525879</ele>
        <time>2019-05-04T13:53:58.000Z</time>
      </trkpt>
      <trkpt lat="43.43816" lon="6.65059">
        <ele>50.400001525879</ele>
        <time>2019-05-04T13:53:59.000Z</time>
      </trkpt>
      <trkpt lat="43.43834" lon="6.65033">
        <ele>51.400001525879</ele>
        <time>2019-05-04T13:54:06.000Z</time>
      </trkpt>
      <trkpt lat="43.43836" lon="6.6503">
        <ele>51.599998474121</ele>
        <time>2019-05-04T13:54:07.000Z</time>
      </trkpt>
      <trkpt lat="43.43851" lon="6.65005">
        <ele>52.400001525879</ele>
        <time>2019-05-04T13:54:13.000Z</time>
      </trkpt>
      <trkpt lat="43.43853" lon="6.65001">
        <ele>52.599998474121</ele>
        <time>2019-05-04T13:54:14.000Z</time>
      </trkpt>
      <trkpt lat="43.43872" lon="6.6497">
        <ele>52.400001525879</ele>
        <time>2019-05-04T13:54:20.000Z</time>
      </trkpt>
      <trkpt lat="43.43888" lon="6.64947">
        <ele>51.400001525879</ele>
        <time>2019-05-04T13:54:24.000Z</time>
      </trkpt>
      <trkpt lat="43.43901" lon="6.64928">
        <ele>51</ele>
        <time>2019-05-04T13:54:27.000Z</time>
      </trkpt>
      <trkpt lat="43.43916" lon="6.64908">
        <ele>50.400001525879</ele>
        <time>2019-05-04T13:54:30.000Z</time>
      </trkpt>
      <trkpt lat="43.43927" lon="6.64895">
        <ele>50</ele>
        <time>2019-05-04T13:54:32.000Z</time>
      </trkpt>
      <trkpt lat="43.43942" lon="6.64873">
        <ele>49.400001525879</ele>
        <time>2019-05-04T13:54:35.000Z</time>
      </trkpt>
      <trkpt lat="43.43961" lon="6.64846">
        <ele>48.400001525879</ele>
        <time>2019-05-04T13:54:38.000Z</time>
      </trkpt>
      <trkpt lat="43.43967" lon="6.64839">
        <ele>47.799999237061</ele>
        <time>2019-05-04T13:54:39.000Z</time>
      </trkpt>
      <trkpt lat="43.43972" lon="6.64831">
        <ele>46.799999237061</ele>
        <time>2019-05-04T13:54:40.000Z</time>
      </trkpt>
      <trkpt lat="43.43983" lon="6.64814">
        <ele>45.799999237061</ele>
        <time>2019-05-04T13:54:42.000Z</time>
      </trkpt>
      <trkpt lat="43.43988" lon="6.64807">
        <ele>45.400001525879</ele>
        <time>2019-05-04T13:54:43.000Z</time>
      </trkpt>
      <trkpt lat="43.44016" lon="6.64765">
        <ele>45.200000762939</ele>
        <time>2019-05-04T13:54:49.000Z</time>
      </trkpt>
      <trkpt lat="43.44042" lon="6.64733">
        <ele>45.799999237061</ele>
        <time>2019-05-04T13:54:55.000Z</time>
      </trkpt>
      <trkpt lat="43.44051" lon="6.64724">
        <ele>46.599998474121</ele>
        <time>2019-05-04T13:54:57.000Z</time>
      </trkpt>
      <trkpt lat="43.44073" lon="6.64708">
        <ele>47.200000762939</ele>
        <time>2019-05-04T13:55:02.000Z</time>
      </trkpt>
      <trkpt lat="43.44081" lon="6.64704">
        <ele>47.599998474121</ele>
        <time>2019-05-04T13:55:04.000Z</time>
      </trkpt>
      <trkpt lat="43.44094" lon="6.64699">
        <ele>49.200000762939</ele>
        <time>2019-05-04T13:55:08.000Z</time>
      </trkpt>
      <trkpt lat="43.44102" lon="6.64694">
        <ele>50.400001525879</ele>
        <time>2019-05-04T13:55:11.000Z</time>
      </trkpt>
      <trkpt lat="43.44108" lon="6.64689">
        <ele>51.599998474121</ele>
        <time>2019-05-04T13:55:14.000Z</time>
      </trkpt>
      <trkpt lat="43.44113" lon="6.64683">
        <ele>52.599998474121</ele>
        <time>2019-05-04T13:55:17.000Z</time>
      </trkpt>
      <trkpt lat="43.44118" lon="6.64677">
        <ele>53.599998474121</ele>
        <time>2019-05-04T13:55:20.000Z</time>
      </trkpt>
      <trkpt lat="43.4412" lon="6.64674">
        <ele>54</ele>
        <time>2019-05-04T13:55:21.000Z</time>
      </trkpt>
      <trkpt lat="43.44122" lon="6.64669">
        <ele>54.799999237061</ele>
        <time>2019-05-04T13:55:23.000Z</time>
      </trkpt>
      <trkpt lat="43.44124" lon="6.64661">
        <ele>56</ele>
        <time>2019-05-04T13:55:26.000Z</time>
      </trkpt>
      <trkpt lat="43.44124" lon="6.64658">
        <ele>56.400001525879</ele>
        <time>2019-05-04T13:55:27.000Z</time>
      </trkpt>
      <trkpt lat="43.44125" lon="6.64652">
        <ele>57.200000762939</ele>
        <time>2019-05-04T13:55:29.000Z</time>
      </trkpt>
      <trkpt lat="43.44128" lon="6.6464">
        <ele>58.200000762939</ele>
        <time>2019-05-04T13:55:33.000Z</time>
      </trkpt>
      <trkpt lat="43.4413" lon="6.64633">
        <ele>58.400001525879</ele>
        <time>2019-05-04T13:55:35.000Z</time>
      </trkpt>
      <trkpt lat="43.44138" lon="6.64599">
        <ele>58.200000762939</ele>
        <time>2019-05-04T13:55:43.000Z</time>
      </trkpt>
      <trkpt lat="43.44142" lon="6.64572">
        <ele>59.200000762939</ele>
        <time>2019-05-04T13:55:50.000Z</time>
      </trkpt>
      <trkpt lat="43.44143" lon="6.64564">
        <ele>59.400001525879</ele>
        <time>2019-05-04T13:55:52.000Z</time>
      </trkpt>
      <trkpt lat="43.44145" lon="6.64545">
        <ele>60.400001525879</ele>
        <time>2019-05-04T13:55:57.000Z</time>
      </trkpt>
      <trkpt lat="43.44148" lon="6.64529">
        <ele>61.799999237061</ele>
        <time>2019-05-04T13:56:02.000Z</time>
      </trkpt>
      <trkpt lat="43.4415" lon="6.64516">
        <ele>62.799999237061</ele>
        <time>2019-05-04T13:56:06.000Z</time>
      </trkpt>
      <trkpt lat="43.44153" lon="6.64485">
        <ele>63.200000762939</ele>
        <time>2019-05-04T13:56:13.000Z</time>
      </trkpt>
      <trkpt lat="43.44157" lon="6.64439">
        <ele>62</ele>
        <time>2019-05-04T13:56:20.000Z</time>
      </trkpt>
      <trkpt lat="43.44158" lon="6.64432">
        <ele>61.799999237061</ele>
        <time>2019-05-04T13:56:21.000Z</time>
      </trkpt>
      <trkpt lat="43.4416" lon="6.64382">
        <ele>61.400001525879</ele>
        <time>2019-05-04T13:56:29.000Z</time>
      </trkpt>
      <trkpt lat="43.44161" lon="6.64373">
        <ele>61.599998474121</ele>
        <time>2019-05-04T13:56:31.000Z</time>
      </trkpt>
      <trkpt lat="43.44166" lon="6.64369">
        <ele>61.599998474121</ele>
        <time>2019-05-04T13:56:33.000Z</time>
      </trkpt>
      <trkpt lat="43.4418" lon="6.64362">
        <ele>61.799999237061</ele>
        <time>2019-05-04T13:56:38.000Z</time>
      </trkpt>
      <trkpt lat="43.44208" lon="6.64351">
        <ele>62</ele>
        <time>2019-05-04T13:56:48.000Z</time>
      </trkpt>
      <trkpt lat="43.4422" lon="6.64347">
        <ele>63</ele>
        <time>2019-05-04T13:56:53.000Z</time>
      </trkpt>
      <trkpt lat="43.44225" lon="6.64347">
        <ele>63.200000762939</ele>
        <time>2019-05-04T13:56:55.000Z</time>
      </trkpt>
      <trkpt lat="43.44239" lon="6.64346">
        <ele>64</ele>
        <time>2019-05-04T13:57:00.000Z</time>
      </trkpt>
      <trkpt lat="43.44251" lon="6.64346">
        <ele>64.800003051758</ele>
        <time>2019-05-04T13:57:04.000Z</time>
      </trkpt>
      <trkpt lat="43.44256" lon="6.64346">
        <ele>65.199996948242</ele>
        <time>2019-05-04T13:57:06.000Z</time>
      </trkpt>
      <trkpt lat="43.44272" lon="6.64346">
        <ele>65.599998474121</ele>
        <time>2019-05-04T13:57:11.000Z</time>
      </trkpt>
      <trkpt lat="43.44291" lon="6.64342">
        <ele>63.799999237061</ele>
        <time>2019-05-04T13:57:16.000Z</time>
      </trkpt>
      <trkpt lat="43.44298" lon="6.64339">
        <ele>63.200000762939</ele>
        <time>2019-05-04T13:57:18.000Z</time>
      </trkpt>
      <trkpt lat="43.44306" lon="6.64336">
        <ele>62.799999237061</ele>
        <time>2019-05-04T13:57:20.000Z</time>
      </trkpt>
      <trkpt lat="43.44313" lon="6.64331">
        <ele>61.599998474121</ele>
        <time>2019-05-04T13:57:23.000Z</time>
      </trkpt>
      <trkpt lat="43.44322" lon="6.64321">
        <ele>62.200000762939</ele>
        <time>2019-05-04T13:57:29.000Z</time>
      </trkpt>
      <trkpt lat="43.44323" lon="6.64316">
        <ele>62.599998474121</ele>
        <time>2019-05-04T13:57:32.000Z</time>
      </trkpt>
      <trkpt lat="43.44322" lon="6.64314">
        <ele>62.599998474121</ele>
        <time>2019-05-04T13:57:33.000Z</time>
      </trkpt>
      <trkpt lat="43.44322" lon="6.64313">
        <ele>62.599998474121</ele>
        <time>2019-05-04T13:57:34.000Z</time>
      </trkpt>
      <trkpt lat="43.44317" lon="6.6431">
        <ele>63.400001525879</ele>
        <time>2019-05-04T13:57:38.000Z</time>
      </trkpt>
      <trkpt lat="43.44316" lon="6.64309">
        <ele>63.799999237061</ele>
        <time>2019-05-04T13:57:39.000Z</time>
      </trkpt>
      <trkpt lat="43.44314" lon="6.64307">
        <ele>64</ele>
        <time>2019-05-04T13:57:41.000Z</time>
      </trkpt>
      <trkpt lat="43.4431" lon="6.64303">
        <ele>64.800003051758</ele>
        <time>2019-05-04T13:57:44.000Z</time>
      </trkpt>
      <trkpt lat="43.44308" lon="6.64303">
        <ele>64.800003051758</ele>
        <time>2019-05-04T13:57:45.000Z</time>
      </trkpt>
      <trkpt lat="43.443" lon="6.64303">
        <ele>65.400001525879</ele>
        <time>2019-05-04T13:57:49.000Z</time>
      </trkpt>
      <trkpt lat="43.44297" lon="6.64303">
        <ele>66</ele>
        <time>2019-05-04T13:57:51.000Z</time>
      </trkpt>
      <trkpt lat="43.44288" lon="6.64304">
        <ele>67</ele>
        <time>2019-05-04T13:57:56.000Z</time>
      </trkpt>
      <trkpt lat="43.44287" lon="6.64306">
        <ele>67.199996948242</ele>
        <time>2019-05-04T13:57:57.000Z</time>
      </trkpt>
      <trkpt lat="43.44279" lon="6.64314">
        <ele>68</ele>
        <time>2019-05-04T13:58:02.000Z</time>
      </trkpt>
      <trkpt lat="43.4427" lon="6.64321">
        <ele>67.599998474121</ele>
        <time>2019-05-04T13:58:08.000Z</time>
      </trkpt>
      <trkpt lat="43.44268" lon="6.64323">
        <ele>67.400001525879</ele>
        <time>2019-05-04T13:58:12.000Z</time>
      </trkpt>
      <trkpt lat="43.44267" lon="6.64323">
        <ele>67.400001525879</ele>
        <time>2019-05-04T13:58:26.000Z</time>
      </trkpt>
      <trkpt lat="43.44266" lon="6.64324">
        <ele>67.599998474121</ele>
        <time>2019-05-04T13:58:40.000Z</time>
      </trkpt>
      <trkpt lat="43.44265" lon="6.64324">
        <ele>67.400001525879</ele>
        <time>2019-05-04T13:58:41.000Z</time>
      </trkpt>
      <trkpt lat="43.44263" lon="6.64325">
        <ele>67.599998474121</ele>
        <time>2019-05-04T13:58:46.000Z</time>
      </trkpt>
      <trkpt lat="43.44257" lon="6.64334">
        <ele>68.199996948242</ele>
        <time>2019-05-04T13:58:51.000Z</time>
      </trkpt>
      <trkpt lat="43.44247" lon="6.64345">
        <ele>67.199996948242</ele>
        <time>2019-05-04T13:58:56.000Z</time>
      </trkpt>
      <trkpt lat="43.44237" lon="6.64346">
        <ele>66</ele>
        <time>2019-05-04T13:58:59.000Z</time>
      </trkpt>
      <trkpt lat="43.44231" lon="6.64343">
        <ele>65.400001525879</ele>
        <time>2019-05-04T13:59:01.000Z</time>
      </trkpt>
      <trkpt lat="43.44227" lon="6.64337">
        <ele>64.800003051758</ele>
        <time>2019-05-04T13:59:03.000Z</time>
      </trkpt>
      <trkpt lat="43.44223" lon="6.64333">
        <ele>64.599998474121</ele>
        <time>2019-05-04T13:59:05.000Z</time>
      </trkpt>
      <trkpt lat="43.44214" lon="6.64327">
        <ele>65.599998474121</ele>
        <time>2019-05-04T13:59:10.000Z</time>
      </trkpt>
      <trkpt lat="43.4421" lon="6.64325">
        <ele>65.599998474121</ele>
        <time>2019-05-04T13:59:12.000Z</time>
      </trkpt>
      <trkpt lat="43.44206" lon="6.64329">
        <ele>65</ele>
        <time>2019-05-04T13:59:14.000Z</time>
      </trkpt>
      <trkpt lat="43.44197" lon="6.64339">
        <ele>64.199996948242</ele>
        <time>2019-05-04T13:59:17.000Z</time>
      </trkpt>
      <trkpt lat="43.44194" lon="6.64342">
        <ele>64</ele>
        <time>2019-05-04T13:59:18.000Z</time>
      </trkpt>
      <trkpt lat="43.4419" lon="6.64345">
        <ele>63.400001525879</ele>
        <time>2019-05-04T13:59:19.000Z</time>
      </trkpt>
      <trkpt lat="43.44182" lon="6.64357">
        <ele>62.599998474121</ele>
        <time>2019-05-04T13:59:23.000Z</time>
      </trkpt>
      <trkpt lat="43.44174" lon="6.64365">
        <ele>62.200000762939</ele>
        <time>2019-05-04T13:59:26.000Z</time>
      </trkpt>
      <trkpt lat="43.44166" lon="6.64371">
        <ele>62</ele>
        <time>2019-05-04T13:59:29.000Z</time>
      </trkpt>
      <trkpt lat="43.44164" lon="6.6437">
        <ele>61.799999237061</ele>
        <time>2019-05-04T13:59:30.000Z</time>
      </trkpt>
      <trkpt lat="43.44161" lon="6.64364">
        <ele>62</ele>
        <time>2019-05-04T13:59:32.000Z</time>
      </trkpt>
      <trkpt lat="43.44161" lon="6.64352">
        <ele>62.200000762939</ele>
        <time>2019-05-04T13:59:35.000Z</time>
      </trkpt>
      <trkpt lat="43.44159" lon="6.64333">
        <ele>62.799999237061</ele>
        <time>2019-05-04T13:59:39.000Z</time>
      </trkpt>
      <trkpt lat="43.44156" lon="6.64314">
        <ele>63.400001525879</ele>
        <time>2019-05-04T13:59:43.000Z</time>
      </trkpt>
      <trkpt lat="43.44152" lon="6.64297">
        <ele>63.599998474121</ele>
        <time>2019-05-04T13:59:47.000Z</time>
      </trkpt>
      <trkpt lat="43.44149" lon="6.64281">
        <ele>64.400001525879</ele>
        <time>2019-05-04T13:59:51.000Z</time>
      </trkpt>
      <trkpt lat="43.44144" lon="6.64264">
        <ele>65</ele>
        <time>2019-05-04T13:59:55.000Z</time>
      </trkpt>
      <trkpt lat="43.44138" lon="6.6424">
        <ele>65.599998474121</ele>
        <time>2019-05-04T14:00:00.000Z</time>
      </trkpt>
      <trkpt lat="43.44137" lon="6.64225">
        <ele>66.199996948242</ele>
        <time>2019-05-04T14:00:03.000Z</time>
      </trkpt>
      <trkpt lat="43.44138" lon="6.64216">
        <ele>66.599998474121</ele>
        <time>2019-05-04T14:00:05.000Z</time>
      </trkpt>
      <trkpt lat="43.44143" lon="6.64198">
        <ele>67.199996948242</ele>
        <time>2019-05-04T14:00:09.000Z</time>
      </trkpt>
      <trkpt lat="43.44154" lon="6.64165">
        <ele>67.199996948242</ele>
        <time>2019-05-04T14:00:15.000Z</time>
      </trkpt>
      <trkpt lat="43.44168" lon="6.64127">
        <ele>65.400001525879</ele>
        <time>2019-05-04T14:00:20.000Z</time>
      </trkpt>
      <trkpt lat="43.44172" lon="6.64118">
        <ele>65.199996948242</ele>
        <time>2019-05-04T14:00:21.000Z</time>
      </trkpt>
      <trkpt lat="43.44176" lon="6.64111">
        <ele>64.400001525879</ele>
        <time>2019-05-04T14:00:22.000Z</time>
      </trkpt>
      <trkpt lat="43.44184" lon="6.64093">
        <ele>63</ele>
        <time>2019-05-04T14:00:24.000Z</time>
      </trkpt>
      <trkpt lat="43.44192" lon="6.64074">
        <ele>61.400001525879</ele>
        <time>2019-05-04T14:00:26.000Z</time>
      </trkpt>
      <trkpt lat="43.44195" lon="6.64065">
        <ele>60.400001525879</ele>
        <time>2019-05-04T14:00:27.000Z</time>
      </trkpt>
      <trkpt lat="43.44199" lon="6.64056">
        <ele>59.400001525879</ele>
        <time>2019-05-04T14:00:28.000Z</time>
      </trkpt>
      <trkpt lat="43.44205" lon="6.64039">
        <ele>57.799999237061</ele>
        <time>2019-05-04T14:00:30.000Z</time>
      </trkpt>
      <trkpt lat="43.44209" lon="6.64023">
        <ele>56.799999237061</ele>
        <time>2019-05-04T14:00:32.000Z</time>
      </trkpt>
      <trkpt lat="43.4421" lon="6.64016">
        <ele>56.599998474121</ele>
        <time>2019-05-04T14:00:33.000Z</time>
      </trkpt>
      <trkpt lat="43.44209" lon="6.64009">
        <ele>56.599998474121</ele>
        <time>2019-05-04T14:00:35.000Z</time>
      </trkpt>
      <trkpt lat="43.44204" lon="6.63999">
        <ele>56.400001525879</ele>
        <time>2019-05-04T14:00:36.000Z</time>
      </trkpt>
      <trkpt lat="43.44193" lon="6.63985">
        <ele>56.599998474121</ele>
        <time>2019-05-04T14:00:40.000Z</time>
      </trkpt>
      <trkpt lat="43.44187" lon="6.63978">
        <ele>57.200000762939</ele>
        <time>2019-05-04T14:00:42.000Z</time>
      </trkpt>
      <trkpt lat="43.44161" lon="6.63952">
        <ele>57.799999237061</ele>
        <time>2019-05-04T14:00:50.000Z</time>
      </trkpt>
      <trkpt lat="43.44158" lon="6.63948">
        <ele>57.799999237061</ele>
        <time>2019-05-04T14:00:51.000Z</time>
      </trkpt>
      <trkpt lat="43.44136" lon="6.63929">
        <ele>59</ele>
        <time>2019-05-04T14:00:58.000Z</time>
      </trkpt>
      <trkpt lat="43.44128" lon="6.63923">
        <ele>59.400001525879</ele>
        <time>2019-05-04T14:01:00.000Z</time>
      </trkpt>
      <trkpt lat="43.44092" lon="6.63904">
        <ele>59.799999237061</ele>
        <time>2019-05-04T14:01:10.000Z</time>
      </trkpt>
      <trkpt lat="43.44088" lon="6.63902">
        <ele>60</ele>
        <time>2019-05-04T14:01:11.000Z</time>
      </trkpt>
      <trkpt lat="43.44063" lon="6.63891">
        <ele>61</ele>
        <time>2019-05-04T14:01:18.000Z</time>
      </trkpt>
      <trkpt lat="43.44054" lon="6.63883">
        <ele>61.400001525879</ele>
        <time>2019-05-04T14:01:21.000Z</time>
      </trkpt>
      <trkpt lat="43.44035" lon="6.63861">
        <ele>62.200000762939</ele>
        <time>2019-05-04T14:01:28.000Z</time>
      </trkpt>
      <trkpt lat="43.44032" lon="6.63857">
        <ele>62.200000762939</ele>
        <time>2019-05-04T14:01:29.000Z</time>
      </trkpt>
      <trkpt lat="43.44021" lon="6.63835">
        <ele>63.200000762939</ele>
        <time>2019-05-04T14:01:35.000Z</time>
      </trkpt>
      <trkpt lat="43.44014" lon="6.63818">
        <ele>63.799999237061</ele>
        <time>2019-05-04T14:01:39.000Z</time>
      </trkpt>
      <trkpt lat="43.44011" lon="6.63806">
        <ele>64.199996948242</ele>
        <time>2019-05-04T14:01:42.000Z</time>
      </trkpt>
      <trkpt lat="43.44008" lon="6.63788">
        <ele>65.400001525879</ele>
        <time>2019-05-04T14:01:46.000Z</time>
      </trkpt>
      <trkpt lat="43.44008" lon="6.63769">
        <ele>66.599998474121</ele>
        <time>2019-05-04T14:01:51.000Z</time>
      </trkpt>
      <trkpt lat="43.44009" lon="6.63765">
        <ele>66.800003051758</ele>
        <time>2019-05-04T14:01:52.000Z</time>
      </trkpt>
      <trkpt lat="43.44013" lon="6.63755">
        <ele>67.599998474121</ele>
        <time>2019-05-04T14:01:55.000Z</time>
      </trkpt>
      <trkpt lat="43.4402" lon="6.63742">
        <ele>68.599998474121</ele>
        <time>2019-05-04T14:01:59.000Z</time>
      </trkpt>
      <trkpt lat="43.44033" lon="6.63713">
        <ele>68.800003051758</ele>
        <time>2019-05-04T14:02:05.000Z</time>
      </trkpt>
      <trkpt lat="43.44032" lon="6.63687">
        <ele>67.800003051758</ele>
        <time>2019-05-04T14:02:09.000Z</time>
      </trkpt>
      <trkpt lat="43.44022" lon="6.63665">
        <ele>68</ele>
        <time>2019-05-04T14:02:13.000Z</time>
      </trkpt>
      <trkpt lat="43.4401" lon="6.63646">
        <ele>68.800003051758</ele>
        <time>2019-05-04T14:02:18.000Z</time>
      </trkpt>
      <trkpt lat="43.44007" lon="6.63641">
        <ele>69.800003051758</ele>
        <time>2019-05-04T14:02:20.000Z</time>
      </trkpt>
      <trkpt lat="43.43998" lon="6.63629">
        <ele>70.800003051758</ele>
        <time>2019-05-04T14:02:24.000Z</time>
      </trkpt>
      <trkpt lat="43.43993" lon="6.63622">
        <ele>71.199996948242</ele>
        <time>2019-05-04T14:02:26.000Z</time>
      </trkpt>
      <trkpt lat="43.43986" lon="6.63611">
        <ele>71.800003051758</ele>
        <time>2019-05-04T14:02:29.000Z</time>
      </trkpt>
      <trkpt lat="43.43981" lon="6.63598">
        <ele>72.599998474121</ele>
        <time>2019-05-04T14:02:32.000Z</time>
      </trkpt>
      <trkpt lat="43.43977" lon="6.6359">
        <ele>73</ele>
        <time>2019-05-04T14:02:34.000Z</time>
      </trkpt>
      <trkpt lat="43.43966" lon="6.63555">
        <ele>74</ele>
        <time>2019-05-04T14:02:42.000Z</time>
      </trkpt>
      <trkpt lat="43.43959" lon="6.63534">
        <ele>75</ele>
        <time>2019-05-04T14:02:47.000Z</time>
      </trkpt>
      <trkpt lat="43.43956" lon="6.63521">
        <ele>75.199996948242</ele>
        <time>2019-05-04T14:02:50.000Z</time>
      </trkpt>
      <trkpt lat="43.43956" lon="6.63486">
        <ele>75.599998474121</ele>
        <time>2019-05-04T14:02:57.000Z</time>
      </trkpt>
      <trkpt lat="43.43968" lon="6.63451">
        <ele>76.199996948242</ele>
        <time>2019-05-04T14:03:04.000Z</time>
      </trkpt>
      <trkpt lat="43.43985" lon="6.63435">
        <ele>77</ele>
        <time>2019-05-04T14:03:10.000Z</time>
      </trkpt>
      <trkpt lat="43.43988" lon="6.63434">
        <ele>77.400001525879</ele>
        <time>2019-05-04T14:03:11.000Z</time>
      </trkpt>
      <trkpt lat="43.43995" lon="6.63433">
        <ele>78.400001525879</ele>
        <time>2019-05-04T14:03:14.000Z</time>
      </trkpt>
      <trkpt lat="43.43998" lon="6.63435">
        <ele>79</ele>
        <time>2019-05-04T14:03:16.000Z</time>
      </trkpt>
      <trkpt lat="43.44003" lon="6.63436">
        <ele>79.400001525879</ele>
        <time>2019-05-04T14:03:18.000Z</time>
      </trkpt>
      <trkpt lat="43.44013" lon="6.63438">
        <ele>79.599998474121</ele>
        <time>2019-05-04T14:03:21.000Z</time>
      </trkpt>
      <trkpt lat="43.44044" lon="6.63444">
        <ele>78.199996948242</ele>
        <time>2019-05-04T14:03:29.000Z</time>
      </trkpt>
      <trkpt lat="43.44058" lon="6.6344">
        <ele>78</ele>
        <time>2019-05-04T14:03:33.000Z</time>
      </trkpt>
      <trkpt lat="43.44058" lon="6.63439">
        <ele>77.800003051758</ele>
        <time>2019-05-04T14:03:36.000Z</time>
      </trkpt>
      <trkpt lat="43.44057" lon="6.63439">
        <ele>77.199996948242</ele>
        <time>2019-05-04T14:03:42.000Z</time>
      </trkpt>
    </trkseg>
  </trk>
</gpx>